<?xml version="1.0" encoding="UTF-8" standalone="no" ?>
<gpx xmlns="http://www.topografix.com/GPX/1/1" xmlns:xsi="http://www.w3.org/2001/XMLSchema-instance" xsi:schemaLocation="http://www.topografix.com/GPX/1/1 http://www.topografix.com/GPX/1/1/gpx.xsd" version="1.1" creator="VisuGPX - https://www.visugpx.com">
  <metadata>
    <name>Pic de Madaméte (2.508 m)</name>
    <desc><![CDATA[Départ du lac d'Orédon dans la réserve naturelle de Néouvielle (Hautes-Pyrénées)]]></desc>
  </metadata>
  <trk>
    <name><![CDATA[Pic de Madaméte (2.508 m)_1]]></name>
    <trkseg>
      <trkpt lat="42.82804" lon="0.16966">
        <ele>1859</ele>
        <time>2020-07-28T08:22:59.000Z</time>
      </trkpt>
      <trkpt lat="42.82805" lon="0.16964">
        <ele>1860</ele>
        <time>2020-07-28T08:23:00.000Z</time>
      </trkpt>
      <trkpt lat="42.82805" lon="0.16964">
        <ele>1860</ele>
        <time>2020-07-28T08:23:01.000Z</time>
      </trkpt>
      <trkpt lat="42.82805" lon="0.16964">
        <ele>1860</ele>
        <time>2020-07-28T08:23:02.000Z</time>
      </trkpt>
      <trkpt lat="42.82808" lon="0.16963">
        <ele>1861</ele>
        <time>2020-07-28T08:23:03.000Z</time>
      </trkpt>
      <trkpt lat="42.82808" lon="0.16963">
        <ele>1861</ele>
        <time>2020-07-28T08:23:04.000Z</time>
      </trkpt>
      <trkpt lat="42.82808" lon="0.16963">
        <ele>1861</ele>
        <time>2020-07-28T08:23:05.000Z</time>
      </trkpt>
      <trkpt lat="42.82816" lon="0.16963">
        <ele>1864</ele>
        <time>2020-07-28T08:23:06.000Z</time>
      </trkpt>
      <trkpt lat="42.82816" lon="0.16963">
        <ele>1864</ele>
        <time>2020-07-28T08:23:07.000Z</time>
      </trkpt>
      <trkpt lat="42.82816" lon="0.16963">
        <ele>1864</ele>
        <time>2020-07-28T08:23:08.000Z</time>
      </trkpt>
      <trkpt lat="42.82823" lon="0.16961">
        <ele>1864</ele>
        <time>2020-07-28T08:23:09.000Z</time>
      </trkpt>
      <trkpt lat="42.82823" lon="0.16961">
        <ele>1864</ele>
        <time>2020-07-28T08:23:10.000Z</time>
      </trkpt>
      <trkpt lat="42.82823" lon="0.16961">
        <ele>1864</ele>
        <time>2020-07-28T08:23:11.000Z</time>
      </trkpt>
      <trkpt lat="42.82831" lon="0.16962">
        <ele>1866</ele>
        <time>2020-07-28T08:23:12.000Z</time>
      </trkpt>
      <trkpt lat="42.82831" lon="0.16962">
        <ele>1866</ele>
        <time>2020-07-28T08:23:13.000Z</time>
      </trkpt>
      <trkpt lat="42.82831" lon="0.16962">
        <ele>1866</ele>
        <time>2020-07-28T08:23:14.000Z</time>
      </trkpt>
      <trkpt lat="42.82841" lon="0.16962">
        <ele>1869</ele>
        <time>2020-07-28T08:23:15.000Z</time>
      </trkpt>
      <trkpt lat="42.82841" lon="0.16962">
        <ele>1869</ele>
        <time>2020-07-28T08:23:16.000Z</time>
      </trkpt>
      <trkpt lat="42.82841" lon="0.16962">
        <ele>1869</ele>
        <time>2020-07-28T08:23:17.000Z</time>
      </trkpt>
      <trkpt lat="42.82851" lon="0.16962">
        <ele>1865</ele>
        <time>2020-07-28T08:23:18.000Z</time>
      </trkpt>
      <trkpt lat="42.82851" lon="0.16962">
        <ele>1865</ele>
        <time>2020-07-28T08:23:19.000Z</time>
      </trkpt>
      <trkpt lat="42.82851" lon="0.16962">
        <ele>1865</ele>
        <time>2020-07-28T08:23:20.000Z</time>
      </trkpt>
      <trkpt lat="42.82859" lon="0.16961">
        <ele>1866</ele>
        <time>2020-07-28T08:23:21.000Z</time>
      </trkpt>
      <trkpt lat="42.82859" lon="0.16961">
        <ele>1866</ele>
        <time>2020-07-28T08:23:22.000Z</time>
      </trkpt>
      <trkpt lat="42.82859" lon="0.16961">
        <ele>1866</ele>
        <time>2020-07-28T08:23:23.000Z</time>
      </trkpt>
      <trkpt lat="42.82864" lon="0.16959">
        <ele>1867</ele>
        <time>2020-07-28T08:23:24.000Z</time>
      </trkpt>
      <trkpt lat="42.82864" lon="0.16959">
        <ele>1867</ele>
        <time>2020-07-28T08:23:25.000Z</time>
      </trkpt>
      <trkpt lat="42.82876" lon="0.16949">
        <ele>1868</ele>
        <time>2020-07-28T08:23:26.078Z</time>
      </trkpt>
      <trkpt lat="42.82878" lon="0.16948">
        <ele>1868</ele>
        <time>2020-07-28T08:23:27.078Z</time>
      </trkpt>
      <trkpt lat="42.82878" lon="0.16948">
        <ele>1868</ele>
        <time>2020-07-28T08:23:28.078Z</time>
      </trkpt>
      <trkpt lat="42.82878" lon="0.16948">
        <ele>1868</ele>
        <time>2020-07-28T08:23:29.078Z</time>
      </trkpt>
      <trkpt lat="42.82885" lon="0.16944">
        <ele>1866</ele>
        <time>2020-07-28T08:23:30.078Z</time>
      </trkpt>
      <trkpt lat="42.82885" lon="0.16944">
        <ele>1866</ele>
        <time>2020-07-28T08:23:31.078Z</time>
      </trkpt>
      <trkpt lat="42.82891" lon="0.16941">
        <ele>1867</ele>
        <time>2020-07-28T08:23:32.078Z</time>
      </trkpt>
      <trkpt lat="42.82894" lon="0.1694">
        <ele>1867</ele>
        <time>2020-07-28T08:23:33.078Z</time>
      </trkpt>
      <trkpt lat="42.82894" lon="0.1694">
        <ele>1867</ele>
        <time>2020-07-28T08:23:34.078Z</time>
      </trkpt>
      <trkpt lat="42.82894" lon="0.1694">
        <ele>1867</ele>
        <time>2020-07-28T08:23:35.078Z</time>
      </trkpt>
      <trkpt lat="42.82902" lon="0.16937">
        <ele>1866</ele>
        <time>2020-07-28T08:23:36.078Z</time>
      </trkpt>
      <trkpt lat="42.82902" lon="0.16937">
        <ele>1866</ele>
        <time>2020-07-28T08:23:37.078Z</time>
      </trkpt>
      <trkpt lat="42.82902" lon="0.16937">
        <ele>1866</ele>
        <time>2020-07-28T08:23:38.078Z</time>
      </trkpt>
      <trkpt lat="42.8291" lon="0.16933">
        <ele>1866</ele>
        <time>2020-07-28T08:23:39.078Z</time>
      </trkpt>
      <trkpt lat="42.8291" lon="0.16933">
        <ele>1866</ele>
        <time>2020-07-28T08:23:40.078Z</time>
      </trkpt>
      <trkpt lat="42.8291" lon="0.16933">
        <ele>1866</ele>
        <time>2020-07-28T08:23:41.078Z</time>
      </trkpt>
      <trkpt lat="42.82919" lon="0.16931">
        <ele>1866</ele>
        <time>2020-07-28T08:23:42.078Z</time>
      </trkpt>
      <trkpt lat="42.82919" lon="0.16931">
        <ele>1866</ele>
        <time>2020-07-28T08:23:43.078Z</time>
      </trkpt>
      <trkpt lat="42.82919" lon="0.16931">
        <ele>1866</ele>
        <time>2020-07-28T08:23:44.078Z</time>
      </trkpt>
      <trkpt lat="42.82927" lon="0.16929">
        <ele>1866</ele>
        <time>2020-07-28T08:23:45.078Z</time>
      </trkpt>
      <trkpt lat="42.82927" lon="0.16929">
        <ele>1866</ele>
        <time>2020-07-28T08:23:46.078Z</time>
      </trkpt>
      <trkpt lat="42.82927" lon="0.16929">
        <ele>1866</ele>
        <time>2020-07-28T08:23:47.078Z</time>
      </trkpt>
      <trkpt lat="42.82934" lon="0.16927">
        <ele>1866</ele>
        <time>2020-07-28T08:23:48.078Z</time>
      </trkpt>
      <trkpt lat="42.82939" lon="0.16925">
        <ele>1864</ele>
        <time>2020-07-28T08:23:49.015Z</time>
      </trkpt>
      <trkpt lat="42.82939" lon="0.16925">
        <ele>1864</ele>
        <time>2020-07-28T08:23:50.015Z</time>
      </trkpt>
      <trkpt lat="42.82939" lon="0.16924">
        <ele>1862</ele>
        <time>2020-07-28T08:23:51.015Z</time>
      </trkpt>
      <trkpt lat="42.82939" lon="0.16924">
        <ele>1862</ele>
        <time>2020-07-28T08:23:52.015Z</time>
      </trkpt>
      <trkpt lat="42.82939" lon="0.16924">
        <ele>1862</ele>
        <time>2020-07-28T08:23:53.015Z</time>
      </trkpt>
      <trkpt lat="42.8294" lon="0.16917">
        <ele>1861</ele>
        <time>2020-07-28T08:23:54.015Z</time>
      </trkpt>
      <trkpt lat="42.8294" lon="0.16917">
        <ele>1861</ele>
        <time>2020-07-28T08:23:55.015Z</time>
      </trkpt>
      <trkpt lat="42.8294" lon="0.16917">
        <ele>1861</ele>
        <time>2020-07-28T08:23:56.015Z</time>
      </trkpt>
      <trkpt lat="42.82941" lon="0.16908">
        <ele>1861</ele>
        <time>2020-07-28T08:23:57.015Z</time>
      </trkpt>
      <trkpt lat="42.82941" lon="0.16908">
        <ele>1861</ele>
        <time>2020-07-28T08:23:58.015Z</time>
      </trkpt>
      <trkpt lat="42.82941" lon="0.16908">
        <ele>1861</ele>
        <time>2020-07-28T08:23:59.015Z</time>
      </trkpt>
      <trkpt lat="42.82942" lon="0.16901">
        <ele>1862</ele>
        <time>2020-07-28T08:24:00.015Z</time>
      </trkpt>
      <trkpt lat="42.82942" lon="0.16901">
        <ele>1862</ele>
        <time>2020-07-28T08:24:01.015Z</time>
      </trkpt>
      <trkpt lat="42.82942" lon="0.16901">
        <ele>1862</ele>
        <time>2020-07-28T08:24:02.015Z</time>
      </trkpt>
      <trkpt lat="42.82943" lon="0.16895">
        <ele>1863</ele>
        <time>2020-07-28T08:24:03.015Z</time>
      </trkpt>
      <trkpt lat="42.82943" lon="0.16895">
        <ele>1863</ele>
        <time>2020-07-28T08:24:04.015Z</time>
      </trkpt>
      <trkpt lat="42.82943" lon="0.16895">
        <ele>1863</ele>
        <time>2020-07-28T08:24:05.015Z</time>
      </trkpt>
      <trkpt lat="42.82943" lon="0.16885">
        <ele>1864</ele>
        <time>2020-07-28T08:24:06.015Z</time>
      </trkpt>
      <trkpt lat="42.82943" lon="0.16885">
        <ele>1864</ele>
        <time>2020-07-28T08:24:07.015Z</time>
      </trkpt>
      <trkpt lat="42.82943" lon="0.16885">
        <ele>1864</ele>
        <time>2020-07-28T08:24:08.015Z</time>
      </trkpt>
      <trkpt lat="42.82944" lon="0.16876">
        <ele>1864</ele>
        <time>2020-07-28T08:24:09.015Z</time>
      </trkpt>
      <trkpt lat="42.82944" lon="0.16876">
        <ele>1864</ele>
        <time>2020-07-28T08:24:10.015Z</time>
      </trkpt>
      <trkpt lat="42.82944" lon="0.16876">
        <ele>1864</ele>
        <time>2020-07-28T08:24:11.015Z</time>
      </trkpt>
      <trkpt lat="42.82941" lon="0.16864">
        <ele>1866</ele>
        <time>2020-07-28T08:24:12.015Z</time>
      </trkpt>
      <trkpt lat="42.82941" lon="0.16864">
        <ele>1866</ele>
        <time>2020-07-28T08:24:13.015Z</time>
      </trkpt>
      <trkpt lat="42.82941" lon="0.16864">
        <ele>1866</ele>
        <time>2020-07-28T08:24:14.015Z</time>
      </trkpt>
      <trkpt lat="42.82939" lon="0.16854">
        <ele>1867</ele>
        <time>2020-07-28T08:24:15.015Z</time>
      </trkpt>
      <trkpt lat="42.82939" lon="0.16854">
        <ele>1867</ele>
        <time>2020-07-28T08:24:16.015Z</time>
      </trkpt>
      <trkpt lat="42.82939" lon="0.16854">
        <ele>1867</ele>
        <time>2020-07-28T08:24:17.015Z</time>
      </trkpt>
      <trkpt lat="42.82939" lon="0.16844">
        <ele>1869</ele>
        <time>2020-07-28T08:24:18.015Z</time>
      </trkpt>
      <trkpt lat="42.82939" lon="0.16844">
        <ele>1869</ele>
        <time>2020-07-28T08:24:19.015Z</time>
      </trkpt>
      <trkpt lat="42.82939" lon="0.16844">
        <ele>1869</ele>
        <time>2020-07-28T08:24:20.015Z</time>
      </trkpt>
      <trkpt lat="42.82939" lon="0.16833">
        <ele>1870</ele>
        <time>2020-07-28T08:24:21.015Z</time>
      </trkpt>
      <trkpt lat="42.82939" lon="0.16833">
        <ele>1870</ele>
        <time>2020-07-28T08:24:22.015Z</time>
      </trkpt>
      <trkpt lat="42.82939" lon="0.16833">
        <ele>1870</ele>
        <time>2020-07-28T08:24:23.015Z</time>
      </trkpt>
      <trkpt lat="42.82943" lon="0.16821">
        <ele>1868</ele>
        <time>2020-07-28T08:24:24.015Z</time>
      </trkpt>
      <trkpt lat="42.82943" lon="0.16821">
        <ele>1868</ele>
        <time>2020-07-28T08:24:25.015Z</time>
      </trkpt>
      <trkpt lat="42.82943" lon="0.16821">
        <ele>1868</ele>
        <time>2020-07-28T08:24:26.015Z</time>
      </trkpt>
      <trkpt lat="42.82945" lon="0.16809">
        <ele>1868</ele>
        <time>2020-07-28T08:24:27.015Z</time>
      </trkpt>
      <trkpt lat="42.82945" lon="0.16809">
        <ele>1868</ele>
        <time>2020-07-28T08:24:28.015Z</time>
      </trkpt>
      <trkpt lat="42.82945" lon="0.16809">
        <ele>1868</ele>
        <time>2020-07-28T08:24:29.015Z</time>
      </trkpt>
      <trkpt lat="42.82947" lon="0.16799">
        <ele>1868</ele>
        <time>2020-07-28T08:24:30.015Z</time>
      </trkpt>
      <trkpt lat="42.82947" lon="0.16799">
        <ele>1868</ele>
        <time>2020-07-28T08:24:31.015Z</time>
      </trkpt>
      <trkpt lat="42.82947" lon="0.16799">
        <ele>1868</ele>
        <time>2020-07-28T08:24:32.015Z</time>
      </trkpt>
      <trkpt lat="42.82949" lon="0.16788">
        <ele>1870</ele>
        <time>2020-07-28T08:24:33.015Z</time>
      </trkpt>
      <trkpt lat="42.82949" lon="0.16788">
        <ele>1870</ele>
        <time>2020-07-28T08:24:34.015Z</time>
      </trkpt>
      <trkpt lat="42.82949" lon="0.16788">
        <ele>1870</ele>
        <time>2020-07-28T08:24:35.015Z</time>
      </trkpt>
      <trkpt lat="42.82948" lon="0.16777">
        <ele>1871</ele>
        <time>2020-07-28T08:24:36.015Z</time>
      </trkpt>
      <trkpt lat="42.82948" lon="0.16777">
        <ele>1871</ele>
        <time>2020-07-28T08:24:37.015Z</time>
      </trkpt>
      <trkpt lat="42.82948" lon="0.16777">
        <ele>1871</ele>
        <time>2020-07-28T08:24:38.015Z</time>
      </trkpt>
      <trkpt lat="42.82948" lon="0.16764">
        <ele>1873</ele>
        <time>2020-07-28T08:24:39.015Z</time>
      </trkpt>
      <trkpt lat="42.82948" lon="0.16764">
        <ele>1873</ele>
        <time>2020-07-28T08:24:40.015Z</time>
      </trkpt>
      <trkpt lat="42.82948" lon="0.16764">
        <ele>1873</ele>
        <time>2020-07-28T08:24:41.015Z</time>
      </trkpt>
      <trkpt lat="42.82951" lon="0.1675">
        <ele>1873</ele>
        <time>2020-07-28T08:24:42.015Z</time>
      </trkpt>
      <trkpt lat="42.82951" lon="0.1675">
        <ele>1873</ele>
        <time>2020-07-28T08:24:43.015Z</time>
      </trkpt>
      <trkpt lat="42.82951" lon="0.1675">
        <ele>1873</ele>
        <time>2020-07-28T08:24:44.015Z</time>
      </trkpt>
      <trkpt lat="42.82954" lon="0.16734">
        <ele>1870</ele>
        <time>2020-07-28T08:24:45.015Z</time>
      </trkpt>
      <trkpt lat="42.82954" lon="0.16734">
        <ele>1870</ele>
        <time>2020-07-28T08:24:46.015Z</time>
      </trkpt>
      <trkpt lat="42.82954" lon="0.16734">
        <ele>1870</ele>
        <time>2020-07-28T08:24:47.015Z</time>
      </trkpt>
      <trkpt lat="42.82953" lon="0.16723">
        <ele>1868</ele>
        <time>2020-07-28T08:24:48.015Z</time>
      </trkpt>
      <trkpt lat="42.82953" lon="0.16723">
        <ele>1868</ele>
        <time>2020-07-28T08:24:49.015Z</time>
      </trkpt>
      <trkpt lat="42.82953" lon="0.16723">
        <ele>1868</ele>
        <time>2020-07-28T08:24:50.015Z</time>
      </trkpt>
      <trkpt lat="42.82951" lon="0.1671">
        <ele>1869</ele>
        <time>2020-07-28T08:24:51.015Z</time>
      </trkpt>
      <trkpt lat="42.82951" lon="0.1671">
        <ele>1869</ele>
        <time>2020-07-28T08:24:52.015Z</time>
      </trkpt>
      <trkpt lat="42.82951" lon="0.1671">
        <ele>1869</ele>
        <time>2020-07-28T08:24:53.015Z</time>
      </trkpt>
      <trkpt lat="42.82949" lon="0.167">
        <ele>1870</ele>
        <time>2020-07-28T08:24:54.015Z</time>
      </trkpt>
      <trkpt lat="42.82949" lon="0.167">
        <ele>1870</ele>
        <time>2020-07-28T08:24:55.015Z</time>
      </trkpt>
      <trkpt lat="42.82949" lon="0.167">
        <ele>1870</ele>
        <time>2020-07-28T08:24:56.015Z</time>
      </trkpt>
      <trkpt lat="42.82947" lon="0.16693">
        <ele>1869</ele>
        <time>2020-07-28T08:24:57.015Z</time>
      </trkpt>
      <trkpt lat="42.82947" lon="0.16693">
        <ele>1869</ele>
        <time>2020-07-28T08:24:58.015Z</time>
      </trkpt>
      <trkpt lat="42.82947" lon="0.16693">
        <ele>1869</ele>
        <time>2020-07-28T08:24:59.015Z</time>
      </trkpt>
      <trkpt lat="42.82947" lon="0.16686">
        <ele>1869</ele>
        <time>2020-07-28T08:25:00.015Z</time>
      </trkpt>
      <trkpt lat="42.82947" lon="0.16686">
        <ele>1869</ele>
        <time>2020-07-28T08:25:01.015Z</time>
      </trkpt>
      <trkpt lat="42.82947" lon="0.16686">
        <ele>1869</ele>
        <time>2020-07-28T08:25:02.015Z</time>
      </trkpt>
      <trkpt lat="42.82945" lon="0.16682">
        <ele>1870</ele>
        <time>2020-07-28T08:25:03.015Z</time>
      </trkpt>
      <trkpt lat="42.82945" lon="0.16682">
        <ele>1870</ele>
        <time>2020-07-28T08:25:04.015Z</time>
      </trkpt>
      <trkpt lat="42.82945" lon="0.16682">
        <ele>1870</ele>
        <time>2020-07-28T08:25:05.015Z</time>
      </trkpt>
      <trkpt lat="42.82944" lon="0.16676">
        <ele>1870</ele>
        <time>2020-07-28T08:25:06.015Z</time>
      </trkpt>
      <trkpt lat="42.82944" lon="0.16676">
        <ele>1870</ele>
        <time>2020-07-28T08:25:07.015Z</time>
      </trkpt>
      <trkpt lat="42.82944" lon="0.16676">
        <ele>1870</ele>
        <time>2020-07-28T08:25:08.015Z</time>
      </trkpt>
      <trkpt lat="42.82943" lon="0.16669">
        <ele>1870</ele>
        <time>2020-07-28T08:25:09.015Z</time>
      </trkpt>
      <trkpt lat="42.82943" lon="0.16669">
        <ele>1870</ele>
        <time>2020-07-28T08:25:10.015Z</time>
      </trkpt>
      <trkpt lat="42.82943" lon="0.16669">
        <ele>1870</ele>
        <time>2020-07-28T08:25:11.015Z</time>
      </trkpt>
      <trkpt lat="42.82941" lon="0.1666">
        <ele>1871</ele>
        <time>2020-07-28T08:25:12.015Z</time>
      </trkpt>
      <trkpt lat="42.82941" lon="0.1666">
        <ele>1871</ele>
        <time>2020-07-28T08:25:13.015Z</time>
      </trkpt>
      <trkpt lat="42.82941" lon="0.1666">
        <ele>1871</ele>
        <time>2020-07-28T08:25:14.015Z</time>
      </trkpt>
      <trkpt lat="42.82941" lon="0.16649">
        <ele>1871</ele>
        <time>2020-07-28T08:25:15.015Z</time>
      </trkpt>
      <trkpt lat="42.82941" lon="0.16649">
        <ele>1871</ele>
        <time>2020-07-28T08:25:16.015Z</time>
      </trkpt>
      <trkpt lat="42.82941" lon="0.16649">
        <ele>1871</ele>
        <time>2020-07-28T08:25:17.015Z</time>
      </trkpt>
      <trkpt lat="42.8294" lon="0.16639">
        <ele>1872</ele>
        <time>2020-07-28T08:25:18.015Z</time>
      </trkpt>
      <trkpt lat="42.8294" lon="0.16639">
        <ele>1872</ele>
        <time>2020-07-28T08:25:19.015Z</time>
      </trkpt>
      <trkpt lat="42.8294" lon="0.16639">
        <ele>1872</ele>
        <time>2020-07-28T08:25:20.015Z</time>
      </trkpt>
      <trkpt lat="42.82937" lon="0.16629">
        <ele>1875</ele>
        <time>2020-07-28T08:25:21.015Z</time>
      </trkpt>
      <trkpt lat="42.82937" lon="0.16629">
        <ele>1875</ele>
        <time>2020-07-28T08:25:22.015Z</time>
      </trkpt>
      <trkpt lat="42.82937" lon="0.16629">
        <ele>1875</ele>
        <time>2020-07-28T08:25:23.015Z</time>
      </trkpt>
      <trkpt lat="42.82933" lon="0.16623">
        <ele>1877</ele>
        <time>2020-07-28T08:25:24.015Z</time>
      </trkpt>
      <trkpt lat="42.82933" lon="0.16623">
        <ele>1877</ele>
        <time>2020-07-28T08:25:25.015Z</time>
      </trkpt>
      <trkpt lat="42.82933" lon="0.16623">
        <ele>1877</ele>
        <time>2020-07-28T08:25:26.015Z</time>
      </trkpt>
      <trkpt lat="42.82929" lon="0.16616">
        <ele>1877</ele>
        <time>2020-07-28T08:25:27.015Z</time>
      </trkpt>
      <trkpt lat="42.82929" lon="0.16616">
        <ele>1877</ele>
        <time>2020-07-28T08:25:28.015Z</time>
      </trkpt>
      <trkpt lat="42.82929" lon="0.16616">
        <ele>1877</ele>
        <time>2020-07-28T08:25:29.015Z</time>
      </trkpt>
      <trkpt lat="42.82926" lon="0.16604">
        <ele>1882</ele>
        <time>2020-07-28T08:25:30.015Z</time>
      </trkpt>
      <trkpt lat="42.82926" lon="0.16604">
        <ele>1882</ele>
        <time>2020-07-28T08:25:31.015Z</time>
      </trkpt>
      <trkpt lat="42.82926" lon="0.16604">
        <ele>1882</ele>
        <time>2020-07-28T08:25:32.015Z</time>
      </trkpt>
      <trkpt lat="42.82924" lon="0.16591">
        <ele>1885</ele>
        <time>2020-07-28T08:25:33.015Z</time>
      </trkpt>
      <trkpt lat="42.82924" lon="0.16591">
        <ele>1885</ele>
        <time>2020-07-28T08:25:34.015Z</time>
      </trkpt>
      <trkpt lat="42.82924" lon="0.16591">
        <ele>1885</ele>
        <time>2020-07-28T08:25:35.015Z</time>
      </trkpt>
      <trkpt lat="42.82922" lon="0.1658">
        <ele>1885</ele>
        <time>2020-07-28T08:25:36.015Z</time>
      </trkpt>
      <trkpt lat="42.82922" lon="0.1658">
        <ele>1885</ele>
        <time>2020-07-28T08:25:37.015Z</time>
      </trkpt>
      <trkpt lat="42.82922" lon="0.1658">
        <ele>1885</ele>
        <time>2020-07-28T08:25:38.015Z</time>
      </trkpt>
      <trkpt lat="42.82921" lon="0.16567">
        <ele>1886</ele>
        <time>2020-07-28T08:25:39.015Z</time>
      </trkpt>
      <trkpt lat="42.82921" lon="0.16567">
        <ele>1886</ele>
        <time>2020-07-28T08:25:40.015Z</time>
      </trkpt>
      <trkpt lat="42.82921" lon="0.16567">
        <ele>1886</ele>
        <time>2020-07-28T08:25:41.015Z</time>
      </trkpt>
      <trkpt lat="42.82921" lon="0.16554">
        <ele>1885</ele>
        <time>2020-07-28T08:25:42.015Z</time>
      </trkpt>
      <trkpt lat="42.82921" lon="0.16554">
        <ele>1885</ele>
        <time>2020-07-28T08:25:43.015Z</time>
      </trkpt>
      <trkpt lat="42.82921" lon="0.16554">
        <ele>1885</ele>
        <time>2020-07-28T08:25:44.015Z</time>
      </trkpt>
      <trkpt lat="42.82923" lon="0.16542">
        <ele>1884</ele>
        <time>2020-07-28T08:25:45.015Z</time>
      </trkpt>
      <trkpt lat="42.82923" lon="0.16542">
        <ele>1884</ele>
        <time>2020-07-28T08:25:46.015Z</time>
      </trkpt>
      <trkpt lat="42.82923" lon="0.16542">
        <ele>1884</ele>
        <time>2020-07-28T08:25:47.015Z</time>
      </trkpt>
      <trkpt lat="42.82924" lon="0.16531">
        <ele>1883</ele>
        <time>2020-07-28T08:25:48.015Z</time>
      </trkpt>
      <trkpt lat="42.82924" lon="0.16531">
        <ele>1883</ele>
        <time>2020-07-28T08:25:49.015Z</time>
      </trkpt>
      <trkpt lat="42.82924" lon="0.16531">
        <ele>1883</ele>
        <time>2020-07-28T08:25:50.015Z</time>
      </trkpt>
      <trkpt lat="42.82926" lon="0.16525">
        <ele>1886</ele>
        <time>2020-07-28T08:25:51.015Z</time>
      </trkpt>
      <trkpt lat="42.82926" lon="0.16525">
        <ele>1886</ele>
        <time>2020-07-28T08:25:52.015Z</time>
      </trkpt>
      <trkpt lat="42.82926" lon="0.16525">
        <ele>1886</ele>
        <time>2020-07-28T08:25:53.015Z</time>
      </trkpt>
      <trkpt lat="42.82926" lon="0.1652">
        <ele>1885</ele>
        <time>2020-07-28T08:25:54.015Z</time>
      </trkpt>
      <trkpt lat="42.82926" lon="0.1652">
        <ele>1885</ele>
        <time>2020-07-28T08:25:55.015Z</time>
      </trkpt>
      <trkpt lat="42.82926" lon="0.1652">
        <ele>1885</ele>
        <time>2020-07-28T08:25:56.015Z</time>
      </trkpt>
      <trkpt lat="42.82926" lon="0.16513">
        <ele>1886</ele>
        <time>2020-07-28T08:25:57.015Z</time>
      </trkpt>
      <trkpt lat="42.82926" lon="0.16513">
        <ele>1886</ele>
        <time>2020-07-28T08:25:58.015Z</time>
      </trkpt>
      <trkpt lat="42.82926" lon="0.16513">
        <ele>1886</ele>
        <time>2020-07-28T08:25:59.015Z</time>
      </trkpt>
      <trkpt lat="42.82925" lon="0.16505">
        <ele>1887</ele>
        <time>2020-07-28T08:26:00.015Z</time>
      </trkpt>
      <trkpt lat="42.82925" lon="0.16505">
        <ele>1887</ele>
        <time>2020-07-28T08:26:01.015Z</time>
      </trkpt>
      <trkpt lat="42.82925" lon="0.16505">
        <ele>1887</ele>
        <time>2020-07-28T08:26:02.015Z</time>
      </trkpt>
      <trkpt lat="42.82925" lon="0.16495">
        <ele>1888</ele>
        <time>2020-07-28T08:26:03.015Z</time>
      </trkpt>
      <trkpt lat="42.82925" lon="0.16495">
        <ele>1888</ele>
        <time>2020-07-28T08:26:04.015Z</time>
      </trkpt>
      <trkpt lat="42.82925" lon="0.16495">
        <ele>1888</ele>
        <time>2020-07-28T08:26:05.015Z</time>
      </trkpt>
      <trkpt lat="42.82926" lon="0.16484">
        <ele>1891</ele>
        <time>2020-07-28T08:26:06.015Z</time>
      </trkpt>
      <trkpt lat="42.82926" lon="0.16484">
        <ele>1891</ele>
        <time>2020-07-28T08:26:07.015Z</time>
      </trkpt>
      <trkpt lat="42.82926" lon="0.16484">
        <ele>1891</ele>
        <time>2020-07-28T08:26:08.015Z</time>
      </trkpt>
      <trkpt lat="42.82926" lon="0.16476">
        <ele>1889</ele>
        <time>2020-07-28T08:26:09.015Z</time>
      </trkpt>
      <trkpt lat="42.82926" lon="0.16476">
        <ele>1889</ele>
        <time>2020-07-28T08:26:10.015Z</time>
      </trkpt>
      <trkpt lat="42.82926" lon="0.16476">
        <ele>1889</ele>
        <time>2020-07-28T08:26:11.015Z</time>
      </trkpt>
      <trkpt lat="42.82923" lon="0.1647">
        <ele>1888</ele>
        <time>2020-07-28T08:26:12.015Z</time>
      </trkpt>
      <trkpt lat="42.82923" lon="0.1647">
        <ele>1888</ele>
        <time>2020-07-28T08:26:13.015Z</time>
      </trkpt>
      <trkpt lat="42.82923" lon="0.1647">
        <ele>1888</ele>
        <time>2020-07-28T08:26:14.015Z</time>
      </trkpt>
      <trkpt lat="42.82921" lon="0.16459">
        <ele>1889</ele>
        <time>2020-07-28T08:26:15.015Z</time>
      </trkpt>
      <trkpt lat="42.82921" lon="0.16459">
        <ele>1889</ele>
        <time>2020-07-28T08:26:16.015Z</time>
      </trkpt>
      <trkpt lat="42.82921" lon="0.16459">
        <ele>1889</ele>
        <time>2020-07-28T08:26:17.015Z</time>
      </trkpt>
      <trkpt lat="42.82919" lon="0.1645">
        <ele>1888</ele>
        <time>2020-07-28T08:26:18.015Z</time>
      </trkpt>
      <trkpt lat="42.82919" lon="0.1645">
        <ele>1888</ele>
        <time>2020-07-28T08:26:19.015Z</time>
      </trkpt>
      <trkpt lat="42.82919" lon="0.1645">
        <ele>1888</ele>
        <time>2020-07-28T08:26:20.015Z</time>
      </trkpt>
      <trkpt lat="42.82921" lon="0.16444">
        <ele>1888</ele>
        <time>2020-07-28T08:26:21.015Z</time>
      </trkpt>
      <trkpt lat="42.82921" lon="0.16444">
        <ele>1888</ele>
        <time>2020-07-28T08:26:22.015Z</time>
      </trkpt>
      <trkpt lat="42.82921" lon="0.16444">
        <ele>1888</ele>
        <time>2020-07-28T08:26:23.015Z</time>
      </trkpt>
      <trkpt lat="42.82925" lon="0.16444">
        <ele>1888</ele>
        <time>2020-07-28T08:26:24.015Z</time>
      </trkpt>
      <trkpt lat="42.82925" lon="0.16444">
        <ele>1888</ele>
        <time>2020-07-28T08:26:25.015Z</time>
      </trkpt>
      <trkpt lat="42.82925" lon="0.16444">
        <ele>1888</ele>
        <time>2020-07-28T08:26:26.015Z</time>
      </trkpt>
      <trkpt lat="42.82928" lon="0.16444">
        <ele>1888</ele>
        <time>2020-07-28T08:26:27.015Z</time>
      </trkpt>
      <trkpt lat="42.82928" lon="0.16444">
        <ele>1888</ele>
        <time>2020-07-28T08:26:28.015Z</time>
      </trkpt>
      <trkpt lat="42.82928" lon="0.16444">
        <ele>1888</ele>
        <time>2020-07-28T08:26:29.015Z</time>
      </trkpt>
      <trkpt lat="42.8293" lon="0.16446">
        <ele>1889</ele>
        <time>2020-07-28T08:26:30.015Z</time>
      </trkpt>
      <trkpt lat="42.8293" lon="0.16446">
        <ele>1889</ele>
        <time>2020-07-28T08:26:31.015Z</time>
      </trkpt>
      <trkpt lat="42.8293" lon="0.16446">
        <ele>1889</ele>
        <time>2020-07-28T08:26:32.015Z</time>
      </trkpt>
      <trkpt lat="42.82933" lon="0.16449">
        <ele>1888</ele>
        <time>2020-07-28T08:26:33.015Z</time>
      </trkpt>
      <trkpt lat="42.82933" lon="0.16449">
        <ele>1888</ele>
        <time>2020-07-28T08:26:34.015Z</time>
      </trkpt>
      <trkpt lat="42.82933" lon="0.16449">
        <ele>1888</ele>
        <time>2020-07-28T08:26:35.015Z</time>
      </trkpt>
      <trkpt lat="42.82936" lon="0.16452">
        <ele>1888</ele>
        <time>2020-07-28T08:26:36.015Z</time>
      </trkpt>
      <trkpt lat="42.82936" lon="0.16452">
        <ele>1888</ele>
        <time>2020-07-28T08:26:37.015Z</time>
      </trkpt>
      <trkpt lat="42.82936" lon="0.16452">
        <ele>1888</ele>
        <time>2020-07-28T08:26:38.015Z</time>
      </trkpt>
      <trkpt lat="42.82937" lon="0.16455">
        <ele>1888</ele>
        <time>2020-07-28T08:26:39.015Z</time>
      </trkpt>
      <trkpt lat="42.82937" lon="0.16455">
        <ele>1888</ele>
        <time>2020-07-28T08:26:40.015Z</time>
      </trkpt>
      <trkpt lat="42.82937" lon="0.16455">
        <ele>1888</ele>
        <time>2020-07-28T08:26:41.015Z</time>
      </trkpt>
      <trkpt lat="42.82939" lon="0.16455">
        <ele>1888</ele>
        <time>2020-07-28T08:26:42.015Z</time>
      </trkpt>
      <trkpt lat="42.82939" lon="0.16455">
        <ele>1888</ele>
        <time>2020-07-28T08:26:43.015Z</time>
      </trkpt>
      <trkpt lat="42.82939" lon="0.16455">
        <ele>1888</ele>
        <time>2020-07-28T08:26:44.015Z</time>
      </trkpt>
      <trkpt lat="42.82942" lon="0.16452">
        <ele>1887</ele>
        <time>2020-07-28T08:26:45.015Z</time>
      </trkpt>
      <trkpt lat="42.82942" lon="0.16452">
        <ele>1887</ele>
        <time>2020-07-28T08:26:46.015Z</time>
      </trkpt>
      <trkpt lat="42.82942" lon="0.16452">
        <ele>1887</ele>
        <time>2020-07-28T08:26:47.015Z</time>
      </trkpt>
      <trkpt lat="42.82945" lon="0.1645">
        <ele>1890</ele>
        <time>2020-07-28T08:26:48.015Z</time>
      </trkpt>
      <trkpt lat="42.82945" lon="0.1645">
        <ele>1890</ele>
        <time>2020-07-28T08:26:49.015Z</time>
      </trkpt>
      <trkpt lat="42.82945" lon="0.1645">
        <ele>1890</ele>
        <time>2020-07-28T08:26:50.015Z</time>
      </trkpt>
      <trkpt lat="42.82947" lon="0.16448">
        <ele>1891</ele>
        <time>2020-07-28T08:26:51.015Z</time>
      </trkpt>
      <trkpt lat="42.82947" lon="0.16448">
        <ele>1891</ele>
        <time>2020-07-28T08:26:52.015Z</time>
      </trkpt>
      <trkpt lat="42.82947" lon="0.16448">
        <ele>1891</ele>
        <time>2020-07-28T08:26:53.015Z</time>
      </trkpt>
      <trkpt lat="42.82948" lon="0.16446">
        <ele>1893</ele>
        <time>2020-07-28T08:26:54.015Z</time>
      </trkpt>
      <trkpt lat="42.82948" lon="0.16446">
        <ele>1893</ele>
        <time>2020-07-28T08:26:55.015Z</time>
      </trkpt>
      <trkpt lat="42.82948" lon="0.16446">
        <ele>1893</ele>
        <time>2020-07-28T08:26:56.015Z</time>
      </trkpt>
      <trkpt lat="42.8295" lon="0.16444">
        <ele>1893</ele>
        <time>2020-07-28T08:26:57.015Z</time>
      </trkpt>
      <trkpt lat="42.8295" lon="0.16444">
        <ele>1893</ele>
        <time>2020-07-28T08:26:58.015Z</time>
      </trkpt>
      <trkpt lat="42.8295" lon="0.16444">
        <ele>1893</ele>
        <time>2020-07-28T08:26:59.015Z</time>
      </trkpt>
      <trkpt lat="42.8295" lon="0.16443">
        <ele>1895</ele>
        <time>2020-07-28T08:27:00.015Z</time>
      </trkpt>
      <trkpt lat="42.8295" lon="0.16443">
        <ele>1895</ele>
        <time>2020-07-28T08:27:01.015Z</time>
      </trkpt>
      <trkpt lat="42.8295" lon="0.16443">
        <ele>1895</ele>
        <time>2020-07-28T08:27:02.015Z</time>
      </trkpt>
      <trkpt lat="42.82952" lon="0.16442">
        <ele>1896</ele>
        <time>2020-07-28T08:27:03.015Z</time>
      </trkpt>
      <trkpt lat="42.82952" lon="0.16442">
        <ele>1896</ele>
        <time>2020-07-28T08:27:04.015Z</time>
      </trkpt>
      <trkpt lat="42.82952" lon="0.16442">
        <ele>1896</ele>
        <time>2020-07-28T08:27:05.015Z</time>
      </trkpt>
      <trkpt lat="42.82954" lon="0.16442">
        <ele>1897</ele>
        <time>2020-07-28T08:27:06.015Z</time>
      </trkpt>
      <trkpt lat="42.82954" lon="0.16442">
        <ele>1897</ele>
        <time>2020-07-28T08:27:07.015Z</time>
      </trkpt>
      <trkpt lat="42.82954" lon="0.16442">
        <ele>1897</ele>
        <time>2020-07-28T08:27:08.015Z</time>
      </trkpt>
      <trkpt lat="42.82956" lon="0.16442">
        <ele>1899</ele>
        <time>2020-07-28T08:27:09.015Z</time>
      </trkpt>
      <trkpt lat="42.82956" lon="0.16442">
        <ele>1899</ele>
        <time>2020-07-28T08:27:10.015Z</time>
      </trkpt>
      <trkpt lat="42.82956" lon="0.16442">
        <ele>1899</ele>
        <time>2020-07-28T08:27:11.015Z</time>
      </trkpt>
      <trkpt lat="42.82957" lon="0.16443">
        <ele>1901</ele>
        <time>2020-07-28T08:27:12.015Z</time>
      </trkpt>
      <trkpt lat="42.82957" lon="0.16443">
        <ele>1901</ele>
        <time>2020-07-28T08:27:13.015Z</time>
      </trkpt>
      <trkpt lat="42.82957" lon="0.16443">
        <ele>1901</ele>
        <time>2020-07-28T08:27:14.015Z</time>
      </trkpt>
      <trkpt lat="42.8296" lon="0.16444">
        <ele>1901</ele>
        <time>2020-07-28T08:27:15.015Z</time>
      </trkpt>
      <trkpt lat="42.8296" lon="0.16444">
        <ele>1901</ele>
        <time>2020-07-28T08:27:16.015Z</time>
      </trkpt>
      <trkpt lat="42.8296" lon="0.16444">
        <ele>1901</ele>
        <time>2020-07-28T08:27:17.015Z</time>
      </trkpt>
      <trkpt lat="42.82962" lon="0.16446">
        <ele>1902</ele>
        <time>2020-07-28T08:27:18.015Z</time>
      </trkpt>
      <trkpt lat="42.82962" lon="0.16446">
        <ele>1902</ele>
        <time>2020-07-28T08:27:19.015Z</time>
      </trkpt>
      <trkpt lat="42.82962" lon="0.16446">
        <ele>1902</ele>
        <time>2020-07-28T08:27:20.015Z</time>
      </trkpt>
      <trkpt lat="42.82965" lon="0.16446">
        <ele>1906</ele>
        <time>2020-07-28T08:27:21.015Z</time>
      </trkpt>
      <trkpt lat="42.82965" lon="0.16446">
        <ele>1906</ele>
        <time>2020-07-28T08:27:22.015Z</time>
      </trkpt>
      <trkpt lat="42.82965" lon="0.16446">
        <ele>1906</ele>
        <time>2020-07-28T08:27:23.015Z</time>
      </trkpt>
      <trkpt lat="42.82968" lon="0.16446">
        <ele>1907</ele>
        <time>2020-07-28T08:27:24.015Z</time>
      </trkpt>
      <trkpt lat="42.82968" lon="0.16446">
        <ele>1907</ele>
        <time>2020-07-28T08:27:25.015Z</time>
      </trkpt>
      <trkpt lat="42.82968" lon="0.16446">
        <ele>1907</ele>
        <time>2020-07-28T08:27:26.015Z</time>
      </trkpt>
      <trkpt lat="42.8297" lon="0.16447">
        <ele>1908</ele>
        <time>2020-07-28T08:27:27.015Z</time>
      </trkpt>
      <trkpt lat="42.8297" lon="0.16447">
        <ele>1908</ele>
        <time>2020-07-28T08:27:28.015Z</time>
      </trkpt>
      <trkpt lat="42.8297" lon="0.16447">
        <ele>1908</ele>
        <time>2020-07-28T08:27:29.015Z</time>
      </trkpt>
      <trkpt lat="42.82972" lon="0.1645">
        <ele>1909</ele>
        <time>2020-07-28T08:27:30.015Z</time>
      </trkpt>
      <trkpt lat="42.82972" lon="0.1645">
        <ele>1909</ele>
        <time>2020-07-28T08:27:31.015Z</time>
      </trkpt>
      <trkpt lat="42.82972" lon="0.1645">
        <ele>1909</ele>
        <time>2020-07-28T08:27:32.015Z</time>
      </trkpt>
      <trkpt lat="42.82975" lon="0.16453">
        <ele>1910</ele>
        <time>2020-07-28T08:27:33.015Z</time>
      </trkpt>
      <trkpt lat="42.82975" lon="0.16453">
        <ele>1910</ele>
        <time>2020-07-28T08:27:34.015Z</time>
      </trkpt>
      <trkpt lat="42.82975" lon="0.16453">
        <ele>1910</ele>
        <time>2020-07-28T08:27:35.015Z</time>
      </trkpt>
      <trkpt lat="42.82978" lon="0.16455">
        <ele>1910</ele>
        <time>2020-07-28T08:27:36.015Z</time>
      </trkpt>
      <trkpt lat="42.82978" lon="0.16455">
        <ele>1910</ele>
        <time>2020-07-28T08:27:37.015Z</time>
      </trkpt>
      <trkpt lat="42.82978" lon="0.16455">
        <ele>1910</ele>
        <time>2020-07-28T08:27:38.015Z</time>
      </trkpt>
      <trkpt lat="42.8298" lon="0.16455">
        <ele>1912</ele>
        <time>2020-07-28T08:27:39.015Z</time>
      </trkpt>
      <trkpt lat="42.8298" lon="0.16455">
        <ele>1912</ele>
        <time>2020-07-28T08:27:40.015Z</time>
      </trkpt>
      <trkpt lat="42.8298" lon="0.16455">
        <ele>1912</ele>
        <time>2020-07-28T08:27:41.015Z</time>
      </trkpt>
      <trkpt lat="42.82981" lon="0.16451">
        <ele>1913</ele>
        <time>2020-07-28T08:27:42.015Z</time>
      </trkpt>
      <trkpt lat="42.82981" lon="0.16451">
        <ele>1913</ele>
        <time>2020-07-28T08:27:43.015Z</time>
      </trkpt>
      <trkpt lat="42.82981" lon="0.16451">
        <ele>1913</ele>
        <time>2020-07-28T08:27:44.015Z</time>
      </trkpt>
      <trkpt lat="42.82982" lon="0.16448">
        <ele>1914</ele>
        <time>2020-07-28T08:27:45.015Z</time>
      </trkpt>
      <trkpt lat="42.82982" lon="0.16448">
        <ele>1914</ele>
        <time>2020-07-28T08:27:46.015Z</time>
      </trkpt>
      <trkpt lat="42.82982" lon="0.16448">
        <ele>1914</ele>
        <time>2020-07-28T08:27:47.015Z</time>
      </trkpt>
      <trkpt lat="42.82982" lon="0.16443">
        <ele>1914</ele>
        <time>2020-07-28T08:27:48.015Z</time>
      </trkpt>
      <trkpt lat="42.82982" lon="0.16443">
        <ele>1914</ele>
        <time>2020-07-28T08:27:49.015Z</time>
      </trkpt>
      <trkpt lat="42.82982" lon="0.16443">
        <ele>1914</ele>
        <time>2020-07-28T08:27:50.015Z</time>
      </trkpt>
      <trkpt lat="42.82983" lon="0.1644">
        <ele>1914</ele>
        <time>2020-07-28T08:27:51.015Z</time>
      </trkpt>
      <trkpt lat="42.82983" lon="0.1644">
        <ele>1914</ele>
        <time>2020-07-28T08:27:52.015Z</time>
      </trkpt>
      <trkpt lat="42.82983" lon="0.1644">
        <ele>1914</ele>
        <time>2020-07-28T08:27:53.015Z</time>
      </trkpt>
      <trkpt lat="42.82984" lon="0.16435">
        <ele>1914</ele>
        <time>2020-07-28T08:27:54.015Z</time>
      </trkpt>
      <trkpt lat="42.82984" lon="0.16435">
        <ele>1914</ele>
        <time>2020-07-28T08:27:55.015Z</time>
      </trkpt>
      <trkpt lat="42.82984" lon="0.16435">
        <ele>1914</ele>
        <time>2020-07-28T08:27:56.015Z</time>
      </trkpt>
      <trkpt lat="42.82984" lon="0.16429">
        <ele>1914</ele>
        <time>2020-07-28T08:27:57.015Z</time>
      </trkpt>
      <trkpt lat="42.82984" lon="0.16429">
        <ele>1914</ele>
        <time>2020-07-28T08:27:58.015Z</time>
      </trkpt>
      <trkpt lat="42.82984" lon="0.16429">
        <ele>1914</ele>
        <time>2020-07-28T08:27:59.015Z</time>
      </trkpt>
      <trkpt lat="42.82983" lon="0.16425">
        <ele>1914</ele>
        <time>2020-07-28T08:28:00.015Z</time>
      </trkpt>
      <trkpt lat="42.82983" lon="0.16425">
        <ele>1914</ele>
        <time>2020-07-28T08:28:01.015Z</time>
      </trkpt>
      <trkpt lat="42.82983" lon="0.16425">
        <ele>1914</ele>
        <time>2020-07-28T08:28:02.015Z</time>
      </trkpt>
      <trkpt lat="42.82983" lon="0.16421">
        <ele>1915</ele>
        <time>2020-07-28T08:28:03.015Z</time>
      </trkpt>
      <trkpt lat="42.82983" lon="0.16421">
        <ele>1915</ele>
        <time>2020-07-28T08:28:04.015Z</time>
      </trkpt>
      <trkpt lat="42.82983" lon="0.16421">
        <ele>1915</ele>
        <time>2020-07-28T08:28:05.015Z</time>
      </trkpt>
      <trkpt lat="42.82983" lon="0.1642">
        <ele>1916</ele>
        <time>2020-07-28T08:28:06.015Z</time>
      </trkpt>
      <trkpt lat="42.82983" lon="0.1642">
        <ele>1916</ele>
        <time>2020-07-28T08:28:07.015Z</time>
      </trkpt>
      <trkpt lat="42.82983" lon="0.1642">
        <ele>1916</ele>
        <time>2020-07-28T08:28:08.015Z</time>
      </trkpt>
      <trkpt lat="42.82982" lon="0.16419">
        <ele>1919</ele>
        <time>2020-07-28T08:28:09.015Z</time>
      </trkpt>
      <trkpt lat="42.82982" lon="0.16419">
        <ele>1919</ele>
        <time>2020-07-28T08:28:10.015Z</time>
      </trkpt>
      <trkpt lat="42.82982" lon="0.16419">
        <ele>1919</ele>
        <time>2020-07-28T08:28:11.015Z</time>
      </trkpt>
      <trkpt lat="42.8298" lon="0.16416">
        <ele>1922</ele>
        <time>2020-07-28T08:28:12.015Z</time>
      </trkpt>
      <trkpt lat="42.8298" lon="0.16416">
        <ele>1922</ele>
        <time>2020-07-28T08:28:13.015Z</time>
      </trkpt>
      <trkpt lat="42.8298" lon="0.16416">
        <ele>1922</ele>
        <time>2020-07-28T08:28:14.015Z</time>
      </trkpt>
      <trkpt lat="42.82978" lon="0.16409">
        <ele>1922</ele>
        <time>2020-07-28T08:28:15.015Z</time>
      </trkpt>
      <trkpt lat="42.82978" lon="0.16409">
        <ele>1922</ele>
        <time>2020-07-28T08:28:16.015Z</time>
      </trkpt>
      <trkpt lat="42.82978" lon="0.16409">
        <ele>1922</ele>
        <time>2020-07-28T08:28:17.015Z</time>
      </trkpt>
      <trkpt lat="42.82977" lon="0.16402">
        <ele>1923</ele>
        <time>2020-07-28T08:28:18.015Z</time>
      </trkpt>
      <trkpt lat="42.82977" lon="0.16402">
        <ele>1923</ele>
        <time>2020-07-28T08:28:19.015Z</time>
      </trkpt>
      <trkpt lat="42.82977" lon="0.16402">
        <ele>1923</ele>
        <time>2020-07-28T08:28:20.015Z</time>
      </trkpt>
      <trkpt lat="42.82975" lon="0.16398">
        <ele>1922</ele>
        <time>2020-07-28T08:28:21.015Z</time>
      </trkpt>
      <trkpt lat="42.82975" lon="0.16398">
        <ele>1922</ele>
        <time>2020-07-28T08:28:22.015Z</time>
      </trkpt>
      <trkpt lat="42.82975" lon="0.16398">
        <ele>1922</ele>
        <time>2020-07-28T08:28:23.015Z</time>
      </trkpt>
      <trkpt lat="42.82975" lon="0.16391">
        <ele>1924</ele>
        <time>2020-07-28T08:28:24.015Z</time>
      </trkpt>
      <trkpt lat="42.82975" lon="0.16391">
        <ele>1924</ele>
        <time>2020-07-28T08:28:25.015Z</time>
      </trkpt>
      <trkpt lat="42.82975" lon="0.16391">
        <ele>1924</ele>
        <time>2020-07-28T08:28:26.015Z</time>
      </trkpt>
      <trkpt lat="42.82976" lon="0.16382">
        <ele>1923</ele>
        <time>2020-07-28T08:28:27.015Z</time>
      </trkpt>
      <trkpt lat="42.82976" lon="0.16382">
        <ele>1923</ele>
        <time>2020-07-28T08:28:28.015Z</time>
      </trkpt>
      <trkpt lat="42.82976" lon="0.16382">
        <ele>1923</ele>
        <time>2020-07-28T08:28:29.015Z</time>
      </trkpt>
      <trkpt lat="42.82976" lon="0.16372">
        <ele>1923</ele>
        <time>2020-07-28T08:28:30.015Z</time>
      </trkpt>
      <trkpt lat="42.82976" lon="0.16372">
        <ele>1923</ele>
        <time>2020-07-28T08:28:31.015Z</time>
      </trkpt>
      <trkpt lat="42.82976" lon="0.16372">
        <ele>1923</ele>
        <time>2020-07-28T08:28:32.015Z</time>
      </trkpt>
      <trkpt lat="42.82975" lon="0.16363">
        <ele>1925</ele>
        <time>2020-07-28T08:28:33.015Z</time>
      </trkpt>
      <trkpt lat="42.82975" lon="0.16363">
        <ele>1925</ele>
        <time>2020-07-28T08:28:34.015Z</time>
      </trkpt>
      <trkpt lat="42.82975" lon="0.16363">
        <ele>1925</ele>
        <time>2020-07-28T08:28:35.015Z</time>
      </trkpt>
      <trkpt lat="42.82975" lon="0.16358">
        <ele>1925</ele>
        <time>2020-07-28T08:28:36.015Z</time>
      </trkpt>
      <trkpt lat="42.82975" lon="0.16358">
        <ele>1925</ele>
        <time>2020-07-28T08:28:37.015Z</time>
      </trkpt>
      <trkpt lat="42.82975" lon="0.16358">
        <ele>1925</ele>
        <time>2020-07-28T08:28:38.015Z</time>
      </trkpt>
      <trkpt lat="42.82976" lon="0.16352">
        <ele>1926</ele>
        <time>2020-07-28T08:28:39.015Z</time>
      </trkpt>
      <trkpt lat="42.82976" lon="0.16352">
        <ele>1926</ele>
        <time>2020-07-28T08:28:40.015Z</time>
      </trkpt>
      <trkpt lat="42.82976" lon="0.16352">
        <ele>1926</ele>
        <time>2020-07-28T08:28:41.015Z</time>
      </trkpt>
      <trkpt lat="42.82978" lon="0.16348">
        <ele>1928</ele>
        <time>2020-07-28T08:28:42.015Z</time>
      </trkpt>
      <trkpt lat="42.82978" lon="0.16348">
        <ele>1928</ele>
        <time>2020-07-28T08:28:43.015Z</time>
      </trkpt>
      <trkpt lat="42.82978" lon="0.16348">
        <ele>1928</ele>
        <time>2020-07-28T08:28:44.015Z</time>
      </trkpt>
      <trkpt lat="42.82981" lon="0.16346">
        <ele>1931</ele>
        <time>2020-07-28T08:28:45.015Z</time>
      </trkpt>
      <trkpt lat="42.82981" lon="0.16346">
        <ele>1931</ele>
        <time>2020-07-28T08:28:46.015Z</time>
      </trkpt>
      <trkpt lat="42.82981" lon="0.16346">
        <ele>1931</ele>
        <time>2020-07-28T08:28:47.015Z</time>
      </trkpt>
      <trkpt lat="42.82983" lon="0.16343">
        <ele>1933</ele>
        <time>2020-07-28T08:28:48.015Z</time>
      </trkpt>
      <trkpt lat="42.82983" lon="0.16343">
        <ele>1933</ele>
        <time>2020-07-28T08:28:49.015Z</time>
      </trkpt>
      <trkpt lat="42.82983" lon="0.16343">
        <ele>1933</ele>
        <time>2020-07-28T08:28:50.015Z</time>
      </trkpt>
      <trkpt lat="42.82986" lon="0.16341">
        <ele>1934</ele>
        <time>2020-07-28T08:28:51.015Z</time>
      </trkpt>
      <trkpt lat="42.82986" lon="0.16341">
        <ele>1934</ele>
        <time>2020-07-28T08:28:52.015Z</time>
      </trkpt>
      <trkpt lat="42.82986" lon="0.16341">
        <ele>1934</ele>
        <time>2020-07-28T08:28:53.015Z</time>
      </trkpt>
      <trkpt lat="42.82988" lon="0.16343">
        <ele>1934</ele>
        <time>2020-07-28T08:28:54.015Z</time>
      </trkpt>
      <trkpt lat="42.82988" lon="0.16343">
        <ele>1934</ele>
        <time>2020-07-28T08:28:55.015Z</time>
      </trkpt>
      <trkpt lat="42.82988" lon="0.16343">
        <ele>1934</ele>
        <time>2020-07-28T08:28:56.015Z</time>
      </trkpt>
      <trkpt lat="42.82992" lon="0.16345">
        <ele>1934</ele>
        <time>2020-07-28T08:28:57.015Z</time>
      </trkpt>
      <trkpt lat="42.82992" lon="0.16345">
        <ele>1934</ele>
        <time>2020-07-28T08:28:58.015Z</time>
      </trkpt>
      <trkpt lat="42.82992" lon="0.16345">
        <ele>1934</ele>
        <time>2020-07-28T08:28:59.015Z</time>
      </trkpt>
      <trkpt lat="42.82993" lon="0.16349">
        <ele>1934</ele>
        <time>2020-07-28T08:29:00.015Z</time>
      </trkpt>
      <trkpt lat="42.82993" lon="0.16349">
        <ele>1934</ele>
        <time>2020-07-28T08:29:01.015Z</time>
      </trkpt>
      <trkpt lat="42.82993" lon="0.16349">
        <ele>1934</ele>
        <time>2020-07-28T08:29:02.015Z</time>
      </trkpt>
      <trkpt lat="42.82995" lon="0.16351">
        <ele>1935</ele>
        <time>2020-07-28T08:29:03.015Z</time>
      </trkpt>
      <trkpt lat="42.82995" lon="0.16351">
        <ele>1935</ele>
        <time>2020-07-28T08:29:04.015Z</time>
      </trkpt>
      <trkpt lat="42.82995" lon="0.16351">
        <ele>1935</ele>
        <time>2020-07-28T08:29:05.015Z</time>
      </trkpt>
      <trkpt lat="42.82998" lon="0.16353">
        <ele>1935</ele>
        <time>2020-07-28T08:29:06.015Z</time>
      </trkpt>
      <trkpt lat="42.82998" lon="0.16353">
        <ele>1935</ele>
        <time>2020-07-28T08:29:07.015Z</time>
      </trkpt>
      <trkpt lat="42.82998" lon="0.16353">
        <ele>1935</ele>
        <time>2020-07-28T08:29:08.015Z</time>
      </trkpt>
      <trkpt lat="42.83" lon="0.16356">
        <ele>1936</ele>
        <time>2020-07-28T08:29:09.015Z</time>
      </trkpt>
      <trkpt lat="42.83" lon="0.16356">
        <ele>1936</ele>
        <time>2020-07-28T08:29:10.015Z</time>
      </trkpt>
      <trkpt lat="42.83" lon="0.16356">
        <ele>1936</ele>
        <time>2020-07-28T08:29:11.015Z</time>
      </trkpt>
      <trkpt lat="42.83002" lon="0.16357">
        <ele>1937</ele>
        <time>2020-07-28T08:29:12.015Z</time>
      </trkpt>
      <trkpt lat="42.83002" lon="0.16357">
        <ele>1937</ele>
        <time>2020-07-28T08:29:13.015Z</time>
      </trkpt>
      <trkpt lat="42.83002" lon="0.16357">
        <ele>1937</ele>
        <time>2020-07-28T08:29:14.015Z</time>
      </trkpt>
      <trkpt lat="42.83005" lon="0.16355">
        <ele>1940</ele>
        <time>2020-07-28T08:29:15.015Z</time>
      </trkpt>
      <trkpt lat="42.83005" lon="0.16355">
        <ele>1940</ele>
        <time>2020-07-28T08:29:16.015Z</time>
      </trkpt>
      <trkpt lat="42.83005" lon="0.16355">
        <ele>1940</ele>
        <time>2020-07-28T08:29:17.015Z</time>
      </trkpt>
      <trkpt lat="42.83005" lon="0.16349">
        <ele>1941</ele>
        <time>2020-07-28T08:29:18.015Z</time>
      </trkpt>
      <trkpt lat="42.83005" lon="0.16349">
        <ele>1941</ele>
        <time>2020-07-28T08:29:19.015Z</time>
      </trkpt>
      <trkpt lat="42.83005" lon="0.16349">
        <ele>1941</ele>
        <time>2020-07-28T08:29:20.015Z</time>
      </trkpt>
      <trkpt lat="42.83006" lon="0.16346">
        <ele>1943</ele>
        <time>2020-07-28T08:29:21.015Z</time>
      </trkpt>
      <trkpt lat="42.83006" lon="0.16346">
        <ele>1943</ele>
        <time>2020-07-28T08:29:22.015Z</time>
      </trkpt>
      <trkpt lat="42.83006" lon="0.16346">
        <ele>1943</ele>
        <time>2020-07-28T08:29:23.015Z</time>
      </trkpt>
      <trkpt lat="42.83007" lon="0.16341">
        <ele>1945</ele>
        <time>2020-07-28T08:29:24.015Z</time>
      </trkpt>
      <trkpt lat="42.83007" lon="0.16341">
        <ele>1945</ele>
        <time>2020-07-28T08:29:25.015Z</time>
      </trkpt>
      <trkpt lat="42.83007" lon="0.16341">
        <ele>1945</ele>
        <time>2020-07-28T08:29:26.015Z</time>
      </trkpt>
      <trkpt lat="42.83008" lon="0.16335">
        <ele>1946</ele>
        <time>2020-07-28T08:29:27.015Z</time>
      </trkpt>
      <trkpt lat="42.83008" lon="0.16335">
        <ele>1946</ele>
        <time>2020-07-28T08:29:28.015Z</time>
      </trkpt>
      <trkpt lat="42.83008" lon="0.16335">
        <ele>1946</ele>
        <time>2020-07-28T08:29:29.015Z</time>
      </trkpt>
      <trkpt lat="42.83009" lon="0.1633">
        <ele>1948</ele>
        <time>2020-07-28T08:29:30.015Z</time>
      </trkpt>
      <trkpt lat="42.83009" lon="0.1633">
        <ele>1948</ele>
        <time>2020-07-28T08:29:31.015Z</time>
      </trkpt>
      <trkpt lat="42.83009" lon="0.1633">
        <ele>1948</ele>
        <time>2020-07-28T08:29:32.015Z</time>
      </trkpt>
      <trkpt lat="42.8301" lon="0.16327">
        <ele>1949</ele>
        <time>2020-07-28T08:29:33.015Z</time>
      </trkpt>
      <trkpt lat="42.8301" lon="0.16327">
        <ele>1949</ele>
        <time>2020-07-28T08:29:34.015Z</time>
      </trkpt>
      <trkpt lat="42.8301" lon="0.16327">
        <ele>1949</ele>
        <time>2020-07-28T08:29:35.015Z</time>
      </trkpt>
      <trkpt lat="42.83011" lon="0.16324">
        <ele>1951</ele>
        <time>2020-07-28T08:29:36.015Z</time>
      </trkpt>
      <trkpt lat="42.83011" lon="0.16324">
        <ele>1951</ele>
        <time>2020-07-28T08:29:37.015Z</time>
      </trkpt>
      <trkpt lat="42.83011" lon="0.16324">
        <ele>1951</ele>
        <time>2020-07-28T08:29:38.015Z</time>
      </trkpt>
      <trkpt lat="42.83012" lon="0.16321">
        <ele>1952</ele>
        <time>2020-07-28T08:29:39.015Z</time>
      </trkpt>
      <trkpt lat="42.83012" lon="0.16321">
        <ele>1952</ele>
        <time>2020-07-28T08:29:40.015Z</time>
      </trkpt>
      <trkpt lat="42.83012" lon="0.16321">
        <ele>1952</ele>
        <time>2020-07-28T08:29:41.015Z</time>
      </trkpt>
      <trkpt lat="42.83011" lon="0.16318">
        <ele>1953</ele>
        <time>2020-07-28T08:29:42.015Z</time>
      </trkpt>
      <trkpt lat="42.83011" lon="0.16318">
        <ele>1953</ele>
        <time>2020-07-28T08:29:43.015Z</time>
      </trkpt>
      <trkpt lat="42.83011" lon="0.16318">
        <ele>1953</ele>
        <time>2020-07-28T08:29:44.015Z</time>
      </trkpt>
      <trkpt lat="42.83014" lon="0.16315">
        <ele>1956</ele>
        <time>2020-07-28T08:29:45.015Z</time>
      </trkpt>
      <trkpt lat="42.83014" lon="0.16315">
        <ele>1956</ele>
        <time>2020-07-28T08:29:46.015Z</time>
      </trkpt>
      <trkpt lat="42.83014" lon="0.16315">
        <ele>1956</ele>
        <time>2020-07-28T08:29:47.015Z</time>
      </trkpt>
      <trkpt lat="42.83016" lon="0.16311">
        <ele>1958</ele>
        <time>2020-07-28T08:29:48.015Z</time>
      </trkpt>
      <trkpt lat="42.83016" lon="0.16311">
        <ele>1958</ele>
        <time>2020-07-28T08:29:49.015Z</time>
      </trkpt>
      <trkpt lat="42.83016" lon="0.16311">
        <ele>1958</ele>
        <time>2020-07-28T08:29:50.015Z</time>
      </trkpt>
      <trkpt lat="42.83017" lon="0.16306">
        <ele>1959</ele>
        <time>2020-07-28T08:29:51.015Z</time>
      </trkpt>
      <trkpt lat="42.83017" lon="0.16306">
        <ele>1959</ele>
        <time>2020-07-28T08:29:52.015Z</time>
      </trkpt>
      <trkpt lat="42.83017" lon="0.16306">
        <ele>1959</ele>
        <time>2020-07-28T08:29:53.015Z</time>
      </trkpt>
      <trkpt lat="42.83018" lon="0.16299">
        <ele>1959</ele>
        <time>2020-07-28T08:29:54.015Z</time>
      </trkpt>
      <trkpt lat="42.83018" lon="0.16299">
        <ele>1959</ele>
        <time>2020-07-28T08:29:55.015Z</time>
      </trkpt>
      <trkpt lat="42.83018" lon="0.16299">
        <ele>1959</ele>
        <time>2020-07-28T08:29:56.015Z</time>
      </trkpt>
      <trkpt lat="42.8302" lon="0.16293">
        <ele>1960</ele>
        <time>2020-07-28T08:29:57.015Z</time>
      </trkpt>
      <trkpt lat="42.8302" lon="0.16293">
        <ele>1960</ele>
        <time>2020-07-28T08:29:58.015Z</time>
      </trkpt>
      <trkpt lat="42.8302" lon="0.16293">
        <ele>1960</ele>
        <time>2020-07-28T08:29:59.015Z</time>
      </trkpt>
      <trkpt lat="42.83022" lon="0.16289">
        <ele>1962</ele>
        <time>2020-07-28T08:30:00.015Z</time>
      </trkpt>
      <trkpt lat="42.83022" lon="0.16289">
        <ele>1962</ele>
        <time>2020-07-28T08:30:01.015Z</time>
      </trkpt>
      <trkpt lat="42.83022" lon="0.16289">
        <ele>1962</ele>
        <time>2020-07-28T08:30:02.015Z</time>
      </trkpt>
      <trkpt lat="42.83023" lon="0.16285">
        <ele>1964</ele>
        <time>2020-07-28T08:30:03.015Z</time>
      </trkpt>
      <trkpt lat="42.83023" lon="0.16285">
        <ele>1964</ele>
        <time>2020-07-28T08:30:04.015Z</time>
      </trkpt>
      <trkpt lat="42.83023" lon="0.16285">
        <ele>1964</ele>
        <time>2020-07-28T08:30:05.015Z</time>
      </trkpt>
      <trkpt lat="42.83024" lon="0.16282">
        <ele>1965</ele>
        <time>2020-07-28T08:30:06.015Z</time>
      </trkpt>
      <trkpt lat="42.83024" lon="0.16282">
        <ele>1965</ele>
        <time>2020-07-28T08:30:07.015Z</time>
      </trkpt>
      <trkpt lat="42.83024" lon="0.16282">
        <ele>1965</ele>
        <time>2020-07-28T08:30:08.015Z</time>
      </trkpt>
      <trkpt lat="42.83023" lon="0.16279">
        <ele>1966</ele>
        <time>2020-07-28T08:30:09.015Z</time>
      </trkpt>
      <trkpt lat="42.83023" lon="0.16279">
        <ele>1966</ele>
        <time>2020-07-28T08:30:10.015Z</time>
      </trkpt>
      <trkpt lat="42.83023" lon="0.16279">
        <ele>1966</ele>
        <time>2020-07-28T08:30:11.015Z</time>
      </trkpt>
      <trkpt lat="42.83022" lon="0.16274">
        <ele>1966</ele>
        <time>2020-07-28T08:30:12.015Z</time>
      </trkpt>
      <trkpt lat="42.83022" lon="0.16274">
        <ele>1966</ele>
        <time>2020-07-28T08:30:13.015Z</time>
      </trkpt>
      <trkpt lat="42.83022" lon="0.16274">
        <ele>1966</ele>
        <time>2020-07-28T08:30:14.015Z</time>
      </trkpt>
      <trkpt lat="42.83023" lon="0.16269">
        <ele>1966</ele>
        <time>2020-07-28T08:30:15.015Z</time>
      </trkpt>
      <trkpt lat="42.83023" lon="0.16269">
        <ele>1966</ele>
        <time>2020-07-28T08:30:16.015Z</time>
      </trkpt>
      <trkpt lat="42.83023" lon="0.16269">
        <ele>1966</ele>
        <time>2020-07-28T08:30:17.015Z</time>
      </trkpt>
      <trkpt lat="42.83026" lon="0.16263">
        <ele>1966</ele>
        <time>2020-07-28T08:30:18.015Z</time>
      </trkpt>
      <trkpt lat="42.83026" lon="0.16263">
        <ele>1966</ele>
        <time>2020-07-28T08:30:19.015Z</time>
      </trkpt>
      <trkpt lat="42.83026" lon="0.16263">
        <ele>1966</ele>
        <time>2020-07-28T08:30:20.015Z</time>
      </trkpt>
      <trkpt lat="42.83029" lon="0.16258">
        <ele>1966</ele>
        <time>2020-07-28T08:30:21.015Z</time>
      </trkpt>
      <trkpt lat="42.83029" lon="0.16258">
        <ele>1966</ele>
        <time>2020-07-28T08:30:22.015Z</time>
      </trkpt>
      <trkpt lat="42.83029" lon="0.16258">
        <ele>1966</ele>
        <time>2020-07-28T08:30:23.015Z</time>
      </trkpt>
      <trkpt lat="42.83031" lon="0.16256">
        <ele>1967</ele>
        <time>2020-07-28T08:30:24.015Z</time>
      </trkpt>
      <trkpt lat="42.83031" lon="0.16256">
        <ele>1967</ele>
        <time>2020-07-28T08:30:25.015Z</time>
      </trkpt>
      <trkpt lat="42.83031" lon="0.16256">
        <ele>1967</ele>
        <time>2020-07-28T08:30:26.015Z</time>
      </trkpt>
      <trkpt lat="42.83033" lon="0.16257">
        <ele>1968</ele>
        <time>2020-07-28T08:30:27.015Z</time>
      </trkpt>
      <trkpt lat="42.83033" lon="0.16257">
        <ele>1968</ele>
        <time>2020-07-28T08:30:28.015Z</time>
      </trkpt>
      <trkpt lat="42.83033" lon="0.16257">
        <ele>1968</ele>
        <time>2020-07-28T08:30:29.015Z</time>
      </trkpt>
      <trkpt lat="42.83038" lon="0.16261">
        <ele>1969</ele>
        <time>2020-07-28T08:30:30.015Z</time>
      </trkpt>
      <trkpt lat="42.83038" lon="0.16261">
        <ele>1969</ele>
        <time>2020-07-28T08:30:31.015Z</time>
      </trkpt>
      <trkpt lat="42.83038" lon="0.16261">
        <ele>1969</ele>
        <time>2020-07-28T08:30:32.015Z</time>
      </trkpt>
      <trkpt lat="42.8304" lon="0.16263">
        <ele>1970</ele>
        <time>2020-07-28T08:30:33.015Z</time>
      </trkpt>
      <trkpt lat="42.8304" lon="0.16263">
        <ele>1970</ele>
        <time>2020-07-28T08:30:34.015Z</time>
      </trkpt>
      <trkpt lat="42.8304" lon="0.16263">
        <ele>1970</ele>
        <time>2020-07-28T08:30:35.015Z</time>
      </trkpt>
      <trkpt lat="42.83043" lon="0.16263">
        <ele>1971</ele>
        <time>2020-07-28T08:30:36.015Z</time>
      </trkpt>
      <trkpt lat="42.83043" lon="0.16263">
        <ele>1971</ele>
        <time>2020-07-28T08:30:37.015Z</time>
      </trkpt>
      <trkpt lat="42.83043" lon="0.16263">
        <ele>1971</ele>
        <time>2020-07-28T08:30:38.015Z</time>
      </trkpt>
      <trkpt lat="42.83045" lon="0.16265">
        <ele>1972</ele>
        <time>2020-07-28T08:30:39.015Z</time>
      </trkpt>
      <trkpt lat="42.83045" lon="0.16265">
        <ele>1972</ele>
        <time>2020-07-28T08:30:40.015Z</time>
      </trkpt>
      <trkpt lat="42.83045" lon="0.16265">
        <ele>1972</ele>
        <time>2020-07-28T08:30:41.015Z</time>
      </trkpt>
      <trkpt lat="42.83046" lon="0.16267">
        <ele>1973</ele>
        <time>2020-07-28T08:30:42.015Z</time>
      </trkpt>
      <trkpt lat="42.83046" lon="0.16267">
        <ele>1973</ele>
        <time>2020-07-28T08:30:43.015Z</time>
      </trkpt>
      <trkpt lat="42.83046" lon="0.16267">
        <ele>1973</ele>
        <time>2020-07-28T08:30:44.015Z</time>
      </trkpt>
      <trkpt lat="42.83047" lon="0.16271">
        <ele>1973</ele>
        <time>2020-07-28T08:30:45.015Z</time>
      </trkpt>
      <trkpt lat="42.83047" lon="0.16271">
        <ele>1973</ele>
        <time>2020-07-28T08:30:46.015Z</time>
      </trkpt>
      <trkpt lat="42.83047" lon="0.16271">
        <ele>1973</ele>
        <time>2020-07-28T08:30:47.015Z</time>
      </trkpt>
      <trkpt lat="42.83048" lon="0.16274">
        <ele>1973</ele>
        <time>2020-07-28T08:30:48.015Z</time>
      </trkpt>
      <trkpt lat="42.83048" lon="0.16274">
        <ele>1973</ele>
        <time>2020-07-28T08:30:49.015Z</time>
      </trkpt>
      <trkpt lat="42.83048" lon="0.16274">
        <ele>1973</ele>
        <time>2020-07-28T08:30:50.015Z</time>
      </trkpt>
      <trkpt lat="42.83051" lon="0.16277">
        <ele>1974</ele>
        <time>2020-07-28T08:30:51.015Z</time>
      </trkpt>
      <trkpt lat="42.83051" lon="0.16277">
        <ele>1974</ele>
        <time>2020-07-28T08:30:52.015Z</time>
      </trkpt>
      <trkpt lat="42.83051" lon="0.16277">
        <ele>1974</ele>
        <time>2020-07-28T08:30:53.015Z</time>
      </trkpt>
      <trkpt lat="42.83052" lon="0.16283">
        <ele>1976</ele>
        <time>2020-07-28T08:30:54.015Z</time>
      </trkpt>
      <trkpt lat="42.83052" lon="0.16283">
        <ele>1976</ele>
        <time>2020-07-28T08:30:55.015Z</time>
      </trkpt>
      <trkpt lat="42.83052" lon="0.16283">
        <ele>1976</ele>
        <time>2020-07-28T08:30:56.015Z</time>
      </trkpt>
      <trkpt lat="42.83053" lon="0.16293">
        <ele>1978</ele>
        <time>2020-07-28T08:30:57.015Z</time>
      </trkpt>
      <trkpt lat="42.83053" lon="0.16293">
        <ele>1978</ele>
        <time>2020-07-28T08:30:58.015Z</time>
      </trkpt>
      <trkpt lat="42.83053" lon="0.16293">
        <ele>1978</ele>
        <time>2020-07-28T08:30:59.015Z</time>
      </trkpt>
      <trkpt lat="42.83055" lon="0.16297">
        <ele>1979</ele>
        <time>2020-07-28T08:31:00.015Z</time>
      </trkpt>
      <trkpt lat="42.83055" lon="0.16297">
        <ele>1979</ele>
        <time>2020-07-28T08:31:01.015Z</time>
      </trkpt>
      <trkpt lat="42.83055" lon="0.16297">
        <ele>1979</ele>
        <time>2020-07-28T08:31:02.015Z</time>
      </trkpt>
      <trkpt lat="42.83057" lon="0.16299">
        <ele>1981</ele>
        <time>2020-07-28T08:31:03.015Z</time>
      </trkpt>
      <trkpt lat="42.83057" lon="0.16299">
        <ele>1981</ele>
        <time>2020-07-28T08:31:04.015Z</time>
      </trkpt>
      <trkpt lat="42.83057" lon="0.16299">
        <ele>1981</ele>
        <time>2020-07-28T08:31:05.015Z</time>
      </trkpt>
      <trkpt lat="42.83059" lon="0.16303">
        <ele>1982</ele>
        <time>2020-07-28T08:31:06.015Z</time>
      </trkpt>
      <trkpt lat="42.83059" lon="0.16303">
        <ele>1982</ele>
        <time>2020-07-28T08:31:07.015Z</time>
      </trkpt>
      <trkpt lat="42.83059" lon="0.16303">
        <ele>1982</ele>
        <time>2020-07-28T08:31:08.015Z</time>
      </trkpt>
      <trkpt lat="42.83061" lon="0.16306">
        <ele>1982</ele>
        <time>2020-07-28T08:31:09.015Z</time>
      </trkpt>
      <trkpt lat="42.83061" lon="0.16306">
        <ele>1982</ele>
        <time>2020-07-28T08:31:10.015Z</time>
      </trkpt>
      <trkpt lat="42.83061" lon="0.16306">
        <ele>1982</ele>
        <time>2020-07-28T08:31:11.015Z</time>
      </trkpt>
      <trkpt lat="42.83064" lon="0.1631">
        <ele>1982</ele>
        <time>2020-07-28T08:31:12.015Z</time>
      </trkpt>
      <trkpt lat="42.83064" lon="0.1631">
        <ele>1982</ele>
        <time>2020-07-28T08:31:13.015Z</time>
      </trkpt>
      <trkpt lat="42.83064" lon="0.1631">
        <ele>1982</ele>
        <time>2020-07-28T08:31:14.015Z</time>
      </trkpt>
      <trkpt lat="42.83066" lon="0.16315">
        <ele>1983</ele>
        <time>2020-07-28T08:31:15.015Z</time>
      </trkpt>
      <trkpt lat="42.83066" lon="0.16315">
        <ele>1983</ele>
        <time>2020-07-28T08:31:16.015Z</time>
      </trkpt>
      <trkpt lat="42.83066" lon="0.16315">
        <ele>1983</ele>
        <time>2020-07-28T08:31:17.015Z</time>
      </trkpt>
      <trkpt lat="42.83066" lon="0.16319">
        <ele>1984</ele>
        <time>2020-07-28T08:31:18.015Z</time>
      </trkpt>
      <trkpt lat="42.83066" lon="0.16319">
        <ele>1984</ele>
        <time>2020-07-28T08:31:19.015Z</time>
      </trkpt>
      <trkpt lat="42.83066" lon="0.16319">
        <ele>1984</ele>
        <time>2020-07-28T08:31:20.015Z</time>
      </trkpt>
      <trkpt lat="42.83067" lon="0.16322">
        <ele>1984</ele>
        <time>2020-07-28T08:31:21.015Z</time>
      </trkpt>
      <trkpt lat="42.83067" lon="0.16322">
        <ele>1984</ele>
        <time>2020-07-28T08:31:22.015Z</time>
      </trkpt>
      <trkpt lat="42.83067" lon="0.16322">
        <ele>1984</ele>
        <time>2020-07-28T08:31:23.015Z</time>
      </trkpt>
      <trkpt lat="42.83069" lon="0.16324">
        <ele>1983</ele>
        <time>2020-07-28T08:31:24.015Z</time>
      </trkpt>
      <trkpt lat="42.83069" lon="0.16324">
        <ele>1983</ele>
        <time>2020-07-28T08:31:25.015Z</time>
      </trkpt>
      <trkpt lat="42.83069" lon="0.16324">
        <ele>1983</ele>
        <time>2020-07-28T08:31:26.015Z</time>
      </trkpt>
      <trkpt lat="42.83071" lon="0.16322">
        <ele>1984</ele>
        <time>2020-07-28T08:31:27.015Z</time>
      </trkpt>
      <trkpt lat="42.83071" lon="0.16322">
        <ele>1984</ele>
        <time>2020-07-28T08:31:28.015Z</time>
      </trkpt>
      <trkpt lat="42.83071" lon="0.16322">
        <ele>1984</ele>
        <time>2020-07-28T08:31:29.015Z</time>
      </trkpt>
      <trkpt lat="42.83073" lon="0.16317">
        <ele>1983</ele>
        <time>2020-07-28T08:31:30.015Z</time>
      </trkpt>
      <trkpt lat="42.83073" lon="0.16317">
        <ele>1983</ele>
        <time>2020-07-28T08:31:31.015Z</time>
      </trkpt>
      <trkpt lat="42.83073" lon="0.16317">
        <ele>1983</ele>
        <time>2020-07-28T08:31:32.015Z</time>
      </trkpt>
      <trkpt lat="42.83073" lon="0.16308">
        <ele>1983</ele>
        <time>2020-07-28T08:31:33.015Z</time>
      </trkpt>
      <trkpt lat="42.83073" lon="0.16308">
        <ele>1983</ele>
        <time>2020-07-28T08:31:34.015Z</time>
      </trkpt>
      <trkpt lat="42.83073" lon="0.16308">
        <ele>1983</ele>
        <time>2020-07-28T08:31:35.015Z</time>
      </trkpt>
      <trkpt lat="42.83074" lon="0.16304">
        <ele>1983</ele>
        <time>2020-07-28T08:31:36.015Z</time>
      </trkpt>
      <trkpt lat="42.83074" lon="0.16304">
        <ele>1983</ele>
        <time>2020-07-28T08:31:37.015Z</time>
      </trkpt>
      <trkpt lat="42.83074" lon="0.16304">
        <ele>1983</ele>
        <time>2020-07-28T08:31:38.015Z</time>
      </trkpt>
      <trkpt lat="42.83074" lon="0.16301">
        <ele>1984</ele>
        <time>2020-07-28T08:31:39.015Z</time>
      </trkpt>
      <trkpt lat="42.83074" lon="0.16301">
        <ele>1984</ele>
        <time>2020-07-28T08:31:40.015Z</time>
      </trkpt>
      <trkpt lat="42.83074" lon="0.16301">
        <ele>1984</ele>
        <time>2020-07-28T08:31:41.015Z</time>
      </trkpt>
      <trkpt lat="42.83075" lon="0.16296">
        <ele>1984</ele>
        <time>2020-07-28T08:31:42.015Z</time>
      </trkpt>
      <trkpt lat="42.83075" lon="0.16296">
        <ele>1984</ele>
        <time>2020-07-28T08:31:43.015Z</time>
      </trkpt>
      <trkpt lat="42.83075" lon="0.16296">
        <ele>1984</ele>
        <time>2020-07-28T08:31:44.015Z</time>
      </trkpt>
      <trkpt lat="42.83073" lon="0.16292">
        <ele>1984</ele>
        <time>2020-07-28T08:31:45.015Z</time>
      </trkpt>
      <trkpt lat="42.83073" lon="0.16292">
        <ele>1984</ele>
        <time>2020-07-28T08:31:46.015Z</time>
      </trkpt>
      <trkpt lat="42.83073" lon="0.16292">
        <ele>1984</ele>
        <time>2020-07-28T08:31:47.015Z</time>
      </trkpt>
      <trkpt lat="42.83073" lon="0.16287">
        <ele>1985</ele>
        <time>2020-07-28T08:31:48.015Z</time>
      </trkpt>
      <trkpt lat="42.83073" lon="0.16287">
        <ele>1985</ele>
        <time>2020-07-28T08:31:49.015Z</time>
      </trkpt>
      <trkpt lat="42.83073" lon="0.16287">
        <ele>1985</ele>
        <time>2020-07-28T08:31:50.015Z</time>
      </trkpt>
      <trkpt lat="42.83074" lon="0.16283">
        <ele>1984</ele>
        <time>2020-07-28T08:31:51.015Z</time>
      </trkpt>
      <trkpt lat="42.83074" lon="0.16283">
        <ele>1984</ele>
        <time>2020-07-28T08:31:52.015Z</time>
      </trkpt>
      <trkpt lat="42.83074" lon="0.16283">
        <ele>1984</ele>
        <time>2020-07-28T08:31:53.015Z</time>
      </trkpt>
      <trkpt lat="42.83075" lon="0.16277">
        <ele>1984</ele>
        <time>2020-07-28T08:31:54.015Z</time>
      </trkpt>
      <trkpt lat="42.83075" lon="0.16277">
        <ele>1984</ele>
        <time>2020-07-28T08:31:55.015Z</time>
      </trkpt>
      <trkpt lat="42.83075" lon="0.16277">
        <ele>1984</ele>
        <time>2020-07-28T08:31:56.015Z</time>
      </trkpt>
      <trkpt lat="42.83077" lon="0.16274">
        <ele>1984</ele>
        <time>2020-07-28T08:31:57.015Z</time>
      </trkpt>
      <trkpt lat="42.83077" lon="0.16274">
        <ele>1984</ele>
        <time>2020-07-28T08:31:58.015Z</time>
      </trkpt>
      <trkpt lat="42.83077" lon="0.16274">
        <ele>1984</ele>
        <time>2020-07-28T08:31:59.015Z</time>
      </trkpt>
      <trkpt lat="42.83078" lon="0.16271">
        <ele>1983</ele>
        <time>2020-07-28T08:32:00.015Z</time>
      </trkpt>
      <trkpt lat="42.83078" lon="0.16271">
        <ele>1983</ele>
        <time>2020-07-28T08:32:01.015Z</time>
      </trkpt>
      <trkpt lat="42.83078" lon="0.16271">
        <ele>1983</ele>
        <time>2020-07-28T08:32:02.015Z</time>
      </trkpt>
      <trkpt lat="42.8308" lon="0.16267">
        <ele>1983</ele>
        <time>2020-07-28T08:32:03.015Z</time>
      </trkpt>
      <trkpt lat="42.8308" lon="0.16267">
        <ele>1983</ele>
        <time>2020-07-28T08:32:04.015Z</time>
      </trkpt>
      <trkpt lat="42.8308" lon="0.16267">
        <ele>1983</ele>
        <time>2020-07-28T08:32:05.015Z</time>
      </trkpt>
      <trkpt lat="42.8308" lon="0.16262">
        <ele>1984</ele>
        <time>2020-07-28T08:32:06.015Z</time>
      </trkpt>
      <trkpt lat="42.8308" lon="0.16262">
        <ele>1984</ele>
        <time>2020-07-28T08:32:07.015Z</time>
      </trkpt>
      <trkpt lat="42.8308" lon="0.16262">
        <ele>1984</ele>
        <time>2020-07-28T08:32:08.015Z</time>
      </trkpt>
      <trkpt lat="42.83081" lon="0.16257">
        <ele>1985</ele>
        <time>2020-07-28T08:32:09.015Z</time>
      </trkpt>
      <trkpt lat="42.83081" lon="0.16257">
        <ele>1985</ele>
        <time>2020-07-28T08:32:10.015Z</time>
      </trkpt>
      <trkpt lat="42.83081" lon="0.16257">
        <ele>1985</ele>
        <time>2020-07-28T08:32:11.015Z</time>
      </trkpt>
      <trkpt lat="42.83082" lon="0.1625">
        <ele>1986</ele>
        <time>2020-07-28T08:32:12.015Z</time>
      </trkpt>
      <trkpt lat="42.83082" lon="0.1625">
        <ele>1986</ele>
        <time>2020-07-28T08:32:13.015Z</time>
      </trkpt>
      <trkpt lat="42.83082" lon="0.1625">
        <ele>1986</ele>
        <time>2020-07-28T08:32:14.015Z</time>
      </trkpt>
      <trkpt lat="42.83084" lon="0.1624">
        <ele>1987</ele>
        <time>2020-07-28T08:32:15.015Z</time>
      </trkpt>
      <trkpt lat="42.83084" lon="0.1624">
        <ele>1987</ele>
        <time>2020-07-28T08:32:16.015Z</time>
      </trkpt>
      <trkpt lat="42.83084" lon="0.1624">
        <ele>1987</ele>
        <time>2020-07-28T08:32:17.015Z</time>
      </trkpt>
      <trkpt lat="42.83085" lon="0.16236">
        <ele>1988</ele>
        <time>2020-07-28T08:32:18.015Z</time>
      </trkpt>
      <trkpt lat="42.83085" lon="0.16236">
        <ele>1988</ele>
        <time>2020-07-28T08:32:19.015Z</time>
      </trkpt>
      <trkpt lat="42.83085" lon="0.16236">
        <ele>1988</ele>
        <time>2020-07-28T08:32:20.015Z</time>
      </trkpt>
      <trkpt lat="42.83085" lon="0.1623">
        <ele>1988</ele>
        <time>2020-07-28T08:32:21.015Z</time>
      </trkpt>
      <trkpt lat="42.83085" lon="0.1623">
        <ele>1988</ele>
        <time>2020-07-28T08:32:22.015Z</time>
      </trkpt>
      <trkpt lat="42.83085" lon="0.1623">
        <ele>1988</ele>
        <time>2020-07-28T08:32:23.015Z</time>
      </trkpt>
      <trkpt lat="42.83086" lon="0.16223">
        <ele>1990</ele>
        <time>2020-07-28T08:32:24.015Z</time>
      </trkpt>
      <trkpt lat="42.83086" lon="0.16223">
        <ele>1990</ele>
        <time>2020-07-28T08:32:25.015Z</time>
      </trkpt>
      <trkpt lat="42.83086" lon="0.16223">
        <ele>1990</ele>
        <time>2020-07-28T08:32:26.015Z</time>
      </trkpt>
      <trkpt lat="42.83087" lon="0.16216">
        <ele>1993</ele>
        <time>2020-07-28T08:32:27.015Z</time>
      </trkpt>
      <trkpt lat="42.83087" lon="0.16216">
        <ele>1993</ele>
        <time>2020-07-28T08:32:28.015Z</time>
      </trkpt>
      <trkpt lat="42.83087" lon="0.16216">
        <ele>1993</ele>
        <time>2020-07-28T08:32:29.015Z</time>
      </trkpt>
      <trkpt lat="42.83089" lon="0.16211">
        <ele>1994</ele>
        <time>2020-07-28T08:32:30.015Z</time>
      </trkpt>
      <trkpt lat="42.83089" lon="0.16211">
        <ele>1994</ele>
        <time>2020-07-28T08:32:31.015Z</time>
      </trkpt>
      <trkpt lat="42.83089" lon="0.16211">
        <ele>1994</ele>
        <time>2020-07-28T08:32:32.015Z</time>
      </trkpt>
      <trkpt lat="42.83089" lon="0.16205">
        <ele>1995</ele>
        <time>2020-07-28T08:32:33.015Z</time>
      </trkpt>
      <trkpt lat="42.83089" lon="0.16205">
        <ele>1995</ele>
        <time>2020-07-28T08:32:34.015Z</time>
      </trkpt>
      <trkpt lat="42.83089" lon="0.16205">
        <ele>1995</ele>
        <time>2020-07-28T08:32:35.015Z</time>
      </trkpt>
      <trkpt lat="42.8309" lon="0.162">
        <ele>1996</ele>
        <time>2020-07-28T08:32:36.015Z</time>
      </trkpt>
      <trkpt lat="42.8309" lon="0.162">
        <ele>1996</ele>
        <time>2020-07-28T08:32:37.015Z</time>
      </trkpt>
      <trkpt lat="42.8309" lon="0.162">
        <ele>1996</ele>
        <time>2020-07-28T08:32:38.015Z</time>
      </trkpt>
      <trkpt lat="42.83094" lon="0.16195">
        <ele>1997</ele>
        <time>2020-07-28T08:32:39.015Z</time>
      </trkpt>
      <trkpt lat="42.83094" lon="0.16195">
        <ele>1997</ele>
        <time>2020-07-28T08:32:40.015Z</time>
      </trkpt>
      <trkpt lat="42.83094" lon="0.16195">
        <ele>1997</ele>
        <time>2020-07-28T08:32:41.015Z</time>
      </trkpt>
      <trkpt lat="42.83097" lon="0.16189">
        <ele>1997</ele>
        <time>2020-07-28T08:32:42.015Z</time>
      </trkpt>
      <trkpt lat="42.83097" lon="0.16189">
        <ele>1997</ele>
        <time>2020-07-28T08:32:43.015Z</time>
      </trkpt>
      <trkpt lat="42.83097" lon="0.16189">
        <ele>1997</ele>
        <time>2020-07-28T08:32:44.015Z</time>
      </trkpt>
      <trkpt lat="42.83098" lon="0.16185">
        <ele>1998</ele>
        <time>2020-07-28T08:32:45.015Z</time>
      </trkpt>
      <trkpt lat="42.83098" lon="0.16185">
        <ele>1998</ele>
        <time>2020-07-28T08:32:46.015Z</time>
      </trkpt>
      <trkpt lat="42.83098" lon="0.16185">
        <ele>1998</ele>
        <time>2020-07-28T08:32:47.015Z</time>
      </trkpt>
      <trkpt lat="42.83098" lon="0.16181">
        <ele>2001</ele>
        <time>2020-07-28T08:32:48.015Z</time>
      </trkpt>
      <trkpt lat="42.83098" lon="0.16181">
        <ele>2001</ele>
        <time>2020-07-28T08:32:49.015Z</time>
      </trkpt>
      <trkpt lat="42.83098" lon="0.16181">
        <ele>2001</ele>
        <time>2020-07-28T08:32:50.015Z</time>
      </trkpt>
      <trkpt lat="42.831" lon="0.16174">
        <ele>2001</ele>
        <time>2020-07-28T08:32:51.015Z</time>
      </trkpt>
      <trkpt lat="42.831" lon="0.16174">
        <ele>2001</ele>
        <time>2020-07-28T08:32:52.015Z</time>
      </trkpt>
      <trkpt lat="42.831" lon="0.16174">
        <ele>2001</ele>
        <time>2020-07-28T08:32:53.015Z</time>
      </trkpt>
      <trkpt lat="42.83101" lon="0.1617">
        <ele>2002</ele>
        <time>2020-07-28T08:32:54.015Z</time>
      </trkpt>
      <trkpt lat="42.83101" lon="0.1617">
        <ele>2002</ele>
        <time>2020-07-28T08:32:55.015Z</time>
      </trkpt>
      <trkpt lat="42.83101" lon="0.1617">
        <ele>2002</ele>
        <time>2020-07-28T08:32:56.015Z</time>
      </trkpt>
      <trkpt lat="42.83102" lon="0.16166">
        <ele>2003</ele>
        <time>2020-07-28T08:32:57.015Z</time>
      </trkpt>
      <trkpt lat="42.83102" lon="0.16166">
        <ele>2003</ele>
        <time>2020-07-28T08:32:58.015Z</time>
      </trkpt>
      <trkpt lat="42.83102" lon="0.16166">
        <ele>2003</ele>
        <time>2020-07-28T08:32:59.015Z</time>
      </trkpt>
      <trkpt lat="42.83105" lon="0.16164">
        <ele>2000</ele>
        <time>2020-07-28T08:33:00.015Z</time>
      </trkpt>
      <trkpt lat="42.83105" lon="0.16164">
        <ele>2000</ele>
        <time>2020-07-28T08:33:01.015Z</time>
      </trkpt>
      <trkpt lat="42.83105" lon="0.16164">
        <ele>2000</ele>
        <time>2020-07-28T08:33:02.015Z</time>
      </trkpt>
      <trkpt lat="42.83109" lon="0.16162">
        <ele>2000</ele>
        <time>2020-07-28T08:33:03.015Z</time>
      </trkpt>
      <trkpt lat="42.83109" lon="0.16162">
        <ele>2000</ele>
        <time>2020-07-28T08:33:04.015Z</time>
      </trkpt>
      <trkpt lat="42.83109" lon="0.16162">
        <ele>2000</ele>
        <time>2020-07-28T08:33:05.015Z</time>
      </trkpt>
      <trkpt lat="42.83112" lon="0.16159">
        <ele>1999</ele>
        <time>2020-07-28T08:33:06.015Z</time>
      </trkpt>
      <trkpt lat="42.83112" lon="0.16159">
        <ele>1999</ele>
        <time>2020-07-28T08:33:07.015Z</time>
      </trkpt>
      <trkpt lat="42.83112" lon="0.16159">
        <ele>1999</ele>
        <time>2020-07-28T08:33:08.015Z</time>
      </trkpt>
      <trkpt lat="42.83114" lon="0.16155">
        <ele>1999</ele>
        <time>2020-07-28T08:33:09.015Z</time>
      </trkpt>
      <trkpt lat="42.83114" lon="0.16155">
        <ele>1999</ele>
        <time>2020-07-28T08:33:10.015Z</time>
      </trkpt>
      <trkpt lat="42.83114" lon="0.16155">
        <ele>1999</ele>
        <time>2020-07-28T08:33:11.015Z</time>
      </trkpt>
      <trkpt lat="42.83115" lon="0.16154">
        <ele>1999</ele>
        <time>2020-07-28T08:33:12.015Z</time>
      </trkpt>
      <trkpt lat="42.83115" lon="0.16154">
        <ele>1999</ele>
        <time>2020-07-28T08:33:13.015Z</time>
      </trkpt>
      <trkpt lat="42.83115" lon="0.16154">
        <ele>1999</ele>
        <time>2020-07-28T08:33:14.015Z</time>
      </trkpt>
      <trkpt lat="42.83118" lon="0.16152">
        <ele>1999</ele>
        <time>2020-07-28T08:33:15.015Z</time>
      </trkpt>
      <trkpt lat="42.83118" lon="0.16152">
        <ele>1999</ele>
        <time>2020-07-28T08:33:16.015Z</time>
      </trkpt>
      <trkpt lat="42.83118" lon="0.16152">
        <ele>1999</ele>
        <time>2020-07-28T08:33:17.015Z</time>
      </trkpt>
      <trkpt lat="42.83121" lon="0.16146">
        <ele>1999</ele>
        <time>2020-07-28T08:33:18.015Z</time>
      </trkpt>
      <trkpt lat="42.83121" lon="0.16146">
        <ele>1999</ele>
        <time>2020-07-28T08:33:19.015Z</time>
      </trkpt>
      <trkpt lat="42.83121" lon="0.16146">
        <ele>1999</ele>
        <time>2020-07-28T08:33:20.015Z</time>
      </trkpt>
      <trkpt lat="42.83123" lon="0.1614">
        <ele>2000</ele>
        <time>2020-07-28T08:33:21.015Z</time>
      </trkpt>
      <trkpt lat="42.83123" lon="0.1614">
        <ele>2000</ele>
        <time>2020-07-28T08:33:22.015Z</time>
      </trkpt>
      <trkpt lat="42.83123" lon="0.1614">
        <ele>2000</ele>
        <time>2020-07-28T08:33:23.015Z</time>
      </trkpt>
      <trkpt lat="42.83125" lon="0.16137">
        <ele>2000</ele>
        <time>2020-07-28T08:33:24.015Z</time>
      </trkpt>
      <trkpt lat="42.83125" lon="0.16137">
        <ele>2000</ele>
        <time>2020-07-28T08:33:25.015Z</time>
      </trkpt>
      <trkpt lat="42.83125" lon="0.16137">
        <ele>2000</ele>
        <time>2020-07-28T08:33:26.015Z</time>
      </trkpt>
      <trkpt lat="42.83127" lon="0.16133">
        <ele>2001</ele>
        <time>2020-07-28T08:33:27.015Z</time>
      </trkpt>
      <trkpt lat="42.83127" lon="0.16133">
        <ele>2001</ele>
        <time>2020-07-28T08:33:28.015Z</time>
      </trkpt>
      <trkpt lat="42.83127" lon="0.16133">
        <ele>2001</ele>
        <time>2020-07-28T08:33:29.015Z</time>
      </trkpt>
      <trkpt lat="42.8313" lon="0.16131">
        <ele>2001</ele>
        <time>2020-07-28T08:33:30.015Z</time>
      </trkpt>
      <trkpt lat="42.8313" lon="0.16131">
        <ele>2001</ele>
        <time>2020-07-28T08:33:31.015Z</time>
      </trkpt>
      <trkpt lat="42.8313" lon="0.16131">
        <ele>2001</ele>
        <time>2020-07-28T08:33:32.015Z</time>
      </trkpt>
      <trkpt lat="42.83132" lon="0.16129">
        <ele>2001</ele>
        <time>2020-07-28T08:33:33.015Z</time>
      </trkpt>
      <trkpt lat="42.83132" lon="0.16129">
        <ele>2001</ele>
        <time>2020-07-28T08:33:34.015Z</time>
      </trkpt>
      <trkpt lat="42.83132" lon="0.16129">
        <ele>2001</ele>
        <time>2020-07-28T08:33:35.015Z</time>
      </trkpt>
      <trkpt lat="42.83131" lon="0.16125">
        <ele>2001</ele>
        <time>2020-07-28T08:33:36.015Z</time>
      </trkpt>
      <trkpt lat="42.83131" lon="0.16125">
        <ele>2001</ele>
        <time>2020-07-28T08:33:37.015Z</time>
      </trkpt>
      <trkpt lat="42.83131" lon="0.16125">
        <ele>2001</ele>
        <time>2020-07-28T08:33:38.015Z</time>
      </trkpt>
      <trkpt lat="42.83131" lon="0.1612">
        <ele>2002</ele>
        <time>2020-07-28T08:33:39.015Z</time>
      </trkpt>
      <trkpt lat="42.83131" lon="0.1612">
        <ele>2002</ele>
        <time>2020-07-28T08:33:40.015Z</time>
      </trkpt>
      <trkpt lat="42.83131" lon="0.1612">
        <ele>2002</ele>
        <time>2020-07-28T08:33:41.015Z</time>
      </trkpt>
      <trkpt lat="42.8313" lon="0.16115">
        <ele>2002</ele>
        <time>2020-07-28T08:33:42.015Z</time>
      </trkpt>
      <trkpt lat="42.8313" lon="0.16115">
        <ele>2002</ele>
        <time>2020-07-28T08:33:43.015Z</time>
      </trkpt>
      <trkpt lat="42.8313" lon="0.16115">
        <ele>2002</ele>
        <time>2020-07-28T08:33:44.015Z</time>
      </trkpt>
      <trkpt lat="42.8313" lon="0.16109">
        <ele>2003</ele>
        <time>2020-07-28T08:33:45.015Z</time>
      </trkpt>
      <trkpt lat="42.8313" lon="0.16109">
        <ele>2003</ele>
        <time>2020-07-28T08:33:46.015Z</time>
      </trkpt>
      <trkpt lat="42.8313" lon="0.16109">
        <ele>2003</ele>
        <time>2020-07-28T08:33:47.015Z</time>
      </trkpt>
      <trkpt lat="42.83132" lon="0.16104">
        <ele>2004</ele>
        <time>2020-07-28T08:33:48.015Z</time>
      </trkpt>
      <trkpt lat="42.83132" lon="0.16104">
        <ele>2004</ele>
        <time>2020-07-28T08:33:49.015Z</time>
      </trkpt>
      <trkpt lat="42.83132" lon="0.16104">
        <ele>2004</ele>
        <time>2020-07-28T08:33:50.015Z</time>
      </trkpt>
      <trkpt lat="42.83133" lon="0.16099">
        <ele>2004</ele>
        <time>2020-07-28T08:33:51.015Z</time>
      </trkpt>
      <trkpt lat="42.83133" lon="0.16099">
        <ele>2004</ele>
        <time>2020-07-28T08:33:52.015Z</time>
      </trkpt>
      <trkpt lat="42.83133" lon="0.16099">
        <ele>2004</ele>
        <time>2020-07-28T08:33:53.015Z</time>
      </trkpt>
      <trkpt lat="42.83132" lon="0.16092">
        <ele>2004</ele>
        <time>2020-07-28T08:33:54.015Z</time>
      </trkpt>
      <trkpt lat="42.83132" lon="0.16092">
        <ele>2004</ele>
        <time>2020-07-28T08:33:55.015Z</time>
      </trkpt>
      <trkpt lat="42.83132" lon="0.16092">
        <ele>2004</ele>
        <time>2020-07-28T08:33:56.015Z</time>
      </trkpt>
      <trkpt lat="42.83129" lon="0.16087">
        <ele>2004</ele>
        <time>2020-07-28T08:33:57.015Z</time>
      </trkpt>
      <trkpt lat="42.83129" lon="0.16087">
        <ele>2004</ele>
        <time>2020-07-28T08:33:58.015Z</time>
      </trkpt>
      <trkpt lat="42.83129" lon="0.16087">
        <ele>2004</ele>
        <time>2020-07-28T08:33:59.015Z</time>
      </trkpt>
      <trkpt lat="42.8313" lon="0.16076">
        <ele>2004</ele>
        <time>2020-07-28T08:34:00.015Z</time>
      </trkpt>
      <trkpt lat="42.8313" lon="0.16076">
        <ele>2004</ele>
        <time>2020-07-28T08:34:01.015Z</time>
      </trkpt>
      <trkpt lat="42.8313" lon="0.16076">
        <ele>2004</ele>
        <time>2020-07-28T08:34:02.015Z</time>
      </trkpt>
      <trkpt lat="42.83131" lon="0.16064">
        <ele>2005</ele>
        <time>2020-07-28T08:34:03.015Z</time>
      </trkpt>
      <trkpt lat="42.83131" lon="0.16064">
        <ele>2005</ele>
        <time>2020-07-28T08:34:04.015Z</time>
      </trkpt>
      <trkpt lat="42.83131" lon="0.16064">
        <ele>2005</ele>
        <time>2020-07-28T08:34:05.015Z</time>
      </trkpt>
      <trkpt lat="42.83132" lon="0.1605">
        <ele>2006</ele>
        <time>2020-07-28T08:34:06.015Z</time>
      </trkpt>
      <trkpt lat="42.83132" lon="0.1605">
        <ele>2006</ele>
        <time>2020-07-28T08:34:07.015Z</time>
      </trkpt>
      <trkpt lat="42.83132" lon="0.1605">
        <ele>2006</ele>
        <time>2020-07-28T08:34:08.015Z</time>
      </trkpt>
      <trkpt lat="42.83132" lon="0.16039">
        <ele>2006</ele>
        <time>2020-07-28T08:34:09.015Z</time>
      </trkpt>
      <trkpt lat="42.83132" lon="0.16039">
        <ele>2006</ele>
        <time>2020-07-28T08:34:10.015Z</time>
      </trkpt>
      <trkpt lat="42.83132" lon="0.16039">
        <ele>2006</ele>
        <time>2020-07-28T08:34:11.015Z</time>
      </trkpt>
      <trkpt lat="42.83131" lon="0.16031">
        <ele>2007</ele>
        <time>2020-07-28T08:34:12.015Z</time>
      </trkpt>
      <trkpt lat="42.83131" lon="0.16031">
        <ele>2007</ele>
        <time>2020-07-28T08:34:13.015Z</time>
      </trkpt>
      <trkpt lat="42.83131" lon="0.16031">
        <ele>2007</ele>
        <time>2020-07-28T08:34:14.015Z</time>
      </trkpt>
      <trkpt lat="42.83129" lon="0.16024">
        <ele>2007</ele>
        <time>2020-07-28T08:34:15.015Z</time>
      </trkpt>
      <trkpt lat="42.83129" lon="0.16024">
        <ele>2007</ele>
        <time>2020-07-28T08:34:16.015Z</time>
      </trkpt>
      <trkpt lat="42.83129" lon="0.16024">
        <ele>2007</ele>
        <time>2020-07-28T08:34:17.015Z</time>
      </trkpt>
      <trkpt lat="42.83129" lon="0.16019">
        <ele>2007</ele>
        <time>2020-07-28T08:34:18.015Z</time>
      </trkpt>
      <trkpt lat="42.83129" lon="0.16019">
        <ele>2007</ele>
        <time>2020-07-28T08:34:19.015Z</time>
      </trkpt>
      <trkpt lat="42.83129" lon="0.16019">
        <ele>2007</ele>
        <time>2020-07-28T08:34:20.015Z</time>
      </trkpt>
      <trkpt lat="42.83131" lon="0.16017">
        <ele>2008</ele>
        <time>2020-07-28T08:34:21.015Z</time>
      </trkpt>
      <trkpt lat="42.83131" lon="0.16017">
        <ele>2008</ele>
        <time>2020-07-28T08:34:22.015Z</time>
      </trkpt>
      <trkpt lat="42.83131" lon="0.16017">
        <ele>2008</ele>
        <time>2020-07-28T08:34:23.015Z</time>
      </trkpt>
      <trkpt lat="42.83135" lon="0.16015">
        <ele>2009</ele>
        <time>2020-07-28T08:34:24.015Z</time>
      </trkpt>
      <trkpt lat="42.83135" lon="0.16015">
        <ele>2009</ele>
        <time>2020-07-28T08:34:25.015Z</time>
      </trkpt>
      <trkpt lat="42.83135" lon="0.16015">
        <ele>2009</ele>
        <time>2020-07-28T08:34:26.015Z</time>
      </trkpt>
      <trkpt lat="42.83142" lon="0.16012">
        <ele>2010</ele>
        <time>2020-07-28T08:34:27.015Z</time>
      </trkpt>
      <trkpt lat="42.83142" lon="0.16012">
        <ele>2010</ele>
        <time>2020-07-28T08:34:28.015Z</time>
      </trkpt>
      <trkpt lat="42.83142" lon="0.16012">
        <ele>2010</ele>
        <time>2020-07-28T08:34:29.015Z</time>
      </trkpt>
      <trkpt lat="42.83146" lon="0.16005">
        <ele>2010</ele>
        <time>2020-07-28T08:34:30.015Z</time>
      </trkpt>
      <trkpt lat="42.83146" lon="0.16005">
        <ele>2010</ele>
        <time>2020-07-28T08:34:31.015Z</time>
      </trkpt>
      <trkpt lat="42.83146" lon="0.16005">
        <ele>2010</ele>
        <time>2020-07-28T08:34:32.015Z</time>
      </trkpt>
      <trkpt lat="42.8315" lon="0.16002">
        <ele>2011</ele>
        <time>2020-07-28T08:34:33.015Z</time>
      </trkpt>
      <trkpt lat="42.8315" lon="0.16002">
        <ele>2011</ele>
        <time>2020-07-28T08:34:34.015Z</time>
      </trkpt>
      <trkpt lat="42.8315" lon="0.16002">
        <ele>2011</ele>
        <time>2020-07-28T08:34:35.015Z</time>
      </trkpt>
      <trkpt lat="42.83154" lon="0.16">
        <ele>2011</ele>
        <time>2020-07-28T08:34:36.015Z</time>
      </trkpt>
      <trkpt lat="42.83154" lon="0.16">
        <ele>2011</ele>
        <time>2020-07-28T08:34:37.015Z</time>
      </trkpt>
      <trkpt lat="42.83154" lon="0.16">
        <ele>2011</ele>
        <time>2020-07-28T08:34:38.015Z</time>
      </trkpt>
      <trkpt lat="42.83158" lon="0.15999">
        <ele>2013</ele>
        <time>2020-07-28T08:34:39.015Z</time>
      </trkpt>
      <trkpt lat="42.83158" lon="0.15999">
        <ele>2013</ele>
        <time>2020-07-28T08:34:40.015Z</time>
      </trkpt>
      <trkpt lat="42.83158" lon="0.15999">
        <ele>2013</ele>
        <time>2020-07-28T08:34:41.015Z</time>
      </trkpt>
      <trkpt lat="42.83161" lon="0.16005">
        <ele>2013</ele>
        <time>2020-07-28T08:34:42.015Z</time>
      </trkpt>
      <trkpt lat="42.83161" lon="0.16005">
        <ele>2013</ele>
        <time>2020-07-28T08:34:43.015Z</time>
      </trkpt>
      <trkpt lat="42.83161" lon="0.16005">
        <ele>2013</ele>
        <time>2020-07-28T08:34:44.015Z</time>
      </trkpt>
      <trkpt lat="42.83164" lon="0.16008">
        <ele>2014</ele>
        <time>2020-07-28T08:34:45.015Z</time>
      </trkpt>
      <trkpt lat="42.83164" lon="0.16008">
        <ele>2014</ele>
        <time>2020-07-28T08:34:46.015Z</time>
      </trkpt>
      <trkpt lat="42.83164" lon="0.16008">
        <ele>2014</ele>
        <time>2020-07-28T08:34:47.015Z</time>
      </trkpt>
      <trkpt lat="42.83166" lon="0.16009">
        <ele>2015</ele>
        <time>2020-07-28T08:34:48.015Z</time>
      </trkpt>
      <trkpt lat="42.83166" lon="0.16009">
        <ele>2015</ele>
        <time>2020-07-28T08:34:49.015Z</time>
      </trkpt>
      <trkpt lat="42.83166" lon="0.16009">
        <ele>2015</ele>
        <time>2020-07-28T08:34:50.015Z</time>
      </trkpt>
      <trkpt lat="42.83169" lon="0.16009">
        <ele>2015</ele>
        <time>2020-07-28T08:34:51.015Z</time>
      </trkpt>
      <trkpt lat="42.83169" lon="0.16009">
        <ele>2015</ele>
        <time>2020-07-28T08:34:52.015Z</time>
      </trkpt>
      <trkpt lat="42.83169" lon="0.16009">
        <ele>2015</ele>
        <time>2020-07-28T08:34:53.015Z</time>
      </trkpt>
      <trkpt lat="42.83169" lon="0.16006">
        <ele>2015</ele>
        <time>2020-07-28T08:34:54.015Z</time>
      </trkpt>
      <trkpt lat="42.83169" lon="0.16006">
        <ele>2015</ele>
        <time>2020-07-28T08:34:55.015Z</time>
      </trkpt>
      <trkpt lat="42.83169" lon="0.16006">
        <ele>2015</ele>
        <time>2020-07-28T08:34:56.015Z</time>
      </trkpt>
      <trkpt lat="42.83169" lon="0.16004">
        <ele>2017</ele>
        <time>2020-07-28T08:34:57.015Z</time>
      </trkpt>
      <trkpt lat="42.83169" lon="0.16004">
        <ele>2017</ele>
        <time>2020-07-28T08:34:58.015Z</time>
      </trkpt>
      <trkpt lat="42.83169" lon="0.16004">
        <ele>2017</ele>
        <time>2020-07-28T08:34:59.015Z</time>
      </trkpt>
      <trkpt lat="42.83171" lon="0.16">
        <ele>2017</ele>
        <time>2020-07-28T08:35:00.015Z</time>
      </trkpt>
      <trkpt lat="42.83171" lon="0.16">
        <ele>2017</ele>
        <time>2020-07-28T08:35:01.015Z</time>
      </trkpt>
      <trkpt lat="42.83171" lon="0.16">
        <ele>2017</ele>
        <time>2020-07-28T08:35:02.015Z</time>
      </trkpt>
      <trkpt lat="42.83174" lon="0.16001">
        <ele>2018</ele>
        <time>2020-07-28T08:35:03.015Z</time>
      </trkpt>
      <trkpt lat="42.83174" lon="0.16001">
        <ele>2018</ele>
        <time>2020-07-28T08:35:04.015Z</time>
      </trkpt>
      <trkpt lat="42.83174" lon="0.16001">
        <ele>2018</ele>
        <time>2020-07-28T08:35:05.015Z</time>
      </trkpt>
      <trkpt lat="42.83179" lon="0.16003">
        <ele>2018</ele>
        <time>2020-07-28T08:35:06.015Z</time>
      </trkpt>
      <trkpt lat="42.83179" lon="0.16003">
        <ele>2018</ele>
        <time>2020-07-28T08:35:07.015Z</time>
      </trkpt>
      <trkpt lat="42.83179" lon="0.16003">
        <ele>2018</ele>
        <time>2020-07-28T08:35:08.015Z</time>
      </trkpt>
      <trkpt lat="42.83182" lon="0.16007">
        <ele>2019</ele>
        <time>2020-07-28T08:35:09.015Z</time>
      </trkpt>
      <trkpt lat="42.83182" lon="0.16007">
        <ele>2019</ele>
        <time>2020-07-28T08:35:10.015Z</time>
      </trkpt>
      <trkpt lat="42.83182" lon="0.16007">
        <ele>2019</ele>
        <time>2020-07-28T08:35:11.015Z</time>
      </trkpt>
      <trkpt lat="42.83185" lon="0.16014">
        <ele>2023</ele>
        <time>2020-07-28T08:35:12.015Z</time>
      </trkpt>
      <trkpt lat="42.83185" lon="0.16014">
        <ele>2023</ele>
        <time>2020-07-28T08:35:13.015Z</time>
      </trkpt>
      <trkpt lat="42.83185" lon="0.16014">
        <ele>2023</ele>
        <time>2020-07-28T08:35:14.015Z</time>
      </trkpt>
      <trkpt lat="42.83189" lon="0.1602">
        <ele>2023</ele>
        <time>2020-07-28T08:35:15.015Z</time>
      </trkpt>
      <trkpt lat="42.83189" lon="0.1602">
        <ele>2023</ele>
        <time>2020-07-28T08:35:16.015Z</time>
      </trkpt>
      <trkpt lat="42.83189" lon="0.1602">
        <ele>2023</ele>
        <time>2020-07-28T08:35:17.015Z</time>
      </trkpt>
      <trkpt lat="42.83192" lon="0.16021">
        <ele>2026</ele>
        <time>2020-07-28T08:35:18.015Z</time>
      </trkpt>
      <trkpt lat="42.83192" lon="0.16021">
        <ele>2026</ele>
        <time>2020-07-28T08:35:19.015Z</time>
      </trkpt>
      <trkpt lat="42.83192" lon="0.16021">
        <ele>2026</ele>
        <time>2020-07-28T08:35:20.015Z</time>
      </trkpt>
      <trkpt lat="42.83193" lon="0.16021">
        <ele>2030</ele>
        <time>2020-07-28T08:35:21.015Z</time>
      </trkpt>
      <trkpt lat="42.83193" lon="0.16021">
        <ele>2030</ele>
        <time>2020-07-28T08:35:22.015Z</time>
      </trkpt>
      <trkpt lat="42.83193" lon="0.16021">
        <ele>2030</ele>
        <time>2020-07-28T08:35:23.015Z</time>
      </trkpt>
      <trkpt lat="42.83194" lon="0.16021">
        <ele>2031</ele>
        <time>2020-07-28T08:35:24.015Z</time>
      </trkpt>
      <trkpt lat="42.83194" lon="0.16021">
        <ele>2031</ele>
        <time>2020-07-28T08:35:25.015Z</time>
      </trkpt>
      <trkpt lat="42.83194" lon="0.16021">
        <ele>2031</ele>
        <time>2020-07-28T08:35:26.015Z</time>
      </trkpt>
      <trkpt lat="42.83195" lon="0.16022">
        <ele>2033</ele>
        <time>2020-07-28T08:35:27.015Z</time>
      </trkpt>
      <trkpt lat="42.83195" lon="0.16022">
        <ele>2033</ele>
        <time>2020-07-28T08:35:28.015Z</time>
      </trkpt>
      <trkpt lat="42.83195" lon="0.16022">
        <ele>2033</ele>
        <time>2020-07-28T08:35:29.015Z</time>
      </trkpt>
      <trkpt lat="42.83195" lon="0.16023">
        <ele>2033</ele>
        <time>2020-07-28T08:35:30.015Z</time>
      </trkpt>
      <trkpt lat="42.83195" lon="0.16023">
        <ele>2033</ele>
        <time>2020-07-28T08:35:31.015Z</time>
      </trkpt>
      <trkpt lat="42.83195" lon="0.16023">
        <ele>2033</ele>
        <time>2020-07-28T08:35:32.015Z</time>
      </trkpt>
      <trkpt lat="42.83196" lon="0.16023">
        <ele>2033</ele>
        <time>2020-07-28T08:35:33.015Z</time>
      </trkpt>
      <trkpt lat="42.83196" lon="0.16023">
        <ele>2033</ele>
        <time>2020-07-28T08:35:34.015Z</time>
      </trkpt>
      <trkpt lat="42.83196" lon="0.16023">
        <ele>2033</ele>
        <time>2020-07-28T08:35:35.015Z</time>
      </trkpt>
      <trkpt lat="42.83196" lon="0.16023">
        <ele>2033</ele>
        <time>2020-07-28T08:35:36.015Z</time>
      </trkpt>
      <trkpt lat="42.83196" lon="0.16023">
        <ele>2033</ele>
        <time>2020-07-28T08:35:37.015Z</time>
      </trkpt>
      <trkpt lat="42.83196" lon="0.16023">
        <ele>2033</ele>
        <time>2020-07-28T08:35:38.015Z</time>
      </trkpt>
      <trkpt lat="42.83194" lon="0.16021">
        <ele>2034</ele>
        <time>2020-07-28T08:35:39.015Z</time>
      </trkpt>
      <trkpt lat="42.83194" lon="0.16021">
        <ele>2034</ele>
        <time>2020-07-28T08:35:40.015Z</time>
      </trkpt>
      <trkpt lat="42.83194" lon="0.16021">
        <ele>2034</ele>
        <time>2020-07-28T08:35:41.015Z</time>
      </trkpt>
      <trkpt lat="42.83188" lon="0.16019">
        <ele>2031</ele>
        <time>2020-07-28T08:35:42.015Z</time>
      </trkpt>
      <trkpt lat="42.83188" lon="0.16019">
        <ele>2031</ele>
        <time>2020-07-28T08:35:43.015Z</time>
      </trkpt>
      <trkpt lat="42.83188" lon="0.16019">
        <ele>2031</ele>
        <time>2020-07-28T08:35:44.015Z</time>
      </trkpt>
      <trkpt lat="42.83182" lon="0.16013">
        <ele>2031</ele>
        <time>2020-07-28T08:35:45.015Z</time>
      </trkpt>
      <trkpt lat="42.83182" lon="0.16013">
        <ele>2031</ele>
        <time>2020-07-28T08:35:46.015Z</time>
      </trkpt>
      <trkpt lat="42.83182" lon="0.16013">
        <ele>2031</ele>
        <time>2020-07-28T08:35:47.015Z</time>
      </trkpt>
      <trkpt lat="42.8318" lon="0.16009">
        <ele>2028</ele>
        <time>2020-07-28T08:35:48.015Z</time>
      </trkpt>
      <trkpt lat="42.8318" lon="0.16009">
        <ele>2028</ele>
        <time>2020-07-28T08:35:49.015Z</time>
      </trkpt>
      <trkpt lat="42.8318" lon="0.16009">
        <ele>2028</ele>
        <time>2020-07-28T08:35:50.015Z</time>
      </trkpt>
      <trkpt lat="42.8318" lon="0.16005">
        <ele>2027</ele>
        <time>2020-07-28T08:35:51.015Z</time>
      </trkpt>
      <trkpt lat="42.8318" lon="0.16005">
        <ele>2027</ele>
        <time>2020-07-28T08:35:52.015Z</time>
      </trkpt>
      <trkpt lat="42.8318" lon="0.16005">
        <ele>2027</ele>
        <time>2020-07-28T08:35:53.015Z</time>
      </trkpt>
      <trkpt lat="42.83179" lon="0.16002">
        <ele>2027</ele>
        <time>2020-07-28T08:35:54.015Z</time>
      </trkpt>
      <trkpt lat="42.83179" lon="0.16002">
        <ele>2027</ele>
        <time>2020-07-28T08:35:55.015Z</time>
      </trkpt>
      <trkpt lat="42.83179" lon="0.16002">
        <ele>2027</ele>
        <time>2020-07-28T08:35:56.015Z</time>
      </trkpt>
      <trkpt lat="42.8318" lon="0.15996">
        <ele>2029</ele>
        <time>2020-07-28T08:35:57.015Z</time>
      </trkpt>
      <trkpt lat="42.8318" lon="0.15996">
        <ele>2029</ele>
        <time>2020-07-28T08:35:58.015Z</time>
      </trkpt>
      <trkpt lat="42.8318" lon="0.15996">
        <ele>2029</ele>
        <time>2020-07-28T08:35:59.015Z</time>
      </trkpt>
      <trkpt lat="42.83182" lon="0.15991">
        <ele>2029</ele>
        <time>2020-07-28T08:36:00.015Z</time>
      </trkpt>
      <trkpt lat="42.83182" lon="0.15991">
        <ele>2029</ele>
        <time>2020-07-28T08:36:01.015Z</time>
      </trkpt>
      <trkpt lat="42.83182" lon="0.15991">
        <ele>2029</ele>
        <time>2020-07-28T08:36:02.015Z</time>
      </trkpt>
      <trkpt lat="42.83182" lon="0.15988">
        <ele>2028</ele>
        <time>2020-07-28T08:36:03.015Z</time>
      </trkpt>
      <trkpt lat="42.83182" lon="0.15988">
        <ele>2028</ele>
        <time>2020-07-28T08:36:04.015Z</time>
      </trkpt>
      <trkpt lat="42.83182" lon="0.15988">
        <ele>2028</ele>
        <time>2020-07-28T08:36:05.015Z</time>
      </trkpt>
      <trkpt lat="42.83181" lon="0.15982">
        <ele>2030</ele>
        <time>2020-07-28T08:36:06.015Z</time>
      </trkpt>
      <trkpt lat="42.83181" lon="0.15982">
        <ele>2030</ele>
        <time>2020-07-28T08:36:07.015Z</time>
      </trkpt>
      <trkpt lat="42.83181" lon="0.15982">
        <ele>2030</ele>
        <time>2020-07-28T08:36:08.015Z</time>
      </trkpt>
      <trkpt lat="42.83184" lon="0.15972">
        <ele>2029</ele>
        <time>2020-07-28T08:36:09.015Z</time>
      </trkpt>
      <trkpt lat="42.83184" lon="0.15972">
        <ele>2029</ele>
        <time>2020-07-28T08:36:10.015Z</time>
      </trkpt>
      <trkpt lat="42.83184" lon="0.15972">
        <ele>2029</ele>
        <time>2020-07-28T08:36:11.015Z</time>
      </trkpt>
      <trkpt lat="42.83186" lon="0.15963">
        <ele>2028</ele>
        <time>2020-07-28T08:36:12.015Z</time>
      </trkpt>
      <trkpt lat="42.83186" lon="0.15963">
        <ele>2028</ele>
        <time>2020-07-28T08:36:13.015Z</time>
      </trkpt>
      <trkpt lat="42.83186" lon="0.15963">
        <ele>2028</ele>
        <time>2020-07-28T08:36:14.015Z</time>
      </trkpt>
      <trkpt lat="42.83186" lon="0.15957">
        <ele>2027</ele>
        <time>2020-07-28T08:36:15.015Z</time>
      </trkpt>
      <trkpt lat="42.83186" lon="0.15957">
        <ele>2027</ele>
        <time>2020-07-28T08:36:16.015Z</time>
      </trkpt>
      <trkpt lat="42.83186" lon="0.15957">
        <ele>2027</ele>
        <time>2020-07-28T08:36:17.015Z</time>
      </trkpt>
      <trkpt lat="42.83188" lon="0.15953">
        <ele>2028</ele>
        <time>2020-07-28T08:36:18.015Z</time>
      </trkpt>
      <trkpt lat="42.83188" lon="0.15953">
        <ele>2028</ele>
        <time>2020-07-28T08:36:19.015Z</time>
      </trkpt>
      <trkpt lat="42.83188" lon="0.15953">
        <ele>2028</ele>
        <time>2020-07-28T08:36:20.015Z</time>
      </trkpt>
      <trkpt lat="42.8319" lon="0.15946">
        <ele>2030</ele>
        <time>2020-07-28T08:36:21.015Z</time>
      </trkpt>
      <trkpt lat="42.8319" lon="0.15946">
        <ele>2030</ele>
        <time>2020-07-28T08:36:22.015Z</time>
      </trkpt>
      <trkpt lat="42.8319" lon="0.15946">
        <ele>2030</ele>
        <time>2020-07-28T08:36:23.015Z</time>
      </trkpt>
      <trkpt lat="42.83192" lon="0.15939">
        <ele>2036</ele>
        <time>2020-07-28T08:36:24.015Z</time>
      </trkpt>
      <trkpt lat="42.83192" lon="0.15939">
        <ele>2036</ele>
        <time>2020-07-28T08:36:25.015Z</time>
      </trkpt>
      <trkpt lat="42.83192" lon="0.15939">
        <ele>2036</ele>
        <time>2020-07-28T08:36:26.015Z</time>
      </trkpt>
      <trkpt lat="42.83196" lon="0.15933">
        <ele>2035</ele>
        <time>2020-07-28T08:36:27.015Z</time>
      </trkpt>
      <trkpt lat="42.83196" lon="0.15933">
        <ele>2035</ele>
        <time>2020-07-28T08:36:28.015Z</time>
      </trkpt>
      <trkpt lat="42.83196" lon="0.15933">
        <ele>2035</ele>
        <time>2020-07-28T08:36:29.015Z</time>
      </trkpt>
      <trkpt lat="42.83197" lon="0.15928">
        <ele>2037</ele>
        <time>2020-07-28T08:36:30.015Z</time>
      </trkpt>
      <trkpt lat="42.83197" lon="0.15928">
        <ele>2037</ele>
        <time>2020-07-28T08:36:31.015Z</time>
      </trkpt>
      <trkpt lat="42.83197" lon="0.15928">
        <ele>2037</ele>
        <time>2020-07-28T08:36:32.015Z</time>
      </trkpt>
      <trkpt lat="42.83199" lon="0.15921">
        <ele>2037</ele>
        <time>2020-07-28T08:36:33.015Z</time>
      </trkpt>
      <trkpt lat="42.83199" lon="0.15921">
        <ele>2037</ele>
        <time>2020-07-28T08:36:34.015Z</time>
      </trkpt>
      <trkpt lat="42.83199" lon="0.15921">
        <ele>2037</ele>
        <time>2020-07-28T08:36:35.015Z</time>
      </trkpt>
      <trkpt lat="42.83199" lon="0.15915">
        <ele>2037</ele>
        <time>2020-07-28T08:36:36.015Z</time>
      </trkpt>
      <trkpt lat="42.83199" lon="0.15915">
        <ele>2037</ele>
        <time>2020-07-28T08:36:37.015Z</time>
      </trkpt>
      <trkpt lat="42.83199" lon="0.15915">
        <ele>2037</ele>
        <time>2020-07-28T08:36:38.015Z</time>
      </trkpt>
      <trkpt lat="42.832" lon="0.15909">
        <ele>2042</ele>
        <time>2020-07-28T08:36:39.015Z</time>
      </trkpt>
      <trkpt lat="42.832" lon="0.15909">
        <ele>2042</ele>
        <time>2020-07-28T08:36:40.015Z</time>
      </trkpt>
      <trkpt lat="42.832" lon="0.15909">
        <ele>2042</ele>
        <time>2020-07-28T08:36:41.015Z</time>
      </trkpt>
      <trkpt lat="42.83201" lon="0.15903">
        <ele>2044</ele>
        <time>2020-07-28T08:36:42.015Z</time>
      </trkpt>
      <trkpt lat="42.83201" lon="0.15903">
        <ele>2044</ele>
        <time>2020-07-28T08:36:43.015Z</time>
      </trkpt>
      <trkpt lat="42.83201" lon="0.15903">
        <ele>2044</ele>
        <time>2020-07-28T08:36:44.015Z</time>
      </trkpt>
      <trkpt lat="42.83202" lon="0.15897">
        <ele>2045</ele>
        <time>2020-07-28T08:36:45.015Z</time>
      </trkpt>
      <trkpt lat="42.83202" lon="0.15897">
        <ele>2045</ele>
        <time>2020-07-28T08:36:46.015Z</time>
      </trkpt>
      <trkpt lat="42.83202" lon="0.15897">
        <ele>2045</ele>
        <time>2020-07-28T08:36:47.015Z</time>
      </trkpt>
      <trkpt lat="42.83204" lon="0.15894">
        <ele>2048</ele>
        <time>2020-07-28T08:36:48.015Z</time>
      </trkpt>
      <trkpt lat="42.83204" lon="0.15894">
        <ele>2048</ele>
        <time>2020-07-28T08:36:49.015Z</time>
      </trkpt>
      <trkpt lat="42.83204" lon="0.15894">
        <ele>2048</ele>
        <time>2020-07-28T08:36:50.015Z</time>
      </trkpt>
      <trkpt lat="42.83208" lon="0.15893">
        <ele>2048</ele>
        <time>2020-07-28T08:36:51.015Z</time>
      </trkpt>
      <trkpt lat="42.83208" lon="0.15893">
        <ele>2048</ele>
        <time>2020-07-28T08:36:52.015Z</time>
      </trkpt>
      <trkpt lat="42.83208" lon="0.15893">
        <ele>2048</ele>
        <time>2020-07-28T08:36:53.015Z</time>
      </trkpt>
      <trkpt lat="42.83211" lon="0.15891">
        <ele>2050</ele>
        <time>2020-07-28T08:36:54.015Z</time>
      </trkpt>
      <trkpt lat="42.83211" lon="0.15891">
        <ele>2050</ele>
        <time>2020-07-28T08:36:55.015Z</time>
      </trkpt>
      <trkpt lat="42.83211" lon="0.15891">
        <ele>2050</ele>
        <time>2020-07-28T08:36:56.015Z</time>
      </trkpt>
      <trkpt lat="42.83213" lon="0.15889">
        <ele>2051</ele>
        <time>2020-07-28T08:36:57.015Z</time>
      </trkpt>
      <trkpt lat="42.83213" lon="0.15889">
        <ele>2051</ele>
        <time>2020-07-28T08:36:58.015Z</time>
      </trkpt>
      <trkpt lat="42.83213" lon="0.15889">
        <ele>2051</ele>
        <time>2020-07-28T08:36:59.015Z</time>
      </trkpt>
      <trkpt lat="42.83216" lon="0.15889">
        <ele>2051</ele>
        <time>2020-07-28T08:37:00.015Z</time>
      </trkpt>
      <trkpt lat="42.83216" lon="0.15889">
        <ele>2051</ele>
        <time>2020-07-28T08:37:01.015Z</time>
      </trkpt>
      <trkpt lat="42.83216" lon="0.15889">
        <ele>2051</ele>
        <time>2020-07-28T08:37:02.015Z</time>
      </trkpt>
      <trkpt lat="42.83221" lon="0.1589">
        <ele>2048</ele>
        <time>2020-07-28T08:37:03.015Z</time>
      </trkpt>
      <trkpt lat="42.83221" lon="0.1589">
        <ele>2048</ele>
        <time>2020-07-28T08:37:04.015Z</time>
      </trkpt>
      <trkpt lat="42.83221" lon="0.1589">
        <ele>2048</ele>
        <time>2020-07-28T08:37:05.015Z</time>
      </trkpt>
      <trkpt lat="42.83226" lon="0.15889">
        <ele>2050</ele>
        <time>2020-07-28T08:37:06.015Z</time>
      </trkpt>
      <trkpt lat="42.83226" lon="0.15889">
        <ele>2050</ele>
        <time>2020-07-28T08:37:07.015Z</time>
      </trkpt>
      <trkpt lat="42.83226" lon="0.15889">
        <ele>2050</ele>
        <time>2020-07-28T08:37:08.015Z</time>
      </trkpt>
      <trkpt lat="42.83233" lon="0.15886">
        <ele>2050</ele>
        <time>2020-07-28T08:37:09.015Z</time>
      </trkpt>
      <trkpt lat="42.83233" lon="0.15886">
        <ele>2050</ele>
        <time>2020-07-28T08:37:10.015Z</time>
      </trkpt>
      <trkpt lat="42.83233" lon="0.15886">
        <ele>2050</ele>
        <time>2020-07-28T08:37:11.015Z</time>
      </trkpt>
      <trkpt lat="42.83238" lon="0.15884">
        <ele>2052</ele>
        <time>2020-07-28T08:37:12.015Z</time>
      </trkpt>
      <trkpt lat="42.83238" lon="0.15884">
        <ele>2052</ele>
        <time>2020-07-28T08:37:13.015Z</time>
      </trkpt>
      <trkpt lat="42.83238" lon="0.15884">
        <ele>2052</ele>
        <time>2020-07-28T08:37:14.015Z</time>
      </trkpt>
      <trkpt lat="42.8324" lon="0.15887">
        <ele>2053</ele>
        <time>2020-07-28T08:37:15.015Z</time>
      </trkpt>
      <trkpt lat="42.8324" lon="0.15887">
        <ele>2053</ele>
        <time>2020-07-28T08:37:16.015Z</time>
      </trkpt>
      <trkpt lat="42.8324" lon="0.15887">
        <ele>2053</ele>
        <time>2020-07-28T08:37:17.015Z</time>
      </trkpt>
      <trkpt lat="42.83242" lon="0.15891">
        <ele>2054</ele>
        <time>2020-07-28T08:37:18.015Z</time>
      </trkpt>
      <trkpt lat="42.83242" lon="0.15891">
        <ele>2054</ele>
        <time>2020-07-28T08:37:19.015Z</time>
      </trkpt>
      <trkpt lat="42.83242" lon="0.15891">
        <ele>2054</ele>
        <time>2020-07-28T08:37:20.015Z</time>
      </trkpt>
      <trkpt lat="42.83244" lon="0.15894">
        <ele>2053</ele>
        <time>2020-07-28T08:37:21.015Z</time>
      </trkpt>
      <trkpt lat="42.83244" lon="0.15894">
        <ele>2053</ele>
        <time>2020-07-28T08:37:22.015Z</time>
      </trkpt>
      <trkpt lat="42.83244" lon="0.15894">
        <ele>2053</ele>
        <time>2020-07-28T08:37:23.015Z</time>
      </trkpt>
      <trkpt lat="42.83245" lon="0.15898">
        <ele>2055</ele>
        <time>2020-07-28T08:37:24.015Z</time>
      </trkpt>
      <trkpt lat="42.83245" lon="0.15898">
        <ele>2055</ele>
        <time>2020-07-28T08:37:25.015Z</time>
      </trkpt>
      <trkpt lat="42.83245" lon="0.15898">
        <ele>2055</ele>
        <time>2020-07-28T08:37:26.015Z</time>
      </trkpt>
      <trkpt lat="42.83246" lon="0.159">
        <ele>2056</ele>
        <time>2020-07-28T08:37:27.015Z</time>
      </trkpt>
      <trkpt lat="42.83246" lon="0.159">
        <ele>2056</ele>
        <time>2020-07-28T08:37:28.015Z</time>
      </trkpt>
      <trkpt lat="42.83246" lon="0.159">
        <ele>2056</ele>
        <time>2020-07-28T08:37:29.015Z</time>
      </trkpt>
      <trkpt lat="42.8325" lon="0.15902">
        <ele>2049</ele>
        <time>2020-07-28T08:37:30.015Z</time>
      </trkpt>
      <trkpt lat="42.8325" lon="0.15902">
        <ele>2049</ele>
        <time>2020-07-28T08:37:31.015Z</time>
      </trkpt>
      <trkpt lat="42.8325" lon="0.15902">
        <ele>2049</ele>
        <time>2020-07-28T08:37:32.015Z</time>
      </trkpt>
      <trkpt lat="42.83253" lon="0.15902">
        <ele>2050</ele>
        <time>2020-07-28T08:37:33.015Z</time>
      </trkpt>
      <trkpt lat="42.83253" lon="0.15902">
        <ele>2050</ele>
        <time>2020-07-28T08:37:34.015Z</time>
      </trkpt>
      <trkpt lat="42.83253" lon="0.15902">
        <ele>2050</ele>
        <time>2020-07-28T08:37:35.015Z</time>
      </trkpt>
      <trkpt lat="42.83257" lon="0.15904">
        <ele>2048</ele>
        <time>2020-07-28T08:37:36.015Z</time>
      </trkpt>
      <trkpt lat="42.83257" lon="0.15904">
        <ele>2048</ele>
        <time>2020-07-28T08:37:37.015Z</time>
      </trkpt>
      <trkpt lat="42.83257" lon="0.15904">
        <ele>2048</ele>
        <time>2020-07-28T08:37:38.015Z</time>
      </trkpt>
      <trkpt lat="42.8326" lon="0.15906">
        <ele>2048</ele>
        <time>2020-07-28T08:37:39.015Z</time>
      </trkpt>
      <trkpt lat="42.8326" lon="0.15906">
        <ele>2048</ele>
        <time>2020-07-28T08:37:40.015Z</time>
      </trkpt>
      <trkpt lat="42.8326" lon="0.15906">
        <ele>2048</ele>
        <time>2020-07-28T08:37:41.015Z</time>
      </trkpt>
      <trkpt lat="42.83262" lon="0.15907">
        <ele>2051</ele>
        <time>2020-07-28T08:37:42.015Z</time>
      </trkpt>
      <trkpt lat="42.83262" lon="0.15907">
        <ele>2051</ele>
        <time>2020-07-28T08:37:43.015Z</time>
      </trkpt>
      <trkpt lat="42.83262" lon="0.15907">
        <ele>2051</ele>
        <time>2020-07-28T08:37:44.015Z</time>
      </trkpt>
      <trkpt lat="42.83263" lon="0.1591">
        <ele>2054</ele>
        <time>2020-07-28T08:37:45.015Z</time>
      </trkpt>
      <trkpt lat="42.83263" lon="0.1591">
        <ele>2054</ele>
        <time>2020-07-28T08:37:46.015Z</time>
      </trkpt>
      <trkpt lat="42.83263" lon="0.1591">
        <ele>2054</ele>
        <time>2020-07-28T08:37:47.015Z</time>
      </trkpt>
      <trkpt lat="42.83267" lon="0.1591">
        <ele>2056</ele>
        <time>2020-07-28T08:37:48.015Z</time>
      </trkpt>
      <trkpt lat="42.83267" lon="0.1591">
        <ele>2056</ele>
        <time>2020-07-28T08:37:49.015Z</time>
      </trkpt>
      <trkpt lat="42.83267" lon="0.1591">
        <ele>2056</ele>
        <time>2020-07-28T08:37:50.015Z</time>
      </trkpt>
      <trkpt lat="42.83271" lon="0.15908">
        <ele>2055</ele>
        <time>2020-07-28T08:37:51.015Z</time>
      </trkpt>
      <trkpt lat="42.83271" lon="0.15908">
        <ele>2055</ele>
        <time>2020-07-28T08:37:52.015Z</time>
      </trkpt>
      <trkpt lat="42.83271" lon="0.15908">
        <ele>2055</ele>
        <time>2020-07-28T08:37:53.015Z</time>
      </trkpt>
      <trkpt lat="42.83273" lon="0.15904">
        <ele>2057</ele>
        <time>2020-07-28T08:37:54.015Z</time>
      </trkpt>
      <trkpt lat="42.83273" lon="0.15904">
        <ele>2057</ele>
        <time>2020-07-28T08:37:55.015Z</time>
      </trkpt>
      <trkpt lat="42.83273" lon="0.15904">
        <ele>2057</ele>
        <time>2020-07-28T08:37:56.015Z</time>
      </trkpt>
      <trkpt lat="42.83275" lon="0.15898">
        <ele>2059</ele>
        <time>2020-07-28T08:37:57.015Z</time>
      </trkpt>
      <trkpt lat="42.83275" lon="0.15898">
        <ele>2059</ele>
        <time>2020-07-28T08:37:58.015Z</time>
      </trkpt>
      <trkpt lat="42.83275" lon="0.15898">
        <ele>2059</ele>
        <time>2020-07-28T08:37:59.015Z</time>
      </trkpt>
      <trkpt lat="42.83277" lon="0.15895">
        <ele>2063</ele>
        <time>2020-07-28T08:38:00.015Z</time>
      </trkpt>
      <trkpt lat="42.83277" lon="0.15895">
        <ele>2063</ele>
        <time>2020-07-28T08:38:01.015Z</time>
      </trkpt>
      <trkpt lat="42.83277" lon="0.15895">
        <ele>2063</ele>
        <time>2020-07-28T08:38:02.015Z</time>
      </trkpt>
      <trkpt lat="42.83279" lon="0.15893">
        <ele>2062</ele>
        <time>2020-07-28T08:38:03.015Z</time>
      </trkpt>
      <trkpt lat="42.83279" lon="0.15893">
        <ele>2062</ele>
        <time>2020-07-28T08:38:04.015Z</time>
      </trkpt>
      <trkpt lat="42.83279" lon="0.15893">
        <ele>2062</ele>
        <time>2020-07-28T08:38:05.015Z</time>
      </trkpt>
      <trkpt lat="42.83281" lon="0.15892">
        <ele>2061</ele>
        <time>2020-07-28T08:38:06.015Z</time>
      </trkpt>
      <trkpt lat="42.83281" lon="0.15892">
        <ele>2061</ele>
        <time>2020-07-28T08:38:07.015Z</time>
      </trkpt>
      <trkpt lat="42.83281" lon="0.15892">
        <ele>2061</ele>
        <time>2020-07-28T08:38:08.015Z</time>
      </trkpt>
      <trkpt lat="42.83283" lon="0.15888">
        <ele>2067</ele>
        <time>2020-07-28T08:38:09.015Z</time>
      </trkpt>
      <trkpt lat="42.83283" lon="0.15888">
        <ele>2067</ele>
        <time>2020-07-28T08:38:10.015Z</time>
      </trkpt>
      <trkpt lat="42.83283" lon="0.15888">
        <ele>2067</ele>
        <time>2020-07-28T08:38:11.015Z</time>
      </trkpt>
      <trkpt lat="42.83285" lon="0.15883">
        <ele>2067</ele>
        <time>2020-07-28T08:38:12.015Z</time>
      </trkpt>
      <trkpt lat="42.83285" lon="0.15883">
        <ele>2067</ele>
        <time>2020-07-28T08:38:13.015Z</time>
      </trkpt>
      <trkpt lat="42.83285" lon="0.15883">
        <ele>2067</ele>
        <time>2020-07-28T08:38:14.015Z</time>
      </trkpt>
      <trkpt lat="42.83287" lon="0.15878">
        <ele>2070</ele>
        <time>2020-07-28T08:38:15.015Z</time>
      </trkpt>
      <trkpt lat="42.83287" lon="0.15878">
        <ele>2070</ele>
        <time>2020-07-28T08:38:16.015Z</time>
      </trkpt>
      <trkpt lat="42.83287" lon="0.15878">
        <ele>2070</ele>
        <time>2020-07-28T08:38:17.015Z</time>
      </trkpt>
      <trkpt lat="42.83289" lon="0.15874">
        <ele>2071</ele>
        <time>2020-07-28T08:38:18.015Z</time>
      </trkpt>
      <trkpt lat="42.83289" lon="0.15874">
        <ele>2071</ele>
        <time>2020-07-28T08:38:19.015Z</time>
      </trkpt>
      <trkpt lat="42.83289" lon="0.15874">
        <ele>2071</ele>
        <time>2020-07-28T08:38:20.015Z</time>
      </trkpt>
      <trkpt lat="42.83289" lon="0.1587">
        <ele>2069</ele>
        <time>2020-07-28T08:38:21.015Z</time>
      </trkpt>
      <trkpt lat="42.83289" lon="0.1587">
        <ele>2069</ele>
        <time>2020-07-28T08:38:22.015Z</time>
      </trkpt>
      <trkpt lat="42.83289" lon="0.1587">
        <ele>2069</ele>
        <time>2020-07-28T08:38:23.015Z</time>
      </trkpt>
      <trkpt lat="42.83291" lon="0.15864">
        <ele>2071</ele>
        <time>2020-07-28T08:38:24.015Z</time>
      </trkpt>
      <trkpt lat="42.83291" lon="0.15864">
        <ele>2071</ele>
        <time>2020-07-28T08:38:25.015Z</time>
      </trkpt>
      <trkpt lat="42.83291" lon="0.15864">
        <ele>2071</ele>
        <time>2020-07-28T08:38:26.015Z</time>
      </trkpt>
      <trkpt lat="42.83291" lon="0.15859">
        <ele>2070</ele>
        <time>2020-07-28T08:38:27.015Z</time>
      </trkpt>
      <trkpt lat="42.83291" lon="0.15859">
        <ele>2070</ele>
        <time>2020-07-28T08:38:28.015Z</time>
      </trkpt>
      <trkpt lat="42.83291" lon="0.15859">
        <ele>2070</ele>
        <time>2020-07-28T08:38:29.015Z</time>
      </trkpt>
      <trkpt lat="42.83294" lon="0.15854">
        <ele>2071</ele>
        <time>2020-07-28T08:38:30.015Z</time>
      </trkpt>
      <trkpt lat="42.83294" lon="0.15854">
        <ele>2071</ele>
        <time>2020-07-28T08:38:31.015Z</time>
      </trkpt>
      <trkpt lat="42.83294" lon="0.15854">
        <ele>2071</ele>
        <time>2020-07-28T08:38:32.015Z</time>
      </trkpt>
      <trkpt lat="42.83296" lon="0.15849">
        <ele>2070</ele>
        <time>2020-07-28T08:38:33.015Z</time>
      </trkpt>
      <trkpt lat="42.83296" lon="0.15849">
        <ele>2070</ele>
        <time>2020-07-28T08:38:34.015Z</time>
      </trkpt>
      <trkpt lat="42.83296" lon="0.15849">
        <ele>2070</ele>
        <time>2020-07-28T08:38:35.015Z</time>
      </trkpt>
      <trkpt lat="42.83297" lon="0.15845">
        <ele>2072</ele>
        <time>2020-07-28T08:38:36.015Z</time>
      </trkpt>
      <trkpt lat="42.83297" lon="0.15845">
        <ele>2072</ele>
        <time>2020-07-28T08:38:37.015Z</time>
      </trkpt>
      <trkpt lat="42.83297" lon="0.15845">
        <ele>2072</ele>
        <time>2020-07-28T08:38:38.015Z</time>
      </trkpt>
      <trkpt lat="42.83298" lon="0.1584">
        <ele>2073</ele>
        <time>2020-07-28T08:38:39.015Z</time>
      </trkpt>
      <trkpt lat="42.83298" lon="0.1584">
        <ele>2073</ele>
        <time>2020-07-28T08:38:40.015Z</time>
      </trkpt>
      <trkpt lat="42.83298" lon="0.1584">
        <ele>2073</ele>
        <time>2020-07-28T08:38:41.015Z</time>
      </trkpt>
      <trkpt lat="42.83301" lon="0.15835">
        <ele>2073</ele>
        <time>2020-07-28T08:38:42.015Z</time>
      </trkpt>
      <trkpt lat="42.83301" lon="0.15835">
        <ele>2073</ele>
        <time>2020-07-28T08:38:43.015Z</time>
      </trkpt>
      <trkpt lat="42.83301" lon="0.15835">
        <ele>2073</ele>
        <time>2020-07-28T08:38:44.015Z</time>
      </trkpt>
      <trkpt lat="42.83304" lon="0.15828">
        <ele>2075</ele>
        <time>2020-07-28T08:38:45.015Z</time>
      </trkpt>
      <trkpt lat="42.83304" lon="0.15828">
        <ele>2075</ele>
        <time>2020-07-28T08:38:46.015Z</time>
      </trkpt>
      <trkpt lat="42.83304" lon="0.15828">
        <ele>2075</ele>
        <time>2020-07-28T08:38:47.015Z</time>
      </trkpt>
      <trkpt lat="42.83305" lon="0.15818">
        <ele>2075</ele>
        <time>2020-07-28T08:38:48.015Z</time>
      </trkpt>
      <trkpt lat="42.83305" lon="0.15818">
        <ele>2075</ele>
        <time>2020-07-28T08:38:49.015Z</time>
      </trkpt>
      <trkpt lat="42.83305" lon="0.15818">
        <ele>2075</ele>
        <time>2020-07-28T08:38:50.015Z</time>
      </trkpt>
      <trkpt lat="42.8331" lon="0.15808">
        <ele>2072</ele>
        <time>2020-07-28T08:38:51.015Z</time>
      </trkpt>
      <trkpt lat="42.8331" lon="0.15808">
        <ele>2072</ele>
        <time>2020-07-28T08:38:52.015Z</time>
      </trkpt>
      <trkpt lat="42.8331" lon="0.15808">
        <ele>2072</ele>
        <time>2020-07-28T08:38:53.015Z</time>
      </trkpt>
      <trkpt lat="42.83314" lon="0.15803">
        <ele>2074</ele>
        <time>2020-07-28T08:38:54.015Z</time>
      </trkpt>
      <trkpt lat="42.83314" lon="0.15803">
        <ele>2074</ele>
        <time>2020-07-28T08:38:55.015Z</time>
      </trkpt>
      <trkpt lat="42.83314" lon="0.15803">
        <ele>2074</ele>
        <time>2020-07-28T08:38:56.015Z</time>
      </trkpt>
      <trkpt lat="42.83319" lon="0.15802">
        <ele>2074</ele>
        <time>2020-07-28T08:38:57.015Z</time>
      </trkpt>
      <trkpt lat="42.83319" lon="0.15802">
        <ele>2074</ele>
        <time>2020-07-28T08:38:58.015Z</time>
      </trkpt>
      <trkpt lat="42.83319" lon="0.15802">
        <ele>2074</ele>
        <time>2020-07-28T08:38:59.015Z</time>
      </trkpt>
      <trkpt lat="42.83323" lon="0.15796">
        <ele>2076</ele>
        <time>2020-07-28T08:39:00.015Z</time>
      </trkpt>
      <trkpt lat="42.83323" lon="0.15796">
        <ele>2076</ele>
        <time>2020-07-28T08:39:01.015Z</time>
      </trkpt>
      <trkpt lat="42.83323" lon="0.15796">
        <ele>2076</ele>
        <time>2020-07-28T08:39:02.015Z</time>
      </trkpt>
      <trkpt lat="42.83328" lon="0.15792">
        <ele>2078</ele>
        <time>2020-07-28T08:39:03.015Z</time>
      </trkpt>
      <trkpt lat="42.83328" lon="0.15792">
        <ele>2078</ele>
        <time>2020-07-28T08:39:04.015Z</time>
      </trkpt>
      <trkpt lat="42.83328" lon="0.15792">
        <ele>2078</ele>
        <time>2020-07-28T08:39:05.015Z</time>
      </trkpt>
      <trkpt lat="42.8333" lon="0.15786">
        <ele>2079</ele>
        <time>2020-07-28T08:39:06.015Z</time>
      </trkpt>
      <trkpt lat="42.8333" lon="0.15786">
        <ele>2079</ele>
        <time>2020-07-28T08:39:07.015Z</time>
      </trkpt>
      <trkpt lat="42.8333" lon="0.15786">
        <ele>2079</ele>
        <time>2020-07-28T08:39:08.015Z</time>
      </trkpt>
      <trkpt lat="42.83333" lon="0.1578">
        <ele>2078</ele>
        <time>2020-07-28T08:39:09.015Z</time>
      </trkpt>
      <trkpt lat="42.83333" lon="0.1578">
        <ele>2078</ele>
        <time>2020-07-28T08:39:10.015Z</time>
      </trkpt>
      <trkpt lat="42.83333" lon="0.1578">
        <ele>2078</ele>
        <time>2020-07-28T08:39:11.015Z</time>
      </trkpt>
      <trkpt lat="42.83337" lon="0.15774">
        <ele>2078</ele>
        <time>2020-07-28T08:39:12.015Z</time>
      </trkpt>
      <trkpt lat="42.83337" lon="0.15774">
        <ele>2078</ele>
        <time>2020-07-28T08:39:13.015Z</time>
      </trkpt>
      <trkpt lat="42.83337" lon="0.15774">
        <ele>2078</ele>
        <time>2020-07-28T08:39:14.015Z</time>
      </trkpt>
      <trkpt lat="42.8334" lon="0.15768">
        <ele>2077</ele>
        <time>2020-07-28T08:39:15.015Z</time>
      </trkpt>
      <trkpt lat="42.8334" lon="0.15768">
        <ele>2077</ele>
        <time>2020-07-28T08:39:16.015Z</time>
      </trkpt>
      <trkpt lat="42.8334" lon="0.15768">
        <ele>2077</ele>
        <time>2020-07-28T08:39:17.015Z</time>
      </trkpt>
      <trkpt lat="42.83343" lon="0.15765">
        <ele>2078</ele>
        <time>2020-07-28T08:39:18.015Z</time>
      </trkpt>
      <trkpt lat="42.83343" lon="0.15765">
        <ele>2078</ele>
        <time>2020-07-28T08:39:19.015Z</time>
      </trkpt>
      <trkpt lat="42.83343" lon="0.15765">
        <ele>2078</ele>
        <time>2020-07-28T08:39:20.015Z</time>
      </trkpt>
      <trkpt lat="42.83347" lon="0.15761">
        <ele>2077</ele>
        <time>2020-07-28T08:39:21.015Z</time>
      </trkpt>
      <trkpt lat="42.83347" lon="0.15761">
        <ele>2077</ele>
        <time>2020-07-28T08:39:22.015Z</time>
      </trkpt>
      <trkpt lat="42.83347" lon="0.15761">
        <ele>2077</ele>
        <time>2020-07-28T08:39:23.015Z</time>
      </trkpt>
      <trkpt lat="42.8335" lon="0.15757">
        <ele>2078</ele>
        <time>2020-07-28T08:39:24.015Z</time>
      </trkpt>
      <trkpt lat="42.8335" lon="0.15757">
        <ele>2078</ele>
        <time>2020-07-28T08:39:25.015Z</time>
      </trkpt>
      <trkpt lat="42.8335" lon="0.15757">
        <ele>2078</ele>
        <time>2020-07-28T08:39:26.015Z</time>
      </trkpt>
      <trkpt lat="42.83352" lon="0.15754">
        <ele>2077</ele>
        <time>2020-07-28T08:39:27.015Z</time>
      </trkpt>
      <trkpt lat="42.83352" lon="0.15754">
        <ele>2077</ele>
        <time>2020-07-28T08:39:28.015Z</time>
      </trkpt>
      <trkpt lat="42.83352" lon="0.15754">
        <ele>2077</ele>
        <time>2020-07-28T08:39:29.015Z</time>
      </trkpt>
      <trkpt lat="42.83352" lon="0.15749">
        <ele>2076</ele>
        <time>2020-07-28T08:39:30.015Z</time>
      </trkpt>
      <trkpt lat="42.83352" lon="0.15749">
        <ele>2076</ele>
        <time>2020-07-28T08:39:31.015Z</time>
      </trkpt>
      <trkpt lat="42.83352" lon="0.15749">
        <ele>2076</ele>
        <time>2020-07-28T08:39:32.015Z</time>
      </trkpt>
      <trkpt lat="42.83351" lon="0.15741">
        <ele>2075</ele>
        <time>2020-07-28T08:39:33.015Z</time>
      </trkpt>
      <trkpt lat="42.83351" lon="0.15741">
        <ele>2075</ele>
        <time>2020-07-28T08:39:34.015Z</time>
      </trkpt>
      <trkpt lat="42.83351" lon="0.15741">
        <ele>2075</ele>
        <time>2020-07-28T08:39:35.015Z</time>
      </trkpt>
      <trkpt lat="42.83347" lon="0.15733">
        <ele>2077</ele>
        <time>2020-07-28T08:39:36.015Z</time>
      </trkpt>
      <trkpt lat="42.83347" lon="0.15733">
        <ele>2077</ele>
        <time>2020-07-28T08:39:37.015Z</time>
      </trkpt>
      <trkpt lat="42.83347" lon="0.15733">
        <ele>2077</ele>
        <time>2020-07-28T08:39:38.015Z</time>
      </trkpt>
      <trkpt lat="42.83348" lon="0.15727">
        <ele>2075</ele>
        <time>2020-07-28T08:39:39.015Z</time>
      </trkpt>
      <trkpt lat="42.83348" lon="0.15727">
        <ele>2075</ele>
        <time>2020-07-28T08:39:40.015Z</time>
      </trkpt>
      <trkpt lat="42.83348" lon="0.15727">
        <ele>2075</ele>
        <time>2020-07-28T08:39:41.015Z</time>
      </trkpt>
      <trkpt lat="42.83353" lon="0.15724">
        <ele>2073</ele>
        <time>2020-07-28T08:39:42.015Z</time>
      </trkpt>
      <trkpt lat="42.83353" lon="0.15724">
        <ele>2073</ele>
        <time>2020-07-28T08:39:43.015Z</time>
      </trkpt>
      <trkpt lat="42.83353" lon="0.15724">
        <ele>2073</ele>
        <time>2020-07-28T08:39:44.015Z</time>
      </trkpt>
      <trkpt lat="42.83356" lon="0.1572">
        <ele>2073</ele>
        <time>2020-07-28T08:39:45.015Z</time>
      </trkpt>
      <trkpt lat="42.83356" lon="0.1572">
        <ele>2073</ele>
        <time>2020-07-28T08:39:46.015Z</time>
      </trkpt>
      <trkpt lat="42.83356" lon="0.1572">
        <ele>2073</ele>
        <time>2020-07-28T08:39:47.015Z</time>
      </trkpt>
      <trkpt lat="42.83359" lon="0.15716">
        <ele>2072</ele>
        <time>2020-07-28T08:39:48.015Z</time>
      </trkpt>
      <trkpt lat="42.83359" lon="0.15716">
        <ele>2072</ele>
        <time>2020-07-28T08:39:49.015Z</time>
      </trkpt>
      <trkpt lat="42.83359" lon="0.15716">
        <ele>2072</ele>
        <time>2020-07-28T08:39:50.015Z</time>
      </trkpt>
      <trkpt lat="42.83364" lon="0.15714">
        <ele>2076</ele>
        <time>2020-07-28T08:39:51.015Z</time>
      </trkpt>
      <trkpt lat="42.83364" lon="0.15714">
        <ele>2076</ele>
        <time>2020-07-28T08:39:52.015Z</time>
      </trkpt>
      <trkpt lat="42.83364" lon="0.15714">
        <ele>2076</ele>
        <time>2020-07-28T08:39:53.015Z</time>
      </trkpt>
      <trkpt lat="42.83367" lon="0.1571">
        <ele>2079</ele>
        <time>2020-07-28T08:39:54.015Z</time>
      </trkpt>
      <trkpt lat="42.83367" lon="0.1571">
        <ele>2079</ele>
        <time>2020-07-28T08:39:55.015Z</time>
      </trkpt>
      <trkpt lat="42.83367" lon="0.1571">
        <ele>2079</ele>
        <time>2020-07-28T08:39:56.015Z</time>
      </trkpt>
      <trkpt lat="42.83371" lon="0.15708">
        <ele>2078</ele>
        <time>2020-07-28T08:39:57.015Z</time>
      </trkpt>
      <trkpt lat="42.83371" lon="0.15708">
        <ele>2078</ele>
        <time>2020-07-28T08:39:58.015Z</time>
      </trkpt>
      <trkpt lat="42.83371" lon="0.15708">
        <ele>2078</ele>
        <time>2020-07-28T08:39:59.015Z</time>
      </trkpt>
      <trkpt lat="42.83375" lon="0.15708">
        <ele>2079</ele>
        <time>2020-07-28T08:40:00.015Z</time>
      </trkpt>
      <trkpt lat="42.83375" lon="0.15708">
        <ele>2079</ele>
        <time>2020-07-28T08:40:01.015Z</time>
      </trkpt>
      <trkpt lat="42.83375" lon="0.15708">
        <ele>2079</ele>
        <time>2020-07-28T08:40:02.015Z</time>
      </trkpt>
      <trkpt lat="42.83378" lon="0.15706">
        <ele>2081</ele>
        <time>2020-07-28T08:40:03.015Z</time>
      </trkpt>
      <trkpt lat="42.83378" lon="0.15706">
        <ele>2081</ele>
        <time>2020-07-28T08:40:04.015Z</time>
      </trkpt>
      <trkpt lat="42.83378" lon="0.15706">
        <ele>2081</ele>
        <time>2020-07-28T08:40:05.015Z</time>
      </trkpt>
      <trkpt lat="42.83378" lon="0.15703">
        <ele>2083</ele>
        <time>2020-07-28T08:40:06.015Z</time>
      </trkpt>
      <trkpt lat="42.83378" lon="0.15703">
        <ele>2083</ele>
        <time>2020-07-28T08:40:07.015Z</time>
      </trkpt>
      <trkpt lat="42.83378" lon="0.15703">
        <ele>2083</ele>
        <time>2020-07-28T08:40:08.015Z</time>
      </trkpt>
      <trkpt lat="42.83378" lon="0.15701">
        <ele>2085</ele>
        <time>2020-07-28T08:40:09.015Z</time>
      </trkpt>
      <trkpt lat="42.83378" lon="0.15701">
        <ele>2085</ele>
        <time>2020-07-28T08:40:10.015Z</time>
      </trkpt>
      <trkpt lat="42.83378" lon="0.15701">
        <ele>2085</ele>
        <time>2020-07-28T08:40:11.015Z</time>
      </trkpt>
      <trkpt lat="42.83378" lon="0.15699">
        <ele>2087</ele>
        <time>2020-07-28T08:40:12.015Z</time>
      </trkpt>
      <trkpt lat="42.83378" lon="0.15699">
        <ele>2087</ele>
        <time>2020-07-28T08:40:13.015Z</time>
      </trkpt>
      <trkpt lat="42.83378" lon="0.15699">
        <ele>2087</ele>
        <time>2020-07-28T08:40:14.015Z</time>
      </trkpt>
      <trkpt lat="42.83376" lon="0.15696">
        <ele>2085</ele>
        <time>2020-07-28T08:40:15.015Z</time>
      </trkpt>
      <trkpt lat="42.83376" lon="0.15696">
        <ele>2085</ele>
        <time>2020-07-28T08:40:16.015Z</time>
      </trkpt>
      <trkpt lat="42.83376" lon="0.15696">
        <ele>2085</ele>
        <time>2020-07-28T08:40:17.015Z</time>
      </trkpt>
      <trkpt lat="42.83374" lon="0.15692">
        <ele>2086</ele>
        <time>2020-07-28T08:40:18.015Z</time>
      </trkpt>
      <trkpt lat="42.83374" lon="0.15692">
        <ele>2086</ele>
        <time>2020-07-28T08:40:19.015Z</time>
      </trkpt>
      <trkpt lat="42.83374" lon="0.15692">
        <ele>2086</ele>
        <time>2020-07-28T08:40:20.015Z</time>
      </trkpt>
      <trkpt lat="42.83374" lon="0.15689">
        <ele>2085</ele>
        <time>2020-07-28T08:40:21.015Z</time>
      </trkpt>
      <trkpt lat="42.83374" lon="0.15689">
        <ele>2085</ele>
        <time>2020-07-28T08:40:22.015Z</time>
      </trkpt>
      <trkpt lat="42.83374" lon="0.15689">
        <ele>2085</ele>
        <time>2020-07-28T08:40:23.015Z</time>
      </trkpt>
      <trkpt lat="42.83372" lon="0.15684">
        <ele>2088</ele>
        <time>2020-07-28T08:40:24.015Z</time>
      </trkpt>
      <trkpt lat="42.83372" lon="0.15684">
        <ele>2088</ele>
        <time>2020-07-28T08:40:25.015Z</time>
      </trkpt>
      <trkpt lat="42.83372" lon="0.15684">
        <ele>2088</ele>
        <time>2020-07-28T08:40:26.015Z</time>
      </trkpt>
      <trkpt lat="42.83372" lon="0.15679">
        <ele>2090</ele>
        <time>2020-07-28T08:40:27.015Z</time>
      </trkpt>
      <trkpt lat="42.83372" lon="0.15679">
        <ele>2090</ele>
        <time>2020-07-28T08:40:28.015Z</time>
      </trkpt>
      <trkpt lat="42.83372" lon="0.15679">
        <ele>2090</ele>
        <time>2020-07-28T08:40:29.015Z</time>
      </trkpt>
      <trkpt lat="42.8337" lon="0.15673">
        <ele>2090</ele>
        <time>2020-07-28T08:40:30.015Z</time>
      </trkpt>
      <trkpt lat="42.8337" lon="0.15673">
        <ele>2090</ele>
        <time>2020-07-28T08:40:31.015Z</time>
      </trkpt>
      <trkpt lat="42.8337" lon="0.15673">
        <ele>2090</ele>
        <time>2020-07-28T08:40:32.015Z</time>
      </trkpt>
      <trkpt lat="42.83369" lon="0.15665">
        <ele>2091</ele>
        <time>2020-07-28T08:40:33.015Z</time>
      </trkpt>
      <trkpt lat="42.83369" lon="0.15665">
        <ele>2091</ele>
        <time>2020-07-28T08:40:34.015Z</time>
      </trkpt>
      <trkpt lat="42.83369" lon="0.15665">
        <ele>2091</ele>
        <time>2020-07-28T08:40:35.015Z</time>
      </trkpt>
      <trkpt lat="42.83368" lon="0.15654">
        <ele>2090</ele>
        <time>2020-07-28T08:40:36.015Z</time>
      </trkpt>
      <trkpt lat="42.83368" lon="0.15654">
        <ele>2090</ele>
        <time>2020-07-28T08:40:37.015Z</time>
      </trkpt>
      <trkpt lat="42.83368" lon="0.15654">
        <ele>2090</ele>
        <time>2020-07-28T08:40:38.015Z</time>
      </trkpt>
      <trkpt lat="42.83367" lon="0.15642">
        <ele>2090</ele>
        <time>2020-07-28T08:40:39.015Z</time>
      </trkpt>
      <trkpt lat="42.83367" lon="0.15642">
        <ele>2090</ele>
        <time>2020-07-28T08:40:40.015Z</time>
      </trkpt>
      <trkpt lat="42.83367" lon="0.15642">
        <ele>2090</ele>
        <time>2020-07-28T08:40:41.015Z</time>
      </trkpt>
      <trkpt lat="42.83369" lon="0.1563">
        <ele>2091</ele>
        <time>2020-07-28T08:40:42.015Z</time>
      </trkpt>
      <trkpt lat="42.83369" lon="0.1563">
        <ele>2091</ele>
        <time>2020-07-28T08:40:43.015Z</time>
      </trkpt>
      <trkpt lat="42.83369" lon="0.1563">
        <ele>2091</ele>
        <time>2020-07-28T08:40:44.015Z</time>
      </trkpt>
      <trkpt lat="42.83369" lon="0.1562">
        <ele>2092</ele>
        <time>2020-07-28T08:40:45.015Z</time>
      </trkpt>
      <trkpt lat="42.83369" lon="0.1562">
        <ele>2092</ele>
        <time>2020-07-28T08:40:46.015Z</time>
      </trkpt>
      <trkpt lat="42.83369" lon="0.1562">
        <ele>2092</ele>
        <time>2020-07-28T08:40:47.015Z</time>
      </trkpt>
      <trkpt lat="42.83372" lon="0.1561">
        <ele>2089</ele>
        <time>2020-07-28T08:40:48.015Z</time>
      </trkpt>
      <trkpt lat="42.83372" lon="0.1561">
        <ele>2089</ele>
        <time>2020-07-28T08:40:49.015Z</time>
      </trkpt>
      <trkpt lat="42.83372" lon="0.1561">
        <ele>2089</ele>
        <time>2020-07-28T08:40:50.015Z</time>
      </trkpt>
      <trkpt lat="42.83378" lon="0.15602">
        <ele>2085</ele>
        <time>2020-07-28T08:40:51.015Z</time>
      </trkpt>
      <trkpt lat="42.83378" lon="0.15602">
        <ele>2085</ele>
        <time>2020-07-28T08:40:52.015Z</time>
      </trkpt>
      <trkpt lat="42.83378" lon="0.15602">
        <ele>2085</ele>
        <time>2020-07-28T08:40:53.015Z</time>
      </trkpt>
      <trkpt lat="42.83384" lon="0.15596">
        <ele>2084</ele>
        <time>2020-07-28T08:40:54.015Z</time>
      </trkpt>
      <trkpt lat="42.83384" lon="0.15596">
        <ele>2084</ele>
        <time>2020-07-28T08:40:55.015Z</time>
      </trkpt>
      <trkpt lat="42.83384" lon="0.15596">
        <ele>2084</ele>
        <time>2020-07-28T08:40:56.015Z</time>
      </trkpt>
      <trkpt lat="42.83388" lon="0.1559">
        <ele>2082</ele>
        <time>2020-07-28T08:40:57.015Z</time>
      </trkpt>
      <trkpt lat="42.83388" lon="0.1559">
        <ele>2082</ele>
        <time>2020-07-28T08:40:58.015Z</time>
      </trkpt>
      <trkpt lat="42.83388" lon="0.1559">
        <ele>2082</ele>
        <time>2020-07-28T08:40:59.015Z</time>
      </trkpt>
      <trkpt lat="42.83391" lon="0.15584">
        <ele>2082</ele>
        <time>2020-07-28T08:41:00.015Z</time>
      </trkpt>
      <trkpt lat="42.83391" lon="0.15584">
        <ele>2082</ele>
        <time>2020-07-28T08:41:01.015Z</time>
      </trkpt>
      <trkpt lat="42.83391" lon="0.15584">
        <ele>2082</ele>
        <time>2020-07-28T08:41:02.015Z</time>
      </trkpt>
      <trkpt lat="42.83392" lon="0.15579">
        <ele>2084</ele>
        <time>2020-07-28T08:41:03.015Z</time>
      </trkpt>
      <trkpt lat="42.83392" lon="0.15579">
        <ele>2084</ele>
        <time>2020-07-28T08:41:04.015Z</time>
      </trkpt>
      <trkpt lat="42.83392" lon="0.15579">
        <ele>2084</ele>
        <time>2020-07-28T08:41:05.015Z</time>
      </trkpt>
      <trkpt lat="42.83393" lon="0.15576">
        <ele>2082</ele>
        <time>2020-07-28T08:41:06.015Z</time>
      </trkpt>
      <trkpt lat="42.83393" lon="0.15576">
        <ele>2082</ele>
        <time>2020-07-28T08:41:07.015Z</time>
      </trkpt>
      <trkpt lat="42.83393" lon="0.15576">
        <ele>2082</ele>
        <time>2020-07-28T08:41:08.015Z</time>
      </trkpt>
      <trkpt lat="42.83393" lon="0.15571">
        <ele>2083</ele>
        <time>2020-07-28T08:41:09.015Z</time>
      </trkpt>
      <trkpt lat="42.83393" lon="0.15571">
        <ele>2083</ele>
        <time>2020-07-28T08:41:10.015Z</time>
      </trkpt>
      <trkpt lat="42.8339" lon="0.15472">
        <ele>2086</ele>
        <time>2020-07-28T08:41:11.062Z</time>
      </trkpt>
      <trkpt lat="42.8339" lon="0.15472">
        <ele>2086</ele>
        <time>2020-07-28T08:41:12.062Z</time>
      </trkpt>
      <trkpt lat="42.83391" lon="0.1547">
        <ele>2085</ele>
        <time>2020-07-28T08:41:13.062Z</time>
      </trkpt>
      <trkpt lat="42.83391" lon="0.1547">
        <ele>2085</ele>
        <time>2020-07-28T08:41:14.062Z</time>
      </trkpt>
      <trkpt lat="42.83391" lon="0.1547">
        <ele>2085</ele>
        <time>2020-07-28T08:41:15.062Z</time>
      </trkpt>
      <trkpt lat="42.83393" lon="0.15467">
        <ele>2086</ele>
        <time>2020-07-28T08:41:16.062Z</time>
      </trkpt>
      <trkpt lat="42.83393" lon="0.15467">
        <ele>2086</ele>
        <time>2020-07-28T08:41:17.062Z</time>
      </trkpt>
      <trkpt lat="42.83393" lon="0.15467">
        <ele>2086</ele>
        <time>2020-07-28T08:41:18.062Z</time>
      </trkpt>
      <trkpt lat="42.83395" lon="0.15462">
        <ele>2086</ele>
        <time>2020-07-28T08:41:19.062Z</time>
      </trkpt>
      <trkpt lat="42.83395" lon="0.15462">
        <ele>2086</ele>
        <time>2020-07-28T08:41:20.062Z</time>
      </trkpt>
      <trkpt lat="42.83395" lon="0.15462">
        <ele>2086</ele>
        <time>2020-07-28T08:41:21.062Z</time>
      </trkpt>
      <trkpt lat="42.83396" lon="0.15456">
        <ele>2086</ele>
        <time>2020-07-28T08:41:22.062Z</time>
      </trkpt>
      <trkpt lat="42.83396" lon="0.15456">
        <ele>2086</ele>
        <time>2020-07-28T08:41:23.062Z</time>
      </trkpt>
      <trkpt lat="42.83396" lon="0.15456">
        <ele>2086</ele>
        <time>2020-07-28T08:41:24.062Z</time>
      </trkpt>
      <trkpt lat="42.83395" lon="0.15451">
        <ele>2085</ele>
        <time>2020-07-28T08:41:25.062Z</time>
      </trkpt>
      <trkpt lat="42.83395" lon="0.15451">
        <ele>2085</ele>
        <time>2020-07-28T08:41:26.062Z</time>
      </trkpt>
      <trkpt lat="42.83395" lon="0.15451">
        <ele>2085</ele>
        <time>2020-07-28T08:41:27.062Z</time>
      </trkpt>
      <trkpt lat="42.83393" lon="0.15444">
        <ele>2085</ele>
        <time>2020-07-28T08:41:28.062Z</time>
      </trkpt>
      <trkpt lat="42.83393" lon="0.15444">
        <ele>2085</ele>
        <time>2020-07-28T08:41:29.062Z</time>
      </trkpt>
      <trkpt lat="42.83393" lon="0.15444">
        <ele>2085</ele>
        <time>2020-07-28T08:41:30.062Z</time>
      </trkpt>
      <trkpt lat="42.83392" lon="0.15436">
        <ele>2084</ele>
        <time>2020-07-28T08:41:31.062Z</time>
      </trkpt>
      <trkpt lat="42.83392" lon="0.15436">
        <ele>2084</ele>
        <time>2020-07-28T08:41:32.062Z</time>
      </trkpt>
      <trkpt lat="42.83392" lon="0.15436">
        <ele>2084</ele>
        <time>2020-07-28T08:41:33.062Z</time>
      </trkpt>
      <trkpt lat="42.83395" lon="0.15424">
        <ele>2082</ele>
        <time>2020-07-28T08:41:34.062Z</time>
      </trkpt>
      <trkpt lat="42.83395" lon="0.15424">
        <ele>2082</ele>
        <time>2020-07-28T08:41:35.062Z</time>
      </trkpt>
      <trkpt lat="42.83395" lon="0.15424">
        <ele>2082</ele>
        <time>2020-07-28T08:41:36.062Z</time>
      </trkpt>
      <trkpt lat="42.83396" lon="0.15416">
        <ele>2080</ele>
        <time>2020-07-28T08:41:37.062Z</time>
      </trkpt>
      <trkpt lat="42.83396" lon="0.15416">
        <ele>2080</ele>
        <time>2020-07-28T08:41:38.062Z</time>
      </trkpt>
      <trkpt lat="42.83396" lon="0.15416">
        <ele>2080</ele>
        <time>2020-07-28T08:41:39.062Z</time>
      </trkpt>
      <trkpt lat="42.83394" lon="0.15412">
        <ele>2080</ele>
        <time>2020-07-28T08:41:40.062Z</time>
      </trkpt>
      <trkpt lat="42.83394" lon="0.15412">
        <ele>2080</ele>
        <time>2020-07-28T08:41:41.062Z</time>
      </trkpt>
      <trkpt lat="42.83394" lon="0.15412">
        <ele>2080</ele>
        <time>2020-07-28T08:41:42.062Z</time>
      </trkpt>
      <trkpt lat="42.83392" lon="0.15403">
        <ele>2078</ele>
        <time>2020-07-28T08:41:43.062Z</time>
      </trkpt>
      <trkpt lat="42.83392" lon="0.15403">
        <ele>2078</ele>
        <time>2020-07-28T08:41:44.062Z</time>
      </trkpt>
      <trkpt lat="42.83392" lon="0.15403">
        <ele>2078</ele>
        <time>2020-07-28T08:41:45.062Z</time>
      </trkpt>
      <trkpt lat="42.83387" lon="0.15397">
        <ele>2077</ele>
        <time>2020-07-28T08:41:46.062Z</time>
      </trkpt>
      <trkpt lat="42.83387" lon="0.15397">
        <ele>2077</ele>
        <time>2020-07-28T08:41:47.062Z</time>
      </trkpt>
      <trkpt lat="42.83387" lon="0.15397">
        <ele>2077</ele>
        <time>2020-07-28T08:41:48.062Z</time>
      </trkpt>
      <trkpt lat="42.8338" lon="0.15392">
        <ele>2076</ele>
        <time>2020-07-28T08:41:49.062Z</time>
      </trkpt>
      <trkpt lat="42.8338" lon="0.15392">
        <ele>2076</ele>
        <time>2020-07-28T08:41:50.062Z</time>
      </trkpt>
      <trkpt lat="42.8338" lon="0.15392">
        <ele>2076</ele>
        <time>2020-07-28T08:41:51.062Z</time>
      </trkpt>
      <trkpt lat="42.83377" lon="0.15383">
        <ele>2077</ele>
        <time>2020-07-28T08:41:52.062Z</time>
      </trkpt>
      <trkpt lat="42.83377" lon="0.15383">
        <ele>2077</ele>
        <time>2020-07-28T08:41:53.062Z</time>
      </trkpt>
      <trkpt lat="42.83377" lon="0.15383">
        <ele>2077</ele>
        <time>2020-07-28T08:41:54.062Z</time>
      </trkpt>
      <trkpt lat="42.83377" lon="0.15379">
        <ele>2079</ele>
        <time>2020-07-28T08:41:55.062Z</time>
      </trkpt>
      <trkpt lat="42.83377" lon="0.15379">
        <ele>2079</ele>
        <time>2020-07-28T08:41:56.062Z</time>
      </trkpt>
      <trkpt lat="42.83377" lon="0.15379">
        <ele>2079</ele>
        <time>2020-07-28T08:41:57.062Z</time>
      </trkpt>
      <trkpt lat="42.83376" lon="0.15373">
        <ele>2080</ele>
        <time>2020-07-28T08:41:58.062Z</time>
      </trkpt>
      <trkpt lat="42.83376" lon="0.15373">
        <ele>2080</ele>
        <time>2020-07-28T08:41:59.062Z</time>
      </trkpt>
      <trkpt lat="42.83376" lon="0.15373">
        <ele>2080</ele>
        <time>2020-07-28T08:42:00.062Z</time>
      </trkpt>
      <trkpt lat="42.83374" lon="0.15365">
        <ele>2079</ele>
        <time>2020-07-28T08:42:01.062Z</time>
      </trkpt>
      <trkpt lat="42.83374" lon="0.15365">
        <ele>2079</ele>
        <time>2020-07-28T08:42:02.062Z</time>
      </trkpt>
      <trkpt lat="42.83374" lon="0.15365">
        <ele>2079</ele>
        <time>2020-07-28T08:42:03.062Z</time>
      </trkpt>
      <trkpt lat="42.83367" lon="0.15354">
        <ele>2080</ele>
        <time>2020-07-28T08:42:04.062Z</time>
      </trkpt>
      <trkpt lat="42.83367" lon="0.15354">
        <ele>2080</ele>
        <time>2020-07-28T08:42:05.062Z</time>
      </trkpt>
      <trkpt lat="42.83367" lon="0.15354">
        <ele>2080</ele>
        <time>2020-07-28T08:42:06.062Z</time>
      </trkpt>
      <trkpt lat="42.83363" lon="0.15347">
        <ele>2080</ele>
        <time>2020-07-28T08:42:07.062Z</time>
      </trkpt>
      <trkpt lat="42.83363" lon="0.15347">
        <ele>2080</ele>
        <time>2020-07-28T08:42:08.062Z</time>
      </trkpt>
      <trkpt lat="42.83363" lon="0.15347">
        <ele>2080</ele>
        <time>2020-07-28T08:42:09.062Z</time>
      </trkpt>
      <trkpt lat="42.83357" lon="0.15341">
        <ele>2081</ele>
        <time>2020-07-28T08:42:10.062Z</time>
      </trkpt>
      <trkpt lat="42.83357" lon="0.15341">
        <ele>2081</ele>
        <time>2020-07-28T08:42:11.062Z</time>
      </trkpt>
      <trkpt lat="42.83357" lon="0.15341">
        <ele>2081</ele>
        <time>2020-07-28T08:42:12.062Z</time>
      </trkpt>
      <trkpt lat="42.83355" lon="0.15333">
        <ele>2080</ele>
        <time>2020-07-28T08:42:13.062Z</time>
      </trkpt>
      <trkpt lat="42.83355" lon="0.15333">
        <ele>2080</ele>
        <time>2020-07-28T08:42:14.062Z</time>
      </trkpt>
      <trkpt lat="42.83355" lon="0.15333">
        <ele>2080</ele>
        <time>2020-07-28T08:42:15.062Z</time>
      </trkpt>
      <trkpt lat="42.83353" lon="0.15324">
        <ele>2081</ele>
        <time>2020-07-28T08:42:16.062Z</time>
      </trkpt>
      <trkpt lat="42.83353" lon="0.15324">
        <ele>2081</ele>
        <time>2020-07-28T08:42:17.062Z</time>
      </trkpt>
      <trkpt lat="42.83353" lon="0.15324">
        <ele>2081</ele>
        <time>2020-07-28T08:42:18.062Z</time>
      </trkpt>
      <trkpt lat="42.83353" lon="0.15308">
        <ele>2082</ele>
        <time>2020-07-28T08:42:19.062Z</time>
      </trkpt>
      <trkpt lat="42.83353" lon="0.15308">
        <ele>2082</ele>
        <time>2020-07-28T08:42:20.062Z</time>
      </trkpt>
      <trkpt lat="42.83353" lon="0.15308">
        <ele>2082</ele>
        <time>2020-07-28T08:42:21.062Z</time>
      </trkpt>
      <trkpt lat="42.83353" lon="0.15298">
        <ele>2082</ele>
        <time>2020-07-28T08:42:22.062Z</time>
      </trkpt>
      <trkpt lat="42.83353" lon="0.15298">
        <ele>2082</ele>
        <time>2020-07-28T08:42:23.062Z</time>
      </trkpt>
      <trkpt lat="42.83353" lon="0.15298">
        <ele>2082</ele>
        <time>2020-07-28T08:42:24.062Z</time>
      </trkpt>
      <trkpt lat="42.83348" lon="0.15288">
        <ele>2079</ele>
        <time>2020-07-28T08:42:25.062Z</time>
      </trkpt>
      <trkpt lat="42.83348" lon="0.15288">
        <ele>2079</ele>
        <time>2020-07-28T08:42:26.062Z</time>
      </trkpt>
      <trkpt lat="42.83348" lon="0.15288">
        <ele>2079</ele>
        <time>2020-07-28T08:42:27.062Z</time>
      </trkpt>
      <trkpt lat="42.83341" lon="0.1528">
        <ele>2079</ele>
        <time>2020-07-28T08:42:28.062Z</time>
      </trkpt>
      <trkpt lat="42.83341" lon="0.1528">
        <ele>2079</ele>
        <time>2020-07-28T08:42:29.062Z</time>
      </trkpt>
      <trkpt lat="42.83341" lon="0.1528">
        <ele>2079</ele>
        <time>2020-07-28T08:42:30.062Z</time>
      </trkpt>
      <trkpt lat="42.83335" lon="0.15275">
        <ele>2081</ele>
        <time>2020-07-28T08:42:31.062Z</time>
      </trkpt>
      <trkpt lat="42.83335" lon="0.15275">
        <ele>2081</ele>
        <time>2020-07-28T08:42:32.062Z</time>
      </trkpt>
      <trkpt lat="42.83335" lon="0.15275">
        <ele>2081</ele>
        <time>2020-07-28T08:42:33.062Z</time>
      </trkpt>
      <trkpt lat="42.83331" lon="0.15266">
        <ele>2080</ele>
        <time>2020-07-28T08:42:34.062Z</time>
      </trkpt>
      <trkpt lat="42.83331" lon="0.15266">
        <ele>2080</ele>
        <time>2020-07-28T08:42:35.062Z</time>
      </trkpt>
      <trkpt lat="42.83331" lon="0.15266">
        <ele>2080</ele>
        <time>2020-07-28T08:42:36.062Z</time>
      </trkpt>
      <trkpt lat="42.83328" lon="0.15257">
        <ele>2079</ele>
        <time>2020-07-28T08:42:37.062Z</time>
      </trkpt>
      <trkpt lat="42.83328" lon="0.15257">
        <ele>2079</ele>
        <time>2020-07-28T08:42:38.062Z</time>
      </trkpt>
      <trkpt lat="42.83328" lon="0.15257">
        <ele>2079</ele>
        <time>2020-07-28T08:42:39.062Z</time>
      </trkpt>
      <trkpt lat="42.83323" lon="0.15252">
        <ele>2078</ele>
        <time>2020-07-28T08:42:40.062Z</time>
      </trkpt>
      <trkpt lat="42.83323" lon="0.15252">
        <ele>2078</ele>
        <time>2020-07-28T08:42:41.062Z</time>
      </trkpt>
      <trkpt lat="42.83323" lon="0.15252">
        <ele>2078</ele>
        <time>2020-07-28T08:42:42.062Z</time>
      </trkpt>
      <trkpt lat="42.83315" lon="0.15246">
        <ele>2078</ele>
        <time>2020-07-28T08:42:43.062Z</time>
      </trkpt>
      <trkpt lat="42.83315" lon="0.15246">
        <ele>2078</ele>
        <time>2020-07-28T08:42:44.062Z</time>
      </trkpt>
      <trkpt lat="42.83315" lon="0.15246">
        <ele>2078</ele>
        <time>2020-07-28T08:42:45.062Z</time>
      </trkpt>
      <trkpt lat="42.83309" lon="0.15237">
        <ele>2080</ele>
        <time>2020-07-28T08:42:46.062Z</time>
      </trkpt>
      <trkpt lat="42.83309" lon="0.15237">
        <ele>2080</ele>
        <time>2020-07-28T08:42:47.062Z</time>
      </trkpt>
      <trkpt lat="42.83309" lon="0.15237">
        <ele>2080</ele>
        <time>2020-07-28T08:42:48.062Z</time>
      </trkpt>
      <trkpt lat="42.83304" lon="0.15228">
        <ele>2081</ele>
        <time>2020-07-28T08:42:49.062Z</time>
      </trkpt>
      <trkpt lat="42.83304" lon="0.15228">
        <ele>2081</ele>
        <time>2020-07-28T08:42:50.062Z</time>
      </trkpt>
      <trkpt lat="42.83304" lon="0.15228">
        <ele>2081</ele>
        <time>2020-07-28T08:42:51.062Z</time>
      </trkpt>
      <trkpt lat="42.83298" lon="0.1522">
        <ele>2082</ele>
        <time>2020-07-28T08:42:52.062Z</time>
      </trkpt>
      <trkpt lat="42.83298" lon="0.1522">
        <ele>2082</ele>
        <time>2020-07-28T08:42:53.062Z</time>
      </trkpt>
      <trkpt lat="42.83298" lon="0.1522">
        <ele>2082</ele>
        <time>2020-07-28T08:42:54.062Z</time>
      </trkpt>
      <trkpt lat="42.83295" lon="0.15216">
        <ele>2083</ele>
        <time>2020-07-28T08:42:55.062Z</time>
      </trkpt>
      <trkpt lat="42.83295" lon="0.15216">
        <ele>2083</ele>
        <time>2020-07-28T08:42:56.062Z</time>
      </trkpt>
      <trkpt lat="42.83295" lon="0.15216">
        <ele>2083</ele>
        <time>2020-07-28T08:42:57.062Z</time>
      </trkpt>
      <trkpt lat="42.83295" lon="0.15209">
        <ele>2081</ele>
        <time>2020-07-28T08:42:58.062Z</time>
      </trkpt>
      <trkpt lat="42.83295" lon="0.15209">
        <ele>2081</ele>
        <time>2020-07-28T08:42:59.062Z</time>
      </trkpt>
      <trkpt lat="42.83295" lon="0.15209">
        <ele>2081</ele>
        <time>2020-07-28T08:43:00.062Z</time>
      </trkpt>
      <trkpt lat="42.83297" lon="0.15198">
        <ele>2083</ele>
        <time>2020-07-28T08:43:01.062Z</time>
      </trkpt>
      <trkpt lat="42.83297" lon="0.15198">
        <ele>2083</ele>
        <time>2020-07-28T08:43:02.062Z</time>
      </trkpt>
      <trkpt lat="42.83297" lon="0.15198">
        <ele>2083</ele>
        <time>2020-07-28T08:43:03.062Z</time>
      </trkpt>
      <trkpt lat="42.83297" lon="0.15185">
        <ele>2083</ele>
        <time>2020-07-28T08:43:04.062Z</time>
      </trkpt>
      <trkpt lat="42.83297" lon="0.15185">
        <ele>2083</ele>
        <time>2020-07-28T08:43:05.062Z</time>
      </trkpt>
      <trkpt lat="42.83297" lon="0.15185">
        <ele>2083</ele>
        <time>2020-07-28T08:43:06.062Z</time>
      </trkpt>
      <trkpt lat="42.83299" lon="0.15173">
        <ele>2084</ele>
        <time>2020-07-28T08:43:07.062Z</time>
      </trkpt>
      <trkpt lat="42.83299" lon="0.15173">
        <ele>2084</ele>
        <time>2020-07-28T08:43:08.062Z</time>
      </trkpt>
      <trkpt lat="42.83299" lon="0.15173">
        <ele>2084</ele>
        <time>2020-07-28T08:43:09.062Z</time>
      </trkpt>
      <trkpt lat="42.83298" lon="0.15162">
        <ele>2085</ele>
        <time>2020-07-28T08:43:10.062Z</time>
      </trkpt>
      <trkpt lat="42.83298" lon="0.15162">
        <ele>2085</ele>
        <time>2020-07-28T08:43:11.062Z</time>
      </trkpt>
      <trkpt lat="42.83298" lon="0.15162">
        <ele>2085</ele>
        <time>2020-07-28T08:43:12.062Z</time>
      </trkpt>
      <trkpt lat="42.83297" lon="0.15152">
        <ele>2084</ele>
        <time>2020-07-28T08:43:13.062Z</time>
      </trkpt>
      <trkpt lat="42.83297" lon="0.15152">
        <ele>2084</ele>
        <time>2020-07-28T08:43:14.062Z</time>
      </trkpt>
      <trkpt lat="42.83297" lon="0.15152">
        <ele>2084</ele>
        <time>2020-07-28T08:43:15.062Z</time>
      </trkpt>
      <trkpt lat="42.83294" lon="0.1514">
        <ele>2084</ele>
        <time>2020-07-28T08:43:16.062Z</time>
      </trkpt>
      <trkpt lat="42.83294" lon="0.1514">
        <ele>2084</ele>
        <time>2020-07-28T08:43:17.062Z</time>
      </trkpt>
      <trkpt lat="42.83294" lon="0.1514">
        <ele>2084</ele>
        <time>2020-07-28T08:43:18.062Z</time>
      </trkpt>
      <trkpt lat="42.83294" lon="0.15127">
        <ele>2085</ele>
        <time>2020-07-28T08:43:19.062Z</time>
      </trkpt>
      <trkpt lat="42.83294" lon="0.15127">
        <ele>2085</ele>
        <time>2020-07-28T08:43:20.062Z</time>
      </trkpt>
      <trkpt lat="42.83294" lon="0.15127">
        <ele>2085</ele>
        <time>2020-07-28T08:43:21.062Z</time>
      </trkpt>
      <trkpt lat="42.83293" lon="0.15117">
        <ele>2082</ele>
        <time>2020-07-28T08:43:22.062Z</time>
      </trkpt>
      <trkpt lat="42.83293" lon="0.15117">
        <ele>2082</ele>
        <time>2020-07-28T08:43:23.062Z</time>
      </trkpt>
      <trkpt lat="42.83293" lon="0.15117">
        <ele>2082</ele>
        <time>2020-07-28T08:43:24.062Z</time>
      </trkpt>
      <trkpt lat="42.83293" lon="0.15108">
        <ele>2083</ele>
        <time>2020-07-28T08:43:25.062Z</time>
      </trkpt>
      <trkpt lat="42.83293" lon="0.15108">
        <ele>2083</ele>
        <time>2020-07-28T08:43:26.062Z</time>
      </trkpt>
      <trkpt lat="42.83293" lon="0.15108">
        <ele>2083</ele>
        <time>2020-07-28T08:43:27.062Z</time>
      </trkpt>
      <trkpt lat="42.83295" lon="0.15101">
        <ele>2085</ele>
        <time>2020-07-28T08:43:28.062Z</time>
      </trkpt>
      <trkpt lat="42.83295" lon="0.15101">
        <ele>2085</ele>
        <time>2020-07-28T08:43:29.062Z</time>
      </trkpt>
      <trkpt lat="42.83295" lon="0.15101">
        <ele>2085</ele>
        <time>2020-07-28T08:43:30.062Z</time>
      </trkpt>
      <trkpt lat="42.83297" lon="0.15096">
        <ele>2085</ele>
        <time>2020-07-28T08:43:31.062Z</time>
      </trkpt>
      <trkpt lat="42.83297" lon="0.15096">
        <ele>2085</ele>
        <time>2020-07-28T08:43:32.062Z</time>
      </trkpt>
      <trkpt lat="42.83297" lon="0.15096">
        <ele>2085</ele>
        <time>2020-07-28T08:43:33.062Z</time>
      </trkpt>
      <trkpt lat="42.833" lon="0.1509">
        <ele>2086</ele>
        <time>2020-07-28T08:43:34.062Z</time>
      </trkpt>
      <trkpt lat="42.833" lon="0.1509">
        <ele>2086</ele>
        <time>2020-07-28T08:43:35.062Z</time>
      </trkpt>
      <trkpt lat="42.833" lon="0.1509">
        <ele>2086</ele>
        <time>2020-07-28T08:43:36.062Z</time>
      </trkpt>
      <trkpt lat="42.83301" lon="0.15084">
        <ele>2084</ele>
        <time>2020-07-28T08:43:37.062Z</time>
      </trkpt>
      <trkpt lat="42.83301" lon="0.15084">
        <ele>2084</ele>
        <time>2020-07-28T08:43:38.062Z</time>
      </trkpt>
      <trkpt lat="42.83301" lon="0.15084">
        <ele>2084</ele>
        <time>2020-07-28T08:43:39.062Z</time>
      </trkpt>
      <trkpt lat="42.83301" lon="0.15075">
        <ele>2085</ele>
        <time>2020-07-28T08:43:40.062Z</time>
      </trkpt>
      <trkpt lat="42.83301" lon="0.15075">
        <ele>2085</ele>
        <time>2020-07-28T08:43:41.062Z</time>
      </trkpt>
      <trkpt lat="42.83301" lon="0.15075">
        <ele>2085</ele>
        <time>2020-07-28T08:43:42.062Z</time>
      </trkpt>
      <trkpt lat="42.83301" lon="0.15065">
        <ele>2085</ele>
        <time>2020-07-28T08:43:43.062Z</time>
      </trkpt>
      <trkpt lat="42.83301" lon="0.15065">
        <ele>2085</ele>
        <time>2020-07-28T08:43:44.062Z</time>
      </trkpt>
      <trkpt lat="42.83301" lon="0.15065">
        <ele>2085</ele>
        <time>2020-07-28T08:43:45.062Z</time>
      </trkpt>
      <trkpt lat="42.83301" lon="0.15057">
        <ele>2085</ele>
        <time>2020-07-28T08:43:46.062Z</time>
      </trkpt>
      <trkpt lat="42.83301" lon="0.15057">
        <ele>2085</ele>
        <time>2020-07-28T08:43:47.062Z</time>
      </trkpt>
      <trkpt lat="42.83301" lon="0.15057">
        <ele>2085</ele>
        <time>2020-07-28T08:43:48.062Z</time>
      </trkpt>
      <trkpt lat="42.83304" lon="0.15048">
        <ele>2085</ele>
        <time>2020-07-28T08:43:49.062Z</time>
      </trkpt>
      <trkpt lat="42.83304" lon="0.15048">
        <ele>2085</ele>
        <time>2020-07-28T08:43:50.062Z</time>
      </trkpt>
      <trkpt lat="42.83304" lon="0.15048">
        <ele>2085</ele>
        <time>2020-07-28T08:43:51.062Z</time>
      </trkpt>
      <trkpt lat="42.83306" lon="0.1504">
        <ele>2085</ele>
        <time>2020-07-28T08:43:52.062Z</time>
      </trkpt>
      <trkpt lat="42.83306" lon="0.1504">
        <ele>2085</ele>
        <time>2020-07-28T08:43:53.062Z</time>
      </trkpt>
      <trkpt lat="42.83306" lon="0.1504">
        <ele>2085</ele>
        <time>2020-07-28T08:43:54.062Z</time>
      </trkpt>
      <trkpt lat="42.83306" lon="0.15034">
        <ele>2086</ele>
        <time>2020-07-28T08:43:55.062Z</time>
      </trkpt>
      <trkpt lat="42.83306" lon="0.15034">
        <ele>2086</ele>
        <time>2020-07-28T08:43:56.062Z</time>
      </trkpt>
      <trkpt lat="42.83306" lon="0.15034">
        <ele>2086</ele>
        <time>2020-07-28T08:43:57.062Z</time>
      </trkpt>
      <trkpt lat="42.83306" lon="0.15027">
        <ele>2089</ele>
        <time>2020-07-28T08:43:58.062Z</time>
      </trkpt>
      <trkpt lat="42.83312" lon="0.15017">
        <ele>2086</ele>
        <time>2020-07-28T08:43:59.066Z</time>
      </trkpt>
      <trkpt lat="42.83314" lon="0.15017">
        <ele>2084</ele>
        <time>2020-07-28T08:44:00.066Z</time>
      </trkpt>
      <trkpt lat="42.83314" lon="0.15017">
        <ele>2084</ele>
        <time>2020-07-28T08:44:01.066Z</time>
      </trkpt>
      <trkpt lat="42.83314" lon="0.15017">
        <ele>2084</ele>
        <time>2020-07-28T08:44:02.066Z</time>
      </trkpt>
      <trkpt lat="42.83315" lon="0.15014">
        <ele>2084</ele>
        <time>2020-07-28T08:44:03.066Z</time>
      </trkpt>
      <trkpt lat="42.83315" lon="0.15014">
        <ele>2084</ele>
        <time>2020-07-28T08:44:04.066Z</time>
      </trkpt>
      <trkpt lat="42.83315" lon="0.15014">
        <ele>2084</ele>
        <time>2020-07-28T08:44:05.066Z</time>
      </trkpt>
      <trkpt lat="42.83317" lon="0.15011">
        <ele>2084</ele>
        <time>2020-07-28T08:44:06.066Z</time>
      </trkpt>
      <trkpt lat="42.83317" lon="0.15011">
        <ele>2084</ele>
        <time>2020-07-28T08:44:07.066Z</time>
      </trkpt>
      <trkpt lat="42.83317" lon="0.15011">
        <ele>2084</ele>
        <time>2020-07-28T08:44:08.066Z</time>
      </trkpt>
      <trkpt lat="42.83317" lon="0.15009">
        <ele>2084</ele>
        <time>2020-07-28T08:44:09.066Z</time>
      </trkpt>
      <trkpt lat="42.83317" lon="0.15009">
        <ele>2084</ele>
        <time>2020-07-28T08:44:10.066Z</time>
      </trkpt>
      <trkpt lat="42.83317" lon="0.15009">
        <ele>2084</ele>
        <time>2020-07-28T08:44:11.066Z</time>
      </trkpt>
      <trkpt lat="42.83318" lon="0.15007">
        <ele>2084</ele>
        <time>2020-07-28T08:44:12.066Z</time>
      </trkpt>
      <trkpt lat="42.83318" lon="0.15007">
        <ele>2084</ele>
        <time>2020-07-28T08:44:13.066Z</time>
      </trkpt>
      <trkpt lat="42.83318" lon="0.15007">
        <ele>2084</ele>
        <time>2020-07-28T08:44:14.066Z</time>
      </trkpt>
      <trkpt lat="42.83319" lon="0.15005">
        <ele>2083</ele>
        <time>2020-07-28T08:44:15.066Z</time>
      </trkpt>
      <trkpt lat="42.83319" lon="0.15005">
        <ele>2083</ele>
        <time>2020-07-28T08:44:16.066Z</time>
      </trkpt>
      <trkpt lat="42.83319" lon="0.15005">
        <ele>2083</ele>
        <time>2020-07-28T08:44:17.066Z</time>
      </trkpt>
      <trkpt lat="42.83321" lon="0.14999">
        <ele>2081</ele>
        <time>2020-07-28T08:44:18.066Z</time>
      </trkpt>
      <trkpt lat="42.83321" lon="0.14999">
        <ele>2081</ele>
        <time>2020-07-28T08:44:19.066Z</time>
      </trkpt>
      <trkpt lat="42.83321" lon="0.14999">
        <ele>2081</ele>
        <time>2020-07-28T08:44:20.066Z</time>
      </trkpt>
      <trkpt lat="42.83323" lon="0.14992">
        <ele>2081</ele>
        <time>2020-07-28T08:44:21.066Z</time>
      </trkpt>
      <trkpt lat="42.83323" lon="0.14992">
        <ele>2081</ele>
        <time>2020-07-28T08:44:22.066Z</time>
      </trkpt>
      <trkpt lat="42.83323" lon="0.14992">
        <ele>2081</ele>
        <time>2020-07-28T08:44:23.066Z</time>
      </trkpt>
      <trkpt lat="42.83326" lon="0.14987">
        <ele>2083</ele>
        <time>2020-07-28T08:44:24.066Z</time>
      </trkpt>
      <trkpt lat="42.83326" lon="0.14987">
        <ele>2083</ele>
        <time>2020-07-28T08:44:25.066Z</time>
      </trkpt>
      <trkpt lat="42.83326" lon="0.14987">
        <ele>2083</ele>
        <time>2020-07-28T08:44:26.066Z</time>
      </trkpt>
      <trkpt lat="42.83329" lon="0.14979">
        <ele>2083</ele>
        <time>2020-07-28T08:44:27.066Z</time>
      </trkpt>
      <trkpt lat="42.83329" lon="0.14979">
        <ele>2083</ele>
        <time>2020-07-28T08:44:28.066Z</time>
      </trkpt>
      <trkpt lat="42.83329" lon="0.14979">
        <ele>2083</ele>
        <time>2020-07-28T08:44:29.066Z</time>
      </trkpt>
      <trkpt lat="42.83332" lon="0.14972">
        <ele>2085</ele>
        <time>2020-07-28T08:44:30.066Z</time>
      </trkpt>
      <trkpt lat="42.83332" lon="0.14972">
        <ele>2085</ele>
        <time>2020-07-28T08:44:31.066Z</time>
      </trkpt>
      <trkpt lat="42.83332" lon="0.14972">
        <ele>2085</ele>
        <time>2020-07-28T08:44:32.066Z</time>
      </trkpt>
      <trkpt lat="42.83334" lon="0.14964">
        <ele>2084</ele>
        <time>2020-07-28T08:44:33.066Z</time>
      </trkpt>
      <trkpt lat="42.83334" lon="0.14964">
        <ele>2084</ele>
        <time>2020-07-28T08:44:34.066Z</time>
      </trkpt>
      <trkpt lat="42.83334" lon="0.14964">
        <ele>2084</ele>
        <time>2020-07-28T08:44:35.066Z</time>
      </trkpt>
      <trkpt lat="42.83338" lon="0.14959">
        <ele>2084</ele>
        <time>2020-07-28T08:44:36.066Z</time>
      </trkpt>
      <trkpt lat="42.83338" lon="0.14959">
        <ele>2084</ele>
        <time>2020-07-28T08:44:37.066Z</time>
      </trkpt>
      <trkpt lat="42.83338" lon="0.14959">
        <ele>2084</ele>
        <time>2020-07-28T08:44:38.066Z</time>
      </trkpt>
      <trkpt lat="42.83344" lon="0.14952">
        <ele>2083</ele>
        <time>2020-07-28T08:44:39.066Z</time>
      </trkpt>
      <trkpt lat="42.83344" lon="0.14952">
        <ele>2083</ele>
        <time>2020-07-28T08:44:40.066Z</time>
      </trkpt>
      <trkpt lat="42.83344" lon="0.14952">
        <ele>2083</ele>
        <time>2020-07-28T08:44:41.066Z</time>
      </trkpt>
      <trkpt lat="42.83348" lon="0.14948">
        <ele>2082</ele>
        <time>2020-07-28T08:44:42.066Z</time>
      </trkpt>
      <trkpt lat="42.83348" lon="0.14948">
        <ele>2082</ele>
        <time>2020-07-28T08:44:43.066Z</time>
      </trkpt>
      <trkpt lat="42.83348" lon="0.14948">
        <ele>2082</ele>
        <time>2020-07-28T08:44:44.066Z</time>
      </trkpt>
      <trkpt lat="42.83351" lon="0.14941">
        <ele>2081</ele>
        <time>2020-07-28T08:44:45.066Z</time>
      </trkpt>
      <trkpt lat="42.83351" lon="0.14941">
        <ele>2081</ele>
        <time>2020-07-28T08:44:46.066Z</time>
      </trkpt>
      <trkpt lat="42.83351" lon="0.14941">
        <ele>2081</ele>
        <time>2020-07-28T08:44:47.066Z</time>
      </trkpt>
      <trkpt lat="42.83356" lon="0.14937">
        <ele>2079</ele>
        <time>2020-07-28T08:44:48.066Z</time>
      </trkpt>
      <trkpt lat="42.83356" lon="0.14937">
        <ele>2079</ele>
        <time>2020-07-28T08:44:49.066Z</time>
      </trkpt>
      <trkpt lat="42.83356" lon="0.14937">
        <ele>2079</ele>
        <time>2020-07-28T08:44:50.066Z</time>
      </trkpt>
      <trkpt lat="42.8336" lon="0.14933">
        <ele>2079</ele>
        <time>2020-07-28T08:44:51.066Z</time>
      </trkpt>
      <trkpt lat="42.8336" lon="0.14933">
        <ele>2079</ele>
        <time>2020-07-28T08:44:52.066Z</time>
      </trkpt>
      <trkpt lat="42.8336" lon="0.14933">
        <ele>2079</ele>
        <time>2020-07-28T08:44:53.066Z</time>
      </trkpt>
      <trkpt lat="42.83362" lon="0.14929">
        <ele>2080</ele>
        <time>2020-07-28T08:44:54.066Z</time>
      </trkpt>
      <trkpt lat="42.83362" lon="0.14929">
        <ele>2080</ele>
        <time>2020-07-28T08:44:55.066Z</time>
      </trkpt>
      <trkpt lat="42.83362" lon="0.14929">
        <ele>2080</ele>
        <time>2020-07-28T08:44:56.066Z</time>
      </trkpt>
      <trkpt lat="42.83364" lon="0.14925">
        <ele>2080</ele>
        <time>2020-07-28T08:44:57.066Z</time>
      </trkpt>
      <trkpt lat="42.83364" lon="0.14925">
        <ele>2080</ele>
        <time>2020-07-28T08:44:58.066Z</time>
      </trkpt>
      <trkpt lat="42.83364" lon="0.14925">
        <ele>2080</ele>
        <time>2020-07-28T08:44:59.066Z</time>
      </trkpt>
      <trkpt lat="42.83367" lon="0.14921">
        <ele>2080</ele>
        <time>2020-07-28T08:45:00.066Z</time>
      </trkpt>
      <trkpt lat="42.83367" lon="0.14921">
        <ele>2080</ele>
        <time>2020-07-28T08:45:01.066Z</time>
      </trkpt>
      <trkpt lat="42.83367" lon="0.14921">
        <ele>2080</ele>
        <time>2020-07-28T08:45:02.066Z</time>
      </trkpt>
      <trkpt lat="42.83369" lon="0.14915">
        <ele>2078</ele>
        <time>2020-07-28T08:45:03.066Z</time>
      </trkpt>
      <trkpt lat="42.83369" lon="0.14915">
        <ele>2078</ele>
        <time>2020-07-28T08:45:04.066Z</time>
      </trkpt>
      <trkpt lat="42.83369" lon="0.14915">
        <ele>2078</ele>
        <time>2020-07-28T08:45:05.066Z</time>
      </trkpt>
      <trkpt lat="42.83374" lon="0.14908">
        <ele>2074</ele>
        <time>2020-07-28T08:45:06.066Z</time>
      </trkpt>
      <trkpt lat="42.83374" lon="0.14908">
        <ele>2074</ele>
        <time>2020-07-28T08:45:07.066Z</time>
      </trkpt>
      <trkpt lat="42.83374" lon="0.14908">
        <ele>2074</ele>
        <time>2020-07-28T08:45:08.066Z</time>
      </trkpt>
      <trkpt lat="42.8338" lon="0.14901">
        <ele>2071</ele>
        <time>2020-07-28T08:45:09.066Z</time>
      </trkpt>
      <trkpt lat="42.8338" lon="0.14901">
        <ele>2071</ele>
        <time>2020-07-28T08:45:10.066Z</time>
      </trkpt>
      <trkpt lat="42.8338" lon="0.14901">
        <ele>2071</ele>
        <time>2020-07-28T08:45:11.066Z</time>
      </trkpt>
      <trkpt lat="42.83386" lon="0.14895">
        <ele>2073</ele>
        <time>2020-07-28T08:45:12.066Z</time>
      </trkpt>
      <trkpt lat="42.83386" lon="0.14895">
        <ele>2073</ele>
        <time>2020-07-28T08:45:13.066Z</time>
      </trkpt>
      <trkpt lat="42.83386" lon="0.14895">
        <ele>2073</ele>
        <time>2020-07-28T08:45:14.066Z</time>
      </trkpt>
      <trkpt lat="42.8339" lon="0.14893">
        <ele>2074</ele>
        <time>2020-07-28T08:45:15.066Z</time>
      </trkpt>
      <trkpt lat="42.8339" lon="0.14893">
        <ele>2074</ele>
        <time>2020-07-28T08:45:16.066Z</time>
      </trkpt>
      <trkpt lat="42.8339" lon="0.14893">
        <ele>2074</ele>
        <time>2020-07-28T08:45:17.066Z</time>
      </trkpt>
      <trkpt lat="42.83395" lon="0.14887">
        <ele>2081</ele>
        <time>2020-07-28T08:45:18.066Z</time>
      </trkpt>
      <trkpt lat="42.83395" lon="0.14887">
        <ele>2081</ele>
        <time>2020-07-28T08:45:19.066Z</time>
      </trkpt>
      <trkpt lat="42.83395" lon="0.14887">
        <ele>2081</ele>
        <time>2020-07-28T08:45:20.066Z</time>
      </trkpt>
      <trkpt lat="42.83399" lon="0.14879">
        <ele>2083</ele>
        <time>2020-07-28T08:45:21.066Z</time>
      </trkpt>
      <trkpt lat="42.83399" lon="0.14879">
        <ele>2083</ele>
        <time>2020-07-28T08:45:22.066Z</time>
      </trkpt>
      <trkpt lat="42.83399" lon="0.14879">
        <ele>2083</ele>
        <time>2020-07-28T08:45:23.066Z</time>
      </trkpt>
      <trkpt lat="42.83405" lon="0.14877">
        <ele>2084</ele>
        <time>2020-07-28T08:45:24.066Z</time>
      </trkpt>
      <trkpt lat="42.83405" lon="0.14877">
        <ele>2084</ele>
        <time>2020-07-28T08:45:25.066Z</time>
      </trkpt>
      <trkpt lat="42.83405" lon="0.14877">
        <ele>2084</ele>
        <time>2020-07-28T08:45:26.066Z</time>
      </trkpt>
      <trkpt lat="42.83409" lon="0.14871">
        <ele>2084</ele>
        <time>2020-07-28T08:45:27.066Z</time>
      </trkpt>
      <trkpt lat="42.83409" lon="0.14871">
        <ele>2084</ele>
        <time>2020-07-28T08:45:28.066Z</time>
      </trkpt>
      <trkpt lat="42.83409" lon="0.14871">
        <ele>2084</ele>
        <time>2020-07-28T08:45:29.066Z</time>
      </trkpt>
      <trkpt lat="42.83412" lon="0.14868">
        <ele>2086</ele>
        <time>2020-07-28T08:45:30.066Z</time>
      </trkpt>
      <trkpt lat="42.83412" lon="0.14868">
        <ele>2086</ele>
        <time>2020-07-28T08:45:31.066Z</time>
      </trkpt>
      <trkpt lat="42.83412" lon="0.14868">
        <ele>2086</ele>
        <time>2020-07-28T08:45:32.066Z</time>
      </trkpt>
      <trkpt lat="42.83413" lon="0.14865">
        <ele>2086</ele>
        <time>2020-07-28T08:45:33.066Z</time>
      </trkpt>
      <trkpt lat="42.83413" lon="0.14865">
        <ele>2086</ele>
        <time>2020-07-28T08:45:34.066Z</time>
      </trkpt>
      <trkpt lat="42.83413" lon="0.14865">
        <ele>2086</ele>
        <time>2020-07-28T08:45:35.066Z</time>
      </trkpt>
      <trkpt lat="42.83417" lon="0.14862">
        <ele>2085</ele>
        <time>2020-07-28T08:45:36.066Z</time>
      </trkpt>
      <trkpt lat="42.83417" lon="0.14862">
        <ele>2085</ele>
        <time>2020-07-28T08:45:37.066Z</time>
      </trkpt>
      <trkpt lat="42.83417" lon="0.14862">
        <ele>2085</ele>
        <time>2020-07-28T08:45:38.066Z</time>
      </trkpt>
      <trkpt lat="42.83421" lon="0.14854">
        <ele>2088</ele>
        <time>2020-07-28T08:45:39.066Z</time>
      </trkpt>
      <trkpt lat="42.83421" lon="0.14854">
        <ele>2088</ele>
        <time>2020-07-28T08:45:40.066Z</time>
      </trkpt>
      <trkpt lat="42.83421" lon="0.14854">
        <ele>2088</ele>
        <time>2020-07-28T08:45:41.066Z</time>
      </trkpt>
      <trkpt lat="42.83425" lon="0.14845">
        <ele>2088</ele>
        <time>2020-07-28T08:45:42.066Z</time>
      </trkpt>
      <trkpt lat="42.83425" lon="0.14845">
        <ele>2088</ele>
        <time>2020-07-28T08:45:43.066Z</time>
      </trkpt>
      <trkpt lat="42.83425" lon="0.14845">
        <ele>2088</ele>
        <time>2020-07-28T08:45:44.066Z</time>
      </trkpt>
      <trkpt lat="42.8343" lon="0.1484">
        <ele>2089</ele>
        <time>2020-07-28T08:45:45.066Z</time>
      </trkpt>
      <trkpt lat="42.8343" lon="0.1484">
        <ele>2089</ele>
        <time>2020-07-28T08:45:46.066Z</time>
      </trkpt>
      <trkpt lat="42.8343" lon="0.1484">
        <ele>2089</ele>
        <time>2020-07-28T08:45:47.066Z</time>
      </trkpt>
      <trkpt lat="42.83435" lon="0.14837">
        <ele>2089</ele>
        <time>2020-07-28T08:45:48.066Z</time>
      </trkpt>
      <trkpt lat="42.83435" lon="0.14837">
        <ele>2089</ele>
        <time>2020-07-28T08:45:49.066Z</time>
      </trkpt>
      <trkpt lat="42.83435" lon="0.14837">
        <ele>2089</ele>
        <time>2020-07-28T08:45:50.066Z</time>
      </trkpt>
      <trkpt lat="42.83441" lon="0.14834">
        <ele>2088</ele>
        <time>2020-07-28T08:45:51.066Z</time>
      </trkpt>
      <trkpt lat="42.83441" lon="0.14834">
        <ele>2088</ele>
        <time>2020-07-28T08:45:52.066Z</time>
      </trkpt>
      <trkpt lat="42.83441" lon="0.14834">
        <ele>2088</ele>
        <time>2020-07-28T08:45:53.066Z</time>
      </trkpt>
      <trkpt lat="42.83446" lon="0.14828">
        <ele>2088</ele>
        <time>2020-07-28T08:45:54.066Z</time>
      </trkpt>
      <trkpt lat="42.83446" lon="0.14828">
        <ele>2088</ele>
        <time>2020-07-28T08:45:55.066Z</time>
      </trkpt>
      <trkpt lat="42.83446" lon="0.14828">
        <ele>2088</ele>
        <time>2020-07-28T08:45:56.066Z</time>
      </trkpt>
      <trkpt lat="42.83451" lon="0.14824">
        <ele>2087</ele>
        <time>2020-07-28T08:45:57.066Z</time>
      </trkpt>
      <trkpt lat="42.83451" lon="0.14824">
        <ele>2087</ele>
        <time>2020-07-28T08:45:58.066Z</time>
      </trkpt>
      <trkpt lat="42.83451" lon="0.14824">
        <ele>2087</ele>
        <time>2020-07-28T08:45:59.066Z</time>
      </trkpt>
      <trkpt lat="42.83455" lon="0.14817">
        <ele>2086</ele>
        <time>2020-07-28T08:46:00.066Z</time>
      </trkpt>
      <trkpt lat="42.83455" lon="0.14817">
        <ele>2086</ele>
        <time>2020-07-28T08:46:01.066Z</time>
      </trkpt>
      <trkpt lat="42.83455" lon="0.14817">
        <ele>2086</ele>
        <time>2020-07-28T08:46:02.066Z</time>
      </trkpt>
      <trkpt lat="42.83461" lon="0.14813">
        <ele>2080</ele>
        <time>2020-07-28T08:46:03.066Z</time>
      </trkpt>
      <trkpt lat="42.83461" lon="0.14813">
        <ele>2080</ele>
        <time>2020-07-28T08:46:04.066Z</time>
      </trkpt>
      <trkpt lat="42.83461" lon="0.14813">
        <ele>2080</ele>
        <time>2020-07-28T08:46:05.066Z</time>
      </trkpt>
      <trkpt lat="42.83467" lon="0.14808">
        <ele>2081</ele>
        <time>2020-07-28T08:46:06.066Z</time>
      </trkpt>
      <trkpt lat="42.83467" lon="0.14808">
        <ele>2081</ele>
        <time>2020-07-28T08:46:07.066Z</time>
      </trkpt>
      <trkpt lat="42.83467" lon="0.14808">
        <ele>2081</ele>
        <time>2020-07-28T08:46:08.066Z</time>
      </trkpt>
      <trkpt lat="42.83471" lon="0.14799">
        <ele>2085</ele>
        <time>2020-07-28T08:46:09.066Z</time>
      </trkpt>
      <trkpt lat="42.83471" lon="0.14799">
        <ele>2085</ele>
        <time>2020-07-28T08:46:10.066Z</time>
      </trkpt>
      <trkpt lat="42.83471" lon="0.14799">
        <ele>2085</ele>
        <time>2020-07-28T08:46:11.066Z</time>
      </trkpt>
      <trkpt lat="42.83475" lon="0.14794">
        <ele>2084</ele>
        <time>2020-07-28T08:46:12.066Z</time>
      </trkpt>
      <trkpt lat="42.83475" lon="0.14794">
        <ele>2084</ele>
        <time>2020-07-28T08:46:13.066Z</time>
      </trkpt>
      <trkpt lat="42.83475" lon="0.14794">
        <ele>2084</ele>
        <time>2020-07-28T08:46:14.066Z</time>
      </trkpt>
      <trkpt lat="42.83481" lon="0.14788">
        <ele>2085</ele>
        <time>2020-07-28T08:46:15.066Z</time>
      </trkpt>
      <trkpt lat="42.83481" lon="0.14788">
        <ele>2085</ele>
        <time>2020-07-28T08:46:16.066Z</time>
      </trkpt>
      <trkpt lat="42.83481" lon="0.14788">
        <ele>2085</ele>
        <time>2020-07-28T08:46:17.066Z</time>
      </trkpt>
      <trkpt lat="42.83485" lon="0.14781">
        <ele>2086</ele>
        <time>2020-07-28T08:46:18.066Z</time>
      </trkpt>
      <trkpt lat="42.83485" lon="0.14781">
        <ele>2086</ele>
        <time>2020-07-28T08:46:19.066Z</time>
      </trkpt>
      <trkpt lat="42.83485" lon="0.14781">
        <ele>2086</ele>
        <time>2020-07-28T08:46:20.066Z</time>
      </trkpt>
      <trkpt lat="42.8349" lon="0.14779">
        <ele>2087</ele>
        <time>2020-07-28T08:46:21.066Z</time>
      </trkpt>
      <trkpt lat="42.8349" lon="0.14779">
        <ele>2087</ele>
        <time>2020-07-28T08:46:22.066Z</time>
      </trkpt>
      <trkpt lat="42.8349" lon="0.14779">
        <ele>2087</ele>
        <time>2020-07-28T08:46:23.066Z</time>
      </trkpt>
      <trkpt lat="42.83494" lon="0.14777">
        <ele>2087</ele>
        <time>2020-07-28T08:46:24.066Z</time>
      </trkpt>
      <trkpt lat="42.83494" lon="0.14777">
        <ele>2087</ele>
        <time>2020-07-28T08:46:25.066Z</time>
      </trkpt>
      <trkpt lat="42.83494" lon="0.14777">
        <ele>2087</ele>
        <time>2020-07-28T08:46:26.066Z</time>
      </trkpt>
      <trkpt lat="42.83499" lon="0.14775">
        <ele>2087</ele>
        <time>2020-07-28T08:46:27.066Z</time>
      </trkpt>
      <trkpt lat="42.83499" lon="0.14775">
        <ele>2087</ele>
        <time>2020-07-28T08:46:28.066Z</time>
      </trkpt>
      <trkpt lat="42.83499" lon="0.14775">
        <ele>2087</ele>
        <time>2020-07-28T08:46:29.066Z</time>
      </trkpt>
      <trkpt lat="42.83503" lon="0.14771">
        <ele>2086</ele>
        <time>2020-07-28T08:46:30.066Z</time>
      </trkpt>
      <trkpt lat="42.83503" lon="0.14771">
        <ele>2086</ele>
        <time>2020-07-28T08:46:31.066Z</time>
      </trkpt>
      <trkpt lat="42.83503" lon="0.14771">
        <ele>2086</ele>
        <time>2020-07-28T08:46:32.066Z</time>
      </trkpt>
      <trkpt lat="42.83508" lon="0.14768">
        <ele>2083</ele>
        <time>2020-07-28T08:46:33.066Z</time>
      </trkpt>
      <trkpt lat="42.83508" lon="0.14768">
        <ele>2083</ele>
        <time>2020-07-28T08:46:34.066Z</time>
      </trkpt>
      <trkpt lat="42.83508" lon="0.14768">
        <ele>2083</ele>
        <time>2020-07-28T08:46:35.066Z</time>
      </trkpt>
      <trkpt lat="42.83512" lon="0.14765">
        <ele>2084</ele>
        <time>2020-07-28T08:46:36.066Z</time>
      </trkpt>
      <trkpt lat="42.83512" lon="0.14765">
        <ele>2084</ele>
        <time>2020-07-28T08:46:37.066Z</time>
      </trkpt>
      <trkpt lat="42.83512" lon="0.14765">
        <ele>2084</ele>
        <time>2020-07-28T08:46:38.066Z</time>
      </trkpt>
      <trkpt lat="42.83515" lon="0.14764">
        <ele>2086</ele>
        <time>2020-07-28T08:46:39.066Z</time>
      </trkpt>
      <trkpt lat="42.83515" lon="0.14764">
        <ele>2086</ele>
        <time>2020-07-28T08:46:40.066Z</time>
      </trkpt>
      <trkpt lat="42.83515" lon="0.14764">
        <ele>2086</ele>
        <time>2020-07-28T08:46:41.066Z</time>
      </trkpt>
      <trkpt lat="42.83516" lon="0.14761">
        <ele>2085</ele>
        <time>2020-07-28T08:46:42.066Z</time>
      </trkpt>
      <trkpt lat="42.83516" lon="0.14761">
        <ele>2085</ele>
        <time>2020-07-28T08:46:43.066Z</time>
      </trkpt>
      <trkpt lat="42.83516" lon="0.14761">
        <ele>2085</ele>
        <time>2020-07-28T08:46:44.066Z</time>
      </trkpt>
      <trkpt lat="42.8352" lon="0.14757">
        <ele>2084</ele>
        <time>2020-07-28T08:46:45.066Z</time>
      </trkpt>
      <trkpt lat="42.8352" lon="0.14757">
        <ele>2084</ele>
        <time>2020-07-28T08:46:46.066Z</time>
      </trkpt>
      <trkpt lat="42.8352" lon="0.14757">
        <ele>2084</ele>
        <time>2020-07-28T08:46:47.066Z</time>
      </trkpt>
      <trkpt lat="42.83524" lon="0.14753">
        <ele>2086</ele>
        <time>2020-07-28T08:46:48.066Z</time>
      </trkpt>
      <trkpt lat="42.83524" lon="0.14753">
        <ele>2086</ele>
        <time>2020-07-28T08:46:49.066Z</time>
      </trkpt>
      <trkpt lat="42.83524" lon="0.14753">
        <ele>2086</ele>
        <time>2020-07-28T08:46:50.066Z</time>
      </trkpt>
      <trkpt lat="42.83528" lon="0.1475">
        <ele>2088</ele>
        <time>2020-07-28T08:46:51.066Z</time>
      </trkpt>
      <trkpt lat="42.83528" lon="0.1475">
        <ele>2088</ele>
        <time>2020-07-28T08:46:52.066Z</time>
      </trkpt>
      <trkpt lat="42.83528" lon="0.1475">
        <ele>2088</ele>
        <time>2020-07-28T08:46:53.066Z</time>
      </trkpt>
      <trkpt lat="42.83527" lon="0.14748">
        <ele>2088</ele>
        <time>2020-07-28T08:46:54.066Z</time>
      </trkpt>
      <trkpt lat="42.83527" lon="0.14748">
        <ele>2088</ele>
        <time>2020-07-28T08:46:55.066Z</time>
      </trkpt>
      <trkpt lat="42.83527" lon="0.14748">
        <ele>2088</ele>
        <time>2020-07-28T08:46:56.066Z</time>
      </trkpt>
      <trkpt lat="42.83528" lon="0.14743">
        <ele>2084</ele>
        <time>2020-07-28T08:46:57.066Z</time>
      </trkpt>
      <trkpt lat="42.83528" lon="0.14743">
        <ele>2084</ele>
        <time>2020-07-28T08:46:58.066Z</time>
      </trkpt>
      <trkpt lat="42.83528" lon="0.14743">
        <ele>2084</ele>
        <time>2020-07-28T08:46:59.066Z</time>
      </trkpt>
      <trkpt lat="42.83531" lon="0.14737">
        <ele>2078</ele>
        <time>2020-07-28T08:47:00.066Z</time>
      </trkpt>
      <trkpt lat="42.83531" lon="0.14737">
        <ele>2078</ele>
        <time>2020-07-28T08:47:01.066Z</time>
      </trkpt>
      <trkpt lat="42.83531" lon="0.14737">
        <ele>2078</ele>
        <time>2020-07-28T08:47:02.066Z</time>
      </trkpt>
      <trkpt lat="42.83538" lon="0.14729">
        <ele>2077</ele>
        <time>2020-07-28T08:47:03.066Z</time>
      </trkpt>
      <trkpt lat="42.83538" lon="0.14729">
        <ele>2077</ele>
        <time>2020-07-28T08:47:04.066Z</time>
      </trkpt>
      <trkpt lat="42.83538" lon="0.14729">
        <ele>2077</ele>
        <time>2020-07-28T08:47:05.066Z</time>
      </trkpt>
      <trkpt lat="42.83544" lon="0.1472">
        <ele>2078</ele>
        <time>2020-07-28T08:47:06.066Z</time>
      </trkpt>
      <trkpt lat="42.83544" lon="0.1472">
        <ele>2078</ele>
        <time>2020-07-28T08:47:07.066Z</time>
      </trkpt>
      <trkpt lat="42.83544" lon="0.1472">
        <ele>2078</ele>
        <time>2020-07-28T08:47:08.066Z</time>
      </trkpt>
      <trkpt lat="42.8355" lon="0.14712">
        <ele>2077</ele>
        <time>2020-07-28T08:47:09.066Z</time>
      </trkpt>
      <trkpt lat="42.8355" lon="0.14712">
        <ele>2077</ele>
        <time>2020-07-28T08:47:10.066Z</time>
      </trkpt>
      <trkpt lat="42.8355" lon="0.14712">
        <ele>2077</ele>
        <time>2020-07-28T08:47:11.066Z</time>
      </trkpt>
      <trkpt lat="42.83557" lon="0.14703">
        <ele>2079</ele>
        <time>2020-07-28T08:47:12.066Z</time>
      </trkpt>
      <trkpt lat="42.83557" lon="0.14703">
        <ele>2079</ele>
        <time>2020-07-28T08:47:13.066Z</time>
      </trkpt>
      <trkpt lat="42.83557" lon="0.14703">
        <ele>2079</ele>
        <time>2020-07-28T08:47:14.066Z</time>
      </trkpt>
      <trkpt lat="42.83562" lon="0.14696">
        <ele>2080</ele>
        <time>2020-07-28T08:47:15.066Z</time>
      </trkpt>
      <trkpt lat="42.83562" lon="0.14696">
        <ele>2080</ele>
        <time>2020-07-28T08:47:16.066Z</time>
      </trkpt>
      <trkpt lat="42.83562" lon="0.14696">
        <ele>2080</ele>
        <time>2020-07-28T08:47:17.066Z</time>
      </trkpt>
      <trkpt lat="42.83566" lon="0.1469">
        <ele>2080</ele>
        <time>2020-07-28T08:47:18.066Z</time>
      </trkpt>
      <trkpt lat="42.83566" lon="0.1469">
        <ele>2080</ele>
        <time>2020-07-28T08:47:19.066Z</time>
      </trkpt>
      <trkpt lat="42.83566" lon="0.1469">
        <ele>2080</ele>
        <time>2020-07-28T08:47:20.066Z</time>
      </trkpt>
      <trkpt lat="42.8357" lon="0.14683">
        <ele>2081</ele>
        <time>2020-07-28T08:47:21.066Z</time>
      </trkpt>
      <trkpt lat="42.8357" lon="0.14683">
        <ele>2081</ele>
        <time>2020-07-28T08:47:22.066Z</time>
      </trkpt>
      <trkpt lat="42.8357" lon="0.14683">
        <ele>2081</ele>
        <time>2020-07-28T08:47:23.066Z</time>
      </trkpt>
      <trkpt lat="42.83575" lon="0.14674">
        <ele>2081</ele>
        <time>2020-07-28T08:47:24.066Z</time>
      </trkpt>
      <trkpt lat="42.83575" lon="0.14674">
        <ele>2081</ele>
        <time>2020-07-28T08:47:25.066Z</time>
      </trkpt>
      <trkpt lat="42.83575" lon="0.14674">
        <ele>2081</ele>
        <time>2020-07-28T08:47:26.066Z</time>
      </trkpt>
      <trkpt lat="42.83582" lon="0.14665">
        <ele>2080</ele>
        <time>2020-07-28T08:47:27.066Z</time>
      </trkpt>
      <trkpt lat="42.83582" lon="0.14665">
        <ele>2080</ele>
        <time>2020-07-28T08:47:28.066Z</time>
      </trkpt>
      <trkpt lat="42.83582" lon="0.14665">
        <ele>2080</ele>
        <time>2020-07-28T08:47:29.066Z</time>
      </trkpt>
      <trkpt lat="42.83587" lon="0.14658">
        <ele>2079</ele>
        <time>2020-07-28T08:47:30.066Z</time>
      </trkpt>
      <trkpt lat="42.83587" lon="0.14658">
        <ele>2079</ele>
        <time>2020-07-28T08:47:31.066Z</time>
      </trkpt>
      <trkpt lat="42.83587" lon="0.14658">
        <ele>2079</ele>
        <time>2020-07-28T08:47:32.066Z</time>
      </trkpt>
      <trkpt lat="42.83593" lon="0.1465">
        <ele>2080</ele>
        <time>2020-07-28T08:47:33.066Z</time>
      </trkpt>
      <trkpt lat="42.83593" lon="0.1465">
        <ele>2080</ele>
        <time>2020-07-28T08:47:34.066Z</time>
      </trkpt>
      <trkpt lat="42.83593" lon="0.1465">
        <ele>2080</ele>
        <time>2020-07-28T08:47:35.066Z</time>
      </trkpt>
      <trkpt lat="42.83599" lon="0.14642">
        <ele>2081</ele>
        <time>2020-07-28T08:47:36.066Z</time>
      </trkpt>
      <trkpt lat="42.83599" lon="0.14642">
        <ele>2081</ele>
        <time>2020-07-28T08:47:37.066Z</time>
      </trkpt>
      <trkpt lat="42.83599" lon="0.14642">
        <ele>2081</ele>
        <time>2020-07-28T08:47:38.066Z</time>
      </trkpt>
      <trkpt lat="42.83605" lon="0.14631">
        <ele>2083</ele>
        <time>2020-07-28T08:47:39.066Z</time>
      </trkpt>
      <trkpt lat="42.83605" lon="0.14631">
        <ele>2083</ele>
        <time>2020-07-28T08:47:40.066Z</time>
      </trkpt>
      <trkpt lat="42.83605" lon="0.14631">
        <ele>2083</ele>
        <time>2020-07-28T08:47:41.066Z</time>
      </trkpt>
      <trkpt lat="42.83611" lon="0.14621">
        <ele>2084</ele>
        <time>2020-07-28T08:47:42.066Z</time>
      </trkpt>
      <trkpt lat="42.83611" lon="0.14621">
        <ele>2084</ele>
        <time>2020-07-28T08:47:43.066Z</time>
      </trkpt>
      <trkpt lat="42.83611" lon="0.14621">
        <ele>2084</ele>
        <time>2020-07-28T08:47:44.066Z</time>
      </trkpt>
      <trkpt lat="42.83617" lon="0.14609">
        <ele>2084</ele>
        <time>2020-07-28T08:47:45.066Z</time>
      </trkpt>
      <trkpt lat="42.83617" lon="0.14609">
        <ele>2084</ele>
        <time>2020-07-28T08:47:46.066Z</time>
      </trkpt>
      <trkpt lat="42.83617" lon="0.14609">
        <ele>2084</ele>
        <time>2020-07-28T08:47:47.066Z</time>
      </trkpt>
      <trkpt lat="42.83621" lon="0.14599">
        <ele>2083</ele>
        <time>2020-07-28T08:47:48.066Z</time>
      </trkpt>
      <trkpt lat="42.83621" lon="0.14599">
        <ele>2083</ele>
        <time>2020-07-28T08:47:49.066Z</time>
      </trkpt>
      <trkpt lat="42.83621" lon="0.14599">
        <ele>2083</ele>
        <time>2020-07-28T08:47:50.066Z</time>
      </trkpt>
      <trkpt lat="42.83624" lon="0.14593">
        <ele>2086</ele>
        <time>2020-07-28T08:47:51.066Z</time>
      </trkpt>
      <trkpt lat="42.83624" lon="0.14593">
        <ele>2086</ele>
        <time>2020-07-28T08:47:52.066Z</time>
      </trkpt>
      <trkpt lat="42.83624" lon="0.14593">
        <ele>2086</ele>
        <time>2020-07-28T08:47:53.066Z</time>
      </trkpt>
      <trkpt lat="42.83627" lon="0.14589">
        <ele>2087</ele>
        <time>2020-07-28T08:47:54.066Z</time>
      </trkpt>
      <trkpt lat="42.83627" lon="0.14589">
        <ele>2087</ele>
        <time>2020-07-28T08:47:55.066Z</time>
      </trkpt>
      <trkpt lat="42.83627" lon="0.14589">
        <ele>2087</ele>
        <time>2020-07-28T08:47:56.066Z</time>
      </trkpt>
      <trkpt lat="42.83631" lon="0.14582">
        <ele>2088</ele>
        <time>2020-07-28T08:47:57.066Z</time>
      </trkpt>
      <trkpt lat="42.83631" lon="0.14582">
        <ele>2088</ele>
        <time>2020-07-28T08:47:58.066Z</time>
      </trkpt>
      <trkpt lat="42.83631" lon="0.14582">
        <ele>2088</ele>
        <time>2020-07-28T08:47:59.066Z</time>
      </trkpt>
      <trkpt lat="42.83635" lon="0.1457">
        <ele>2090</ele>
        <time>2020-07-28T08:48:00.066Z</time>
      </trkpt>
      <trkpt lat="42.83635" lon="0.1457">
        <ele>2090</ele>
        <time>2020-07-28T08:48:01.066Z</time>
      </trkpt>
      <trkpt lat="42.83635" lon="0.1457">
        <ele>2090</ele>
        <time>2020-07-28T08:48:02.066Z</time>
      </trkpt>
      <trkpt lat="42.83638" lon="0.14559">
        <ele>2091</ele>
        <time>2020-07-28T08:48:03.066Z</time>
      </trkpt>
      <trkpt lat="42.83638" lon="0.14559">
        <ele>2091</ele>
        <time>2020-07-28T08:48:04.066Z</time>
      </trkpt>
      <trkpt lat="42.83638" lon="0.14559">
        <ele>2091</ele>
        <time>2020-07-28T08:48:05.066Z</time>
      </trkpt>
      <trkpt lat="42.83638" lon="0.14548">
        <ele>2090</ele>
        <time>2020-07-28T08:48:06.066Z</time>
      </trkpt>
      <trkpt lat="42.83638" lon="0.14548">
        <ele>2090</ele>
        <time>2020-07-28T08:48:07.066Z</time>
      </trkpt>
      <trkpt lat="42.83638" lon="0.14548">
        <ele>2090</ele>
        <time>2020-07-28T08:48:08.066Z</time>
      </trkpt>
      <trkpt lat="42.8364" lon="0.1454">
        <ele>2093</ele>
        <time>2020-07-28T08:48:09.066Z</time>
      </trkpt>
      <trkpt lat="42.8364" lon="0.1454">
        <ele>2093</ele>
        <time>2020-07-28T08:48:10.066Z</time>
      </trkpt>
      <trkpt lat="42.8364" lon="0.1454">
        <ele>2093</ele>
        <time>2020-07-28T08:48:11.066Z</time>
      </trkpt>
      <trkpt lat="42.83645" lon="0.14538">
        <ele>2094</ele>
        <time>2020-07-28T08:48:12.066Z</time>
      </trkpt>
      <trkpt lat="42.83645" lon="0.14538">
        <ele>2094</ele>
        <time>2020-07-28T08:48:13.066Z</time>
      </trkpt>
      <trkpt lat="42.83645" lon="0.14538">
        <ele>2094</ele>
        <time>2020-07-28T08:48:14.066Z</time>
      </trkpt>
      <trkpt lat="42.83647" lon="0.14536">
        <ele>2095</ele>
        <time>2020-07-28T08:48:15.066Z</time>
      </trkpt>
      <trkpt lat="42.83647" lon="0.14536">
        <ele>2095</ele>
        <time>2020-07-28T08:48:16.066Z</time>
      </trkpt>
      <trkpt lat="42.83647" lon="0.14536">
        <ele>2095</ele>
        <time>2020-07-28T08:48:17.066Z</time>
      </trkpt>
      <trkpt lat="42.83649" lon="0.14533">
        <ele>2094</ele>
        <time>2020-07-28T08:48:18.066Z</time>
      </trkpt>
      <trkpt lat="42.83649" lon="0.14533">
        <ele>2094</ele>
        <time>2020-07-28T08:48:19.066Z</time>
      </trkpt>
      <trkpt lat="42.83649" lon="0.14533">
        <ele>2094</ele>
        <time>2020-07-28T08:48:20.066Z</time>
      </trkpt>
      <trkpt lat="42.83653" lon="0.14533">
        <ele>2095</ele>
        <time>2020-07-28T08:48:21.066Z</time>
      </trkpt>
      <trkpt lat="42.83653" lon="0.14533">
        <ele>2095</ele>
        <time>2020-07-28T08:48:22.066Z</time>
      </trkpt>
      <trkpt lat="42.83653" lon="0.14533">
        <ele>2095</ele>
        <time>2020-07-28T08:48:23.066Z</time>
      </trkpt>
      <trkpt lat="42.83657" lon="0.14532">
        <ele>2095</ele>
        <time>2020-07-28T08:48:24.066Z</time>
      </trkpt>
      <trkpt lat="42.83657" lon="0.14532">
        <ele>2095</ele>
        <time>2020-07-28T08:48:25.066Z</time>
      </trkpt>
      <trkpt lat="42.83657" lon="0.14532">
        <ele>2095</ele>
        <time>2020-07-28T08:48:26.066Z</time>
      </trkpt>
      <trkpt lat="42.83661" lon="0.14531">
        <ele>2093</ele>
        <time>2020-07-28T08:48:27.066Z</time>
      </trkpt>
      <trkpt lat="42.83661" lon="0.14531">
        <ele>2093</ele>
        <time>2020-07-28T08:48:28.066Z</time>
      </trkpt>
      <trkpt lat="42.83661" lon="0.14531">
        <ele>2093</ele>
        <time>2020-07-28T08:48:29.066Z</time>
      </trkpt>
      <trkpt lat="42.83664" lon="0.14529">
        <ele>2094</ele>
        <time>2020-07-28T08:48:30.066Z</time>
      </trkpt>
      <trkpt lat="42.83664" lon="0.14529">
        <ele>2094</ele>
        <time>2020-07-28T08:48:31.066Z</time>
      </trkpt>
      <trkpt lat="42.83664" lon="0.14529">
        <ele>2094</ele>
        <time>2020-07-28T08:48:32.066Z</time>
      </trkpt>
      <trkpt lat="42.83669" lon="0.14528">
        <ele>2094</ele>
        <time>2020-07-28T08:48:33.066Z</time>
      </trkpt>
      <trkpt lat="42.83669" lon="0.14528">
        <ele>2094</ele>
        <time>2020-07-28T08:48:34.066Z</time>
      </trkpt>
      <trkpt lat="42.83669" lon="0.14528">
        <ele>2094</ele>
        <time>2020-07-28T08:48:35.066Z</time>
      </trkpt>
      <trkpt lat="42.83673" lon="0.14527">
        <ele>2092</ele>
        <time>2020-07-28T08:48:36.066Z</time>
      </trkpt>
      <trkpt lat="42.83673" lon="0.14527">
        <ele>2092</ele>
        <time>2020-07-28T08:48:37.066Z</time>
      </trkpt>
      <trkpt lat="42.83673" lon="0.14527">
        <ele>2092</ele>
        <time>2020-07-28T08:48:38.066Z</time>
      </trkpt>
      <trkpt lat="42.83677" lon="0.14522">
        <ele>2093</ele>
        <time>2020-07-28T08:48:39.066Z</time>
      </trkpt>
      <trkpt lat="42.83677" lon="0.14522">
        <ele>2093</ele>
        <time>2020-07-28T08:48:40.066Z</time>
      </trkpt>
      <trkpt lat="42.83677" lon="0.14522">
        <ele>2093</ele>
        <time>2020-07-28T08:48:41.066Z</time>
      </trkpt>
      <trkpt lat="42.83681" lon="0.14515">
        <ele>2093</ele>
        <time>2020-07-28T08:48:42.066Z</time>
      </trkpt>
      <trkpt lat="42.83681" lon="0.14515">
        <ele>2093</ele>
        <time>2020-07-28T08:48:43.066Z</time>
      </trkpt>
      <trkpt lat="42.83681" lon="0.14515">
        <ele>2093</ele>
        <time>2020-07-28T08:48:44.066Z</time>
      </trkpt>
      <trkpt lat="42.83686" lon="0.1451">
        <ele>2092</ele>
        <time>2020-07-28T08:48:45.066Z</time>
      </trkpt>
      <trkpt lat="42.83686" lon="0.1451">
        <ele>2092</ele>
        <time>2020-07-28T08:48:46.066Z</time>
      </trkpt>
      <trkpt lat="42.83686" lon="0.1451">
        <ele>2092</ele>
        <time>2020-07-28T08:48:47.066Z</time>
      </trkpt>
      <trkpt lat="42.83688" lon="0.14506">
        <ele>2093</ele>
        <time>2020-07-28T08:48:48.066Z</time>
      </trkpt>
      <trkpt lat="42.83688" lon="0.14506">
        <ele>2093</ele>
        <time>2020-07-28T08:48:49.066Z</time>
      </trkpt>
      <trkpt lat="42.83688" lon="0.14506">
        <ele>2093</ele>
        <time>2020-07-28T08:48:50.066Z</time>
      </trkpt>
      <trkpt lat="42.83691" lon="0.14502">
        <ele>2095</ele>
        <time>2020-07-28T08:48:51.066Z</time>
      </trkpt>
      <trkpt lat="42.83691" lon="0.14502">
        <ele>2095</ele>
        <time>2020-07-28T08:48:52.066Z</time>
      </trkpt>
      <trkpt lat="42.83691" lon="0.14502">
        <ele>2095</ele>
        <time>2020-07-28T08:48:53.066Z</time>
      </trkpt>
      <trkpt lat="42.83693" lon="0.14496">
        <ele>2094</ele>
        <time>2020-07-28T08:48:54.066Z</time>
      </trkpt>
      <trkpt lat="42.83693" lon="0.14496">
        <ele>2094</ele>
        <time>2020-07-28T08:48:55.066Z</time>
      </trkpt>
      <trkpt lat="42.83693" lon="0.14496">
        <ele>2094</ele>
        <time>2020-07-28T08:48:56.066Z</time>
      </trkpt>
      <trkpt lat="42.83696" lon="0.1449">
        <ele>2097</ele>
        <time>2020-07-28T08:48:57.066Z</time>
      </trkpt>
      <trkpt lat="42.83696" lon="0.1449">
        <ele>2097</ele>
        <time>2020-07-28T08:48:58.066Z</time>
      </trkpt>
      <trkpt lat="42.83696" lon="0.1449">
        <ele>2097</ele>
        <time>2020-07-28T08:48:59.066Z</time>
      </trkpt>
      <trkpt lat="42.83699" lon="0.14484">
        <ele>2095</ele>
        <time>2020-07-28T08:49:00.066Z</time>
      </trkpt>
      <trkpt lat="42.83699" lon="0.14484">
        <ele>2095</ele>
        <time>2020-07-28T08:49:01.066Z</time>
      </trkpt>
      <trkpt lat="42.83699" lon="0.14484">
        <ele>2095</ele>
        <time>2020-07-28T08:49:02.066Z</time>
      </trkpt>
      <trkpt lat="42.83703" lon="0.14481">
        <ele>2094</ele>
        <time>2020-07-28T08:49:03.066Z</time>
      </trkpt>
      <trkpt lat="42.83703" lon="0.14481">
        <ele>2094</ele>
        <time>2020-07-28T08:49:04.066Z</time>
      </trkpt>
      <trkpt lat="42.83703" lon="0.14481">
        <ele>2094</ele>
        <time>2020-07-28T08:49:05.066Z</time>
      </trkpt>
      <trkpt lat="42.83705" lon="0.14479">
        <ele>2095</ele>
        <time>2020-07-28T08:49:06.066Z</time>
      </trkpt>
      <trkpt lat="42.83705" lon="0.14479">
        <ele>2095</ele>
        <time>2020-07-28T08:49:07.066Z</time>
      </trkpt>
      <trkpt lat="42.83705" lon="0.14479">
        <ele>2095</ele>
        <time>2020-07-28T08:49:08.066Z</time>
      </trkpt>
      <trkpt lat="42.83707" lon="0.14475">
        <ele>2097</ele>
        <time>2020-07-28T08:49:09.066Z</time>
      </trkpt>
      <trkpt lat="42.83707" lon="0.14475">
        <ele>2097</ele>
        <time>2020-07-28T08:49:10.066Z</time>
      </trkpt>
      <trkpt lat="42.83707" lon="0.14475">
        <ele>2097</ele>
        <time>2020-07-28T08:49:11.066Z</time>
      </trkpt>
      <trkpt lat="42.83709" lon="0.14471">
        <ele>2098</ele>
        <time>2020-07-28T08:49:12.066Z</time>
      </trkpt>
      <trkpt lat="42.83709" lon="0.14471">
        <ele>2098</ele>
        <time>2020-07-28T08:49:13.066Z</time>
      </trkpt>
      <trkpt lat="42.83709" lon="0.14471">
        <ele>2098</ele>
        <time>2020-07-28T08:49:14.066Z</time>
      </trkpt>
      <trkpt lat="42.83713" lon="0.14469">
        <ele>2099</ele>
        <time>2020-07-28T08:49:15.066Z</time>
      </trkpt>
      <trkpt lat="42.83713" lon="0.14469">
        <ele>2099</ele>
        <time>2020-07-28T08:49:16.066Z</time>
      </trkpt>
      <trkpt lat="42.83713" lon="0.14469">
        <ele>2099</ele>
        <time>2020-07-28T08:49:17.066Z</time>
      </trkpt>
      <trkpt lat="42.83717" lon="0.14463">
        <ele>2100</ele>
        <time>2020-07-28T08:49:18.066Z</time>
      </trkpt>
      <trkpt lat="42.83717" lon="0.14463">
        <ele>2100</ele>
        <time>2020-07-28T08:49:19.066Z</time>
      </trkpt>
      <trkpt lat="42.83717" lon="0.14463">
        <ele>2100</ele>
        <time>2020-07-28T08:49:20.066Z</time>
      </trkpt>
      <trkpt lat="42.83722" lon="0.14457">
        <ele>2101</ele>
        <time>2020-07-28T08:49:21.066Z</time>
      </trkpt>
      <trkpt lat="42.83722" lon="0.14457">
        <ele>2101</ele>
        <time>2020-07-28T08:49:22.066Z</time>
      </trkpt>
      <trkpt lat="42.83722" lon="0.14457">
        <ele>2101</ele>
        <time>2020-07-28T08:49:23.066Z</time>
      </trkpt>
      <trkpt lat="42.83727" lon="0.14452">
        <ele>2102</ele>
        <time>2020-07-28T08:49:24.066Z</time>
      </trkpt>
      <trkpt lat="42.83727" lon="0.14452">
        <ele>2102</ele>
        <time>2020-07-28T08:49:25.066Z</time>
      </trkpt>
      <trkpt lat="42.83727" lon="0.14452">
        <ele>2102</ele>
        <time>2020-07-28T08:49:26.066Z</time>
      </trkpt>
      <trkpt lat="42.8373" lon="0.14452">
        <ele>2101</ele>
        <time>2020-07-28T08:49:27.066Z</time>
      </trkpt>
      <trkpt lat="42.8373" lon="0.14452">
        <ele>2101</ele>
        <time>2020-07-28T08:49:28.066Z</time>
      </trkpt>
      <trkpt lat="42.8373" lon="0.14452">
        <ele>2101</ele>
        <time>2020-07-28T08:49:29.066Z</time>
      </trkpt>
      <trkpt lat="42.83731" lon="0.14451">
        <ele>2100</ele>
        <time>2020-07-28T08:49:30.066Z</time>
      </trkpt>
      <trkpt lat="42.83731" lon="0.14451">
        <ele>2100</ele>
        <time>2020-07-28T08:49:31.066Z</time>
      </trkpt>
      <trkpt lat="42.83731" lon="0.14451">
        <ele>2100</ele>
        <time>2020-07-28T08:49:32.066Z</time>
      </trkpt>
      <trkpt lat="42.83733" lon="0.14446">
        <ele>2103</ele>
        <time>2020-07-28T08:49:33.066Z</time>
      </trkpt>
      <trkpt lat="42.83733" lon="0.14446">
        <ele>2103</ele>
        <time>2020-07-28T08:49:34.066Z</time>
      </trkpt>
      <trkpt lat="42.83733" lon="0.14446">
        <ele>2103</ele>
        <time>2020-07-28T08:49:35.066Z</time>
      </trkpt>
      <trkpt lat="42.83733" lon="0.14441">
        <ele>2104</ele>
        <time>2020-07-28T08:49:36.066Z</time>
      </trkpt>
      <trkpt lat="42.83733" lon="0.14441">
        <ele>2104</ele>
        <time>2020-07-28T08:49:37.066Z</time>
      </trkpt>
      <trkpt lat="42.83733" lon="0.14441">
        <ele>2104</ele>
        <time>2020-07-28T08:49:38.066Z</time>
      </trkpt>
      <trkpt lat="42.83733" lon="0.14435">
        <ele>2105</ele>
        <time>2020-07-28T08:49:39.066Z</time>
      </trkpt>
      <trkpt lat="42.83733" lon="0.14435">
        <ele>2105</ele>
        <time>2020-07-28T08:49:40.066Z</time>
      </trkpt>
      <trkpt lat="42.83733" lon="0.14435">
        <ele>2105</ele>
        <time>2020-07-28T08:49:41.066Z</time>
      </trkpt>
      <trkpt lat="42.83733" lon="0.14432">
        <ele>2105</ele>
        <time>2020-07-28T08:49:42.066Z</time>
      </trkpt>
      <trkpt lat="42.83733" lon="0.14432">
        <ele>2105</ele>
        <time>2020-07-28T08:49:43.066Z</time>
      </trkpt>
      <trkpt lat="42.83733" lon="0.14432">
        <ele>2105</ele>
        <time>2020-07-28T08:49:44.066Z</time>
      </trkpt>
      <trkpt lat="42.83732" lon="0.14428">
        <ele>2106</ele>
        <time>2020-07-28T08:49:45.066Z</time>
      </trkpt>
      <trkpt lat="42.83732" lon="0.14428">
        <ele>2106</ele>
        <time>2020-07-28T08:49:46.066Z</time>
      </trkpt>
      <trkpt lat="42.83732" lon="0.14428">
        <ele>2106</ele>
        <time>2020-07-28T08:49:47.066Z</time>
      </trkpt>
      <trkpt lat="42.83732" lon="0.14422">
        <ele>2107</ele>
        <time>2020-07-28T08:49:48.066Z</time>
      </trkpt>
      <trkpt lat="42.83732" lon="0.14422">
        <ele>2107</ele>
        <time>2020-07-28T08:49:49.066Z</time>
      </trkpt>
      <trkpt lat="42.83732" lon="0.14422">
        <ele>2107</ele>
        <time>2020-07-28T08:49:50.066Z</time>
      </trkpt>
      <trkpt lat="42.83733" lon="0.14417">
        <ele>2108</ele>
        <time>2020-07-28T08:49:51.066Z</time>
      </trkpt>
      <trkpt lat="42.83733" lon="0.14417">
        <ele>2108</ele>
        <time>2020-07-28T08:49:52.066Z</time>
      </trkpt>
      <trkpt lat="42.83733" lon="0.14417">
        <ele>2108</ele>
        <time>2020-07-28T08:49:53.066Z</time>
      </trkpt>
      <trkpt lat="42.83734" lon="0.14412">
        <ele>2109</ele>
        <time>2020-07-28T08:49:54.066Z</time>
      </trkpt>
      <trkpt lat="42.83734" lon="0.14412">
        <ele>2109</ele>
        <time>2020-07-28T08:49:55.066Z</time>
      </trkpt>
      <trkpt lat="42.83734" lon="0.14412">
        <ele>2109</ele>
        <time>2020-07-28T08:49:56.066Z</time>
      </trkpt>
      <trkpt lat="42.83735" lon="0.14408">
        <ele>2111</ele>
        <time>2020-07-28T08:49:57.066Z</time>
      </trkpt>
      <trkpt lat="42.83735" lon="0.14408">
        <ele>2111</ele>
        <time>2020-07-28T08:49:58.066Z</time>
      </trkpt>
      <trkpt lat="42.83735" lon="0.14408">
        <ele>2111</ele>
        <time>2020-07-28T08:49:59.066Z</time>
      </trkpt>
      <trkpt lat="42.83737" lon="0.14404">
        <ele>2111</ele>
        <time>2020-07-28T08:50:00.066Z</time>
      </trkpt>
      <trkpt lat="42.83737" lon="0.14404">
        <ele>2111</ele>
        <time>2020-07-28T08:50:01.066Z</time>
      </trkpt>
      <trkpt lat="42.83739" lon="0.14404">
        <ele>2111</ele>
        <time>2020-07-28T08:50:02.082Z</time>
      </trkpt>
      <trkpt lat="42.83739" lon="0.14404">
        <ele>2111</ele>
        <time>2020-07-28T08:50:03.082Z</time>
      </trkpt>
      <trkpt lat="42.8374" lon="0.14403">
        <ele>2111</ele>
        <time>2020-07-28T08:50:04.082Z</time>
      </trkpt>
      <trkpt lat="42.8374" lon="0.14403">
        <ele>2111</ele>
        <time>2020-07-28T08:50:05.082Z</time>
      </trkpt>
      <trkpt lat="42.8374" lon="0.14403">
        <ele>2111</ele>
        <time>2020-07-28T08:50:06.082Z</time>
      </trkpt>
      <trkpt lat="42.83743" lon="0.14397">
        <ele>2111</ele>
        <time>2020-07-28T08:50:07.082Z</time>
      </trkpt>
      <trkpt lat="42.83743" lon="0.14397">
        <ele>2111</ele>
        <time>2020-07-28T08:50:08.082Z</time>
      </trkpt>
      <trkpt lat="42.83743" lon="0.14397">
        <ele>2111</ele>
        <time>2020-07-28T08:50:09.082Z</time>
      </trkpt>
      <trkpt lat="42.83747" lon="0.14392">
        <ele>2112</ele>
        <time>2020-07-28T08:50:10.082Z</time>
      </trkpt>
      <trkpt lat="42.83748" lon="0.1439">
        <ele>2113</ele>
        <time>2020-07-28T08:50:11.082Z</time>
      </trkpt>
      <trkpt lat="42.83748" lon="0.1439">
        <ele>2113</ele>
        <time>2020-07-28T08:50:12.082Z</time>
      </trkpt>
      <trkpt lat="42.83749" lon="0.14385">
        <ele>2114</ele>
        <time>2020-07-28T08:50:13.082Z</time>
      </trkpt>
      <trkpt lat="42.83749" lon="0.14385">
        <ele>2114</ele>
        <time>2020-07-28T08:50:14.082Z</time>
      </trkpt>
      <trkpt lat="42.83749" lon="0.14385">
        <ele>2114</ele>
        <time>2020-07-28T08:50:15.082Z</time>
      </trkpt>
      <trkpt lat="42.83752" lon="0.14381">
        <ele>2115</ele>
        <time>2020-07-28T08:50:16.082Z</time>
      </trkpt>
      <trkpt lat="42.83752" lon="0.14381">
        <ele>2115</ele>
        <time>2020-07-28T08:50:17.082Z</time>
      </trkpt>
      <trkpt lat="42.83752" lon="0.14381">
        <ele>2115</ele>
        <time>2020-07-28T08:50:18.082Z</time>
      </trkpt>
      <trkpt lat="42.83754" lon="0.14375">
        <ele>2115</ele>
        <time>2020-07-28T08:50:19.082Z</time>
      </trkpt>
      <trkpt lat="42.83754" lon="0.14375">
        <ele>2115</ele>
        <time>2020-07-28T08:50:20.082Z</time>
      </trkpt>
      <trkpt lat="42.83754" lon="0.14375">
        <ele>2115</ele>
        <time>2020-07-28T08:50:21.082Z</time>
      </trkpt>
      <trkpt lat="42.83755" lon="0.14368">
        <ele>2118</ele>
        <time>2020-07-28T08:50:22.082Z</time>
      </trkpt>
      <trkpt lat="42.83755" lon="0.14368">
        <ele>2118</ele>
        <time>2020-07-28T08:50:23.082Z</time>
      </trkpt>
      <trkpt lat="42.83755" lon="0.14368">
        <ele>2118</ele>
        <time>2020-07-28T08:50:24.082Z</time>
      </trkpt>
      <trkpt lat="42.83756" lon="0.1436">
        <ele>2118</ele>
        <time>2020-07-28T08:50:25.082Z</time>
      </trkpt>
      <trkpt lat="42.83756" lon="0.1436">
        <ele>2118</ele>
        <time>2020-07-28T08:50:26.082Z</time>
      </trkpt>
      <trkpt lat="42.83756" lon="0.1436">
        <ele>2118</ele>
        <time>2020-07-28T08:50:27.082Z</time>
      </trkpt>
      <trkpt lat="42.83758" lon="0.14353">
        <ele>2120</ele>
        <time>2020-07-28T08:50:28.082Z</time>
      </trkpt>
      <trkpt lat="42.83758" lon="0.14353">
        <ele>2120</ele>
        <time>2020-07-28T08:50:29.082Z</time>
      </trkpt>
      <trkpt lat="42.83758" lon="0.14353">
        <ele>2120</ele>
        <time>2020-07-28T08:50:30.082Z</time>
      </trkpt>
      <trkpt lat="42.83762" lon="0.14346">
        <ele>2123</ele>
        <time>2020-07-28T08:50:31.082Z</time>
      </trkpt>
      <trkpt lat="42.83762" lon="0.14346">
        <ele>2123</ele>
        <time>2020-07-28T08:50:32.082Z</time>
      </trkpt>
      <trkpt lat="42.83762" lon="0.14346">
        <ele>2123</ele>
        <time>2020-07-28T08:50:33.082Z</time>
      </trkpt>
      <trkpt lat="42.83766" lon="0.1434">
        <ele>2124</ele>
        <time>2020-07-28T08:50:34.082Z</time>
      </trkpt>
      <trkpt lat="42.83766" lon="0.1434">
        <ele>2124</ele>
        <time>2020-07-28T08:50:35.082Z</time>
      </trkpt>
      <trkpt lat="42.83766" lon="0.1434">
        <ele>2124</ele>
        <time>2020-07-28T08:50:36.082Z</time>
      </trkpt>
      <trkpt lat="42.83769" lon="0.14337">
        <ele>2125</ele>
        <time>2020-07-28T08:50:37.082Z</time>
      </trkpt>
      <trkpt lat="42.83769" lon="0.14337">
        <ele>2125</ele>
        <time>2020-07-28T08:50:38.082Z</time>
      </trkpt>
      <trkpt lat="42.83769" lon="0.14337">
        <ele>2125</ele>
        <time>2020-07-28T08:50:39.082Z</time>
      </trkpt>
      <trkpt lat="42.83773" lon="0.14335">
        <ele>2127</ele>
        <time>2020-07-28T08:50:40.082Z</time>
      </trkpt>
      <trkpt lat="42.83773" lon="0.14335">
        <ele>2127</ele>
        <time>2020-07-28T08:50:41.082Z</time>
      </trkpt>
      <trkpt lat="42.83773" lon="0.14335">
        <ele>2127</ele>
        <time>2020-07-28T08:50:42.082Z</time>
      </trkpt>
      <trkpt lat="42.83775" lon="0.1433">
        <ele>2130</ele>
        <time>2020-07-28T08:50:43.082Z</time>
      </trkpt>
      <trkpt lat="42.83775" lon="0.1433">
        <ele>2130</ele>
        <time>2020-07-28T08:50:44.082Z</time>
      </trkpt>
      <trkpt lat="42.83775" lon="0.1433">
        <ele>2130</ele>
        <time>2020-07-28T08:50:45.082Z</time>
      </trkpt>
      <trkpt lat="42.83775" lon="0.14322">
        <ele>2129</ele>
        <time>2020-07-28T08:50:46.082Z</time>
      </trkpt>
      <trkpt lat="42.83775" lon="0.14322">
        <ele>2129</ele>
        <time>2020-07-28T08:50:47.082Z</time>
      </trkpt>
      <trkpt lat="42.83775" lon="0.14322">
        <ele>2129</ele>
        <time>2020-07-28T08:50:48.082Z</time>
      </trkpt>
      <trkpt lat="42.83774" lon="0.14311">
        <ele>2129</ele>
        <time>2020-07-28T08:50:49.082Z</time>
      </trkpt>
      <trkpt lat="42.83774" lon="0.14311">
        <ele>2129</ele>
        <time>2020-07-28T08:50:50.082Z</time>
      </trkpt>
      <trkpt lat="42.83774" lon="0.14311">
        <ele>2129</ele>
        <time>2020-07-28T08:50:51.082Z</time>
      </trkpt>
      <trkpt lat="42.83776" lon="0.14302">
        <ele>2129</ele>
        <time>2020-07-28T08:50:52.082Z</time>
      </trkpt>
      <trkpt lat="42.83776" lon="0.14302">
        <ele>2129</ele>
        <time>2020-07-28T08:50:53.082Z</time>
      </trkpt>
      <trkpt lat="42.83776" lon="0.14302">
        <ele>2129</ele>
        <time>2020-07-28T08:50:54.082Z</time>
      </trkpt>
      <trkpt lat="42.83776" lon="0.14297">
        <ele>2130</ele>
        <time>2020-07-28T08:50:55.082Z</time>
      </trkpt>
      <trkpt lat="42.83776" lon="0.14297">
        <ele>2130</ele>
        <time>2020-07-28T08:50:56.082Z</time>
      </trkpt>
      <trkpt lat="42.83776" lon="0.14297">
        <ele>2130</ele>
        <time>2020-07-28T08:50:57.082Z</time>
      </trkpt>
      <trkpt lat="42.83779" lon="0.14293">
        <ele>2129</ele>
        <time>2020-07-28T08:50:58.082Z</time>
      </trkpt>
      <trkpt lat="42.83779" lon="0.14293">
        <ele>2129</ele>
        <time>2020-07-28T08:50:59.082Z</time>
      </trkpt>
      <trkpt lat="42.83779" lon="0.14293">
        <ele>2129</ele>
        <time>2020-07-28T08:51:00.082Z</time>
      </trkpt>
      <trkpt lat="42.83781" lon="0.14289">
        <ele>2129</ele>
        <time>2020-07-28T08:51:01.082Z</time>
      </trkpt>
      <trkpt lat="42.83781" lon="0.14289">
        <ele>2129</ele>
        <time>2020-07-28T08:51:02.082Z</time>
      </trkpt>
      <trkpt lat="42.83781" lon="0.14289">
        <ele>2129</ele>
        <time>2020-07-28T08:51:03.082Z</time>
      </trkpt>
      <trkpt lat="42.83784" lon="0.14286">
        <ele>2129</ele>
        <time>2020-07-28T08:51:04.082Z</time>
      </trkpt>
      <trkpt lat="42.83784" lon="0.14286">
        <ele>2129</ele>
        <time>2020-07-28T08:51:05.082Z</time>
      </trkpt>
      <trkpt lat="42.83784" lon="0.14286">
        <ele>2129</ele>
        <time>2020-07-28T08:51:06.082Z</time>
      </trkpt>
      <trkpt lat="42.83788" lon="0.14282">
        <ele>2129</ele>
        <time>2020-07-28T08:51:07.082Z</time>
      </trkpt>
      <trkpt lat="42.83788" lon="0.14282">
        <ele>2129</ele>
        <time>2020-07-28T08:51:08.082Z</time>
      </trkpt>
      <trkpt lat="42.83788" lon="0.14282">
        <ele>2129</ele>
        <time>2020-07-28T08:51:09.082Z</time>
      </trkpt>
      <trkpt lat="42.83792" lon="0.14279">
        <ele>2128</ele>
        <time>2020-07-28T08:51:10.082Z</time>
      </trkpt>
      <trkpt lat="42.83792" lon="0.14279">
        <ele>2128</ele>
        <time>2020-07-28T08:51:11.082Z</time>
      </trkpt>
      <trkpt lat="42.83792" lon="0.14279">
        <ele>2128</ele>
        <time>2020-07-28T08:51:12.082Z</time>
      </trkpt>
      <trkpt lat="42.83796" lon="0.14276">
        <ele>2130</ele>
        <time>2020-07-28T08:51:13.082Z</time>
      </trkpt>
      <trkpt lat="42.83796" lon="0.14276">
        <ele>2130</ele>
        <time>2020-07-28T08:51:14.082Z</time>
      </trkpt>
      <trkpt lat="42.83796" lon="0.14276">
        <ele>2130</ele>
        <time>2020-07-28T08:51:15.082Z</time>
      </trkpt>
      <trkpt lat="42.83799" lon="0.14271">
        <ele>2131</ele>
        <time>2020-07-28T08:51:16.082Z</time>
      </trkpt>
      <trkpt lat="42.83799" lon="0.14271">
        <ele>2131</ele>
        <time>2020-07-28T08:51:17.082Z</time>
      </trkpt>
      <trkpt lat="42.83799" lon="0.14271">
        <ele>2131</ele>
        <time>2020-07-28T08:51:18.082Z</time>
      </trkpt>
      <trkpt lat="42.83801" lon="0.14267">
        <ele>2132</ele>
        <time>2020-07-28T08:51:19.082Z</time>
      </trkpt>
      <trkpt lat="42.83801" lon="0.14267">
        <ele>2132</ele>
        <time>2020-07-28T08:51:20.082Z</time>
      </trkpt>
      <trkpt lat="42.83801" lon="0.14267">
        <ele>2132</ele>
        <time>2020-07-28T08:51:21.082Z</time>
      </trkpt>
      <trkpt lat="42.83805" lon="0.14266">
        <ele>2132</ele>
        <time>2020-07-28T08:51:22.082Z</time>
      </trkpt>
      <trkpt lat="42.83805" lon="0.14266">
        <ele>2132</ele>
        <time>2020-07-28T08:51:23.082Z</time>
      </trkpt>
      <trkpt lat="42.83805" lon="0.14266">
        <ele>2132</ele>
        <time>2020-07-28T08:51:24.082Z</time>
      </trkpt>
      <trkpt lat="42.8381" lon="0.14268">
        <ele>2134</ele>
        <time>2020-07-28T08:51:25.082Z</time>
      </trkpt>
      <trkpt lat="42.8381" lon="0.14268">
        <ele>2134</ele>
        <time>2020-07-28T08:51:26.082Z</time>
      </trkpt>
      <trkpt lat="42.8381" lon="0.14268">
        <ele>2134</ele>
        <time>2020-07-28T08:51:27.082Z</time>
      </trkpt>
      <trkpt lat="42.83814" lon="0.14268">
        <ele>2134</ele>
        <time>2020-07-28T08:51:28.082Z</time>
      </trkpt>
      <trkpt lat="42.83814" lon="0.14268">
        <ele>2134</ele>
        <time>2020-07-28T08:51:29.082Z</time>
      </trkpt>
      <trkpt lat="42.83814" lon="0.14268">
        <ele>2134</ele>
        <time>2020-07-28T08:51:30.082Z</time>
      </trkpt>
      <trkpt lat="42.83816" lon="0.14269">
        <ele>2134</ele>
        <time>2020-07-28T08:51:31.082Z</time>
      </trkpt>
      <trkpt lat="42.83816" lon="0.14269">
        <ele>2134</ele>
        <time>2020-07-28T08:51:32.082Z</time>
      </trkpt>
      <trkpt lat="42.83816" lon="0.14269">
        <ele>2134</ele>
        <time>2020-07-28T08:51:33.082Z</time>
      </trkpt>
      <trkpt lat="42.83819" lon="0.1427">
        <ele>2135</ele>
        <time>2020-07-28T08:51:34.082Z</time>
      </trkpt>
      <trkpt lat="42.83819" lon="0.1427">
        <ele>2135</ele>
        <time>2020-07-28T08:51:35.082Z</time>
      </trkpt>
      <trkpt lat="42.83819" lon="0.1427">
        <ele>2135</ele>
        <time>2020-07-28T08:51:36.082Z</time>
      </trkpt>
      <trkpt lat="42.83822" lon="0.14274">
        <ele>2137</ele>
        <time>2020-07-28T08:51:37.082Z</time>
      </trkpt>
      <trkpt lat="42.83822" lon="0.14274">
        <ele>2137</ele>
        <time>2020-07-28T08:51:38.082Z</time>
      </trkpt>
      <trkpt lat="42.83822" lon="0.14274">
        <ele>2137</ele>
        <time>2020-07-28T08:51:39.082Z</time>
      </trkpt>
      <trkpt lat="42.83824" lon="0.14277">
        <ele>2138</ele>
        <time>2020-07-28T08:51:40.082Z</time>
      </trkpt>
      <trkpt lat="42.83824" lon="0.14277">
        <ele>2138</ele>
        <time>2020-07-28T08:51:41.082Z</time>
      </trkpt>
      <trkpt lat="42.83824" lon="0.14277">
        <ele>2138</ele>
        <time>2020-07-28T08:51:42.082Z</time>
      </trkpt>
      <trkpt lat="42.83828" lon="0.14279">
        <ele>2138</ele>
        <time>2020-07-28T08:51:43.082Z</time>
      </trkpt>
      <trkpt lat="42.83828" lon="0.14279">
        <ele>2138</ele>
        <time>2020-07-28T08:51:44.082Z</time>
      </trkpt>
      <trkpt lat="42.83828" lon="0.14279">
        <ele>2138</ele>
        <time>2020-07-28T08:51:45.082Z</time>
      </trkpt>
      <trkpt lat="42.83831" lon="0.14281">
        <ele>2140</ele>
        <time>2020-07-28T08:51:46.082Z</time>
      </trkpt>
      <trkpt lat="42.83831" lon="0.14281">
        <ele>2140</ele>
        <time>2020-07-28T08:51:47.082Z</time>
      </trkpt>
      <trkpt lat="42.83831" lon="0.14281">
        <ele>2140</ele>
        <time>2020-07-28T08:51:48.082Z</time>
      </trkpt>
      <trkpt lat="42.83835" lon="0.14282">
        <ele>2140</ele>
        <time>2020-07-28T08:51:49.082Z</time>
      </trkpt>
      <trkpt lat="42.83835" lon="0.14282">
        <ele>2140</ele>
        <time>2020-07-28T08:51:50.082Z</time>
      </trkpt>
      <trkpt lat="42.83835" lon="0.14282">
        <ele>2140</ele>
        <time>2020-07-28T08:51:51.082Z</time>
      </trkpt>
      <trkpt lat="42.83837" lon="0.14285">
        <ele>2142</ele>
        <time>2020-07-28T08:51:52.082Z</time>
      </trkpt>
      <trkpt lat="42.83837" lon="0.14285">
        <ele>2142</ele>
        <time>2020-07-28T08:51:53.082Z</time>
      </trkpt>
      <trkpt lat="42.83837" lon="0.14285">
        <ele>2142</ele>
        <time>2020-07-28T08:51:54.082Z</time>
      </trkpt>
      <trkpt lat="42.8384" lon="0.1429">
        <ele>2146</ele>
        <time>2020-07-28T08:51:55.082Z</time>
      </trkpt>
      <trkpt lat="42.8384" lon="0.1429">
        <ele>2146</ele>
        <time>2020-07-28T08:51:56.082Z</time>
      </trkpt>
      <trkpt lat="42.8384" lon="0.1429">
        <ele>2146</ele>
        <time>2020-07-28T08:51:57.082Z</time>
      </trkpt>
      <trkpt lat="42.83843" lon="0.14292">
        <ele>2147</ele>
        <time>2020-07-28T08:51:58.082Z</time>
      </trkpt>
      <trkpt lat="42.83843" lon="0.14292">
        <ele>2147</ele>
        <time>2020-07-28T08:51:59.082Z</time>
      </trkpt>
      <trkpt lat="42.83843" lon="0.14292">
        <ele>2147</ele>
        <time>2020-07-28T08:52:00.082Z</time>
      </trkpt>
      <trkpt lat="42.83844" lon="0.14294">
        <ele>2149</ele>
        <time>2020-07-28T08:52:01.082Z</time>
      </trkpt>
      <trkpt lat="42.83844" lon="0.14294">
        <ele>2149</ele>
        <time>2020-07-28T08:52:02.082Z</time>
      </trkpt>
      <trkpt lat="42.83844" lon="0.14294">
        <ele>2149</ele>
        <time>2020-07-28T08:52:03.082Z</time>
      </trkpt>
      <trkpt lat="42.83846" lon="0.14298">
        <ele>2150</ele>
        <time>2020-07-28T08:52:04.082Z</time>
      </trkpt>
      <trkpt lat="42.83846" lon="0.14298">
        <ele>2150</ele>
        <time>2020-07-28T08:52:05.082Z</time>
      </trkpt>
      <trkpt lat="42.83846" lon="0.14298">
        <ele>2150</ele>
        <time>2020-07-28T08:52:06.082Z</time>
      </trkpt>
      <trkpt lat="42.83849" lon="0.14301">
        <ele>2149</ele>
        <time>2020-07-28T08:52:07.082Z</time>
      </trkpt>
      <trkpt lat="42.83849" lon="0.14301">
        <ele>2149</ele>
        <time>2020-07-28T08:52:08.082Z</time>
      </trkpt>
      <trkpt lat="42.83849" lon="0.14301">
        <ele>2149</ele>
        <time>2020-07-28T08:52:09.082Z</time>
      </trkpt>
      <trkpt lat="42.83851" lon="0.14303">
        <ele>2148</ele>
        <time>2020-07-28T08:52:10.082Z</time>
      </trkpt>
      <trkpt lat="42.83851" lon="0.14303">
        <ele>2148</ele>
        <time>2020-07-28T08:52:11.082Z</time>
      </trkpt>
      <trkpt lat="42.83851" lon="0.14303">
        <ele>2148</ele>
        <time>2020-07-28T08:52:12.082Z</time>
      </trkpt>
      <trkpt lat="42.83853" lon="0.14305">
        <ele>2148</ele>
        <time>2020-07-28T08:52:13.082Z</time>
      </trkpt>
      <trkpt lat="42.83853" lon="0.14305">
        <ele>2148</ele>
        <time>2020-07-28T08:52:14.082Z</time>
      </trkpt>
      <trkpt lat="42.83853" lon="0.14305">
        <ele>2148</ele>
        <time>2020-07-28T08:52:15.082Z</time>
      </trkpt>
      <trkpt lat="42.83855" lon="0.14307">
        <ele>2150</ele>
        <time>2020-07-28T08:52:16.082Z</time>
      </trkpt>
      <trkpt lat="42.83855" lon="0.14307">
        <ele>2150</ele>
        <time>2020-07-28T08:52:17.082Z</time>
      </trkpt>
      <trkpt lat="42.83855" lon="0.14307">
        <ele>2150</ele>
        <time>2020-07-28T08:52:18.082Z</time>
      </trkpt>
      <trkpt lat="42.8386" lon="0.14309">
        <ele>2151</ele>
        <time>2020-07-28T08:52:19.082Z</time>
      </trkpt>
      <trkpt lat="42.8386" lon="0.14309">
        <ele>2151</ele>
        <time>2020-07-28T08:52:20.082Z</time>
      </trkpt>
      <trkpt lat="42.8386" lon="0.14309">
        <ele>2151</ele>
        <time>2020-07-28T08:52:21.082Z</time>
      </trkpt>
      <trkpt lat="42.83867" lon="0.1431">
        <ele>2154</ele>
        <time>2020-07-28T08:52:22.082Z</time>
      </trkpt>
      <trkpt lat="42.83867" lon="0.1431">
        <ele>2154</ele>
        <time>2020-07-28T08:52:23.082Z</time>
      </trkpt>
      <trkpt lat="42.83867" lon="0.1431">
        <ele>2154</ele>
        <time>2020-07-28T08:52:24.082Z</time>
      </trkpt>
      <trkpt lat="42.83874" lon="0.14313">
        <ele>2153</ele>
        <time>2020-07-28T08:52:25.082Z</time>
      </trkpt>
      <trkpt lat="42.83874" lon="0.14313">
        <ele>2153</ele>
        <time>2020-07-28T08:52:26.082Z</time>
      </trkpt>
      <trkpt lat="42.83874" lon="0.14313">
        <ele>2153</ele>
        <time>2020-07-28T08:52:27.082Z</time>
      </trkpt>
      <trkpt lat="42.83881" lon="0.14319">
        <ele>2153</ele>
        <time>2020-07-28T08:52:28.082Z</time>
      </trkpt>
      <trkpt lat="42.83881" lon="0.14319">
        <ele>2153</ele>
        <time>2020-07-28T08:52:29.082Z</time>
      </trkpt>
      <trkpt lat="42.83881" lon="0.14319">
        <ele>2153</ele>
        <time>2020-07-28T08:52:30.082Z</time>
      </trkpt>
      <trkpt lat="42.83887" lon="0.14327">
        <ele>2152</ele>
        <time>2020-07-28T08:52:31.082Z</time>
      </trkpt>
      <trkpt lat="42.83887" lon="0.14327">
        <ele>2152</ele>
        <time>2020-07-28T08:52:32.082Z</time>
      </trkpt>
      <trkpt lat="42.83887" lon="0.14327">
        <ele>2152</ele>
        <time>2020-07-28T08:52:33.082Z</time>
      </trkpt>
      <trkpt lat="42.83893" lon="0.14336">
        <ele>2151</ele>
        <time>2020-07-28T08:52:34.082Z</time>
      </trkpt>
      <trkpt lat="42.83893" lon="0.14336">
        <ele>2151</ele>
        <time>2020-07-28T08:52:35.082Z</time>
      </trkpt>
      <trkpt lat="42.83893" lon="0.14336">
        <ele>2151</ele>
        <time>2020-07-28T08:52:36.082Z</time>
      </trkpt>
      <trkpt lat="42.83899" lon="0.14347">
        <ele>2150</ele>
        <time>2020-07-28T08:52:37.082Z</time>
      </trkpt>
      <trkpt lat="42.83899" lon="0.14347">
        <ele>2150</ele>
        <time>2020-07-28T08:52:38.082Z</time>
      </trkpt>
      <trkpt lat="42.83899" lon="0.14347">
        <ele>2150</ele>
        <time>2020-07-28T08:52:39.082Z</time>
      </trkpt>
      <trkpt lat="42.83904" lon="0.14356">
        <ele>2149</ele>
        <time>2020-07-28T08:52:40.082Z</time>
      </trkpt>
      <trkpt lat="42.83904" lon="0.14356">
        <ele>2149</ele>
        <time>2020-07-28T08:52:41.082Z</time>
      </trkpt>
      <trkpt lat="42.83904" lon="0.14356">
        <ele>2149</ele>
        <time>2020-07-28T08:52:42.082Z</time>
      </trkpt>
      <trkpt lat="42.8391" lon="0.14359">
        <ele>2150</ele>
        <time>2020-07-28T08:52:43.082Z</time>
      </trkpt>
      <trkpt lat="42.8391" lon="0.14359">
        <ele>2150</ele>
        <time>2020-07-28T08:52:44.082Z</time>
      </trkpt>
      <trkpt lat="42.8391" lon="0.14359">
        <ele>2150</ele>
        <time>2020-07-28T08:52:45.082Z</time>
      </trkpt>
      <trkpt lat="42.83917" lon="0.14364">
        <ele>2150</ele>
        <time>2020-07-28T08:52:46.082Z</time>
      </trkpt>
      <trkpt lat="42.83917" lon="0.14364">
        <ele>2150</ele>
        <time>2020-07-28T08:52:47.082Z</time>
      </trkpt>
      <trkpt lat="42.83917" lon="0.14364">
        <ele>2150</ele>
        <time>2020-07-28T08:52:48.082Z</time>
      </trkpt>
      <trkpt lat="42.83922" lon="0.14369">
        <ele>2152</ele>
        <time>2020-07-28T08:52:49.082Z</time>
      </trkpt>
      <trkpt lat="42.83922" lon="0.14369">
        <ele>2152</ele>
        <time>2020-07-28T08:52:50.082Z</time>
      </trkpt>
      <trkpt lat="42.83922" lon="0.14369">
        <ele>2152</ele>
        <time>2020-07-28T08:52:51.082Z</time>
      </trkpt>
      <trkpt lat="42.83923" lon="0.14368">
        <ele>2151</ele>
        <time>2020-07-28T08:52:52.082Z</time>
      </trkpt>
      <trkpt lat="42.83928" lon="0.14362">
        <ele>2150</ele>
        <time>2020-07-28T08:52:53.020Z</time>
      </trkpt>
      <trkpt lat="42.83931" lon="0.1436">
        <ele>2149</ele>
        <time>2020-07-28T08:52:54.020Z</time>
      </trkpt>
      <trkpt lat="42.83931" lon="0.1436">
        <ele>2149</ele>
        <time>2020-07-28T08:52:55.020Z</time>
      </trkpt>
      <trkpt lat="42.83931" lon="0.1436">
        <ele>2149</ele>
        <time>2020-07-28T08:52:56.020Z</time>
      </trkpt>
      <trkpt lat="42.83936" lon="0.14355">
        <ele>2150</ele>
        <time>2020-07-28T08:52:57.020Z</time>
      </trkpt>
      <trkpt lat="42.83936" lon="0.14355">
        <ele>2150</ele>
        <time>2020-07-28T08:52:58.020Z</time>
      </trkpt>
      <trkpt lat="42.83936" lon="0.14355">
        <ele>2150</ele>
        <time>2020-07-28T08:52:59.020Z</time>
      </trkpt>
      <trkpt lat="42.83942" lon="0.14347">
        <ele>2153</ele>
        <time>2020-07-28T08:53:00.020Z</time>
      </trkpt>
      <trkpt lat="42.83942" lon="0.14347">
        <ele>2153</ele>
        <time>2020-07-28T08:53:01.020Z</time>
      </trkpt>
      <trkpt lat="42.83942" lon="0.14347">
        <ele>2153</ele>
        <time>2020-07-28T08:53:02.020Z</time>
      </trkpt>
      <trkpt lat="42.83945" lon="0.14341">
        <ele>2154</ele>
        <time>2020-07-28T08:53:03.020Z</time>
      </trkpt>
      <trkpt lat="42.83945" lon="0.14341">
        <ele>2154</ele>
        <time>2020-07-28T08:53:04.020Z</time>
      </trkpt>
      <trkpt lat="42.83945" lon="0.14341">
        <ele>2154</ele>
        <time>2020-07-28T08:53:05.020Z</time>
      </trkpt>
      <trkpt lat="42.83949" lon="0.14337">
        <ele>2154</ele>
        <time>2020-07-28T08:53:06.020Z</time>
      </trkpt>
      <trkpt lat="42.83949" lon="0.14337">
        <ele>2154</ele>
        <time>2020-07-28T08:53:07.020Z</time>
      </trkpt>
      <trkpt lat="42.83949" lon="0.14337">
        <ele>2154</ele>
        <time>2020-07-28T08:53:08.020Z</time>
      </trkpt>
      <trkpt lat="42.83953" lon="0.14333">
        <ele>2154</ele>
        <time>2020-07-28T08:53:09.020Z</time>
      </trkpt>
      <trkpt lat="42.83953" lon="0.14333">
        <ele>2154</ele>
        <time>2020-07-28T08:53:10.020Z</time>
      </trkpt>
      <trkpt lat="42.83953" lon="0.14333">
        <ele>2154</ele>
        <time>2020-07-28T08:53:11.020Z</time>
      </trkpt>
      <trkpt lat="42.83959" lon="0.14327">
        <ele>2155</ele>
        <time>2020-07-28T08:53:12.020Z</time>
      </trkpt>
      <trkpt lat="42.83959" lon="0.14327">
        <ele>2155</ele>
        <time>2020-07-28T08:53:13.020Z</time>
      </trkpt>
      <trkpt lat="42.83959" lon="0.14327">
        <ele>2155</ele>
        <time>2020-07-28T08:53:14.020Z</time>
      </trkpt>
      <trkpt lat="42.83963" lon="0.14324">
        <ele>2156</ele>
        <time>2020-07-28T08:53:15.020Z</time>
      </trkpt>
      <trkpt lat="42.83963" lon="0.14324">
        <ele>2156</ele>
        <time>2020-07-28T08:53:16.020Z</time>
      </trkpt>
      <trkpt lat="42.83963" lon="0.14324">
        <ele>2156</ele>
        <time>2020-07-28T08:53:17.020Z</time>
      </trkpt>
      <trkpt lat="42.83967" lon="0.14324">
        <ele>2155</ele>
        <time>2020-07-28T08:53:18.020Z</time>
      </trkpt>
      <trkpt lat="42.83967" lon="0.14324">
        <ele>2155</ele>
        <time>2020-07-28T08:53:19.020Z</time>
      </trkpt>
      <trkpt lat="42.83967" lon="0.14324">
        <ele>2155</ele>
        <time>2020-07-28T08:53:20.020Z</time>
      </trkpt>
      <trkpt lat="42.83973" lon="0.14323">
        <ele>2157</ele>
        <time>2020-07-28T08:53:21.020Z</time>
      </trkpt>
      <trkpt lat="42.83973" lon="0.14323">
        <ele>2157</ele>
        <time>2020-07-28T08:53:22.020Z</time>
      </trkpt>
      <trkpt lat="42.83973" lon="0.14323">
        <ele>2157</ele>
        <time>2020-07-28T08:53:23.020Z</time>
      </trkpt>
      <trkpt lat="42.83979" lon="0.14321">
        <ele>2157</ele>
        <time>2020-07-28T08:53:24.020Z</time>
      </trkpt>
      <trkpt lat="42.83979" lon="0.14321">
        <ele>2157</ele>
        <time>2020-07-28T08:53:25.020Z</time>
      </trkpt>
      <trkpt lat="42.83979" lon="0.14321">
        <ele>2157</ele>
        <time>2020-07-28T08:53:26.020Z</time>
      </trkpt>
      <trkpt lat="42.83986" lon="0.14319">
        <ele>2155</ele>
        <time>2020-07-28T08:53:27.020Z</time>
      </trkpt>
      <trkpt lat="42.83986" lon="0.14319">
        <ele>2155</ele>
        <time>2020-07-28T08:53:28.020Z</time>
      </trkpt>
      <trkpt lat="42.83986" lon="0.14319">
        <ele>2155</ele>
        <time>2020-07-28T08:53:29.020Z</time>
      </trkpt>
      <trkpt lat="42.83994" lon="0.14318">
        <ele>2153</ele>
        <time>2020-07-28T08:53:30.020Z</time>
      </trkpt>
      <trkpt lat="42.83994" lon="0.14318">
        <ele>2153</ele>
        <time>2020-07-28T08:53:31.020Z</time>
      </trkpt>
      <trkpt lat="42.83994" lon="0.14318">
        <ele>2153</ele>
        <time>2020-07-28T08:53:32.020Z</time>
      </trkpt>
      <trkpt lat="42.84001" lon="0.14317">
        <ele>2154</ele>
        <time>2020-07-28T08:53:33.020Z</time>
      </trkpt>
      <trkpt lat="42.84001" lon="0.14317">
        <ele>2154</ele>
        <time>2020-07-28T08:53:34.020Z</time>
      </trkpt>
      <trkpt lat="42.84001" lon="0.14317">
        <ele>2154</ele>
        <time>2020-07-28T08:53:35.020Z</time>
      </trkpt>
      <trkpt lat="42.8401" lon="0.14314">
        <ele>2154</ele>
        <time>2020-07-28T08:53:36.020Z</time>
      </trkpt>
      <trkpt lat="42.8401" lon="0.14314">
        <ele>2154</ele>
        <time>2020-07-28T08:53:37.020Z</time>
      </trkpt>
      <trkpt lat="42.8401" lon="0.14314">
        <ele>2154</ele>
        <time>2020-07-28T08:53:38.020Z</time>
      </trkpt>
      <trkpt lat="42.84018" lon="0.14311">
        <ele>2154</ele>
        <time>2020-07-28T08:53:39.020Z</time>
      </trkpt>
      <trkpt lat="42.84018" lon="0.14311">
        <ele>2154</ele>
        <time>2020-07-28T08:53:40.020Z</time>
      </trkpt>
      <trkpt lat="42.84018" lon="0.14311">
        <ele>2154</ele>
        <time>2020-07-28T08:53:41.020Z</time>
      </trkpt>
      <trkpt lat="42.84027" lon="0.1431">
        <ele>2155</ele>
        <time>2020-07-28T08:53:42.020Z</time>
      </trkpt>
      <trkpt lat="42.84027" lon="0.1431">
        <ele>2155</ele>
        <time>2020-07-28T08:53:43.020Z</time>
      </trkpt>
      <trkpt lat="42.84027" lon="0.1431">
        <ele>2155</ele>
        <time>2020-07-28T08:53:44.020Z</time>
      </trkpt>
      <trkpt lat="42.84035" lon="0.14308">
        <ele>2155</ele>
        <time>2020-07-28T08:53:45.020Z</time>
      </trkpt>
      <trkpt lat="42.84035" lon="0.14308">
        <ele>2155</ele>
        <time>2020-07-28T08:53:46.020Z</time>
      </trkpt>
      <trkpt lat="42.84035" lon="0.14308">
        <ele>2155</ele>
        <time>2020-07-28T08:53:47.020Z</time>
      </trkpt>
      <trkpt lat="42.84044" lon="0.14307">
        <ele>2155</ele>
        <time>2020-07-28T08:53:48.020Z</time>
      </trkpt>
      <trkpt lat="42.84044" lon="0.14307">
        <ele>2155</ele>
        <time>2020-07-28T08:53:49.020Z</time>
      </trkpt>
      <trkpt lat="42.84068" lon="0.14318">
        <ele>2159</ele>
        <time>2020-07-28T08:53:50.004Z</time>
      </trkpt>
      <trkpt lat="42.84068" lon="0.14318">
        <ele>2159</ele>
        <time>2020-07-28T08:53:51.004Z</time>
      </trkpt>
      <trkpt lat="42.84068" lon="0.1432">
        <ele>2160</ele>
        <time>2020-07-28T08:53:52.004Z</time>
      </trkpt>
      <trkpt lat="42.84068" lon="0.1432">
        <ele>2160</ele>
        <time>2020-07-28T08:53:53.004Z</time>
      </trkpt>
      <trkpt lat="42.84068" lon="0.1432">
        <ele>2160</ele>
        <time>2020-07-28T08:53:54.004Z</time>
      </trkpt>
      <trkpt lat="42.84065" lon="0.14325">
        <ele>2159</ele>
        <time>2020-07-28T08:53:55.004Z</time>
      </trkpt>
      <trkpt lat="42.84065" lon="0.14325">
        <ele>2159</ele>
        <time>2020-07-28T08:53:56.004Z</time>
      </trkpt>
      <trkpt lat="42.84065" lon="0.14325">
        <ele>2159</ele>
        <time>2020-07-28T08:53:57.004Z</time>
      </trkpt>
      <trkpt lat="42.84061" lon="0.14333">
        <ele>2158</ele>
        <time>2020-07-28T08:53:58.004Z</time>
      </trkpt>
      <trkpt lat="42.84061" lon="0.14333">
        <ele>2158</ele>
        <time>2020-07-28T08:53:59.004Z</time>
      </trkpt>
      <trkpt lat="42.84061" lon="0.14333">
        <ele>2158</ele>
        <time>2020-07-28T08:54:00.004Z</time>
      </trkpt>
      <trkpt lat="42.84057" lon="0.14343">
        <ele>2158</ele>
        <time>2020-07-28T08:54:01.004Z</time>
      </trkpt>
      <trkpt lat="42.84057" lon="0.14343">
        <ele>2158</ele>
        <time>2020-07-28T08:54:02.004Z</time>
      </trkpt>
      <trkpt lat="42.84057" lon="0.14343">
        <ele>2158</ele>
        <time>2020-07-28T08:54:03.004Z</time>
      </trkpt>
      <trkpt lat="42.84057" lon="0.14353">
        <ele>2158</ele>
        <time>2020-07-28T08:54:04.004Z</time>
      </trkpt>
      <trkpt lat="42.84057" lon="0.14353">
        <ele>2158</ele>
        <time>2020-07-28T08:54:05.004Z</time>
      </trkpt>
      <trkpt lat="42.84057" lon="0.14353">
        <ele>2158</ele>
        <time>2020-07-28T08:54:06.004Z</time>
      </trkpt>
      <trkpt lat="42.84058" lon="0.14359">
        <ele>2158</ele>
        <time>2020-07-28T08:54:07.004Z</time>
      </trkpt>
      <trkpt lat="42.84051" lon="0.14382">
        <ele>2167</ele>
        <time>2020-07-28T08:54:08.066Z</time>
      </trkpt>
      <trkpt lat="42.84051" lon="0.14382">
        <ele>2167</ele>
        <time>2020-07-28T08:54:09.066Z</time>
      </trkpt>
      <trkpt lat="42.84053" lon="0.14379">
        <ele>2166</ele>
        <time>2020-07-28T08:54:10.066Z</time>
      </trkpt>
      <trkpt lat="42.84053" lon="0.14379">
        <ele>2166</ele>
        <time>2020-07-28T08:54:11.066Z</time>
      </trkpt>
      <trkpt lat="42.84053" lon="0.14379">
        <ele>2166</ele>
        <time>2020-07-28T08:54:12.066Z</time>
      </trkpt>
      <trkpt lat="42.84056" lon="0.14376">
        <ele>2166</ele>
        <time>2020-07-28T08:54:13.066Z</time>
      </trkpt>
      <trkpt lat="42.84056" lon="0.14376">
        <ele>2166</ele>
        <time>2020-07-28T08:54:14.066Z</time>
      </trkpt>
      <trkpt lat="42.84056" lon="0.14376">
        <ele>2166</ele>
        <time>2020-07-28T08:54:15.066Z</time>
      </trkpt>
      <trkpt lat="42.84063" lon="0.14374">
        <ele>2167</ele>
        <time>2020-07-28T08:54:16.066Z</time>
      </trkpt>
      <trkpt lat="42.84063" lon="0.14374">
        <ele>2167</ele>
        <time>2020-07-28T08:54:17.066Z</time>
      </trkpt>
      <trkpt lat="42.84063" lon="0.14374">
        <ele>2167</ele>
        <time>2020-07-28T08:54:18.066Z</time>
      </trkpt>
      <trkpt lat="42.84069" lon="0.14375">
        <ele>2169</ele>
        <time>2020-07-28T08:54:19.066Z</time>
      </trkpt>
      <trkpt lat="42.84069" lon="0.14375">
        <ele>2169</ele>
        <time>2020-07-28T08:54:20.066Z</time>
      </trkpt>
      <trkpt lat="42.84076" lon="0.14375">
        <ele>2163</ele>
        <time>2020-07-28T08:54:21.097Z</time>
      </trkpt>
      <trkpt lat="42.84079" lon="0.14376">
        <ele>2162</ele>
        <time>2020-07-28T08:54:22.097Z</time>
      </trkpt>
      <trkpt lat="42.84079" lon="0.14376">
        <ele>2162</ele>
        <time>2020-07-28T08:54:23.097Z</time>
      </trkpt>
      <trkpt lat="42.84079" lon="0.14376">
        <ele>2162</ele>
        <time>2020-07-28T08:54:24.097Z</time>
      </trkpt>
      <trkpt lat="42.84082" lon="0.14377">
        <ele>2163</ele>
        <time>2020-07-28T08:54:25.097Z</time>
      </trkpt>
      <trkpt lat="42.84082" lon="0.14377">
        <ele>2163</ele>
        <time>2020-07-28T08:54:26.097Z</time>
      </trkpt>
      <trkpt lat="42.84082" lon="0.14377">
        <ele>2163</ele>
        <time>2020-07-28T08:54:27.097Z</time>
      </trkpt>
      <trkpt lat="42.84087" lon="0.14381">
        <ele>2164</ele>
        <time>2020-07-28T08:54:28.097Z</time>
      </trkpt>
      <trkpt lat="42.84087" lon="0.14381">
        <ele>2164</ele>
        <time>2020-07-28T08:54:29.097Z</time>
      </trkpt>
      <trkpt lat="42.84087" lon="0.14381">
        <ele>2164</ele>
        <time>2020-07-28T08:54:30.097Z</time>
      </trkpt>
      <trkpt lat="42.84094" lon="0.14387">
        <ele>2165</ele>
        <time>2020-07-28T08:54:31.097Z</time>
      </trkpt>
      <trkpt lat="42.84094" lon="0.14387">
        <ele>2165</ele>
        <time>2020-07-28T08:54:32.097Z</time>
      </trkpt>
      <trkpt lat="42.84094" lon="0.14387">
        <ele>2165</ele>
        <time>2020-07-28T08:54:33.097Z</time>
      </trkpt>
      <trkpt lat="42.84101" lon="0.14391">
        <ele>2166</ele>
        <time>2020-07-28T08:54:34.097Z</time>
      </trkpt>
      <trkpt lat="42.84101" lon="0.14391">
        <ele>2166</ele>
        <time>2020-07-28T08:54:35.097Z</time>
      </trkpt>
      <trkpt lat="42.84101" lon="0.14391">
        <ele>2166</ele>
        <time>2020-07-28T08:54:36.097Z</time>
      </trkpt>
      <trkpt lat="42.84108" lon="0.14399">
        <ele>2167</ele>
        <time>2020-07-28T08:54:37.097Z</time>
      </trkpt>
      <trkpt lat="42.84108" lon="0.14399">
        <ele>2167</ele>
        <time>2020-07-28T08:54:38.097Z</time>
      </trkpt>
      <trkpt lat="42.84108" lon="0.14399">
        <ele>2167</ele>
        <time>2020-07-28T08:54:39.097Z</time>
      </trkpt>
      <trkpt lat="42.84115" lon="0.14406">
        <ele>2167</ele>
        <time>2020-07-28T08:54:40.097Z</time>
      </trkpt>
      <trkpt lat="42.84115" lon="0.14406">
        <ele>2167</ele>
        <time>2020-07-28T08:54:41.097Z</time>
      </trkpt>
      <trkpt lat="42.84115" lon="0.14406">
        <ele>2167</ele>
        <time>2020-07-28T08:54:42.097Z</time>
      </trkpt>
      <trkpt lat="42.84121" lon="0.14413">
        <ele>2167</ele>
        <time>2020-07-28T08:54:43.097Z</time>
      </trkpt>
      <trkpt lat="42.84121" lon="0.14413">
        <ele>2167</ele>
        <time>2020-07-28T08:54:44.097Z</time>
      </trkpt>
      <trkpt lat="42.84121" lon="0.14413">
        <ele>2167</ele>
        <time>2020-07-28T08:54:45.097Z</time>
      </trkpt>
      <trkpt lat="42.84126" lon="0.14419">
        <ele>2167</ele>
        <time>2020-07-28T08:54:46.097Z</time>
      </trkpt>
      <trkpt lat="42.84126" lon="0.14419">
        <ele>2167</ele>
        <time>2020-07-28T08:54:47.097Z</time>
      </trkpt>
      <trkpt lat="42.84126" lon="0.14419">
        <ele>2167</ele>
        <time>2020-07-28T08:54:48.097Z</time>
      </trkpt>
      <trkpt lat="42.84133" lon="0.14425">
        <ele>2166</ele>
        <time>2020-07-28T08:54:49.097Z</time>
      </trkpt>
      <trkpt lat="42.84133" lon="0.14425">
        <ele>2166</ele>
        <time>2020-07-28T08:54:50.097Z</time>
      </trkpt>
      <trkpt lat="42.84133" lon="0.14425">
        <ele>2166</ele>
        <time>2020-07-28T08:54:51.097Z</time>
      </trkpt>
      <trkpt lat="42.8414" lon="0.14432">
        <ele>2165</ele>
        <time>2020-07-28T08:54:52.097Z</time>
      </trkpt>
      <trkpt lat="42.8414" lon="0.14432">
        <ele>2165</ele>
        <time>2020-07-28T08:54:53.097Z</time>
      </trkpt>
      <trkpt lat="42.8414" lon="0.14432">
        <ele>2165</ele>
        <time>2020-07-28T08:54:54.097Z</time>
      </trkpt>
      <trkpt lat="42.84146" lon="0.14439">
        <ele>2167</ele>
        <time>2020-07-28T08:54:55.097Z</time>
      </trkpt>
      <trkpt lat="42.84146" lon="0.14439">
        <ele>2167</ele>
        <time>2020-07-28T08:54:56.097Z</time>
      </trkpt>
      <trkpt lat="42.84146" lon="0.14439">
        <ele>2167</ele>
        <time>2020-07-28T08:54:57.097Z</time>
      </trkpt>
      <trkpt lat="42.84152" lon="0.14446">
        <ele>2167</ele>
        <time>2020-07-28T08:54:58.097Z</time>
      </trkpt>
      <trkpt lat="42.84152" lon="0.14446">
        <ele>2167</ele>
        <time>2020-07-28T08:54:59.097Z</time>
      </trkpt>
      <trkpt lat="42.84152" lon="0.14446">
        <ele>2167</ele>
        <time>2020-07-28T08:55:00.097Z</time>
      </trkpt>
      <trkpt lat="42.84158" lon="0.14451">
        <ele>2168</ele>
        <time>2020-07-28T08:55:01.097Z</time>
      </trkpt>
      <trkpt lat="42.84158" lon="0.14451">
        <ele>2168</ele>
        <time>2020-07-28T08:55:02.097Z</time>
      </trkpt>
      <trkpt lat="42.84158" lon="0.14451">
        <ele>2168</ele>
        <time>2020-07-28T08:55:03.097Z</time>
      </trkpt>
      <trkpt lat="42.84166" lon="0.14456">
        <ele>2169</ele>
        <time>2020-07-28T08:55:04.097Z</time>
      </trkpt>
      <trkpt lat="42.84166" lon="0.14456">
        <ele>2169</ele>
        <time>2020-07-28T08:55:05.097Z</time>
      </trkpt>
      <trkpt lat="42.84166" lon="0.14456">
        <ele>2169</ele>
        <time>2020-07-28T08:55:06.097Z</time>
      </trkpt>
      <trkpt lat="42.84175" lon="0.14458">
        <ele>2170</ele>
        <time>2020-07-28T08:55:07.097Z</time>
      </trkpt>
      <trkpt lat="42.84175" lon="0.14458">
        <ele>2170</ele>
        <time>2020-07-28T08:55:08.097Z</time>
      </trkpt>
      <trkpt lat="42.84175" lon="0.14458">
        <ele>2170</ele>
        <time>2020-07-28T08:55:09.097Z</time>
      </trkpt>
      <trkpt lat="42.84183" lon="0.14461">
        <ele>2171</ele>
        <time>2020-07-28T08:55:10.097Z</time>
      </trkpt>
      <trkpt lat="42.84183" lon="0.14461">
        <ele>2171</ele>
        <time>2020-07-28T08:55:11.097Z</time>
      </trkpt>
      <trkpt lat="42.84183" lon="0.14461">
        <ele>2171</ele>
        <time>2020-07-28T08:55:12.097Z</time>
      </trkpt>
      <trkpt lat="42.84189" lon="0.14464">
        <ele>2172</ele>
        <time>2020-07-28T08:55:13.097Z</time>
      </trkpt>
      <trkpt lat="42.84189" lon="0.14464">
        <ele>2172</ele>
        <time>2020-07-28T08:55:14.097Z</time>
      </trkpt>
      <trkpt lat="42.84189" lon="0.14464">
        <ele>2172</ele>
        <time>2020-07-28T08:55:15.097Z</time>
      </trkpt>
      <trkpt lat="42.84196" lon="0.14467">
        <ele>2171</ele>
        <time>2020-07-28T08:55:16.097Z</time>
      </trkpt>
      <trkpt lat="42.84196" lon="0.14467">
        <ele>2171</ele>
        <time>2020-07-28T08:55:17.097Z</time>
      </trkpt>
      <trkpt lat="42.84196" lon="0.14467">
        <ele>2171</ele>
        <time>2020-07-28T08:55:18.097Z</time>
      </trkpt>
      <trkpt lat="42.84203" lon="0.14468">
        <ele>2173</ele>
        <time>2020-07-28T08:55:19.097Z</time>
      </trkpt>
      <trkpt lat="42.84206" lon="0.14468">
        <ele>2173</ele>
        <time>2020-07-28T08:55:20.097Z</time>
      </trkpt>
      <trkpt lat="42.84209" lon="0.14468">
        <ele>2173</ele>
        <time>2020-07-28T08:55:21.097Z</time>
      </trkpt>
      <trkpt lat="42.84212" lon="0.14467">
        <ele>2173</ele>
        <time>2020-07-28T08:55:22.097Z</time>
      </trkpt>
      <trkpt lat="42.84212" lon="0.14467">
        <ele>2173</ele>
        <time>2020-07-28T08:55:23.097Z</time>
      </trkpt>
      <trkpt lat="42.84212" lon="0.14467">
        <ele>2173</ele>
        <time>2020-07-28T08:55:24.097Z</time>
      </trkpt>
      <trkpt lat="42.8422" lon="0.14465">
        <ele>2173</ele>
        <time>2020-07-28T08:55:25.097Z</time>
      </trkpt>
      <trkpt lat="42.8422" lon="0.14465">
        <ele>2173</ele>
        <time>2020-07-28T08:55:26.097Z</time>
      </trkpt>
      <trkpt lat="42.8422" lon="0.14465">
        <ele>2173</ele>
        <time>2020-07-28T08:55:27.097Z</time>
      </trkpt>
      <trkpt lat="42.84228" lon="0.14463">
        <ele>2174</ele>
        <time>2020-07-28T08:55:28.097Z</time>
      </trkpt>
      <trkpt lat="42.84231" lon="0.14462">
        <ele>2173</ele>
        <time>2020-07-28T08:55:29.097Z</time>
      </trkpt>
      <trkpt lat="42.84233" lon="0.14461">
        <ele>2174</ele>
        <time>2020-07-28T08:55:30.097Z</time>
      </trkpt>
      <trkpt lat="42.84236" lon="0.1446">
        <ele>2173</ele>
        <time>2020-07-28T08:55:31.097Z</time>
      </trkpt>
      <trkpt lat="42.84236" lon="0.1446">
        <ele>2173</ele>
        <time>2020-07-28T08:55:32.097Z</time>
      </trkpt>
      <trkpt lat="42.84241" lon="0.1446">
        <ele>2172</ele>
        <time>2020-07-28T08:55:33.097Z</time>
      </trkpt>
      <trkpt lat="42.84243" lon="0.14459">
        <ele>2172</ele>
        <time>2020-07-28T08:55:34.097Z</time>
      </trkpt>
      <trkpt lat="42.84245" lon="0.14458">
        <ele>2173</ele>
        <time>2020-07-28T08:55:35.097Z</time>
      </trkpt>
      <trkpt lat="42.84245" lon="0.14458">
        <ele>2173</ele>
        <time>2020-07-28T08:55:36.097Z</time>
      </trkpt>
      <trkpt lat="42.84249" lon="0.14454">
        <ele>2174</ele>
        <time>2020-07-28T08:55:37.097Z</time>
      </trkpt>
      <trkpt lat="42.84251" lon="0.14453">
        <ele>2175</ele>
        <time>2020-07-28T08:55:38.097Z</time>
      </trkpt>
      <trkpt lat="42.84254" lon="0.14452">
        <ele>2174</ele>
        <time>2020-07-28T08:55:39.097Z</time>
      </trkpt>
      <trkpt lat="42.84256" lon="0.14451">
        <ele>2175</ele>
        <time>2020-07-28T08:55:40.097Z</time>
      </trkpt>
      <trkpt lat="42.84258" lon="0.1445">
        <ele>2175</ele>
        <time>2020-07-28T08:55:41.097Z</time>
      </trkpt>
      <trkpt lat="42.8426" lon="0.14449">
        <ele>2176</ele>
        <time>2020-07-28T08:55:42.097Z</time>
      </trkpt>
      <trkpt lat="42.84262" lon="0.14448">
        <ele>2176</ele>
        <time>2020-07-28T08:55:43.097Z</time>
      </trkpt>
      <trkpt lat="42.84262" lon="0.14448">
        <ele>2176</ele>
        <time>2020-07-28T08:55:44.097Z</time>
      </trkpt>
      <trkpt lat="42.84262" lon="0.14448">
        <ele>2176</ele>
        <time>2020-07-28T08:55:45.097Z</time>
      </trkpt>
      <trkpt lat="42.84269" lon="0.14447">
        <ele>2174</ele>
        <time>2020-07-28T08:55:46.097Z</time>
      </trkpt>
      <trkpt lat="42.84271" lon="0.14446">
        <ele>2176</ele>
        <time>2020-07-28T08:55:47.097Z</time>
      </trkpt>
      <trkpt lat="42.84273" lon="0.14444">
        <ele>2176</ele>
        <time>2020-07-28T08:55:48.097Z</time>
      </trkpt>
      <trkpt lat="42.84275" lon="0.14441">
        <ele>2177</ele>
        <time>2020-07-28T08:55:49.097Z</time>
      </trkpt>
      <trkpt lat="42.84277" lon="0.14439">
        <ele>2178</ele>
        <time>2020-07-28T08:55:50.097Z</time>
      </trkpt>
      <trkpt lat="42.84277" lon="0.14439">
        <ele>2178</ele>
        <time>2020-07-28T08:55:51.097Z</time>
      </trkpt>
      <trkpt lat="42.84282" lon="0.14435">
        <ele>2178</ele>
        <time>2020-07-28T08:55:52.097Z</time>
      </trkpt>
      <trkpt lat="42.84284" lon="0.14433">
        <ele>2179</ele>
        <time>2020-07-28T08:55:53.097Z</time>
      </trkpt>
      <trkpt lat="42.84284" lon="0.14433">
        <ele>2179</ele>
        <time>2020-07-28T08:55:54.097Z</time>
      </trkpt>
      <trkpt lat="42.84288" lon="0.1443">
        <ele>2178</ele>
        <time>2020-07-28T08:55:55.097Z</time>
      </trkpt>
      <trkpt lat="42.84288" lon="0.1443">
        <ele>2178</ele>
        <time>2020-07-28T08:55:56.097Z</time>
      </trkpt>
      <trkpt lat="42.84288" lon="0.1443">
        <ele>2178</ele>
        <time>2020-07-28T08:55:57.097Z</time>
      </trkpt>
      <trkpt lat="42.84295" lon="0.14426">
        <ele>2179</ele>
        <time>2020-07-28T08:55:58.097Z</time>
      </trkpt>
      <trkpt lat="42.84297" lon="0.14425">
        <ele>2179</ele>
        <time>2020-07-28T08:55:59.097Z</time>
      </trkpt>
      <trkpt lat="42.84297" lon="0.14425">
        <ele>2179</ele>
        <time>2020-07-28T08:56:00.097Z</time>
      </trkpt>
      <trkpt lat="42.84302" lon="0.14422">
        <ele>2180</ele>
        <time>2020-07-28T08:56:01.097Z</time>
      </trkpt>
      <trkpt lat="42.84304" lon="0.1442">
        <ele>2179</ele>
        <time>2020-07-28T08:56:02.097Z</time>
      </trkpt>
      <trkpt lat="42.84304" lon="0.1442">
        <ele>2179</ele>
        <time>2020-07-28T08:56:03.097Z</time>
      </trkpt>
      <trkpt lat="42.84308" lon="0.14415">
        <ele>2180</ele>
        <time>2020-07-28T08:56:04.097Z</time>
      </trkpt>
      <trkpt lat="42.84308" lon="0.14415">
        <ele>2180</ele>
        <time>2020-07-28T08:56:05.097Z</time>
      </trkpt>
      <trkpt lat="42.84314" lon="0.14412">
        <ele>2181</ele>
        <time>2020-07-28T08:56:06.097Z</time>
      </trkpt>
      <trkpt lat="42.84316" lon="0.1441">
        <ele>2181</ele>
        <time>2020-07-28T08:56:07.097Z</time>
      </trkpt>
      <trkpt lat="42.84316" lon="0.1441">
        <ele>2181</ele>
        <time>2020-07-28T08:56:08.097Z</time>
      </trkpt>
      <trkpt lat="42.8432" lon="0.14408">
        <ele>2182</ele>
        <time>2020-07-28T08:56:09.097Z</time>
      </trkpt>
      <trkpt lat="42.84322" lon="0.14407">
        <ele>2183</ele>
        <time>2020-07-28T08:56:10.097Z</time>
      </trkpt>
      <trkpt lat="42.84322" lon="0.14407">
        <ele>2183</ele>
        <time>2020-07-28T08:56:11.097Z</time>
      </trkpt>
      <trkpt lat="42.84322" lon="0.14407">
        <ele>2183</ele>
        <time>2020-07-28T08:56:12.097Z</time>
      </trkpt>
      <trkpt lat="42.84327" lon="0.14404">
        <ele>2182</ele>
        <time>2020-07-28T08:56:13.097Z</time>
      </trkpt>
      <trkpt lat="42.84327" lon="0.14404">
        <ele>2182</ele>
        <time>2020-07-28T08:56:14.097Z</time>
      </trkpt>
      <trkpt lat="42.84327" lon="0.14404">
        <ele>2182</ele>
        <time>2020-07-28T08:56:15.097Z</time>
      </trkpt>
      <trkpt lat="42.84332" lon="0.14398">
        <ele>2183</ele>
        <time>2020-07-28T08:56:16.097Z</time>
      </trkpt>
      <trkpt lat="42.84332" lon="0.14398">
        <ele>2183</ele>
        <time>2020-07-28T08:56:17.097Z</time>
      </trkpt>
      <trkpt lat="42.84332" lon="0.14398">
        <ele>2183</ele>
        <time>2020-07-28T08:56:18.097Z</time>
      </trkpt>
      <trkpt lat="42.8434" lon="0.14393">
        <ele>2184</ele>
        <time>2020-07-28T08:56:19.097Z</time>
      </trkpt>
      <trkpt lat="42.84343" lon="0.14392">
        <ele>2184</ele>
        <time>2020-07-28T08:56:20.097Z</time>
      </trkpt>
      <trkpt lat="42.84343" lon="0.14392">
        <ele>2184</ele>
        <time>2020-07-28T08:56:21.097Z</time>
      </trkpt>
      <trkpt lat="42.84347" lon="0.14391">
        <ele>2185</ele>
        <time>2020-07-28T08:56:22.097Z</time>
      </trkpt>
      <trkpt lat="42.84347" lon="0.14391">
        <ele>2185</ele>
        <time>2020-07-28T08:56:23.097Z</time>
      </trkpt>
      <trkpt lat="42.84347" lon="0.14391">
        <ele>2185</ele>
        <time>2020-07-28T08:56:24.097Z</time>
      </trkpt>
      <trkpt lat="42.84353" lon="0.14388">
        <ele>2184</ele>
        <time>2020-07-28T08:56:25.097Z</time>
      </trkpt>
      <trkpt lat="42.84353" lon="0.14388">
        <ele>2184</ele>
        <time>2020-07-28T08:56:26.097Z</time>
      </trkpt>
      <trkpt lat="42.84353" lon="0.14388">
        <ele>2184</ele>
        <time>2020-07-28T08:56:27.097Z</time>
      </trkpt>
      <trkpt lat="42.84359" lon="0.14386">
        <ele>2186</ele>
        <time>2020-07-28T08:56:28.097Z</time>
      </trkpt>
      <trkpt lat="42.84359" lon="0.14386">
        <ele>2186</ele>
        <time>2020-07-28T08:56:29.097Z</time>
      </trkpt>
      <trkpt lat="42.84359" lon="0.14386">
        <ele>2186</ele>
        <time>2020-07-28T08:56:30.097Z</time>
      </trkpt>
      <trkpt lat="42.84365" lon="0.14388">
        <ele>2188</ele>
        <time>2020-07-28T08:56:31.097Z</time>
      </trkpt>
      <trkpt lat="42.84365" lon="0.14388">
        <ele>2188</ele>
        <time>2020-07-28T08:56:32.097Z</time>
      </trkpt>
      <trkpt lat="42.84365" lon="0.14388">
        <ele>2188</ele>
        <time>2020-07-28T08:56:33.097Z</time>
      </trkpt>
      <trkpt lat="42.84371" lon="0.14388">
        <ele>2189</ele>
        <time>2020-07-28T08:56:34.097Z</time>
      </trkpt>
      <trkpt lat="42.84373" lon="0.14388">
        <ele>2189</ele>
        <time>2020-07-28T08:56:35.097Z</time>
      </trkpt>
      <trkpt lat="42.84373" lon="0.14388">
        <ele>2189</ele>
        <time>2020-07-28T08:56:36.097Z</time>
      </trkpt>
      <trkpt lat="42.84377" lon="0.14386">
        <ele>2190</ele>
        <time>2020-07-28T08:56:37.097Z</time>
      </trkpt>
      <trkpt lat="42.84377" lon="0.14386">
        <ele>2190</ele>
        <time>2020-07-28T08:56:38.097Z</time>
      </trkpt>
      <trkpt lat="42.84377" lon="0.14386">
        <ele>2190</ele>
        <time>2020-07-28T08:56:39.097Z</time>
      </trkpt>
      <trkpt lat="42.84383" lon="0.14384">
        <ele>2192</ele>
        <time>2020-07-28T08:56:40.097Z</time>
      </trkpt>
      <trkpt lat="42.84383" lon="0.14384">
        <ele>2192</ele>
        <time>2020-07-28T08:56:41.097Z</time>
      </trkpt>
      <trkpt lat="42.84383" lon="0.14384">
        <ele>2192</ele>
        <time>2020-07-28T08:56:42.097Z</time>
      </trkpt>
      <trkpt lat="42.84387" lon="0.14384">
        <ele>2193</ele>
        <time>2020-07-28T08:56:43.097Z</time>
      </trkpt>
      <trkpt lat="42.84387" lon="0.14384">
        <ele>2193</ele>
        <time>2020-07-28T08:56:44.097Z</time>
      </trkpt>
      <trkpt lat="42.8439" lon="0.14384">
        <ele>2194</ele>
        <time>2020-07-28T08:56:45.097Z</time>
      </trkpt>
      <trkpt lat="42.84391" lon="0.14384">
        <ele>2194</ele>
        <time>2020-07-28T08:56:46.097Z</time>
      </trkpt>
      <trkpt lat="42.84391" lon="0.14384">
        <ele>2194</ele>
        <time>2020-07-28T08:56:47.097Z</time>
      </trkpt>
      <trkpt lat="42.84391" lon="0.14384">
        <ele>2194</ele>
        <time>2020-07-28T08:56:48.097Z</time>
      </trkpt>
      <trkpt lat="42.84397" lon="0.14384">
        <ele>2195</ele>
        <time>2020-07-28T08:56:49.097Z</time>
      </trkpt>
      <trkpt lat="42.84399" lon="0.14385">
        <ele>2195</ele>
        <time>2020-07-28T08:56:50.097Z</time>
      </trkpt>
      <trkpt lat="42.84399" lon="0.14385">
        <ele>2195</ele>
        <time>2020-07-28T08:56:51.097Z</time>
      </trkpt>
      <trkpt lat="42.84403" lon="0.14387">
        <ele>2196</ele>
        <time>2020-07-28T08:56:52.097Z</time>
      </trkpt>
      <trkpt lat="42.84403" lon="0.14387">
        <ele>2196</ele>
        <time>2020-07-28T08:56:53.097Z</time>
      </trkpt>
      <trkpt lat="42.84403" lon="0.14387">
        <ele>2196</ele>
        <time>2020-07-28T08:56:54.097Z</time>
      </trkpt>
      <trkpt lat="42.84409" lon="0.14394">
        <ele>2196</ele>
        <time>2020-07-28T08:56:55.097Z</time>
      </trkpt>
      <trkpt lat="42.84411" lon="0.14397">
        <ele>2196</ele>
        <time>2020-07-28T08:56:56.097Z</time>
      </trkpt>
      <trkpt lat="42.84411" lon="0.14397">
        <ele>2196</ele>
        <time>2020-07-28T08:56:57.097Z</time>
      </trkpt>
      <trkpt lat="42.84414" lon="0.14401">
        <ele>2197</ele>
        <time>2020-07-28T08:56:58.097Z</time>
      </trkpt>
      <trkpt lat="42.84415" lon="0.14403">
        <ele>2198</ele>
        <time>2020-07-28T08:56:59.097Z</time>
      </trkpt>
      <trkpt lat="42.84415" lon="0.14403">
        <ele>2197</ele>
        <time>2020-07-28T08:57:00.097Z</time>
      </trkpt>
      <trkpt lat="42.84416" lon="0.14404">
        <ele>2198</ele>
        <time>2020-07-28T08:57:01.097Z</time>
      </trkpt>
      <trkpt lat="42.84417" lon="0.14405">
        <ele>2199</ele>
        <time>2020-07-28T08:57:02.097Z</time>
      </trkpt>
      <trkpt lat="42.84417" lon="0.14405">
        <ele>2199</ele>
        <time>2020-07-28T08:57:03.097Z</time>
      </trkpt>
      <trkpt lat="42.84417" lon="0.14405">
        <ele>2199</ele>
        <time>2020-07-28T08:57:04.097Z</time>
      </trkpt>
      <trkpt lat="42.84417" lon="0.14405">
        <ele>2199</ele>
        <time>2020-07-28T08:57:05.097Z</time>
      </trkpt>
      <trkpt lat="42.84417" lon="0.14405">
        <ele>2199</ele>
        <time>2020-07-28T08:57:06.097Z</time>
      </trkpt>
      <trkpt lat="42.84419" lon="0.14405">
        <ele>2198</ele>
        <time>2020-07-28T08:57:07.097Z</time>
      </trkpt>
      <trkpt lat="42.8442" lon="0.14405">
        <ele>2198</ele>
        <time>2020-07-28T08:57:08.097Z</time>
      </trkpt>
      <trkpt lat="42.8442" lon="0.14405">
        <ele>2198</ele>
        <time>2020-07-28T08:57:09.097Z</time>
      </trkpt>
      <trkpt lat="42.84423" lon="0.14404">
        <ele>2199</ele>
        <time>2020-07-28T08:57:10.097Z</time>
      </trkpt>
      <trkpt lat="42.84423" lon="0.14404">
        <ele>2199</ele>
        <time>2020-07-28T08:57:11.097Z</time>
      </trkpt>
      <trkpt lat="42.84423" lon="0.14404">
        <ele>2199</ele>
        <time>2020-07-28T08:57:12.097Z</time>
      </trkpt>
      <trkpt lat="42.84428" lon="0.14404">
        <ele>2201</ele>
        <time>2020-07-28T08:57:13.097Z</time>
      </trkpt>
      <trkpt lat="42.84431" lon="0.14404">
        <ele>2201</ele>
        <time>2020-07-28T08:57:14.097Z</time>
      </trkpt>
      <trkpt lat="42.84431" lon="0.14404">
        <ele>2201</ele>
        <time>2020-07-28T08:57:15.097Z</time>
      </trkpt>
      <trkpt lat="42.84436" lon="0.14405">
        <ele>2202</ele>
        <time>2020-07-28T08:57:16.097Z</time>
      </trkpt>
      <trkpt lat="42.84436" lon="0.14405">
        <ele>2202</ele>
        <time>2020-07-28T08:57:17.097Z</time>
      </trkpt>
      <trkpt lat="42.84436" lon="0.14405">
        <ele>2202</ele>
        <time>2020-07-28T08:57:18.097Z</time>
      </trkpt>
      <trkpt lat="42.84445" lon="0.14407">
        <ele>2202</ele>
        <time>2020-07-28T08:57:19.097Z</time>
      </trkpt>
      <trkpt lat="42.84445" lon="0.14407">
        <ele>2202</ele>
        <time>2020-07-28T08:57:20.097Z</time>
      </trkpt>
      <trkpt lat="42.84445" lon="0.14407">
        <ele>2202</ele>
        <time>2020-07-28T08:57:21.097Z</time>
      </trkpt>
      <trkpt lat="42.84454" lon="0.1441">
        <ele>2201</ele>
        <time>2020-07-28T08:57:22.097Z</time>
      </trkpt>
      <trkpt lat="42.84454" lon="0.1441">
        <ele>2201</ele>
        <time>2020-07-28T08:57:23.097Z</time>
      </trkpt>
      <trkpt lat="42.84454" lon="0.1441">
        <ele>2201</ele>
        <time>2020-07-28T08:57:24.097Z</time>
      </trkpt>
      <trkpt lat="42.84461" lon="0.14411">
        <ele>2201</ele>
        <time>2020-07-28T08:57:25.097Z</time>
      </trkpt>
      <trkpt lat="42.84461" lon="0.14411">
        <ele>2201</ele>
        <time>2020-07-28T08:57:26.097Z</time>
      </trkpt>
      <trkpt lat="42.84466" lon="0.14409">
        <ele>2200</ele>
        <time>2020-07-28T08:57:27.097Z</time>
      </trkpt>
      <trkpt lat="42.84469" lon="0.14409">
        <ele>2200</ele>
        <time>2020-07-28T08:57:28.097Z</time>
      </trkpt>
      <trkpt lat="42.84469" lon="0.14409">
        <ele>2200</ele>
        <time>2020-07-28T08:57:29.097Z</time>
      </trkpt>
      <trkpt lat="42.84469" lon="0.14409">
        <ele>2200</ele>
        <time>2020-07-28T08:57:30.097Z</time>
      </trkpt>
      <trkpt lat="42.84476" lon="0.14412">
        <ele>2200</ele>
        <time>2020-07-28T08:57:31.097Z</time>
      </trkpt>
      <trkpt lat="42.84476" lon="0.14412">
        <ele>2200</ele>
        <time>2020-07-28T08:57:32.097Z</time>
      </trkpt>
      <trkpt lat="42.84476" lon="0.14412">
        <ele>2200</ele>
        <time>2020-07-28T08:57:33.097Z</time>
      </trkpt>
      <trkpt lat="42.84484" lon="0.14414">
        <ele>2199</ele>
        <time>2020-07-28T08:57:34.097Z</time>
      </trkpt>
      <trkpt lat="42.84484" lon="0.14414">
        <ele>2199</ele>
        <time>2020-07-28T08:57:35.097Z</time>
      </trkpt>
      <trkpt lat="42.84484" lon="0.14414">
        <ele>2199</ele>
        <time>2020-07-28T08:57:36.097Z</time>
      </trkpt>
      <trkpt lat="42.84491" lon="0.14414">
        <ele>2199</ele>
        <time>2020-07-28T08:57:37.097Z</time>
      </trkpt>
      <trkpt lat="42.84491" lon="0.14414">
        <ele>2199</ele>
        <time>2020-07-28T08:57:38.097Z</time>
      </trkpt>
      <trkpt lat="42.84496" lon="0.14412">
        <ele>2199</ele>
        <time>2020-07-28T08:57:39.097Z</time>
      </trkpt>
      <trkpt lat="42.84497" lon="0.14411">
        <ele>2199</ele>
        <time>2020-07-28T08:57:40.097Z</time>
      </trkpt>
      <trkpt lat="42.84497" lon="0.14411">
        <ele>2199</ele>
        <time>2020-07-28T08:57:41.097Z</time>
      </trkpt>
      <trkpt lat="42.84499" lon="0.14409">
        <ele>2199</ele>
        <time>2020-07-28T08:57:42.097Z</time>
      </trkpt>
      <trkpt lat="42.84499" lon="0.14408">
        <ele>2199</ele>
        <time>2020-07-28T08:57:43.097Z</time>
      </trkpt>
      <trkpt lat="42.845" lon="0.14408">
        <ele>2198</ele>
        <time>2020-07-28T08:57:44.097Z</time>
      </trkpt>
      <trkpt lat="42.845" lon="0.14408">
        <ele>2198</ele>
        <time>2020-07-28T08:57:45.097Z</time>
      </trkpt>
      <trkpt lat="42.84499" lon="0.14407">
        <ele>2199</ele>
        <time>2020-07-28T08:57:46.097Z</time>
      </trkpt>
      <trkpt lat="42.84499" lon="0.14407">
        <ele>2199</ele>
        <time>2020-07-28T08:57:47.097Z</time>
      </trkpt>
      <trkpt lat="42.84499" lon="0.14407">
        <ele>2200</ele>
        <time>2020-07-28T08:57:48.097Z</time>
      </trkpt>
      <trkpt lat="42.84498" lon="0.14406">
        <ele>2200</ele>
        <time>2020-07-28T08:57:49.097Z</time>
      </trkpt>
      <trkpt lat="42.84498" lon="0.14404">
        <ele>2200</ele>
        <time>2020-07-28T08:57:50.097Z</time>
      </trkpt>
      <trkpt lat="42.84497" lon="0.14402">
        <ele>2199</ele>
        <time>2020-07-28T08:57:51.097Z</time>
      </trkpt>
      <trkpt lat="42.84497" lon="0.14399">
        <ele>2198</ele>
        <time>2020-07-28T08:57:52.097Z</time>
      </trkpt>
      <trkpt lat="42.84497" lon="0.14399">
        <ele>2198</ele>
        <time>2020-07-28T08:57:53.097Z</time>
      </trkpt>
      <trkpt lat="42.84497" lon="0.14399">
        <ele>2198</ele>
        <time>2020-07-28T08:57:54.097Z</time>
      </trkpt>
      <trkpt lat="42.84498" lon="0.14392">
        <ele>2198</ele>
        <time>2020-07-28T08:57:55.097Z</time>
      </trkpt>
      <trkpt lat="42.84499" lon="0.1439">
        <ele>2198</ele>
        <time>2020-07-28T08:57:56.097Z</time>
      </trkpt>
      <trkpt lat="42.84499" lon="0.1439">
        <ele>2198</ele>
        <time>2020-07-28T08:57:57.097Z</time>
      </trkpt>
      <trkpt lat="42.84501" lon="0.14389">
        <ele>2198</ele>
        <time>2020-07-28T08:57:58.097Z</time>
      </trkpt>
      <trkpt lat="42.84501" lon="0.14389">
        <ele>2198</ele>
        <time>2020-07-28T08:57:59.097Z</time>
      </trkpt>
      <trkpt lat="42.84501" lon="0.14389">
        <ele>2198</ele>
        <time>2020-07-28T08:58:00.097Z</time>
      </trkpt>
      <trkpt lat="42.84505" lon="0.14385">
        <ele>2194</ele>
        <time>2020-07-28T08:58:01.097Z</time>
      </trkpt>
      <trkpt lat="42.84505" lon="0.14385">
        <ele>2194</ele>
        <time>2020-07-28T08:58:02.097Z</time>
      </trkpt>
      <trkpt lat="42.84505" lon="0.14385">
        <ele>2194</ele>
        <time>2020-07-28T08:58:03.097Z</time>
      </trkpt>
      <trkpt lat="42.84511" lon="0.1438">
        <ele>2193</ele>
        <time>2020-07-28T08:58:04.097Z</time>
      </trkpt>
      <trkpt lat="42.84511" lon="0.1438">
        <ele>2193</ele>
        <time>2020-07-28T08:58:05.097Z</time>
      </trkpt>
      <trkpt lat="42.84515" lon="0.14374">
        <ele>2194</ele>
        <time>2020-07-28T08:58:06.097Z</time>
      </trkpt>
      <trkpt lat="42.84518" lon="0.1437">
        <ele>2193</ele>
        <time>2020-07-28T08:58:07.097Z</time>
      </trkpt>
      <trkpt lat="42.84518" lon="0.1437">
        <ele>2193</ele>
        <time>2020-07-28T08:58:08.097Z</time>
      </trkpt>
      <trkpt lat="42.84518" lon="0.1437">
        <ele>2193</ele>
        <time>2020-07-28T08:58:09.097Z</time>
      </trkpt>
      <trkpt lat="42.84524" lon="0.14361">
        <ele>2193</ele>
        <time>2020-07-28T08:58:10.097Z</time>
      </trkpt>
      <trkpt lat="42.84527" lon="0.14359">
        <ele>2193</ele>
        <time>2020-07-28T08:58:11.097Z</time>
      </trkpt>
      <trkpt lat="42.84527" lon="0.14359">
        <ele>2193</ele>
        <time>2020-07-28T08:58:12.097Z</time>
      </trkpt>
      <trkpt lat="42.84531" lon="0.14355">
        <ele>2194</ele>
        <time>2020-07-28T08:58:13.097Z</time>
      </trkpt>
      <trkpt lat="42.84531" lon="0.14355">
        <ele>2194</ele>
        <time>2020-07-28T08:58:14.097Z</time>
      </trkpt>
      <trkpt lat="42.84531" lon="0.14355">
        <ele>2194</ele>
        <time>2020-07-28T08:58:15.097Z</time>
      </trkpt>
      <trkpt lat="42.84538" lon="0.14349">
        <ele>2195</ele>
        <time>2020-07-28T08:58:16.097Z</time>
      </trkpt>
      <trkpt lat="42.84538" lon="0.14349">
        <ele>2195</ele>
        <time>2020-07-28T08:58:17.097Z</time>
      </trkpt>
      <trkpt lat="42.84538" lon="0.14349">
        <ele>2195</ele>
        <time>2020-07-28T08:58:18.097Z</time>
      </trkpt>
      <trkpt lat="42.84544" lon="0.14345">
        <ele>2196</ele>
        <time>2020-07-28T08:58:19.097Z</time>
      </trkpt>
      <trkpt lat="42.84544" lon="0.14345">
        <ele>2196</ele>
        <time>2020-07-28T08:58:20.097Z</time>
      </trkpt>
      <trkpt lat="42.84544" lon="0.14345">
        <ele>2196</ele>
        <time>2020-07-28T08:58:21.097Z</time>
      </trkpt>
      <trkpt lat="42.84551" lon="0.14342">
        <ele>2196</ele>
        <time>2020-07-28T08:58:22.097Z</time>
      </trkpt>
      <trkpt lat="42.84551" lon="0.14342">
        <ele>2196</ele>
        <time>2020-07-28T08:58:23.097Z</time>
      </trkpt>
      <trkpt lat="42.84551" lon="0.14342">
        <ele>2196</ele>
        <time>2020-07-28T08:58:24.097Z</time>
      </trkpt>
      <trkpt lat="42.8456" lon="0.14341">
        <ele>2196</ele>
        <time>2020-07-28T08:58:25.097Z</time>
      </trkpt>
      <trkpt lat="42.8456" lon="0.14341">
        <ele>2196</ele>
        <time>2020-07-28T08:58:26.097Z</time>
      </trkpt>
      <trkpt lat="42.8456" lon="0.14341">
        <ele>2196</ele>
        <time>2020-07-28T08:58:27.097Z</time>
      </trkpt>
      <trkpt lat="42.84568" lon="0.14343">
        <ele>2197</ele>
        <time>2020-07-28T08:58:28.097Z</time>
      </trkpt>
      <trkpt lat="42.84571" lon="0.14345">
        <ele>2197</ele>
        <time>2020-07-28T08:58:29.097Z</time>
      </trkpt>
      <trkpt lat="42.84571" lon="0.14345">
        <ele>2197</ele>
        <time>2020-07-28T08:58:30.097Z</time>
      </trkpt>
      <trkpt lat="42.84577" lon="0.14348">
        <ele>2197</ele>
        <time>2020-07-28T08:58:31.097Z</time>
      </trkpt>
      <trkpt lat="42.84577" lon="0.14348">
        <ele>2197</ele>
        <time>2020-07-28T08:58:32.097Z</time>
      </trkpt>
      <trkpt lat="42.84577" lon="0.14348">
        <ele>2197</ele>
        <time>2020-07-28T08:58:33.097Z</time>
      </trkpt>
      <trkpt lat="42.84586" lon="0.14351">
        <ele>2198</ele>
        <time>2020-07-28T08:58:34.097Z</time>
      </trkpt>
      <trkpt lat="42.84586" lon="0.14351">
        <ele>2198</ele>
        <time>2020-07-28T08:58:35.097Z</time>
      </trkpt>
      <trkpt lat="42.84586" lon="0.14351">
        <ele>2198</ele>
        <time>2020-07-28T08:58:36.097Z</time>
      </trkpt>
      <trkpt lat="42.84596" lon="0.14354">
        <ele>2199</ele>
        <time>2020-07-28T08:58:37.097Z</time>
      </trkpt>
      <trkpt lat="42.84596" lon="0.14354">
        <ele>2199</ele>
        <time>2020-07-28T08:58:38.097Z</time>
      </trkpt>
      <trkpt lat="42.84596" lon="0.14354">
        <ele>2199</ele>
        <time>2020-07-28T08:58:39.097Z</time>
      </trkpt>
      <trkpt lat="42.84605" lon="0.14357">
        <ele>2200</ele>
        <time>2020-07-28T08:58:40.097Z</time>
      </trkpt>
      <trkpt lat="42.84608" lon="0.14358">
        <ele>2199</ele>
        <time>2020-07-28T08:58:41.097Z</time>
      </trkpt>
      <trkpt lat="42.84608" lon="0.14358">
        <ele>2199</ele>
        <time>2020-07-28T08:58:42.097Z</time>
      </trkpt>
      <trkpt lat="42.84614" lon="0.1436">
        <ele>2198</ele>
        <time>2020-07-28T08:58:43.097Z</time>
      </trkpt>
      <trkpt lat="42.84618" lon="0.14361">
        <ele>2198</ele>
        <time>2020-07-28T08:58:44.097Z</time>
      </trkpt>
      <trkpt lat="42.84618" lon="0.14361">
        <ele>2198</ele>
        <time>2020-07-28T08:58:45.097Z</time>
      </trkpt>
      <trkpt lat="42.84624" lon="0.14364">
        <ele>2198</ele>
        <time>2020-07-28T08:58:46.097Z</time>
      </trkpt>
      <trkpt lat="42.84627" lon="0.14365">
        <ele>2198</ele>
        <time>2020-07-28T08:58:47.097Z</time>
      </trkpt>
      <trkpt lat="42.84627" lon="0.14365">
        <ele>2198</ele>
        <time>2020-07-28T08:58:48.097Z</time>
      </trkpt>
      <trkpt lat="42.84633" lon="0.14366">
        <ele>2198</ele>
        <time>2020-07-28T08:58:49.097Z</time>
      </trkpt>
      <trkpt lat="42.84633" lon="0.14366">
        <ele>2198</ele>
        <time>2020-07-28T08:58:50.097Z</time>
      </trkpt>
      <trkpt lat="42.84633" lon="0.14366">
        <ele>2198</ele>
        <time>2020-07-28T08:58:51.097Z</time>
      </trkpt>
      <trkpt lat="42.8464" lon="0.14364">
        <ele>2197</ele>
        <time>2020-07-28T08:58:52.097Z</time>
      </trkpt>
      <trkpt lat="42.8464" lon="0.14364">
        <ele>2197</ele>
        <time>2020-07-28T08:58:53.097Z</time>
      </trkpt>
      <trkpt lat="42.8464" lon="0.14364">
        <ele>2197</ele>
        <time>2020-07-28T08:58:54.097Z</time>
      </trkpt>
      <trkpt lat="42.84646" lon="0.1436">
        <ele>2198</ele>
        <time>2020-07-28T08:58:55.097Z</time>
      </trkpt>
      <trkpt lat="42.84646" lon="0.1436">
        <ele>2198</ele>
        <time>2020-07-28T08:58:56.097Z</time>
      </trkpt>
      <trkpt lat="42.84646" lon="0.1436">
        <ele>2198</ele>
        <time>2020-07-28T08:58:57.097Z</time>
      </trkpt>
      <trkpt lat="42.84651" lon="0.14358">
        <ele>2203</ele>
        <time>2020-07-28T08:58:58.097Z</time>
      </trkpt>
      <trkpt lat="42.84651" lon="0.14357">
        <ele>2202</ele>
        <time>2020-07-28T08:58:59.097Z</time>
      </trkpt>
      <trkpt lat="42.84651" lon="0.14357">
        <ele>2200</ele>
        <time>2020-07-28T08:59:00.097Z</time>
      </trkpt>
      <trkpt lat="42.84651" lon="0.14357">
        <ele>2200</ele>
        <time>2020-07-28T08:59:01.097Z</time>
      </trkpt>
      <trkpt lat="42.84652" lon="0.14358">
        <ele>2202</ele>
        <time>2020-07-28T08:59:02.112Z</time>
      </trkpt>
      <trkpt lat="42.84652" lon="0.14358">
        <ele>2202</ele>
        <time>2020-07-28T08:59:03.112Z</time>
      </trkpt>
      <trkpt lat="42.84653" lon="0.14357">
        <ele>2201</ele>
        <time>2020-07-28T08:59:04.112Z</time>
      </trkpt>
      <trkpt lat="42.84653" lon="0.14357">
        <ele>2201</ele>
        <time>2020-07-28T08:59:05.112Z</time>
      </trkpt>
      <trkpt lat="42.84656" lon="0.14354">
        <ele>2201</ele>
        <time>2020-07-28T08:59:06.112Z</time>
      </trkpt>
      <trkpt lat="42.84657" lon="0.14352">
        <ele>2201</ele>
        <time>2020-07-28T08:59:07.112Z</time>
      </trkpt>
      <trkpt lat="42.84657" lon="0.14352">
        <ele>2201</ele>
        <time>2020-07-28T08:59:08.112Z</time>
      </trkpt>
      <trkpt lat="42.84657" lon="0.14352">
        <ele>2201</ele>
        <time>2020-07-28T08:59:09.112Z</time>
      </trkpt>
      <trkpt lat="42.8466" lon="0.14348">
        <ele>2202</ele>
        <time>2020-07-28T08:59:10.112Z</time>
      </trkpt>
      <trkpt lat="42.8466" lon="0.14348">
        <ele>2202</ele>
        <time>2020-07-28T08:59:11.112Z</time>
      </trkpt>
      <trkpt lat="42.8466" lon="0.14348">
        <ele>2202</ele>
        <time>2020-07-28T08:59:12.112Z</time>
      </trkpt>
      <trkpt lat="42.84665" lon="0.14341">
        <ele>2202</ele>
        <time>2020-07-28T08:59:13.112Z</time>
      </trkpt>
      <trkpt lat="42.84665" lon="0.14341">
        <ele>2202</ele>
        <time>2020-07-28T08:59:14.112Z</time>
      </trkpt>
      <trkpt lat="42.84668" lon="0.14338">
        <ele>2202</ele>
        <time>2020-07-28T08:59:15.112Z</time>
      </trkpt>
      <trkpt lat="42.8467" lon="0.14336">
        <ele>2202</ele>
        <time>2020-07-28T08:59:16.112Z</time>
      </trkpt>
      <trkpt lat="42.8467" lon="0.14336">
        <ele>2202</ele>
        <time>2020-07-28T08:59:17.112Z</time>
      </trkpt>
      <trkpt lat="42.8467" lon="0.14336">
        <ele>2202</ele>
        <time>2020-07-28T08:59:18.112Z</time>
      </trkpt>
      <trkpt lat="42.84677" lon="0.14331">
        <ele>2202</ele>
        <time>2020-07-28T08:59:19.112Z</time>
      </trkpt>
      <trkpt lat="42.84677" lon="0.14331">
        <ele>2202</ele>
        <time>2020-07-28T08:59:20.112Z</time>
      </trkpt>
      <trkpt lat="42.84677" lon="0.14331">
        <ele>2202</ele>
        <time>2020-07-28T08:59:21.112Z</time>
      </trkpt>
      <trkpt lat="42.84684" lon="0.14328">
        <ele>2202</ele>
        <time>2020-07-28T08:59:22.112Z</time>
      </trkpt>
      <trkpt lat="42.84684" lon="0.14328">
        <ele>2202</ele>
        <time>2020-07-28T08:59:23.112Z</time>
      </trkpt>
      <trkpt lat="42.84684" lon="0.14328">
        <ele>2202</ele>
        <time>2020-07-28T08:59:24.112Z</time>
      </trkpt>
      <trkpt lat="42.84689" lon="0.14321">
        <ele>2203</ele>
        <time>2020-07-28T08:59:25.112Z</time>
      </trkpt>
      <trkpt lat="42.84689" lon="0.14321">
        <ele>2203</ele>
        <time>2020-07-28T08:59:26.112Z</time>
      </trkpt>
      <trkpt lat="42.84689" lon="0.14321">
        <ele>2203</ele>
        <time>2020-07-28T08:59:27.112Z</time>
      </trkpt>
      <trkpt lat="42.84693" lon="0.14314">
        <ele>2204</ele>
        <time>2020-07-28T08:59:28.112Z</time>
      </trkpt>
      <trkpt lat="42.84693" lon="0.14314">
        <ele>2204</ele>
        <time>2020-07-28T08:59:29.112Z</time>
      </trkpt>
      <trkpt lat="42.84693" lon="0.14314">
        <ele>2204</ele>
        <time>2020-07-28T08:59:30.112Z</time>
      </trkpt>
      <trkpt lat="42.84699" lon="0.14304">
        <ele>2205</ele>
        <time>2020-07-28T08:59:31.112Z</time>
      </trkpt>
      <trkpt lat="42.84699" lon="0.14304">
        <ele>2205</ele>
        <time>2020-07-28T08:59:32.112Z</time>
      </trkpt>
      <trkpt lat="42.847" lon="0.14301">
        <ele>2204</ele>
        <time>2020-07-28T08:59:33.112Z</time>
      </trkpt>
      <trkpt lat="42.84702" lon="0.14296">
        <ele>2205</ele>
        <time>2020-07-28T08:59:34.112Z</time>
      </trkpt>
      <trkpt lat="42.84702" lon="0.14296">
        <ele>2205</ele>
        <time>2020-07-28T08:59:35.112Z</time>
      </trkpt>
      <trkpt lat="42.84702" lon="0.14296">
        <ele>2205</ele>
        <time>2020-07-28T08:59:36.112Z</time>
      </trkpt>
      <trkpt lat="42.84704" lon="0.14291">
        <ele>2205</ele>
        <time>2020-07-28T08:59:37.112Z</time>
      </trkpt>
      <trkpt lat="42.84704" lon="0.14291">
        <ele>2205</ele>
        <time>2020-07-28T08:59:38.112Z</time>
      </trkpt>
      <trkpt lat="42.84704" lon="0.14291">
        <ele>2205</ele>
        <time>2020-07-28T08:59:39.112Z</time>
      </trkpt>
      <trkpt lat="42.84705" lon="0.14282">
        <ele>2205</ele>
        <time>2020-07-28T08:59:40.112Z</time>
      </trkpt>
      <trkpt lat="42.84705" lon="0.14282">
        <ele>2205</ele>
        <time>2020-07-28T08:59:41.112Z</time>
      </trkpt>
      <trkpt lat="42.84705" lon="0.14282">
        <ele>2205</ele>
        <time>2020-07-28T08:59:42.112Z</time>
      </trkpt>
      <trkpt lat="42.84705" lon="0.14275">
        <ele>2207</ele>
        <time>2020-07-28T08:59:43.112Z</time>
      </trkpt>
      <trkpt lat="42.84705" lon="0.14275">
        <ele>2207</ele>
        <time>2020-07-28T08:59:44.112Z</time>
      </trkpt>
      <trkpt lat="42.84705" lon="0.14275">
        <ele>2207</ele>
        <time>2020-07-28T08:59:45.112Z</time>
      </trkpt>
      <trkpt lat="42.84706" lon="0.1427">
        <ele>2209</ele>
        <time>2020-07-28T08:59:46.112Z</time>
      </trkpt>
      <trkpt lat="42.84706" lon="0.1427">
        <ele>2209</ele>
        <time>2020-07-28T08:59:47.112Z</time>
      </trkpt>
      <trkpt lat="42.84706" lon="0.1427">
        <ele>2209</ele>
        <time>2020-07-28T08:59:48.112Z</time>
      </trkpt>
      <trkpt lat="42.84708" lon="0.14266">
        <ele>2210</ele>
        <time>2020-07-28T08:59:49.112Z</time>
      </trkpt>
      <trkpt lat="42.84708" lon="0.14266">
        <ele>2210</ele>
        <time>2020-07-28T08:59:50.112Z</time>
      </trkpt>
      <trkpt lat="42.84708" lon="0.14266">
        <ele>2210</ele>
        <time>2020-07-28T08:59:51.112Z</time>
      </trkpt>
      <trkpt lat="42.8471" lon="0.14262">
        <ele>2211</ele>
        <time>2020-07-28T08:59:52.112Z</time>
      </trkpt>
      <trkpt lat="42.8471" lon="0.14262">
        <ele>2211</ele>
        <time>2020-07-28T08:59:53.112Z</time>
      </trkpt>
      <trkpt lat="42.8471" lon="0.14262">
        <ele>2211</ele>
        <time>2020-07-28T08:59:54.112Z</time>
      </trkpt>
      <trkpt lat="42.84711" lon="0.14258">
        <ele>2212</ele>
        <time>2020-07-28T08:59:55.112Z</time>
      </trkpt>
      <trkpt lat="42.84711" lon="0.14258">
        <ele>2212</ele>
        <time>2020-07-28T08:59:56.112Z</time>
      </trkpt>
      <trkpt lat="42.84711" lon="0.14258">
        <ele>2212</ele>
        <time>2020-07-28T08:59:57.112Z</time>
      </trkpt>
      <trkpt lat="42.84713" lon="0.14253">
        <ele>2213</ele>
        <time>2020-07-28T08:59:58.112Z</time>
      </trkpt>
      <trkpt lat="42.84713" lon="0.14253">
        <ele>2213</ele>
        <time>2020-07-28T08:59:59.112Z</time>
      </trkpt>
      <trkpt lat="42.84713" lon="0.14253">
        <ele>2213</ele>
        <time>2020-07-28T09:00:00.112Z</time>
      </trkpt>
      <trkpt lat="42.84716" lon="0.14247">
        <ele>2215</ele>
        <time>2020-07-28T09:00:01.112Z</time>
      </trkpt>
      <trkpt lat="42.84716" lon="0.14247">
        <ele>2215</ele>
        <time>2020-07-28T09:00:02.112Z</time>
      </trkpt>
      <trkpt lat="42.84716" lon="0.14247">
        <ele>2215</ele>
        <time>2020-07-28T09:00:03.112Z</time>
      </trkpt>
      <trkpt lat="42.8472" lon="0.14241">
        <ele>2217</ele>
        <time>2020-07-28T09:00:04.112Z</time>
      </trkpt>
      <trkpt lat="42.8472" lon="0.14241">
        <ele>2217</ele>
        <time>2020-07-28T09:00:05.112Z</time>
      </trkpt>
      <trkpt lat="42.8472" lon="0.14241">
        <ele>2217</ele>
        <time>2020-07-28T09:00:06.112Z</time>
      </trkpt>
      <trkpt lat="42.84722" lon="0.14238">
        <ele>2215</ele>
        <time>2020-07-28T09:00:07.112Z</time>
      </trkpt>
      <trkpt lat="42.84722" lon="0.14238">
        <ele>2215</ele>
        <time>2020-07-28T09:00:08.112Z</time>
      </trkpt>
      <trkpt lat="42.84722" lon="0.14238">
        <ele>2215</ele>
        <time>2020-07-28T09:00:09.112Z</time>
      </trkpt>
      <trkpt lat="42.84723" lon="0.14233">
        <ele>2216</ele>
        <time>2020-07-28T09:00:10.112Z</time>
      </trkpt>
      <trkpt lat="42.84723" lon="0.14233">
        <ele>2216</ele>
        <time>2020-07-28T09:00:11.112Z</time>
      </trkpt>
      <trkpt lat="42.84723" lon="0.14233">
        <ele>2216</ele>
        <time>2020-07-28T09:00:12.112Z</time>
      </trkpt>
      <trkpt lat="42.84725" lon="0.14225">
        <ele>2217</ele>
        <time>2020-07-28T09:00:13.112Z</time>
      </trkpt>
      <trkpt lat="42.84725" lon="0.14225">
        <ele>2217</ele>
        <time>2020-07-28T09:00:14.112Z</time>
      </trkpt>
      <trkpt lat="42.84725" lon="0.14225">
        <ele>2217</ele>
        <time>2020-07-28T09:00:15.112Z</time>
      </trkpt>
      <trkpt lat="42.84726" lon="0.1422">
        <ele>2217</ele>
        <time>2020-07-28T09:00:16.112Z</time>
      </trkpt>
      <trkpt lat="42.84726" lon="0.1422">
        <ele>2217</ele>
        <time>2020-07-28T09:00:17.112Z</time>
      </trkpt>
      <trkpt lat="42.84726" lon="0.1422">
        <ele>2217</ele>
        <time>2020-07-28T09:00:18.112Z</time>
      </trkpt>
      <trkpt lat="42.84729" lon="0.14217">
        <ele>2217</ele>
        <time>2020-07-28T09:00:19.112Z</time>
      </trkpt>
      <trkpt lat="42.84729" lon="0.14217">
        <ele>2217</ele>
        <time>2020-07-28T09:00:20.112Z</time>
      </trkpt>
      <trkpt lat="42.84729" lon="0.14217">
        <ele>2217</ele>
        <time>2020-07-28T09:00:21.112Z</time>
      </trkpt>
      <trkpt lat="42.84735" lon="0.14217">
        <ele>2217</ele>
        <time>2020-07-28T09:00:22.112Z</time>
      </trkpt>
      <trkpt lat="42.84735" lon="0.14217">
        <ele>2217</ele>
        <time>2020-07-28T09:00:23.112Z</time>
      </trkpt>
      <trkpt lat="42.84735" lon="0.14217">
        <ele>2217</ele>
        <time>2020-07-28T09:00:24.112Z</time>
      </trkpt>
      <trkpt lat="42.84739" lon="0.1422">
        <ele>2218</ele>
        <time>2020-07-28T09:00:25.112Z</time>
      </trkpt>
      <trkpt lat="42.84739" lon="0.1422">
        <ele>2218</ele>
        <time>2020-07-28T09:00:26.112Z</time>
      </trkpt>
      <trkpt lat="42.84739" lon="0.1422">
        <ele>2218</ele>
        <time>2020-07-28T09:00:27.112Z</time>
      </trkpt>
      <trkpt lat="42.84742" lon="0.14224">
        <ele>2218</ele>
        <time>2020-07-28T09:00:28.112Z</time>
      </trkpt>
      <trkpt lat="42.84742" lon="0.14224">
        <ele>2218</ele>
        <time>2020-07-28T09:00:29.112Z</time>
      </trkpt>
      <trkpt lat="42.84742" lon="0.14224">
        <ele>2218</ele>
        <time>2020-07-28T09:00:30.112Z</time>
      </trkpt>
      <trkpt lat="42.84745" lon="0.14225">
        <ele>2218</ele>
        <time>2020-07-28T09:00:31.112Z</time>
      </trkpt>
      <trkpt lat="42.84745" lon="0.14225">
        <ele>2218</ele>
        <time>2020-07-28T09:00:32.112Z</time>
      </trkpt>
      <trkpt lat="42.84745" lon="0.14225">
        <ele>2218</ele>
        <time>2020-07-28T09:00:33.112Z</time>
      </trkpt>
      <trkpt lat="42.84748" lon="0.14224">
        <ele>2218</ele>
        <time>2020-07-28T09:00:34.112Z</time>
      </trkpt>
      <trkpt lat="42.84748" lon="0.14224">
        <ele>2218</ele>
        <time>2020-07-28T09:00:35.112Z</time>
      </trkpt>
      <trkpt lat="42.84748" lon="0.14224">
        <ele>2218</ele>
        <time>2020-07-28T09:00:36.112Z</time>
      </trkpt>
      <trkpt lat="42.84752" lon="0.14225">
        <ele>2219</ele>
        <time>2020-07-28T09:00:37.112Z</time>
      </trkpt>
      <trkpt lat="42.84752" lon="0.14225">
        <ele>2219</ele>
        <time>2020-07-28T09:00:38.112Z</time>
      </trkpt>
      <trkpt lat="42.84752" lon="0.14225">
        <ele>2219</ele>
        <time>2020-07-28T09:00:39.112Z</time>
      </trkpt>
      <trkpt lat="42.84759" lon="0.14227">
        <ele>2219</ele>
        <time>2020-07-28T09:00:40.112Z</time>
      </trkpt>
      <trkpt lat="42.84759" lon="0.14227">
        <ele>2219</ele>
        <time>2020-07-28T09:00:41.112Z</time>
      </trkpt>
      <trkpt lat="42.8476" lon="0.14227">
        <ele>2219</ele>
        <time>2020-07-28T09:00:42.112Z</time>
      </trkpt>
      <trkpt lat="42.84763" lon="0.14227">
        <ele>2217</ele>
        <time>2020-07-28T09:00:43.112Z</time>
      </trkpt>
      <trkpt lat="42.84763" lon="0.14227">
        <ele>2217</ele>
        <time>2020-07-28T09:00:44.112Z</time>
      </trkpt>
      <trkpt lat="42.84763" lon="0.14227">
        <ele>2217</ele>
        <time>2020-07-28T09:00:45.112Z</time>
      </trkpt>
      <trkpt lat="42.84765" lon="0.14226">
        <ele>2217</ele>
        <time>2020-07-28T09:00:46.112Z</time>
      </trkpt>
      <trkpt lat="42.84765" lon="0.14226">
        <ele>2217</ele>
        <time>2020-07-28T09:00:47.112Z</time>
      </trkpt>
      <trkpt lat="42.84767" lon="0.14225">
        <ele>2218</ele>
        <time>2020-07-28T09:00:48.112Z</time>
      </trkpt>
      <trkpt lat="42.84768" lon="0.14224">
        <ele>2219</ele>
        <time>2020-07-28T09:00:49.112Z</time>
      </trkpt>
      <trkpt lat="42.84768" lon="0.14224">
        <ele>2219</ele>
        <time>2020-07-28T09:00:50.112Z</time>
      </trkpt>
      <trkpt lat="42.8477" lon="0.14224">
        <ele>2220</ele>
        <time>2020-07-28T09:00:51.112Z</time>
      </trkpt>
      <trkpt lat="42.84772" lon="0.14223">
        <ele>2220</ele>
        <time>2020-07-28T09:00:52.112Z</time>
      </trkpt>
      <trkpt lat="42.84772" lon="0.14223">
        <ele>2220</ele>
        <time>2020-07-28T09:00:53.112Z</time>
      </trkpt>
      <trkpt lat="42.84773" lon="0.14223">
        <ele>2219</ele>
        <time>2020-07-28T09:00:54.112Z</time>
      </trkpt>
      <trkpt lat="42.84775" lon="0.14224">
        <ele>2219</ele>
        <time>2020-07-28T09:00:55.112Z</time>
      </trkpt>
      <trkpt lat="42.84775" lon="0.14224">
        <ele>2219</ele>
        <time>2020-07-28T09:00:56.112Z</time>
      </trkpt>
      <trkpt lat="42.84775" lon="0.14224">
        <ele>2219</ele>
        <time>2020-07-28T09:00:57.112Z</time>
      </trkpt>
      <trkpt lat="42.84778" lon="0.14226">
        <ele>2219</ele>
        <time>2020-07-28T09:00:58.112Z</time>
      </trkpt>
      <trkpt lat="42.84778" lon="0.14226">
        <ele>2219</ele>
        <time>2020-07-28T09:00:59.112Z</time>
      </trkpt>
      <trkpt lat="42.84778" lon="0.14226">
        <ele>2219</ele>
        <time>2020-07-28T09:01:00.112Z</time>
      </trkpt>
      <trkpt lat="42.84781" lon="0.14226">
        <ele>2221</ele>
        <time>2020-07-28T09:01:01.112Z</time>
      </trkpt>
      <trkpt lat="42.84781" lon="0.14226">
        <ele>2221</ele>
        <time>2020-07-28T09:01:02.112Z</time>
      </trkpt>
      <trkpt lat="42.84781" lon="0.14226">
        <ele>2221</ele>
        <time>2020-07-28T09:01:03.112Z</time>
      </trkpt>
      <trkpt lat="42.84786" lon="0.14224">
        <ele>2221</ele>
        <time>2020-07-28T09:01:04.112Z</time>
      </trkpt>
      <trkpt lat="42.84786" lon="0.14224">
        <ele>2221</ele>
        <time>2020-07-28T09:01:05.112Z</time>
      </trkpt>
      <trkpt lat="42.84787" lon="0.14224">
        <ele>2221</ele>
        <time>2020-07-28T09:01:06.112Z</time>
      </trkpt>
      <trkpt lat="42.84788" lon="0.14225">
        <ele>2221</ele>
        <time>2020-07-28T09:01:07.112Z</time>
      </trkpt>
      <trkpt lat="42.84788" lon="0.14225">
        <ele>2221</ele>
        <time>2020-07-28T09:01:08.112Z</time>
      </trkpt>
      <trkpt lat="42.84788" lon="0.14225">
        <ele>2221</ele>
        <time>2020-07-28T09:01:09.112Z</time>
      </trkpt>
      <trkpt lat="42.84791" lon="0.14227">
        <ele>2221</ele>
        <time>2020-07-28T09:01:10.112Z</time>
      </trkpt>
      <trkpt lat="42.84791" lon="0.14227">
        <ele>2221</ele>
        <time>2020-07-28T09:01:11.112Z</time>
      </trkpt>
      <trkpt lat="42.84791" lon="0.14227">
        <ele>2221</ele>
        <time>2020-07-28T09:01:12.112Z</time>
      </trkpt>
      <trkpt lat="42.84794" lon="0.14231">
        <ele>2223</ele>
        <time>2020-07-28T09:01:13.112Z</time>
      </trkpt>
      <trkpt lat="42.84794" lon="0.14231">
        <ele>2223</ele>
        <time>2020-07-28T09:01:14.112Z</time>
      </trkpt>
      <trkpt lat="42.84794" lon="0.14232">
        <ele>2224</ele>
        <time>2020-07-28T09:01:15.112Z</time>
      </trkpt>
      <trkpt lat="42.84795" lon="0.14234">
        <ele>2224</ele>
        <time>2020-07-28T09:01:16.112Z</time>
      </trkpt>
      <trkpt lat="42.84795" lon="0.14234">
        <ele>2224</ele>
        <time>2020-07-28T09:01:17.112Z</time>
      </trkpt>
      <trkpt lat="42.84795" lon="0.14235">
        <ele>2224</ele>
        <time>2020-07-28T09:01:18.112Z</time>
      </trkpt>
      <trkpt lat="42.84795" lon="0.14239">
        <ele>2225</ele>
        <time>2020-07-28T09:01:19.112Z</time>
      </trkpt>
      <trkpt lat="42.84795" lon="0.14239">
        <ele>2225</ele>
        <time>2020-07-28T09:01:20.112Z</time>
      </trkpt>
      <trkpt lat="42.84796" lon="0.1424">
        <ele>2227</ele>
        <time>2020-07-28T09:01:21.112Z</time>
      </trkpt>
      <trkpt lat="42.84798" lon="0.14241">
        <ele>2228</ele>
        <time>2020-07-28T09:01:22.112Z</time>
      </trkpt>
      <trkpt lat="42.84798" lon="0.14241">
        <ele>2228</ele>
        <time>2020-07-28T09:01:23.112Z</time>
      </trkpt>
      <trkpt lat="42.84798" lon="0.14242">
        <ele>2229</ele>
        <time>2020-07-28T09:01:24.112Z</time>
      </trkpt>
      <trkpt lat="42.84799" lon="0.14242">
        <ele>2230</ele>
        <time>2020-07-28T09:01:25.112Z</time>
      </trkpt>
      <trkpt lat="42.84799" lon="0.14242">
        <ele>2230</ele>
        <time>2020-07-28T09:01:26.112Z</time>
      </trkpt>
      <trkpt lat="42.84799" lon="0.14242">
        <ele>2230</ele>
        <time>2020-07-28T09:01:27.112Z</time>
      </trkpt>
      <trkpt lat="42.84799" lon="0.14243">
        <ele>2229</ele>
        <time>2020-07-28T09:01:28.112Z</time>
      </trkpt>
      <trkpt lat="42.84799" lon="0.14243">
        <ele>2229</ele>
        <time>2020-07-28T09:01:29.112Z</time>
      </trkpt>
      <trkpt lat="42.84799" lon="0.14243">
        <ele>2229</ele>
        <time>2020-07-28T09:01:30.112Z</time>
      </trkpt>
      <trkpt lat="42.84802" lon="0.14245">
        <ele>2229</ele>
        <time>2020-07-28T09:01:31.112Z</time>
      </trkpt>
      <trkpt lat="42.84802" lon="0.14245">
        <ele>2229</ele>
        <time>2020-07-28T09:01:32.112Z</time>
      </trkpt>
      <trkpt lat="42.84803" lon="0.14245">
        <ele>2230</ele>
        <time>2020-07-28T09:01:33.112Z</time>
      </trkpt>
      <trkpt lat="42.84805" lon="0.14245">
        <ele>2233</ele>
        <time>2020-07-28T09:01:34.112Z</time>
      </trkpt>
      <trkpt lat="42.84805" lon="0.14245">
        <ele>2233</ele>
        <time>2020-07-28T09:01:35.112Z</time>
      </trkpt>
      <trkpt lat="42.84805" lon="0.14245">
        <ele>2233</ele>
        <time>2020-07-28T09:01:36.112Z</time>
      </trkpt>
      <trkpt lat="42.84809" lon="0.14247">
        <ele>2233</ele>
        <time>2020-07-28T09:01:37.112Z</time>
      </trkpt>
      <trkpt lat="42.84809" lon="0.14247">
        <ele>2233</ele>
        <time>2020-07-28T09:01:38.112Z</time>
      </trkpt>
      <trkpt lat="42.8481" lon="0.14249">
        <ele>2233</ele>
        <time>2020-07-28T09:01:39.112Z</time>
      </trkpt>
      <trkpt lat="42.84811" lon="0.14251">
        <ele>2233</ele>
        <time>2020-07-28T09:01:40.112Z</time>
      </trkpt>
      <trkpt lat="42.84811" lon="0.14251">
        <ele>2233</ele>
        <time>2020-07-28T09:01:41.112Z</time>
      </trkpt>
      <trkpt lat="42.84813" lon="0.14255">
        <ele>2234</ele>
        <time>2020-07-28T09:01:42.112Z</time>
      </trkpt>
      <trkpt lat="42.84815" lon="0.14257">
        <ele>2235</ele>
        <time>2020-07-28T09:01:43.112Z</time>
      </trkpt>
      <trkpt lat="42.84815" lon="0.14257">
        <ele>2235</ele>
        <time>2020-07-28T09:01:44.112Z</time>
      </trkpt>
      <trkpt lat="42.84815" lon="0.14257">
        <ele>2235</ele>
        <time>2020-07-28T09:01:45.112Z</time>
      </trkpt>
      <trkpt lat="42.84816" lon="0.14257">
        <ele>2236</ele>
        <time>2020-07-28T09:01:46.112Z</time>
      </trkpt>
      <trkpt lat="42.84816" lon="0.14257">
        <ele>2236</ele>
        <time>2020-07-28T09:01:47.112Z</time>
      </trkpt>
      <trkpt lat="42.84816" lon="0.14257">
        <ele>2236</ele>
        <time>2020-07-28T09:01:48.112Z</time>
      </trkpt>
      <trkpt lat="42.84819" lon="0.14256">
        <ele>2236</ele>
        <time>2020-07-28T09:01:49.112Z</time>
      </trkpt>
      <trkpt lat="42.84819" lon="0.14256">
        <ele>2236</ele>
        <time>2020-07-28T09:01:50.112Z</time>
      </trkpt>
      <trkpt lat="42.84819" lon="0.14256">
        <ele>2236</ele>
        <time>2020-07-28T09:01:51.112Z</time>
      </trkpt>
      <trkpt lat="42.84823" lon="0.14259">
        <ele>2237</ele>
        <time>2020-07-28T09:01:52.112Z</time>
      </trkpt>
      <trkpt lat="42.84823" lon="0.14259">
        <ele>2237</ele>
        <time>2020-07-28T09:01:53.112Z</time>
      </trkpt>
      <trkpt lat="42.84824" lon="0.1426">
        <ele>2237</ele>
        <time>2020-07-28T09:01:54.112Z</time>
      </trkpt>
      <trkpt lat="42.84826" lon="0.14264">
        <ele>2238</ele>
        <time>2020-07-28T09:01:55.112Z</time>
      </trkpt>
      <trkpt lat="42.84826" lon="0.14264">
        <ele>2238</ele>
        <time>2020-07-28T09:01:56.112Z</time>
      </trkpt>
      <trkpt lat="42.84826" lon="0.14264">
        <ele>2238</ele>
        <time>2020-07-28T09:01:57.112Z</time>
      </trkpt>
      <trkpt lat="42.84828" lon="0.14265">
        <ele>2238</ele>
        <time>2020-07-28T09:01:58.112Z</time>
      </trkpt>
      <trkpt lat="42.84828" lon="0.14265">
        <ele>2238</ele>
        <time>2020-07-28T09:01:59.112Z</time>
      </trkpt>
      <trkpt lat="42.84829" lon="0.14267">
        <ele>2239</ele>
        <time>2020-07-28T09:02:00.112Z</time>
      </trkpt>
      <trkpt lat="42.8483" lon="0.14268">
        <ele>2239</ele>
        <time>2020-07-28T09:02:01.112Z</time>
      </trkpt>
      <trkpt lat="42.8483" lon="0.14268">
        <ele>2239</ele>
        <time>2020-07-28T09:02:02.112Z</time>
      </trkpt>
      <trkpt lat="42.8483" lon="0.14268">
        <ele>2239</ele>
        <time>2020-07-28T09:02:03.112Z</time>
      </trkpt>
      <trkpt lat="42.84834" lon="0.14271">
        <ele>2240</ele>
        <time>2020-07-28T09:02:04.112Z</time>
      </trkpt>
      <trkpt lat="42.84834" lon="0.14271">
        <ele>2240</ele>
        <time>2020-07-28T09:02:05.112Z</time>
      </trkpt>
      <trkpt lat="42.84834" lon="0.14271">
        <ele>2240</ele>
        <time>2020-07-28T09:02:06.112Z</time>
      </trkpt>
      <trkpt lat="42.84835" lon="0.14275">
        <ele>2241</ele>
        <time>2020-07-28T09:02:07.112Z</time>
      </trkpt>
      <trkpt lat="42.84835" lon="0.14275">
        <ele>2241</ele>
        <time>2020-07-28T09:02:08.112Z</time>
      </trkpt>
      <trkpt lat="42.84835" lon="0.14275">
        <ele>2241</ele>
        <time>2020-07-28T09:02:09.112Z</time>
      </trkpt>
      <trkpt lat="42.84836" lon="0.14278">
        <ele>2244</ele>
        <time>2020-07-28T09:02:10.112Z</time>
      </trkpt>
      <trkpt lat="42.84836" lon="0.14278">
        <ele>2244</ele>
        <time>2020-07-28T09:02:11.112Z</time>
      </trkpt>
      <trkpt lat="42.84836" lon="0.14278">
        <ele>2243</ele>
        <time>2020-07-28T09:02:12.112Z</time>
      </trkpt>
      <trkpt lat="42.84836" lon="0.14279">
        <ele>2244</ele>
        <time>2020-07-28T09:02:13.112Z</time>
      </trkpt>
      <trkpt lat="42.84836" lon="0.14279">
        <ele>2244</ele>
        <time>2020-07-28T09:02:14.112Z</time>
      </trkpt>
      <trkpt lat="42.84836" lon="0.14279">
        <ele>2244</ele>
        <time>2020-07-28T09:02:15.112Z</time>
      </trkpt>
      <trkpt lat="42.84837" lon="0.1428">
        <ele>2244</ele>
        <time>2020-07-28T09:02:16.112Z</time>
      </trkpt>
      <trkpt lat="42.84837" lon="0.1428">
        <ele>2244</ele>
        <time>2020-07-28T09:02:17.112Z</time>
      </trkpt>
      <trkpt lat="42.84837" lon="0.1428">
        <ele>2244</ele>
        <time>2020-07-28T09:02:18.112Z</time>
      </trkpt>
      <trkpt lat="42.84839" lon="0.14279">
        <ele>2244</ele>
        <time>2020-07-28T09:02:19.112Z</time>
      </trkpt>
      <trkpt lat="42.84839" lon="0.14279">
        <ele>2244</ele>
        <time>2020-07-28T09:02:20.112Z</time>
      </trkpt>
      <trkpt lat="42.84839" lon="0.14279">
        <ele>2244</ele>
        <time>2020-07-28T09:02:21.112Z</time>
      </trkpt>
      <trkpt lat="42.84841" lon="0.14279">
        <ele>2246</ele>
        <time>2020-07-28T09:02:22.112Z</time>
      </trkpt>
      <trkpt lat="42.84841" lon="0.14279">
        <ele>2246</ele>
        <time>2020-07-28T09:02:23.112Z</time>
      </trkpt>
      <trkpt lat="42.84841" lon="0.14279">
        <ele>2246</ele>
        <time>2020-07-28T09:02:24.112Z</time>
      </trkpt>
      <trkpt lat="42.84844" lon="0.14279">
        <ele>2247</ele>
        <time>2020-07-28T09:02:25.112Z</time>
      </trkpt>
      <trkpt lat="42.84844" lon="0.14279">
        <ele>2247</ele>
        <time>2020-07-28T09:02:26.112Z</time>
      </trkpt>
      <trkpt lat="42.84844" lon="0.14279">
        <ele>2247</ele>
        <time>2020-07-28T09:02:27.112Z</time>
      </trkpt>
      <trkpt lat="42.84845" lon="0.14279">
        <ele>2250</ele>
        <time>2020-07-28T09:02:28.112Z</time>
      </trkpt>
      <trkpt lat="42.84845" lon="0.14279">
        <ele>2250</ele>
        <time>2020-07-28T09:02:29.112Z</time>
      </trkpt>
      <trkpt lat="42.84845" lon="0.14279">
        <ele>2250</ele>
        <time>2020-07-28T09:02:30.112Z</time>
      </trkpt>
      <trkpt lat="42.84848" lon="0.14279">
        <ele>2250</ele>
        <time>2020-07-28T09:02:31.112Z</time>
      </trkpt>
      <trkpt lat="42.84848" lon="0.14279">
        <ele>2250</ele>
        <time>2020-07-28T09:02:32.112Z</time>
      </trkpt>
      <trkpt lat="42.84848" lon="0.14279">
        <ele>2250</ele>
        <time>2020-07-28T09:02:33.112Z</time>
      </trkpt>
      <trkpt lat="42.8485" lon="0.14281">
        <ele>2251</ele>
        <time>2020-07-28T09:02:34.112Z</time>
      </trkpt>
      <trkpt lat="42.8485" lon="0.14281">
        <ele>2251</ele>
        <time>2020-07-28T09:02:35.112Z</time>
      </trkpt>
      <trkpt lat="42.8485" lon="0.14281">
        <ele>2251</ele>
        <time>2020-07-28T09:02:36.112Z</time>
      </trkpt>
      <trkpt lat="42.84852" lon="0.14284">
        <ele>2253</ele>
        <time>2020-07-28T09:02:37.112Z</time>
      </trkpt>
      <trkpt lat="42.84852" lon="0.14284">
        <ele>2253</ele>
        <time>2020-07-28T09:02:38.112Z</time>
      </trkpt>
      <trkpt lat="42.84852" lon="0.14284">
        <ele>2253</ele>
        <time>2020-07-28T09:02:39.112Z</time>
      </trkpt>
      <trkpt lat="42.84854" lon="0.14286">
        <ele>2253</ele>
        <time>2020-07-28T09:02:40.112Z</time>
      </trkpt>
      <trkpt lat="42.84854" lon="0.14286">
        <ele>2253</ele>
        <time>2020-07-28T09:02:41.112Z</time>
      </trkpt>
      <trkpt lat="42.84854" lon="0.14286">
        <ele>2253</ele>
        <time>2020-07-28T09:02:42.112Z</time>
      </trkpt>
      <trkpt lat="42.84856" lon="0.14285">
        <ele>2253</ele>
        <time>2020-07-28T09:02:43.112Z</time>
      </trkpt>
      <trkpt lat="42.84856" lon="0.14285">
        <ele>2253</ele>
        <time>2020-07-28T09:02:44.112Z</time>
      </trkpt>
      <trkpt lat="42.84856" lon="0.14285">
        <ele>2253</ele>
        <time>2020-07-28T09:02:45.112Z</time>
      </trkpt>
      <trkpt lat="42.84857" lon="0.14285">
        <ele>2254</ele>
        <time>2020-07-28T09:02:46.112Z</time>
      </trkpt>
      <trkpt lat="42.84857" lon="0.14285">
        <ele>2254</ele>
        <time>2020-07-28T09:02:47.112Z</time>
      </trkpt>
      <trkpt lat="42.84857" lon="0.14285">
        <ele>2254</ele>
        <time>2020-07-28T09:02:48.112Z</time>
      </trkpt>
      <trkpt lat="42.84859" lon="0.14286">
        <ele>2254</ele>
        <time>2020-07-28T09:02:49.112Z</time>
      </trkpt>
      <trkpt lat="42.84859" lon="0.14286">
        <ele>2254</ele>
        <time>2020-07-28T09:02:50.112Z</time>
      </trkpt>
      <trkpt lat="42.8486" lon="0.14287">
        <ele>2255</ele>
        <time>2020-07-28T09:02:51.112Z</time>
      </trkpt>
      <trkpt lat="42.8486" lon="0.14287">
        <ele>2255</ele>
        <time>2020-07-28T09:02:52.112Z</time>
      </trkpt>
      <trkpt lat="42.8486" lon="0.14287">
        <ele>2255</ele>
        <time>2020-07-28T09:02:53.112Z</time>
      </trkpt>
      <trkpt lat="42.8486" lon="0.14287">
        <ele>2255</ele>
        <time>2020-07-28T09:02:54.112Z</time>
      </trkpt>
      <trkpt lat="42.84861" lon="0.14288">
        <ele>2255</ele>
        <time>2020-07-28T09:02:55.112Z</time>
      </trkpt>
      <trkpt lat="42.84861" lon="0.14288">
        <ele>2255</ele>
        <time>2020-07-28T09:02:56.112Z</time>
      </trkpt>
      <trkpt lat="42.84861" lon="0.14288">
        <ele>2255</ele>
        <time>2020-07-28T09:02:57.112Z</time>
      </trkpt>
      <trkpt lat="42.84863" lon="0.1429">
        <ele>2256</ele>
        <time>2020-07-28T09:02:58.112Z</time>
      </trkpt>
      <trkpt lat="42.84863" lon="0.1429">
        <ele>2256</ele>
        <time>2020-07-28T09:02:59.112Z</time>
      </trkpt>
      <trkpt lat="42.84863" lon="0.1429">
        <ele>2256</ele>
        <time>2020-07-28T09:03:00.112Z</time>
      </trkpt>
      <trkpt lat="42.84865" lon="0.14292">
        <ele>2257</ele>
        <time>2020-07-28T09:03:01.112Z</time>
      </trkpt>
      <trkpt lat="42.84865" lon="0.14292">
        <ele>2257</ele>
        <time>2020-07-28T09:03:02.112Z</time>
      </trkpt>
      <trkpt lat="42.84865" lon="0.14292">
        <ele>2257</ele>
        <time>2020-07-28T09:03:03.112Z</time>
      </trkpt>
      <trkpt lat="42.84866" lon="0.14294">
        <ele>2259</ele>
        <time>2020-07-28T09:03:04.112Z</time>
      </trkpt>
      <trkpt lat="42.84866" lon="0.14294">
        <ele>2259</ele>
        <time>2020-07-28T09:03:05.112Z</time>
      </trkpt>
      <trkpt lat="42.84866" lon="0.14294">
        <ele>2259</ele>
        <time>2020-07-28T09:03:06.112Z</time>
      </trkpt>
      <trkpt lat="42.84868" lon="0.14297">
        <ele>2261</ele>
        <time>2020-07-28T09:03:07.112Z</time>
      </trkpt>
      <trkpt lat="42.84868" lon="0.14297">
        <ele>2261</ele>
        <time>2020-07-28T09:03:08.112Z</time>
      </trkpt>
      <trkpt lat="42.84868" lon="0.14297">
        <ele>2261</ele>
        <time>2020-07-28T09:03:09.112Z</time>
      </trkpt>
      <trkpt lat="42.84869" lon="0.14299">
        <ele>2261</ele>
        <time>2020-07-28T09:03:10.112Z</time>
      </trkpt>
      <trkpt lat="42.84869" lon="0.14299">
        <ele>2261</ele>
        <time>2020-07-28T09:03:11.112Z</time>
      </trkpt>
      <trkpt lat="42.84869" lon="0.14299">
        <ele>2261</ele>
        <time>2020-07-28T09:03:12.112Z</time>
      </trkpt>
      <trkpt lat="42.84872" lon="0.14303">
        <ele>2261</ele>
        <time>2020-07-28T09:03:13.112Z</time>
      </trkpt>
      <trkpt lat="42.84872" lon="0.14303">
        <ele>2261</ele>
        <time>2020-07-28T09:03:14.112Z</time>
      </trkpt>
      <trkpt lat="42.84872" lon="0.14303">
        <ele>2261</ele>
        <time>2020-07-28T09:03:15.112Z</time>
      </trkpt>
      <trkpt lat="42.84877" lon="0.1431">
        <ele>2263</ele>
        <time>2020-07-28T09:03:16.112Z</time>
      </trkpt>
      <trkpt lat="42.84877" lon="0.1431">
        <ele>2263</ele>
        <time>2020-07-28T09:03:17.112Z</time>
      </trkpt>
      <trkpt lat="42.84878" lon="0.14311">
        <ele>2263</ele>
        <time>2020-07-28T09:03:18.112Z</time>
      </trkpt>
      <trkpt lat="42.8488" lon="0.14312">
        <ele>2263</ele>
        <time>2020-07-28T09:03:19.112Z</time>
      </trkpt>
      <trkpt lat="42.8488" lon="0.14312">
        <ele>2263</ele>
        <time>2020-07-28T09:03:20.112Z</time>
      </trkpt>
      <trkpt lat="42.8488" lon="0.14312">
        <ele>2263</ele>
        <time>2020-07-28T09:03:21.112Z</time>
      </trkpt>
      <trkpt lat="42.84882" lon="0.14314">
        <ele>2263</ele>
        <time>2020-07-28T09:03:22.112Z</time>
      </trkpt>
      <trkpt lat="42.84882" lon="0.14314">
        <ele>2263</ele>
        <time>2020-07-28T09:03:23.112Z</time>
      </trkpt>
      <trkpt lat="42.84884" lon="0.14317">
        <ele>2263</ele>
        <time>2020-07-28T09:03:24.112Z</time>
      </trkpt>
      <trkpt lat="42.84885" lon="0.14318">
        <ele>2264</ele>
        <time>2020-07-28T09:03:25.112Z</time>
      </trkpt>
      <trkpt lat="42.84885" lon="0.14318">
        <ele>2264</ele>
        <time>2020-07-28T09:03:26.112Z</time>
      </trkpt>
      <trkpt lat="42.84888" lon="0.1432">
        <ele>2264</ele>
        <time>2020-07-28T09:03:27.112Z</time>
      </trkpt>
      <trkpt lat="42.84889" lon="0.14321">
        <ele>2264</ele>
        <time>2020-07-28T09:03:28.112Z</time>
      </trkpt>
      <trkpt lat="42.84889" lon="0.14321">
        <ele>2264</ele>
        <time>2020-07-28T09:03:29.112Z</time>
      </trkpt>
      <trkpt lat="42.84889" lon="0.14321">
        <ele>2264</ele>
        <time>2020-07-28T09:03:30.112Z</time>
      </trkpt>
      <trkpt lat="42.84891" lon="0.14323">
        <ele>2264</ele>
        <time>2020-07-28T09:03:31.112Z</time>
      </trkpt>
      <trkpt lat="42.84891" lon="0.14323">
        <ele>2264</ele>
        <time>2020-07-28T09:03:32.112Z</time>
      </trkpt>
      <trkpt lat="42.84891" lon="0.14323">
        <ele>2264</ele>
        <time>2020-07-28T09:03:33.112Z</time>
      </trkpt>
      <trkpt lat="42.84894" lon="0.14324">
        <ele>2264</ele>
        <time>2020-07-28T09:03:34.112Z</time>
      </trkpt>
      <trkpt lat="42.84894" lon="0.14324">
        <ele>2264</ele>
        <time>2020-07-28T09:03:35.112Z</time>
      </trkpt>
      <trkpt lat="42.84894" lon="0.14324">
        <ele>2264</ele>
        <time>2020-07-28T09:03:36.112Z</time>
      </trkpt>
      <trkpt lat="42.84897" lon="0.14326">
        <ele>2265</ele>
        <time>2020-07-28T09:03:37.112Z</time>
      </trkpt>
      <trkpt lat="42.84897" lon="0.14326">
        <ele>2265</ele>
        <time>2020-07-28T09:03:38.112Z</time>
      </trkpt>
      <trkpt lat="42.84897" lon="0.14326">
        <ele>2265</ele>
        <time>2020-07-28T09:03:39.112Z</time>
      </trkpt>
      <trkpt lat="42.849" lon="0.14328">
        <ele>2266</ele>
        <time>2020-07-28T09:03:40.112Z</time>
      </trkpt>
      <trkpt lat="42.849" lon="0.14328">
        <ele>2266</ele>
        <time>2020-07-28T09:03:41.112Z</time>
      </trkpt>
      <trkpt lat="42.849" lon="0.14328">
        <ele>2266</ele>
        <time>2020-07-28T09:03:42.112Z</time>
      </trkpt>
      <trkpt lat="42.84902" lon="0.14332">
        <ele>2267</ele>
        <time>2020-07-28T09:03:43.112Z</time>
      </trkpt>
      <trkpt lat="42.84902" lon="0.14332">
        <ele>2267</ele>
        <time>2020-07-28T09:03:44.112Z</time>
      </trkpt>
      <trkpt lat="42.84903" lon="0.14336">
        <ele>2267</ele>
        <time>2020-07-28T09:03:45.112Z</time>
      </trkpt>
      <trkpt lat="42.84905" lon="0.14339">
        <ele>2267</ele>
        <time>2020-07-28T09:03:46.112Z</time>
      </trkpt>
      <trkpt lat="42.84905" lon="0.14339">
        <ele>2267</ele>
        <time>2020-07-28T09:03:47.112Z</time>
      </trkpt>
      <trkpt lat="42.84905" lon="0.14339">
        <ele>2267</ele>
        <time>2020-07-28T09:03:48.112Z</time>
      </trkpt>
      <trkpt lat="42.84907" lon="0.1434">
        <ele>2267</ele>
        <time>2020-07-28T09:03:49.112Z</time>
      </trkpt>
      <trkpt lat="42.84907" lon="0.1434">
        <ele>2267</ele>
        <time>2020-07-28T09:03:50.112Z</time>
      </trkpt>
      <trkpt lat="42.84908" lon="0.14341">
        <ele>2266</ele>
        <time>2020-07-28T09:03:51.112Z</time>
      </trkpt>
      <trkpt lat="42.84909" lon="0.14342">
        <ele>2267</ele>
        <time>2020-07-28T09:03:52.112Z</time>
      </trkpt>
      <trkpt lat="42.84909" lon="0.14342">
        <ele>2267</ele>
        <time>2020-07-28T09:03:53.112Z</time>
      </trkpt>
      <trkpt lat="42.8491" lon="0.14342">
        <ele>2267</ele>
        <time>2020-07-28T09:03:54.112Z</time>
      </trkpt>
      <trkpt lat="42.84912" lon="0.14344">
        <ele>2267</ele>
        <time>2020-07-28T09:03:55.112Z</time>
      </trkpt>
      <trkpt lat="42.84912" lon="0.14344">
        <ele>2267</ele>
        <time>2020-07-28T09:03:56.112Z</time>
      </trkpt>
      <trkpt lat="42.84913" lon="0.14344">
        <ele>2268</ele>
        <time>2020-07-28T09:03:57.112Z</time>
      </trkpt>
      <trkpt lat="42.84915" lon="0.14345">
        <ele>2268</ele>
        <time>2020-07-28T09:03:58.112Z</time>
      </trkpt>
      <trkpt lat="42.84915" lon="0.14345">
        <ele>2268</ele>
        <time>2020-07-28T09:03:59.112Z</time>
      </trkpt>
      <trkpt lat="42.84915" lon="0.14345">
        <ele>2268</ele>
        <time>2020-07-28T09:04:00.112Z</time>
      </trkpt>
      <trkpt lat="42.84917" lon="0.14348">
        <ele>2269</ele>
        <time>2020-07-28T09:04:01.112Z</time>
      </trkpt>
      <trkpt lat="42.84917" lon="0.14348">
        <ele>2269</ele>
        <time>2020-07-28T09:04:02.112Z</time>
      </trkpt>
      <trkpt lat="42.84917" lon="0.14348">
        <ele>2269</ele>
        <time>2020-07-28T09:04:03.112Z</time>
      </trkpt>
      <trkpt lat="42.84919" lon="0.14351">
        <ele>2269</ele>
        <time>2020-07-28T09:04:04.112Z</time>
      </trkpt>
      <trkpt lat="42.84919" lon="0.14351">
        <ele>2269</ele>
        <time>2020-07-28T09:04:05.112Z</time>
      </trkpt>
      <trkpt lat="42.84919" lon="0.14351">
        <ele>2269</ele>
        <time>2020-07-28T09:04:06.112Z</time>
      </trkpt>
      <trkpt lat="42.84922" lon="0.14354">
        <ele>2268</ele>
        <time>2020-07-28T09:04:07.112Z</time>
      </trkpt>
      <trkpt lat="42.84922" lon="0.14354">
        <ele>2268</ele>
        <time>2020-07-28T09:04:08.112Z</time>
      </trkpt>
      <trkpt lat="42.84923" lon="0.14355">
        <ele>2268</ele>
        <time>2020-07-28T09:04:09.112Z</time>
      </trkpt>
      <trkpt lat="42.84924" lon="0.14355">
        <ele>2269</ele>
        <time>2020-07-28T09:04:10.112Z</time>
      </trkpt>
      <trkpt lat="42.84924" lon="0.14355">
        <ele>2269</ele>
        <time>2020-07-28T09:04:11.112Z</time>
      </trkpt>
      <trkpt lat="42.84924" lon="0.14355">
        <ele>2269</ele>
        <time>2020-07-28T09:04:12.112Z</time>
      </trkpt>
      <trkpt lat="42.84927" lon="0.14357">
        <ele>2269</ele>
        <time>2020-07-28T09:04:13.112Z</time>
      </trkpt>
      <trkpt lat="42.84927" lon="0.14357">
        <ele>2269</ele>
        <time>2020-07-28T09:04:14.112Z</time>
      </trkpt>
      <trkpt lat="42.84927" lon="0.14357">
        <ele>2269</ele>
        <time>2020-07-28T09:04:15.112Z</time>
      </trkpt>
      <trkpt lat="42.84929" lon="0.14361">
        <ele>2270</ele>
        <time>2020-07-28T09:04:16.112Z</time>
      </trkpt>
      <trkpt lat="42.84929" lon="0.14361">
        <ele>2270</ele>
        <time>2020-07-28T09:04:17.112Z</time>
      </trkpt>
      <trkpt lat="42.84929" lon="0.14361">
        <ele>2270</ele>
        <time>2020-07-28T09:04:18.112Z</time>
      </trkpt>
      <trkpt lat="42.84932" lon="0.14364">
        <ele>2271</ele>
        <time>2020-07-28T09:04:19.112Z</time>
      </trkpt>
      <trkpt lat="42.84932" lon="0.14364">
        <ele>2271</ele>
        <time>2020-07-28T09:04:20.112Z</time>
      </trkpt>
      <trkpt lat="42.84932" lon="0.14364">
        <ele>2271</ele>
        <time>2020-07-28T09:04:21.112Z</time>
      </trkpt>
      <trkpt lat="42.84934" lon="0.14364">
        <ele>2272</ele>
        <time>2020-07-28T09:04:22.112Z</time>
      </trkpt>
      <trkpt lat="42.84934" lon="0.14364">
        <ele>2272</ele>
        <time>2020-07-28T09:04:23.112Z</time>
      </trkpt>
      <trkpt lat="42.84934" lon="0.14364">
        <ele>2272</ele>
        <time>2020-07-28T09:04:24.112Z</time>
      </trkpt>
      <trkpt lat="42.84936" lon="0.14366">
        <ele>2271</ele>
        <time>2020-07-28T09:04:25.112Z</time>
      </trkpt>
      <trkpt lat="42.84936" lon="0.14366">
        <ele>2271</ele>
        <time>2020-07-28T09:04:26.112Z</time>
      </trkpt>
      <trkpt lat="42.84936" lon="0.14366">
        <ele>2271</ele>
        <time>2020-07-28T09:04:27.112Z</time>
      </trkpt>
      <trkpt lat="42.84936" lon="0.14371">
        <ele>2274</ele>
        <time>2020-07-28T09:04:28.112Z</time>
      </trkpt>
      <trkpt lat="42.84936" lon="0.14371">
        <ele>2274</ele>
        <time>2020-07-28T09:04:29.112Z</time>
      </trkpt>
      <trkpt lat="42.84936" lon="0.14373">
        <ele>2275</ele>
        <time>2020-07-28T09:04:30.112Z</time>
      </trkpt>
      <trkpt lat="42.84937" lon="0.14374">
        <ele>2275</ele>
        <time>2020-07-28T09:04:31.112Z</time>
      </trkpt>
      <trkpt lat="42.84937" lon="0.14374">
        <ele>2275</ele>
        <time>2020-07-28T09:04:32.112Z</time>
      </trkpt>
      <trkpt lat="42.84937" lon="0.14374">
        <ele>2275</ele>
        <time>2020-07-28T09:04:33.112Z</time>
      </trkpt>
      <trkpt lat="42.84941" lon="0.14375">
        <ele>2274</ele>
        <time>2020-07-28T09:04:34.112Z</time>
      </trkpt>
      <trkpt lat="42.84941" lon="0.14375">
        <ele>2274</ele>
        <time>2020-07-28T09:04:35.112Z</time>
      </trkpt>
      <trkpt lat="42.84941" lon="0.14375">
        <ele>2274</ele>
        <time>2020-07-28T09:04:36.112Z</time>
      </trkpt>
      <trkpt lat="42.84946" lon="0.14377">
        <ele>2276</ele>
        <time>2020-07-28T09:04:37.112Z</time>
      </trkpt>
      <trkpt lat="42.84946" lon="0.14377">
        <ele>2276</ele>
        <time>2020-07-28T09:04:38.112Z</time>
      </trkpt>
      <trkpt lat="42.84946" lon="0.14377">
        <ele>2276</ele>
        <time>2020-07-28T09:04:39.112Z</time>
      </trkpt>
      <trkpt lat="42.8495" lon="0.1438">
        <ele>2276</ele>
        <time>2020-07-28T09:04:40.112Z</time>
      </trkpt>
      <trkpt lat="42.8495" lon="0.1438">
        <ele>2276</ele>
        <time>2020-07-28T09:04:41.112Z</time>
      </trkpt>
      <trkpt lat="42.8495" lon="0.1438">
        <ele>2276</ele>
        <time>2020-07-28T09:04:42.112Z</time>
      </trkpt>
      <trkpt lat="42.84954" lon="0.14382">
        <ele>2278</ele>
        <time>2020-07-28T09:04:43.112Z</time>
      </trkpt>
      <trkpt lat="42.84954" lon="0.14382">
        <ele>2278</ele>
        <time>2020-07-28T09:04:44.112Z</time>
      </trkpt>
      <trkpt lat="42.84955" lon="0.14383">
        <ele>2278</ele>
        <time>2020-07-28T09:04:45.112Z</time>
      </trkpt>
      <trkpt lat="42.84956" lon="0.14383">
        <ele>2278</ele>
        <time>2020-07-28T09:04:46.112Z</time>
      </trkpt>
      <trkpt lat="42.84956" lon="0.14383">
        <ele>2278</ele>
        <time>2020-07-28T09:04:47.112Z</time>
      </trkpt>
      <trkpt lat="42.84956" lon="0.14383">
        <ele>2278</ele>
        <time>2020-07-28T09:04:48.112Z</time>
      </trkpt>
      <trkpt lat="42.8496" lon="0.14384">
        <ele>2279</ele>
        <time>2020-07-28T09:04:49.112Z</time>
      </trkpt>
      <trkpt lat="42.8496" lon="0.14384">
        <ele>2279</ele>
        <time>2020-07-28T09:04:50.112Z</time>
      </trkpt>
      <trkpt lat="42.8496" lon="0.14384">
        <ele>2279</ele>
        <time>2020-07-28T09:04:51.112Z</time>
      </trkpt>
      <trkpt lat="42.84962" lon="0.14385">
        <ele>2279</ele>
        <time>2020-07-28T09:04:52.112Z</time>
      </trkpt>
      <trkpt lat="42.84962" lon="0.14385">
        <ele>2279</ele>
        <time>2020-07-28T09:04:53.112Z</time>
      </trkpt>
      <trkpt lat="42.84962" lon="0.14385">
        <ele>2279</ele>
        <time>2020-07-28T09:04:54.112Z</time>
      </trkpt>
      <trkpt lat="42.84964" lon="0.1439">
        <ele>2280</ele>
        <time>2020-07-28T09:04:55.112Z</time>
      </trkpt>
      <trkpt lat="42.84964" lon="0.1439">
        <ele>2280</ele>
        <time>2020-07-28T09:04:56.112Z</time>
      </trkpt>
      <trkpt lat="42.84965" lon="0.14391">
        <ele>2280</ele>
        <time>2020-07-28T09:04:57.112Z</time>
      </trkpt>
      <trkpt lat="42.84967" lon="0.14393">
        <ele>2282</ele>
        <time>2020-07-28T09:04:58.112Z</time>
      </trkpt>
      <trkpt lat="42.84967" lon="0.14393">
        <ele>2282</ele>
        <time>2020-07-28T09:04:59.112Z</time>
      </trkpt>
      <trkpt lat="42.84968" lon="0.14394">
        <ele>2282</ele>
        <time>2020-07-28T09:05:00.112Z</time>
      </trkpt>
      <trkpt lat="42.84968" lon="0.14395">
        <ele>2283</ele>
        <time>2020-07-28T09:05:01.112Z</time>
      </trkpt>
      <trkpt lat="42.84968" lon="0.14395">
        <ele>2283</ele>
        <time>2020-07-28T09:05:02.112Z</time>
      </trkpt>
      <trkpt lat="42.84968" lon="0.14395">
        <ele>2283</ele>
        <time>2020-07-28T09:05:03.112Z</time>
      </trkpt>
      <trkpt lat="42.8497" lon="0.14396">
        <ele>2285</ele>
        <time>2020-07-28T09:05:04.112Z</time>
      </trkpt>
      <trkpt lat="42.8497" lon="0.14396">
        <ele>2285</ele>
        <time>2020-07-28T09:05:05.112Z</time>
      </trkpt>
      <trkpt lat="42.8497" lon="0.14396">
        <ele>2285</ele>
        <time>2020-07-28T09:05:06.112Z</time>
      </trkpt>
      <trkpt lat="42.84973" lon="0.14399">
        <ele>2285</ele>
        <time>2020-07-28T09:05:07.112Z</time>
      </trkpt>
      <trkpt lat="42.84973" lon="0.14399">
        <ele>2285</ele>
        <time>2020-07-28T09:05:08.112Z</time>
      </trkpt>
      <trkpt lat="42.84973" lon="0.14399">
        <ele>2285</ele>
        <time>2020-07-28T09:05:09.112Z</time>
      </trkpt>
      <trkpt lat="42.84975" lon="0.14399">
        <ele>2287</ele>
        <time>2020-07-28T09:05:10.112Z</time>
      </trkpt>
      <trkpt lat="42.84975" lon="0.14399">
        <ele>2287</ele>
        <time>2020-07-28T09:05:11.112Z</time>
      </trkpt>
      <trkpt lat="42.84976" lon="0.14399">
        <ele>2289</ele>
        <time>2020-07-28T09:05:12.112Z</time>
      </trkpt>
      <trkpt lat="42.84978" lon="0.14399">
        <ele>2290</ele>
        <time>2020-07-28T09:05:13.112Z</time>
      </trkpt>
      <trkpt lat="42.84978" lon="0.14399">
        <ele>2290</ele>
        <time>2020-07-28T09:05:14.112Z</time>
      </trkpt>
      <trkpt lat="42.84978" lon="0.14399">
        <ele>2290</ele>
        <time>2020-07-28T09:05:15.112Z</time>
      </trkpt>
      <trkpt lat="42.8498" lon="0.14397">
        <ele>2291</ele>
        <time>2020-07-28T09:05:16.112Z</time>
      </trkpt>
      <trkpt lat="42.8498" lon="0.14397">
        <ele>2291</ele>
        <time>2020-07-28T09:05:17.112Z</time>
      </trkpt>
      <trkpt lat="42.8498" lon="0.14397">
        <ele>2291</ele>
        <time>2020-07-28T09:05:18.112Z</time>
      </trkpt>
      <trkpt lat="42.84981" lon="0.14398">
        <ele>2292</ele>
        <time>2020-07-28T09:05:19.112Z</time>
      </trkpt>
      <trkpt lat="42.84981" lon="0.14398">
        <ele>2292</ele>
        <time>2020-07-28T09:05:20.112Z</time>
      </trkpt>
      <trkpt lat="42.84983" lon="0.14399">
        <ele>2293</ele>
        <time>2020-07-28T09:05:21.112Z</time>
      </trkpt>
      <trkpt lat="42.84984" lon="0.14399">
        <ele>2293</ele>
        <time>2020-07-28T09:05:22.112Z</time>
      </trkpt>
      <trkpt lat="42.84984" lon="0.14399">
        <ele>2293</ele>
        <time>2020-07-28T09:05:23.112Z</time>
      </trkpt>
      <trkpt lat="42.84984" lon="0.14399">
        <ele>2293</ele>
        <time>2020-07-28T09:05:24.112Z</time>
      </trkpt>
      <trkpt lat="42.84985" lon="0.144">
        <ele>2292</ele>
        <time>2020-07-28T09:05:25.112Z</time>
      </trkpt>
      <trkpt lat="42.84985" lon="0.144">
        <ele>2292</ele>
        <time>2020-07-28T09:05:26.112Z</time>
      </trkpt>
      <trkpt lat="42.84987" lon="0.14401">
        <ele>2293</ele>
        <time>2020-07-28T09:05:27.112Z</time>
      </trkpt>
      <trkpt lat="42.84988" lon="0.14402">
        <ele>2294</ele>
        <time>2020-07-28T09:05:28.112Z</time>
      </trkpt>
      <trkpt lat="42.84988" lon="0.14402">
        <ele>2294</ele>
        <time>2020-07-28T09:05:29.112Z</time>
      </trkpt>
      <trkpt lat="42.84988" lon="0.14403">
        <ele>2294</ele>
        <time>2020-07-28T09:05:30.112Z</time>
      </trkpt>
      <trkpt lat="42.8499" lon="0.14405">
        <ele>2294</ele>
        <time>2020-07-28T09:05:31.112Z</time>
      </trkpt>
      <trkpt lat="42.8499" lon="0.14405">
        <ele>2294</ele>
        <time>2020-07-28T09:05:32.112Z</time>
      </trkpt>
      <trkpt lat="42.8499" lon="0.14405">
        <ele>2294</ele>
        <time>2020-07-28T09:05:33.112Z</time>
      </trkpt>
      <trkpt lat="42.84993" lon="0.14405">
        <ele>2295</ele>
        <time>2020-07-28T09:05:34.112Z</time>
      </trkpt>
      <trkpt lat="42.84993" lon="0.14405">
        <ele>2295</ele>
        <time>2020-07-28T09:05:35.112Z</time>
      </trkpt>
      <trkpt lat="42.84993" lon="0.14405">
        <ele>2295</ele>
        <time>2020-07-28T09:05:36.112Z</time>
      </trkpt>
      <trkpt lat="42.84994" lon="0.14407">
        <ele>2296</ele>
        <time>2020-07-28T09:05:37.112Z</time>
      </trkpt>
      <trkpt lat="42.84994" lon="0.14407">
        <ele>2296</ele>
        <time>2020-07-28T09:05:38.112Z</time>
      </trkpt>
      <trkpt lat="42.84994" lon="0.14407">
        <ele>2296</ele>
        <time>2020-07-28T09:05:39.112Z</time>
      </trkpt>
      <trkpt lat="42.84997" lon="0.14408">
        <ele>2297</ele>
        <time>2020-07-28T09:05:40.112Z</time>
      </trkpt>
      <trkpt lat="42.84997" lon="0.14408">
        <ele>2297</ele>
        <time>2020-07-28T09:05:41.112Z</time>
      </trkpt>
      <trkpt lat="42.84998" lon="0.14408">
        <ele>2297</ele>
        <time>2020-07-28T09:05:42.112Z</time>
      </trkpt>
      <trkpt lat="42.84999" lon="0.14408">
        <ele>2297</ele>
        <time>2020-07-28T09:05:43.112Z</time>
      </trkpt>
      <trkpt lat="42.84999" lon="0.14408">
        <ele>2297</ele>
        <time>2020-07-28T09:05:44.112Z</time>
      </trkpt>
      <trkpt lat="42.84999" lon="0.14408">
        <ele>2297</ele>
        <time>2020-07-28T09:05:45.112Z</time>
      </trkpt>
      <trkpt lat="42.85002" lon="0.14407">
        <ele>2299</ele>
        <time>2020-07-28T09:05:46.112Z</time>
      </trkpt>
      <trkpt lat="42.85002" lon="0.14407">
        <ele>2299</ele>
        <time>2020-07-28T09:05:47.112Z</time>
      </trkpt>
      <trkpt lat="42.85002" lon="0.14407">
        <ele>2299</ele>
        <time>2020-07-28T09:05:48.112Z</time>
      </trkpt>
      <trkpt lat="42.85003" lon="0.14406">
        <ele>2300</ele>
        <time>2020-07-28T09:05:49.112Z</time>
      </trkpt>
      <trkpt lat="42.85003" lon="0.14406">
        <ele>2300</ele>
        <time>2020-07-28T09:05:50.112Z</time>
      </trkpt>
      <trkpt lat="42.85003" lon="0.14406">
        <ele>2300</ele>
        <time>2020-07-28T09:05:51.112Z</time>
      </trkpt>
      <trkpt lat="42.85004" lon="0.14403">
        <ele>2300</ele>
        <time>2020-07-28T09:05:52.112Z</time>
      </trkpt>
      <trkpt lat="42.85004" lon="0.14403">
        <ele>2300</ele>
        <time>2020-07-28T09:05:53.112Z</time>
      </trkpt>
      <trkpt lat="42.85004" lon="0.14403">
        <ele>2300</ele>
        <time>2020-07-28T09:05:54.112Z</time>
      </trkpt>
      <trkpt lat="42.85006" lon="0.14402">
        <ele>2302</ele>
        <time>2020-07-28T09:05:55.112Z</time>
      </trkpt>
      <trkpt lat="42.85006" lon="0.14402">
        <ele>2302</ele>
        <time>2020-07-28T09:05:56.112Z</time>
      </trkpt>
      <trkpt lat="42.85006" lon="0.14402">
        <ele>2302</ele>
        <time>2020-07-28T09:05:57.112Z</time>
      </trkpt>
      <trkpt lat="42.85007" lon="0.14401">
        <ele>2304</ele>
        <time>2020-07-28T09:05:58.112Z</time>
      </trkpt>
      <trkpt lat="42.85007" lon="0.14401">
        <ele>2304</ele>
        <time>2020-07-28T09:05:59.112Z</time>
      </trkpt>
      <trkpt lat="42.85009" lon="0.14401">
        <ele>2304</ele>
        <time>2020-07-28T09:06:00.112Z</time>
      </trkpt>
      <trkpt lat="42.8501" lon="0.14401">
        <ele>2304</ele>
        <time>2020-07-28T09:06:01.112Z</time>
      </trkpt>
      <trkpt lat="42.8501" lon="0.14401">
        <ele>2304</ele>
        <time>2020-07-28T09:06:02.112Z</time>
      </trkpt>
      <trkpt lat="42.8501" lon="0.14401">
        <ele>2304</ele>
        <time>2020-07-28T09:06:03.112Z</time>
      </trkpt>
      <trkpt lat="42.85012" lon="0.14405">
        <ele>2305</ele>
        <time>2020-07-28T09:06:04.112Z</time>
      </trkpt>
      <trkpt lat="42.85012" lon="0.14405">
        <ele>2305</ele>
        <time>2020-07-28T09:06:05.112Z</time>
      </trkpt>
      <trkpt lat="42.85012" lon="0.14405">
        <ele>2305</ele>
        <time>2020-07-28T09:06:06.112Z</time>
      </trkpt>
      <trkpt lat="42.85014" lon="0.1441">
        <ele>2305</ele>
        <time>2020-07-28T09:06:07.112Z</time>
      </trkpt>
      <trkpt lat="42.85014" lon="0.1441">
        <ele>2305</ele>
        <time>2020-07-28T09:06:08.112Z</time>
      </trkpt>
      <trkpt lat="42.85015" lon="0.14412">
        <ele>2305</ele>
        <time>2020-07-28T09:06:09.112Z</time>
      </trkpt>
      <trkpt lat="42.85016" lon="0.14413">
        <ele>2306</ele>
        <time>2020-07-28T09:06:10.112Z</time>
      </trkpt>
      <trkpt lat="42.85016" lon="0.14413">
        <ele>2306</ele>
        <time>2020-07-28T09:06:11.112Z</time>
      </trkpt>
      <trkpt lat="42.85016" lon="0.14413">
        <ele>2306</ele>
        <time>2020-07-28T09:06:12.112Z</time>
      </trkpt>
      <trkpt lat="42.85018" lon="0.14414">
        <ele>2307</ele>
        <time>2020-07-28T09:06:13.112Z</time>
      </trkpt>
      <trkpt lat="42.85018" lon="0.14414">
        <ele>2307</ele>
        <time>2020-07-28T09:06:14.112Z</time>
      </trkpt>
      <trkpt lat="42.85018" lon="0.14414">
        <ele>2307</ele>
        <time>2020-07-28T09:06:15.112Z</time>
      </trkpt>
      <trkpt lat="42.85019" lon="0.14414">
        <ele>2307</ele>
        <time>2020-07-28T09:06:16.112Z</time>
      </trkpt>
      <trkpt lat="42.85019" lon="0.14414">
        <ele>2307</ele>
        <time>2020-07-28T09:06:17.112Z</time>
      </trkpt>
      <trkpt lat="42.8502" lon="0.14415">
        <ele>2309</ele>
        <time>2020-07-28T09:06:18.112Z</time>
      </trkpt>
      <trkpt lat="42.85021" lon="0.14416">
        <ele>2310</ele>
        <time>2020-07-28T09:06:19.112Z</time>
      </trkpt>
      <trkpt lat="42.85021" lon="0.14416">
        <ele>2310</ele>
        <time>2020-07-28T09:06:20.112Z</time>
      </trkpt>
      <trkpt lat="42.85021" lon="0.14416">
        <ele>2310</ele>
        <time>2020-07-28T09:06:21.112Z</time>
      </trkpt>
      <trkpt lat="42.85023" lon="0.14418">
        <ele>2311</ele>
        <time>2020-07-28T09:06:22.112Z</time>
      </trkpt>
      <trkpt lat="42.85023" lon="0.14418">
        <ele>2311</ele>
        <time>2020-07-28T09:06:23.112Z</time>
      </trkpt>
      <trkpt lat="42.85023" lon="0.14418">
        <ele>2311</ele>
        <time>2020-07-28T09:06:24.112Z</time>
      </trkpt>
      <trkpt lat="42.85024" lon="0.14418">
        <ele>2312</ele>
        <time>2020-07-28T09:06:25.112Z</time>
      </trkpt>
      <trkpt lat="42.85024" lon="0.14418">
        <ele>2312</ele>
        <time>2020-07-28T09:06:26.112Z</time>
      </trkpt>
      <trkpt lat="42.85024" lon="0.14418">
        <ele>2312</ele>
        <time>2020-07-28T09:06:27.112Z</time>
      </trkpt>
      <trkpt lat="42.85026" lon="0.14417">
        <ele>2312</ele>
        <time>2020-07-28T09:06:28.112Z</time>
      </trkpt>
      <trkpt lat="42.85026" lon="0.14417">
        <ele>2312</ele>
        <time>2020-07-28T09:06:29.112Z</time>
      </trkpt>
      <trkpt lat="42.85027" lon="0.14418">
        <ele>2312</ele>
        <time>2020-07-28T09:06:30.112Z</time>
      </trkpt>
      <trkpt lat="42.85027" lon="0.14418">
        <ele>2313</ele>
        <time>2020-07-28T09:06:31.112Z</time>
      </trkpt>
      <trkpt lat="42.85027" lon="0.14418">
        <ele>2313</ele>
        <time>2020-07-28T09:06:32.112Z</time>
      </trkpt>
      <trkpt lat="42.85027" lon="0.14418">
        <ele>2313</ele>
        <time>2020-07-28T09:06:33.112Z</time>
      </trkpt>
      <trkpt lat="42.85028" lon="0.14418">
        <ele>2314</ele>
        <time>2020-07-28T09:06:34.112Z</time>
      </trkpt>
      <trkpt lat="42.85028" lon="0.14418">
        <ele>2314</ele>
        <time>2020-07-28T09:06:35.112Z</time>
      </trkpt>
      <trkpt lat="42.85028" lon="0.14418">
        <ele>2314</ele>
        <time>2020-07-28T09:06:36.112Z</time>
      </trkpt>
      <trkpt lat="42.8503" lon="0.14418">
        <ele>2315</ele>
        <time>2020-07-28T09:06:37.112Z</time>
      </trkpt>
      <trkpt lat="42.8503" lon="0.14418">
        <ele>2315</ele>
        <time>2020-07-28T09:06:38.112Z</time>
      </trkpt>
      <trkpt lat="42.8503" lon="0.14418">
        <ele>2315</ele>
        <time>2020-07-28T09:06:39.112Z</time>
      </trkpt>
      <trkpt lat="42.85029" lon="0.14417">
        <ele>2316</ele>
        <time>2020-07-28T09:06:40.112Z</time>
      </trkpt>
      <trkpt lat="42.85029" lon="0.14417">
        <ele>2316</ele>
        <time>2020-07-28T09:06:41.112Z</time>
      </trkpt>
      <trkpt lat="42.85029" lon="0.14417">
        <ele>2316</ele>
        <time>2020-07-28T09:06:42.112Z</time>
      </trkpt>
      <trkpt lat="42.8503" lon="0.14415">
        <ele>2317</ele>
        <time>2020-07-28T09:06:43.112Z</time>
      </trkpt>
      <trkpt lat="42.8503" lon="0.14415">
        <ele>2317</ele>
        <time>2020-07-28T09:06:44.112Z</time>
      </trkpt>
      <trkpt lat="42.8503" lon="0.14415">
        <ele>2317</ele>
        <time>2020-07-28T09:06:45.112Z</time>
      </trkpt>
      <trkpt lat="42.85031" lon="0.14414">
        <ele>2317</ele>
        <time>2020-07-28T09:06:46.112Z</time>
      </trkpt>
      <trkpt lat="42.85031" lon="0.14414">
        <ele>2317</ele>
        <time>2020-07-28T09:06:47.112Z</time>
      </trkpt>
      <trkpt lat="42.85031" lon="0.14414">
        <ele>2317</ele>
        <time>2020-07-28T09:06:48.112Z</time>
      </trkpt>
      <trkpt lat="42.85034" lon="0.14412">
        <ele>2317</ele>
        <time>2020-07-28T09:06:49.112Z</time>
      </trkpt>
      <trkpt lat="42.85034" lon="0.14412">
        <ele>2317</ele>
        <time>2020-07-28T09:06:50.112Z</time>
      </trkpt>
      <trkpt lat="42.85035" lon="0.14412">
        <ele>2316</ele>
        <time>2020-07-28T09:06:51.112Z</time>
      </trkpt>
      <trkpt lat="42.85036" lon="0.14413">
        <ele>2316</ele>
        <time>2020-07-28T09:06:52.112Z</time>
      </trkpt>
      <trkpt lat="42.85036" lon="0.14413">
        <ele>2316</ele>
        <time>2020-07-28T09:06:53.112Z</time>
      </trkpt>
      <trkpt lat="42.85037" lon="0.14415">
        <ele>2316</ele>
        <time>2020-07-28T09:06:54.112Z</time>
      </trkpt>
      <trkpt lat="42.85037" lon="0.14416">
        <ele>2318</ele>
        <time>2020-07-28T09:06:55.112Z</time>
      </trkpt>
      <trkpt lat="42.85037" lon="0.14416">
        <ele>2318</ele>
        <time>2020-07-28T09:06:56.112Z</time>
      </trkpt>
      <trkpt lat="42.85037" lon="0.14416">
        <ele>2318</ele>
        <time>2020-07-28T09:06:57.112Z</time>
      </trkpt>
      <trkpt lat="42.85038" lon="0.14418">
        <ele>2319</ele>
        <time>2020-07-28T09:06:58.112Z</time>
      </trkpt>
      <trkpt lat="42.85038" lon="0.14418">
        <ele>2319</ele>
        <time>2020-07-28T09:06:59.112Z</time>
      </trkpt>
      <trkpt lat="42.85038" lon="0.14418">
        <ele>2319</ele>
        <time>2020-07-28T09:07:00.112Z</time>
      </trkpt>
      <trkpt lat="42.85039" lon="0.14421">
        <ele>2320</ele>
        <time>2020-07-28T09:07:01.112Z</time>
      </trkpt>
      <trkpt lat="42.85039" lon="0.14421">
        <ele>2320</ele>
        <time>2020-07-28T09:07:02.112Z</time>
      </trkpt>
      <trkpt lat="42.85039" lon="0.14421">
        <ele>2320</ele>
        <time>2020-07-28T09:07:03.112Z</time>
      </trkpt>
      <trkpt lat="42.8504" lon="0.14423">
        <ele>2321</ele>
        <time>2020-07-28T09:07:04.112Z</time>
      </trkpt>
      <trkpt lat="42.8504" lon="0.14423">
        <ele>2321</ele>
        <time>2020-07-28T09:07:05.112Z</time>
      </trkpt>
      <trkpt lat="42.8504" lon="0.14423">
        <ele>2321</ele>
        <time>2020-07-28T09:07:06.112Z</time>
      </trkpt>
      <trkpt lat="42.85042" lon="0.14423">
        <ele>2321</ele>
        <time>2020-07-28T09:07:07.112Z</time>
      </trkpt>
      <trkpt lat="42.85042" lon="0.14423">
        <ele>2321</ele>
        <time>2020-07-28T09:07:08.112Z</time>
      </trkpt>
      <trkpt lat="42.85042" lon="0.14423">
        <ele>2321</ele>
        <time>2020-07-28T09:07:09.112Z</time>
      </trkpt>
      <trkpt lat="42.85043" lon="0.14424">
        <ele>2322</ele>
        <time>2020-07-28T09:07:10.112Z</time>
      </trkpt>
      <trkpt lat="42.85044" lon="0.14428">
        <ele>2325</ele>
        <time>2020-07-28T09:07:12.049Z</time>
      </trkpt>
      <trkpt lat="42.85044" lon="0.14428">
        <ele>2325</ele>
        <time>2020-07-28T09:07:13.049Z</time>
      </trkpt>
      <trkpt lat="42.85045" lon="0.14429">
        <ele>2325</ele>
        <time>2020-07-28T09:07:14.049Z</time>
      </trkpt>
      <trkpt lat="42.85045" lon="0.14429">
        <ele>2325</ele>
        <time>2020-07-28T09:07:15.049Z</time>
      </trkpt>
      <trkpt lat="42.85045" lon="0.14429">
        <ele>2325</ele>
        <time>2020-07-28T09:07:16.049Z</time>
      </trkpt>
      <trkpt lat="42.85046" lon="0.14431">
        <ele>2326</ele>
        <time>2020-07-28T09:07:17.049Z</time>
      </trkpt>
      <trkpt lat="42.85046" lon="0.14432">
        <ele>2326</ele>
        <time>2020-07-28T09:07:18.034Z</time>
      </trkpt>
      <trkpt lat="42.85046" lon="0.14432">
        <ele>2327</ele>
        <time>2020-07-28T09:07:19.034Z</time>
      </trkpt>
      <trkpt lat="42.85046" lon="0.14432">
        <ele>2327</ele>
        <time>2020-07-28T09:07:20.034Z</time>
      </trkpt>
      <trkpt lat="42.85047" lon="0.14432">
        <ele>2326</ele>
        <time>2020-07-28T09:07:21.034Z</time>
      </trkpt>
      <trkpt lat="42.85047" lon="0.14433">
        <ele>2326</ele>
        <time>2020-07-28T09:07:22.034Z</time>
      </trkpt>
      <trkpt lat="42.85047" lon="0.14433">
        <ele>2326</ele>
        <time>2020-07-28T09:07:23.034Z</time>
      </trkpt>
      <trkpt lat="42.85047" lon="0.14433">
        <ele>2326</ele>
        <time>2020-07-28T09:07:24.034Z</time>
      </trkpt>
      <trkpt lat="42.85047" lon="0.14436">
        <ele>2327</ele>
        <time>2020-07-28T09:07:25.034Z</time>
      </trkpt>
      <trkpt lat="42.85047" lon="0.14436">
        <ele>2327</ele>
        <time>2020-07-28T09:07:26.034Z</time>
      </trkpt>
      <trkpt lat="42.85047" lon="0.14436">
        <ele>2327</ele>
        <time>2020-07-28T09:07:27.034Z</time>
      </trkpt>
      <trkpt lat="42.85049" lon="0.14437">
        <ele>2330</ele>
        <time>2020-07-28T09:07:28.034Z</time>
      </trkpt>
      <trkpt lat="42.85049" lon="0.14437">
        <ele>2330</ele>
        <time>2020-07-28T09:07:29.034Z</time>
      </trkpt>
      <trkpt lat="42.85049" lon="0.14437">
        <ele>2330</ele>
        <time>2020-07-28T09:07:30.034Z</time>
      </trkpt>
      <trkpt lat="42.85052" lon="0.14439">
        <ele>2331</ele>
        <time>2020-07-28T09:07:31.034Z</time>
      </trkpt>
      <trkpt lat="42.85052" lon="0.14439">
        <ele>2331</ele>
        <time>2020-07-28T09:07:32.034Z</time>
      </trkpt>
      <trkpt lat="42.85052" lon="0.14439">
        <ele>2331</ele>
        <time>2020-07-28T09:07:33.034Z</time>
      </trkpt>
      <trkpt lat="42.85056" lon="0.14441">
        <ele>2330</ele>
        <time>2020-07-28T09:07:34.034Z</time>
      </trkpt>
      <trkpt lat="42.85056" lon="0.14441">
        <ele>2330</ele>
        <time>2020-07-28T09:07:35.034Z</time>
      </trkpt>
      <trkpt lat="42.85057" lon="0.14443">
        <ele>2332</ele>
        <time>2020-07-28T09:07:36.034Z</time>
      </trkpt>
      <trkpt lat="42.85058" lon="0.14445">
        <ele>2332</ele>
        <time>2020-07-28T09:07:37.034Z</time>
      </trkpt>
      <trkpt lat="42.85058" lon="0.14445">
        <ele>2332</ele>
        <time>2020-07-28T09:07:38.034Z</time>
      </trkpt>
      <trkpt lat="42.85058" lon="0.14445">
        <ele>2332</ele>
        <time>2020-07-28T09:07:39.034Z</time>
      </trkpt>
      <trkpt lat="42.85059" lon="0.14448">
        <ele>2333</ele>
        <time>2020-07-28T09:07:40.034Z</time>
      </trkpt>
      <trkpt lat="42.85059" lon="0.14448">
        <ele>2333</ele>
        <time>2020-07-28T09:07:41.034Z</time>
      </trkpt>
      <trkpt lat="42.85059" lon="0.14449">
        <ele>2333</ele>
        <time>2020-07-28T09:07:42.034Z</time>
      </trkpt>
      <trkpt lat="42.8506" lon="0.14451">
        <ele>2334</ele>
        <time>2020-07-28T09:07:43.034Z</time>
      </trkpt>
      <trkpt lat="42.8506" lon="0.14451">
        <ele>2334</ele>
        <time>2020-07-28T09:07:44.034Z</time>
      </trkpt>
      <trkpt lat="42.8506" lon="0.14451">
        <ele>2334</ele>
        <time>2020-07-28T09:07:45.034Z</time>
      </trkpt>
      <trkpt lat="42.85061" lon="0.14454">
        <ele>2334</ele>
        <time>2020-07-28T09:07:46.034Z</time>
      </trkpt>
      <trkpt lat="42.85061" lon="0.14454">
        <ele>2334</ele>
        <time>2020-07-28T09:07:47.034Z</time>
      </trkpt>
      <trkpt lat="42.85061" lon="0.14454">
        <ele>2334</ele>
        <time>2020-07-28T09:07:48.034Z</time>
      </trkpt>
      <trkpt lat="42.85062" lon="0.14461">
        <ele>2335</ele>
        <time>2020-07-28T09:07:49.034Z</time>
      </trkpt>
      <trkpt lat="42.85062" lon="0.14461">
        <ele>2335</ele>
        <time>2020-07-28T09:07:50.034Z</time>
      </trkpt>
      <trkpt lat="42.85063" lon="0.14467">
        <ele>2336</ele>
        <time>2020-07-28T09:07:51.034Z</time>
      </trkpt>
      <trkpt lat="42.85063" lon="0.14469">
        <ele>2335</ele>
        <time>2020-07-28T09:07:52.034Z</time>
      </trkpt>
      <trkpt lat="42.85063" lon="0.14471">
        <ele>2336</ele>
        <time>2020-07-28T09:07:53.034Z</time>
      </trkpt>
      <trkpt lat="42.85063" lon="0.14473">
        <ele>2336</ele>
        <time>2020-07-28T09:07:54.034Z</time>
      </trkpt>
      <trkpt lat="42.85063" lon="0.14475">
        <ele>2337</ele>
        <time>2020-07-28T09:07:55.034Z</time>
      </trkpt>
      <trkpt lat="42.85063" lon="0.14475">
        <ele>2337</ele>
        <time>2020-07-28T09:07:56.034Z</time>
      </trkpt>
      <trkpt lat="42.85064" lon="0.14479">
        <ele>2338</ele>
        <time>2020-07-28T09:07:57.034Z</time>
      </trkpt>
      <trkpt lat="42.85065" lon="0.14483">
        <ele>2339</ele>
        <time>2020-07-28T09:07:58.034Z</time>
      </trkpt>
      <trkpt lat="42.85065" lon="0.14483">
        <ele>2339</ele>
        <time>2020-07-28T09:07:59.034Z</time>
      </trkpt>
      <trkpt lat="42.85065" lon="0.14483">
        <ele>2339</ele>
        <time>2020-07-28T09:08:00.034Z</time>
      </trkpt>
      <trkpt lat="42.85064" lon="0.1449">
        <ele>2340</ele>
        <time>2020-07-28T09:08:01.034Z</time>
      </trkpt>
      <trkpt lat="42.85064" lon="0.1449">
        <ele>2340</ele>
        <time>2020-07-28T09:08:02.034Z</time>
      </trkpt>
      <trkpt lat="42.85064" lon="0.1449">
        <ele>2340</ele>
        <time>2020-07-28T09:08:03.034Z</time>
      </trkpt>
      <trkpt lat="42.85064" lon="0.145">
        <ele>2342</ele>
        <time>2020-07-28T09:08:04.034Z</time>
      </trkpt>
      <trkpt lat="42.85064" lon="0.145">
        <ele>2342</ele>
        <time>2020-07-28T09:08:05.034Z</time>
      </trkpt>
      <trkpt lat="42.85064" lon="0.14503">
        <ele>2342</ele>
        <time>2020-07-28T09:08:06.034Z</time>
      </trkpt>
      <trkpt lat="42.85064" lon="0.14506">
        <ele>2343</ele>
        <time>2020-07-28T09:08:07.034Z</time>
      </trkpt>
      <trkpt lat="42.85064" lon="0.14506">
        <ele>2343</ele>
        <time>2020-07-28T09:08:08.034Z</time>
      </trkpt>
      <trkpt lat="42.85064" lon="0.14506">
        <ele>2343</ele>
        <time>2020-07-28T09:08:09.034Z</time>
      </trkpt>
      <trkpt lat="42.85065" lon="0.14515">
        <ele>2344</ele>
        <time>2020-07-28T09:08:10.034Z</time>
      </trkpt>
      <trkpt lat="42.85065" lon="0.14515">
        <ele>2344</ele>
        <time>2020-07-28T09:08:11.034Z</time>
      </trkpt>
      <trkpt lat="42.85065" lon="0.14515">
        <ele>2344</ele>
        <time>2020-07-28T09:08:12.034Z</time>
      </trkpt>
      <trkpt lat="42.85067" lon="0.14521">
        <ele>2346</ele>
        <time>2020-07-28T09:08:13.034Z</time>
      </trkpt>
      <trkpt lat="42.85067" lon="0.14521">
        <ele>2346</ele>
        <time>2020-07-28T09:08:14.034Z</time>
      </trkpt>
      <trkpt lat="42.85067" lon="0.14521">
        <ele>2346</ele>
        <time>2020-07-28T09:08:15.034Z</time>
      </trkpt>
      <trkpt lat="42.85071" lon="0.14525">
        <ele>2347</ele>
        <time>2020-07-28T09:08:16.034Z</time>
      </trkpt>
      <trkpt lat="42.85071" lon="0.14525">
        <ele>2347</ele>
        <time>2020-07-28T09:08:17.034Z</time>
      </trkpt>
      <trkpt lat="42.85071" lon="0.14526">
        <ele>2347</ele>
        <time>2020-07-28T09:08:18.034Z</time>
      </trkpt>
      <trkpt lat="42.85073" lon="0.14529">
        <ele>2346</ele>
        <time>2020-07-28T09:08:19.034Z</time>
      </trkpt>
      <trkpt lat="42.85073" lon="0.14529">
        <ele>2346</ele>
        <time>2020-07-28T09:08:20.034Z</time>
      </trkpt>
      <trkpt lat="42.85073" lon="0.14529">
        <ele>2346</ele>
        <time>2020-07-28T09:08:21.034Z</time>
      </trkpt>
      <trkpt lat="42.85074" lon="0.14532">
        <ele>2345</ele>
        <time>2020-07-28T09:08:22.034Z</time>
      </trkpt>
      <trkpt lat="42.85074" lon="0.14532">
        <ele>2345</ele>
        <time>2020-07-28T09:08:23.034Z</time>
      </trkpt>
      <trkpt lat="42.85074" lon="0.14532">
        <ele>2345</ele>
        <time>2020-07-28T09:08:24.034Z</time>
      </trkpt>
      <trkpt lat="42.85075" lon="0.14536">
        <ele>2345</ele>
        <time>2020-07-28T09:08:25.034Z</time>
      </trkpt>
      <trkpt lat="42.85075" lon="0.14536">
        <ele>2345</ele>
        <time>2020-07-28T09:08:26.034Z</time>
      </trkpt>
      <trkpt lat="42.85075" lon="0.14536">
        <ele>2345</ele>
        <time>2020-07-28T09:08:27.034Z</time>
      </trkpt>
      <trkpt lat="42.85076" lon="0.14537">
        <ele>2346</ele>
        <time>2020-07-28T09:08:28.034Z</time>
      </trkpt>
      <trkpt lat="42.85076" lon="0.14537">
        <ele>2346</ele>
        <time>2020-07-28T09:08:29.034Z</time>
      </trkpt>
      <trkpt lat="42.85076" lon="0.14537">
        <ele>2346</ele>
        <time>2020-07-28T09:08:30.034Z</time>
      </trkpt>
      <trkpt lat="42.85133" lon="0.14681">
        <ele>2354</ele>
        <time>2020-07-28T09:08:31.081Z</time>
      </trkpt>
      <trkpt lat="42.85133" lon="0.14681">
        <ele>2354</ele>
        <time>2020-07-28T09:08:32.081Z</time>
      </trkpt>
      <trkpt lat="42.85134" lon="0.14686">
        <ele>2362</ele>
        <time>2020-07-28T09:08:33.096Z</time>
      </trkpt>
      <trkpt lat="42.85134" lon="0.14687">
        <ele>2362</ele>
        <time>2020-07-28T09:08:34.096Z</time>
      </trkpt>
      <trkpt lat="42.85135" lon="0.14688">
        <ele>2362</ele>
        <time>2020-07-28T09:08:35.096Z</time>
      </trkpt>
      <trkpt lat="42.85135" lon="0.14689">
        <ele>2363</ele>
        <time>2020-07-28T09:08:36.096Z</time>
      </trkpt>
      <trkpt lat="42.85136" lon="0.1469">
        <ele>2362</ele>
        <time>2020-07-28T09:08:37.096Z</time>
      </trkpt>
      <trkpt lat="42.85136" lon="0.1469">
        <ele>2362</ele>
        <time>2020-07-28T09:08:38.096Z</time>
      </trkpt>
      <trkpt lat="42.85138" lon="0.14692">
        <ele>2362</ele>
        <time>2020-07-28T09:08:39.096Z</time>
      </trkpt>
      <trkpt lat="42.8514" lon="0.14693">
        <ele>2361</ele>
        <time>2020-07-28T09:08:40.096Z</time>
      </trkpt>
      <trkpt lat="42.8514" lon="0.14695">
        <ele>2361</ele>
        <time>2020-07-28T09:08:41.096Z</time>
      </trkpt>
      <trkpt lat="42.85141" lon="0.14697">
        <ele>2361</ele>
        <time>2020-07-28T09:08:42.096Z</time>
      </trkpt>
      <trkpt lat="42.85142" lon="0.14699">
        <ele>2361</ele>
        <time>2020-07-28T09:08:43.096Z</time>
      </trkpt>
      <trkpt lat="42.85142" lon="0.14701">
        <ele>2362</ele>
        <time>2020-07-28T09:08:44.096Z</time>
      </trkpt>
      <trkpt lat="42.85143" lon="0.14702">
        <ele>2362</ele>
        <time>2020-07-28T09:08:45.096Z</time>
      </trkpt>
      <trkpt lat="42.85143" lon="0.14704">
        <ele>2363</ele>
        <time>2020-07-28T09:08:46.096Z</time>
      </trkpt>
      <trkpt lat="42.85143" lon="0.14706">
        <ele>2362</ele>
        <time>2020-07-28T09:08:47.096Z</time>
      </trkpt>
      <trkpt lat="42.85143" lon="0.14707">
        <ele>2362</ele>
        <time>2020-07-28T09:08:48.096Z</time>
      </trkpt>
      <trkpt lat="42.85142" lon="0.14709">
        <ele>2362</ele>
        <time>2020-07-28T09:08:49.096Z</time>
      </trkpt>
      <trkpt lat="42.85142" lon="0.1471">
        <ele>2363</ele>
        <time>2020-07-28T09:08:50.096Z</time>
      </trkpt>
      <trkpt lat="42.85143" lon="0.14712">
        <ele>2364</ele>
        <time>2020-07-28T09:08:51.096Z</time>
      </trkpt>
      <trkpt lat="42.85143" lon="0.14713">
        <ele>2365</ele>
        <time>2020-07-28T09:08:52.096Z</time>
      </trkpt>
      <trkpt lat="42.85144" lon="0.14715">
        <ele>2365</ele>
        <time>2020-07-28T09:08:53.096Z</time>
      </trkpt>
      <trkpt lat="42.85145" lon="0.14716">
        <ele>2366</ele>
        <time>2020-07-28T09:08:54.096Z</time>
      </trkpt>
      <trkpt lat="42.85146" lon="0.14717">
        <ele>2366</ele>
        <time>2020-07-28T09:08:55.096Z</time>
      </trkpt>
      <trkpt lat="42.85146" lon="0.14717">
        <ele>2366</ele>
        <time>2020-07-28T09:08:56.096Z</time>
      </trkpt>
      <trkpt lat="42.85147" lon="0.14719">
        <ele>2367</ele>
        <time>2020-07-28T09:08:57.096Z</time>
      </trkpt>
      <trkpt lat="42.85148" lon="0.14719">
        <ele>2367</ele>
        <time>2020-07-28T09:08:58.096Z</time>
      </trkpt>
      <trkpt lat="42.85149" lon="0.14719">
        <ele>2368</ele>
        <time>2020-07-28T09:08:59.096Z</time>
      </trkpt>
      <trkpt lat="42.8515" lon="0.1472">
        <ele>2369</ele>
        <time>2020-07-28T09:09:00.096Z</time>
      </trkpt>
      <trkpt lat="42.85152" lon="0.14721">
        <ele>2369</ele>
        <time>2020-07-28T09:09:01.096Z</time>
      </trkpt>
      <trkpt lat="42.85153" lon="0.14722">
        <ele>2370</ele>
        <time>2020-07-28T09:09:02.096Z</time>
      </trkpt>
      <trkpt lat="42.85154" lon="0.14723">
        <ele>2370</ele>
        <time>2020-07-28T09:09:03.096Z</time>
      </trkpt>
      <trkpt lat="42.85154" lon="0.14723">
        <ele>2371</ele>
        <time>2020-07-28T09:09:04.096Z</time>
      </trkpt>
      <trkpt lat="42.85155" lon="0.14724">
        <ele>2371</ele>
        <time>2020-07-28T09:09:05.096Z</time>
      </trkpt>
      <trkpt lat="42.85155" lon="0.14725">
        <ele>2371</ele>
        <time>2020-07-28T09:09:06.096Z</time>
      </trkpt>
      <trkpt lat="42.85156" lon="0.14726">
        <ele>2370</ele>
        <time>2020-07-28T09:09:07.096Z</time>
      </trkpt>
      <trkpt lat="42.85157" lon="0.14726">
        <ele>2370</ele>
        <time>2020-07-28T09:09:08.096Z</time>
      </trkpt>
      <trkpt lat="42.85158" lon="0.14727">
        <ele>2371</ele>
        <time>2020-07-28T09:09:09.096Z</time>
      </trkpt>
      <trkpt lat="42.85159" lon="0.14728">
        <ele>2371</ele>
        <time>2020-07-28T09:09:10.096Z</time>
      </trkpt>
      <trkpt lat="42.8516" lon="0.14729">
        <ele>2371</ele>
        <time>2020-07-28T09:09:11.096Z</time>
      </trkpt>
      <trkpt lat="42.85161" lon="0.1473">
        <ele>2372</ele>
        <time>2020-07-28T09:09:12.096Z</time>
      </trkpt>
      <trkpt lat="42.85162" lon="0.14732">
        <ele>2372</ele>
        <time>2020-07-28T09:09:13.096Z</time>
      </trkpt>
      <trkpt lat="42.85162" lon="0.14733">
        <ele>2373</ele>
        <time>2020-07-28T09:09:14.096Z</time>
      </trkpt>
      <trkpt lat="42.85163" lon="0.14735">
        <ele>2373</ele>
        <time>2020-07-28T09:09:15.096Z</time>
      </trkpt>
      <trkpt lat="42.85163" lon="0.14736">
        <ele>2374</ele>
        <time>2020-07-28T09:09:16.096Z</time>
      </trkpt>
      <trkpt lat="42.85163" lon="0.14738">
        <ele>2374</ele>
        <time>2020-07-28T09:09:17.096Z</time>
      </trkpt>
      <trkpt lat="42.85163" lon="0.14738">
        <ele>2374</ele>
        <time>2020-07-28T09:09:18.096Z</time>
      </trkpt>
      <trkpt lat="42.85164" lon="0.1474">
        <ele>2374</ele>
        <time>2020-07-28T09:09:19.096Z</time>
      </trkpt>
      <trkpt lat="42.85164" lon="0.14741">
        <ele>2375</ele>
        <time>2020-07-28T09:09:20.096Z</time>
      </trkpt>
      <trkpt lat="42.85165" lon="0.14742">
        <ele>2375</ele>
        <time>2020-07-28T09:09:21.096Z</time>
      </trkpt>
      <trkpt lat="42.85165" lon="0.14743">
        <ele>2376</ele>
        <time>2020-07-28T09:09:22.096Z</time>
      </trkpt>
      <trkpt lat="42.85165" lon="0.14745">
        <ele>2376</ele>
        <time>2020-07-28T09:09:23.096Z</time>
      </trkpt>
      <trkpt lat="42.85166" lon="0.14746">
        <ele>2376</ele>
        <time>2020-07-28T09:09:24.096Z</time>
      </trkpt>
      <trkpt lat="42.85166" lon="0.14747">
        <ele>2376</ele>
        <time>2020-07-28T09:09:25.096Z</time>
      </trkpt>
      <trkpt lat="42.85167" lon="0.14747">
        <ele>2376</ele>
        <time>2020-07-28T09:09:26.096Z</time>
      </trkpt>
      <trkpt lat="42.85168" lon="0.14747">
        <ele>2376</ele>
        <time>2020-07-28T09:09:27.096Z</time>
      </trkpt>
      <trkpt lat="42.85169" lon="0.14747">
        <ele>2377</ele>
        <time>2020-07-28T09:09:28.096Z</time>
      </trkpt>
      <trkpt lat="42.8517" lon="0.14747">
        <ele>2377</ele>
        <time>2020-07-28T09:09:29.096Z</time>
      </trkpt>
      <trkpt lat="42.85171" lon="0.14746">
        <ele>2378</ele>
        <time>2020-07-28T09:09:30.096Z</time>
      </trkpt>
      <trkpt lat="42.85172" lon="0.14746">
        <ele>2378</ele>
        <time>2020-07-28T09:09:31.096Z</time>
      </trkpt>
      <trkpt lat="42.85173" lon="0.14746">
        <ele>2378</ele>
        <time>2020-07-28T09:09:32.096Z</time>
      </trkpt>
      <trkpt lat="42.85174" lon="0.14747">
        <ele>2378</ele>
        <time>2020-07-28T09:09:33.096Z</time>
      </trkpt>
      <trkpt lat="42.85175" lon="0.14748">
        <ele>2378</ele>
        <time>2020-07-28T09:09:34.096Z</time>
      </trkpt>
      <trkpt lat="42.85175" lon="0.14748">
        <ele>2378</ele>
        <time>2020-07-28T09:09:35.096Z</time>
      </trkpt>
      <trkpt lat="42.85175" lon="0.14748">
        <ele>2378</ele>
        <time>2020-07-28T09:09:36.096Z</time>
      </trkpt>
      <trkpt lat="42.85176" lon="0.14749">
        <ele>2379</ele>
        <time>2020-07-28T09:09:37.096Z</time>
      </trkpt>
      <trkpt lat="42.85177" lon="0.1475">
        <ele>2378</ele>
        <time>2020-07-28T09:09:38.096Z</time>
      </trkpt>
      <trkpt lat="42.85178" lon="0.14751">
        <ele>2378</ele>
        <time>2020-07-28T09:09:39.096Z</time>
      </trkpt>
      <trkpt lat="42.85179" lon="0.14752">
        <ele>2380</ele>
        <time>2020-07-28T09:09:40.096Z</time>
      </trkpt>
      <trkpt lat="42.85183" lon="0.14752">
        <ele>2383</ele>
        <time>2020-07-28T09:09:42.033Z</time>
      </trkpt>
      <trkpt lat="42.85184" lon="0.14752">
        <ele>2383</ele>
        <time>2020-07-28T09:09:43.033Z</time>
      </trkpt>
      <trkpt lat="42.85185" lon="0.14751">
        <ele>2383</ele>
        <time>2020-07-28T09:09:44.033Z</time>
      </trkpt>
      <trkpt lat="42.85186" lon="0.1475">
        <ele>2383</ele>
        <time>2020-07-28T09:09:45.033Z</time>
      </trkpt>
      <trkpt lat="42.85187" lon="0.1475">
        <ele>2383</ele>
        <time>2020-07-28T09:09:46.033Z</time>
      </trkpt>
      <trkpt lat="42.85189" lon="0.14749">
        <ele>2383</ele>
        <time>2020-07-28T09:09:47.033Z</time>
      </trkpt>
      <trkpt lat="42.8519" lon="0.14749">
        <ele>2384</ele>
        <time>2020-07-28T09:09:48.033Z</time>
      </trkpt>
      <trkpt lat="42.8519" lon="0.14749">
        <ele>2384</ele>
        <time>2020-07-28T09:09:49.033Z</time>
      </trkpt>
      <trkpt lat="42.8519" lon="0.14749">
        <ele>2384</ele>
        <time>2020-07-28T09:09:50.033Z</time>
      </trkpt>
      <trkpt lat="42.85195" lon="0.14749">
        <ele>2385</ele>
        <time>2020-07-28T09:09:51.033Z</time>
      </trkpt>
      <trkpt lat="42.85195" lon="0.14749">
        <ele>2385</ele>
        <time>2020-07-28T09:09:52.033Z</time>
      </trkpt>
      <trkpt lat="42.85199" lon="0.14749">
        <ele>2388</ele>
        <time>2020-07-28T09:09:53.033Z</time>
      </trkpt>
      <trkpt lat="42.852" lon="0.14749">
        <ele>2386</ele>
        <time>2020-07-28T09:09:54.033Z</time>
      </trkpt>
      <trkpt lat="42.852" lon="0.14749">
        <ele>2386</ele>
        <time>2020-07-28T09:09:55.033Z</time>
      </trkpt>
      <trkpt lat="42.852" lon="0.14749">
        <ele>2386</ele>
        <time>2020-07-28T09:09:56.033Z</time>
      </trkpt>
      <trkpt lat="42.85202" lon="0.14747">
        <ele>2386</ele>
        <time>2020-07-28T09:09:57.033Z</time>
      </trkpt>
      <trkpt lat="42.85202" lon="0.14747">
        <ele>2386</ele>
        <time>2020-07-28T09:09:58.033Z</time>
      </trkpt>
      <trkpt lat="42.85204" lon="0.14746">
        <ele>2386</ele>
        <time>2020-07-28T09:09:59.033Z</time>
      </trkpt>
      <trkpt lat="42.85205" lon="0.14745">
        <ele>2386</ele>
        <time>2020-07-28T09:10:00.033Z</time>
      </trkpt>
      <trkpt lat="42.85206" lon="0.14743">
        <ele>2386</ele>
        <time>2020-07-28T09:10:01.033Z</time>
      </trkpt>
      <trkpt lat="42.85206" lon="0.14742">
        <ele>2387</ele>
        <time>2020-07-28T09:10:02.033Z</time>
      </trkpt>
      <trkpt lat="42.85207" lon="0.14742">
        <ele>2387</ele>
        <time>2020-07-28T09:10:03.033Z</time>
      </trkpt>
      <trkpt lat="42.85208" lon="0.1474">
        <ele>2387</ele>
        <time>2020-07-28T09:10:04.033Z</time>
      </trkpt>
      <trkpt lat="42.85208" lon="0.14739">
        <ele>2388</ele>
        <time>2020-07-28T09:10:05.033Z</time>
      </trkpt>
      <trkpt lat="42.85209" lon="0.14738">
        <ele>2388</ele>
        <time>2020-07-28T09:10:06.033Z</time>
      </trkpt>
      <trkpt lat="42.85209" lon="0.14738">
        <ele>2389</ele>
        <time>2020-07-28T09:10:07.033Z</time>
      </trkpt>
      <trkpt lat="42.8521" lon="0.14737">
        <ele>2388</ele>
        <time>2020-07-28T09:10:08.033Z</time>
      </trkpt>
      <trkpt lat="42.85211" lon="0.14736">
        <ele>2389</ele>
        <time>2020-07-28T09:10:09.033Z</time>
      </trkpt>
      <trkpt lat="42.85212" lon="0.14735">
        <ele>2391</ele>
        <time>2020-07-28T09:10:10.033Z</time>
      </trkpt>
      <trkpt lat="42.85213" lon="0.14735">
        <ele>2391</ele>
        <time>2020-07-28T09:10:11.033Z</time>
      </trkpt>
      <trkpt lat="42.85214" lon="0.14733">
        <ele>2391</ele>
        <time>2020-07-28T09:10:12.033Z</time>
      </trkpt>
      <trkpt lat="42.85215" lon="0.14732">
        <ele>2392</ele>
        <time>2020-07-28T09:10:13.033Z</time>
      </trkpt>
      <trkpt lat="42.85215" lon="0.14732">
        <ele>2392</ele>
        <time>2020-07-28T09:10:14.033Z</time>
      </trkpt>
      <trkpt lat="42.85216" lon="0.1473">
        <ele>2392</ele>
        <time>2020-07-28T09:10:15.033Z</time>
      </trkpt>
      <trkpt lat="42.85217" lon="0.14729">
        <ele>2393</ele>
        <time>2020-07-28T09:10:16.033Z</time>
      </trkpt>
      <trkpt lat="42.85219" lon="0.14728">
        <ele>2393</ele>
        <time>2020-07-28T09:10:17.033Z</time>
      </trkpt>
      <trkpt lat="42.8522" lon="0.14727">
        <ele>2393</ele>
        <time>2020-07-28T09:10:18.033Z</time>
      </trkpt>
      <trkpt lat="42.8522" lon="0.14726">
        <ele>2394</ele>
        <time>2020-07-28T09:10:19.033Z</time>
      </trkpt>
      <trkpt lat="42.85221" lon="0.14725">
        <ele>2395</ele>
        <time>2020-07-28T09:10:20.033Z</time>
      </trkpt>
      <trkpt lat="42.85221" lon="0.14723">
        <ele>2395</ele>
        <time>2020-07-28T09:10:21.033Z</time>
      </trkpt>
      <trkpt lat="42.85221" lon="0.14723">
        <ele>2395</ele>
        <time>2020-07-28T09:10:22.033Z</time>
      </trkpt>
      <trkpt lat="42.85222" lon="0.14721">
        <ele>2395</ele>
        <time>2020-07-28T09:10:23.033Z</time>
      </trkpt>
      <trkpt lat="42.85222" lon="0.14719">
        <ele>2396</ele>
        <time>2020-07-28T09:10:24.033Z</time>
      </trkpt>
      <trkpt lat="42.85222" lon="0.14719">
        <ele>2396</ele>
        <time>2020-07-28T09:10:25.033Z</time>
      </trkpt>
      <trkpt lat="42.85224" lon="0.14718">
        <ele>2396</ele>
        <time>2020-07-28T09:10:26.033Z</time>
      </trkpt>
      <trkpt lat="42.85225" lon="0.14717">
        <ele>2396</ele>
        <time>2020-07-28T09:10:27.033Z</time>
      </trkpt>
      <trkpt lat="42.85226" lon="0.14717">
        <ele>2397</ele>
        <time>2020-07-28T09:10:28.033Z</time>
      </trkpt>
      <trkpt lat="42.85226" lon="0.14716">
        <ele>2397</ele>
        <time>2020-07-28T09:10:29.033Z</time>
      </trkpt>
      <trkpt lat="42.85226" lon="0.14716">
        <ele>2397</ele>
        <time>2020-07-28T09:10:30.033Z</time>
      </trkpt>
      <trkpt lat="42.85226" lon="0.14715">
        <ele>2397</ele>
        <time>2020-07-28T09:10:31.033Z</time>
      </trkpt>
      <trkpt lat="42.85225" lon="0.14714">
        <ele>2397</ele>
        <time>2020-07-28T09:10:32.033Z</time>
      </trkpt>
      <trkpt lat="42.85225" lon="0.14713">
        <ele>2397</ele>
        <time>2020-07-28T09:10:33.033Z</time>
      </trkpt>
      <trkpt lat="42.85226" lon="0.14712">
        <ele>2397</ele>
        <time>2020-07-28T09:10:34.033Z</time>
      </trkpt>
      <trkpt lat="42.85226" lon="0.1471">
        <ele>2398</ele>
        <time>2020-07-28T09:10:35.033Z</time>
      </trkpt>
      <trkpt lat="42.85226" lon="0.14709">
        <ele>2399</ele>
        <time>2020-07-28T09:10:36.033Z</time>
      </trkpt>
      <trkpt lat="42.85226" lon="0.14708">
        <ele>2399</ele>
        <time>2020-07-28T09:10:37.033Z</time>
      </trkpt>
      <trkpt lat="42.85227" lon="0.14707">
        <ele>2399</ele>
        <time>2020-07-28T09:10:38.033Z</time>
      </trkpt>
      <trkpt lat="42.85228" lon="0.14706">
        <ele>2400</ele>
        <time>2020-07-28T09:10:39.033Z</time>
      </trkpt>
      <trkpt lat="42.85229" lon="0.14705">
        <ele>2400</ele>
        <time>2020-07-28T09:10:40.033Z</time>
      </trkpt>
      <trkpt lat="42.8523" lon="0.14705">
        <ele>2401</ele>
        <time>2020-07-28T09:10:41.033Z</time>
      </trkpt>
      <trkpt lat="42.85232" lon="0.14704">
        <ele>2401</ele>
        <time>2020-07-28T09:10:42.096Z</time>
      </trkpt>
      <trkpt lat="42.85232" lon="0.14704">
        <ele>2401</ele>
        <time>2020-07-28T09:10:43.096Z</time>
      </trkpt>
      <trkpt lat="42.85233" lon="0.14702">
        <ele>2401</ele>
        <time>2020-07-28T09:10:44.096Z</time>
      </trkpt>
      <trkpt lat="42.85233" lon="0.14701">
        <ele>2401</ele>
        <time>2020-07-28T09:10:45.096Z</time>
      </trkpt>
      <trkpt lat="42.85233" lon="0.14699">
        <ele>2401</ele>
        <time>2020-07-28T09:10:46.096Z</time>
      </trkpt>
      <trkpt lat="42.85234" lon="0.14697">
        <ele>2401</ele>
        <time>2020-07-28T09:10:47.096Z</time>
      </trkpt>
      <trkpt lat="42.85235" lon="0.14695">
        <ele>2401</ele>
        <time>2020-07-28T09:10:48.096Z</time>
      </trkpt>
      <trkpt lat="42.85236" lon="0.14693">
        <ele>2401</ele>
        <time>2020-07-28T09:10:49.096Z</time>
      </trkpt>
      <trkpt lat="42.85236" lon="0.1469">
        <ele>2401</ele>
        <time>2020-07-28T09:10:50.096Z</time>
      </trkpt>
      <trkpt lat="42.85237" lon="0.14688">
        <ele>2402</ele>
        <time>2020-07-28T09:10:51.096Z</time>
      </trkpt>
      <trkpt lat="42.85238" lon="0.14685">
        <ele>2402</ele>
        <time>2020-07-28T09:10:52.096Z</time>
      </trkpt>
      <trkpt lat="42.85238" lon="0.14683">
        <ele>2402</ele>
        <time>2020-07-28T09:10:53.096Z</time>
      </trkpt>
      <trkpt lat="42.85239" lon="0.14681">
        <ele>2402</ele>
        <time>2020-07-28T09:10:54.096Z</time>
      </trkpt>
      <trkpt lat="42.85239" lon="0.14679">
        <ele>2403</ele>
        <time>2020-07-28T09:10:55.096Z</time>
      </trkpt>
      <trkpt lat="42.85239" lon="0.14677">
        <ele>2403</ele>
        <time>2020-07-28T09:10:56.096Z</time>
      </trkpt>
      <trkpt lat="42.85238" lon="0.14674">
        <ele>2403</ele>
        <time>2020-07-28T09:10:57.096Z</time>
      </trkpt>
      <trkpt lat="42.85237" lon="0.14671">
        <ele>2403</ele>
        <time>2020-07-28T09:10:58.096Z</time>
      </trkpt>
      <trkpt lat="42.85236" lon="0.14669">
        <ele>2403</ele>
        <time>2020-07-28T09:10:59.096Z</time>
      </trkpt>
      <trkpt lat="42.85236" lon="0.14666">
        <ele>2403</ele>
        <time>2020-07-28T09:11:00.096Z</time>
      </trkpt>
      <trkpt lat="42.85236" lon="0.14663">
        <ele>2404</ele>
        <time>2020-07-28T09:11:01.096Z</time>
      </trkpt>
      <trkpt lat="42.85236" lon="0.1466">
        <ele>2404</ele>
        <time>2020-07-28T09:11:02.096Z</time>
      </trkpt>
      <trkpt lat="42.85236" lon="0.14658">
        <ele>2403</ele>
        <time>2020-07-28T09:11:03.096Z</time>
      </trkpt>
      <trkpt lat="42.85236" lon="0.14656">
        <ele>2403</ele>
        <time>2020-07-28T09:11:04.096Z</time>
      </trkpt>
      <trkpt lat="42.85236" lon="0.14655">
        <ele>2404</ele>
        <time>2020-07-28T09:11:05.096Z</time>
      </trkpt>
      <trkpt lat="42.85236" lon="0.14653">
        <ele>2403</ele>
        <time>2020-07-28T09:11:06.096Z</time>
      </trkpt>
      <trkpt lat="42.85236" lon="0.14652">
        <ele>2403</ele>
        <time>2020-07-28T09:11:07.096Z</time>
      </trkpt>
      <trkpt lat="42.85236" lon="0.14651">
        <ele>2403</ele>
        <time>2020-07-28T09:11:08.096Z</time>
      </trkpt>
      <trkpt lat="42.85236" lon="0.1465">
        <ele>2403</ele>
        <time>2020-07-28T09:11:09.096Z</time>
      </trkpt>
      <trkpt lat="42.85236" lon="0.14649">
        <ele>2403</ele>
        <time>2020-07-28T09:11:10.096Z</time>
      </trkpt>
      <trkpt lat="42.85237" lon="0.14647">
        <ele>2404</ele>
        <time>2020-07-28T09:11:11.096Z</time>
      </trkpt>
      <trkpt lat="42.85238" lon="0.14645">
        <ele>2404</ele>
        <time>2020-07-28T09:11:12.096Z</time>
      </trkpt>
      <trkpt lat="42.85239" lon="0.14643">
        <ele>2405</ele>
        <time>2020-07-28T09:11:13.096Z</time>
      </trkpt>
      <trkpt lat="42.85241" lon="0.14641">
        <ele>2405</ele>
        <time>2020-07-28T09:11:14.096Z</time>
      </trkpt>
      <trkpt lat="42.85243" lon="0.1464">
        <ele>2406</ele>
        <time>2020-07-28T09:11:15.096Z</time>
      </trkpt>
      <trkpt lat="42.85244" lon="0.14638">
        <ele>2406</ele>
        <time>2020-07-28T09:11:16.096Z</time>
      </trkpt>
      <trkpt lat="42.85245" lon="0.14637">
        <ele>2407</ele>
        <time>2020-07-28T09:11:17.096Z</time>
      </trkpt>
      <trkpt lat="42.85246" lon="0.14636">
        <ele>2405</ele>
        <time>2020-07-28T09:11:18.096Z</time>
      </trkpt>
      <trkpt lat="42.85246" lon="0.14636">
        <ele>2405</ele>
        <time>2020-07-28T09:11:19.096Z</time>
      </trkpt>
      <trkpt lat="42.85248" lon="0.14634">
        <ele>2406</ele>
        <time>2020-07-28T09:11:20.096Z</time>
      </trkpt>
      <trkpt lat="42.85248" lon="0.14633">
        <ele>2406</ele>
        <time>2020-07-28T09:11:21.096Z</time>
      </trkpt>
      <trkpt lat="42.85249" lon="0.14631">
        <ele>2406</ele>
        <time>2020-07-28T09:11:22.096Z</time>
      </trkpt>
      <trkpt lat="42.8525" lon="0.14628">
        <ele>2407</ele>
        <time>2020-07-28T09:11:23.096Z</time>
      </trkpt>
      <trkpt lat="42.85251" lon="0.14626">
        <ele>2407</ele>
        <time>2020-07-28T09:11:24.096Z</time>
      </trkpt>
      <trkpt lat="42.85252" lon="0.14623">
        <ele>2407</ele>
        <time>2020-07-28T09:11:25.096Z</time>
      </trkpt>
      <trkpt lat="42.85253" lon="0.14621">
        <ele>2407</ele>
        <time>2020-07-28T09:11:26.096Z</time>
      </trkpt>
      <trkpt lat="42.85255" lon="0.14618">
        <ele>2407</ele>
        <time>2020-07-28T09:11:27.096Z</time>
      </trkpt>
      <trkpt lat="42.85257" lon="0.14616">
        <ele>2408</ele>
        <time>2020-07-28T09:11:28.096Z</time>
      </trkpt>
      <trkpt lat="42.85258" lon="0.14614">
        <ele>2407</ele>
        <time>2020-07-28T09:11:29.096Z</time>
      </trkpt>
      <trkpt lat="42.85258" lon="0.14614">
        <ele>2407</ele>
        <time>2020-07-28T09:11:30.096Z</time>
      </trkpt>
      <trkpt lat="42.85261" lon="0.1461">
        <ele>2408</ele>
        <time>2020-07-28T09:11:31.096Z</time>
      </trkpt>
      <trkpt lat="42.85261" lon="0.14607">
        <ele>2409</ele>
        <time>2020-07-28T09:11:32.096Z</time>
      </trkpt>
      <trkpt lat="42.85261" lon="0.14603">
        <ele>2409</ele>
        <time>2020-07-28T09:11:33.096Z</time>
      </trkpt>
      <trkpt lat="42.85261" lon="0.14599">
        <ele>2408</ele>
        <time>2020-07-28T09:11:34.096Z</time>
      </trkpt>
      <trkpt lat="42.85262" lon="0.14596">
        <ele>2409</ele>
        <time>2020-07-28T09:11:35.096Z</time>
      </trkpt>
      <trkpt lat="42.85264" lon="0.14593">
        <ele>2408</ele>
        <time>2020-07-28T09:11:36.096Z</time>
      </trkpt>
      <trkpt lat="42.85265" lon="0.1459">
        <ele>2409</ele>
        <time>2020-07-28T09:11:37.096Z</time>
      </trkpt>
      <trkpt lat="42.85266" lon="0.14586">
        <ele>2408</ele>
        <time>2020-07-28T09:11:38.096Z</time>
      </trkpt>
      <trkpt lat="42.85267" lon="0.14583">
        <ele>2408</ele>
        <time>2020-07-28T09:11:39.096Z</time>
      </trkpt>
      <trkpt lat="42.85268" lon="0.14579">
        <ele>2409</ele>
        <time>2020-07-28T09:11:40.096Z</time>
      </trkpt>
      <trkpt lat="42.85269" lon="0.14576">
        <ele>2409</ele>
        <time>2020-07-28T09:11:41.096Z</time>
      </trkpt>
      <trkpt lat="42.8527" lon="0.14573">
        <ele>2409</ele>
        <time>2020-07-28T09:11:42.096Z</time>
      </trkpt>
      <trkpt lat="42.85272" lon="0.14571">
        <ele>2409</ele>
        <time>2020-07-28T09:11:43.096Z</time>
      </trkpt>
      <trkpt lat="42.85273" lon="0.14569">
        <ele>2408</ele>
        <time>2020-07-28T09:11:44.096Z</time>
      </trkpt>
      <trkpt lat="42.85274" lon="0.14569">
        <ele>2408</ele>
        <time>2020-07-28T09:11:45.096Z</time>
      </trkpt>
      <trkpt lat="42.85274" lon="0.14568">
        <ele>2408</ele>
        <time>2020-07-28T09:11:46.096Z</time>
      </trkpt>
      <trkpt lat="42.85274" lon="0.14568">
        <ele>2408</ele>
        <time>2020-07-28T09:11:47.096Z</time>
      </trkpt>
      <trkpt lat="42.85274" lon="0.14568">
        <ele>2408</ele>
        <time>2020-07-28T09:11:48.096Z</time>
      </trkpt>
      <trkpt lat="42.85275" lon="0.14565">
        <ele>2407</ele>
        <time>2020-07-28T09:11:49.096Z</time>
      </trkpt>
      <trkpt lat="42.85276" lon="0.14564">
        <ele>2407</ele>
        <time>2020-07-28T09:11:50.096Z</time>
      </trkpt>
      <trkpt lat="42.85277" lon="0.14562">
        <ele>2407</ele>
        <time>2020-07-28T09:11:51.096Z</time>
      </trkpt>
      <trkpt lat="42.85278" lon="0.1456">
        <ele>2407</ele>
        <time>2020-07-28T09:11:52.096Z</time>
      </trkpt>
      <trkpt lat="42.85279" lon="0.14559">
        <ele>2407</ele>
        <time>2020-07-28T09:11:53.096Z</time>
      </trkpt>
      <trkpt lat="42.8528" lon="0.14558">
        <ele>2407</ele>
        <time>2020-07-28T09:11:54.096Z</time>
      </trkpt>
      <trkpt lat="42.85282" lon="0.14557">
        <ele>2407</ele>
        <time>2020-07-28T09:11:55.096Z</time>
      </trkpt>
      <trkpt lat="42.85283" lon="0.14557">
        <ele>2406</ele>
        <time>2020-07-28T09:11:56.096Z</time>
      </trkpt>
      <trkpt lat="42.85284" lon="0.14556">
        <ele>2406</ele>
        <time>2020-07-28T09:11:57.096Z</time>
      </trkpt>
      <trkpt lat="42.85285" lon="0.14554">
        <ele>2407</ele>
        <time>2020-07-28T09:11:58.096Z</time>
      </trkpt>
      <trkpt lat="42.85286" lon="0.14553">
        <ele>2406</ele>
        <time>2020-07-28T09:11:59.096Z</time>
      </trkpt>
      <trkpt lat="42.85287" lon="0.14552">
        <ele>2407</ele>
        <time>2020-07-28T09:12:00.096Z</time>
      </trkpt>
      <trkpt lat="42.85288" lon="0.14551">
        <ele>2406</ele>
        <time>2020-07-28T09:12:01.096Z</time>
      </trkpt>
      <trkpt lat="42.85289" lon="0.1455">
        <ele>2407</ele>
        <time>2020-07-28T09:12:02.096Z</time>
      </trkpt>
      <trkpt lat="42.8529" lon="0.1455">
        <ele>2407</ele>
        <time>2020-07-28T09:12:03.096Z</time>
      </trkpt>
      <trkpt lat="42.85291" lon="0.14549">
        <ele>2407</ele>
        <time>2020-07-28T09:12:04.096Z</time>
      </trkpt>
      <trkpt lat="42.85291" lon="0.14548">
        <ele>2407</ele>
        <time>2020-07-28T09:12:05.096Z</time>
      </trkpt>
      <trkpt lat="42.85292" lon="0.14547">
        <ele>2407</ele>
        <time>2020-07-28T09:12:06.096Z</time>
      </trkpt>
      <trkpt lat="42.85292" lon="0.14546">
        <ele>2407</ele>
        <time>2020-07-28T09:12:07.096Z</time>
      </trkpt>
      <trkpt lat="42.85292" lon="0.14546">
        <ele>2407</ele>
        <time>2020-07-28T09:12:08.096Z</time>
      </trkpt>
      <trkpt lat="42.85293" lon="0.14545">
        <ele>2407</ele>
        <time>2020-07-28T09:12:09.096Z</time>
      </trkpt>
      <trkpt lat="42.85293" lon="0.14544">
        <ele>2406</ele>
        <time>2020-07-28T09:12:10.096Z</time>
      </trkpt>
      <trkpt lat="42.85294" lon="0.14543">
        <ele>2407</ele>
        <time>2020-07-28T09:12:11.096Z</time>
      </trkpt>
      <trkpt lat="42.85295" lon="0.14541">
        <ele>2407</ele>
        <time>2020-07-28T09:12:12.096Z</time>
      </trkpt>
      <trkpt lat="42.85296" lon="0.14539">
        <ele>2407</ele>
        <time>2020-07-28T09:12:13.096Z</time>
      </trkpt>
      <trkpt lat="42.85297" lon="0.14537">
        <ele>2406</ele>
        <time>2020-07-28T09:12:14.096Z</time>
      </trkpt>
      <trkpt lat="42.85298" lon="0.14534">
        <ele>2405</ele>
        <time>2020-07-28T09:12:15.096Z</time>
      </trkpt>
      <trkpt lat="42.853" lon="0.14531">
        <ele>2405</ele>
        <time>2020-07-28T09:12:16.096Z</time>
      </trkpt>
      <trkpt lat="42.85301" lon="0.14528">
        <ele>2406</ele>
        <time>2020-07-28T09:12:17.096Z</time>
      </trkpt>
      <trkpt lat="42.85303" lon="0.14525">
        <ele>2405</ele>
        <time>2020-07-28T09:12:18.096Z</time>
      </trkpt>
      <trkpt lat="42.85304" lon="0.14523">
        <ele>2405</ele>
        <time>2020-07-28T09:12:19.096Z</time>
      </trkpt>
      <trkpt lat="42.85307" lon="0.14521">
        <ele>2405</ele>
        <time>2020-07-28T09:12:20.096Z</time>
      </trkpt>
      <trkpt lat="42.85309" lon="0.14519">
        <ele>2405</ele>
        <time>2020-07-28T09:12:21.096Z</time>
      </trkpt>
      <trkpt lat="42.85311" lon="0.14517">
        <ele>2405</ele>
        <time>2020-07-28T09:12:22.096Z</time>
      </trkpt>
      <trkpt lat="42.85313" lon="0.14515">
        <ele>2405</ele>
        <time>2020-07-28T09:12:23.096Z</time>
      </trkpt>
      <trkpt lat="42.85314" lon="0.14514">
        <ele>2406</ele>
        <time>2020-07-28T09:12:24.096Z</time>
      </trkpt>
      <trkpt lat="42.85314" lon="0.14513">
        <ele>2406</ele>
        <time>2020-07-28T09:12:25.096Z</time>
      </trkpt>
      <trkpt lat="42.85315" lon="0.14513">
        <ele>2406</ele>
        <time>2020-07-28T09:12:26.096Z</time>
      </trkpt>
      <trkpt lat="42.85315" lon="0.14513">
        <ele>2406</ele>
        <time>2020-07-28T09:12:27.096Z</time>
      </trkpt>
      <trkpt lat="42.85315" lon="0.14513">
        <ele>2406</ele>
        <time>2020-07-28T09:12:28.096Z</time>
      </trkpt>
      <trkpt lat="42.85316" lon="0.14513">
        <ele>2406</ele>
        <time>2020-07-28T09:12:29.096Z</time>
      </trkpt>
      <trkpt lat="42.85316" lon="0.14513">
        <ele>2406</ele>
        <time>2020-07-28T09:12:30.096Z</time>
      </trkpt>
      <trkpt lat="42.85316" lon="0.14513">
        <ele>2406</ele>
        <time>2020-07-28T09:12:31.096Z</time>
      </trkpt>
      <trkpt lat="42.85317" lon="0.14512">
        <ele>2406</ele>
        <time>2020-07-28T09:12:32.096Z</time>
      </trkpt>
      <trkpt lat="42.85317" lon="0.14512">
        <ele>2406</ele>
        <time>2020-07-28T09:12:33.096Z</time>
      </trkpt>
      <trkpt lat="42.85317" lon="0.14512">
        <ele>2406</ele>
        <time>2020-07-28T09:12:34.096Z</time>
      </trkpt>
      <trkpt lat="42.85317" lon="0.14512">
        <ele>2406</ele>
        <time>2020-07-28T09:12:35.096Z</time>
      </trkpt>
      <trkpt lat="42.85317" lon="0.14511">
        <ele>2406</ele>
        <time>2020-07-28T09:12:36.096Z</time>
      </trkpt>
      <trkpt lat="42.85317" lon="0.14511">
        <ele>2406</ele>
        <time>2020-07-28T09:12:37.096Z</time>
      </trkpt>
      <trkpt lat="42.85317" lon="0.14511">
        <ele>2406</ele>
        <time>2020-07-28T09:12:38.096Z</time>
      </trkpt>
      <trkpt lat="42.85317" lon="0.14512">
        <ele>2406</ele>
        <time>2020-07-28T09:12:39.096Z</time>
      </trkpt>
      <trkpt lat="42.85317" lon="0.14512">
        <ele>2406</ele>
        <time>2020-07-28T09:12:40.096Z</time>
      </trkpt>
      <trkpt lat="42.85317" lon="0.14512">
        <ele>2406</ele>
        <time>2020-07-28T09:12:41.096Z</time>
      </trkpt>
      <trkpt lat="42.85317" lon="0.14512">
        <ele>2406</ele>
        <time>2020-07-28T09:12:42.096Z</time>
      </trkpt>
      <trkpt lat="42.85317" lon="0.14512">
        <ele>2406</ele>
        <time>2020-07-28T09:12:43.096Z</time>
      </trkpt>
      <trkpt lat="42.85317" lon="0.14512">
        <ele>2405</ele>
        <time>2020-07-28T09:12:44.096Z</time>
      </trkpt>
      <trkpt lat="42.85318" lon="0.14511">
        <ele>2405</ele>
        <time>2020-07-28T09:12:45.080Z</time>
      </trkpt>
      <trkpt lat="42.85318" lon="0.14511">
        <ele>2404</ele>
        <time>2020-07-28T09:12:46.080Z</time>
      </trkpt>
      <trkpt lat="42.85319" lon="0.14511">
        <ele>2404</ele>
        <time>2020-07-28T09:12:47.080Z</time>
      </trkpt>
      <trkpt lat="42.85318" lon="0.14511">
        <ele>2404</ele>
        <time>2020-07-28T09:12:48.080Z</time>
      </trkpt>
      <trkpt lat="42.85318" lon="0.1451">
        <ele>2404</ele>
        <time>2020-07-28T09:12:49.080Z</time>
      </trkpt>
      <trkpt lat="42.85318" lon="0.1451">
        <ele>2404</ele>
        <time>2020-07-28T09:12:50.080Z</time>
      </trkpt>
      <trkpt lat="42.85318" lon="0.1451">
        <ele>2404</ele>
        <time>2020-07-28T09:12:51.080Z</time>
      </trkpt>
      <trkpt lat="42.85318" lon="0.1451">
        <ele>2404</ele>
        <time>2020-07-28T09:12:52.080Z</time>
      </trkpt>
      <trkpt lat="42.85318" lon="0.1451">
        <ele>2404</ele>
        <time>2020-07-28T09:12:53.080Z</time>
      </trkpt>
      <trkpt lat="42.85318" lon="0.14509">
        <ele>2404</ele>
        <time>2020-07-28T09:12:54.080Z</time>
      </trkpt>
      <trkpt lat="42.85318" lon="0.14509">
        <ele>2404</ele>
        <time>2020-07-28T09:12:55.080Z</time>
      </trkpt>
      <trkpt lat="42.85318" lon="0.14508">
        <ele>2404</ele>
        <time>2020-07-28T09:12:56.080Z</time>
      </trkpt>
      <trkpt lat="42.85318" lon="0.14508">
        <ele>2404</ele>
        <time>2020-07-28T09:12:57.080Z</time>
      </trkpt>
      <trkpt lat="42.85318" lon="0.14508">
        <ele>2404</ele>
        <time>2020-07-28T09:12:58.080Z</time>
      </trkpt>
      <trkpt lat="42.85319" lon="0.14506">
        <ele>2403</ele>
        <time>2020-07-28T09:12:59.080Z</time>
      </trkpt>
      <trkpt lat="42.8532" lon="0.14505">
        <ele>2402</ele>
        <time>2020-07-28T09:13:00.080Z</time>
      </trkpt>
      <trkpt lat="42.85321" lon="0.14504">
        <ele>2402</ele>
        <time>2020-07-28T09:13:01.080Z</time>
      </trkpt>
      <trkpt lat="42.85322" lon="0.14503">
        <ele>2402</ele>
        <time>2020-07-28T09:13:02.080Z</time>
      </trkpt>
      <trkpt lat="42.85323" lon="0.14503">
        <ele>2402</ele>
        <time>2020-07-28T09:13:03.080Z</time>
      </trkpt>
      <trkpt lat="42.85324" lon="0.14503">
        <ele>2402</ele>
        <time>2020-07-28T09:13:04.080Z</time>
      </trkpt>
      <trkpt lat="42.85325" lon="0.14503">
        <ele>2401</ele>
        <time>2020-07-28T09:13:05.080Z</time>
      </trkpt>
      <trkpt lat="42.85326" lon="0.14502">
        <ele>2401</ele>
        <time>2020-07-28T09:13:06.080Z</time>
      </trkpt>
      <trkpt lat="42.85326" lon="0.14502">
        <ele>2401</ele>
        <time>2020-07-28T09:13:07.080Z</time>
      </trkpt>
      <trkpt lat="42.85327" lon="0.14502">
        <ele>2401</ele>
        <time>2020-07-28T09:13:08.080Z</time>
      </trkpt>
      <trkpt lat="42.85327" lon="0.14501">
        <ele>2401</ele>
        <time>2020-07-28T09:13:09.080Z</time>
      </trkpt>
      <trkpt lat="42.85328" lon="0.14501">
        <ele>2401</ele>
        <time>2020-07-28T09:13:10.080Z</time>
      </trkpt>
      <trkpt lat="42.85328" lon="0.14502">
        <ele>2401</ele>
        <time>2020-07-28T09:13:11.080Z</time>
      </trkpt>
      <trkpt lat="42.85328" lon="0.14502">
        <ele>2401</ele>
        <time>2020-07-28T09:13:12.080Z</time>
      </trkpt>
      <trkpt lat="42.85328" lon="0.14502">
        <ele>2401</ele>
        <time>2020-07-28T09:13:13.080Z</time>
      </trkpt>
      <trkpt lat="42.85328" lon="0.14502">
        <ele>2401</ele>
        <time>2020-07-28T09:13:14.080Z</time>
      </trkpt>
      <trkpt lat="42.85329" lon="0.14501">
        <ele>2401</ele>
        <time>2020-07-28T09:13:15.080Z</time>
      </trkpt>
      <trkpt lat="42.85329" lon="0.14501">
        <ele>2401</ele>
        <time>2020-07-28T09:13:16.080Z</time>
      </trkpt>
      <trkpt lat="42.85329" lon="0.14501">
        <ele>2401</ele>
        <time>2020-07-28T09:13:17.080Z</time>
      </trkpt>
      <trkpt lat="42.85329" lon="0.145">
        <ele>2401</ele>
        <time>2020-07-28T09:13:18.080Z</time>
      </trkpt>
      <trkpt lat="42.8533" lon="0.145">
        <ele>2402</ele>
        <time>2020-07-28T09:13:19.080Z</time>
      </trkpt>
      <trkpt lat="42.85331" lon="0.14499">
        <ele>2402</ele>
        <time>2020-07-28T09:13:20.080Z</time>
      </trkpt>
      <trkpt lat="42.85332" lon="0.14499">
        <ele>2402</ele>
        <time>2020-07-28T09:13:21.080Z</time>
      </trkpt>
      <trkpt lat="42.85333" lon="0.14498">
        <ele>2403</ele>
        <time>2020-07-28T09:13:22.080Z</time>
      </trkpt>
      <trkpt lat="42.85334" lon="0.14498">
        <ele>2403</ele>
        <time>2020-07-28T09:13:23.080Z</time>
      </trkpt>
      <trkpt lat="42.85334" lon="0.14498">
        <ele>2404</ele>
        <time>2020-07-28T09:13:24.080Z</time>
      </trkpt>
      <trkpt lat="42.85334" lon="0.14498">
        <ele>2404</ele>
        <time>2020-07-28T09:13:25.080Z</time>
      </trkpt>
      <trkpt lat="42.85335" lon="0.14497">
        <ele>2405</ele>
        <time>2020-07-28T09:13:26.080Z</time>
      </trkpt>
      <trkpt lat="42.85336" lon="0.14497">
        <ele>2405</ele>
        <time>2020-07-28T09:13:27.080Z</time>
      </trkpt>
      <trkpt lat="42.85336" lon="0.14496">
        <ele>2404</ele>
        <time>2020-07-28T09:13:28.080Z</time>
      </trkpt>
      <trkpt lat="42.85336" lon="0.14495">
        <ele>2404</ele>
        <time>2020-07-28T09:13:29.080Z</time>
      </trkpt>
      <trkpt lat="42.85336" lon="0.14493">
        <ele>2405</ele>
        <time>2020-07-28T09:13:30.080Z</time>
      </trkpt>
      <trkpt lat="42.85337" lon="0.14491">
        <ele>2405</ele>
        <time>2020-07-28T09:13:31.080Z</time>
      </trkpt>
      <trkpt lat="42.85338" lon="0.1449">
        <ele>2405</ele>
        <time>2020-07-28T09:13:32.080Z</time>
      </trkpt>
      <trkpt lat="42.85338" lon="0.1449">
        <ele>2405</ele>
        <time>2020-07-28T09:13:33.080Z</time>
      </trkpt>
      <trkpt lat="42.85338" lon="0.1449">
        <ele>2405</ele>
        <time>2020-07-28T09:13:34.080Z</time>
      </trkpt>
      <trkpt lat="42.85338" lon="0.1449">
        <ele>2405</ele>
        <time>2020-07-28T09:13:35.080Z</time>
      </trkpt>
      <trkpt lat="42.85338" lon="0.1449">
        <ele>2405</ele>
        <time>2020-07-28T09:13:36.080Z</time>
      </trkpt>
      <trkpt lat="42.85339" lon="0.14489">
        <ele>2404</ele>
        <time>2020-07-28T09:13:37.080Z</time>
      </trkpt>
      <trkpt lat="42.8534" lon="0.14489">
        <ele>2404</ele>
        <time>2020-07-28T09:13:38.080Z</time>
      </trkpt>
      <trkpt lat="42.85341" lon="0.14488">
        <ele>2404</ele>
        <time>2020-07-28T09:13:39.080Z</time>
      </trkpt>
      <trkpt lat="42.85342" lon="0.14488">
        <ele>2404</ele>
        <time>2020-07-28T09:13:40.080Z</time>
      </trkpt>
      <trkpt lat="42.85343" lon="0.14487">
        <ele>2404</ele>
        <time>2020-07-28T09:13:41.080Z</time>
      </trkpt>
      <trkpt lat="42.85343" lon="0.14487">
        <ele>2405</ele>
        <time>2020-07-28T09:13:42.080Z</time>
      </trkpt>
      <trkpt lat="42.85344" lon="0.14486">
        <ele>2405</ele>
        <time>2020-07-28T09:13:43.080Z</time>
      </trkpt>
      <trkpt lat="42.85344" lon="0.14486">
        <ele>2405</ele>
        <time>2020-07-28T09:13:44.080Z</time>
      </trkpt>
      <trkpt lat="42.85344" lon="0.14486">
        <ele>2405</ele>
        <time>2020-07-28T09:13:45.080Z</time>
      </trkpt>
      <trkpt lat="42.85345" lon="0.14485">
        <ele>2404</ele>
        <time>2020-07-28T09:13:46.080Z</time>
      </trkpt>
      <trkpt lat="42.85346" lon="0.14485">
        <ele>2403</ele>
        <time>2020-07-28T09:13:47.080Z</time>
      </trkpt>
      <trkpt lat="42.85347" lon="0.14485">
        <ele>2403</ele>
        <time>2020-07-28T09:13:48.080Z</time>
      </trkpt>
      <trkpt lat="42.85348" lon="0.14484">
        <ele>2403</ele>
        <time>2020-07-28T09:13:49.080Z</time>
      </trkpt>
      <trkpt lat="42.85349" lon="0.14484">
        <ele>2403</ele>
        <time>2020-07-28T09:13:50.080Z</time>
      </trkpt>
      <trkpt lat="42.85349" lon="0.14483">
        <ele>2403</ele>
        <time>2020-07-28T09:13:51.080Z</time>
      </trkpt>
      <trkpt lat="42.8535" lon="0.14483">
        <ele>2403</ele>
        <time>2020-07-28T09:13:52.080Z</time>
      </trkpt>
      <trkpt lat="42.85351" lon="0.14482">
        <ele>2403</ele>
        <time>2020-07-28T09:13:53.080Z</time>
      </trkpt>
      <trkpt lat="42.85351" lon="0.14482">
        <ele>2403</ele>
        <time>2020-07-28T09:13:54.080Z</time>
      </trkpt>
      <trkpt lat="42.85351" lon="0.14482">
        <ele>2403</ele>
        <time>2020-07-28T09:13:55.080Z</time>
      </trkpt>
      <trkpt lat="42.85351" lon="0.1448">
        <ele>2403</ele>
        <time>2020-07-28T09:13:56.080Z</time>
      </trkpt>
      <trkpt lat="42.8535" lon="0.14479">
        <ele>2403</ele>
        <time>2020-07-28T09:13:57.080Z</time>
      </trkpt>
      <trkpt lat="42.8535" lon="0.14478">
        <ele>2404</ele>
        <time>2020-07-28T09:13:58.080Z</time>
      </trkpt>
      <trkpt lat="42.8535" lon="0.14476">
        <ele>2404</ele>
        <time>2020-07-28T09:13:59.080Z</time>
      </trkpt>
      <trkpt lat="42.8535" lon="0.14475">
        <ele>2403</ele>
        <time>2020-07-28T09:14:00.080Z</time>
      </trkpt>
      <trkpt lat="42.8535" lon="0.14474">
        <ele>2403</ele>
        <time>2020-07-28T09:14:01.080Z</time>
      </trkpt>
      <trkpt lat="42.85351" lon="0.14473">
        <ele>2403</ele>
        <time>2020-07-28T09:14:02.080Z</time>
      </trkpt>
      <trkpt lat="42.85351" lon="0.14473">
        <ele>2403</ele>
        <time>2020-07-28T09:14:03.080Z</time>
      </trkpt>
      <trkpt lat="42.85352" lon="0.14471">
        <ele>2403</ele>
        <time>2020-07-28T09:14:04.080Z</time>
      </trkpt>
      <trkpt lat="42.85352" lon="0.1447">
        <ele>2403</ele>
        <time>2020-07-28T09:14:05.080Z</time>
      </trkpt>
      <trkpt lat="42.85353" lon="0.1447">
        <ele>2403</ele>
        <time>2020-07-28T09:14:06.080Z</time>
      </trkpt>
      <trkpt lat="42.85353" lon="0.14469">
        <ele>2403</ele>
        <time>2020-07-28T09:14:07.080Z</time>
      </trkpt>
      <trkpt lat="42.85354" lon="0.14468">
        <ele>2403</ele>
        <time>2020-07-28T09:14:08.080Z</time>
      </trkpt>
      <trkpt lat="42.85355" lon="0.14468">
        <ele>2403</ele>
        <time>2020-07-28T09:14:09.080Z</time>
      </trkpt>
      <trkpt lat="42.85356" lon="0.14467">
        <ele>2403</ele>
        <time>2020-07-28T09:14:10.080Z</time>
      </trkpt>
      <trkpt lat="42.85357" lon="0.14467">
        <ele>2403</ele>
        <time>2020-07-28T09:14:11.080Z</time>
      </trkpt>
      <trkpt lat="42.85357" lon="0.14467">
        <ele>2403</ele>
        <time>2020-07-28T09:14:12.080Z</time>
      </trkpt>
      <trkpt lat="42.85358" lon="0.14466">
        <ele>2403</ele>
        <time>2020-07-28T09:14:13.080Z</time>
      </trkpt>
      <trkpt lat="42.85359" lon="0.14466">
        <ele>2403</ele>
        <time>2020-07-28T09:14:14.080Z</time>
      </trkpt>
      <trkpt lat="42.85359" lon="0.14466">
        <ele>2403</ele>
        <time>2020-07-28T09:14:15.080Z</time>
      </trkpt>
      <trkpt lat="42.85359" lon="0.14466">
        <ele>2403</ele>
        <time>2020-07-28T09:14:16.080Z</time>
      </trkpt>
      <trkpt lat="42.8536" lon="0.14463">
        <ele>2403</ele>
        <time>2020-07-28T09:14:17.080Z</time>
      </trkpt>
      <trkpt lat="42.8536" lon="0.14462">
        <ele>2403</ele>
        <time>2020-07-28T09:14:18.080Z</time>
      </trkpt>
      <trkpt lat="42.8536" lon="0.14461">
        <ele>2403</ele>
        <time>2020-07-28T09:14:19.080Z</time>
      </trkpt>
      <trkpt lat="42.8536" lon="0.1446">
        <ele>2403</ele>
        <time>2020-07-28T09:14:20.080Z</time>
      </trkpt>
      <trkpt lat="42.8536" lon="0.1446">
        <ele>2403</ele>
        <time>2020-07-28T09:14:21.080Z</time>
      </trkpt>
      <trkpt lat="42.8536" lon="0.1446">
        <ele>2403</ele>
        <time>2020-07-28T09:14:22.080Z</time>
      </trkpt>
      <trkpt lat="42.85361" lon="0.14456">
        <ele>2403</ele>
        <time>2020-07-28T09:14:23.080Z</time>
      </trkpt>
      <trkpt lat="42.85361" lon="0.14456">
        <ele>2403</ele>
        <time>2020-07-28T09:14:24.080Z</time>
      </trkpt>
      <trkpt lat="42.85362" lon="0.14454">
        <ele>2403</ele>
        <time>2020-07-28T09:14:25.080Z</time>
      </trkpt>
      <trkpt lat="42.85363" lon="0.14453">
        <ele>2403</ele>
        <time>2020-07-28T09:14:26.080Z</time>
      </trkpt>
      <trkpt lat="42.85363" lon="0.14453">
        <ele>2403</ele>
        <time>2020-07-28T09:14:27.080Z</time>
      </trkpt>
      <trkpt lat="42.85363" lon="0.14453">
        <ele>2403</ele>
        <time>2020-07-28T09:14:28.080Z</time>
      </trkpt>
      <trkpt lat="42.85364" lon="0.1445">
        <ele>2401</ele>
        <time>2020-07-28T09:14:29.080Z</time>
      </trkpt>
      <trkpt lat="42.85365" lon="0.14448">
        <ele>2401</ele>
        <time>2020-07-28T09:14:30.080Z</time>
      </trkpt>
      <trkpt lat="42.85365" lon="0.14446">
        <ele>2402</ele>
        <time>2020-07-28T09:14:31.080Z</time>
      </trkpt>
      <trkpt lat="42.85365" lon="0.14444">
        <ele>2402</ele>
        <time>2020-07-28T09:14:32.080Z</time>
      </trkpt>
      <trkpt lat="42.85365" lon="0.14442">
        <ele>2402</ele>
        <time>2020-07-28T09:14:33.080Z</time>
      </trkpt>
      <trkpt lat="42.85365" lon="0.14442">
        <ele>2402</ele>
        <time>2020-07-28T09:14:34.080Z</time>
      </trkpt>
      <trkpt lat="42.85365" lon="0.14439">
        <ele>2402</ele>
        <time>2020-07-28T09:14:35.080Z</time>
      </trkpt>
      <trkpt lat="42.85365" lon="0.14438">
        <ele>2402</ele>
        <time>2020-07-28T09:14:36.080Z</time>
      </trkpt>
      <trkpt lat="42.85365" lon="0.14437">
        <ele>2403</ele>
        <time>2020-07-28T09:14:37.080Z</time>
      </trkpt>
      <trkpt lat="42.85366" lon="0.14435">
        <ele>2403</ele>
        <time>2020-07-28T09:14:38.080Z</time>
      </trkpt>
      <trkpt lat="42.85366" lon="0.14434">
        <ele>2403</ele>
        <time>2020-07-28T09:14:39.080Z</time>
      </trkpt>
      <trkpt lat="42.85366" lon="0.14433">
        <ele>2403</ele>
        <time>2020-07-28T09:14:40.080Z</time>
      </trkpt>
      <trkpt lat="42.85367" lon="0.14431">
        <ele>2404</ele>
        <time>2020-07-28T09:14:41.080Z</time>
      </trkpt>
      <trkpt lat="42.85368" lon="0.14429">
        <ele>2404</ele>
        <time>2020-07-28T09:14:42.080Z</time>
      </trkpt>
      <trkpt lat="42.85368" lon="0.14428">
        <ele>2405</ele>
        <time>2020-07-28T09:14:43.080Z</time>
      </trkpt>
      <trkpt lat="42.85369" lon="0.14427">
        <ele>2405</ele>
        <time>2020-07-28T09:14:44.080Z</time>
      </trkpt>
      <trkpt lat="42.85369" lon="0.14427">
        <ele>2405</ele>
        <time>2020-07-28T09:14:45.080Z</time>
      </trkpt>
      <trkpt lat="42.8537" lon="0.14427">
        <ele>2404</ele>
        <time>2020-07-28T09:14:46.080Z</time>
      </trkpt>
      <trkpt lat="42.85371" lon="0.14427">
        <ele>2404</ele>
        <time>2020-07-28T09:14:47.080Z</time>
      </trkpt>
      <trkpt lat="42.85372" lon="0.14428">
        <ele>2404</ele>
        <time>2020-07-28T09:14:48.080Z</time>
      </trkpt>
      <trkpt lat="42.85373" lon="0.14428">
        <ele>2404</ele>
        <time>2020-07-28T09:14:49.080Z</time>
      </trkpt>
      <trkpt lat="42.85373" lon="0.14427">
        <ele>2406</ele>
        <time>2020-07-28T09:14:50.080Z</time>
      </trkpt>
      <trkpt lat="42.85374" lon="0.14426">
        <ele>2406</ele>
        <time>2020-07-28T09:14:51.080Z</time>
      </trkpt>
      <trkpt lat="42.85375" lon="0.14425">
        <ele>2406</ele>
        <time>2020-07-28T09:14:52.080Z</time>
      </trkpt>
      <trkpt lat="42.85375" lon="0.14424">
        <ele>2406</ele>
        <time>2020-07-28T09:14:53.080Z</time>
      </trkpt>
      <trkpt lat="42.85376" lon="0.14422">
        <ele>2406</ele>
        <time>2020-07-28T09:14:54.080Z</time>
      </trkpt>
      <trkpt lat="42.85376" lon="0.14421">
        <ele>2406</ele>
        <time>2020-07-28T09:14:55.080Z</time>
      </trkpt>
      <trkpt lat="42.85377" lon="0.1442">
        <ele>2406</ele>
        <time>2020-07-28T09:14:56.080Z</time>
      </trkpt>
      <trkpt lat="42.85377" lon="0.14419">
        <ele>2406</ele>
        <time>2020-07-28T09:14:57.080Z</time>
      </trkpt>
      <trkpt lat="42.85376" lon="0.14418">
        <ele>2406</ele>
        <time>2020-07-28T09:14:58.080Z</time>
      </trkpt>
      <trkpt lat="42.85376" lon="0.14416">
        <ele>2406</ele>
        <time>2020-07-28T09:14:59.080Z</time>
      </trkpt>
      <trkpt lat="42.85376" lon="0.14415">
        <ele>2405</ele>
        <time>2020-07-28T09:15:00.080Z</time>
      </trkpt>
      <trkpt lat="42.85376" lon="0.14413">
        <ele>2404</ele>
        <time>2020-07-28T09:15:01.080Z</time>
      </trkpt>
      <trkpt lat="42.85376" lon="0.14411">
        <ele>2404</ele>
        <time>2020-07-28T09:15:02.080Z</time>
      </trkpt>
      <trkpt lat="42.85376" lon="0.14411">
        <ele>2404</ele>
        <time>2020-07-28T09:15:03.080Z</time>
      </trkpt>
      <trkpt lat="42.85375" lon="0.14407">
        <ele>2404</ele>
        <time>2020-07-28T09:15:04.080Z</time>
      </trkpt>
      <trkpt lat="42.85375" lon="0.14405">
        <ele>2403</ele>
        <time>2020-07-28T09:15:05.080Z</time>
      </trkpt>
      <trkpt lat="42.85375" lon="0.14404">
        <ele>2403</ele>
        <time>2020-07-28T09:15:06.080Z</time>
      </trkpt>
      <trkpt lat="42.85375" lon="0.14403">
        <ele>2402</ele>
        <time>2020-07-28T09:15:07.080Z</time>
      </trkpt>
      <trkpt lat="42.85376" lon="0.14403">
        <ele>2401</ele>
        <time>2020-07-28T09:15:08.080Z</time>
      </trkpt>
      <trkpt lat="42.85376" lon="0.14403">
        <ele>2401</ele>
        <time>2020-07-28T09:15:09.080Z</time>
      </trkpt>
      <trkpt lat="42.85377" lon="0.14402">
        <ele>2401</ele>
        <time>2020-07-28T09:15:10.080Z</time>
      </trkpt>
      <trkpt lat="42.85378" lon="0.14401">
        <ele>2401</ele>
        <time>2020-07-28T09:15:11.080Z</time>
      </trkpt>
      <trkpt lat="42.85378" lon="0.14401">
        <ele>2402</ele>
        <time>2020-07-28T09:15:12.080Z</time>
      </trkpt>
      <trkpt lat="42.85379" lon="0.144">
        <ele>2401</ele>
        <time>2020-07-28T09:15:13.080Z</time>
      </trkpt>
      <trkpt lat="42.8538" lon="0.14399">
        <ele>2402</ele>
        <time>2020-07-28T09:15:14.080Z</time>
      </trkpt>
      <trkpt lat="42.8538" lon="0.14399">
        <ele>2402</ele>
        <time>2020-07-28T09:15:15.080Z</time>
      </trkpt>
      <trkpt lat="42.85379" lon="0.14399">
        <ele>2401</ele>
        <time>2020-07-28T09:15:16.002Z</time>
      </trkpt>
      <trkpt lat="42.85379" lon="0.14398">
        <ele>2401</ele>
        <time>2020-07-28T09:15:17.002Z</time>
      </trkpt>
      <trkpt lat="42.85379" lon="0.14398">
        <ele>2401</ele>
        <time>2020-07-28T09:15:18.002Z</time>
      </trkpt>
      <trkpt lat="42.85379" lon="0.14398">
        <ele>2401</ele>
        <time>2020-07-28T09:15:19.002Z</time>
      </trkpt>
      <trkpt lat="42.85379" lon="0.14397">
        <ele>2401</ele>
        <time>2020-07-28T09:15:20.002Z</time>
      </trkpt>
      <trkpt lat="42.85379" lon="0.14397">
        <ele>2401</ele>
        <time>2020-07-28T09:15:21.002Z</time>
      </trkpt>
      <trkpt lat="42.85379" lon="0.14396">
        <ele>2400</ele>
        <time>2020-07-28T09:15:22.002Z</time>
      </trkpt>
      <trkpt lat="42.85379" lon="0.14396">
        <ele>2400</ele>
        <time>2020-07-28T09:15:23.002Z</time>
      </trkpt>
      <trkpt lat="42.8538" lon="0.14394">
        <ele>2400</ele>
        <time>2020-07-28T09:15:24.002Z</time>
      </trkpt>
      <trkpt lat="42.8538" lon="0.14393">
        <ele>2400</ele>
        <time>2020-07-28T09:15:25.002Z</time>
      </trkpt>
      <trkpt lat="42.8538" lon="0.14392">
        <ele>2399</ele>
        <time>2020-07-28T09:15:26.002Z</time>
      </trkpt>
      <trkpt lat="42.8538" lon="0.1439">
        <ele>2400</ele>
        <time>2020-07-28T09:15:27.002Z</time>
      </trkpt>
      <trkpt lat="42.85381" lon="0.14388">
        <ele>2400</ele>
        <time>2020-07-28T09:15:28.002Z</time>
      </trkpt>
      <trkpt lat="42.85381" lon="0.14385">
        <ele>2399</ele>
        <time>2020-07-28T09:15:29.002Z</time>
      </trkpt>
      <trkpt lat="42.85381" lon="0.14384">
        <ele>2399</ele>
        <time>2020-07-28T09:15:30.002Z</time>
      </trkpt>
      <trkpt lat="42.8538" lon="0.14382">
        <ele>2399</ele>
        <time>2020-07-28T09:15:31.002Z</time>
      </trkpt>
      <trkpt lat="42.8538" lon="0.14382">
        <ele>2399</ele>
        <time>2020-07-28T09:15:32.002Z</time>
      </trkpt>
      <trkpt lat="42.8538" lon="0.14382">
        <ele>2399</ele>
        <time>2020-07-28T09:15:33.002Z</time>
      </trkpt>
      <trkpt lat="42.85379" lon="0.1438">
        <ele>2399</ele>
        <time>2020-07-28T09:15:34.002Z</time>
      </trkpt>
      <trkpt lat="42.85379" lon="0.14379">
        <ele>2399</ele>
        <time>2020-07-28T09:15:35.002Z</time>
      </trkpt>
      <trkpt lat="42.85379" lon="0.14378">
        <ele>2399</ele>
        <time>2020-07-28T09:15:36.002Z</time>
      </trkpt>
      <trkpt lat="42.85379" lon="0.14376">
        <ele>2399</ele>
        <time>2020-07-28T09:15:37.002Z</time>
      </trkpt>
      <trkpt lat="42.85379" lon="0.14374">
        <ele>2400</ele>
        <time>2020-07-28T09:15:38.002Z</time>
      </trkpt>
      <trkpt lat="42.85379" lon="0.14372">
        <ele>2400</ele>
        <time>2020-07-28T09:15:39.002Z</time>
      </trkpt>
      <trkpt lat="42.85379" lon="0.1437">
        <ele>2399</ele>
        <time>2020-07-28T09:15:40.002Z</time>
      </trkpt>
      <trkpt lat="42.85379" lon="0.1437">
        <ele>2399</ele>
        <time>2020-07-28T09:15:41.002Z</time>
      </trkpt>
      <trkpt lat="42.85379" lon="0.1437">
        <ele>2399</ele>
        <time>2020-07-28T09:15:42.002Z</time>
      </trkpt>
      <trkpt lat="42.8538" lon="0.14364">
        <ele>2399</ele>
        <time>2020-07-28T09:15:43.002Z</time>
      </trkpt>
      <trkpt lat="42.8538" lon="0.14364">
        <ele>2399</ele>
        <time>2020-07-28T09:15:44.002Z</time>
      </trkpt>
      <trkpt lat="42.8538" lon="0.14364">
        <ele>2399</ele>
        <time>2020-07-28T09:15:45.002Z</time>
      </trkpt>
      <trkpt lat="42.85383" lon="0.14358">
        <ele>2400</ele>
        <time>2020-07-28T09:15:46.002Z</time>
      </trkpt>
      <trkpt lat="42.85384" lon="0.14357">
        <ele>2400</ele>
        <time>2020-07-28T09:15:47.002Z</time>
      </trkpt>
      <trkpt lat="42.85384" lon="0.14357">
        <ele>2400</ele>
        <time>2020-07-28T09:15:48.002Z</time>
      </trkpt>
      <trkpt lat="42.85387" lon="0.14352">
        <ele>2399</ele>
        <time>2020-07-28T09:15:49.002Z</time>
      </trkpt>
      <trkpt lat="42.85389" lon="0.1435">
        <ele>2399</ele>
        <time>2020-07-28T09:15:50.002Z</time>
      </trkpt>
      <trkpt lat="42.8539" lon="0.14349">
        <ele>2400</ele>
        <time>2020-07-28T09:15:51.002Z</time>
      </trkpt>
      <trkpt lat="42.85392" lon="0.14347">
        <ele>2400</ele>
        <time>2020-07-28T09:15:52.002Z</time>
      </trkpt>
      <trkpt lat="42.85393" lon="0.14346">
        <ele>2401</ele>
        <time>2020-07-28T09:15:53.002Z</time>
      </trkpt>
      <trkpt lat="42.85394" lon="0.14345">
        <ele>2401</ele>
        <time>2020-07-28T09:15:54.002Z</time>
      </trkpt>
      <trkpt lat="42.85395" lon="0.14344">
        <ele>2402</ele>
        <time>2020-07-28T09:15:55.002Z</time>
      </trkpt>
      <trkpt lat="42.85396" lon="0.14344">
        <ele>2402</ele>
        <time>2020-07-28T09:15:56.002Z</time>
      </trkpt>
      <trkpt lat="42.85398" lon="0.14343">
        <ele>2403</ele>
        <time>2020-07-28T09:15:57.002Z</time>
      </trkpt>
      <trkpt lat="42.85399" lon="0.14343">
        <ele>2402</ele>
        <time>2020-07-28T09:15:58.002Z</time>
      </trkpt>
      <trkpt lat="42.854" lon="0.14342">
        <ele>2403</ele>
        <time>2020-07-28T09:15:59.002Z</time>
      </trkpt>
      <trkpt lat="42.854" lon="0.14341">
        <ele>2404</ele>
        <time>2020-07-28T09:16:00.002Z</time>
      </trkpt>
      <trkpt lat="42.85401" lon="0.1434">
        <ele>2403</ele>
        <time>2020-07-28T09:16:01.002Z</time>
      </trkpt>
      <trkpt lat="42.85401" lon="0.1434">
        <ele>2403</ele>
        <time>2020-07-28T09:16:02.002Z</time>
      </trkpt>
      <trkpt lat="42.85403" lon="0.14338">
        <ele>2404</ele>
        <time>2020-07-28T09:16:03.002Z</time>
      </trkpt>
      <trkpt lat="42.85404" lon="0.14337">
        <ele>2403</ele>
        <time>2020-07-28T09:16:04.002Z</time>
      </trkpt>
      <trkpt lat="42.85404" lon="0.14337">
        <ele>2403</ele>
        <time>2020-07-28T09:16:05.002Z</time>
      </trkpt>
      <trkpt lat="42.85404" lon="0.14337">
        <ele>2403</ele>
        <time>2020-07-28T09:16:06.002Z</time>
      </trkpt>
      <trkpt lat="42.85407" lon="0.14335">
        <ele>2404</ele>
        <time>2020-07-28T09:16:07.002Z</time>
      </trkpt>
      <trkpt lat="42.85407" lon="0.14335">
        <ele>2404</ele>
        <time>2020-07-28T09:16:08.002Z</time>
      </trkpt>
      <trkpt lat="42.85407" lon="0.14335">
        <ele>2404</ele>
        <time>2020-07-28T09:16:09.002Z</time>
      </trkpt>
      <trkpt lat="42.85409" lon="0.14333">
        <ele>2406</ele>
        <time>2020-07-28T09:16:10.002Z</time>
      </trkpt>
      <trkpt lat="42.85409" lon="0.14333">
        <ele>2406</ele>
        <time>2020-07-28T09:16:11.002Z</time>
      </trkpt>
      <trkpt lat="42.85409" lon="0.14333">
        <ele>2406</ele>
        <time>2020-07-28T09:16:12.002Z</time>
      </trkpt>
      <trkpt lat="42.85411" lon="0.1433">
        <ele>2408</ele>
        <time>2020-07-28T09:16:13.002Z</time>
      </trkpt>
      <trkpt lat="42.85411" lon="0.1433">
        <ele>2408</ele>
        <time>2020-07-28T09:16:14.002Z</time>
      </trkpt>
      <trkpt lat="42.85413" lon="0.14329">
        <ele>2410</ele>
        <time>2020-07-28T09:16:15.002Z</time>
      </trkpt>
      <trkpt lat="42.85414" lon="0.14329">
        <ele>2411</ele>
        <time>2020-07-28T09:16:16.002Z</time>
      </trkpt>
      <trkpt lat="42.85415" lon="0.14328">
        <ele>2411</ele>
        <time>2020-07-28T09:16:17.002Z</time>
      </trkpt>
      <trkpt lat="42.85416" lon="0.14327">
        <ele>2411</ele>
        <time>2020-07-28T09:16:18.002Z</time>
      </trkpt>
      <trkpt lat="42.85417" lon="0.14326">
        <ele>2412</ele>
        <time>2020-07-28T09:16:19.002Z</time>
      </trkpt>
      <trkpt lat="42.85418" lon="0.14325">
        <ele>2412</ele>
        <time>2020-07-28T09:16:20.002Z</time>
      </trkpt>
      <trkpt lat="42.85419" lon="0.14324">
        <ele>2411</ele>
        <time>2020-07-28T09:16:21.002Z</time>
      </trkpt>
      <trkpt lat="42.85419" lon="0.14323">
        <ele>2412</ele>
        <time>2020-07-28T09:16:22.002Z</time>
      </trkpt>
      <trkpt lat="42.85422" lon="0.14321">
        <ele>2416</ele>
        <time>2020-07-28T09:16:23.045Z</time>
      </trkpt>
      <trkpt lat="42.85423" lon="0.14321">
        <ele>2416</ele>
        <time>2020-07-28T09:16:24.045Z</time>
      </trkpt>
      <trkpt lat="42.85423" lon="0.14322">
        <ele>2416</ele>
        <time>2020-07-28T09:16:25.045Z</time>
      </trkpt>
      <trkpt lat="42.85424" lon="0.14322">
        <ele>2416</ele>
        <time>2020-07-28T09:16:26.045Z</time>
      </trkpt>
      <trkpt lat="42.85424" lon="0.14322">
        <ele>2416</ele>
        <time>2020-07-28T09:16:27.045Z</time>
      </trkpt>
      <trkpt lat="42.85425" lon="0.14321">
        <ele>2417</ele>
        <time>2020-07-28T09:16:28.045Z</time>
      </trkpt>
      <trkpt lat="42.85427" lon="0.1432">
        <ele>2419</ele>
        <time>2020-07-28T09:16:29.045Z</time>
      </trkpt>
      <trkpt lat="42.85427" lon="0.1432">
        <ele>2419</ele>
        <time>2020-07-28T09:16:30.045Z</time>
      </trkpt>
      <trkpt lat="42.85427" lon="0.1432">
        <ele>2419</ele>
        <time>2020-07-28T09:16:31.045Z</time>
      </trkpt>
      <trkpt lat="42.85433" lon="0.14318">
        <ele>2419</ele>
        <time>2020-07-28T09:16:32.045Z</time>
      </trkpt>
      <trkpt lat="42.85433" lon="0.14318">
        <ele>2419</ele>
        <time>2020-07-28T09:16:33.045Z</time>
      </trkpt>
      <trkpt lat="42.85433" lon="0.14318">
        <ele>2419</ele>
        <time>2020-07-28T09:16:34.045Z</time>
      </trkpt>
      <trkpt lat="42.85438" lon="0.14319">
        <ele>2420</ele>
        <time>2020-07-28T09:16:35.045Z</time>
      </trkpt>
      <trkpt lat="42.85438" lon="0.14319">
        <ele>2420</ele>
        <time>2020-07-28T09:16:36.045Z</time>
      </trkpt>
      <trkpt lat="42.85438" lon="0.14319">
        <ele>2420</ele>
        <time>2020-07-28T09:16:37.045Z</time>
      </trkpt>
      <trkpt lat="42.85441" lon="0.14319">
        <ele>2419</ele>
        <time>2020-07-28T09:16:38.045Z</time>
      </trkpt>
      <trkpt lat="42.85441" lon="0.14319">
        <ele>2419</ele>
        <time>2020-07-28T09:16:39.045Z</time>
      </trkpt>
      <trkpt lat="42.85441" lon="0.14319">
        <ele>2419</ele>
        <time>2020-07-28T09:16:40.045Z</time>
      </trkpt>
      <trkpt lat="42.85444" lon="0.14317">
        <ele>2416</ele>
        <time>2020-07-28T09:16:41.045Z</time>
      </trkpt>
      <trkpt lat="42.85445" lon="0.14316">
        <ele>2418</ele>
        <time>2020-07-28T09:16:42.045Z</time>
      </trkpt>
      <trkpt lat="42.85445" lon="0.14316">
        <ele>2418</ele>
        <time>2020-07-28T09:16:43.045Z</time>
      </trkpt>
      <trkpt lat="42.85447" lon="0.14314">
        <ele>2418</ele>
        <time>2020-07-28T09:16:44.045Z</time>
      </trkpt>
      <trkpt lat="42.85447" lon="0.14314">
        <ele>2418</ele>
        <time>2020-07-28T09:16:45.045Z</time>
      </trkpt>
      <trkpt lat="42.85449" lon="0.14312">
        <ele>2419</ele>
        <time>2020-07-28T09:16:46.045Z</time>
      </trkpt>
      <trkpt lat="42.8545" lon="0.14311">
        <ele>2419</ele>
        <time>2020-07-28T09:16:47.045Z</time>
      </trkpt>
      <trkpt lat="42.8545" lon="0.14311">
        <ele>2419</ele>
        <time>2020-07-28T09:16:48.045Z</time>
      </trkpt>
      <trkpt lat="42.85453" lon="0.14308">
        <ele>2419</ele>
        <time>2020-07-28T09:16:49.045Z</time>
      </trkpt>
      <trkpt lat="42.85454" lon="0.14306">
        <ele>2419</ele>
        <time>2020-07-28T09:16:50.045Z</time>
      </trkpt>
      <trkpt lat="42.85454" lon="0.14306">
        <ele>2419</ele>
        <time>2020-07-28T09:16:51.045Z</time>
      </trkpt>
      <trkpt lat="42.85454" lon="0.14306">
        <ele>2419</ele>
        <time>2020-07-28T09:16:52.045Z</time>
      </trkpt>
      <trkpt lat="42.85454" lon="0.14301">
        <ele>2418</ele>
        <time>2020-07-28T09:16:53.045Z</time>
      </trkpt>
      <trkpt lat="42.85455" lon="0.143">
        <ele>2418</ele>
        <time>2020-07-28T09:16:54.045Z</time>
      </trkpt>
      <trkpt lat="42.85455" lon="0.143">
        <ele>2418</ele>
        <time>2020-07-28T09:16:55.045Z</time>
      </trkpt>
      <trkpt lat="42.85457" lon="0.14299">
        <ele>2417</ele>
        <time>2020-07-28T09:16:56.045Z</time>
      </trkpt>
      <trkpt lat="42.85457" lon="0.14299">
        <ele>2417</ele>
        <time>2020-07-28T09:16:57.045Z</time>
      </trkpt>
      <trkpt lat="42.85457" lon="0.14299">
        <ele>2417</ele>
        <time>2020-07-28T09:16:58.045Z</time>
      </trkpt>
      <trkpt lat="42.85461" lon="0.14299">
        <ele>2416</ele>
        <time>2020-07-28T09:16:59.045Z</time>
      </trkpt>
      <trkpt lat="42.85461" lon="0.14299">
        <ele>2416</ele>
        <time>2020-07-28T09:17:00.045Z</time>
      </trkpt>
      <trkpt lat="42.85461" lon="0.14299">
        <ele>2416</ele>
        <time>2020-07-28T09:17:01.045Z</time>
      </trkpt>
      <trkpt lat="42.85464" lon="0.14296">
        <ele>2414</ele>
        <time>2020-07-28T09:17:02.045Z</time>
      </trkpt>
      <trkpt lat="42.85464" lon="0.14296">
        <ele>2414</ele>
        <time>2020-07-28T09:17:03.045Z</time>
      </trkpt>
      <trkpt lat="42.85464" lon="0.14296">
        <ele>2414</ele>
        <time>2020-07-28T09:17:04.045Z</time>
      </trkpt>
      <trkpt lat="42.85468" lon="0.14295">
        <ele>2415</ele>
        <time>2020-07-28T09:17:05.045Z</time>
      </trkpt>
      <trkpt lat="42.85469" lon="0.14294">
        <ele>2415</ele>
        <time>2020-07-28T09:17:06.045Z</time>
      </trkpt>
      <trkpt lat="42.85469" lon="0.14294">
        <ele>2415</ele>
        <time>2020-07-28T09:17:07.045Z</time>
      </trkpt>
      <trkpt lat="42.85471" lon="0.14292">
        <ele>2415</ele>
        <time>2020-07-28T09:17:08.045Z</time>
      </trkpt>
      <trkpt lat="42.85471" lon="0.14292">
        <ele>2415</ele>
        <time>2020-07-28T09:17:09.045Z</time>
      </trkpt>
      <trkpt lat="42.85471" lon="0.14292">
        <ele>2415</ele>
        <time>2020-07-28T09:17:10.045Z</time>
      </trkpt>
      <trkpt lat="42.85474" lon="0.14288">
        <ele>2415</ele>
        <time>2020-07-28T09:17:11.045Z</time>
      </trkpt>
      <trkpt lat="42.85474" lon="0.14288">
        <ele>2415</ele>
        <time>2020-07-28T09:17:12.045Z</time>
      </trkpt>
      <trkpt lat="42.85474" lon="0.14288">
        <ele>2415</ele>
        <time>2020-07-28T09:17:13.045Z</time>
      </trkpt>
      <trkpt lat="42.85477" lon="0.14284">
        <ele>2415</ele>
        <time>2020-07-28T09:17:14.045Z</time>
      </trkpt>
      <trkpt lat="42.85477" lon="0.14284">
        <ele>2415</ele>
        <time>2020-07-28T09:17:15.045Z</time>
      </trkpt>
      <trkpt lat="42.85477" lon="0.14284">
        <ele>2415</ele>
        <time>2020-07-28T09:17:16.045Z</time>
      </trkpt>
      <trkpt lat="42.85479" lon="0.14281">
        <ele>2416</ele>
        <time>2020-07-28T09:17:17.045Z</time>
      </trkpt>
      <trkpt lat="42.85479" lon="0.14281">
        <ele>2416</ele>
        <time>2020-07-28T09:17:18.045Z</time>
      </trkpt>
      <trkpt lat="42.85479" lon="0.14281">
        <ele>2416</ele>
        <time>2020-07-28T09:17:19.045Z</time>
      </trkpt>
      <trkpt lat="42.85481" lon="0.14279">
        <ele>2418</ele>
        <time>2020-07-28T09:17:20.045Z</time>
      </trkpt>
      <trkpt lat="42.85481" lon="0.14279">
        <ele>2418</ele>
        <time>2020-07-28T09:17:21.045Z</time>
      </trkpt>
      <trkpt lat="42.85481" lon="0.14279">
        <ele>2418</ele>
        <time>2020-07-28T09:17:22.045Z</time>
      </trkpt>
      <trkpt lat="42.85484" lon="0.14277">
        <ele>2417</ele>
        <time>2020-07-28T09:17:23.045Z</time>
      </trkpt>
      <trkpt lat="42.85484" lon="0.14277">
        <ele>2417</ele>
        <time>2020-07-28T09:17:24.045Z</time>
      </trkpt>
      <trkpt lat="42.85484" lon="0.14277">
        <ele>2417</ele>
        <time>2020-07-28T09:17:25.045Z</time>
      </trkpt>
      <trkpt lat="42.85487" lon="0.14274">
        <ele>2418</ele>
        <time>2020-07-28T09:17:26.045Z</time>
      </trkpt>
      <trkpt lat="42.85487" lon="0.14274">
        <ele>2418</ele>
        <time>2020-07-28T09:17:27.045Z</time>
      </trkpt>
      <trkpt lat="42.85487" lon="0.14274">
        <ele>2418</ele>
        <time>2020-07-28T09:17:28.045Z</time>
      </trkpt>
      <trkpt lat="42.8549" lon="0.14271">
        <ele>2422</ele>
        <time>2020-07-28T09:17:29.045Z</time>
      </trkpt>
      <trkpt lat="42.85491" lon="0.14269">
        <ele>2423</ele>
        <time>2020-07-28T09:17:30.045Z</time>
      </trkpt>
      <trkpt lat="42.85492" lon="0.14268">
        <ele>2423</ele>
        <time>2020-07-28T09:17:31.045Z</time>
      </trkpt>
      <trkpt lat="42.85493" lon="0.14267">
        <ele>2424</ele>
        <time>2020-07-28T09:17:32.045Z</time>
      </trkpt>
      <trkpt lat="42.85493" lon="0.14267">
        <ele>2424</ele>
        <time>2020-07-28T09:17:33.045Z</time>
      </trkpt>
      <trkpt lat="42.85494" lon="0.14265">
        <ele>2424</ele>
        <time>2020-07-28T09:17:34.045Z</time>
      </trkpt>
      <trkpt lat="42.85495" lon="0.14264">
        <ele>2424</ele>
        <time>2020-07-28T09:17:35.045Z</time>
      </trkpt>
      <trkpt lat="42.85495" lon="0.14264">
        <ele>2424</ele>
        <time>2020-07-28T09:17:36.045Z</time>
      </trkpt>
      <trkpt lat="42.85495" lon="0.14264">
        <ele>2424</ele>
        <time>2020-07-28T09:17:37.045Z</time>
      </trkpt>
      <trkpt lat="42.85499" lon="0.14261">
        <ele>2426</ele>
        <time>2020-07-28T09:17:38.045Z</time>
      </trkpt>
      <trkpt lat="42.85499" lon="0.14261">
        <ele>2426</ele>
        <time>2020-07-28T09:17:39.045Z</time>
      </trkpt>
      <trkpt lat="42.85499" lon="0.14261">
        <ele>2426</ele>
        <time>2020-07-28T09:17:40.045Z</time>
      </trkpt>
      <trkpt lat="42.85501" lon="0.14258">
        <ele>2428</ele>
        <time>2020-07-28T09:17:41.045Z</time>
      </trkpt>
      <trkpt lat="42.85501" lon="0.14258">
        <ele>2428</ele>
        <time>2020-07-28T09:17:42.045Z</time>
      </trkpt>
      <trkpt lat="42.85501" lon="0.14258">
        <ele>2428</ele>
        <time>2020-07-28T09:17:43.045Z</time>
      </trkpt>
      <trkpt lat="42.85504" lon="0.14254">
        <ele>2430</ele>
        <time>2020-07-28T09:17:44.045Z</time>
      </trkpt>
      <trkpt lat="42.85505" lon="0.14253">
        <ele>2430</ele>
        <time>2020-07-28T09:17:45.045Z</time>
      </trkpt>
      <trkpt lat="42.85505" lon="0.14253">
        <ele>2430</ele>
        <time>2020-07-28T09:17:46.045Z</time>
      </trkpt>
      <trkpt lat="42.85506" lon="0.14251">
        <ele>2431</ele>
        <time>2020-07-28T09:17:47.045Z</time>
      </trkpt>
      <trkpt lat="42.85506" lon="0.14251">
        <ele>2431</ele>
        <time>2020-07-28T09:17:48.045Z</time>
      </trkpt>
      <trkpt lat="42.85506" lon="0.14251">
        <ele>2431</ele>
        <time>2020-07-28T09:17:49.045Z</time>
      </trkpt>
      <trkpt lat="42.85508" lon="0.14246">
        <ele>2431</ele>
        <time>2020-07-28T09:17:50.045Z</time>
      </trkpt>
      <trkpt lat="42.85508" lon="0.14246">
        <ele>2431</ele>
        <time>2020-07-28T09:17:51.045Z</time>
      </trkpt>
      <trkpt lat="42.85508" lon="0.14246">
        <ele>2431</ele>
        <time>2020-07-28T09:17:52.045Z</time>
      </trkpt>
      <trkpt lat="42.85511" lon="0.14243">
        <ele>2432</ele>
        <time>2020-07-28T09:17:53.045Z</time>
      </trkpt>
      <trkpt lat="42.85512" lon="0.14242">
        <ele>2432</ele>
        <time>2020-07-28T09:17:54.045Z</time>
      </trkpt>
      <trkpt lat="42.85512" lon="0.14242">
        <ele>2432</ele>
        <time>2020-07-28T09:17:55.045Z</time>
      </trkpt>
      <trkpt lat="42.85514" lon="0.14241">
        <ele>2433</ele>
        <time>2020-07-28T09:17:56.045Z</time>
      </trkpt>
      <trkpt lat="42.85514" lon="0.14241">
        <ele>2433</ele>
        <time>2020-07-28T09:17:57.045Z</time>
      </trkpt>
      <trkpt lat="42.85514" lon="0.14241">
        <ele>2433</ele>
        <time>2020-07-28T09:17:58.045Z</time>
      </trkpt>
      <trkpt lat="42.85517" lon="0.14239">
        <ele>2434</ele>
        <time>2020-07-28T09:17:59.045Z</time>
      </trkpt>
      <trkpt lat="42.85517" lon="0.14239">
        <ele>2434</ele>
        <time>2020-07-28T09:18:00.045Z</time>
      </trkpt>
      <trkpt lat="42.85517" lon="0.14239">
        <ele>2434</ele>
        <time>2020-07-28T09:18:01.045Z</time>
      </trkpt>
      <trkpt lat="42.85519" lon="0.14236">
        <ele>2434</ele>
        <time>2020-07-28T09:18:02.045Z</time>
      </trkpt>
      <trkpt lat="42.85519" lon="0.14236">
        <ele>2434</ele>
        <time>2020-07-28T09:18:03.045Z</time>
      </trkpt>
      <trkpt lat="42.85519" lon="0.14236">
        <ele>2434</ele>
        <time>2020-07-28T09:18:04.045Z</time>
      </trkpt>
      <trkpt lat="42.85521" lon="0.14233">
        <ele>2434</ele>
        <time>2020-07-28T09:18:05.045Z</time>
      </trkpt>
      <trkpt lat="42.85521" lon="0.14233">
        <ele>2434</ele>
        <time>2020-07-28T09:18:06.045Z</time>
      </trkpt>
      <trkpt lat="42.85522" lon="0.14232">
        <ele>2434</ele>
        <time>2020-07-28T09:18:07.045Z</time>
      </trkpt>
      <trkpt lat="42.85523" lon="0.14231">
        <ele>2434</ele>
        <time>2020-07-28T09:18:08.045Z</time>
      </trkpt>
      <trkpt lat="42.85523" lon="0.14231">
        <ele>2434</ele>
        <time>2020-07-28T09:18:09.045Z</time>
      </trkpt>
      <trkpt lat="42.85525" lon="0.14228">
        <ele>2434</ele>
        <time>2020-07-28T09:18:10.045Z</time>
      </trkpt>
      <trkpt lat="42.85526" lon="0.14228">
        <ele>2434</ele>
        <time>2020-07-28T09:18:11.045Z</time>
      </trkpt>
      <trkpt lat="42.85526" lon="0.14228">
        <ele>2434</ele>
        <time>2020-07-28T09:18:12.045Z</time>
      </trkpt>
      <trkpt lat="42.85528" lon="0.14226">
        <ele>2434</ele>
        <time>2020-07-28T09:18:13.045Z</time>
      </trkpt>
      <trkpt lat="42.85529" lon="0.14224">
        <ele>2434</ele>
        <time>2020-07-28T09:18:14.045Z</time>
      </trkpt>
      <trkpt lat="42.8553" lon="0.14222">
        <ele>2434</ele>
        <time>2020-07-28T09:18:15.045Z</time>
      </trkpt>
      <trkpt lat="42.85531" lon="0.1422">
        <ele>2433</ele>
        <time>2020-07-28T09:18:16.045Z</time>
      </trkpt>
      <trkpt lat="42.85532" lon="0.14219">
        <ele>2434</ele>
        <time>2020-07-28T09:18:17.045Z</time>
      </trkpt>
      <trkpt lat="42.85532" lon="0.14218">
        <ele>2434</ele>
        <time>2020-07-28T09:18:18.045Z</time>
      </trkpt>
      <trkpt lat="42.85532" lon="0.14218">
        <ele>2434</ele>
        <time>2020-07-28T09:18:19.045Z</time>
      </trkpt>
      <trkpt lat="42.85534" lon="0.14216">
        <ele>2433</ele>
        <time>2020-07-28T09:18:20.045Z</time>
      </trkpt>
      <trkpt lat="42.85534" lon="0.14215">
        <ele>2432</ele>
        <time>2020-07-28T09:18:21.045Z</time>
      </trkpt>
      <trkpt lat="42.85535" lon="0.14213">
        <ele>2433</ele>
        <time>2020-07-28T09:18:22.045Z</time>
      </trkpt>
      <trkpt lat="42.85535" lon="0.14211">
        <ele>2433</ele>
        <time>2020-07-28T09:18:23.045Z</time>
      </trkpt>
      <trkpt lat="42.85535" lon="0.14211">
        <ele>2433</ele>
        <time>2020-07-28T09:18:24.045Z</time>
      </trkpt>
      <trkpt lat="42.85537" lon="0.14209">
        <ele>2434</ele>
        <time>2020-07-28T09:18:25.045Z</time>
      </trkpt>
      <trkpt lat="42.85537" lon="0.14209">
        <ele>2435</ele>
        <time>2020-07-28T09:18:26.045Z</time>
      </trkpt>
      <trkpt lat="42.85537" lon="0.14209">
        <ele>2435</ele>
        <time>2020-07-28T09:18:27.045Z</time>
      </trkpt>
      <trkpt lat="42.85538" lon="0.14207">
        <ele>2436</ele>
        <time>2020-07-28T09:18:28.045Z</time>
      </trkpt>
      <trkpt lat="42.85539" lon="0.14205">
        <ele>2436</ele>
        <time>2020-07-28T09:18:29.045Z</time>
      </trkpt>
      <trkpt lat="42.85539" lon="0.14205">
        <ele>2436</ele>
        <time>2020-07-28T09:18:30.045Z</time>
      </trkpt>
      <trkpt lat="42.85539" lon="0.14205">
        <ele>2436</ele>
        <time>2020-07-28T09:18:31.045Z</time>
      </trkpt>
      <trkpt lat="42.85541" lon="0.14202">
        <ele>2437</ele>
        <time>2020-07-28T09:18:32.045Z</time>
      </trkpt>
      <trkpt lat="42.85541" lon="0.14202">
        <ele>2437</ele>
        <time>2020-07-28T09:18:33.045Z</time>
      </trkpt>
      <trkpt lat="42.85541" lon="0.14202">
        <ele>2437</ele>
        <time>2020-07-28T09:18:34.045Z</time>
      </trkpt>
      <trkpt lat="42.85544" lon="0.14201">
        <ele>2439</ele>
        <time>2020-07-28T09:18:35.045Z</time>
      </trkpt>
      <trkpt lat="42.85545" lon="0.14201">
        <ele>2440</ele>
        <time>2020-07-28T09:18:36.045Z</time>
      </trkpt>
      <trkpt lat="42.85545" lon="0.14201">
        <ele>2440</ele>
        <time>2020-07-28T09:18:37.045Z</time>
      </trkpt>
      <trkpt lat="42.85548" lon="0.14201">
        <ele>2441</ele>
        <time>2020-07-28T09:18:38.045Z</time>
      </trkpt>
      <trkpt lat="42.85548" lon="0.14201">
        <ele>2441</ele>
        <time>2020-07-28T09:18:39.045Z</time>
      </trkpt>
      <trkpt lat="42.85548" lon="0.14201">
        <ele>2441</ele>
        <time>2020-07-28T09:18:40.045Z</time>
      </trkpt>
      <trkpt lat="42.85551" lon="0.142">
        <ele>2443</ele>
        <time>2020-07-28T09:18:41.045Z</time>
      </trkpt>
      <trkpt lat="42.85552" lon="0.14199">
        <ele>2443</ele>
        <time>2020-07-28T09:18:42.045Z</time>
      </trkpt>
      <trkpt lat="42.85553" lon="0.14199">
        <ele>2443</ele>
        <time>2020-07-28T09:18:43.045Z</time>
      </trkpt>
      <trkpt lat="42.85554" lon="0.14199">
        <ele>2444</ele>
        <time>2020-07-28T09:18:44.045Z</time>
      </trkpt>
      <trkpt lat="42.85554" lon="0.14199">
        <ele>2444</ele>
        <time>2020-07-28T09:18:45.045Z</time>
      </trkpt>
      <trkpt lat="42.85554" lon="0.14199">
        <ele>2444</ele>
        <time>2020-07-28T09:18:46.045Z</time>
      </trkpt>
      <trkpt lat="42.85557" lon="0.14198">
        <ele>2443</ele>
        <time>2020-07-28T09:18:47.045Z</time>
      </trkpt>
      <trkpt lat="42.85557" lon="0.14198">
        <ele>2443</ele>
        <time>2020-07-28T09:18:48.045Z</time>
      </trkpt>
      <trkpt lat="42.85557" lon="0.14198">
        <ele>2443</ele>
        <time>2020-07-28T09:18:49.045Z</time>
      </trkpt>
      <trkpt lat="42.8556" lon="0.14199">
        <ele>2445</ele>
        <time>2020-07-28T09:18:50.045Z</time>
      </trkpt>
      <trkpt lat="42.8556" lon="0.14199">
        <ele>2445</ele>
        <time>2020-07-28T09:18:51.045Z</time>
      </trkpt>
      <trkpt lat="42.8556" lon="0.14199">
        <ele>2445</ele>
        <time>2020-07-28T09:18:52.045Z</time>
      </trkpt>
      <trkpt lat="42.85563" lon="0.14198">
        <ele>2444</ele>
        <time>2020-07-28T09:18:53.045Z</time>
      </trkpt>
      <trkpt lat="42.85563" lon="0.14198">
        <ele>2444</ele>
        <time>2020-07-28T09:18:54.045Z</time>
      </trkpt>
      <trkpt lat="42.85563" lon="0.14198">
        <ele>2444</ele>
        <time>2020-07-28T09:18:55.045Z</time>
      </trkpt>
      <trkpt lat="42.85565" lon="0.14195">
        <ele>2444</ele>
        <time>2020-07-28T09:18:56.045Z</time>
      </trkpt>
      <trkpt lat="42.85565" lon="0.14195">
        <ele>2444</ele>
        <time>2020-07-28T09:18:57.045Z</time>
      </trkpt>
      <trkpt lat="42.85565" lon="0.14195">
        <ele>2444</ele>
        <time>2020-07-28T09:18:58.045Z</time>
      </trkpt>
      <trkpt lat="42.85566" lon="0.14191">
        <ele>2445</ele>
        <time>2020-07-28T09:18:59.045Z</time>
      </trkpt>
      <trkpt lat="42.85566" lon="0.14191">
        <ele>2445</ele>
        <time>2020-07-28T09:19:00.045Z</time>
      </trkpt>
      <trkpt lat="42.85566" lon="0.14191">
        <ele>2445</ele>
        <time>2020-07-28T09:19:01.045Z</time>
      </trkpt>
      <trkpt lat="42.85568" lon="0.14187">
        <ele>2448</ele>
        <time>2020-07-28T09:19:02.045Z</time>
      </trkpt>
      <trkpt lat="42.85568" lon="0.14187">
        <ele>2448</ele>
        <time>2020-07-28T09:19:03.045Z</time>
      </trkpt>
      <trkpt lat="42.85568" lon="0.14187">
        <ele>2448</ele>
        <time>2020-07-28T09:19:04.045Z</time>
      </trkpt>
      <trkpt lat="42.8557" lon="0.14185">
        <ele>2448</ele>
        <time>2020-07-28T09:19:05.045Z</time>
      </trkpt>
      <trkpt lat="42.8557" lon="0.14185">
        <ele>2448</ele>
        <time>2020-07-28T09:19:06.045Z</time>
      </trkpt>
      <trkpt lat="42.85571" lon="0.14183">
        <ele>2447</ele>
        <time>2020-07-28T09:19:07.045Z</time>
      </trkpt>
      <trkpt lat="42.85571" lon="0.14181">
        <ele>2448</ele>
        <time>2020-07-28T09:19:08.045Z</time>
      </trkpt>
      <trkpt lat="42.85571" lon="0.14181">
        <ele>2448</ele>
        <time>2020-07-28T09:19:09.045Z</time>
      </trkpt>
      <trkpt lat="42.85571" lon="0.14181">
        <ele>2448</ele>
        <time>2020-07-28T09:19:10.045Z</time>
      </trkpt>
      <trkpt lat="42.85573" lon="0.14176">
        <ele>2448</ele>
        <time>2020-07-28T09:19:11.045Z</time>
      </trkpt>
      <trkpt lat="42.85573" lon="0.14176">
        <ele>2448</ele>
        <time>2020-07-28T09:19:12.045Z</time>
      </trkpt>
      <trkpt lat="42.85573" lon="0.14176">
        <ele>2448</ele>
        <time>2020-07-28T09:19:13.045Z</time>
      </trkpt>
      <trkpt lat="42.85575" lon="0.14172">
        <ele>2449</ele>
        <time>2020-07-28T09:19:14.045Z</time>
      </trkpt>
      <trkpt lat="42.85575" lon="0.14172">
        <ele>2449</ele>
        <time>2020-07-28T09:19:15.045Z</time>
      </trkpt>
      <trkpt lat="42.85575" lon="0.14172">
        <ele>2449</ele>
        <time>2020-07-28T09:19:16.045Z</time>
      </trkpt>
      <trkpt lat="42.85579" lon="0.1417">
        <ele>2449</ele>
        <time>2020-07-28T09:19:17.045Z</time>
      </trkpt>
      <trkpt lat="42.85579" lon="0.1417">
        <ele>2449</ele>
        <time>2020-07-28T09:19:18.045Z</time>
      </trkpt>
      <trkpt lat="42.85579" lon="0.1417">
        <ele>2449</ele>
        <time>2020-07-28T09:19:19.045Z</time>
      </trkpt>
      <trkpt lat="42.85583" lon="0.1417">
        <ele>2451</ele>
        <time>2020-07-28T09:19:20.045Z</time>
      </trkpt>
      <trkpt lat="42.85583" lon="0.1417">
        <ele>2451</ele>
        <time>2020-07-28T09:19:21.045Z</time>
      </trkpt>
      <trkpt lat="42.85583" lon="0.1417">
        <ele>2451</ele>
        <time>2020-07-28T09:19:22.045Z</time>
      </trkpt>
      <trkpt lat="42.85588" lon="0.14168">
        <ele>2450</ele>
        <time>2020-07-28T09:19:23.045Z</time>
      </trkpt>
      <trkpt lat="42.85588" lon="0.14168">
        <ele>2450</ele>
        <time>2020-07-28T09:19:24.045Z</time>
      </trkpt>
      <trkpt lat="42.85588" lon="0.14168">
        <ele>2450</ele>
        <time>2020-07-28T09:19:25.045Z</time>
      </trkpt>
      <trkpt lat="42.85595" lon="0.14165">
        <ele>2453</ele>
        <time>2020-07-28T09:19:26.045Z</time>
      </trkpt>
      <trkpt lat="42.85595" lon="0.14165">
        <ele>2453</ele>
        <time>2020-07-28T09:19:27.045Z</time>
      </trkpt>
      <trkpt lat="42.85595" lon="0.14165">
        <ele>2453</ele>
        <time>2020-07-28T09:19:28.045Z</time>
      </trkpt>
      <trkpt lat="42.85598" lon="0.14162">
        <ele>2453</ele>
        <time>2020-07-28T09:19:29.045Z</time>
      </trkpt>
      <trkpt lat="42.85598" lon="0.14162">
        <ele>2453</ele>
        <time>2020-07-28T09:19:30.045Z</time>
      </trkpt>
      <trkpt lat="42.856" lon="0.14159">
        <ele>2454</ele>
        <time>2020-07-28T09:19:31.045Z</time>
      </trkpt>
      <trkpt lat="42.85602" lon="0.14158">
        <ele>2454</ele>
        <time>2020-07-28T09:19:32.045Z</time>
      </trkpt>
      <trkpt lat="42.85602" lon="0.14158">
        <ele>2454</ele>
        <time>2020-07-28T09:19:33.045Z</time>
      </trkpt>
      <trkpt lat="42.85602" lon="0.14158">
        <ele>2454</ele>
        <time>2020-07-28T09:19:34.045Z</time>
      </trkpt>
      <trkpt lat="42.85604" lon="0.14155">
        <ele>2456</ele>
        <time>2020-07-28T09:19:35.045Z</time>
      </trkpt>
      <trkpt lat="42.85604" lon="0.14155">
        <ele>2456</ele>
        <time>2020-07-28T09:19:36.045Z</time>
      </trkpt>
      <trkpt lat="42.85604" lon="0.14155">
        <ele>2456</ele>
        <time>2020-07-28T09:19:37.045Z</time>
      </trkpt>
      <trkpt lat="42.85607" lon="0.14152">
        <ele>2456</ele>
        <time>2020-07-28T09:19:38.045Z</time>
      </trkpt>
      <trkpt lat="42.85614" lon="0.14138">
        <ele>2462</ele>
        <time>2020-07-28T09:19:39.014Z</time>
      </trkpt>
      <trkpt lat="42.85616" lon="0.14138">
        <ele>2463</ele>
        <time>2020-07-28T09:19:40.014Z</time>
      </trkpt>
      <trkpt lat="42.85616" lon="0.14138">
        <ele>2463</ele>
        <time>2020-07-28T09:19:41.014Z</time>
      </trkpt>
      <trkpt lat="42.85617" lon="0.14136">
        <ele>2465</ele>
        <time>2020-07-28T09:19:42.014Z</time>
      </trkpt>
      <trkpt lat="42.85618" lon="0.14135">
        <ele>2466</ele>
        <time>2020-07-28T09:19:43.014Z</time>
      </trkpt>
      <trkpt lat="42.85618" lon="0.14135">
        <ele>2466</ele>
        <time>2020-07-28T09:19:44.014Z</time>
      </trkpt>
      <trkpt lat="42.85618" lon="0.14135">
        <ele>2466</ele>
        <time>2020-07-28T09:19:45.014Z</time>
      </trkpt>
      <trkpt lat="42.85619" lon="0.14133">
        <ele>2464</ele>
        <time>2020-07-28T09:19:46.014Z</time>
      </trkpt>
      <trkpt lat="42.85619" lon="0.14133">
        <ele>2464</ele>
        <time>2020-07-28T09:19:47.014Z</time>
      </trkpt>
      <trkpt lat="42.85619" lon="0.14133">
        <ele>2464</ele>
        <time>2020-07-28T09:19:48.014Z</time>
      </trkpt>
      <trkpt lat="42.85621" lon="0.14129">
        <ele>2465</ele>
        <time>2020-07-28T09:19:49.014Z</time>
      </trkpt>
      <trkpt lat="42.85621" lon="0.14127">
        <ele>2465</ele>
        <time>2020-07-28T09:19:50.014Z</time>
      </trkpt>
      <trkpt lat="42.85621" lon="0.14127">
        <ele>2465</ele>
        <time>2020-07-28T09:19:51.014Z</time>
      </trkpt>
      <trkpt lat="42.8562" lon="0.14122">
        <ele>2466</ele>
        <time>2020-07-28T09:19:52.014Z</time>
      </trkpt>
      <trkpt lat="42.8562" lon="0.14122">
        <ele>2466</ele>
        <time>2020-07-28T09:19:53.014Z</time>
      </trkpt>
      <trkpt lat="42.85621" lon="0.14115">
        <ele>2468</ele>
        <time>2020-07-28T09:19:54.014Z</time>
      </trkpt>
      <trkpt lat="42.85623" lon="0.14113">
        <ele>2468</ele>
        <time>2020-07-28T09:19:55.014Z</time>
      </trkpt>
      <trkpt lat="42.85623" lon="0.14113">
        <ele>2468</ele>
        <time>2020-07-28T09:19:56.014Z</time>
      </trkpt>
      <trkpt lat="42.85624" lon="0.14109">
        <ele>2469</ele>
        <time>2020-07-28T09:19:57.014Z</time>
      </trkpt>
      <trkpt lat="42.85625" lon="0.14108">
        <ele>2469</ele>
        <time>2020-07-28T09:19:58.014Z</time>
      </trkpt>
      <trkpt lat="42.85627" lon="0.14107">
        <ele>2469</ele>
        <time>2020-07-28T09:19:59.014Z</time>
      </trkpt>
      <trkpt lat="42.85627" lon="0.14107">
        <ele>2469</ele>
        <time>2020-07-28T09:20:00.014Z</time>
      </trkpt>
      <trkpt lat="42.85629" lon="0.14106">
        <ele>2470</ele>
        <time>2020-07-28T09:20:01.014Z</time>
      </trkpt>
      <trkpt lat="42.85629" lon="0.14106">
        <ele>2470</ele>
        <time>2020-07-28T09:20:02.014Z</time>
      </trkpt>
      <trkpt lat="42.85629" lon="0.14106">
        <ele>2470</ele>
        <time>2020-07-28T09:20:03.014Z</time>
      </trkpt>
      <trkpt lat="42.85634" lon="0.14104">
        <ele>2470</ele>
        <time>2020-07-28T09:20:04.014Z</time>
      </trkpt>
      <trkpt lat="42.85634" lon="0.14104">
        <ele>2470</ele>
        <time>2020-07-28T09:20:05.014Z</time>
      </trkpt>
      <trkpt lat="42.85634" lon="0.14104">
        <ele>2470</ele>
        <time>2020-07-28T09:20:06.014Z</time>
      </trkpt>
      <trkpt lat="42.85642" lon="0.141">
        <ele>2472</ele>
        <time>2020-07-28T09:20:07.014Z</time>
      </trkpt>
      <trkpt lat="42.85642" lon="0.141">
        <ele>2472</ele>
        <time>2020-07-28T09:20:08.014Z</time>
      </trkpt>
      <trkpt lat="42.85642" lon="0.141">
        <ele>2472</ele>
        <time>2020-07-28T09:20:09.014Z</time>
      </trkpt>
      <trkpt lat="42.85645" lon="0.14097">
        <ele>2474</ele>
        <time>2020-07-28T09:20:10.014Z</time>
      </trkpt>
      <trkpt lat="42.85645" lon="0.14097">
        <ele>2474</ele>
        <time>2020-07-28T09:20:11.014Z</time>
      </trkpt>
      <trkpt lat="42.85645" lon="0.14097">
        <ele>2474</ele>
        <time>2020-07-28T09:20:12.014Z</time>
      </trkpt>
      <trkpt lat="42.85649" lon="0.14095">
        <ele>2473</ele>
        <time>2020-07-28T09:20:13.014Z</time>
      </trkpt>
      <trkpt lat="42.85649" lon="0.14095">
        <ele>2473</ele>
        <time>2020-07-28T09:20:14.014Z</time>
      </trkpt>
      <trkpt lat="42.85649" lon="0.14095">
        <ele>2473</ele>
        <time>2020-07-28T09:20:15.014Z</time>
      </trkpt>
      <trkpt lat="42.85654" lon="0.14093">
        <ele>2474</ele>
        <time>2020-07-28T09:20:16.014Z</time>
      </trkpt>
      <trkpt lat="42.85654" lon="0.14093">
        <ele>2474</ele>
        <time>2020-07-28T09:20:17.014Z</time>
      </trkpt>
      <trkpt lat="42.85654" lon="0.14093">
        <ele>2474</ele>
        <time>2020-07-28T09:20:18.014Z</time>
      </trkpt>
      <trkpt lat="42.85657" lon="0.1409">
        <ele>2475</ele>
        <time>2020-07-28T09:20:19.014Z</time>
      </trkpt>
      <trkpt lat="42.85657" lon="0.1409">
        <ele>2475</ele>
        <time>2020-07-28T09:20:20.014Z</time>
      </trkpt>
      <trkpt lat="42.85657" lon="0.1409">
        <ele>2475</ele>
        <time>2020-07-28T09:20:21.014Z</time>
      </trkpt>
      <trkpt lat="42.85661" lon="0.14092">
        <ele>2476</ele>
        <time>2020-07-28T09:20:22.014Z</time>
      </trkpt>
      <trkpt lat="42.85661" lon="0.14092">
        <ele>2476</ele>
        <time>2020-07-28T09:20:23.014Z</time>
      </trkpt>
      <trkpt lat="42.85661" lon="0.14092">
        <ele>2476</ele>
        <time>2020-07-28T09:20:24.014Z</time>
      </trkpt>
      <trkpt lat="42.85662" lon="0.14093">
        <ele>2477</ele>
        <time>2020-07-28T09:20:25.014Z</time>
      </trkpt>
      <trkpt lat="42.85662" lon="0.14093">
        <ele>2477</ele>
        <time>2020-07-28T09:20:26.014Z</time>
      </trkpt>
      <trkpt lat="42.85662" lon="0.14093">
        <ele>2477</ele>
        <time>2020-07-28T09:20:27.014Z</time>
      </trkpt>
      <trkpt lat="42.85665" lon="0.14093">
        <ele>2476</ele>
        <time>2020-07-28T09:20:28.014Z</time>
      </trkpt>
      <trkpt lat="42.85665" lon="0.14093">
        <ele>2476</ele>
        <time>2020-07-28T09:20:29.014Z</time>
      </trkpt>
      <trkpt lat="42.85665" lon="0.14093">
        <ele>2476</ele>
        <time>2020-07-28T09:20:30.014Z</time>
      </trkpt>
      <trkpt lat="42.85667" lon="0.14092">
        <ele>2477</ele>
        <time>2020-07-28T09:20:31.014Z</time>
      </trkpt>
      <trkpt lat="42.85667" lon="0.14092">
        <ele>2477</ele>
        <time>2020-07-28T09:20:32.014Z</time>
      </trkpt>
      <trkpt lat="42.85667" lon="0.14092">
        <ele>2477</ele>
        <time>2020-07-28T09:20:33.014Z</time>
      </trkpt>
      <trkpt lat="42.85671" lon="0.14093">
        <ele>2478</ele>
        <time>2020-07-28T09:20:34.014Z</time>
      </trkpt>
      <trkpt lat="42.85671" lon="0.14093">
        <ele>2478</ele>
        <time>2020-07-28T09:20:35.014Z</time>
      </trkpt>
      <trkpt lat="42.85671" lon="0.14093">
        <ele>2478</ele>
        <time>2020-07-28T09:20:36.014Z</time>
      </trkpt>
      <trkpt lat="42.85673" lon="0.14092">
        <ele>2480</ele>
        <time>2020-07-28T09:20:37.014Z</time>
      </trkpt>
      <trkpt lat="42.85673" lon="0.14092">
        <ele>2480</ele>
        <time>2020-07-28T09:20:38.014Z</time>
      </trkpt>
      <trkpt lat="42.85673" lon="0.14092">
        <ele>2480</ele>
        <time>2020-07-28T09:20:39.014Z</time>
      </trkpt>
      <trkpt lat="42.85676" lon="0.14091">
        <ele>2480</ele>
        <time>2020-07-28T09:20:40.014Z</time>
      </trkpt>
      <trkpt lat="42.85676" lon="0.14091">
        <ele>2480</ele>
        <time>2020-07-28T09:20:41.014Z</time>
      </trkpt>
      <trkpt lat="42.85676" lon="0.14091">
        <ele>2480</ele>
        <time>2020-07-28T09:20:42.014Z</time>
      </trkpt>
      <trkpt lat="42.85678" lon="0.1409">
        <ele>2481</ele>
        <time>2020-07-28T09:20:43.014Z</time>
      </trkpt>
      <trkpt lat="42.85678" lon="0.1409">
        <ele>2481</ele>
        <time>2020-07-28T09:20:44.014Z</time>
      </trkpt>
      <trkpt lat="42.85679" lon="0.1409">
        <ele>2482</ele>
        <time>2020-07-28T09:20:45.014Z</time>
      </trkpt>
      <trkpt lat="42.8568" lon="0.14089">
        <ele>2482</ele>
        <time>2020-07-28T09:20:46.014Z</time>
      </trkpt>
      <trkpt lat="42.8568" lon="0.14089">
        <ele>2482</ele>
        <time>2020-07-28T09:20:47.014Z</time>
      </trkpt>
      <trkpt lat="42.8568" lon="0.14089">
        <ele>2482</ele>
        <time>2020-07-28T09:20:48.014Z</time>
      </trkpt>
      <trkpt lat="42.85683" lon="0.14089">
        <ele>2484</ele>
        <time>2020-07-28T09:20:49.014Z</time>
      </trkpt>
      <trkpt lat="42.85683" lon="0.14089">
        <ele>2484</ele>
        <time>2020-07-28T09:20:50.014Z</time>
      </trkpt>
      <trkpt lat="42.85683" lon="0.14089">
        <ele>2484</ele>
        <time>2020-07-28T09:20:51.014Z</time>
      </trkpt>
      <trkpt lat="42.85685" lon="0.14089">
        <ele>2486</ele>
        <time>2020-07-28T09:20:52.014Z</time>
      </trkpt>
      <trkpt lat="42.85685" lon="0.14089">
        <ele>2486</ele>
        <time>2020-07-28T09:20:53.014Z</time>
      </trkpt>
      <trkpt lat="42.85685" lon="0.14089">
        <ele>2486</ele>
        <time>2020-07-28T09:20:54.014Z</time>
      </trkpt>
      <trkpt lat="42.85688" lon="0.1409">
        <ele>2487</ele>
        <time>2020-07-28T09:20:55.014Z</time>
      </trkpt>
      <trkpt lat="42.85688" lon="0.1409">
        <ele>2487</ele>
        <time>2020-07-28T09:20:56.014Z</time>
      </trkpt>
      <trkpt lat="42.85688" lon="0.1409">
        <ele>2487</ele>
        <time>2020-07-28T09:20:57.014Z</time>
      </trkpt>
      <trkpt lat="42.8569" lon="0.1409">
        <ele>2487</ele>
        <time>2020-07-28T09:20:58.014Z</time>
      </trkpt>
      <trkpt lat="42.8569" lon="0.1409">
        <ele>2487</ele>
        <time>2020-07-28T09:20:59.014Z</time>
      </trkpt>
      <trkpt lat="42.85692" lon="0.14089">
        <ele>2487</ele>
        <time>2020-07-28T09:21:00.014Z</time>
      </trkpt>
      <trkpt lat="42.85693" lon="0.1409">
        <ele>2487</ele>
        <time>2020-07-28T09:21:01.014Z</time>
      </trkpt>
      <trkpt lat="42.85693" lon="0.1409">
        <ele>2487</ele>
        <time>2020-07-28T09:21:02.014Z</time>
      </trkpt>
      <trkpt lat="42.85693" lon="0.1409">
        <ele>2487</ele>
        <time>2020-07-28T09:21:03.014Z</time>
      </trkpt>
      <trkpt lat="42.85696" lon="0.14089">
        <ele>2486</ele>
        <time>2020-07-28T09:21:04.014Z</time>
      </trkpt>
      <trkpt lat="42.85696" lon="0.14089">
        <ele>2486</ele>
        <time>2020-07-28T09:21:05.014Z</time>
      </trkpt>
      <trkpt lat="42.85697" lon="0.1409">
        <ele>2485</ele>
        <time>2020-07-28T09:21:06.014Z</time>
      </trkpt>
      <trkpt lat="42.85698" lon="0.1409">
        <ele>2486</ele>
        <time>2020-07-28T09:21:07.014Z</time>
      </trkpt>
      <trkpt lat="42.85698" lon="0.1409">
        <ele>2486</ele>
        <time>2020-07-28T09:21:08.014Z</time>
      </trkpt>
      <trkpt lat="42.85698" lon="0.1409">
        <ele>2486</ele>
        <time>2020-07-28T09:21:09.014Z</time>
      </trkpt>
      <trkpt lat="42.85701" lon="0.14089">
        <ele>2488</ele>
        <time>2020-07-28T09:21:10.014Z</time>
      </trkpt>
      <trkpt lat="42.85702" lon="0.14089">
        <ele>2488</ele>
        <time>2020-07-28T09:21:11.014Z</time>
      </trkpt>
      <trkpt lat="42.85702" lon="0.14089">
        <ele>2488</ele>
        <time>2020-07-28T09:21:12.014Z</time>
      </trkpt>
      <trkpt lat="42.85702" lon="0.14087">
        <ele>2489</ele>
        <time>2020-07-28T09:21:13.014Z</time>
      </trkpt>
      <trkpt lat="42.85702" lon="0.14087">
        <ele>2489</ele>
        <time>2020-07-28T09:21:14.014Z</time>
      </trkpt>
      <trkpt lat="42.85702" lon="0.14087">
        <ele>2489</ele>
        <time>2020-07-28T09:21:15.014Z</time>
      </trkpt>
      <trkpt lat="42.85703" lon="0.14084">
        <ele>2490</ele>
        <time>2020-07-28T09:21:16.014Z</time>
      </trkpt>
      <trkpt lat="42.85703" lon="0.14084">
        <ele>2490</ele>
        <time>2020-07-28T09:21:17.014Z</time>
      </trkpt>
      <trkpt lat="42.85703" lon="0.14084">
        <ele>2490</ele>
        <time>2020-07-28T09:21:18.014Z</time>
      </trkpt>
      <trkpt lat="42.85707" lon="0.1408">
        <ele>2490</ele>
        <time>2020-07-28T09:21:19.014Z</time>
      </trkpt>
      <trkpt lat="42.85707" lon="0.1408">
        <ele>2490</ele>
        <time>2020-07-28T09:21:20.014Z</time>
      </trkpt>
      <trkpt lat="42.85709" lon="0.14079">
        <ele>2490</ele>
        <time>2020-07-28T09:21:21.014Z</time>
      </trkpt>
      <trkpt lat="42.8571" lon="0.14079">
        <ele>2490</ele>
        <time>2020-07-28T09:21:22.014Z</time>
      </trkpt>
      <trkpt lat="42.8571" lon="0.14079">
        <ele>2490</ele>
        <time>2020-07-28T09:21:23.014Z</time>
      </trkpt>
      <trkpt lat="42.8571" lon="0.14079">
        <ele>2490</ele>
        <time>2020-07-28T09:21:24.014Z</time>
      </trkpt>
      <trkpt lat="42.85714" lon="0.1408">
        <ele>2490</ele>
        <time>2020-07-28T09:21:25.014Z</time>
      </trkpt>
      <trkpt lat="42.85714" lon="0.1408">
        <ele>2490</ele>
        <time>2020-07-28T09:21:26.014Z</time>
      </trkpt>
      <trkpt lat="42.85714" lon="0.1408">
        <ele>2490</ele>
        <time>2020-07-28T09:21:27.014Z</time>
      </trkpt>
      <trkpt lat="42.85715" lon="0.14078">
        <ele>2491</ele>
        <time>2020-07-28T09:21:28.014Z</time>
      </trkpt>
      <trkpt lat="42.85715" lon="0.14078">
        <ele>2491</ele>
        <time>2020-07-28T09:21:29.014Z</time>
      </trkpt>
      <trkpt lat="42.85715" lon="0.14078">
        <ele>2491</ele>
        <time>2020-07-28T09:21:30.014Z</time>
      </trkpt>
      <trkpt lat="42.85715" lon="0.14075">
        <ele>2491</ele>
        <time>2020-07-28T09:21:31.014Z</time>
      </trkpt>
      <trkpt lat="42.85715" lon="0.14075">
        <ele>2491</ele>
        <time>2020-07-28T09:21:32.014Z</time>
      </trkpt>
      <trkpt lat="42.85715" lon="0.14075">
        <ele>2491</ele>
        <time>2020-07-28T09:21:33.014Z</time>
      </trkpt>
      <trkpt lat="42.85714" lon="0.14072">
        <ele>2492</ele>
        <time>2020-07-28T09:21:34.014Z</time>
      </trkpt>
      <trkpt lat="42.85714" lon="0.14072">
        <ele>2492</ele>
        <time>2020-07-28T09:21:35.014Z</time>
      </trkpt>
      <trkpt lat="42.85714" lon="0.14072">
        <ele>2492</ele>
        <time>2020-07-28T09:21:36.014Z</time>
      </trkpt>
      <trkpt lat="42.85714" lon="0.14067">
        <ele>2493</ele>
        <time>2020-07-28T09:21:37.014Z</time>
      </trkpt>
      <trkpt lat="42.85714" lon="0.14067">
        <ele>2493</ele>
        <time>2020-07-28T09:21:38.014Z</time>
      </trkpt>
      <trkpt lat="42.85714" lon="0.14067">
        <ele>2493</ele>
        <time>2020-07-28T09:21:39.014Z</time>
      </trkpt>
      <trkpt lat="42.85715" lon="0.14063">
        <ele>2493</ele>
        <time>2020-07-28T09:21:40.014Z</time>
      </trkpt>
      <trkpt lat="42.85715" lon="0.14063">
        <ele>2493</ele>
        <time>2020-07-28T09:21:41.014Z</time>
      </trkpt>
      <trkpt lat="42.85715" lon="0.14063">
        <ele>2493</ele>
        <time>2020-07-28T09:21:42.014Z</time>
      </trkpt>
      <trkpt lat="42.85716" lon="0.14061">
        <ele>2494</ele>
        <time>2020-07-28T09:21:43.014Z</time>
      </trkpt>
      <trkpt lat="42.85716" lon="0.14061">
        <ele>2494</ele>
        <time>2020-07-28T09:21:44.014Z</time>
      </trkpt>
      <trkpt lat="42.85716" lon="0.14061">
        <ele>2494</ele>
        <time>2020-07-28T09:21:45.014Z</time>
      </trkpt>
      <trkpt lat="42.85719" lon="0.14061">
        <ele>2496</ele>
        <time>2020-07-28T09:21:46.014Z</time>
      </trkpt>
      <trkpt lat="42.85719" lon="0.14061">
        <ele>2496</ele>
        <time>2020-07-28T09:21:47.014Z</time>
      </trkpt>
      <trkpt lat="42.8572" lon="0.1406">
        <ele>2497</ele>
        <time>2020-07-28T09:21:48.014Z</time>
      </trkpt>
      <trkpt lat="42.8572" lon="0.14059">
        <ele>2497</ele>
        <time>2020-07-28T09:21:49.014Z</time>
      </trkpt>
      <trkpt lat="42.8572" lon="0.14059">
        <ele>2497</ele>
        <time>2020-07-28T09:21:50.014Z</time>
      </trkpt>
      <trkpt lat="42.85721" lon="0.14058">
        <ele>2498</ele>
        <time>2020-07-28T09:21:51.014Z</time>
      </trkpt>
      <trkpt lat="42.85722" lon="0.14056">
        <ele>2499</ele>
        <time>2020-07-28T09:21:52.014Z</time>
      </trkpt>
      <trkpt lat="42.85722" lon="0.14056">
        <ele>2499</ele>
        <time>2020-07-28T09:21:53.014Z</time>
      </trkpt>
      <trkpt lat="42.85722" lon="0.14056">
        <ele>2499</ele>
        <time>2020-07-28T09:21:54.014Z</time>
      </trkpt>
      <trkpt lat="42.85724" lon="0.14056">
        <ele>2500</ele>
        <time>2020-07-28T09:21:55.014Z</time>
      </trkpt>
      <trkpt lat="42.85724" lon="0.14056">
        <ele>2500</ele>
        <time>2020-07-28T09:21:56.014Z</time>
      </trkpt>
      <trkpt lat="42.85724" lon="0.14056">
        <ele>2500</ele>
        <time>2020-07-28T09:21:57.014Z</time>
      </trkpt>
      <trkpt lat="42.85726" lon="0.14055">
        <ele>2502</ele>
        <time>2020-07-28T09:21:58.014Z</time>
      </trkpt>
      <trkpt lat="42.85726" lon="0.14055">
        <ele>2502</ele>
        <time>2020-07-28T09:21:59.014Z</time>
      </trkpt>
      <trkpt lat="42.85726" lon="0.14055">
        <ele>2502</ele>
        <time>2020-07-28T09:22:00.014Z</time>
      </trkpt>
      <trkpt lat="42.85729" lon="0.14053">
        <ele>2503</ele>
        <time>2020-07-28T09:22:01.014Z</time>
      </trkpt>
      <trkpt lat="42.85729" lon="0.14053">
        <ele>2503</ele>
        <time>2020-07-28T09:22:02.014Z</time>
      </trkpt>
      <trkpt lat="42.85729" lon="0.14053">
        <ele>2503</ele>
        <time>2020-07-28T09:22:03.014Z</time>
      </trkpt>
      <trkpt lat="42.85733" lon="0.1405">
        <ele>2505</ele>
        <time>2020-07-28T09:22:04.014Z</time>
      </trkpt>
      <trkpt lat="42.85734" lon="0.14048">
        <ele>2505</ele>
        <time>2020-07-28T09:22:05.014Z</time>
      </trkpt>
      <trkpt lat="42.85734" lon="0.14048">
        <ele>2505</ele>
        <time>2020-07-28T09:22:06.014Z</time>
      </trkpt>
      <trkpt lat="42.85737" lon="0.14046">
        <ele>2506</ele>
        <time>2020-07-28T09:22:07.014Z</time>
      </trkpt>
      <trkpt lat="42.85737" lon="0.14046">
        <ele>2506</ele>
        <time>2020-07-28T09:22:08.014Z</time>
      </trkpt>
      <trkpt lat="42.85741" lon="0.14043">
        <ele>2507</ele>
        <time>2020-07-28T09:22:09.014Z</time>
      </trkpt>
      <trkpt lat="42.85743" lon="0.14042">
        <ele>2509</ele>
        <time>2020-07-28T09:22:10.014Z</time>
      </trkpt>
      <trkpt lat="42.85743" lon="0.14042">
        <ele>2509</ele>
        <time>2020-07-28T09:22:11.014Z</time>
      </trkpt>
      <trkpt lat="42.85743" lon="0.14042">
        <ele>2509</ele>
        <time>2020-07-28T09:22:12.014Z</time>
      </trkpt>
      <trkpt lat="42.85747" lon="0.14042">
        <ele>2509</ele>
        <time>2020-07-28T09:22:13.014Z</time>
      </trkpt>
      <trkpt lat="42.85747" lon="0.14042">
        <ele>2509</ele>
        <time>2020-07-28T09:22:14.014Z</time>
      </trkpt>
      <trkpt lat="42.8575" lon="0.14043">
        <ele>2510</ele>
        <time>2020-07-28T09:22:15.014Z</time>
      </trkpt>
      <trkpt lat="42.85752" lon="0.14043">
        <ele>2509</ele>
        <time>2020-07-28T09:22:16.014Z</time>
      </trkpt>
      <trkpt lat="42.85752" lon="0.14043">
        <ele>2509</ele>
        <time>2020-07-28T09:22:17.014Z</time>
      </trkpt>
      <trkpt lat="42.85755" lon="0.14044">
        <ele>2509</ele>
        <time>2020-07-28T09:22:18.014Z</time>
      </trkpt>
      <trkpt lat="42.85756" lon="0.14044">
        <ele>2510</ele>
        <time>2020-07-28T09:22:19.014Z</time>
      </trkpt>
      <trkpt lat="42.8576" lon="0.14041">
        <ele>2513</ele>
        <time>2020-07-28T09:22:20.045Z</time>
      </trkpt>
      <trkpt lat="42.8576" lon="0.14042">
        <ele>2513</ele>
        <time>2020-07-28T09:22:21.045Z</time>
      </trkpt>
      <trkpt lat="42.85759" lon="0.14042">
        <ele>2512</ele>
        <time>2020-07-28T09:22:22.045Z</time>
      </trkpt>
      <trkpt lat="42.85758" lon="0.14043">
        <ele>2512</ele>
        <time>2020-07-28T09:22:23.045Z</time>
      </trkpt>
      <trkpt lat="42.85758" lon="0.14043">
        <ele>2512</ele>
        <time>2020-07-28T09:22:24.045Z</time>
      </trkpt>
      <trkpt lat="42.85758" lon="0.14043">
        <ele>2512</ele>
        <time>2020-07-28T09:22:25.045Z</time>
      </trkpt>
      <trkpt lat="42.85753" lon="0.14044">
        <ele>2511</ele>
        <time>2020-07-28T09:22:26.045Z</time>
      </trkpt>
      <trkpt lat="42.85753" lon="0.14044">
        <ele>2511</ele>
        <time>2020-07-28T09:22:27.045Z</time>
      </trkpt>
      <trkpt lat="42.85753" lon="0.14044">
        <ele>2511</ele>
        <time>2020-07-28T09:22:28.045Z</time>
      </trkpt>
      <trkpt lat="42.85747" lon="0.14046">
        <ele>2511</ele>
        <time>2020-07-28T09:22:29.045Z</time>
      </trkpt>
      <trkpt lat="42.85744" lon="0.14047">
        <ele>2511</ele>
        <time>2020-07-28T09:22:30.045Z</time>
      </trkpt>
      <trkpt lat="42.85744" lon="0.14047">
        <ele>2511</ele>
        <time>2020-07-28T09:22:31.045Z</time>
      </trkpt>
      <trkpt lat="42.85739" lon="0.1405">
        <ele>2509</ele>
        <time>2020-07-28T09:22:32.045Z</time>
      </trkpt>
      <trkpt lat="42.85739" lon="0.1405">
        <ele>2509</ele>
        <time>2020-07-28T09:22:33.045Z</time>
      </trkpt>
      <trkpt lat="42.85739" lon="0.1405">
        <ele>2509</ele>
        <time>2020-07-28T09:22:34.045Z</time>
      </trkpt>
      <trkpt lat="42.85732" lon="0.14053">
        <ele>2508</ele>
        <time>2020-07-28T09:22:35.045Z</time>
      </trkpt>
      <trkpt lat="42.85732" lon="0.14053">
        <ele>2508</ele>
        <time>2020-07-28T09:22:36.045Z</time>
      </trkpt>
      <trkpt lat="42.85732" lon="0.14053">
        <ele>2508</ele>
        <time>2020-07-28T09:22:37.045Z</time>
      </trkpt>
      <trkpt lat="42.85725" lon="0.14055">
        <ele>2505</ele>
        <time>2020-07-28T09:22:38.045Z</time>
      </trkpt>
      <trkpt lat="42.85725" lon="0.14055">
        <ele>2505</ele>
        <time>2020-07-28T09:22:39.045Z</time>
      </trkpt>
      <trkpt lat="42.85725" lon="0.14055">
        <ele>2505</ele>
        <time>2020-07-28T09:22:40.045Z</time>
      </trkpt>
      <trkpt lat="42.85719" lon="0.14056">
        <ele>2503</ele>
        <time>2020-07-28T09:22:41.045Z</time>
      </trkpt>
      <trkpt lat="42.85719" lon="0.14056">
        <ele>2503</ele>
        <time>2020-07-28T09:22:42.045Z</time>
      </trkpt>
      <trkpt lat="42.85719" lon="0.14056">
        <ele>2503</ele>
        <time>2020-07-28T09:22:43.045Z</time>
      </trkpt>
      <trkpt lat="42.85714" lon="0.14058">
        <ele>2501</ele>
        <time>2020-07-28T09:22:44.045Z</time>
      </trkpt>
      <trkpt lat="42.85714" lon="0.14058">
        <ele>2501</ele>
        <time>2020-07-28T09:22:45.045Z</time>
      </trkpt>
      <trkpt lat="42.85714" lon="0.14058">
        <ele>2501</ele>
        <time>2020-07-28T09:22:46.045Z</time>
      </trkpt>
      <trkpt lat="42.85712" lon="0.14063">
        <ele>2501</ele>
        <time>2020-07-28T09:22:47.045Z</time>
      </trkpt>
      <trkpt lat="42.85712" lon="0.14063">
        <ele>2501</ele>
        <time>2020-07-28T09:22:48.045Z</time>
      </trkpt>
      <trkpt lat="42.85712" lon="0.14063">
        <ele>2501</ele>
        <time>2020-07-28T09:22:49.045Z</time>
      </trkpt>
      <trkpt lat="42.8571" lon="0.14067">
        <ele>2499</ele>
        <time>2020-07-28T09:22:50.045Z</time>
      </trkpt>
      <trkpt lat="42.8571" lon="0.14067">
        <ele>2499</ele>
        <time>2020-07-28T09:22:51.045Z</time>
      </trkpt>
      <trkpt lat="42.8571" lon="0.14067">
        <ele>2499</ele>
        <time>2020-07-28T09:22:52.045Z</time>
      </trkpt>
      <trkpt lat="42.85708" lon="0.14069">
        <ele>2497</ele>
        <time>2020-07-28T09:22:53.045Z</time>
      </trkpt>
      <trkpt lat="42.85708" lon="0.14069">
        <ele>2497</ele>
        <time>2020-07-28T09:22:54.045Z</time>
      </trkpt>
      <trkpt lat="42.85708" lon="0.14069">
        <ele>2497</ele>
        <time>2020-07-28T09:22:55.045Z</time>
      </trkpt>
      <trkpt lat="42.85706" lon="0.14071">
        <ele>2496</ele>
        <time>2020-07-28T09:22:56.045Z</time>
      </trkpt>
      <trkpt lat="42.85706" lon="0.14071">
        <ele>2496</ele>
        <time>2020-07-28T09:22:57.045Z</time>
      </trkpt>
      <trkpt lat="42.85706" lon="0.14071">
        <ele>2496</ele>
        <time>2020-07-28T09:22:58.045Z</time>
      </trkpt>
      <trkpt lat="42.85704" lon="0.14075">
        <ele>2495</ele>
        <time>2020-07-28T09:22:59.045Z</time>
      </trkpt>
      <trkpt lat="42.85704" lon="0.14075">
        <ele>2495</ele>
        <time>2020-07-28T09:23:00.045Z</time>
      </trkpt>
      <trkpt lat="42.85704" lon="0.14075">
        <ele>2495</ele>
        <time>2020-07-28T09:23:01.045Z</time>
      </trkpt>
      <trkpt lat="42.85702" lon="0.14079">
        <ele>2493</ele>
        <time>2020-07-28T09:23:02.045Z</time>
      </trkpt>
      <trkpt lat="42.85702" lon="0.14079">
        <ele>2493</ele>
        <time>2020-07-28T09:23:03.045Z</time>
      </trkpt>
      <trkpt lat="42.85702" lon="0.14079">
        <ele>2493</ele>
        <time>2020-07-28T09:23:04.045Z</time>
      </trkpt>
      <trkpt lat="42.857" lon="0.14083">
        <ele>2493</ele>
        <time>2020-07-28T09:23:05.045Z</time>
      </trkpt>
      <trkpt lat="42.857" lon="0.14083">
        <ele>2493</ele>
        <time>2020-07-28T09:23:06.045Z</time>
      </trkpt>
      <trkpt lat="42.857" lon="0.14083">
        <ele>2493</ele>
        <time>2020-07-28T09:23:07.045Z</time>
      </trkpt>
      <trkpt lat="42.85698" lon="0.14085">
        <ele>2490</ele>
        <time>2020-07-28T09:23:08.045Z</time>
      </trkpt>
      <trkpt lat="42.85698" lon="0.14085">
        <ele>2490</ele>
        <time>2020-07-28T09:23:09.045Z</time>
      </trkpt>
      <trkpt lat="42.85698" lon="0.14085">
        <ele>2490</ele>
        <time>2020-07-28T09:23:10.045Z</time>
      </trkpt>
      <trkpt lat="42.85694" lon="0.14086">
        <ele>2489</ele>
        <time>2020-07-28T09:23:11.045Z</time>
      </trkpt>
      <trkpt lat="42.85694" lon="0.14086">
        <ele>2489</ele>
        <time>2020-07-28T09:23:12.045Z</time>
      </trkpt>
      <trkpt lat="42.85694" lon="0.14086">
        <ele>2489</ele>
        <time>2020-07-28T09:23:13.045Z</time>
      </trkpt>
      <trkpt lat="42.8569" lon="0.14087">
        <ele>2488</ele>
        <time>2020-07-28T09:23:14.045Z</time>
      </trkpt>
      <trkpt lat="42.8569" lon="0.14087">
        <ele>2488</ele>
        <time>2020-07-28T09:23:15.045Z</time>
      </trkpt>
      <trkpt lat="42.8569" lon="0.14087">
        <ele>2488</ele>
        <time>2020-07-28T09:23:16.045Z</time>
      </trkpt>
      <trkpt lat="42.85686" lon="0.14087">
        <ele>2487</ele>
        <time>2020-07-28T09:23:17.045Z</time>
      </trkpt>
      <trkpt lat="42.85686" lon="0.14087">
        <ele>2487</ele>
        <time>2020-07-28T09:23:18.045Z</time>
      </trkpt>
      <trkpt lat="42.85686" lon="0.14087">
        <ele>2487</ele>
        <time>2020-07-28T09:23:19.045Z</time>
      </trkpt>
      <trkpt lat="42.85681" lon="0.14088">
        <ele>2486</ele>
        <time>2020-07-28T09:23:20.045Z</time>
      </trkpt>
      <trkpt lat="42.85681" lon="0.14088">
        <ele>2486</ele>
        <time>2020-07-28T09:23:21.045Z</time>
      </trkpt>
      <trkpt lat="42.85681" lon="0.14088">
        <ele>2486</ele>
        <time>2020-07-28T09:23:22.045Z</time>
      </trkpt>
      <trkpt lat="42.85677" lon="0.14088">
        <ele>2484</ele>
        <time>2020-07-28T09:23:23.045Z</time>
      </trkpt>
      <trkpt lat="42.85677" lon="0.14088">
        <ele>2484</ele>
        <time>2020-07-28T09:23:24.045Z</time>
      </trkpt>
      <trkpt lat="42.85677" lon="0.14088">
        <ele>2484</ele>
        <time>2020-07-28T09:23:25.045Z</time>
      </trkpt>
      <trkpt lat="42.85672" lon="0.14091">
        <ele>2482</ele>
        <time>2020-07-28T09:23:26.045Z</time>
      </trkpt>
      <trkpt lat="42.85672" lon="0.14091">
        <ele>2482</ele>
        <time>2020-07-28T09:23:27.045Z</time>
      </trkpt>
      <trkpt lat="42.85672" lon="0.14091">
        <ele>2482</ele>
        <time>2020-07-28T09:23:28.045Z</time>
      </trkpt>
      <trkpt lat="42.85668" lon="0.1409">
        <ele>2482</ele>
        <time>2020-07-28T09:23:29.045Z</time>
      </trkpt>
      <trkpt lat="42.85668" lon="0.1409">
        <ele>2482</ele>
        <time>2020-07-28T09:23:30.045Z</time>
      </trkpt>
      <trkpt lat="42.85668" lon="0.1409">
        <ele>2482</ele>
        <time>2020-07-28T09:23:31.045Z</time>
      </trkpt>
      <trkpt lat="42.85664" lon="0.1409">
        <ele>2480</ele>
        <time>2020-07-28T09:23:32.045Z</time>
      </trkpt>
      <trkpt lat="42.85664" lon="0.1409">
        <ele>2480</ele>
        <time>2020-07-28T09:23:33.045Z</time>
      </trkpt>
      <trkpt lat="42.85664" lon="0.1409">
        <ele>2480</ele>
        <time>2020-07-28T09:23:34.045Z</time>
      </trkpt>
      <trkpt lat="42.8566" lon="0.14087">
        <ele>2477</ele>
        <time>2020-07-28T09:23:35.045Z</time>
      </trkpt>
      <trkpt lat="42.8566" lon="0.14087">
        <ele>2477</ele>
        <time>2020-07-28T09:23:36.045Z</time>
      </trkpt>
      <trkpt lat="42.85657" lon="0.14089">
        <ele>2475</ele>
        <time>2020-07-28T09:23:37.045Z</time>
      </trkpt>
      <trkpt lat="42.85655" lon="0.14091">
        <ele>2474</ele>
        <time>2020-07-28T09:23:38.045Z</time>
      </trkpt>
      <trkpt lat="42.85655" lon="0.14091">
        <ele>2474</ele>
        <time>2020-07-28T09:23:39.045Z</time>
      </trkpt>
      <trkpt lat="42.85655" lon="0.14091">
        <ele>2474</ele>
        <time>2020-07-28T09:23:40.045Z</time>
      </trkpt>
      <trkpt lat="42.85647" lon="0.14095">
        <ele>2473</ele>
        <time>2020-07-28T09:23:41.045Z</time>
      </trkpt>
      <trkpt lat="42.85647" lon="0.14095">
        <ele>2473</ele>
        <time>2020-07-28T09:23:42.045Z</time>
      </trkpt>
      <trkpt lat="42.85647" lon="0.14095">
        <ele>2473</ele>
        <time>2020-07-28T09:23:43.045Z</time>
      </trkpt>
      <trkpt lat="42.8564" lon="0.14098">
        <ele>2470</ele>
        <time>2020-07-28T09:23:44.045Z</time>
      </trkpt>
      <trkpt lat="42.8564" lon="0.14098">
        <ele>2470</ele>
        <time>2020-07-28T09:23:45.045Z</time>
      </trkpt>
      <trkpt lat="42.8564" lon="0.14098">
        <ele>2470</ele>
        <time>2020-07-28T09:23:46.045Z</time>
      </trkpt>
      <trkpt lat="42.85636" lon="0.14101">
        <ele>2468</ele>
        <time>2020-07-28T09:23:47.045Z</time>
      </trkpt>
      <trkpt lat="42.85636" lon="0.14101">
        <ele>2468</ele>
        <time>2020-07-28T09:23:48.045Z</time>
      </trkpt>
      <trkpt lat="42.85633" lon="0.14104">
        <ele>2468</ele>
        <time>2020-07-28T09:23:49.045Z</time>
      </trkpt>
      <trkpt lat="42.85632" lon="0.14106">
        <ele>2467</ele>
        <time>2020-07-28T09:23:50.045Z</time>
      </trkpt>
      <trkpt lat="42.85632" lon="0.14106">
        <ele>2467</ele>
        <time>2020-07-28T09:23:51.045Z</time>
      </trkpt>
      <trkpt lat="42.85632" lon="0.14106">
        <ele>2467</ele>
        <time>2020-07-28T09:23:52.045Z</time>
      </trkpt>
      <trkpt lat="42.85627" lon="0.14109">
        <ele>2468</ele>
        <time>2020-07-28T09:23:53.045Z</time>
      </trkpt>
      <trkpt lat="42.85627" lon="0.14109">
        <ele>2468</ele>
        <time>2020-07-28T09:23:54.045Z</time>
      </trkpt>
      <trkpt lat="42.85627" lon="0.14109">
        <ele>2468</ele>
        <time>2020-07-28T09:23:55.045Z</time>
      </trkpt>
      <trkpt lat="42.85621" lon="0.14113">
        <ele>2468</ele>
        <time>2020-07-28T09:23:56.045Z</time>
      </trkpt>
      <trkpt lat="42.85621" lon="0.14113">
        <ele>2468</ele>
        <time>2020-07-28T09:23:57.045Z</time>
      </trkpt>
      <trkpt lat="42.85621" lon="0.14113">
        <ele>2468</ele>
        <time>2020-07-28T09:23:58.045Z</time>
      </trkpt>
      <trkpt lat="42.8562" lon="0.14121">
        <ele>2468</ele>
        <time>2020-07-28T09:23:59.045Z</time>
      </trkpt>
      <trkpt lat="42.8562" lon="0.14121">
        <ele>2468</ele>
        <time>2020-07-28T09:24:00.045Z</time>
      </trkpt>
      <trkpt lat="42.8562" lon="0.14121">
        <ele>2468</ele>
        <time>2020-07-28T09:24:01.045Z</time>
      </trkpt>
      <trkpt lat="42.85617" lon="0.1413">
        <ele>2466</ele>
        <time>2020-07-28T09:24:02.045Z</time>
      </trkpt>
      <trkpt lat="42.85617" lon="0.1413">
        <ele>2466</ele>
        <time>2020-07-28T09:24:03.045Z</time>
      </trkpt>
      <trkpt lat="42.85617" lon="0.1413">
        <ele>2466</ele>
        <time>2020-07-28T09:24:04.045Z</time>
      </trkpt>
      <trkpt lat="42.85613" lon="0.14138">
        <ele>2464</ele>
        <time>2020-07-28T09:24:05.045Z</time>
      </trkpt>
      <trkpt lat="42.85613" lon="0.14138">
        <ele>2464</ele>
        <time>2020-07-28T09:24:06.045Z</time>
      </trkpt>
      <trkpt lat="42.85613" lon="0.14138">
        <ele>2464</ele>
        <time>2020-07-28T09:24:07.045Z</time>
      </trkpt>
      <trkpt lat="42.85608" lon="0.14147">
        <ele>2463</ele>
        <time>2020-07-28T09:24:08.045Z</time>
      </trkpt>
      <trkpt lat="42.85608" lon="0.14147">
        <ele>2463</ele>
        <time>2020-07-28T09:24:09.045Z</time>
      </trkpt>
      <trkpt lat="42.85608" lon="0.14147">
        <ele>2463</ele>
        <time>2020-07-28T09:24:10.045Z</time>
      </trkpt>
      <trkpt lat="42.85602" lon="0.14155">
        <ele>2463</ele>
        <time>2020-07-28T09:24:11.045Z</time>
      </trkpt>
      <trkpt lat="42.85602" lon="0.14155">
        <ele>2463</ele>
        <time>2020-07-28T09:24:12.045Z</time>
      </trkpt>
      <trkpt lat="42.85602" lon="0.14155">
        <ele>2463</ele>
        <time>2020-07-28T09:24:13.045Z</time>
      </trkpt>
      <trkpt lat="42.85596" lon="0.14162">
        <ele>2461</ele>
        <time>2020-07-28T09:24:14.045Z</time>
      </trkpt>
      <trkpt lat="42.85596" lon="0.14162">
        <ele>2461</ele>
        <time>2020-07-28T09:24:15.045Z</time>
      </trkpt>
      <trkpt lat="42.85596" lon="0.14162">
        <ele>2461</ele>
        <time>2020-07-28T09:24:16.045Z</time>
      </trkpt>
      <trkpt lat="42.8559" lon="0.14169">
        <ele>2460</ele>
        <time>2020-07-28T09:24:17.045Z</time>
      </trkpt>
      <trkpt lat="42.8559" lon="0.14169">
        <ele>2460</ele>
        <time>2020-07-28T09:24:18.045Z</time>
      </trkpt>
      <trkpt lat="42.8559" lon="0.14169">
        <ele>2460</ele>
        <time>2020-07-28T09:24:19.045Z</time>
      </trkpt>
      <trkpt lat="42.85584" lon="0.14172">
        <ele>2459</ele>
        <time>2020-07-28T09:24:20.045Z</time>
      </trkpt>
      <trkpt lat="42.85584" lon="0.14172">
        <ele>2459</ele>
        <time>2020-07-28T09:24:21.045Z</time>
      </trkpt>
      <trkpt lat="42.85584" lon="0.14172">
        <ele>2459</ele>
        <time>2020-07-28T09:24:22.045Z</time>
      </trkpt>
      <trkpt lat="42.85578" lon="0.1417">
        <ele>2456</ele>
        <time>2020-07-28T09:24:23.045Z</time>
      </trkpt>
      <trkpt lat="42.85578" lon="0.1417">
        <ele>2456</ele>
        <time>2020-07-28T09:24:24.045Z</time>
      </trkpt>
      <trkpt lat="42.85578" lon="0.1417">
        <ele>2456</ele>
        <time>2020-07-28T09:24:25.045Z</time>
      </trkpt>
      <trkpt lat="42.85572" lon="0.14169">
        <ele>2455</ele>
        <time>2020-07-28T09:24:26.045Z</time>
      </trkpt>
      <trkpt lat="42.85572" lon="0.14169">
        <ele>2455</ele>
        <time>2020-07-28T09:24:27.045Z</time>
      </trkpt>
      <trkpt lat="42.85572" lon="0.14169">
        <ele>2455</ele>
        <time>2020-07-28T09:24:28.045Z</time>
      </trkpt>
      <trkpt lat="42.85566" lon="0.14172">
        <ele>2454</ele>
        <time>2020-07-28T09:24:29.045Z</time>
      </trkpt>
      <trkpt lat="42.85566" lon="0.14172">
        <ele>2454</ele>
        <time>2020-07-28T09:24:30.045Z</time>
      </trkpt>
      <trkpt lat="42.85566" lon="0.14172">
        <ele>2454</ele>
        <time>2020-07-28T09:24:31.045Z</time>
      </trkpt>
      <trkpt lat="42.85561" lon="0.1418">
        <ele>2452</ele>
        <time>2020-07-28T09:24:32.045Z</time>
      </trkpt>
      <trkpt lat="42.85561" lon="0.1418">
        <ele>2452</ele>
        <time>2020-07-28T09:24:33.045Z</time>
      </trkpt>
      <trkpt lat="42.85561" lon="0.1418">
        <ele>2452</ele>
        <time>2020-07-28T09:24:34.045Z</time>
      </trkpt>
      <trkpt lat="42.85561" lon="0.14186">
        <ele>2450</ele>
        <time>2020-07-28T09:24:35.045Z</time>
      </trkpt>
      <trkpt lat="42.85561" lon="0.14186">
        <ele>2450</ele>
        <time>2020-07-28T09:24:36.045Z</time>
      </trkpt>
      <trkpt lat="42.85561" lon="0.14186">
        <ele>2450</ele>
        <time>2020-07-28T09:24:37.045Z</time>
      </trkpt>
      <trkpt lat="42.8556" lon="0.14189">
        <ele>2447</ele>
        <time>2020-07-28T09:24:38.045Z</time>
      </trkpt>
      <trkpt lat="42.8556" lon="0.14189">
        <ele>2447</ele>
        <time>2020-07-28T09:24:39.045Z</time>
      </trkpt>
      <trkpt lat="42.8556" lon="0.14189">
        <ele>2447</ele>
        <time>2020-07-28T09:24:40.045Z</time>
      </trkpt>
      <trkpt lat="42.85559" lon="0.14193">
        <ele>2447</ele>
        <time>2020-07-28T09:24:41.045Z</time>
      </trkpt>
      <trkpt lat="42.85559" lon="0.14193">
        <ele>2447</ele>
        <time>2020-07-28T09:24:42.045Z</time>
      </trkpt>
      <trkpt lat="42.85559" lon="0.14193">
        <ele>2447</ele>
        <time>2020-07-28T09:24:43.045Z</time>
      </trkpt>
      <trkpt lat="42.85558" lon="0.14198">
        <ele>2444</ele>
        <time>2020-07-28T09:24:44.045Z</time>
      </trkpt>
      <trkpt lat="42.85558" lon="0.14198">
        <ele>2444</ele>
        <time>2020-07-28T09:24:45.045Z</time>
      </trkpt>
      <trkpt lat="42.85558" lon="0.14198">
        <ele>2444</ele>
        <time>2020-07-28T09:24:46.045Z</time>
      </trkpt>
      <trkpt lat="42.85556" lon="0.142">
        <ele>2444</ele>
        <time>2020-07-28T09:24:47.045Z</time>
      </trkpt>
      <trkpt lat="42.85556" lon="0.142">
        <ele>2444</ele>
        <time>2020-07-28T09:24:48.045Z</time>
      </trkpt>
      <trkpt lat="42.85556" lon="0.142">
        <ele>2444</ele>
        <time>2020-07-28T09:24:49.045Z</time>
      </trkpt>
      <trkpt lat="42.85554" lon="0.14202">
        <ele>2444</ele>
        <time>2020-07-28T09:24:50.045Z</time>
      </trkpt>
      <trkpt lat="42.85554" lon="0.14202">
        <ele>2444</ele>
        <time>2020-07-28T09:24:51.045Z</time>
      </trkpt>
      <trkpt lat="42.85554" lon="0.14202">
        <ele>2444</ele>
        <time>2020-07-28T09:24:52.045Z</time>
      </trkpt>
      <trkpt lat="42.85549" lon="0.14203">
        <ele>2442</ele>
        <time>2020-07-28T09:24:53.045Z</time>
      </trkpt>
      <trkpt lat="42.85549" lon="0.14203">
        <ele>2442</ele>
        <time>2020-07-28T09:24:54.045Z</time>
      </trkpt>
      <trkpt lat="42.85549" lon="0.14203">
        <ele>2442</ele>
        <time>2020-07-28T09:24:55.045Z</time>
      </trkpt>
      <trkpt lat="42.85542" lon="0.14206">
        <ele>2442</ele>
        <time>2020-07-28T09:24:56.045Z</time>
      </trkpt>
      <trkpt lat="42.85542" lon="0.14206">
        <ele>2442</ele>
        <time>2020-07-28T09:24:57.045Z</time>
      </trkpt>
      <trkpt lat="42.85542" lon="0.14206">
        <ele>2442</ele>
        <time>2020-07-28T09:24:58.045Z</time>
      </trkpt>
      <trkpt lat="42.85536" lon="0.14212">
        <ele>2440</ele>
        <time>2020-07-28T09:24:59.045Z</time>
      </trkpt>
      <trkpt lat="42.85536" lon="0.14212">
        <ele>2440</ele>
        <time>2020-07-28T09:25:00.045Z</time>
      </trkpt>
      <trkpt lat="42.85536" lon="0.14212">
        <ele>2440</ele>
        <time>2020-07-28T09:25:01.045Z</time>
      </trkpt>
      <trkpt lat="42.85531" lon="0.14218">
        <ele>2438</ele>
        <time>2020-07-28T09:25:02.045Z</time>
      </trkpt>
      <trkpt lat="42.85531" lon="0.14218">
        <ele>2438</ele>
        <time>2020-07-28T09:25:03.045Z</time>
      </trkpt>
      <trkpt lat="42.85531" lon="0.14218">
        <ele>2438</ele>
        <time>2020-07-28T09:25:04.045Z</time>
      </trkpt>
      <trkpt lat="42.85527" lon="0.14226">
        <ele>2436</ele>
        <time>2020-07-28T09:25:05.045Z</time>
      </trkpt>
      <trkpt lat="42.85527" lon="0.14226">
        <ele>2436</ele>
        <time>2020-07-28T09:25:06.045Z</time>
      </trkpt>
      <trkpt lat="42.85527" lon="0.14226">
        <ele>2436</ele>
        <time>2020-07-28T09:25:07.045Z</time>
      </trkpt>
      <trkpt lat="42.85524" lon="0.14233">
        <ele>2434</ele>
        <time>2020-07-28T09:25:08.045Z</time>
      </trkpt>
      <trkpt lat="42.85524" lon="0.14233">
        <ele>2434</ele>
        <time>2020-07-28T09:25:09.045Z</time>
      </trkpt>
      <trkpt lat="42.85524" lon="0.14233">
        <ele>2434</ele>
        <time>2020-07-28T09:25:10.045Z</time>
      </trkpt>
      <trkpt lat="42.85519" lon="0.14237">
        <ele>2433</ele>
        <time>2020-07-28T09:25:11.045Z</time>
      </trkpt>
      <trkpt lat="42.85519" lon="0.14237">
        <ele>2433</ele>
        <time>2020-07-28T09:25:12.045Z</time>
      </trkpt>
      <trkpt lat="42.85519" lon="0.14237">
        <ele>2433</ele>
        <time>2020-07-28T09:25:13.045Z</time>
      </trkpt>
      <trkpt lat="42.85514" lon="0.14241">
        <ele>2431</ele>
        <time>2020-07-28T09:25:14.045Z</time>
      </trkpt>
      <trkpt lat="42.85514" lon="0.14241">
        <ele>2431</ele>
        <time>2020-07-28T09:25:15.045Z</time>
      </trkpt>
      <trkpt lat="42.85514" lon="0.14241">
        <ele>2431</ele>
        <time>2020-07-28T09:25:16.045Z</time>
      </trkpt>
      <trkpt lat="42.85511" lon="0.14242">
        <ele>2431</ele>
        <time>2020-07-28T09:25:17.045Z</time>
      </trkpt>
      <trkpt lat="42.85511" lon="0.14242">
        <ele>2431</ele>
        <time>2020-07-28T09:25:18.045Z</time>
      </trkpt>
      <trkpt lat="42.85511" lon="0.14242">
        <ele>2431</ele>
        <time>2020-07-28T09:25:19.045Z</time>
      </trkpt>
      <trkpt lat="42.85508" lon="0.14245">
        <ele>2430</ele>
        <time>2020-07-28T09:25:20.045Z</time>
      </trkpt>
      <trkpt lat="42.85508" lon="0.14245">
        <ele>2430</ele>
        <time>2020-07-28T09:25:21.045Z</time>
      </trkpt>
      <trkpt lat="42.85508" lon="0.14245">
        <ele>2430</ele>
        <time>2020-07-28T09:25:22.045Z</time>
      </trkpt>
      <trkpt lat="42.85505" lon="0.14248">
        <ele>2429</ele>
        <time>2020-07-28T09:25:23.045Z</time>
      </trkpt>
      <trkpt lat="42.85505" lon="0.14248">
        <ele>2429</ele>
        <time>2020-07-28T09:25:24.045Z</time>
      </trkpt>
      <trkpt lat="42.85505" lon="0.14248">
        <ele>2429</ele>
        <time>2020-07-28T09:25:25.045Z</time>
      </trkpt>
      <trkpt lat="42.85503" lon="0.14254">
        <ele>2430</ele>
        <time>2020-07-28T09:25:26.045Z</time>
      </trkpt>
      <trkpt lat="42.85503" lon="0.14254">
        <ele>2430</ele>
        <time>2020-07-28T09:25:27.045Z</time>
      </trkpt>
      <trkpt lat="42.85503" lon="0.14254">
        <ele>2430</ele>
        <time>2020-07-28T09:25:28.045Z</time>
      </trkpt>
      <trkpt lat="42.85499" lon="0.14258">
        <ele>2428</ele>
        <time>2020-07-28T09:25:29.045Z</time>
      </trkpt>
      <trkpt lat="42.85499" lon="0.14258">
        <ele>2428</ele>
        <time>2020-07-28T09:25:30.045Z</time>
      </trkpt>
      <trkpt lat="42.85499" lon="0.14258">
        <ele>2428</ele>
        <time>2020-07-28T09:25:31.045Z</time>
      </trkpt>
      <trkpt lat="42.85497" lon="0.14262">
        <ele>2428</ele>
        <time>2020-07-28T09:25:32.045Z</time>
      </trkpt>
      <trkpt lat="42.85497" lon="0.14262">
        <ele>2428</ele>
        <time>2020-07-28T09:25:33.045Z</time>
      </trkpt>
      <trkpt lat="42.85497" lon="0.14262">
        <ele>2428</ele>
        <time>2020-07-28T09:25:34.045Z</time>
      </trkpt>
      <trkpt lat="42.85494" lon="0.14268">
        <ele>2428</ele>
        <time>2020-07-28T09:25:35.045Z</time>
      </trkpt>
      <trkpt lat="42.85494" lon="0.14268">
        <ele>2428</ele>
        <time>2020-07-28T09:25:36.045Z</time>
      </trkpt>
      <trkpt lat="42.85494" lon="0.14268">
        <ele>2428</ele>
        <time>2020-07-28T09:25:37.045Z</time>
      </trkpt>
      <trkpt lat="42.85493" lon="0.14272">
        <ele>2427</ele>
        <time>2020-07-28T09:25:38.045Z</time>
      </trkpt>
      <trkpt lat="42.85493" lon="0.14272">
        <ele>2427</ele>
        <time>2020-07-28T09:25:39.045Z</time>
      </trkpt>
      <trkpt lat="42.85493" lon="0.14272">
        <ele>2427</ele>
        <time>2020-07-28T09:25:40.045Z</time>
      </trkpt>
      <trkpt lat="42.85489" lon="0.14274">
        <ele>2426</ele>
        <time>2020-07-28T09:25:41.045Z</time>
      </trkpt>
      <trkpt lat="42.85489" lon="0.14274">
        <ele>2426</ele>
        <time>2020-07-28T09:25:42.045Z</time>
      </trkpt>
      <trkpt lat="42.85489" lon="0.14274">
        <ele>2426</ele>
        <time>2020-07-28T09:25:43.045Z</time>
      </trkpt>
      <trkpt lat="42.85486" lon="0.14278">
        <ele>2425</ele>
        <time>2020-07-28T09:25:44.045Z</time>
      </trkpt>
      <trkpt lat="42.85486" lon="0.14278">
        <ele>2425</ele>
        <time>2020-07-28T09:25:45.045Z</time>
      </trkpt>
      <trkpt lat="42.85486" lon="0.14278">
        <ele>2425</ele>
        <time>2020-07-28T09:25:46.045Z</time>
      </trkpt>
      <trkpt lat="42.85483" lon="0.14281">
        <ele>2425</ele>
        <time>2020-07-28T09:25:47.045Z</time>
      </trkpt>
      <trkpt lat="42.85483" lon="0.14281">
        <ele>2425</ele>
        <time>2020-07-28T09:25:48.045Z</time>
      </trkpt>
      <trkpt lat="42.85483" lon="0.14281">
        <ele>2425</ele>
        <time>2020-07-28T09:25:49.045Z</time>
      </trkpt>
      <trkpt lat="42.8548" lon="0.14283">
        <ele>2424</ele>
        <time>2020-07-28T09:25:50.045Z</time>
      </trkpt>
      <trkpt lat="42.8548" lon="0.14283">
        <ele>2424</ele>
        <time>2020-07-28T09:25:51.045Z</time>
      </trkpt>
      <trkpt lat="42.8548" lon="0.14283">
        <ele>2424</ele>
        <time>2020-07-28T09:25:52.045Z</time>
      </trkpt>
      <trkpt lat="42.85477" lon="0.14285">
        <ele>2422</ele>
        <time>2020-07-28T09:25:53.045Z</time>
      </trkpt>
      <trkpt lat="42.85477" lon="0.14285">
        <ele>2422</ele>
        <time>2020-07-28T09:25:54.045Z</time>
      </trkpt>
      <trkpt lat="42.85477" lon="0.14285">
        <ele>2422</ele>
        <time>2020-07-28T09:25:55.045Z</time>
      </trkpt>
      <trkpt lat="42.85474" lon="0.14289">
        <ele>2421</ele>
        <time>2020-07-28T09:25:56.045Z</time>
      </trkpt>
      <trkpt lat="42.85474" lon="0.14289">
        <ele>2421</ele>
        <time>2020-07-28T09:25:57.045Z</time>
      </trkpt>
      <trkpt lat="42.85474" lon="0.14289">
        <ele>2421</ele>
        <time>2020-07-28T09:25:58.045Z</time>
      </trkpt>
      <trkpt lat="42.8547" lon="0.14293">
        <ele>2420</ele>
        <time>2020-07-28T09:25:59.045Z</time>
      </trkpt>
      <trkpt lat="42.8547" lon="0.14293">
        <ele>2420</ele>
        <time>2020-07-28T09:26:00.045Z</time>
      </trkpt>
      <trkpt lat="42.8547" lon="0.14293">
        <ele>2420</ele>
        <time>2020-07-28T09:26:01.045Z</time>
      </trkpt>
      <trkpt lat="42.85465" lon="0.14295">
        <ele>2417</ele>
        <time>2020-07-28T09:26:02.045Z</time>
      </trkpt>
      <trkpt lat="42.85465" lon="0.14295">
        <ele>2417</ele>
        <time>2020-07-28T09:26:03.045Z</time>
      </trkpt>
      <trkpt lat="42.85465" lon="0.14295">
        <ele>2417</ele>
        <time>2020-07-28T09:26:04.045Z</time>
      </trkpt>
      <trkpt lat="42.8546" lon="0.14297">
        <ele>2414</ele>
        <time>2020-07-28T09:26:05.045Z</time>
      </trkpt>
      <trkpt lat="42.8546" lon="0.14297">
        <ele>2414</ele>
        <time>2020-07-28T09:26:06.045Z</time>
      </trkpt>
      <trkpt lat="42.8546" lon="0.14297">
        <ele>2414</ele>
        <time>2020-07-28T09:26:07.045Z</time>
      </trkpt>
      <trkpt lat="42.85459" lon="0.14299">
        <ele>2413</ele>
        <time>2020-07-28T09:26:08.045Z</time>
      </trkpt>
      <trkpt lat="42.85459" lon="0.14299">
        <ele>2413</ele>
        <time>2020-07-28T09:26:09.045Z</time>
      </trkpt>
      <trkpt lat="42.85459" lon="0.14299">
        <ele>2413</ele>
        <time>2020-07-28T09:26:10.045Z</time>
      </trkpt>
      <trkpt lat="42.85456" lon="0.14304">
        <ele>2412</ele>
        <time>2020-07-28T09:26:11.045Z</time>
      </trkpt>
      <trkpt lat="42.85456" lon="0.14304">
        <ele>2412</ele>
        <time>2020-07-28T09:26:12.045Z</time>
      </trkpt>
      <trkpt lat="42.85456" lon="0.14304">
        <ele>2412</ele>
        <time>2020-07-28T09:26:13.045Z</time>
      </trkpt>
      <trkpt lat="42.8545" lon="0.1431">
        <ele>2411</ele>
        <time>2020-07-28T09:26:14.045Z</time>
      </trkpt>
      <trkpt lat="42.8545" lon="0.1431">
        <ele>2411</ele>
        <time>2020-07-28T09:26:15.045Z</time>
      </trkpt>
      <trkpt lat="42.8545" lon="0.1431">
        <ele>2411</ele>
        <time>2020-07-28T09:26:16.045Z</time>
      </trkpt>
      <trkpt lat="42.85445" lon="0.14314">
        <ele>2413</ele>
        <time>2020-07-28T09:26:17.045Z</time>
      </trkpt>
      <trkpt lat="42.85445" lon="0.14314">
        <ele>2413</ele>
        <time>2020-07-28T09:26:18.045Z</time>
      </trkpt>
      <trkpt lat="42.85445" lon="0.14314">
        <ele>2413</ele>
        <time>2020-07-28T09:26:19.045Z</time>
      </trkpt>
      <trkpt lat="42.85443" lon="0.14318">
        <ele>2413</ele>
        <time>2020-07-28T09:26:20.045Z</time>
      </trkpt>
      <trkpt lat="42.85443" lon="0.14318">
        <ele>2413</ele>
        <time>2020-07-28T09:26:21.045Z</time>
      </trkpt>
      <trkpt lat="42.85443" lon="0.14318">
        <ele>2413</ele>
        <time>2020-07-28T09:26:22.045Z</time>
      </trkpt>
      <trkpt lat="42.85439" lon="0.1432">
        <ele>2413</ele>
        <time>2020-07-28T09:26:23.045Z</time>
      </trkpt>
      <trkpt lat="42.85439" lon="0.1432">
        <ele>2413</ele>
        <time>2020-07-28T09:26:24.045Z</time>
      </trkpt>
      <trkpt lat="42.85439" lon="0.1432">
        <ele>2413</ele>
        <time>2020-07-28T09:26:25.045Z</time>
      </trkpt>
      <trkpt lat="42.85435" lon="0.14323">
        <ele>2413</ele>
        <time>2020-07-28T09:26:26.045Z</time>
      </trkpt>
      <trkpt lat="42.85435" lon="0.14323">
        <ele>2413</ele>
        <time>2020-07-28T09:26:27.045Z</time>
      </trkpt>
      <trkpt lat="42.85435" lon="0.14323">
        <ele>2413</ele>
        <time>2020-07-28T09:26:28.045Z</time>
      </trkpt>
      <trkpt lat="42.85429" lon="0.14323">
        <ele>2410</ele>
        <time>2020-07-28T09:26:29.045Z</time>
      </trkpt>
      <trkpt lat="42.85429" lon="0.14323">
        <ele>2410</ele>
        <time>2020-07-28T09:26:30.045Z</time>
      </trkpt>
      <trkpt lat="42.85429" lon="0.14323">
        <ele>2410</ele>
        <time>2020-07-28T09:26:31.045Z</time>
      </trkpt>
      <trkpt lat="42.85422" lon="0.14323">
        <ele>2409</ele>
        <time>2020-07-28T09:26:32.045Z</time>
      </trkpt>
      <trkpt lat="42.85422" lon="0.14323">
        <ele>2409</ele>
        <time>2020-07-28T09:26:33.045Z</time>
      </trkpt>
      <trkpt lat="42.85422" lon="0.14323">
        <ele>2409</ele>
        <time>2020-07-28T09:26:34.045Z</time>
      </trkpt>
      <trkpt lat="42.85418" lon="0.14325">
        <ele>2409</ele>
        <time>2020-07-28T09:26:35.045Z</time>
      </trkpt>
      <trkpt lat="42.85418" lon="0.14325">
        <ele>2409</ele>
        <time>2020-07-28T09:26:36.045Z</time>
      </trkpt>
      <trkpt lat="42.85418" lon="0.14325">
        <ele>2409</ele>
        <time>2020-07-28T09:26:37.045Z</time>
      </trkpt>
      <trkpt lat="42.85415" lon="0.14328">
        <ele>2409</ele>
        <time>2020-07-28T09:26:38.045Z</time>
      </trkpt>
      <trkpt lat="42.85415" lon="0.14328">
        <ele>2409</ele>
        <time>2020-07-28T09:26:39.045Z</time>
      </trkpt>
      <trkpt lat="42.85415" lon="0.14328">
        <ele>2409</ele>
        <time>2020-07-28T09:26:40.045Z</time>
      </trkpt>
      <trkpt lat="42.85412" lon="0.1433">
        <ele>2408</ele>
        <time>2020-07-28T09:26:41.045Z</time>
      </trkpt>
      <trkpt lat="42.85412" lon="0.1433">
        <ele>2408</ele>
        <time>2020-07-28T09:26:42.045Z</time>
      </trkpt>
      <trkpt lat="42.85412" lon="0.1433">
        <ele>2408</ele>
        <time>2020-07-28T09:26:43.045Z</time>
      </trkpt>
      <trkpt lat="42.85411" lon="0.14332">
        <ele>2405</ele>
        <time>2020-07-28T09:26:44.045Z</time>
      </trkpt>
      <trkpt lat="42.85411" lon="0.14332">
        <ele>2405</ele>
        <time>2020-07-28T09:26:45.045Z</time>
      </trkpt>
      <trkpt lat="42.85411" lon="0.14332">
        <ele>2405</ele>
        <time>2020-07-28T09:26:46.045Z</time>
      </trkpt>
      <trkpt lat="42.85408" lon="0.14336">
        <ele>2404</ele>
        <time>2020-07-28T09:26:47.045Z</time>
      </trkpt>
      <trkpt lat="42.85408" lon="0.14336">
        <ele>2404</ele>
        <time>2020-07-28T09:26:48.045Z</time>
      </trkpt>
      <trkpt lat="42.85408" lon="0.14336">
        <ele>2404</ele>
        <time>2020-07-28T09:26:49.045Z</time>
      </trkpt>
      <trkpt lat="42.85405" lon="0.14339">
        <ele>2404</ele>
        <time>2020-07-28T09:26:50.045Z</time>
      </trkpt>
      <trkpt lat="42.85405" lon="0.14339">
        <ele>2404</ele>
        <time>2020-07-28T09:26:51.045Z</time>
      </trkpt>
      <trkpt lat="42.85405" lon="0.14339">
        <ele>2404</ele>
        <time>2020-07-28T09:26:52.045Z</time>
      </trkpt>
      <trkpt lat="42.85402" lon="0.14341">
        <ele>2404</ele>
        <time>2020-07-28T09:26:53.045Z</time>
      </trkpt>
      <trkpt lat="42.85402" lon="0.14341">
        <ele>2404</ele>
        <time>2020-07-28T09:26:54.045Z</time>
      </trkpt>
      <trkpt lat="42.85402" lon="0.14341">
        <ele>2404</ele>
        <time>2020-07-28T09:26:55.045Z</time>
      </trkpt>
      <trkpt lat="42.85399" lon="0.14343">
        <ele>2404</ele>
        <time>2020-07-28T09:26:56.045Z</time>
      </trkpt>
      <trkpt lat="42.85399" lon="0.14343">
        <ele>2404</ele>
        <time>2020-07-28T09:26:57.045Z</time>
      </trkpt>
      <trkpt lat="42.85399" lon="0.14343">
        <ele>2404</ele>
        <time>2020-07-28T09:26:58.045Z</time>
      </trkpt>
      <trkpt lat="42.85396" lon="0.14343">
        <ele>2403</ele>
        <time>2020-07-28T09:26:59.045Z</time>
      </trkpt>
      <trkpt lat="42.85396" lon="0.14343">
        <ele>2403</ele>
        <time>2020-07-28T09:27:00.045Z</time>
      </trkpt>
      <trkpt lat="42.85396" lon="0.14343">
        <ele>2403</ele>
        <time>2020-07-28T09:27:01.045Z</time>
      </trkpt>
      <trkpt lat="42.85394" lon="0.14344">
        <ele>2402</ele>
        <time>2020-07-28T09:27:02.045Z</time>
      </trkpt>
      <trkpt lat="42.85394" lon="0.14344">
        <ele>2402</ele>
        <time>2020-07-28T09:27:03.045Z</time>
      </trkpt>
      <trkpt lat="42.85394" lon="0.14344">
        <ele>2402</ele>
        <time>2020-07-28T09:27:04.045Z</time>
      </trkpt>
      <trkpt lat="42.85391" lon="0.14346">
        <ele>2400</ele>
        <time>2020-07-28T09:27:05.045Z</time>
      </trkpt>
      <trkpt lat="42.8539" lon="0.14346">
        <ele>2400</ele>
        <time>2020-07-28T09:27:06.045Z</time>
      </trkpt>
      <trkpt lat="42.8539" lon="0.14346">
        <ele>2400</ele>
        <time>2020-07-28T09:27:07.045Z</time>
      </trkpt>
      <trkpt lat="42.85388" lon="0.14347">
        <ele>2400</ele>
        <time>2020-07-28T09:27:08.045Z</time>
      </trkpt>
      <trkpt lat="42.85388" lon="0.14347">
        <ele>2400</ele>
        <time>2020-07-28T09:27:09.045Z</time>
      </trkpt>
      <trkpt lat="42.85388" lon="0.14347">
        <ele>2400</ele>
        <time>2020-07-28T09:27:10.045Z</time>
      </trkpt>
      <trkpt lat="42.85386" lon="0.14348">
        <ele>2399</ele>
        <time>2020-07-28T09:27:11.045Z</time>
      </trkpt>
      <trkpt lat="42.85385" lon="0.14348">
        <ele>2399</ele>
        <time>2020-07-28T09:27:12.045Z</time>
      </trkpt>
      <trkpt lat="42.85385" lon="0.14348">
        <ele>2399</ele>
        <time>2020-07-28T09:27:13.045Z</time>
      </trkpt>
      <trkpt lat="42.85383" lon="0.1435">
        <ele>2399</ele>
        <time>2020-07-28T09:27:14.045Z</time>
      </trkpt>
      <trkpt lat="42.85383" lon="0.1435">
        <ele>2399</ele>
        <time>2020-07-28T09:27:15.045Z</time>
      </trkpt>
      <trkpt lat="42.85383" lon="0.1435">
        <ele>2399</ele>
        <time>2020-07-28T09:27:16.045Z</time>
      </trkpt>
      <trkpt lat="42.85382" lon="0.14351">
        <ele>2398</ele>
        <time>2020-07-28T09:27:17.045Z</time>
      </trkpt>
      <trkpt lat="42.85382" lon="0.14351">
        <ele>2398</ele>
        <time>2020-07-28T09:27:18.045Z</time>
      </trkpt>
      <trkpt lat="42.85382" lon="0.14351">
        <ele>2398</ele>
        <time>2020-07-28T09:27:19.045Z</time>
      </trkpt>
      <trkpt lat="42.85378" lon="0.14354">
        <ele>2399</ele>
        <time>2020-07-28T09:27:20.123Z</time>
      </trkpt>
      <trkpt lat="42.85378" lon="0.14354">
        <ele>2399</ele>
        <time>2020-07-28T09:27:21.123Z</time>
      </trkpt>
      <trkpt lat="42.85378" lon="0.14354">
        <ele>2399</ele>
        <time>2020-07-28T09:27:22.123Z</time>
      </trkpt>
      <trkpt lat="42.85378" lon="0.14358">
        <ele>2398</ele>
        <time>2020-07-28T09:27:23.123Z</time>
      </trkpt>
      <trkpt lat="42.85378" lon="0.14358">
        <ele>2398</ele>
        <time>2020-07-28T09:27:24.123Z</time>
      </trkpt>
      <trkpt lat="42.85378" lon="0.14358">
        <ele>2398</ele>
        <time>2020-07-28T09:27:25.123Z</time>
      </trkpt>
      <trkpt lat="42.85377" lon="0.14362">
        <ele>2399</ele>
        <time>2020-07-28T09:27:26.123Z</time>
      </trkpt>
      <trkpt lat="42.85377" lon="0.14362">
        <ele>2399</ele>
        <time>2020-07-28T09:27:27.123Z</time>
      </trkpt>
      <trkpt lat="42.85377" lon="0.14362">
        <ele>2399</ele>
        <time>2020-07-28T09:27:28.123Z</time>
      </trkpt>
      <trkpt lat="42.85377" lon="0.14368">
        <ele>2399</ele>
        <time>2020-07-28T09:27:29.123Z</time>
      </trkpt>
      <trkpt lat="42.85377" lon="0.14368">
        <ele>2399</ele>
        <time>2020-07-28T09:27:30.123Z</time>
      </trkpt>
      <trkpt lat="42.85377" lon="0.14368">
        <ele>2399</ele>
        <time>2020-07-28T09:27:31.123Z</time>
      </trkpt>
      <trkpt lat="42.85377" lon="0.14373">
        <ele>2397</ele>
        <time>2020-07-28T09:27:32.123Z</time>
      </trkpt>
      <trkpt lat="42.85377" lon="0.14373">
        <ele>2397</ele>
        <time>2020-07-28T09:27:33.123Z</time>
      </trkpt>
      <trkpt lat="42.85377" lon="0.14373">
        <ele>2397</ele>
        <time>2020-07-28T09:27:34.123Z</time>
      </trkpt>
      <trkpt lat="42.85377" lon="0.14377">
        <ele>2397</ele>
        <time>2020-07-28T09:27:35.123Z</time>
      </trkpt>
      <trkpt lat="42.85377" lon="0.14377">
        <ele>2397</ele>
        <time>2020-07-28T09:27:36.123Z</time>
      </trkpt>
      <trkpt lat="42.85377" lon="0.14377">
        <ele>2397</ele>
        <time>2020-07-28T09:27:37.123Z</time>
      </trkpt>
      <trkpt lat="42.85378" lon="0.1438">
        <ele>2396</ele>
        <time>2020-07-28T09:27:38.123Z</time>
      </trkpt>
      <trkpt lat="42.85378" lon="0.1438">
        <ele>2396</ele>
        <time>2020-07-28T09:27:39.123Z</time>
      </trkpt>
      <trkpt lat="42.85378" lon="0.1438">
        <ele>2396</ele>
        <time>2020-07-28T09:27:40.123Z</time>
      </trkpt>
      <trkpt lat="42.85379" lon="0.14384">
        <ele>2396</ele>
        <time>2020-07-28T09:27:41.123Z</time>
      </trkpt>
      <trkpt lat="42.85379" lon="0.14384">
        <ele>2396</ele>
        <time>2020-07-28T09:27:42.123Z</time>
      </trkpt>
      <trkpt lat="42.85379" lon="0.14384">
        <ele>2396</ele>
        <time>2020-07-28T09:27:43.123Z</time>
      </trkpt>
      <trkpt lat="42.85378" lon="0.14389">
        <ele>2396</ele>
        <time>2020-07-28T09:27:44.123Z</time>
      </trkpt>
      <trkpt lat="42.85378" lon="0.14389">
        <ele>2396</ele>
        <time>2020-07-28T09:27:45.123Z</time>
      </trkpt>
      <trkpt lat="42.85378" lon="0.14389">
        <ele>2396</ele>
        <time>2020-07-28T09:27:46.123Z</time>
      </trkpt>
      <trkpt lat="42.85378" lon="0.14392">
        <ele>2396</ele>
        <time>2020-07-28T09:27:47.123Z</time>
      </trkpt>
      <trkpt lat="42.85378" lon="0.14392">
        <ele>2396</ele>
        <time>2020-07-28T09:27:48.123Z</time>
      </trkpt>
      <trkpt lat="42.85378" lon="0.14396">
        <ele>2397</ele>
        <time>2020-07-28T09:27:49.123Z</time>
      </trkpt>
      <trkpt lat="42.85378" lon="0.14398">
        <ele>2397</ele>
        <time>2020-07-28T09:27:50.123Z</time>
      </trkpt>
      <trkpt lat="42.85378" lon="0.14398">
        <ele>2397</ele>
        <time>2020-07-28T09:27:51.123Z</time>
      </trkpt>
      <trkpt lat="42.85378" lon="0.14398">
        <ele>2397</ele>
        <time>2020-07-28T09:27:52.123Z</time>
      </trkpt>
      <trkpt lat="42.85378" lon="0.14401">
        <ele>2397</ele>
        <time>2020-07-28T09:27:53.123Z</time>
      </trkpt>
      <trkpt lat="42.85378" lon="0.14401">
        <ele>2397</ele>
        <time>2020-07-28T09:27:54.123Z</time>
      </trkpt>
      <trkpt lat="42.85378" lon="0.14401">
        <ele>2397</ele>
        <time>2020-07-28T09:27:55.123Z</time>
      </trkpt>
      <trkpt lat="42.85377" lon="0.14404">
        <ele>2398</ele>
        <time>2020-07-28T09:27:56.123Z</time>
      </trkpt>
      <trkpt lat="42.85377" lon="0.14404">
        <ele>2398</ele>
        <time>2020-07-28T09:27:57.123Z</time>
      </trkpt>
      <trkpt lat="42.85377" lon="0.14404">
        <ele>2398</ele>
        <time>2020-07-28T09:27:58.123Z</time>
      </trkpt>
      <trkpt lat="42.85376" lon="0.14408">
        <ele>2400</ele>
        <time>2020-07-28T09:27:59.123Z</time>
      </trkpt>
      <trkpt lat="42.85376" lon="0.14408">
        <ele>2400</ele>
        <time>2020-07-28T09:28:00.123Z</time>
      </trkpt>
      <trkpt lat="42.85376" lon="0.14408">
        <ele>2400</ele>
        <time>2020-07-28T09:28:01.123Z</time>
      </trkpt>
      <trkpt lat="42.85375" lon="0.14411">
        <ele>2402</ele>
        <time>2020-07-28T09:28:02.123Z</time>
      </trkpt>
      <trkpt lat="42.85375" lon="0.14411">
        <ele>2402</ele>
        <time>2020-07-28T09:28:03.123Z</time>
      </trkpt>
      <trkpt lat="42.85375" lon="0.14411">
        <ele>2402</ele>
        <time>2020-07-28T09:28:04.123Z</time>
      </trkpt>
      <trkpt lat="42.85374" lon="0.14415">
        <ele>2404</ele>
        <time>2020-07-28T09:28:05.123Z</time>
      </trkpt>
      <trkpt lat="42.85374" lon="0.14415">
        <ele>2404</ele>
        <time>2020-07-28T09:28:06.123Z</time>
      </trkpt>
      <trkpt lat="42.85374" lon="0.14415">
        <ele>2404</ele>
        <time>2020-07-28T09:28:07.123Z</time>
      </trkpt>
      <trkpt lat="42.85374" lon="0.14419">
        <ele>2402</ele>
        <time>2020-07-28T09:28:08.123Z</time>
      </trkpt>
      <trkpt lat="42.85374" lon="0.14419">
        <ele>2402</ele>
        <time>2020-07-28T09:28:09.123Z</time>
      </trkpt>
      <trkpt lat="42.85374" lon="0.14419">
        <ele>2402</ele>
        <time>2020-07-28T09:28:10.123Z</time>
      </trkpt>
      <trkpt lat="42.85374" lon="0.14421">
        <ele>2403</ele>
        <time>2020-07-28T09:28:11.123Z</time>
      </trkpt>
      <trkpt lat="42.85374" lon="0.14421">
        <ele>2403</ele>
        <time>2020-07-28T09:28:12.123Z</time>
      </trkpt>
      <trkpt lat="42.85374" lon="0.14421">
        <ele>2403</ele>
        <time>2020-07-28T09:28:13.123Z</time>
      </trkpt>
      <trkpt lat="42.85373" lon="0.14424">
        <ele>2403</ele>
        <time>2020-07-28T09:28:14.123Z</time>
      </trkpt>
      <trkpt lat="42.85373" lon="0.14424">
        <ele>2403</ele>
        <time>2020-07-28T09:28:15.123Z</time>
      </trkpt>
      <trkpt lat="42.85373" lon="0.14424">
        <ele>2403</ele>
        <time>2020-07-28T09:28:16.123Z</time>
      </trkpt>
      <trkpt lat="42.85372" lon="0.14428">
        <ele>2402</ele>
        <time>2020-07-28T09:28:17.123Z</time>
      </trkpt>
      <trkpt lat="42.85372" lon="0.14428">
        <ele>2402</ele>
        <time>2020-07-28T09:28:18.123Z</time>
      </trkpt>
      <trkpt lat="42.85372" lon="0.14428">
        <ele>2402</ele>
        <time>2020-07-28T09:28:19.123Z</time>
      </trkpt>
      <trkpt lat="42.85372" lon="0.1443">
        <ele>2403</ele>
        <time>2020-07-28T09:28:20.123Z</time>
      </trkpt>
      <trkpt lat="42.85372" lon="0.1443">
        <ele>2403</ele>
        <time>2020-07-28T09:28:21.123Z</time>
      </trkpt>
      <trkpt lat="42.85372" lon="0.1443">
        <ele>2403</ele>
        <time>2020-07-28T09:28:22.123Z</time>
      </trkpt>
      <trkpt lat="42.85371" lon="0.14429">
        <ele>2403</ele>
        <time>2020-07-28T09:28:23.123Z</time>
      </trkpt>
      <trkpt lat="42.85371" lon="0.14429">
        <ele>2403</ele>
        <time>2020-07-28T09:28:24.123Z</time>
      </trkpt>
      <trkpt lat="42.85371" lon="0.14429">
        <ele>2403</ele>
        <time>2020-07-28T09:28:25.123Z</time>
      </trkpt>
      <trkpt lat="42.85369" lon="0.14428">
        <ele>2403</ele>
        <time>2020-07-28T09:28:26.123Z</time>
      </trkpt>
      <trkpt lat="42.85369" lon="0.14428">
        <ele>2403</ele>
        <time>2020-07-28T09:28:27.123Z</time>
      </trkpt>
      <trkpt lat="42.85369" lon="0.14428">
        <ele>2403</ele>
        <time>2020-07-28T09:28:28.123Z</time>
      </trkpt>
      <trkpt lat="42.85368" lon="0.14429">
        <ele>2405</ele>
        <time>2020-07-28T09:28:29.123Z</time>
      </trkpt>
      <trkpt lat="42.85368" lon="0.14429">
        <ele>2405</ele>
        <time>2020-07-28T09:28:30.123Z</time>
      </trkpt>
      <trkpt lat="42.85368" lon="0.14429">
        <ele>2405</ele>
        <time>2020-07-28T09:28:31.123Z</time>
      </trkpt>
      <trkpt lat="42.85366" lon="0.14432">
        <ele>2405</ele>
        <time>2020-07-28T09:28:32.123Z</time>
      </trkpt>
      <trkpt lat="42.85366" lon="0.14432">
        <ele>2405</ele>
        <time>2020-07-28T09:28:33.123Z</time>
      </trkpt>
      <trkpt lat="42.85366" lon="0.14432">
        <ele>2405</ele>
        <time>2020-07-28T09:28:34.123Z</time>
      </trkpt>
      <trkpt lat="42.85366" lon="0.14435">
        <ele>2404</ele>
        <time>2020-07-28T09:28:35.123Z</time>
      </trkpt>
      <trkpt lat="42.85366" lon="0.14435">
        <ele>2404</ele>
        <time>2020-07-28T09:28:36.123Z</time>
      </trkpt>
      <trkpt lat="42.85366" lon="0.14435">
        <ele>2404</ele>
        <time>2020-07-28T09:28:37.123Z</time>
      </trkpt>
      <trkpt lat="42.85365" lon="0.14438">
        <ele>2402</ele>
        <time>2020-07-28T09:28:38.123Z</time>
      </trkpt>
      <trkpt lat="42.85365" lon="0.14438">
        <ele>2402</ele>
        <time>2020-07-28T09:28:39.123Z</time>
      </trkpt>
      <trkpt lat="42.85365" lon="0.14438">
        <ele>2402</ele>
        <time>2020-07-28T09:28:40.123Z</time>
      </trkpt>
      <trkpt lat="42.85365" lon="0.14442">
        <ele>2404</ele>
        <time>2020-07-28T09:28:41.123Z</time>
      </trkpt>
      <trkpt lat="42.85365" lon="0.14442">
        <ele>2404</ele>
        <time>2020-07-28T09:28:42.123Z</time>
      </trkpt>
      <trkpt lat="42.85365" lon="0.14442">
        <ele>2404</ele>
        <time>2020-07-28T09:28:43.123Z</time>
      </trkpt>
      <trkpt lat="42.85365" lon="0.14446">
        <ele>2402</ele>
        <time>2020-07-28T09:28:44.123Z</time>
      </trkpt>
      <trkpt lat="42.85365" lon="0.14446">
        <ele>2402</ele>
        <time>2020-07-28T09:28:45.123Z</time>
      </trkpt>
      <trkpt lat="42.85365" lon="0.14446">
        <ele>2402</ele>
        <time>2020-07-28T09:28:46.123Z</time>
      </trkpt>
      <trkpt lat="42.85364" lon="0.14451">
        <ele>2403</ele>
        <time>2020-07-28T09:28:47.123Z</time>
      </trkpt>
      <trkpt lat="42.85364" lon="0.14451">
        <ele>2403</ele>
        <time>2020-07-28T09:28:48.123Z</time>
      </trkpt>
      <trkpt lat="42.85364" lon="0.14451">
        <ele>2403</ele>
        <time>2020-07-28T09:28:49.123Z</time>
      </trkpt>
      <trkpt lat="42.85364" lon="0.14454">
        <ele>2402</ele>
        <time>2020-07-28T09:28:50.123Z</time>
      </trkpt>
      <trkpt lat="42.85364" lon="0.14454">
        <ele>2402</ele>
        <time>2020-07-28T09:28:51.123Z</time>
      </trkpt>
      <trkpt lat="42.85364" lon="0.14454">
        <ele>2402</ele>
        <time>2020-07-28T09:28:52.123Z</time>
      </trkpt>
      <trkpt lat="42.85363" lon="0.14457">
        <ele>2401</ele>
        <time>2020-07-28T09:28:53.123Z</time>
      </trkpt>
      <trkpt lat="42.85363" lon="0.14457">
        <ele>2401</ele>
        <time>2020-07-28T09:28:54.123Z</time>
      </trkpt>
      <trkpt lat="42.85363" lon="0.14457">
        <ele>2401</ele>
        <time>2020-07-28T09:28:55.123Z</time>
      </trkpt>
      <trkpt lat="42.85362" lon="0.1446">
        <ele>2402</ele>
        <time>2020-07-28T09:28:56.123Z</time>
      </trkpt>
      <trkpt lat="42.85362" lon="0.1446">
        <ele>2402</ele>
        <time>2020-07-28T09:28:57.123Z</time>
      </trkpt>
      <trkpt lat="42.85362" lon="0.1446">
        <ele>2402</ele>
        <time>2020-07-28T09:28:58.123Z</time>
      </trkpt>
      <trkpt lat="42.85361" lon="0.14462">
        <ele>2402</ele>
        <time>2020-07-28T09:28:59.123Z</time>
      </trkpt>
      <trkpt lat="42.85361" lon="0.14462">
        <ele>2402</ele>
        <time>2020-07-28T09:29:00.123Z</time>
      </trkpt>
      <trkpt lat="42.85361" lon="0.14462">
        <ele>2402</ele>
        <time>2020-07-28T09:29:01.123Z</time>
      </trkpt>
      <trkpt lat="42.85359" lon="0.14465">
        <ele>2403</ele>
        <time>2020-07-28T09:29:02.123Z</time>
      </trkpt>
      <trkpt lat="42.85359" lon="0.14465">
        <ele>2403</ele>
        <time>2020-07-28T09:29:03.123Z</time>
      </trkpt>
      <trkpt lat="42.85359" lon="0.14465">
        <ele>2403</ele>
        <time>2020-07-28T09:29:04.123Z</time>
      </trkpt>
      <trkpt lat="42.8536" lon="0.14468">
        <ele>2403</ele>
        <time>2020-07-28T09:29:05.123Z</time>
      </trkpt>
      <trkpt lat="42.8536" lon="0.14468">
        <ele>2403</ele>
        <time>2020-07-28T09:29:06.123Z</time>
      </trkpt>
      <trkpt lat="42.8536" lon="0.14468">
        <ele>2403</ele>
        <time>2020-07-28T09:29:07.123Z</time>
      </trkpt>
      <trkpt lat="42.85359" lon="0.14469">
        <ele>2403</ele>
        <time>2020-07-28T09:29:08.123Z</time>
      </trkpt>
      <trkpt lat="42.85359" lon="0.14469">
        <ele>2403</ele>
        <time>2020-07-28T09:29:09.123Z</time>
      </trkpt>
      <trkpt lat="42.85359" lon="0.14469">
        <ele>2403</ele>
        <time>2020-07-28T09:29:10.123Z</time>
      </trkpt>
      <trkpt lat="42.85357" lon="0.14471">
        <ele>2404</ele>
        <time>2020-07-28T09:29:11.123Z</time>
      </trkpt>
      <trkpt lat="42.85357" lon="0.14471">
        <ele>2404</ele>
        <time>2020-07-28T09:29:12.123Z</time>
      </trkpt>
      <trkpt lat="42.85357" lon="0.14471">
        <ele>2404</ele>
        <time>2020-07-28T09:29:13.123Z</time>
      </trkpt>
      <trkpt lat="42.85355" lon="0.14472">
        <ele>2404</ele>
        <time>2020-07-28T09:29:14.123Z</time>
      </trkpt>
      <trkpt lat="42.85355" lon="0.14472">
        <ele>2404</ele>
        <time>2020-07-28T09:29:15.123Z</time>
      </trkpt>
      <trkpt lat="42.85355" lon="0.14472">
        <ele>2404</ele>
        <time>2020-07-28T09:29:16.123Z</time>
      </trkpt>
      <trkpt lat="42.85353" lon="0.14474">
        <ele>2404</ele>
        <time>2020-07-28T09:29:17.123Z</time>
      </trkpt>
      <trkpt lat="42.85353" lon="0.14474">
        <ele>2404</ele>
        <time>2020-07-28T09:29:18.123Z</time>
      </trkpt>
      <trkpt lat="42.85353" lon="0.14474">
        <ele>2404</ele>
        <time>2020-07-28T09:29:19.123Z</time>
      </trkpt>
      <trkpt lat="42.85352" lon="0.14476">
        <ele>2403</ele>
        <time>2020-07-28T09:29:20.123Z</time>
      </trkpt>
      <trkpt lat="42.85352" lon="0.14476">
        <ele>2403</ele>
        <time>2020-07-28T09:29:21.123Z</time>
      </trkpt>
      <trkpt lat="42.85352" lon="0.14476">
        <ele>2403</ele>
        <time>2020-07-28T09:29:22.123Z</time>
      </trkpt>
      <trkpt lat="42.85351" lon="0.14477">
        <ele>2404</ele>
        <time>2020-07-28T09:29:23.123Z</time>
      </trkpt>
      <trkpt lat="42.85351" lon="0.14477">
        <ele>2404</ele>
        <time>2020-07-28T09:29:24.123Z</time>
      </trkpt>
      <trkpt lat="42.85351" lon="0.14477">
        <ele>2404</ele>
        <time>2020-07-28T09:29:25.123Z</time>
      </trkpt>
      <trkpt lat="42.85351" lon="0.14478">
        <ele>2405</ele>
        <time>2020-07-28T09:29:26.123Z</time>
      </trkpt>
      <trkpt lat="42.85351" lon="0.14478">
        <ele>2405</ele>
        <time>2020-07-28T09:29:27.123Z</time>
      </trkpt>
      <trkpt lat="42.85351" lon="0.14478">
        <ele>2405</ele>
        <time>2020-07-28T09:29:28.123Z</time>
      </trkpt>
      <trkpt lat="42.85351" lon="0.14482">
        <ele>2407</ele>
        <time>2020-07-28T09:29:29.123Z</time>
      </trkpt>
      <trkpt lat="42.85351" lon="0.14482">
        <ele>2407</ele>
        <time>2020-07-28T09:29:30.123Z</time>
      </trkpt>
      <trkpt lat="42.85351" lon="0.14482">
        <ele>2407</ele>
        <time>2020-07-28T09:29:31.123Z</time>
      </trkpt>
      <trkpt lat="42.8535" lon="0.14484">
        <ele>2407</ele>
        <time>2020-07-28T09:29:32.123Z</time>
      </trkpt>
      <trkpt lat="42.8535" lon="0.14484">
        <ele>2407</ele>
        <time>2020-07-28T09:29:33.123Z</time>
      </trkpt>
      <trkpt lat="42.8535" lon="0.14484">
        <ele>2407</ele>
        <time>2020-07-28T09:29:34.123Z</time>
      </trkpt>
      <trkpt lat="42.85349" lon="0.14486">
        <ele>2407</ele>
        <time>2020-07-28T09:29:35.123Z</time>
      </trkpt>
      <trkpt lat="42.85349" lon="0.14486">
        <ele>2407</ele>
        <time>2020-07-28T09:29:36.123Z</time>
      </trkpt>
      <trkpt lat="42.85349" lon="0.14486">
        <ele>2407</ele>
        <time>2020-07-28T09:29:37.123Z</time>
      </trkpt>
      <trkpt lat="42.85347" lon="0.14488">
        <ele>2407</ele>
        <time>2020-07-28T09:29:38.123Z</time>
      </trkpt>
      <trkpt lat="42.85347" lon="0.14488">
        <ele>2407</ele>
        <time>2020-07-28T09:29:39.123Z</time>
      </trkpt>
      <trkpt lat="42.85347" lon="0.14488">
        <ele>2407</ele>
        <time>2020-07-28T09:29:40.123Z</time>
      </trkpt>
      <trkpt lat="42.85345" lon="0.14488">
        <ele>2407</ele>
        <time>2020-07-28T09:29:41.123Z</time>
      </trkpt>
      <trkpt lat="42.85345" lon="0.14488">
        <ele>2407</ele>
        <time>2020-07-28T09:29:42.123Z</time>
      </trkpt>
      <trkpt lat="42.85345" lon="0.14488">
        <ele>2407</ele>
        <time>2020-07-28T09:29:43.123Z</time>
      </trkpt>
      <trkpt lat="42.85344" lon="0.14489">
        <ele>2408</ele>
        <time>2020-07-28T09:29:44.123Z</time>
      </trkpt>
      <trkpt lat="42.85344" lon="0.14489">
        <ele>2408</ele>
        <time>2020-07-28T09:29:45.123Z</time>
      </trkpt>
      <trkpt lat="42.85344" lon="0.14489">
        <ele>2408</ele>
        <time>2020-07-28T09:29:46.123Z</time>
      </trkpt>
      <trkpt lat="42.85343" lon="0.14492">
        <ele>2408</ele>
        <time>2020-07-28T09:29:47.123Z</time>
      </trkpt>
      <trkpt lat="42.85343" lon="0.14492">
        <ele>2408</ele>
        <time>2020-07-28T09:29:48.123Z</time>
      </trkpt>
      <trkpt lat="42.85343" lon="0.14492">
        <ele>2408</ele>
        <time>2020-07-28T09:29:49.123Z</time>
      </trkpt>
      <trkpt lat="42.85341" lon="0.14494">
        <ele>2407</ele>
        <time>2020-07-28T09:29:50.123Z</time>
      </trkpt>
      <trkpt lat="42.85341" lon="0.14494">
        <ele>2407</ele>
        <time>2020-07-28T09:29:51.123Z</time>
      </trkpt>
      <trkpt lat="42.85341" lon="0.14494">
        <ele>2407</ele>
        <time>2020-07-28T09:29:52.123Z</time>
      </trkpt>
      <trkpt lat="42.85339" lon="0.14497">
        <ele>2406</ele>
        <time>2020-07-28T09:29:53.123Z</time>
      </trkpt>
      <trkpt lat="42.85339" lon="0.14497">
        <ele>2406</ele>
        <time>2020-07-28T09:29:54.123Z</time>
      </trkpt>
      <trkpt lat="42.85339" lon="0.14497">
        <ele>2406</ele>
        <time>2020-07-28T09:29:55.123Z</time>
      </trkpt>
      <trkpt lat="42.85336" lon="0.14498">
        <ele>2406</ele>
        <time>2020-07-28T09:29:56.123Z</time>
      </trkpt>
      <trkpt lat="42.85336" lon="0.14498">
        <ele>2406</ele>
        <time>2020-07-28T09:29:57.123Z</time>
      </trkpt>
      <trkpt lat="42.85336" lon="0.14498">
        <ele>2406</ele>
        <time>2020-07-28T09:29:58.123Z</time>
      </trkpt>
      <trkpt lat="42.85335" lon="0.14497">
        <ele>2405</ele>
        <time>2020-07-28T09:29:59.123Z</time>
      </trkpt>
      <trkpt lat="42.85335" lon="0.14497">
        <ele>2405</ele>
        <time>2020-07-28T09:30:00.123Z</time>
      </trkpt>
      <trkpt lat="42.85335" lon="0.14497">
        <ele>2405</ele>
        <time>2020-07-28T09:30:01.123Z</time>
      </trkpt>
      <trkpt lat="42.85333" lon="0.14497">
        <ele>2404</ele>
        <time>2020-07-28T09:30:02.123Z</time>
      </trkpt>
      <trkpt lat="42.85333" lon="0.14497">
        <ele>2404</ele>
        <time>2020-07-28T09:30:03.123Z</time>
      </trkpt>
      <trkpt lat="42.85333" lon="0.14497">
        <ele>2404</ele>
        <time>2020-07-28T09:30:04.123Z</time>
      </trkpt>
      <trkpt lat="42.8533" lon="0.14499">
        <ele>2404</ele>
        <time>2020-07-28T09:30:05.123Z</time>
      </trkpt>
      <trkpt lat="42.8533" lon="0.14499">
        <ele>2404</ele>
        <time>2020-07-28T09:30:06.123Z</time>
      </trkpt>
      <trkpt lat="42.8533" lon="0.14499">
        <ele>2404</ele>
        <time>2020-07-28T09:30:07.123Z</time>
      </trkpt>
      <trkpt lat="42.85328" lon="0.145">
        <ele>2405</ele>
        <time>2020-07-28T09:30:08.123Z</time>
      </trkpt>
      <trkpt lat="42.85328" lon="0.145">
        <ele>2405</ele>
        <time>2020-07-28T09:30:09.123Z</time>
      </trkpt>
      <trkpt lat="42.85328" lon="0.145">
        <ele>2405</ele>
        <time>2020-07-28T09:30:10.123Z</time>
      </trkpt>
      <trkpt lat="42.85327" lon="0.14502">
        <ele>2404</ele>
        <time>2020-07-28T09:30:11.123Z</time>
      </trkpt>
      <trkpt lat="42.85327" lon="0.14502">
        <ele>2404</ele>
        <time>2020-07-28T09:30:12.123Z</time>
      </trkpt>
      <trkpt lat="42.85327" lon="0.14502">
        <ele>2404</ele>
        <time>2020-07-28T09:30:13.123Z</time>
      </trkpt>
      <trkpt lat="42.85323" lon="0.14504">
        <ele>2404</ele>
        <time>2020-07-28T09:30:14.123Z</time>
      </trkpt>
      <trkpt lat="42.85323" lon="0.14504">
        <ele>2404</ele>
        <time>2020-07-28T09:30:15.123Z</time>
      </trkpt>
      <trkpt lat="42.85323" lon="0.14504">
        <ele>2404</ele>
        <time>2020-07-28T09:30:16.123Z</time>
      </trkpt>
      <trkpt lat="42.85322" lon="0.14508">
        <ele>2404</ele>
        <time>2020-07-28T09:30:17.123Z</time>
      </trkpt>
      <trkpt lat="42.85322" lon="0.14508">
        <ele>2404</ele>
        <time>2020-07-28T09:30:18.123Z</time>
      </trkpt>
      <trkpt lat="42.85322" lon="0.14508">
        <ele>2404</ele>
        <time>2020-07-28T09:30:19.123Z</time>
      </trkpt>
      <trkpt lat="42.85321" lon="0.1451">
        <ele>2404</ele>
        <time>2020-07-28T09:30:20.123Z</time>
      </trkpt>
      <trkpt lat="42.85321" lon="0.1451">
        <ele>2404</ele>
        <time>2020-07-28T09:30:21.123Z</time>
      </trkpt>
      <trkpt lat="42.85321" lon="0.1451">
        <ele>2404</ele>
        <time>2020-07-28T09:30:22.123Z</time>
      </trkpt>
      <trkpt lat="42.8532" lon="0.14513">
        <ele>2404</ele>
        <time>2020-07-28T09:30:23.123Z</time>
      </trkpt>
      <trkpt lat="42.8532" lon="0.14513">
        <ele>2404</ele>
        <time>2020-07-28T09:30:24.123Z</time>
      </trkpt>
      <trkpt lat="42.8532" lon="0.14513">
        <ele>2404</ele>
        <time>2020-07-28T09:30:25.123Z</time>
      </trkpt>
      <trkpt lat="42.85316" lon="0.14514">
        <ele>2402</ele>
        <time>2020-07-28T09:30:26.123Z</time>
      </trkpt>
      <trkpt lat="42.85316" lon="0.14514">
        <ele>2402</ele>
        <time>2020-07-28T09:30:27.123Z</time>
      </trkpt>
      <trkpt lat="42.85315" lon="0.14515">
        <ele>2402</ele>
        <time>2020-07-28T09:30:28.123Z</time>
      </trkpt>
      <trkpt lat="42.85313" lon="0.14516">
        <ele>2402</ele>
        <time>2020-07-28T09:30:29.123Z</time>
      </trkpt>
      <trkpt lat="42.85311" lon="0.14518">
        <ele>2402</ele>
        <time>2020-07-28T09:30:30.123Z</time>
      </trkpt>
      <trkpt lat="42.85311" lon="0.14518">
        <ele>2402</ele>
        <time>2020-07-28T09:30:31.123Z</time>
      </trkpt>
      <trkpt lat="42.85307" lon="0.14522">
        <ele>2402</ele>
        <time>2020-07-28T09:30:32.123Z</time>
      </trkpt>
      <trkpt lat="42.85307" lon="0.14522">
        <ele>2402</ele>
        <time>2020-07-28T09:30:33.123Z</time>
      </trkpt>
      <trkpt lat="42.85307" lon="0.14522">
        <ele>2402</ele>
        <time>2020-07-28T09:30:34.123Z</time>
      </trkpt>
      <trkpt lat="42.85302" lon="0.14531">
        <ele>2402</ele>
        <time>2020-07-28T09:30:35.123Z</time>
      </trkpt>
      <trkpt lat="42.85302" lon="0.14531">
        <ele>2402</ele>
        <time>2020-07-28T09:30:36.123Z</time>
      </trkpt>
      <trkpt lat="42.85298" lon="0.14536">
        <ele>2403</ele>
        <time>2020-07-28T09:30:37.123Z</time>
      </trkpt>
      <trkpt lat="42.85295" lon="0.14542">
        <ele>2404</ele>
        <time>2020-07-28T09:30:38.123Z</time>
      </trkpt>
      <trkpt lat="42.85295" lon="0.14542">
        <ele>2404</ele>
        <time>2020-07-28T09:30:39.123Z</time>
      </trkpt>
      <trkpt lat="42.85293" lon="0.14544">
        <ele>2405</ele>
        <time>2020-07-28T09:30:40.123Z</time>
      </trkpt>
      <trkpt lat="42.85291" lon="0.14546">
        <ele>2405</ele>
        <time>2020-07-28T09:30:41.123Z</time>
      </trkpt>
      <trkpt lat="42.85291" lon="0.14546">
        <ele>2405</ele>
        <time>2020-07-28T09:30:42.123Z</time>
      </trkpt>
      <trkpt lat="42.85287" lon="0.1455">
        <ele>2406</ele>
        <time>2020-07-28T09:30:43.123Z</time>
      </trkpt>
      <trkpt lat="42.85282" lon="0.14552">
        <ele>2406</ele>
        <time>2020-07-28T09:30:44.123Z</time>
      </trkpt>
      <trkpt lat="42.85282" lon="0.14552">
        <ele>2406</ele>
        <time>2020-07-28T09:30:45.123Z</time>
      </trkpt>
      <trkpt lat="42.85281" lon="0.14553">
        <ele>2405</ele>
        <time>2020-07-28T09:30:46.123Z</time>
      </trkpt>
      <trkpt lat="42.8528" lon="0.14554">
        <ele>2406</ele>
        <time>2020-07-28T09:30:47.123Z</time>
      </trkpt>
      <trkpt lat="42.8528" lon="0.14554">
        <ele>2406</ele>
        <time>2020-07-28T09:30:48.123Z</time>
      </trkpt>
      <trkpt lat="42.85279" lon="0.14555">
        <ele>2407</ele>
        <time>2020-07-28T09:30:49.123Z</time>
      </trkpt>
      <trkpt lat="42.85278" lon="0.14556">
        <ele>2407</ele>
        <time>2020-07-28T09:30:50.123Z</time>
      </trkpt>
      <trkpt lat="42.85278" lon="0.14557">
        <ele>2407</ele>
        <time>2020-07-28T09:30:51.123Z</time>
      </trkpt>
      <trkpt lat="42.85277" lon="0.14557">
        <ele>2407</ele>
        <time>2020-07-28T09:30:52.123Z</time>
      </trkpt>
      <trkpt lat="42.85274" lon="0.14559">
        <ele>2407</ele>
        <time>2020-07-28T09:30:53.123Z</time>
      </trkpt>
      <trkpt lat="42.85274" lon="0.14559">
        <ele>2407</ele>
        <time>2020-07-28T09:30:54.123Z</time>
      </trkpt>
      <trkpt lat="42.85273" lon="0.14561">
        <ele>2408</ele>
        <time>2020-07-28T09:30:55.123Z</time>
      </trkpt>
      <trkpt lat="42.85273" lon="0.14564">
        <ele>2404</ele>
        <time>2020-07-28T09:30:56.123Z</time>
      </trkpt>
      <trkpt lat="42.85273" lon="0.14564">
        <ele>2404</ele>
        <time>2020-07-28T09:30:57.123Z</time>
      </trkpt>
      <trkpt lat="42.85273" lon="0.14564">
        <ele>2405</ele>
        <time>2020-07-28T09:30:58.123Z</time>
      </trkpt>
      <trkpt lat="42.85271" lon="0.14567">
        <ele>2405</ele>
        <time>2020-07-28T09:30:59.123Z</time>
      </trkpt>
      <trkpt lat="42.85271" lon="0.14567">
        <ele>2405</ele>
        <time>2020-07-28T09:31:00.123Z</time>
      </trkpt>
      <trkpt lat="42.8527" lon="0.14568">
        <ele>2405</ele>
        <time>2020-07-28T09:31:01.123Z</time>
      </trkpt>
      <trkpt lat="42.85269" lon="0.1457">
        <ele>2408</ele>
        <time>2020-07-28T09:31:02.123Z</time>
      </trkpt>
      <trkpt lat="42.85269" lon="0.1457">
        <ele>2408</ele>
        <time>2020-07-28T09:31:03.123Z</time>
      </trkpt>
      <trkpt lat="42.85269" lon="0.1457">
        <ele>2408</ele>
        <time>2020-07-28T09:31:04.123Z</time>
      </trkpt>
      <trkpt lat="42.85265" lon="0.14574">
        <ele>2408</ele>
        <time>2020-07-28T09:31:05.123Z</time>
      </trkpt>
      <trkpt lat="42.85265" lon="0.14574">
        <ele>2408</ele>
        <time>2020-07-28T09:31:06.123Z</time>
      </trkpt>
      <trkpt lat="42.85263" lon="0.14575">
        <ele>2407</ele>
        <time>2020-07-28T09:31:07.123Z</time>
      </trkpt>
      <trkpt lat="42.8526" lon="0.14577">
        <ele>2407</ele>
        <time>2020-07-28T09:31:08.123Z</time>
      </trkpt>
      <trkpt lat="42.8526" lon="0.14577">
        <ele>2407</ele>
        <time>2020-07-28T09:31:09.123Z</time>
      </trkpt>
      <trkpt lat="42.85259" lon="0.14578">
        <ele>2407</ele>
        <time>2020-07-28T09:31:10.123Z</time>
      </trkpt>
      <trkpt lat="42.85257" lon="0.14579">
        <ele>2407</ele>
        <time>2020-07-28T09:31:11.123Z</time>
      </trkpt>
      <trkpt lat="42.85255" lon="0.14581">
        <ele>2406</ele>
        <time>2020-07-28T09:31:12.123Z</time>
      </trkpt>
      <trkpt lat="42.85253" lon="0.14582">
        <ele>2406</ele>
        <time>2020-07-28T09:31:13.123Z</time>
      </trkpt>
      <trkpt lat="42.8525" lon="0.14582">
        <ele>2406</ele>
        <time>2020-07-28T09:31:14.123Z</time>
      </trkpt>
      <trkpt lat="42.85248" lon="0.14582">
        <ele>2406</ele>
        <time>2020-07-28T09:31:15.123Z</time>
      </trkpt>
      <trkpt lat="42.85245" lon="0.14582">
        <ele>2406</ele>
        <time>2020-07-28T09:31:16.123Z</time>
      </trkpt>
      <trkpt lat="42.85243" lon="0.14581">
        <ele>2405</ele>
        <time>2020-07-28T09:31:17.123Z</time>
      </trkpt>
      <trkpt lat="42.85243" lon="0.14581">
        <ele>2405</ele>
        <time>2020-07-28T09:31:18.123Z</time>
      </trkpt>
      <trkpt lat="42.85242" lon="0.14581">
        <ele>2406</ele>
        <time>2020-07-28T09:31:19.123Z</time>
      </trkpt>
      <trkpt lat="42.8524" lon="0.14581">
        <ele>2406</ele>
        <time>2020-07-28T09:31:20.123Z</time>
      </trkpt>
      <trkpt lat="42.8524" lon="0.14581">
        <ele>2406</ele>
        <time>2020-07-28T09:31:21.123Z</time>
      </trkpt>
      <trkpt lat="42.85239" lon="0.14581">
        <ele>2405</ele>
        <time>2020-07-28T09:31:22.123Z</time>
      </trkpt>
      <trkpt lat="42.85238" lon="0.14581">
        <ele>2405</ele>
        <time>2020-07-28T09:31:23.123Z</time>
      </trkpt>
      <trkpt lat="42.85238" lon="0.14581">
        <ele>2405</ele>
        <time>2020-07-28T09:31:24.123Z</time>
      </trkpt>
      <trkpt lat="42.85238" lon="0.14581">
        <ele>2406</ele>
        <time>2020-07-28T09:31:25.123Z</time>
      </trkpt>
      <trkpt lat="42.85238" lon="0.14581">
        <ele>2406</ele>
        <time>2020-07-28T09:31:26.123Z</time>
      </trkpt>
      <trkpt lat="42.85238" lon="0.14581">
        <ele>2406</ele>
        <time>2020-07-28T09:31:27.123Z</time>
      </trkpt>
      <trkpt lat="42.85239" lon="0.14581">
        <ele>2407</ele>
        <time>2020-07-28T09:31:28.123Z</time>
      </trkpt>
      <trkpt lat="42.8524" lon="0.14581">
        <ele>2408</ele>
        <time>2020-07-28T09:31:29.123Z</time>
      </trkpt>
      <trkpt lat="42.8524" lon="0.14581">
        <ele>2408</ele>
        <time>2020-07-28T09:31:30.123Z</time>
      </trkpt>
      <trkpt lat="42.8524" lon="0.14581">
        <ele>2407</ele>
        <time>2020-07-28T09:31:31.123Z</time>
      </trkpt>
      <trkpt lat="42.85241" lon="0.14581">
        <ele>2407</ele>
        <time>2020-07-28T09:31:32.123Z</time>
      </trkpt>
      <trkpt lat="42.85242" lon="0.14581">
        <ele>2406</ele>
        <time>2020-07-28T09:31:33.123Z</time>
      </trkpt>
      <trkpt lat="42.85243" lon="0.1458">
        <ele>2407</ele>
        <time>2020-07-28T09:31:34.123Z</time>
      </trkpt>
      <trkpt lat="42.85244" lon="0.14579">
        <ele>2407</ele>
        <time>2020-07-28T09:31:35.123Z</time>
      </trkpt>
      <trkpt lat="42.85246" lon="0.14578">
        <ele>2407</ele>
        <time>2020-07-28T09:31:36.123Z</time>
      </trkpt>
      <trkpt lat="42.85248" lon="0.14576">
        <ele>2406</ele>
        <time>2020-07-28T09:31:37.123Z</time>
      </trkpt>
      <trkpt lat="42.8525" lon="0.14574">
        <ele>2406</ele>
        <time>2020-07-28T09:31:38.123Z</time>
      </trkpt>
      <trkpt lat="42.8525" lon="0.14574">
        <ele>2406</ele>
        <time>2020-07-28T09:31:39.123Z</time>
      </trkpt>
      <trkpt lat="42.85251" lon="0.14573">
        <ele>2407</ele>
        <time>2020-07-28T09:31:40.123Z</time>
      </trkpt>
      <trkpt lat="42.85254" lon="0.14569">
        <ele>2407</ele>
        <time>2020-07-28T09:31:41.123Z</time>
      </trkpt>
      <trkpt lat="42.85254" lon="0.14569">
        <ele>2407</ele>
        <time>2020-07-28T09:31:42.123Z</time>
      </trkpt>
      <trkpt lat="42.85255" lon="0.14566">
        <ele>2407</ele>
        <time>2020-07-28T09:31:43.123Z</time>
      </trkpt>
      <trkpt lat="42.85255" lon="0.14561">
        <ele>2407</ele>
        <time>2020-07-28T09:31:44.123Z</time>
      </trkpt>
      <trkpt lat="42.85255" lon="0.14561">
        <ele>2407</ele>
        <time>2020-07-28T09:31:45.123Z</time>
      </trkpt>
      <trkpt lat="42.85255" lon="0.14558">
        <ele>2407</ele>
        <time>2020-07-28T09:31:46.123Z</time>
      </trkpt>
      <trkpt lat="42.85252" lon="0.14554">
        <ele>2404</ele>
        <time>2020-07-28T09:31:47.123Z</time>
      </trkpt>
      <trkpt lat="42.85252" lon="0.14554">
        <ele>2404</ele>
        <time>2020-07-28T09:31:48.123Z</time>
      </trkpt>
      <trkpt lat="42.85251" lon="0.14553">
        <ele>2404</ele>
        <time>2020-07-28T09:31:49.123Z</time>
      </trkpt>
      <trkpt lat="42.85249" lon="0.14551">
        <ele>2404</ele>
        <time>2020-07-28T09:31:50.123Z</time>
      </trkpt>
      <trkpt lat="42.85249" lon="0.14551">
        <ele>2404</ele>
        <time>2020-07-28T09:31:51.123Z</time>
      </trkpt>
      <trkpt lat="42.85248" lon="0.1455">
        <ele>2403</ele>
        <time>2020-07-28T09:31:52.123Z</time>
      </trkpt>
      <trkpt lat="42.85247" lon="0.14549">
        <ele>2402</ele>
        <time>2020-07-28T09:31:53.123Z</time>
      </trkpt>
      <trkpt lat="42.85247" lon="0.14549">
        <ele>2402</ele>
        <time>2020-07-28T09:31:54.123Z</time>
      </trkpt>
      <trkpt lat="42.85246" lon="0.14549">
        <ele>2402</ele>
        <time>2020-07-28T09:31:55.123Z</time>
      </trkpt>
      <trkpt lat="42.85244" lon="0.14549">
        <ele>2402</ele>
        <time>2020-07-28T09:31:56.123Z</time>
      </trkpt>
      <trkpt lat="42.85243" lon="0.14549">
        <ele>2401</ele>
        <time>2020-07-28T09:31:57.123Z</time>
      </trkpt>
      <trkpt lat="42.85242" lon="0.14549">
        <ele>2402</ele>
        <time>2020-07-28T09:31:58.123Z</time>
      </trkpt>
      <trkpt lat="42.85239" lon="0.14549">
        <ele>2401</ele>
        <time>2020-07-28T09:31:59.123Z</time>
      </trkpt>
      <trkpt lat="42.85239" lon="0.14549">
        <ele>2401</ele>
        <time>2020-07-28T09:32:00.123Z</time>
      </trkpt>
      <trkpt lat="42.85237" lon="0.14548">
        <ele>2400</ele>
        <time>2020-07-28T09:32:01.123Z</time>
      </trkpt>
      <trkpt lat="42.85234" lon="0.14546">
        <ele>2401</ele>
        <time>2020-07-28T09:32:02.123Z</time>
      </trkpt>
      <trkpt lat="42.85234" lon="0.14546">
        <ele>2401</ele>
        <time>2020-07-28T09:32:03.123Z</time>
      </trkpt>
      <trkpt lat="42.85233" lon="0.14545">
        <ele>2401</ele>
        <time>2020-07-28T09:32:04.123Z</time>
      </trkpt>
      <trkpt lat="42.85231" lon="0.14543">
        <ele>2402</ele>
        <time>2020-07-28T09:32:05.123Z</time>
      </trkpt>
      <trkpt lat="42.85231" lon="0.14543">
        <ele>2402</ele>
        <time>2020-07-28T09:32:06.123Z</time>
      </trkpt>
      <trkpt lat="42.85231" lon="0.14542">
        <ele>2402</ele>
        <time>2020-07-28T09:32:07.123Z</time>
      </trkpt>
      <trkpt lat="42.85228" lon="0.1454">
        <ele>2403</ele>
        <time>2020-07-28T09:32:08.123Z</time>
      </trkpt>
      <trkpt lat="42.85228" lon="0.1454">
        <ele>2403</ele>
        <time>2020-07-28T09:32:09.123Z</time>
      </trkpt>
      <trkpt lat="42.85227" lon="0.14539">
        <ele>2404</ele>
        <time>2020-07-28T09:32:10.123Z</time>
      </trkpt>
      <trkpt lat="42.85226" lon="0.14537">
        <ele>2404</ele>
        <time>2020-07-28T09:32:11.123Z</time>
      </trkpt>
      <trkpt lat="42.85226" lon="0.14537">
        <ele>2404</ele>
        <time>2020-07-28T09:32:12.123Z</time>
      </trkpt>
      <trkpt lat="42.85225" lon="0.14536">
        <ele>2403</ele>
        <time>2020-07-28T09:32:13.123Z</time>
      </trkpt>
      <trkpt lat="42.85223" lon="0.14535">
        <ele>2404</ele>
        <time>2020-07-28T09:32:14.123Z</time>
      </trkpt>
      <trkpt lat="42.85223" lon="0.14535">
        <ele>2404</ele>
        <time>2020-07-28T09:32:15.123Z</time>
      </trkpt>
      <trkpt lat="42.85222" lon="0.14534">
        <ele>2403</ele>
        <time>2020-07-28T09:32:16.123Z</time>
      </trkpt>
      <trkpt lat="42.85221" lon="0.14533">
        <ele>2404</ele>
        <time>2020-07-28T09:32:17.123Z</time>
      </trkpt>
      <trkpt lat="42.8522" lon="0.14531">
        <ele>2404</ele>
        <time>2020-07-28T09:32:18.123Z</time>
      </trkpt>
      <trkpt lat="42.85219" lon="0.14529">
        <ele>2403</ele>
        <time>2020-07-28T09:32:19.123Z</time>
      </trkpt>
      <trkpt lat="42.8522" lon="0.14521">
        <ele>2401</ele>
        <time>2020-07-28T09:32:20.123Z</time>
      </trkpt>
      <trkpt lat="42.8522" lon="0.14521">
        <ele>2401</ele>
        <time>2020-07-28T09:32:21.123Z</time>
      </trkpt>
      <trkpt lat="42.8522" lon="0.14517">
        <ele>2401</ele>
        <time>2020-07-28T09:32:22.123Z</time>
      </trkpt>
      <trkpt lat="42.8522" lon="0.1451">
        <ele>2401</ele>
        <time>2020-07-28T09:32:23.123Z</time>
      </trkpt>
      <trkpt lat="42.8522" lon="0.1451">
        <ele>2401</ele>
        <time>2020-07-28T09:32:24.123Z</time>
      </trkpt>
      <trkpt lat="42.8522" lon="0.14507">
        <ele>2402</ele>
        <time>2020-07-28T09:32:25.123Z</time>
      </trkpt>
      <trkpt lat="42.8522" lon="0.14501">
        <ele>2402</ele>
        <time>2020-07-28T09:32:26.123Z</time>
      </trkpt>
      <trkpt lat="42.8522" lon="0.14501">
        <ele>2402</ele>
        <time>2020-07-28T09:32:27.123Z</time>
      </trkpt>
      <trkpt lat="42.8522" lon="0.14501">
        <ele>2402</ele>
        <time>2020-07-28T09:32:28.123Z</time>
      </trkpt>
      <trkpt lat="42.85219" lon="0.14492">
        <ele>2403</ele>
        <time>2020-07-28T09:32:29.123Z</time>
      </trkpt>
      <trkpt lat="42.85219" lon="0.14492">
        <ele>2403</ele>
        <time>2020-07-28T09:32:30.123Z</time>
      </trkpt>
      <trkpt lat="42.85219" lon="0.14492">
        <ele>2403</ele>
        <time>2020-07-28T09:32:31.123Z</time>
      </trkpt>
      <trkpt lat="42.85216" lon="0.14484">
        <ele>2402</ele>
        <time>2020-07-28T09:32:32.123Z</time>
      </trkpt>
      <trkpt lat="42.85216" lon="0.14484">
        <ele>2402</ele>
        <time>2020-07-28T09:32:33.123Z</time>
      </trkpt>
      <trkpt lat="42.85216" lon="0.14483">
        <ele>2401</ele>
        <time>2020-07-28T09:32:34.123Z</time>
      </trkpt>
      <trkpt lat="42.85215" lon="0.14483">
        <ele>2400</ele>
        <time>2020-07-28T09:32:35.123Z</time>
      </trkpt>
      <trkpt lat="42.85215" lon="0.14483">
        <ele>2400</ele>
        <time>2020-07-28T09:32:36.123Z</time>
      </trkpt>
      <trkpt lat="42.85215" lon="0.14483">
        <ele>2400</ele>
        <time>2020-07-28T09:32:37.123Z</time>
      </trkpt>
      <trkpt lat="42.85213" lon="0.14477">
        <ele>2399</ele>
        <time>2020-07-28T09:32:38.123Z</time>
      </trkpt>
      <trkpt lat="42.85212" lon="0.14474">
        <ele>2399</ele>
        <time>2020-07-28T09:32:39.123Z</time>
      </trkpt>
      <trkpt lat="42.85212" lon="0.14474">
        <ele>2399</ele>
        <time>2020-07-28T09:32:40.123Z</time>
      </trkpt>
      <trkpt lat="42.85211" lon="0.14473">
        <ele>2399</ele>
        <time>2020-07-28T09:32:41.123Z</time>
      </trkpt>
      <trkpt lat="42.85211" lon="0.14473">
        <ele>2399</ele>
        <time>2020-07-28T09:32:42.123Z</time>
      </trkpt>
      <trkpt lat="42.8521" lon="0.14473">
        <ele>2400</ele>
        <time>2020-07-28T09:32:43.123Z</time>
      </trkpt>
      <trkpt lat="42.8521" lon="0.14472">
        <ele>2400</ele>
        <time>2020-07-28T09:32:44.123Z</time>
      </trkpt>
      <trkpt lat="42.8521" lon="0.14472">
        <ele>2400</ele>
        <time>2020-07-28T09:32:45.123Z</time>
      </trkpt>
      <trkpt lat="42.8521" lon="0.14472">
        <ele>2400</ele>
        <time>2020-07-28T09:32:46.123Z</time>
      </trkpt>
      <trkpt lat="42.85209" lon="0.14472">
        <ele>2400</ele>
        <time>2020-07-28T09:32:47.123Z</time>
      </trkpt>
      <trkpt lat="42.85209" lon="0.14472">
        <ele>2400</ele>
        <time>2020-07-28T09:32:48.123Z</time>
      </trkpt>
      <trkpt lat="42.85209" lon="0.14472">
        <ele>2400</ele>
        <time>2020-07-28T09:32:49.123Z</time>
      </trkpt>
      <trkpt lat="42.85209" lon="0.14472">
        <ele>2399</ele>
        <time>2020-07-28T09:32:50.123Z</time>
      </trkpt>
      <trkpt lat="42.85209" lon="0.14472">
        <ele>2399</ele>
        <time>2020-07-28T09:32:51.123Z</time>
      </trkpt>
      <trkpt lat="42.85209" lon="0.14471">
        <ele>2400</ele>
        <time>2020-07-28T09:32:52.123Z</time>
      </trkpt>
      <trkpt lat="42.85209" lon="0.14471">
        <ele>2400</ele>
        <time>2020-07-28T09:32:53.123Z</time>
      </trkpt>
      <trkpt lat="42.85209" lon="0.14471">
        <ele>2400</ele>
        <time>2020-07-28T09:32:54.123Z</time>
      </trkpt>
      <trkpt lat="42.85209" lon="0.14469">
        <ele>2399</ele>
        <time>2020-07-28T09:32:55.123Z</time>
      </trkpt>
      <trkpt lat="42.85209" lon="0.14468">
        <ele>2399</ele>
        <time>2020-07-28T09:32:56.123Z</time>
      </trkpt>
      <trkpt lat="42.85209" lon="0.14468">
        <ele>2399</ele>
        <time>2020-07-28T09:32:57.123Z</time>
      </trkpt>
      <trkpt lat="42.85209" lon="0.14467">
        <ele>2399</ele>
        <time>2020-07-28T09:32:58.123Z</time>
      </trkpt>
      <trkpt lat="42.85209" lon="0.14467">
        <ele>2399</ele>
        <time>2020-07-28T09:32:59.123Z</time>
      </trkpt>
      <trkpt lat="42.85209" lon="0.14467">
        <ele>2399</ele>
        <time>2020-07-28T09:33:00.123Z</time>
      </trkpt>
      <trkpt lat="42.85209" lon="0.14467">
        <ele>2399</ele>
        <time>2020-07-28T09:33:01.123Z</time>
      </trkpt>
      <trkpt lat="42.85209" lon="0.14466">
        <ele>2399</ele>
        <time>2020-07-28T09:33:02.123Z</time>
      </trkpt>
      <trkpt lat="42.85209" lon="0.14466">
        <ele>2399</ele>
        <time>2020-07-28T09:33:03.123Z</time>
      </trkpt>
      <trkpt lat="42.85209" lon="0.14466">
        <ele>2399</ele>
        <time>2020-07-28T09:33:04.123Z</time>
      </trkpt>
      <trkpt lat="42.8521" lon="0.14465">
        <ele>2398</ele>
        <time>2020-07-28T09:33:05.123Z</time>
      </trkpt>
      <trkpt lat="42.8521" lon="0.14465">
        <ele>2398</ele>
        <time>2020-07-28T09:33:06.123Z</time>
      </trkpt>
      <trkpt lat="42.8521" lon="0.14466">
        <ele>2399</ele>
        <time>2020-07-28T09:33:07.123Z</time>
      </trkpt>
      <trkpt lat="42.8521" lon="0.14466">
        <ele>2399</ele>
        <time>2020-07-28T09:33:08.123Z</time>
      </trkpt>
      <trkpt lat="42.8521" lon="0.14466">
        <ele>2399</ele>
        <time>2020-07-28T09:33:09.123Z</time>
      </trkpt>
      <trkpt lat="42.8521" lon="0.14466">
        <ele>2398</ele>
        <time>2020-07-28T09:33:10.123Z</time>
      </trkpt>
      <trkpt lat="42.8521" lon="0.14466">
        <ele>2399</ele>
        <time>2020-07-28T09:33:11.123Z</time>
      </trkpt>
      <trkpt lat="42.8521" lon="0.14466">
        <ele>2399</ele>
        <time>2020-07-28T09:33:12.123Z</time>
      </trkpt>
      <trkpt lat="42.8521" lon="0.14467">
        <ele>2397</ele>
        <time>2020-07-28T09:33:13.123Z</time>
      </trkpt>
      <trkpt lat="42.85211" lon="0.14468">
        <ele>2397</ele>
        <time>2020-07-28T09:33:14.123Z</time>
      </trkpt>
      <trkpt lat="42.85211" lon="0.14468">
        <ele>2397</ele>
        <time>2020-07-28T09:33:15.123Z</time>
      </trkpt>
      <trkpt lat="42.85211" lon="0.14468">
        <ele>2397</ele>
        <time>2020-07-28T09:33:16.123Z</time>
      </trkpt>
      <trkpt lat="42.85213" lon="0.14473">
        <ele>2398</ele>
        <time>2020-07-28T09:33:17.123Z</time>
      </trkpt>
      <trkpt lat="42.85213" lon="0.14473">
        <ele>2398</ele>
        <time>2020-07-28T09:33:18.123Z</time>
      </trkpt>
      <trkpt lat="42.85214" lon="0.14476">
        <ele>2398</ele>
        <time>2020-07-28T09:33:19.123Z</time>
      </trkpt>
      <trkpt lat="42.85215" lon="0.14477">
        <ele>2398</ele>
        <time>2020-07-28T09:33:20.123Z</time>
      </trkpt>
      <trkpt lat="42.85215" lon="0.14477">
        <ele>2398</ele>
        <time>2020-07-28T09:33:21.123Z</time>
      </trkpt>
      <trkpt lat="42.85215" lon="0.14477">
        <ele>2398</ele>
        <time>2020-07-28T09:33:22.123Z</time>
      </trkpt>
      <trkpt lat="42.85217" lon="0.14482">
        <ele>2399</ele>
        <time>2020-07-28T09:33:23.123Z</time>
      </trkpt>
      <trkpt lat="42.85217" lon="0.14483">
        <ele>2399</ele>
        <time>2020-07-28T09:33:24.123Z</time>
      </trkpt>
      <trkpt lat="42.85217" lon="0.14486">
        <ele>2399</ele>
        <time>2020-07-28T09:33:25.123Z</time>
      </trkpt>
      <trkpt lat="42.85217" lon="0.14488">
        <ele>2398</ele>
        <time>2020-07-28T09:33:26.123Z</time>
      </trkpt>
      <trkpt lat="42.85217" lon="0.14488">
        <ele>2398</ele>
        <time>2020-07-28T09:33:27.123Z</time>
      </trkpt>
      <trkpt lat="42.85217" lon="0.14491">
        <ele>2399</ele>
        <time>2020-07-28T09:33:28.123Z</time>
      </trkpt>
      <trkpt lat="42.85215" lon="0.14494">
        <ele>2398</ele>
        <time>2020-07-28T09:33:29.123Z</time>
      </trkpt>
      <trkpt lat="42.85215" lon="0.14494">
        <ele>2398</ele>
        <time>2020-07-28T09:33:30.123Z</time>
      </trkpt>
      <trkpt lat="42.85215" lon="0.14494">
        <ele>2398</ele>
        <time>2020-07-28T09:33:31.123Z</time>
      </trkpt>
      <trkpt lat="42.85214" lon="0.14499">
        <ele>2397</ele>
        <time>2020-07-28T09:33:32.123Z</time>
      </trkpt>
      <trkpt lat="42.85214" lon="0.14499">
        <ele>2397</ele>
        <time>2020-07-28T09:33:33.123Z</time>
      </trkpt>
      <trkpt lat="42.85214" lon="0.14502">
        <ele>2397</ele>
        <time>2020-07-28T09:33:34.123Z</time>
      </trkpt>
      <trkpt lat="42.85214" lon="0.14507">
        <ele>2397</ele>
        <time>2020-07-28T09:33:35.123Z</time>
      </trkpt>
      <trkpt lat="42.85214" lon="0.14507">
        <ele>2397</ele>
        <time>2020-07-28T09:33:36.123Z</time>
      </trkpt>
      <trkpt lat="42.85214" lon="0.14507">
        <ele>2397</ele>
        <time>2020-07-28T09:33:37.123Z</time>
      </trkpt>
      <trkpt lat="42.85214" lon="0.14511">
        <ele>2396</ele>
        <time>2020-07-28T09:33:38.123Z</time>
      </trkpt>
      <trkpt lat="42.85214" lon="0.14511">
        <ele>2396</ele>
        <time>2020-07-28T09:33:39.123Z</time>
      </trkpt>
      <trkpt lat="42.85214" lon="0.14511">
        <ele>2396</ele>
        <time>2020-07-28T09:33:40.123Z</time>
      </trkpt>
      <trkpt lat="42.85216" lon="0.14517">
        <ele>2395</ele>
        <time>2020-07-28T09:33:41.123Z</time>
      </trkpt>
      <trkpt lat="42.85217" lon="0.14519">
        <ele>2394</ele>
        <time>2020-07-28T09:33:42.123Z</time>
      </trkpt>
      <trkpt lat="42.85217" lon="0.14519">
        <ele>2394</ele>
        <time>2020-07-28T09:33:43.123Z</time>
      </trkpt>
      <trkpt lat="42.85217" lon="0.14523">
        <ele>2395</ele>
        <time>2020-07-28T09:33:44.123Z</time>
      </trkpt>
      <trkpt lat="42.85217" lon="0.14523">
        <ele>2395</ele>
        <time>2020-07-28T09:33:45.123Z</time>
      </trkpt>
      <trkpt lat="42.85216" lon="0.14527">
        <ele>2397</ele>
        <time>2020-07-28T09:33:46.123Z</time>
      </trkpt>
      <trkpt lat="42.85217" lon="0.14528">
        <ele>2394</ele>
        <time>2020-07-28T09:33:47.123Z</time>
      </trkpt>
      <trkpt lat="42.85217" lon="0.14528">
        <ele>2394</ele>
        <time>2020-07-28T09:33:48.123Z</time>
      </trkpt>
      <trkpt lat="42.85218" lon="0.14529">
        <ele>2395</ele>
        <time>2020-07-28T09:33:49.123Z</time>
      </trkpt>
      <trkpt lat="42.85218" lon="0.1453">
        <ele>2396</ele>
        <time>2020-07-28T09:33:50.123Z</time>
      </trkpt>
      <trkpt lat="42.85218" lon="0.1453">
        <ele>2396</ele>
        <time>2020-07-28T09:33:51.123Z</time>
      </trkpt>
      <trkpt lat="42.85221" lon="0.14532">
        <ele>2396</ele>
        <time>2020-07-28T09:33:52.123Z</time>
      </trkpt>
      <trkpt lat="42.85223" lon="0.14533">
        <ele>2397</ele>
        <time>2020-07-28T09:33:53.123Z</time>
      </trkpt>
      <trkpt lat="42.85223" lon="0.14533">
        <ele>2397</ele>
        <time>2020-07-28T09:33:54.123Z</time>
      </trkpt>
      <trkpt lat="42.85224" lon="0.14534">
        <ele>2398</ele>
        <time>2020-07-28T09:33:55.123Z</time>
      </trkpt>
      <trkpt lat="42.85225" lon="0.14537">
        <ele>2398</ele>
        <time>2020-07-28T09:33:56.123Z</time>
      </trkpt>
      <trkpt lat="42.85225" lon="0.14537">
        <ele>2398</ele>
        <time>2020-07-28T09:33:57.123Z</time>
      </trkpt>
      <trkpt lat="42.85226" lon="0.14537">
        <ele>2399</ele>
        <time>2020-07-28T09:33:58.123Z</time>
      </trkpt>
      <trkpt lat="42.85226" lon="0.14538">
        <ele>2400</ele>
        <time>2020-07-28T09:33:59.123Z</time>
      </trkpt>
      <trkpt lat="42.85226" lon="0.14538">
        <ele>2400</ele>
        <time>2020-07-28T09:34:00.123Z</time>
      </trkpt>
      <trkpt lat="42.85227" lon="0.14539">
        <ele>2399</ele>
        <time>2020-07-28T09:34:01.123Z</time>
      </trkpt>
      <trkpt lat="42.85226" lon="0.14539">
        <ele>2398</ele>
        <time>2020-07-28T09:34:02.123Z</time>
      </trkpt>
      <trkpt lat="42.85226" lon="0.14539">
        <ele>2398</ele>
        <time>2020-07-28T09:34:03.123Z</time>
      </trkpt>
      <trkpt lat="42.85226" lon="0.14539">
        <ele>2398</ele>
        <time>2020-07-28T09:34:04.123Z</time>
      </trkpt>
      <trkpt lat="42.85226" lon="0.14539">
        <ele>2398</ele>
        <time>2020-07-28T09:34:05.123Z</time>
      </trkpt>
      <trkpt lat="42.85225" lon="0.14538">
        <ele>2398</ele>
        <time>2020-07-28T09:34:06.123Z</time>
      </trkpt>
      <trkpt lat="42.85225" lon="0.14538">
        <ele>2399</ele>
        <time>2020-07-28T09:34:07.123Z</time>
      </trkpt>
      <trkpt lat="42.85224" lon="0.14538">
        <ele>2400</ele>
        <time>2020-07-28T09:34:08.123Z</time>
      </trkpt>
      <trkpt lat="42.85224" lon="0.14538">
        <ele>2400</ele>
        <time>2020-07-28T09:34:09.123Z</time>
      </trkpt>
      <trkpt lat="42.85224" lon="0.14537">
        <ele>2400</ele>
        <time>2020-07-28T09:34:10.123Z</time>
      </trkpt>
      <trkpt lat="42.85224" lon="0.14536">
        <ele>2401</ele>
        <time>2020-07-28T09:34:11.123Z</time>
      </trkpt>
      <trkpt lat="42.85224" lon="0.14536">
        <ele>2401</ele>
        <time>2020-07-28T09:34:12.123Z</time>
      </trkpt>
      <trkpt lat="42.85224" lon="0.14536">
        <ele>2400</ele>
        <time>2020-07-28T09:34:13.123Z</time>
      </trkpt>
      <trkpt lat="42.85226" lon="0.14538">
        <ele>2400</ele>
        <time>2020-07-28T09:34:14.123Z</time>
      </trkpt>
      <trkpt lat="42.85226" lon="0.14538">
        <ele>2400</ele>
        <time>2020-07-28T09:34:15.123Z</time>
      </trkpt>
      <trkpt lat="42.85226" lon="0.14539">
        <ele>2400</ele>
        <time>2020-07-28T09:34:16.123Z</time>
      </trkpt>
      <trkpt lat="42.85227" lon="0.14539">
        <ele>2401</ele>
        <time>2020-07-28T09:34:17.123Z</time>
      </trkpt>
      <trkpt lat="42.85227" lon="0.14539">
        <ele>2401</ele>
        <time>2020-07-28T09:34:18.123Z</time>
      </trkpt>
      <trkpt lat="42.85226" lon="0.14539">
        <ele>2401</ele>
        <time>2020-07-28T09:34:19.123Z</time>
      </trkpt>
      <trkpt lat="42.85226" lon="0.14539">
        <ele>2402</ele>
        <time>2020-07-28T09:34:20.123Z</time>
      </trkpt>
      <trkpt lat="42.85226" lon="0.14539">
        <ele>2402</ele>
        <time>2020-07-28T09:34:21.123Z</time>
      </trkpt>
      <trkpt lat="42.85226" lon="0.1454">
        <ele>2402</ele>
        <time>2020-07-28T09:34:22.123Z</time>
      </trkpt>
      <trkpt lat="42.85226" lon="0.14539">
        <ele>2403</ele>
        <time>2020-07-28T09:34:23.123Z</time>
      </trkpt>
      <trkpt lat="42.85226" lon="0.14539">
        <ele>2403</ele>
        <time>2020-07-28T09:34:24.123Z</time>
      </trkpt>
      <trkpt lat="42.85225" lon="0.14539">
        <ele>2403</ele>
        <time>2020-07-28T09:34:25.123Z</time>
      </trkpt>
      <trkpt lat="42.85225" lon="0.14538">
        <ele>2403</ele>
        <time>2020-07-28T09:34:26.123Z</time>
      </trkpt>
      <trkpt lat="42.85224" lon="0.14538">
        <ele>2404</ele>
        <time>2020-07-28T09:34:27.123Z</time>
      </trkpt>
      <trkpt lat="42.85224" lon="0.14537">
        <ele>2403</ele>
        <time>2020-07-28T09:34:28.123Z</time>
      </trkpt>
      <trkpt lat="42.85222" lon="0.14536">
        <ele>2404</ele>
        <time>2020-07-28T09:34:29.123Z</time>
      </trkpt>
      <trkpt lat="42.85222" lon="0.14536">
        <ele>2404</ele>
        <time>2020-07-28T09:34:30.123Z</time>
      </trkpt>
      <trkpt lat="42.85222" lon="0.14536">
        <ele>2404</ele>
        <time>2020-07-28T09:34:31.123Z</time>
      </trkpt>
      <trkpt lat="42.85219" lon="0.14535">
        <ele>2404</ele>
        <time>2020-07-28T09:34:32.123Z</time>
      </trkpt>
      <trkpt lat="42.85219" lon="0.14535">
        <ele>2404</ele>
        <time>2020-07-28T09:34:33.123Z</time>
      </trkpt>
      <trkpt lat="42.85219" lon="0.14534">
        <ele>2404</ele>
        <time>2020-07-28T09:34:34.123Z</time>
      </trkpt>
      <trkpt lat="42.85218" lon="0.14532">
        <ele>2403</ele>
        <time>2020-07-28T09:34:35.123Z</time>
      </trkpt>
      <trkpt lat="42.85218" lon="0.14532">
        <ele>2403</ele>
        <time>2020-07-28T09:34:36.123Z</time>
      </trkpt>
      <trkpt lat="42.85218" lon="0.14532">
        <ele>2403</ele>
        <time>2020-07-28T09:34:37.123Z</time>
      </trkpt>
      <trkpt lat="42.85217" lon="0.1453">
        <ele>2402</ele>
        <time>2020-07-28T09:34:38.123Z</time>
      </trkpt>
      <trkpt lat="42.85217" lon="0.1453">
        <ele>2402</ele>
        <time>2020-07-28T09:34:39.123Z</time>
      </trkpt>
      <trkpt lat="42.85217" lon="0.14529">
        <ele>2402</ele>
        <time>2020-07-28T09:34:40.123Z</time>
      </trkpt>
      <trkpt lat="42.85218" lon="0.14526">
        <ele>2403</ele>
        <time>2020-07-28T09:34:41.123Z</time>
      </trkpt>
      <trkpt lat="42.85218" lon="0.14526">
        <ele>2403</ele>
        <time>2020-07-28T09:34:42.123Z</time>
      </trkpt>
      <trkpt lat="42.85218" lon="0.14523">
        <ele>2403</ele>
        <time>2020-07-28T09:34:43.123Z</time>
      </trkpt>
      <trkpt lat="42.85219" lon="0.14517">
        <ele>2402</ele>
        <time>2020-07-28T09:34:44.123Z</time>
      </trkpt>
      <trkpt lat="42.85219" lon="0.14517">
        <ele>2402</ele>
        <time>2020-07-28T09:34:45.123Z</time>
      </trkpt>
      <trkpt lat="42.85219" lon="0.14515">
        <ele>2403</ele>
        <time>2020-07-28T09:34:46.123Z</time>
      </trkpt>
      <trkpt lat="42.85219" lon="0.14513">
        <ele>2403</ele>
        <time>2020-07-28T09:34:47.123Z</time>
      </trkpt>
      <trkpt lat="42.85219" lon="0.14512">
        <ele>2403</ele>
        <time>2020-07-28T09:34:48.123Z</time>
      </trkpt>
      <trkpt lat="42.85219" lon="0.14512">
        <ele>2403</ele>
        <time>2020-07-28T09:34:49.123Z</time>
      </trkpt>
      <trkpt lat="42.85219" lon="0.14506">
        <ele>2402</ele>
        <time>2020-07-28T09:34:50.123Z</time>
      </trkpt>
      <trkpt lat="42.85219" lon="0.14506">
        <ele>2402</ele>
        <time>2020-07-28T09:34:51.123Z</time>
      </trkpt>
      <trkpt lat="42.85219" lon="0.14503">
        <ele>2401</ele>
        <time>2020-07-28T09:34:52.123Z</time>
      </trkpt>
      <trkpt lat="42.8522" lon="0.14499">
        <ele>2401</ele>
        <time>2020-07-28T09:34:53.123Z</time>
      </trkpt>
      <trkpt lat="42.8522" lon="0.14499">
        <ele>2401</ele>
        <time>2020-07-28T09:34:54.123Z</time>
      </trkpt>
      <trkpt lat="42.85221" lon="0.14497">
        <ele>2399</ele>
        <time>2020-07-28T09:34:55.123Z</time>
      </trkpt>
      <trkpt lat="42.85223" lon="0.14493">
        <ele>2400</ele>
        <time>2020-07-28T09:34:56.123Z</time>
      </trkpt>
      <trkpt lat="42.85223" lon="0.14493">
        <ele>2400</ele>
        <time>2020-07-28T09:34:57.123Z</time>
      </trkpt>
      <trkpt lat="42.85224" lon="0.14492">
        <ele>2400</ele>
        <time>2020-07-28T09:34:58.123Z</time>
      </trkpt>
      <trkpt lat="42.85226" lon="0.1449">
        <ele>2401</ele>
        <time>2020-07-28T09:34:59.123Z</time>
      </trkpt>
      <trkpt lat="42.85226" lon="0.1449">
        <ele>2401</ele>
        <time>2020-07-28T09:35:00.123Z</time>
      </trkpt>
      <trkpt lat="42.85227" lon="0.1449">
        <ele>2402</ele>
        <time>2020-07-28T09:35:01.123Z</time>
      </trkpt>
      <trkpt lat="42.85228" lon="0.14487">
        <ele>2402</ele>
        <time>2020-07-28T09:35:02.123Z</time>
      </trkpt>
      <trkpt lat="42.85228" lon="0.14487">
        <ele>2402</ele>
        <time>2020-07-28T09:35:03.123Z</time>
      </trkpt>
      <trkpt lat="42.85229" lon="0.14486">
        <ele>2402</ele>
        <time>2020-07-28T09:35:04.123Z</time>
      </trkpt>
      <trkpt lat="42.85231" lon="0.14483">
        <ele>2402</ele>
        <time>2020-07-28T09:35:05.123Z</time>
      </trkpt>
      <trkpt lat="42.85231" lon="0.14483">
        <ele>2402</ele>
        <time>2020-07-28T09:35:06.123Z</time>
      </trkpt>
      <trkpt lat="42.85231" lon="0.14483">
        <ele>2402</ele>
        <time>2020-07-28T09:35:07.123Z</time>
      </trkpt>
      <trkpt lat="42.85233" lon="0.14479">
        <ele>2401</ele>
        <time>2020-07-28T09:35:08.123Z</time>
      </trkpt>
      <trkpt lat="42.85233" lon="0.14476">
        <ele>2402</ele>
        <time>2020-07-28T09:35:09.123Z</time>
      </trkpt>
      <trkpt lat="42.85234" lon="0.14474">
        <ele>2402</ele>
        <time>2020-07-28T09:35:10.123Z</time>
      </trkpt>
      <trkpt lat="42.85235" lon="0.14468">
        <ele>2401</ele>
        <time>2020-07-28T09:35:11.123Z</time>
      </trkpt>
      <trkpt lat="42.85235" lon="0.14468">
        <ele>2401</ele>
        <time>2020-07-28T09:35:12.123Z</time>
      </trkpt>
      <trkpt lat="42.85235" lon="0.14466">
        <ele>2402</ele>
        <time>2020-07-28T09:35:13.123Z</time>
      </trkpt>
      <trkpt lat="42.85235" lon="0.14462">
        <ele>2402</ele>
        <time>2020-07-28T09:35:14.123Z</time>
      </trkpt>
      <trkpt lat="42.85235" lon="0.14462">
        <ele>2402</ele>
        <time>2020-07-28T09:35:15.123Z</time>
      </trkpt>
      <trkpt lat="42.85234" lon="0.14461">
        <ele>2402</ele>
        <time>2020-07-28T09:35:16.123Z</time>
      </trkpt>
      <trkpt lat="42.85234" lon="0.14458">
        <ele>2401</ele>
        <time>2020-07-28T09:35:17.123Z</time>
      </trkpt>
      <trkpt lat="42.85234" lon="0.14458">
        <ele>2401</ele>
        <time>2020-07-28T09:35:18.123Z</time>
      </trkpt>
      <trkpt lat="42.85234" lon="0.14454">
        <ele>2400</ele>
        <time>2020-07-28T09:35:19.123Z</time>
      </trkpt>
      <trkpt lat="42.85234" lon="0.1445">
        <ele>2400</ele>
        <time>2020-07-28T09:35:20.123Z</time>
      </trkpt>
      <trkpt lat="42.85234" lon="0.1445">
        <ele>2400</ele>
        <time>2020-07-28T09:35:21.123Z</time>
      </trkpt>
      <trkpt lat="42.85234" lon="0.14447">
        <ele>2400</ele>
        <time>2020-07-28T09:35:22.123Z</time>
      </trkpt>
      <trkpt lat="42.85232" lon="0.14443">
        <ele>2400</ele>
        <time>2020-07-28T09:35:23.123Z</time>
      </trkpt>
      <trkpt lat="42.85232" lon="0.14443">
        <ele>2400</ele>
        <time>2020-07-28T09:35:24.123Z</time>
      </trkpt>
      <trkpt lat="42.85232" lon="0.14443">
        <ele>2400</ele>
        <time>2020-07-28T09:35:25.123Z</time>
      </trkpt>
      <trkpt lat="42.8523" lon="0.14437">
        <ele>2399</ele>
        <time>2020-07-28T09:35:26.123Z</time>
      </trkpt>
      <trkpt lat="42.8523" lon="0.14437">
        <ele>2399</ele>
        <time>2020-07-28T09:35:27.123Z</time>
      </trkpt>
      <trkpt lat="42.8523" lon="0.14436">
        <ele>2399</ele>
        <time>2020-07-28T09:35:28.123Z</time>
      </trkpt>
      <trkpt lat="42.85229" lon="0.14435">
        <ele>2398</ele>
        <time>2020-07-28T09:35:29.123Z</time>
      </trkpt>
      <trkpt lat="42.85229" lon="0.14435">
        <ele>2398</ele>
        <time>2020-07-28T09:35:30.123Z</time>
      </trkpt>
      <trkpt lat="42.85229" lon="0.14435">
        <ele>2398</ele>
        <time>2020-07-28T09:35:31.123Z</time>
      </trkpt>
      <trkpt lat="42.85228" lon="0.14434">
        <ele>2397</ele>
        <time>2020-07-28T09:35:32.123Z</time>
      </trkpt>
      <trkpt lat="42.85227" lon="0.14433">
        <ele>2398</ele>
        <time>2020-07-28T09:35:33.123Z</time>
      </trkpt>
      <trkpt lat="42.85226" lon="0.14433">
        <ele>2398</ele>
        <time>2020-07-28T09:35:34.123Z</time>
      </trkpt>
      <trkpt lat="42.85223" lon="0.14433">
        <ele>2398</ele>
        <time>2020-07-28T09:35:35.123Z</time>
      </trkpt>
      <trkpt lat="42.85223" lon="0.14433">
        <ele>2398</ele>
        <time>2020-07-28T09:35:36.123Z</time>
      </trkpt>
      <trkpt lat="42.85222" lon="0.14434">
        <ele>2398</ele>
        <time>2020-07-28T09:35:37.123Z</time>
      </trkpt>
      <trkpt lat="42.85219" lon="0.14434">
        <ele>2398</ele>
        <time>2020-07-28T09:35:38.123Z</time>
      </trkpt>
      <trkpt lat="42.85219" lon="0.14434">
        <ele>2398</ele>
        <time>2020-07-28T09:35:39.123Z</time>
      </trkpt>
      <trkpt lat="42.85219" lon="0.14434">
        <ele>2398</ele>
        <time>2020-07-28T09:35:40.123Z</time>
      </trkpt>
      <trkpt lat="42.85215" lon="0.14437">
        <ele>2397</ele>
        <time>2020-07-28T09:35:41.123Z</time>
      </trkpt>
      <trkpt lat="42.85215" lon="0.14437">
        <ele>2397</ele>
        <time>2020-07-28T09:35:42.123Z</time>
      </trkpt>
      <trkpt lat="42.85214" lon="0.14438">
        <ele>2397</ele>
        <time>2020-07-28T09:35:43.123Z</time>
      </trkpt>
      <trkpt lat="42.85212" lon="0.14441">
        <ele>2396</ele>
        <time>2020-07-28T09:35:44.123Z</time>
      </trkpt>
      <trkpt lat="42.85212" lon="0.14441">
        <ele>2396</ele>
        <time>2020-07-28T09:35:45.123Z</time>
      </trkpt>
      <trkpt lat="42.85212" lon="0.14441">
        <ele>2396</ele>
        <time>2020-07-28T09:35:46.123Z</time>
      </trkpt>
      <trkpt lat="42.85209" lon="0.14444">
        <ele>2395</ele>
        <time>2020-07-28T09:35:47.123Z</time>
      </trkpt>
      <trkpt lat="42.85209" lon="0.14444">
        <ele>2395</ele>
        <time>2020-07-28T09:35:48.123Z</time>
      </trkpt>
      <trkpt lat="42.85208" lon="0.14444">
        <ele>2395</ele>
        <time>2020-07-28T09:35:49.123Z</time>
      </trkpt>
      <trkpt lat="42.85207" lon="0.14445">
        <ele>2394</ele>
        <time>2020-07-28T09:35:50.123Z</time>
      </trkpt>
      <trkpt lat="42.85205" lon="0.14445">
        <ele>2394</ele>
        <time>2020-07-28T09:35:51.123Z</time>
      </trkpt>
      <trkpt lat="42.85205" lon="0.14445">
        <ele>2394</ele>
        <time>2020-07-28T09:35:52.123Z</time>
      </trkpt>
      <trkpt lat="42.85205" lon="0.14446">
        <ele>2394</ele>
        <time>2020-07-28T09:35:53.123Z</time>
      </trkpt>
      <trkpt lat="42.85205" lon="0.14446">
        <ele>2394</ele>
        <time>2020-07-28T09:35:54.123Z</time>
      </trkpt>
      <trkpt lat="42.85204" lon="0.14447">
        <ele>2393</ele>
        <time>2020-07-28T09:35:55.123Z</time>
      </trkpt>
      <trkpt lat="42.85202" lon="0.14448">
        <ele>2392</ele>
        <time>2020-07-28T09:35:56.123Z</time>
      </trkpt>
      <trkpt lat="42.85202" lon="0.14448">
        <ele>2392</ele>
        <time>2020-07-28T09:35:57.123Z</time>
      </trkpt>
      <trkpt lat="42.85202" lon="0.14448">
        <ele>2392</ele>
        <time>2020-07-28T09:35:58.123Z</time>
      </trkpt>
      <trkpt lat="42.85199" lon="0.14448">
        <ele>2392</ele>
        <time>2020-07-28T09:35:59.123Z</time>
      </trkpt>
      <trkpt lat="42.85199" lon="0.14448">
        <ele>2392</ele>
        <time>2020-07-28T09:36:00.123Z</time>
      </trkpt>
      <trkpt lat="42.85198" lon="0.14448">
        <ele>2392</ele>
        <time>2020-07-28T09:36:01.123Z</time>
      </trkpt>
      <trkpt lat="42.85198" lon="0.14449">
        <ele>2392</ele>
        <time>2020-07-28T09:36:02.123Z</time>
      </trkpt>
      <trkpt lat="42.85198" lon="0.14449">
        <ele>2392</ele>
        <time>2020-07-28T09:36:03.123Z</time>
      </trkpt>
      <trkpt lat="42.85196" lon="0.1445">
        <ele>2392</ele>
        <time>2020-07-28T09:36:04.123Z</time>
      </trkpt>
      <trkpt lat="42.85194" lon="0.1445">
        <ele>2391</ele>
        <time>2020-07-28T09:36:05.123Z</time>
      </trkpt>
      <trkpt lat="42.85194" lon="0.1445">
        <ele>2391</ele>
        <time>2020-07-28T09:36:06.123Z</time>
      </trkpt>
      <trkpt lat="42.85193" lon="0.1445">
        <ele>2391</ele>
        <time>2020-07-28T09:36:07.123Z</time>
      </trkpt>
      <trkpt lat="42.85193" lon="0.1445">
        <ele>2391</ele>
        <time>2020-07-28T09:36:08.123Z</time>
      </trkpt>
      <trkpt lat="42.85193" lon="0.1445">
        <ele>2391</ele>
        <time>2020-07-28T09:36:09.123Z</time>
      </trkpt>
      <trkpt lat="42.85193" lon="0.1445">
        <ele>2391</ele>
        <time>2020-07-28T09:36:10.123Z</time>
      </trkpt>
      <trkpt lat="42.85187" lon="0.14447">
        <ele>2392</ele>
        <time>2020-07-28T09:36:11.123Z</time>
      </trkpt>
      <trkpt lat="42.85187" lon="0.14447">
        <ele>2392</ele>
        <time>2020-07-28T09:36:12.123Z</time>
      </trkpt>
      <trkpt lat="42.85185" lon="0.14446">
        <ele>2393</ele>
        <time>2020-07-28T09:36:13.123Z</time>
      </trkpt>
      <trkpt lat="42.85183" lon="0.14445">
        <ele>2393</ele>
        <time>2020-07-28T09:36:14.123Z</time>
      </trkpt>
      <trkpt lat="42.85182" lon="0.14444">
        <ele>2392</ele>
        <time>2020-07-28T09:36:15.123Z</time>
      </trkpt>
      <trkpt lat="42.85182" lon="0.14444">
        <ele>2392</ele>
        <time>2020-07-28T09:36:16.123Z</time>
      </trkpt>
      <trkpt lat="42.85178" lon="0.14438">
        <ele>2393</ele>
        <time>2020-07-28T09:36:17.123Z</time>
      </trkpt>
      <trkpt lat="42.85178" lon="0.14438">
        <ele>2393</ele>
        <time>2020-07-28T09:36:18.123Z</time>
      </trkpt>
      <trkpt lat="42.85177" lon="0.14437">
        <ele>2392</ele>
        <time>2020-07-28T09:36:19.123Z</time>
      </trkpt>
      <trkpt lat="42.85176" lon="0.14434">
        <ele>2392</ele>
        <time>2020-07-28T09:36:20.123Z</time>
      </trkpt>
      <trkpt lat="42.85176" lon="0.14434">
        <ele>2392</ele>
        <time>2020-07-28T09:36:21.123Z</time>
      </trkpt>
      <trkpt lat="42.85175" lon="0.14433">
        <ele>2392</ele>
        <time>2020-07-28T09:36:22.123Z</time>
      </trkpt>
      <trkpt lat="42.85174" lon="0.14432">
        <ele>2390</ele>
        <time>2020-07-28T09:36:23.123Z</time>
      </trkpt>
      <trkpt lat="42.85174" lon="0.14432">
        <ele>2390</ele>
        <time>2020-07-28T09:36:24.123Z</time>
      </trkpt>
      <trkpt lat="42.85173" lon="0.14431">
        <ele>2390</ele>
        <time>2020-07-28T09:36:25.123Z</time>
      </trkpt>
      <trkpt lat="42.85172" lon="0.1443">
        <ele>2390</ele>
        <time>2020-07-28T09:36:26.123Z</time>
      </trkpt>
      <trkpt lat="42.85172" lon="0.1443">
        <ele>2390</ele>
        <time>2020-07-28T09:36:27.123Z</time>
      </trkpt>
      <trkpt lat="42.8517" lon="0.14429">
        <ele>2389</ele>
        <time>2020-07-28T09:36:28.123Z</time>
      </trkpt>
      <trkpt lat="42.85168" lon="0.14429">
        <ele>2388</ele>
        <time>2020-07-28T09:36:29.123Z</time>
      </trkpt>
      <trkpt lat="42.85168" lon="0.14429">
        <ele>2388</ele>
        <time>2020-07-28T09:36:30.123Z</time>
      </trkpt>
      <trkpt lat="42.85167" lon="0.14428">
        <ele>2387</ele>
        <time>2020-07-28T09:36:31.123Z</time>
      </trkpt>
      <trkpt lat="42.85166" lon="0.14427">
        <ele>2387</ele>
        <time>2020-07-28T09:36:32.123Z</time>
      </trkpt>
      <trkpt lat="42.85166" lon="0.14427">
        <ele>2387</ele>
        <time>2020-07-28T09:36:33.123Z</time>
      </trkpt>
      <trkpt lat="42.85163" lon="0.14425">
        <ele>2385</ele>
        <time>2020-07-28T09:36:34.123Z</time>
      </trkpt>
      <trkpt lat="42.85162" lon="0.14425">
        <ele>2385</ele>
        <time>2020-07-28T09:36:35.123Z</time>
      </trkpt>
      <trkpt lat="42.85161" lon="0.14425">
        <ele>2384</ele>
        <time>2020-07-28T09:36:36.123Z</time>
      </trkpt>
      <trkpt lat="42.8516" lon="0.14425">
        <ele>2384</ele>
        <time>2020-07-28T09:36:37.123Z</time>
      </trkpt>
      <trkpt lat="42.85159" lon="0.14424">
        <ele>2385</ele>
        <time>2020-07-28T09:36:38.123Z</time>
      </trkpt>
      <trkpt lat="42.85159" lon="0.14424">
        <ele>2385</ele>
        <time>2020-07-28T09:36:39.123Z</time>
      </trkpt>
      <trkpt lat="42.85158" lon="0.14423">
        <ele>2383</ele>
        <time>2020-07-28T09:36:40.123Z</time>
      </trkpt>
      <trkpt lat="42.85157" lon="0.14422">
        <ele>2383</ele>
        <time>2020-07-28T09:36:41.123Z</time>
      </trkpt>
      <trkpt lat="42.85157" lon="0.14422">
        <ele>2383</ele>
        <time>2020-07-28T09:36:42.123Z</time>
      </trkpt>
      <trkpt lat="42.85157" lon="0.14422">
        <ele>2383</ele>
        <time>2020-07-28T09:36:43.123Z</time>
      </trkpt>
      <trkpt lat="42.8515" lon="0.1442">
        <ele>2386</ele>
        <time>2020-07-28T09:36:44.123Z</time>
      </trkpt>
      <trkpt lat="42.8515" lon="0.1442">
        <ele>2386</ele>
        <time>2020-07-28T09:36:45.123Z</time>
      </trkpt>
      <trkpt lat="42.85149" lon="0.14421">
        <ele>2385</ele>
        <time>2020-07-28T09:36:46.123Z</time>
      </trkpt>
      <trkpt lat="42.85147" lon="0.14422">
        <ele>2384</ele>
        <time>2020-07-28T09:36:47.123Z</time>
      </trkpt>
      <trkpt lat="42.85147" lon="0.14422">
        <ele>2384</ele>
        <time>2020-07-28T09:36:48.123Z</time>
      </trkpt>
      <trkpt lat="42.85147" lon="0.14422">
        <ele>2384</ele>
        <time>2020-07-28T09:36:49.123Z</time>
      </trkpt>
      <trkpt lat="42.85143" lon="0.14421">
        <ele>2386</ele>
        <time>2020-07-28T09:36:50.123Z</time>
      </trkpt>
      <trkpt lat="42.85143" lon="0.14421">
        <ele>2386</ele>
        <time>2020-07-28T09:36:51.123Z</time>
      </trkpt>
      <trkpt lat="42.85142" lon="0.1442">
        <ele>2387</ele>
        <time>2020-07-28T09:36:52.123Z</time>
      </trkpt>
      <trkpt lat="42.85141" lon="0.14419">
        <ele>2388</ele>
        <time>2020-07-28T09:36:53.123Z</time>
      </trkpt>
      <trkpt lat="42.85141" lon="0.14419">
        <ele>2388</ele>
        <time>2020-07-28T09:36:54.123Z</time>
      </trkpt>
      <trkpt lat="42.85141" lon="0.14418">
        <ele>2387</ele>
        <time>2020-07-28T09:36:55.123Z</time>
      </trkpt>
      <trkpt lat="42.85141" lon="0.14418">
        <ele>2387</ele>
        <time>2020-07-28T09:36:56.123Z</time>
      </trkpt>
      <trkpt lat="42.85141" lon="0.14418">
        <ele>2387</ele>
        <time>2020-07-28T09:36:57.123Z</time>
      </trkpt>
      <trkpt lat="42.85141" lon="0.14418">
        <ele>2387</ele>
        <time>2020-07-28T09:36:58.123Z</time>
      </trkpt>
      <trkpt lat="42.85141" lon="0.14418">
        <ele>2387</ele>
        <time>2020-07-28T09:36:59.123Z</time>
      </trkpt>
      <trkpt lat="42.85141" lon="0.14418">
        <ele>2387</ele>
        <time>2020-07-28T09:37:00.123Z</time>
      </trkpt>
      <trkpt lat="42.85141" lon="0.14417">
        <ele>2387</ele>
        <time>2020-07-28T09:37:01.123Z</time>
      </trkpt>
      <trkpt lat="42.85141" lon="0.14417">
        <ele>2387</ele>
        <time>2020-07-28T09:37:02.123Z</time>
      </trkpt>
      <trkpt lat="42.85141" lon="0.14417">
        <ele>2387</ele>
        <time>2020-07-28T09:37:03.123Z</time>
      </trkpt>
      <trkpt lat="42.85141" lon="0.14417">
        <ele>2387</ele>
        <time>2020-07-28T09:37:04.123Z</time>
      </trkpt>
      <trkpt lat="42.85141" lon="0.14415">
        <ele>2385</ele>
        <time>2020-07-28T09:37:05.123Z</time>
      </trkpt>
      <trkpt lat="42.85141" lon="0.14415">
        <ele>2385</ele>
        <time>2020-07-28T09:37:06.123Z</time>
      </trkpt>
      <trkpt lat="42.85141" lon="0.14415">
        <ele>2385</ele>
        <time>2020-07-28T09:37:07.123Z</time>
      </trkpt>
      <trkpt lat="42.8514" lon="0.14412">
        <ele>2386</ele>
        <time>2020-07-28T09:37:08.123Z</time>
      </trkpt>
      <trkpt lat="42.8514" lon="0.14412">
        <ele>2386</ele>
        <time>2020-07-28T09:37:09.123Z</time>
      </trkpt>
      <trkpt lat="42.8514" lon="0.14411">
        <ele>2386</ele>
        <time>2020-07-28T09:37:10.123Z</time>
      </trkpt>
      <trkpt lat="42.85141" lon="0.14409">
        <ele>2387</ele>
        <time>2020-07-28T09:37:11.123Z</time>
      </trkpt>
      <trkpt lat="42.85141" lon="0.14409">
        <ele>2387</ele>
        <time>2020-07-28T09:37:12.123Z</time>
      </trkpt>
      <trkpt lat="42.85142" lon="0.14408">
        <ele>2387</ele>
        <time>2020-07-28T09:37:13.123Z</time>
      </trkpt>
      <trkpt lat="42.85143" lon="0.14406">
        <ele>2388</ele>
        <time>2020-07-28T09:37:14.123Z</time>
      </trkpt>
      <trkpt lat="42.85143" lon="0.14406">
        <ele>2388</ele>
        <time>2020-07-28T09:37:15.123Z</time>
      </trkpt>
      <trkpt lat="42.85143" lon="0.14406">
        <ele>2388</ele>
        <time>2020-07-28T09:37:16.123Z</time>
      </trkpt>
      <trkpt lat="42.85143" lon="0.14404">
        <ele>2389</ele>
        <time>2020-07-28T09:37:17.123Z</time>
      </trkpt>
      <trkpt lat="42.85143" lon="0.14404">
        <ele>2389</ele>
        <time>2020-07-28T09:37:18.123Z</time>
      </trkpt>
      <trkpt lat="42.85142" lon="0.14402">
        <ele>2390</ele>
        <time>2020-07-28T09:37:19.123Z</time>
      </trkpt>
      <trkpt lat="42.85142" lon="0.14398">
        <ele>2390</ele>
        <time>2020-07-28T09:37:20.123Z</time>
      </trkpt>
      <trkpt lat="42.85142" lon="0.14398">
        <ele>2390</ele>
        <time>2020-07-28T09:37:21.123Z</time>
      </trkpt>
      <trkpt lat="42.85142" lon="0.14397">
        <ele>2390</ele>
        <time>2020-07-28T09:37:22.123Z</time>
      </trkpt>
      <trkpt lat="42.85142" lon="0.14396">
        <ele>2391</ele>
        <time>2020-07-28T09:37:23.123Z</time>
      </trkpt>
      <trkpt lat="42.85142" lon="0.14396">
        <ele>2391</ele>
        <time>2020-07-28T09:37:24.123Z</time>
      </trkpt>
      <trkpt lat="42.85142" lon="0.14396">
        <ele>2391</ele>
        <time>2020-07-28T09:37:25.123Z</time>
      </trkpt>
      <trkpt lat="42.85142" lon="0.14392">
        <ele>2391</ele>
        <time>2020-07-28T09:37:26.123Z</time>
      </trkpt>
      <trkpt lat="42.85142" lon="0.14392">
        <ele>2391</ele>
        <time>2020-07-28T09:37:27.123Z</time>
      </trkpt>
      <trkpt lat="42.85142" lon="0.14392">
        <ele>2391</ele>
        <time>2020-07-28T09:37:28.123Z</time>
      </trkpt>
      <trkpt lat="42.8514" lon="0.14387">
        <ele>2392</ele>
        <time>2020-07-28T09:37:29.123Z</time>
      </trkpt>
      <trkpt lat="42.8514" lon="0.14387">
        <ele>2392</ele>
        <time>2020-07-28T09:37:30.123Z</time>
      </trkpt>
      <trkpt lat="42.8514" lon="0.14384">
        <ele>2393</ele>
        <time>2020-07-28T09:37:31.123Z</time>
      </trkpt>
      <trkpt lat="42.85139" lon="0.14383">
        <ele>2392</ele>
        <time>2020-07-28T09:37:32.123Z</time>
      </trkpt>
      <trkpt lat="42.85139" lon="0.14383">
        <ele>2392</ele>
        <time>2020-07-28T09:37:33.123Z</time>
      </trkpt>
      <trkpt lat="42.85138" lon="0.14383">
        <ele>2392</ele>
        <time>2020-07-28T09:37:34.123Z</time>
      </trkpt>
      <trkpt lat="42.85138" lon="0.14382">
        <ele>2392</ele>
        <time>2020-07-28T09:37:35.123Z</time>
      </trkpt>
      <trkpt lat="42.85138" lon="0.14382">
        <ele>2392</ele>
        <time>2020-07-28T09:37:36.123Z</time>
      </trkpt>
      <trkpt lat="42.85137" lon="0.14382">
        <ele>2392</ele>
        <time>2020-07-28T09:37:37.123Z</time>
      </trkpt>
      <trkpt lat="42.85137" lon="0.14381">
        <ele>2392</ele>
        <time>2020-07-28T09:37:38.123Z</time>
      </trkpt>
      <trkpt lat="42.85137" lon="0.14381">
        <ele>2392</ele>
        <time>2020-07-28T09:37:39.123Z</time>
      </trkpt>
      <trkpt lat="42.85137" lon="0.14381">
        <ele>2392</ele>
        <time>2020-07-28T09:37:40.123Z</time>
      </trkpt>
      <trkpt lat="42.85137" lon="0.1438">
        <ele>2391</ele>
        <time>2020-07-28T09:37:41.123Z</time>
      </trkpt>
      <trkpt lat="42.85137" lon="0.1438">
        <ele>2391</ele>
        <time>2020-07-28T09:37:42.123Z</time>
      </trkpt>
      <trkpt lat="42.85137" lon="0.1438">
        <ele>2391</ele>
        <time>2020-07-28T09:37:43.123Z</time>
      </trkpt>
      <trkpt lat="42.85138" lon="0.1438">
        <ele>2390</ele>
        <time>2020-07-28T09:37:44.123Z</time>
      </trkpt>
      <trkpt lat="42.85138" lon="0.1438">
        <ele>2390</ele>
        <time>2020-07-28T09:37:45.123Z</time>
      </trkpt>
      <trkpt lat="42.85138" lon="0.1438">
        <ele>2390</ele>
        <time>2020-07-28T09:37:46.123Z</time>
      </trkpt>
      <trkpt lat="42.85141" lon="0.14385">
        <ele>2389</ele>
        <time>2020-07-28T09:37:47.123Z</time>
      </trkpt>
      <trkpt lat="42.85141" lon="0.14385">
        <ele>2389</ele>
        <time>2020-07-28T09:37:48.123Z</time>
      </trkpt>
      <trkpt lat="42.85141" lon="0.14387">
        <ele>2389</ele>
        <time>2020-07-28T09:37:49.123Z</time>
      </trkpt>
      <trkpt lat="42.85141" lon="0.1439">
        <ele>2388</ele>
        <time>2020-07-28T09:37:50.123Z</time>
      </trkpt>
      <trkpt lat="42.85141" lon="0.1439">
        <ele>2388</ele>
        <time>2020-07-28T09:37:51.123Z</time>
      </trkpt>
      <trkpt lat="42.85142" lon="0.14392">
        <ele>2388</ele>
        <time>2020-07-28T09:37:52.123Z</time>
      </trkpt>
      <trkpt lat="42.85142" lon="0.14394">
        <ele>2388</ele>
        <time>2020-07-28T09:37:53.123Z</time>
      </trkpt>
      <trkpt lat="42.85142" lon="0.14394">
        <ele>2388</ele>
        <time>2020-07-28T09:37:54.123Z</time>
      </trkpt>
      <trkpt lat="42.85142" lon="0.14394">
        <ele>2388</ele>
        <time>2020-07-28T09:37:55.123Z</time>
      </trkpt>
      <trkpt lat="42.85143" lon="0.14399">
        <ele>2385</ele>
        <time>2020-07-28T09:37:56.123Z</time>
      </trkpt>
      <trkpt lat="42.85143" lon="0.14399">
        <ele>2385</ele>
        <time>2020-07-28T09:37:57.123Z</time>
      </trkpt>
      <trkpt lat="42.85143" lon="0.14399">
        <ele>2385</ele>
        <time>2020-07-28T09:37:58.123Z</time>
      </trkpt>
      <trkpt lat="42.85142" lon="0.14402">
        <ele>2385</ele>
        <time>2020-07-28T09:37:59.123Z</time>
      </trkpt>
      <trkpt lat="42.85142" lon="0.14404">
        <ele>2384</ele>
        <time>2020-07-28T09:38:00.123Z</time>
      </trkpt>
      <trkpt lat="42.85142" lon="0.14405">
        <ele>2384</ele>
        <time>2020-07-28T09:38:01.123Z</time>
      </trkpt>
      <trkpt lat="42.85141" lon="0.14406">
        <ele>2384</ele>
        <time>2020-07-28T09:38:02.123Z</time>
      </trkpt>
      <trkpt lat="42.85141" lon="0.14406">
        <ele>2384</ele>
        <time>2020-07-28T09:38:03.123Z</time>
      </trkpt>
      <trkpt lat="42.8514" lon="0.1441">
        <ele>2384</ele>
        <time>2020-07-28T09:38:04.123Z</time>
      </trkpt>
      <trkpt lat="42.85141" lon="0.14418">
        <ele>2385</ele>
        <time>2020-07-28T09:38:05.123Z</time>
      </trkpt>
      <trkpt lat="42.85141" lon="0.14418">
        <ele>2385</ele>
        <time>2020-07-28T09:38:06.123Z</time>
      </trkpt>
      <trkpt lat="42.85141" lon="0.14421">
        <ele>2384</ele>
        <time>2020-07-28T09:38:07.123Z</time>
      </trkpt>
      <trkpt lat="42.85141" lon="0.14425">
        <ele>2384</ele>
        <time>2020-07-28T09:38:08.123Z</time>
      </trkpt>
      <trkpt lat="42.85141" lon="0.14425">
        <ele>2384</ele>
        <time>2020-07-28T09:38:09.123Z</time>
      </trkpt>
      <trkpt lat="42.85141" lon="0.14425">
        <ele>2384</ele>
        <time>2020-07-28T09:38:10.123Z</time>
      </trkpt>
      <trkpt lat="42.85143" lon="0.14433">
        <ele>2383</ele>
        <time>2020-07-28T09:38:11.123Z</time>
      </trkpt>
      <trkpt lat="42.85143" lon="0.14433">
        <ele>2383</ele>
        <time>2020-07-28T09:38:12.123Z</time>
      </trkpt>
      <trkpt lat="42.85143" lon="0.14433">
        <ele>2383</ele>
        <time>2020-07-28T09:38:13.123Z</time>
      </trkpt>
      <trkpt lat="42.85144" lon="0.14436">
        <ele>2384</ele>
        <time>2020-07-28T09:38:14.123Z</time>
      </trkpt>
      <trkpt lat="42.85144" lon="0.14436">
        <ele>2384</ele>
        <time>2020-07-28T09:38:15.123Z</time>
      </trkpt>
      <trkpt lat="42.85144" lon="0.14436">
        <ele>2384</ele>
        <time>2020-07-28T09:38:16.123Z</time>
      </trkpt>
      <trkpt lat="42.85146" lon="0.14444">
        <ele>2385</ele>
        <time>2020-07-28T09:38:17.123Z</time>
      </trkpt>
      <trkpt lat="42.85146" lon="0.14444">
        <ele>2385</ele>
        <time>2020-07-28T09:38:18.123Z</time>
      </trkpt>
      <trkpt lat="42.85146" lon="0.14444">
        <ele>2385</ele>
        <time>2020-07-28T09:38:19.123Z</time>
      </trkpt>
      <trkpt lat="42.85147" lon="0.1445">
        <ele>2386</ele>
        <time>2020-07-28T09:38:20.123Z</time>
      </trkpt>
      <trkpt lat="42.85147" lon="0.1445">
        <ele>2386</ele>
        <time>2020-07-28T09:38:21.123Z</time>
      </trkpt>
      <trkpt lat="42.85147" lon="0.14451">
        <ele>2388</ele>
        <time>2020-07-28T09:38:22.123Z</time>
      </trkpt>
      <trkpt lat="42.85147" lon="0.14452">
        <ele>2388</ele>
        <time>2020-07-28T09:38:23.123Z</time>
      </trkpt>
      <trkpt lat="42.85147" lon="0.14451">
        <ele>2389</ele>
        <time>2020-07-28T09:38:24.123Z</time>
      </trkpt>
      <trkpt lat="42.85146" lon="0.14451">
        <ele>2389</ele>
        <time>2020-07-28T09:38:25.123Z</time>
      </trkpt>
      <trkpt lat="42.85146" lon="0.14452">
        <ele>2390</ele>
        <time>2020-07-28T09:38:26.123Z</time>
      </trkpt>
      <trkpt lat="42.85146" lon="0.14452">
        <ele>2390</ele>
        <time>2020-07-28T09:38:27.123Z</time>
      </trkpt>
      <trkpt lat="42.85146" lon="0.14452">
        <ele>2390</ele>
        <time>2020-07-28T09:38:28.123Z</time>
      </trkpt>
      <trkpt lat="42.85143" lon="0.14456">
        <ele>2388</ele>
        <time>2020-07-28T09:38:29.123Z</time>
      </trkpt>
      <trkpt lat="42.85143" lon="0.14456">
        <ele>2388</ele>
        <time>2020-07-28T09:38:30.123Z</time>
      </trkpt>
      <trkpt lat="42.8514" lon="0.14458">
        <ele>2387</ele>
        <time>2020-07-28T09:38:31.123Z</time>
      </trkpt>
      <trkpt lat="42.85138" lon="0.14459">
        <ele>2387</ele>
        <time>2020-07-28T09:38:32.123Z</time>
      </trkpt>
      <trkpt lat="42.85138" lon="0.14459">
        <ele>2387</ele>
        <time>2020-07-28T09:38:33.123Z</time>
      </trkpt>
      <trkpt lat="42.85137" lon="0.14461">
        <ele>2384</ele>
        <time>2020-07-28T09:38:34.123Z</time>
      </trkpt>
      <trkpt lat="42.85136" lon="0.14463">
        <ele>2383</ele>
        <time>2020-07-28T09:38:35.123Z</time>
      </trkpt>
      <trkpt lat="42.85136" lon="0.14463">
        <ele>2383</ele>
        <time>2020-07-28T09:38:36.123Z</time>
      </trkpt>
      <trkpt lat="42.85136" lon="0.14463">
        <ele>2382</ele>
        <time>2020-07-28T09:38:37.123Z</time>
      </trkpt>
      <trkpt lat="42.85135" lon="0.14465">
        <ele>2380</ele>
        <time>2020-07-28T09:38:38.123Z</time>
      </trkpt>
      <trkpt lat="42.85135" lon="0.14465">
        <ele>2380</ele>
        <time>2020-07-28T09:38:39.123Z</time>
      </trkpt>
      <trkpt lat="42.85134" lon="0.14466">
        <ele>2379</ele>
        <time>2020-07-28T09:38:40.123Z</time>
      </trkpt>
      <trkpt lat="42.85134" lon="0.14466">
        <ele>2379</ele>
        <time>2020-07-28T09:38:41.123Z</time>
      </trkpt>
      <trkpt lat="42.85134" lon="0.14466">
        <ele>2379</ele>
        <time>2020-07-28T09:38:42.123Z</time>
      </trkpt>
      <trkpt lat="42.85133" lon="0.14467">
        <ele>2378</ele>
        <time>2020-07-28T09:38:43.123Z</time>
      </trkpt>
      <trkpt lat="42.85133" lon="0.14467">
        <ele>2378</ele>
        <time>2020-07-28T09:38:44.123Z</time>
      </trkpt>
      <trkpt lat="42.85133" lon="0.14467">
        <ele>2378</ele>
        <time>2020-07-28T09:38:45.123Z</time>
      </trkpt>
      <trkpt lat="42.85133" lon="0.14467">
        <ele>2378</ele>
        <time>2020-07-28T09:38:46.123Z</time>
      </trkpt>
      <trkpt lat="42.85133" lon="0.14468">
        <ele>2377</ele>
        <time>2020-07-28T09:38:47.123Z</time>
      </trkpt>
      <trkpt lat="42.85133" lon="0.14468">
        <ele>2377</ele>
        <time>2020-07-28T09:38:48.123Z</time>
      </trkpt>
      <trkpt lat="42.85132" lon="0.14468">
        <ele>2376</ele>
        <time>2020-07-28T09:38:49.123Z</time>
      </trkpt>
      <trkpt lat="42.85131" lon="0.14468">
        <ele>2375</ele>
        <time>2020-07-28T09:38:50.123Z</time>
      </trkpt>
      <trkpt lat="42.85131" lon="0.14468">
        <ele>2375</ele>
        <time>2020-07-28T09:38:51.123Z</time>
      </trkpt>
      <trkpt lat="42.85131" lon="0.14468">
        <ele>2375</ele>
        <time>2020-07-28T09:38:52.123Z</time>
      </trkpt>
      <trkpt lat="42.8513" lon="0.14468">
        <ele>2375</ele>
        <time>2020-07-28T09:38:53.123Z</time>
      </trkpt>
      <trkpt lat="42.8513" lon="0.14468">
        <ele>2375</ele>
        <time>2020-07-28T09:38:54.123Z</time>
      </trkpt>
      <trkpt lat="42.8513" lon="0.14468">
        <ele>2375</ele>
        <time>2020-07-28T09:38:55.123Z</time>
      </trkpt>
      <trkpt lat="42.85129" lon="0.14469">
        <ele>2374</ele>
        <time>2020-07-28T09:38:56.123Z</time>
      </trkpt>
      <trkpt lat="42.85129" lon="0.14469">
        <ele>2374</ele>
        <time>2020-07-28T09:38:57.123Z</time>
      </trkpt>
      <trkpt lat="42.85129" lon="0.14469">
        <ele>2374</ele>
        <time>2020-07-28T09:38:58.123Z</time>
      </trkpt>
      <trkpt lat="42.85127" lon="0.1447">
        <ele>2372</ele>
        <time>2020-07-28T09:38:59.123Z</time>
      </trkpt>
      <trkpt lat="42.85127" lon="0.1447">
        <ele>2372</ele>
        <time>2020-07-28T09:39:00.123Z</time>
      </trkpt>
      <trkpt lat="42.85127" lon="0.1447">
        <ele>2372</ele>
        <time>2020-07-28T09:39:01.123Z</time>
      </trkpt>
      <trkpt lat="42.85126" lon="0.14472">
        <ele>2372</ele>
        <time>2020-07-28T09:39:02.123Z</time>
      </trkpt>
      <trkpt lat="42.85126" lon="0.14472">
        <ele>2372</ele>
        <time>2020-07-28T09:39:03.123Z</time>
      </trkpt>
      <trkpt lat="42.85126" lon="0.14472">
        <ele>2372</ele>
        <time>2020-07-28T09:39:04.123Z</time>
      </trkpt>
      <trkpt lat="42.85125" lon="0.14474">
        <ele>2370</ele>
        <time>2020-07-28T09:39:05.123Z</time>
      </trkpt>
      <trkpt lat="42.85125" lon="0.14474">
        <ele>2369</ele>
        <time>2020-07-28T09:39:06.123Z</time>
      </trkpt>
      <trkpt lat="42.85125" lon="0.14474">
        <ele>2369</ele>
        <time>2020-07-28T09:39:07.123Z</time>
      </trkpt>
      <trkpt lat="42.85124" lon="0.14476">
        <ele>2367</ele>
        <time>2020-07-28T09:39:08.123Z</time>
      </trkpt>
      <trkpt lat="42.85124" lon="0.14476">
        <ele>2367</ele>
        <time>2020-07-28T09:39:09.123Z</time>
      </trkpt>
      <trkpt lat="42.85123" lon="0.14476">
        <ele>2367</ele>
        <time>2020-07-28T09:39:10.123Z</time>
      </trkpt>
      <trkpt lat="42.85123" lon="0.14476">
        <ele>2367</ele>
        <time>2020-07-28T09:39:11.123Z</time>
      </trkpt>
      <trkpt lat="42.85123" lon="0.14476">
        <ele>2367</ele>
        <time>2020-07-28T09:39:12.123Z</time>
      </trkpt>
      <trkpt lat="42.85123" lon="0.14476">
        <ele>2367</ele>
        <time>2020-07-28T09:39:13.123Z</time>
      </trkpt>
      <trkpt lat="42.85122" lon="0.14477">
        <ele>2366</ele>
        <time>2020-07-28T09:39:14.123Z</time>
      </trkpt>
      <trkpt lat="42.85122" lon="0.14477">
        <ele>2366</ele>
        <time>2020-07-28T09:39:15.123Z</time>
      </trkpt>
      <trkpt lat="42.85122" lon="0.14477">
        <ele>2366</ele>
        <time>2020-07-28T09:39:16.123Z</time>
      </trkpt>
      <trkpt lat="42.85122" lon="0.14478">
        <ele>2366</ele>
        <time>2020-07-28T09:39:17.123Z</time>
      </trkpt>
      <trkpt lat="42.85122" lon="0.14478">
        <ele>2366</ele>
        <time>2020-07-28T09:39:18.123Z</time>
      </trkpt>
      <trkpt lat="42.85122" lon="0.14478">
        <ele>2366</ele>
        <time>2020-07-28T09:39:19.123Z</time>
      </trkpt>
      <trkpt lat="42.85121" lon="0.14479">
        <ele>2364</ele>
        <time>2020-07-28T09:39:20.123Z</time>
      </trkpt>
      <trkpt lat="42.85121" lon="0.14479">
        <ele>2364</ele>
        <time>2020-07-28T09:39:21.123Z</time>
      </trkpt>
      <trkpt lat="42.85121" lon="0.14479">
        <ele>2364</ele>
        <time>2020-07-28T09:39:22.123Z</time>
      </trkpt>
      <trkpt lat="42.85121" lon="0.14479">
        <ele>2363</ele>
        <time>2020-07-28T09:39:23.123Z</time>
      </trkpt>
      <trkpt lat="42.85121" lon="0.14479">
        <ele>2363</ele>
        <time>2020-07-28T09:39:24.123Z</time>
      </trkpt>
      <trkpt lat="42.85121" lon="0.14479">
        <ele>2363</ele>
        <time>2020-07-28T09:39:25.123Z</time>
      </trkpt>
      <trkpt lat="42.85121" lon="0.14479">
        <ele>2362</ele>
        <time>2020-07-28T09:39:26.123Z</time>
      </trkpt>
      <trkpt lat="42.85121" lon="0.14479">
        <ele>2362</ele>
        <time>2020-07-28T09:39:27.123Z</time>
      </trkpt>
      <trkpt lat="42.85121" lon="0.14479">
        <ele>2362</ele>
        <time>2020-07-28T09:39:28.123Z</time>
      </trkpt>
      <trkpt lat="42.8512" lon="0.14479">
        <ele>2359</ele>
        <time>2020-07-28T09:39:29.123Z</time>
      </trkpt>
      <trkpt lat="42.8512" lon="0.14479">
        <ele>2359</ele>
        <time>2020-07-28T09:39:30.123Z</time>
      </trkpt>
      <trkpt lat="42.85119" lon="0.1448">
        <ele>2359</ele>
        <time>2020-07-28T09:39:31.123Z</time>
      </trkpt>
      <trkpt lat="42.85119" lon="0.14481">
        <ele>2359</ele>
        <time>2020-07-28T09:39:32.123Z</time>
      </trkpt>
      <trkpt lat="42.85119" lon="0.14481">
        <ele>2359</ele>
        <time>2020-07-28T09:39:33.123Z</time>
      </trkpt>
      <trkpt lat="42.85118" lon="0.14481">
        <ele>2357</ele>
        <time>2020-07-28T09:39:34.123Z</time>
      </trkpt>
      <trkpt lat="42.85117" lon="0.14482">
        <ele>2356</ele>
        <time>2020-07-28T09:39:35.123Z</time>
      </trkpt>
      <trkpt lat="42.85117" lon="0.14482">
        <ele>2356</ele>
        <time>2020-07-28T09:39:36.123Z</time>
      </trkpt>
      <trkpt lat="42.85117" lon="0.14482">
        <ele>2356</ele>
        <time>2020-07-28T09:39:37.123Z</time>
      </trkpt>
      <trkpt lat="42.85116" lon="0.14483">
        <ele>2355</ele>
        <time>2020-07-28T09:39:38.123Z</time>
      </trkpt>
      <trkpt lat="42.85116" lon="0.14483">
        <ele>2355</ele>
        <time>2020-07-28T09:39:39.123Z</time>
      </trkpt>
      <trkpt lat="42.85116" lon="0.14483">
        <ele>2355</ele>
        <time>2020-07-28T09:39:40.123Z</time>
      </trkpt>
      <trkpt lat="42.85116" lon="0.14485">
        <ele>2353</ele>
        <time>2020-07-28T09:39:41.123Z</time>
      </trkpt>
      <trkpt lat="42.85116" lon="0.14485">
        <ele>2353</ele>
        <time>2020-07-28T09:39:42.123Z</time>
      </trkpt>
      <trkpt lat="42.85116" lon="0.14485">
        <ele>2353</ele>
        <time>2020-07-28T09:39:43.123Z</time>
      </trkpt>
      <trkpt lat="42.85115" lon="0.14486">
        <ele>2353</ele>
        <time>2020-07-28T09:39:44.123Z</time>
      </trkpt>
      <trkpt lat="42.85115" lon="0.14486">
        <ele>2353</ele>
        <time>2020-07-28T09:39:45.123Z</time>
      </trkpt>
      <trkpt lat="42.85115" lon="0.14486">
        <ele>2353</ele>
        <time>2020-07-28T09:39:46.123Z</time>
      </trkpt>
      <trkpt lat="42.85115" lon="0.14487">
        <ele>2352</ele>
        <time>2020-07-28T09:39:47.123Z</time>
      </trkpt>
      <trkpt lat="42.85115" lon="0.14487">
        <ele>2352</ele>
        <time>2020-07-28T09:39:48.123Z</time>
      </trkpt>
      <trkpt lat="42.85115" lon="0.14487">
        <ele>2352</ele>
        <time>2020-07-28T09:39:49.123Z</time>
      </trkpt>
      <trkpt lat="42.85113" lon="0.14488">
        <ele>2352</ele>
        <time>2020-07-28T09:39:50.123Z</time>
      </trkpt>
      <trkpt lat="42.85113" lon="0.14488">
        <ele>2352</ele>
        <time>2020-07-28T09:39:51.123Z</time>
      </trkpt>
      <trkpt lat="42.85113" lon="0.14488">
        <ele>2352</ele>
        <time>2020-07-28T09:39:52.123Z</time>
      </trkpt>
      <trkpt lat="42.85113" lon="0.14489">
        <ele>2352</ele>
        <time>2020-07-28T09:39:53.123Z</time>
      </trkpt>
      <trkpt lat="42.85113" lon="0.14489">
        <ele>2352</ele>
        <time>2020-07-28T09:39:54.123Z</time>
      </trkpt>
      <trkpt lat="42.85113" lon="0.14489">
        <ele>2352</ele>
        <time>2020-07-28T09:39:55.123Z</time>
      </trkpt>
      <trkpt lat="42.85112" lon="0.14491">
        <ele>2351</ele>
        <time>2020-07-28T09:39:56.123Z</time>
      </trkpt>
      <trkpt lat="42.85112" lon="0.14491">
        <ele>2351</ele>
        <time>2020-07-28T09:39:57.123Z</time>
      </trkpt>
      <trkpt lat="42.85112" lon="0.14491">
        <ele>2351</ele>
        <time>2020-07-28T09:39:58.123Z</time>
      </trkpt>
      <trkpt lat="42.85112" lon="0.14492">
        <ele>2350</ele>
        <time>2020-07-28T09:39:59.123Z</time>
      </trkpt>
      <trkpt lat="42.85112" lon="0.14492">
        <ele>2350</ele>
        <time>2020-07-28T09:40:00.123Z</time>
      </trkpt>
      <trkpt lat="42.85112" lon="0.14492">
        <ele>2350</ele>
        <time>2020-07-28T09:40:01.123Z</time>
      </trkpt>
      <trkpt lat="42.85113" lon="0.14494">
        <ele>2348</ele>
        <time>2020-07-28T09:40:02.123Z</time>
      </trkpt>
      <trkpt lat="42.85113" lon="0.14494">
        <ele>2348</ele>
        <time>2020-07-28T09:40:03.123Z</time>
      </trkpt>
      <trkpt lat="42.85113" lon="0.14494">
        <ele>2348</ele>
        <time>2020-07-28T09:40:04.123Z</time>
      </trkpt>
      <trkpt lat="42.85111" lon="0.14496">
        <ele>2344</ele>
        <time>2020-07-28T09:40:05.123Z</time>
      </trkpt>
      <trkpt lat="42.85111" lon="0.14496">
        <ele>2344</ele>
        <time>2020-07-28T09:40:06.123Z</time>
      </trkpt>
      <trkpt lat="42.85111" lon="0.14496">
        <ele>2344</ele>
        <time>2020-07-28T09:40:07.123Z</time>
      </trkpt>
      <trkpt lat="42.85105" lon="0.14496">
        <ele>2342</ele>
        <time>2020-07-28T09:40:08.123Z</time>
      </trkpt>
      <trkpt lat="42.85105" lon="0.14496">
        <ele>2342</ele>
        <time>2020-07-28T09:40:09.123Z</time>
      </trkpt>
      <trkpt lat="42.85105" lon="0.14496">
        <ele>2342</ele>
        <time>2020-07-28T09:40:10.123Z</time>
      </trkpt>
      <trkpt lat="42.85102" lon="0.14497">
        <ele>2344</ele>
        <time>2020-07-28T09:40:11.123Z</time>
      </trkpt>
      <trkpt lat="42.85102" lon="0.14497">
        <ele>2344</ele>
        <time>2020-07-28T09:40:12.123Z</time>
      </trkpt>
      <trkpt lat="42.85102" lon="0.14497">
        <ele>2344</ele>
        <time>2020-07-28T09:40:13.123Z</time>
      </trkpt>
      <trkpt lat="42.851" lon="0.14497">
        <ele>2345</ele>
        <time>2020-07-28T09:40:14.123Z</time>
      </trkpt>
      <trkpt lat="42.851" lon="0.14497">
        <ele>2345</ele>
        <time>2020-07-28T09:40:15.123Z</time>
      </trkpt>
      <trkpt lat="42.851" lon="0.14497">
        <ele>2345</ele>
        <time>2020-07-28T09:40:16.123Z</time>
      </trkpt>
      <trkpt lat="42.85098" lon="0.14497">
        <ele>2344</ele>
        <time>2020-07-28T09:40:17.123Z</time>
      </trkpt>
      <trkpt lat="42.85098" lon="0.14497">
        <ele>2344</ele>
        <time>2020-07-28T09:40:18.123Z</time>
      </trkpt>
      <trkpt lat="42.85097" lon="0.14496">
        <ele>2344</ele>
        <time>2020-07-28T09:40:19.123Z</time>
      </trkpt>
      <trkpt lat="42.85096" lon="0.14496">
        <ele>2344</ele>
        <time>2020-07-28T09:40:20.123Z</time>
      </trkpt>
      <trkpt lat="42.85096" lon="0.14496">
        <ele>2344</ele>
        <time>2020-07-28T09:40:21.123Z</time>
      </trkpt>
      <trkpt lat="42.85096" lon="0.14496">
        <ele>2344</ele>
        <time>2020-07-28T09:40:22.123Z</time>
      </trkpt>
      <trkpt lat="42.85096" lon="0.14495">
        <ele>2344</ele>
        <time>2020-07-28T09:40:23.123Z</time>
      </trkpt>
      <trkpt lat="42.85096" lon="0.14495">
        <ele>2344</ele>
        <time>2020-07-28T09:40:24.123Z</time>
      </trkpt>
      <trkpt lat="42.85096" lon="0.14495">
        <ele>2344</ele>
        <time>2020-07-28T09:40:25.123Z</time>
      </trkpt>
      <trkpt lat="42.85096" lon="0.14496">
        <ele>2344</ele>
        <time>2020-07-28T09:40:26.123Z</time>
      </trkpt>
      <trkpt lat="42.85096" lon="0.14496">
        <ele>2344</ele>
        <time>2020-07-28T09:40:27.123Z</time>
      </trkpt>
      <trkpt lat="42.85096" lon="0.14496">
        <ele>2344</ele>
        <time>2020-07-28T09:40:28.123Z</time>
      </trkpt>
      <trkpt lat="42.85094" lon="0.14501">
        <ele>2345</ele>
        <time>2020-07-28T09:40:29.123Z</time>
      </trkpt>
      <trkpt lat="42.85094" lon="0.14501">
        <ele>2345</ele>
        <time>2020-07-28T09:40:30.123Z</time>
      </trkpt>
      <trkpt lat="42.85094" lon="0.14501">
        <ele>2345</ele>
        <time>2020-07-28T09:40:31.123Z</time>
      </trkpt>
      <trkpt lat="42.8509" lon="0.14505">
        <ele>2345</ele>
        <time>2020-07-28T09:40:32.123Z</time>
      </trkpt>
      <trkpt lat="42.8509" lon="0.14505">
        <ele>2345</ele>
        <time>2020-07-28T09:40:33.123Z</time>
      </trkpt>
      <trkpt lat="42.8509" lon="0.14505">
        <ele>2345</ele>
        <time>2020-07-28T09:40:34.123Z</time>
      </trkpt>
      <trkpt lat="42.85083" lon="0.14511">
        <ele>2346</ele>
        <time>2020-07-28T09:40:35.123Z</time>
      </trkpt>
      <trkpt lat="42.85083" lon="0.14511">
        <ele>2346</ele>
        <time>2020-07-28T09:40:36.123Z</time>
      </trkpt>
      <trkpt lat="42.85082" lon="0.14511">
        <ele>2347</ele>
        <time>2020-07-28T09:40:37.123Z</time>
      </trkpt>
      <trkpt lat="42.85081" lon="0.14511">
        <ele>2346</ele>
        <time>2020-07-28T09:40:38.123Z</time>
      </trkpt>
      <trkpt lat="42.85081" lon="0.14511">
        <ele>2346</ele>
        <time>2020-07-28T09:40:39.123Z</time>
      </trkpt>
      <trkpt lat="42.8508" lon="0.14512">
        <ele>2345</ele>
        <time>2020-07-28T09:40:40.123Z</time>
      </trkpt>
      <trkpt lat="42.85079" lon="0.14512">
        <ele>2345</ele>
        <time>2020-07-28T09:40:41.123Z</time>
      </trkpt>
      <trkpt lat="42.85079" lon="0.14512">
        <ele>2345</ele>
        <time>2020-07-28T09:40:42.123Z</time>
      </trkpt>
      <trkpt lat="42.85077" lon="0.14514">
        <ele>2344</ele>
        <time>2020-07-28T09:40:43.123Z</time>
      </trkpt>
      <trkpt lat="42.85075" lon="0.14514">
        <ele>2344</ele>
        <time>2020-07-28T09:40:44.123Z</time>
      </trkpt>
      <trkpt lat="42.85075" lon="0.14514">
        <ele>2344</ele>
        <time>2020-07-28T09:40:45.123Z</time>
      </trkpt>
      <trkpt lat="42.85073" lon="0.14516">
        <ele>2343</ele>
        <time>2020-07-28T09:40:46.123Z</time>
      </trkpt>
      <trkpt lat="42.85071" lon="0.14517">
        <ele>2342</ele>
        <time>2020-07-28T09:40:47.123Z</time>
      </trkpt>
      <trkpt lat="42.85071" lon="0.14517">
        <ele>2342</ele>
        <time>2020-07-28T09:40:48.123Z</time>
      </trkpt>
      <trkpt lat="42.8507" lon="0.14518">
        <ele>2342</ele>
        <time>2020-07-28T09:40:49.123Z</time>
      </trkpt>
      <trkpt lat="42.85068" lon="0.14518">
        <ele>2342</ele>
        <time>2020-07-28T09:40:50.123Z</time>
      </trkpt>
      <trkpt lat="42.85068" lon="0.14518">
        <ele>2342</ele>
        <time>2020-07-28T09:40:51.123Z</time>
      </trkpt>
      <trkpt lat="42.85068" lon="0.14518">
        <ele>2342</ele>
        <time>2020-07-28T09:40:52.123Z</time>
      </trkpt>
      <trkpt lat="42.85064" lon="0.14515">
        <ele>2340</ele>
        <time>2020-07-28T09:40:53.123Z</time>
      </trkpt>
      <trkpt lat="42.85064" lon="0.14512">
        <ele>2339</ele>
        <time>2020-07-28T09:40:54.123Z</time>
      </trkpt>
      <trkpt lat="42.85063" lon="0.14509">
        <ele>2340</ele>
        <time>2020-07-28T09:40:55.123Z</time>
      </trkpt>
      <trkpt lat="42.85062" lon="0.14503">
        <ele>2340</ele>
        <time>2020-07-28T09:40:56.123Z</time>
      </trkpt>
      <trkpt lat="42.85062" lon="0.14503">
        <ele>2340</ele>
        <time>2020-07-28T09:40:57.123Z</time>
      </trkpt>
      <trkpt lat="42.85062" lon="0.14503">
        <ele>2340</ele>
        <time>2020-07-28T09:40:58.123Z</time>
      </trkpt>
      <trkpt lat="42.8506" lon="0.14493">
        <ele>2339</ele>
        <time>2020-07-28T09:40:59.123Z</time>
      </trkpt>
      <trkpt lat="42.8506" lon="0.14493">
        <ele>2339</ele>
        <time>2020-07-28T09:41:00.123Z</time>
      </trkpt>
      <trkpt lat="42.8506" lon="0.14493">
        <ele>2339</ele>
        <time>2020-07-28T09:41:01.123Z</time>
      </trkpt>
      <trkpt lat="42.85059" lon="0.14487">
        <ele>2338</ele>
        <time>2020-07-28T09:41:02.123Z</time>
      </trkpt>
      <trkpt lat="42.85059" lon="0.14487">
        <ele>2338</ele>
        <time>2020-07-28T09:41:03.123Z</time>
      </trkpt>
      <trkpt lat="42.85058" lon="0.14482">
        <ele>2337</ele>
        <time>2020-07-28T09:41:04.123Z</time>
      </trkpt>
      <trkpt lat="42.85058" lon="0.14474">
        <ele>2335</ele>
        <time>2020-07-28T09:41:05.123Z</time>
      </trkpt>
      <trkpt lat="42.85058" lon="0.14474">
        <ele>2335</ele>
        <time>2020-07-28T09:41:06.123Z</time>
      </trkpt>
      <trkpt lat="42.85058" lon="0.14474">
        <ele>2335</ele>
        <time>2020-07-28T09:41:07.123Z</time>
      </trkpt>
      <trkpt lat="42.85057" lon="0.14467">
        <ele>2334</ele>
        <time>2020-07-28T09:41:08.123Z</time>
      </trkpt>
      <trkpt lat="42.85057" lon="0.14467">
        <ele>2334</ele>
        <time>2020-07-28T09:41:09.123Z</time>
      </trkpt>
      <trkpt lat="42.85056" lon="0.14465">
        <ele>2333</ele>
        <time>2020-07-28T09:41:10.123Z</time>
      </trkpt>
      <trkpt lat="42.85054" lon="0.14458">
        <ele>2333</ele>
        <time>2020-07-28T09:41:11.123Z</time>
      </trkpt>
      <trkpt lat="42.85054" lon="0.14458">
        <ele>2333</ele>
        <time>2020-07-28T09:41:12.123Z</time>
      </trkpt>
      <trkpt lat="42.85054" lon="0.14455">
        <ele>2333</ele>
        <time>2020-07-28T09:41:13.123Z</time>
      </trkpt>
      <trkpt lat="42.85054" lon="0.1445">
        <ele>2331</ele>
        <time>2020-07-28T09:41:14.123Z</time>
      </trkpt>
      <trkpt lat="42.85055" lon="0.14447">
        <ele>2332</ele>
        <time>2020-07-28T09:41:15.123Z</time>
      </trkpt>
      <trkpt lat="42.85055" lon="0.14445">
        <ele>2331</ele>
        <time>2020-07-28T09:41:16.123Z</time>
      </trkpt>
      <trkpt lat="42.85055" lon="0.14444">
        <ele>2330</ele>
        <time>2020-07-28T09:41:17.123Z</time>
      </trkpt>
      <trkpt lat="42.85055" lon="0.14444">
        <ele>2330</ele>
        <time>2020-07-28T09:41:18.123Z</time>
      </trkpt>
      <trkpt lat="42.85056" lon="0.14441">
        <ele>2329</ele>
        <time>2020-07-28T09:41:19.123Z</time>
      </trkpt>
      <trkpt lat="42.85056" lon="0.14439">
        <ele>2329</ele>
        <time>2020-07-28T09:41:20.123Z</time>
      </trkpt>
      <trkpt lat="42.85056" lon="0.14439">
        <ele>2329</ele>
        <time>2020-07-28T09:41:21.123Z</time>
      </trkpt>
      <trkpt lat="42.85055" lon="0.14437">
        <ele>2328</ele>
        <time>2020-07-28T09:41:22.123Z</time>
      </trkpt>
      <trkpt lat="42.85054" lon="0.14434">
        <ele>2327</ele>
        <time>2020-07-28T09:41:23.123Z</time>
      </trkpt>
      <trkpt lat="42.85054" lon="0.14434">
        <ele>2327</ele>
        <time>2020-07-28T09:41:24.123Z</time>
      </trkpt>
      <trkpt lat="42.85054" lon="0.14434">
        <ele>2327</ele>
        <time>2020-07-28T09:41:25.123Z</time>
      </trkpt>
      <trkpt lat="42.85053" lon="0.14434">
        <ele>2328</ele>
        <time>2020-07-28T09:41:26.123Z</time>
      </trkpt>
      <trkpt lat="42.85053" lon="0.14434">
        <ele>2328</ele>
        <time>2020-07-28T09:41:27.123Z</time>
      </trkpt>
      <trkpt lat="42.85053" lon="0.14434">
        <ele>2328</ele>
        <time>2020-07-28T09:41:28.123Z</time>
      </trkpt>
      <trkpt lat="42.85053" lon="0.14434">
        <ele>2328</ele>
        <time>2020-07-28T09:41:29.123Z</time>
      </trkpt>
      <trkpt lat="42.85053" lon="0.14434">
        <ele>2328</ele>
        <time>2020-07-28T09:41:30.123Z</time>
      </trkpt>
      <trkpt lat="42.85053" lon="0.14434">
        <ele>2329</ele>
        <time>2020-07-28T09:41:31.123Z</time>
      </trkpt>
      <trkpt lat="42.85053" lon="0.14434">
        <ele>2330</ele>
        <time>2020-07-28T09:41:32.123Z</time>
      </trkpt>
      <trkpt lat="42.85053" lon="0.14434">
        <ele>2330</ele>
        <time>2020-07-28T09:41:33.123Z</time>
      </trkpt>
      <trkpt lat="42.85053" lon="0.14434">
        <ele>2330</ele>
        <time>2020-07-28T09:41:34.123Z</time>
      </trkpt>
      <trkpt lat="42.85053" lon="0.14435">
        <ele>2331</ele>
        <time>2020-07-28T09:41:35.123Z</time>
      </trkpt>
      <trkpt lat="42.85053" lon="0.14435">
        <ele>2330</ele>
        <time>2020-07-28T09:41:36.123Z</time>
      </trkpt>
      <trkpt lat="42.85054" lon="0.14435">
        <ele>2331</ele>
        <time>2020-07-28T09:41:37.123Z</time>
      </trkpt>
      <trkpt lat="42.85054" lon="0.14435">
        <ele>2331</ele>
        <time>2020-07-28T09:41:38.123Z</time>
      </trkpt>
      <trkpt lat="42.85054" lon="0.14435">
        <ele>2331</ele>
        <time>2020-07-28T09:41:39.123Z</time>
      </trkpt>
      <trkpt lat="42.85054" lon="0.14435">
        <ele>2331</ele>
        <time>2020-07-28T09:41:40.123Z</time>
      </trkpt>
      <trkpt lat="42.85054" lon="0.14435">
        <ele>2331</ele>
        <time>2020-07-28T09:41:41.123Z</time>
      </trkpt>
      <trkpt lat="42.85054" lon="0.14435">
        <ele>2331</ele>
        <time>2020-07-28T09:41:42.123Z</time>
      </trkpt>
      <trkpt lat="42.85054" lon="0.14435">
        <ele>2331</ele>
        <time>2020-07-28T09:41:43.123Z</time>
      </trkpt>
      <trkpt lat="42.85054" lon="0.14435">
        <ele>2330</ele>
        <time>2020-07-28T09:41:44.123Z</time>
      </trkpt>
      <trkpt lat="42.85054" lon="0.14435">
        <ele>2330</ele>
        <time>2020-07-28T09:41:45.123Z</time>
      </trkpt>
      <trkpt lat="42.85054" lon="0.14435">
        <ele>2330</ele>
        <time>2020-07-28T09:41:46.123Z</time>
      </trkpt>
      <trkpt lat="42.85054" lon="0.14437">
        <ele>2330</ele>
        <time>2020-07-28T09:41:47.123Z</time>
      </trkpt>
      <trkpt lat="42.85054" lon="0.14437">
        <ele>2330</ele>
        <time>2020-07-28T09:41:48.123Z</time>
      </trkpt>
      <trkpt lat="42.85053" lon="0.14437">
        <ele>2331</ele>
        <time>2020-07-28T09:41:49.123Z</time>
      </trkpt>
      <trkpt lat="42.85053" lon="0.14437">
        <ele>2330</ele>
        <time>2020-07-28T09:41:50.123Z</time>
      </trkpt>
      <trkpt lat="42.85053" lon="0.14437">
        <ele>2330</ele>
        <time>2020-07-28T09:41:51.123Z</time>
      </trkpt>
      <trkpt lat="42.85053" lon="0.14437">
        <ele>2330</ele>
        <time>2020-07-28T09:41:52.123Z</time>
      </trkpt>
      <trkpt lat="42.85053" lon="0.14437">
        <ele>2330</ele>
        <time>2020-07-28T09:41:53.123Z</time>
      </trkpt>
      <trkpt lat="42.85053" lon="0.14437">
        <ele>2330</ele>
        <time>2020-07-28T09:41:54.123Z</time>
      </trkpt>
      <trkpt lat="42.85053" lon="0.14437">
        <ele>2330</ele>
        <time>2020-07-28T09:41:55.123Z</time>
      </trkpt>
      <trkpt lat="42.85053" lon="0.14437">
        <ele>2330</ele>
        <time>2020-07-28T09:41:56.123Z</time>
      </trkpt>
      <trkpt lat="42.85053" lon="0.14437">
        <ele>2330</ele>
        <time>2020-07-28T09:41:57.123Z</time>
      </trkpt>
      <trkpt lat="42.85053" lon="0.14437">
        <ele>2330</ele>
        <time>2020-07-28T09:41:58.123Z</time>
      </trkpt>
      <trkpt lat="42.85053" lon="0.14437">
        <ele>2330</ele>
        <time>2020-07-28T09:41:59.123Z</time>
      </trkpt>
      <trkpt lat="42.85053" lon="0.14437">
        <ele>2330</ele>
        <time>2020-07-28T09:42:00.123Z</time>
      </trkpt>
      <trkpt lat="42.85053" lon="0.14437">
        <ele>2330</ele>
        <time>2020-07-28T09:42:01.123Z</time>
      </trkpt>
      <trkpt lat="42.85053" lon="0.14437">
        <ele>2331</ele>
        <time>2020-07-28T09:42:02.123Z</time>
      </trkpt>
      <trkpt lat="42.85053" lon="0.14437">
        <ele>2331</ele>
        <time>2020-07-28T09:42:03.123Z</time>
      </trkpt>
      <trkpt lat="42.85053" lon="0.14437">
        <ele>2331</ele>
        <time>2020-07-28T09:42:04.123Z</time>
      </trkpt>
      <trkpt lat="42.85052" lon="0.14436">
        <ele>2331</ele>
        <time>2020-07-28T09:42:05.123Z</time>
      </trkpt>
      <trkpt lat="42.85052" lon="0.14436">
        <ele>2331</ele>
        <time>2020-07-28T09:42:06.123Z</time>
      </trkpt>
      <trkpt lat="42.85052" lon="0.14436">
        <ele>2330</ele>
        <time>2020-07-28T09:42:07.123Z</time>
      </trkpt>
      <trkpt lat="42.85051" lon="0.14436">
        <ele>2330</ele>
        <time>2020-07-28T09:42:08.123Z</time>
      </trkpt>
      <trkpt lat="42.85051" lon="0.14436">
        <ele>2330</ele>
        <time>2020-07-28T09:42:09.123Z</time>
      </trkpt>
      <trkpt lat="42.85051" lon="0.14436">
        <ele>2330</ele>
        <time>2020-07-28T09:42:10.123Z</time>
      </trkpt>
      <trkpt lat="42.8505" lon="0.14438">
        <ele>2330</ele>
        <time>2020-07-28T09:42:11.123Z</time>
      </trkpt>
      <trkpt lat="42.8505" lon="0.14438">
        <ele>2330</ele>
        <time>2020-07-28T09:42:12.123Z</time>
      </trkpt>
      <trkpt lat="42.8505" lon="0.14438">
        <ele>2330</ele>
        <time>2020-07-28T09:42:13.123Z</time>
      </trkpt>
      <trkpt lat="42.85047" lon="0.14441">
        <ele>2329</ele>
        <time>2020-07-28T09:42:14.123Z</time>
      </trkpt>
      <trkpt lat="42.85047" lon="0.14441">
        <ele>2329</ele>
        <time>2020-07-28T09:42:15.123Z</time>
      </trkpt>
      <trkpt lat="42.85046" lon="0.14442">
        <ele>2330</ele>
        <time>2020-07-28T09:42:16.123Z</time>
      </trkpt>
      <trkpt lat="42.85045" lon="0.14442">
        <ele>2330</ele>
        <time>2020-07-28T09:42:17.123Z</time>
      </trkpt>
      <trkpt lat="42.85044" lon="0.14441">
        <ele>2329</ele>
        <time>2020-07-28T09:42:18.123Z</time>
      </trkpt>
      <trkpt lat="42.85044" lon="0.1444">
        <ele>2328</ele>
        <time>2020-07-28T09:42:19.123Z</time>
      </trkpt>
      <trkpt lat="42.85044" lon="0.14439">
        <ele>2328</ele>
        <time>2020-07-28T09:42:20.123Z</time>
      </trkpt>
      <trkpt lat="42.85044" lon="0.14438">
        <ele>2327</ele>
        <time>2020-07-28T09:42:21.123Z</time>
      </trkpt>
      <trkpt lat="42.85044" lon="0.14436">
        <ele>2326</ele>
        <time>2020-07-28T09:42:22.123Z</time>
      </trkpt>
      <trkpt lat="42.85044" lon="0.14434">
        <ele>2326</ele>
        <time>2020-07-28T09:42:23.123Z</time>
      </trkpt>
      <trkpt lat="42.85044" lon="0.14434">
        <ele>2326</ele>
        <time>2020-07-28T09:42:24.123Z</time>
      </trkpt>
      <trkpt lat="42.85043" lon="0.14434">
        <ele>2326</ele>
        <time>2020-07-28T09:42:25.123Z</time>
      </trkpt>
      <trkpt lat="42.85043" lon="0.14433">
        <ele>2326</ele>
        <time>2020-07-28T09:42:26.123Z</time>
      </trkpt>
      <trkpt lat="42.85043" lon="0.14433">
        <ele>2326</ele>
        <time>2020-07-28T09:42:27.123Z</time>
      </trkpt>
      <trkpt lat="42.85043" lon="0.14433">
        <ele>2326</ele>
        <time>2020-07-28T09:42:28.123Z</time>
      </trkpt>
      <trkpt lat="42.85043" lon="0.1443">
        <ele>2324</ele>
        <time>2020-07-28T09:42:29.123Z</time>
      </trkpt>
      <trkpt lat="42.85043" lon="0.1443">
        <ele>2324</ele>
        <time>2020-07-28T09:42:30.123Z</time>
      </trkpt>
      <trkpt lat="42.85043" lon="0.14428">
        <ele>2324</ele>
        <time>2020-07-28T09:42:31.123Z</time>
      </trkpt>
      <trkpt lat="42.85042" lon="0.14426">
        <ele>2323</ele>
        <time>2020-07-28T09:42:32.123Z</time>
      </trkpt>
      <trkpt lat="42.85042" lon="0.14426">
        <ele>2323</ele>
        <time>2020-07-28T09:42:33.123Z</time>
      </trkpt>
      <trkpt lat="42.85042" lon="0.14426">
        <ele>2323</ele>
        <time>2020-07-28T09:42:34.123Z</time>
      </trkpt>
      <trkpt lat="42.85042" lon="0.14424">
        <ele>2323</ele>
        <time>2020-07-28T09:42:35.123Z</time>
      </trkpt>
      <trkpt lat="42.85042" lon="0.14424">
        <ele>2323</ele>
        <time>2020-07-28T09:42:36.123Z</time>
      </trkpt>
      <trkpt lat="42.85042" lon="0.14424">
        <ele>2323</ele>
        <time>2020-07-28T09:42:37.123Z</time>
      </trkpt>
      <trkpt lat="42.8504" lon="0.14423">
        <ele>2321</ele>
        <time>2020-07-28T09:42:38.123Z</time>
      </trkpt>
      <trkpt lat="42.8504" lon="0.14423">
        <ele>2321</ele>
        <time>2020-07-28T09:42:39.123Z</time>
      </trkpt>
      <trkpt lat="42.8504" lon="0.14424">
        <ele>2320</ele>
        <time>2020-07-28T09:42:40.123Z</time>
      </trkpt>
      <trkpt lat="42.85039" lon="0.14424">
        <ele>2320</ele>
        <time>2020-07-28T09:42:41.123Z</time>
      </trkpt>
      <trkpt lat="42.85039" lon="0.14424">
        <ele>2320</ele>
        <time>2020-07-28T09:42:42.123Z</time>
      </trkpt>
      <trkpt lat="42.85039" lon="0.14424">
        <ele>2320</ele>
        <time>2020-07-28T09:42:43.123Z</time>
      </trkpt>
      <trkpt lat="42.85037" lon="0.14422">
        <ele>2319</ele>
        <time>2020-07-28T09:42:44.123Z</time>
      </trkpt>
      <trkpt lat="42.85037" lon="0.14422">
        <ele>2319</ele>
        <time>2020-07-28T09:42:45.123Z</time>
      </trkpt>
      <trkpt lat="42.85037" lon="0.14422">
        <ele>2319</ele>
        <time>2020-07-28T09:42:46.123Z</time>
      </trkpt>
      <trkpt lat="42.85035" lon="0.14417">
        <ele>2318</ele>
        <time>2020-07-28T09:42:47.123Z</time>
      </trkpt>
      <trkpt lat="42.85035" lon="0.14417">
        <ele>2318</ele>
        <time>2020-07-28T09:42:48.123Z</time>
      </trkpt>
      <trkpt lat="42.85035" lon="0.14415">
        <ele>2318</ele>
        <time>2020-07-28T09:42:49.123Z</time>
      </trkpt>
      <trkpt lat="42.85035" lon="0.14414">
        <ele>2318</ele>
        <time>2020-07-28T09:42:50.123Z</time>
      </trkpt>
      <trkpt lat="42.85035" lon="0.14414">
        <ele>2318</ele>
        <time>2020-07-28T09:42:51.123Z</time>
      </trkpt>
      <trkpt lat="42.85034" lon="0.14412">
        <ele>2317</ele>
        <time>2020-07-28T09:42:52.123Z</time>
      </trkpt>
      <trkpt lat="42.85034" lon="0.14412">
        <ele>2315</ele>
        <time>2020-07-28T09:42:53.123Z</time>
      </trkpt>
      <trkpt lat="42.85034" lon="0.14412">
        <ele>2315</ele>
        <time>2020-07-28T09:42:54.123Z</time>
      </trkpt>
      <trkpt lat="42.85033" lon="0.14414">
        <ele>2315</ele>
        <time>2020-07-28T09:42:55.123Z</time>
      </trkpt>
      <trkpt lat="42.85032" lon="0.14414">
        <ele>2315</ele>
        <time>2020-07-28T09:42:56.123Z</time>
      </trkpt>
      <trkpt lat="42.85032" lon="0.14414">
        <ele>2315</ele>
        <time>2020-07-28T09:42:57.123Z</time>
      </trkpt>
      <trkpt lat="42.85031" lon="0.14414">
        <ele>2315</ele>
        <time>2020-07-28T09:42:58.123Z</time>
      </trkpt>
      <trkpt lat="42.8503" lon="0.14413">
        <ele>2314</ele>
        <time>2020-07-28T09:42:59.123Z</time>
      </trkpt>
      <trkpt lat="42.8503" lon="0.14413">
        <ele>2314</ele>
        <time>2020-07-28T09:43:00.123Z</time>
      </trkpt>
      <trkpt lat="42.85029" lon="0.14412">
        <ele>2314</ele>
        <time>2020-07-28T09:43:01.123Z</time>
      </trkpt>
      <trkpt lat="42.85029" lon="0.14412">
        <ele>2313</ele>
        <time>2020-07-28T09:43:02.123Z</time>
      </trkpt>
      <trkpt lat="42.85029" lon="0.14412">
        <ele>2313</ele>
        <time>2020-07-28T09:43:03.123Z</time>
      </trkpt>
      <trkpt lat="42.85028" lon="0.14411">
        <ele>2313</ele>
        <time>2020-07-28T09:43:04.123Z</time>
      </trkpt>
      <trkpt lat="42.85027" lon="0.14412">
        <ele>2312</ele>
        <time>2020-07-28T09:43:05.123Z</time>
      </trkpt>
      <trkpt lat="42.85027" lon="0.14412">
        <ele>2312</ele>
        <time>2020-07-28T09:43:06.123Z</time>
      </trkpt>
      <trkpt lat="42.85026" lon="0.14414">
        <ele>2312</ele>
        <time>2020-07-28T09:43:07.123Z</time>
      </trkpt>
      <trkpt lat="42.85025" lon="0.14416">
        <ele>2311</ele>
        <time>2020-07-28T09:43:08.123Z</time>
      </trkpt>
      <trkpt lat="42.85025" lon="0.14416">
        <ele>2311</ele>
        <time>2020-07-28T09:43:09.123Z</time>
      </trkpt>
      <trkpt lat="42.85025" lon="0.14416">
        <ele>2311</ele>
        <time>2020-07-28T09:43:10.123Z</time>
      </trkpt>
      <trkpt lat="42.85023" lon="0.14419">
        <ele>2309</ele>
        <time>2020-07-28T09:43:11.123Z</time>
      </trkpt>
      <trkpt lat="42.85023" lon="0.14419">
        <ele>2309</ele>
        <time>2020-07-28T09:43:12.123Z</time>
      </trkpt>
      <trkpt lat="42.85022" lon="0.14419">
        <ele>2309</ele>
        <time>2020-07-28T09:43:13.123Z</time>
      </trkpt>
      <trkpt lat="42.85022" lon="0.1442">
        <ele>2309</ele>
        <time>2020-07-28T09:43:14.123Z</time>
      </trkpt>
      <trkpt lat="42.85022" lon="0.1442">
        <ele>2309</ele>
        <time>2020-07-28T09:43:15.123Z</time>
      </trkpt>
      <trkpt lat="42.85022" lon="0.1442">
        <ele>2309</ele>
        <time>2020-07-28T09:43:16.123Z</time>
      </trkpt>
      <trkpt lat="42.8502" lon="0.14419">
        <ele>2309</ele>
        <time>2020-07-28T09:43:17.123Z</time>
      </trkpt>
      <trkpt lat="42.8502" lon="0.14419">
        <ele>2309</ele>
        <time>2020-07-28T09:43:18.123Z</time>
      </trkpt>
      <trkpt lat="42.8502" lon="0.14419">
        <ele>2309</ele>
        <time>2020-07-28T09:43:19.123Z</time>
      </trkpt>
      <trkpt lat="42.85019" lon="0.14417">
        <ele>2307</ele>
        <time>2020-07-28T09:43:20.123Z</time>
      </trkpt>
      <trkpt lat="42.85019" lon="0.14417">
        <ele>2307</ele>
        <time>2020-07-28T09:43:21.123Z</time>
      </trkpt>
      <trkpt lat="42.85019" lon="0.14417">
        <ele>2307</ele>
        <time>2020-07-28T09:43:22.123Z</time>
      </trkpt>
      <trkpt lat="42.85017" lon="0.14418">
        <ele>2306</ele>
        <time>2020-07-28T09:43:23.123Z</time>
      </trkpt>
      <trkpt lat="42.85017" lon="0.14418">
        <ele>2306</ele>
        <time>2020-07-28T09:43:24.123Z</time>
      </trkpt>
      <trkpt lat="42.85017" lon="0.14418">
        <ele>2306</ele>
        <time>2020-07-28T09:43:25.123Z</time>
      </trkpt>
      <trkpt lat="42.85015" lon="0.14418">
        <ele>2307</ele>
        <time>2020-07-28T09:43:26.123Z</time>
      </trkpt>
      <trkpt lat="42.85015" lon="0.14418">
        <ele>2307</ele>
        <time>2020-07-28T09:43:27.123Z</time>
      </trkpt>
      <trkpt lat="42.85015" lon="0.14418">
        <ele>2307</ele>
        <time>2020-07-28T09:43:28.123Z</time>
      </trkpt>
      <trkpt lat="42.85011" lon="0.14413">
        <ele>2307</ele>
        <time>2020-07-28T09:43:29.123Z</time>
      </trkpt>
      <trkpt lat="42.85011" lon="0.14413">
        <ele>2307</ele>
        <time>2020-07-28T09:43:30.123Z</time>
      </trkpt>
      <trkpt lat="42.85011" lon="0.14413">
        <ele>2307</ele>
        <time>2020-07-28T09:43:31.123Z</time>
      </trkpt>
      <trkpt lat="42.85009" lon="0.14409">
        <ele>2305</ele>
        <time>2020-07-28T09:43:32.123Z</time>
      </trkpt>
      <trkpt lat="42.85009" lon="0.14409">
        <ele>2305</ele>
        <time>2020-07-28T09:43:33.123Z</time>
      </trkpt>
      <trkpt lat="42.85009" lon="0.14409">
        <ele>2305</ele>
        <time>2020-07-28T09:43:34.123Z</time>
      </trkpt>
      <trkpt lat="42.85007" lon="0.14406">
        <ele>2306</ele>
        <time>2020-07-28T09:43:35.123Z</time>
      </trkpt>
      <trkpt lat="42.85007" lon="0.14406">
        <ele>2306</ele>
        <time>2020-07-28T09:43:36.123Z</time>
      </trkpt>
      <trkpt lat="42.85006" lon="0.14406">
        <ele>2304</ele>
        <time>2020-07-28T09:43:37.123Z</time>
      </trkpt>
      <trkpt lat="42.85005" lon="0.14406">
        <ele>2304</ele>
        <time>2020-07-28T09:43:38.123Z</time>
      </trkpt>
      <trkpt lat="42.85005" lon="0.14406">
        <ele>2304</ele>
        <time>2020-07-28T09:43:39.123Z</time>
      </trkpt>
      <trkpt lat="42.85005" lon="0.14407">
        <ele>2304</ele>
        <time>2020-07-28T09:43:40.123Z</time>
      </trkpt>
      <trkpt lat="42.85005" lon="0.14407">
        <ele>2303</ele>
        <time>2020-07-28T09:43:41.123Z</time>
      </trkpt>
      <trkpt lat="42.85005" lon="0.14407">
        <ele>2303</ele>
        <time>2020-07-28T09:43:42.123Z</time>
      </trkpt>
      <trkpt lat="42.85005" lon="0.14407">
        <ele>2303</ele>
        <time>2020-07-28T09:43:43.123Z</time>
      </trkpt>
      <trkpt lat="42.85003" lon="0.14408">
        <ele>2302</ele>
        <time>2020-07-28T09:43:44.123Z</time>
      </trkpt>
      <trkpt lat="42.85003" lon="0.14408">
        <ele>2302</ele>
        <time>2020-07-28T09:43:45.123Z</time>
      </trkpt>
      <trkpt lat="42.85003" lon="0.14408">
        <ele>2302</ele>
        <time>2020-07-28T09:43:46.123Z</time>
      </trkpt>
      <trkpt lat="42.85002" lon="0.1441">
        <ele>2301</ele>
        <time>2020-07-28T09:43:47.123Z</time>
      </trkpt>
      <trkpt lat="42.85002" lon="0.1441">
        <ele>2301</ele>
        <time>2020-07-28T09:43:48.123Z</time>
      </trkpt>
      <trkpt lat="42.85002" lon="0.1441">
        <ele>2301</ele>
        <time>2020-07-28T09:43:49.123Z</time>
      </trkpt>
      <trkpt lat="42.85001" lon="0.14411">
        <ele>2300</ele>
        <time>2020-07-28T09:43:50.123Z</time>
      </trkpt>
      <trkpt lat="42.85001" lon="0.14411">
        <ele>2300</ele>
        <time>2020-07-28T09:43:51.123Z</time>
      </trkpt>
      <trkpt lat="42.85001" lon="0.14411">
        <ele>2300</ele>
        <time>2020-07-28T09:43:52.123Z</time>
      </trkpt>
      <trkpt lat="42.84998" lon="0.14413">
        <ele>2299</ele>
        <time>2020-07-28T09:43:53.123Z</time>
      </trkpt>
      <trkpt lat="42.84998" lon="0.14413">
        <ele>2299</ele>
        <time>2020-07-28T09:43:54.123Z</time>
      </trkpt>
      <trkpt lat="42.84998" lon="0.14413">
        <ele>2299</ele>
        <time>2020-07-28T09:43:55.123Z</time>
      </trkpt>
      <trkpt lat="42.84996" lon="0.14413">
        <ele>2299</ele>
        <time>2020-07-28T09:43:56.123Z</time>
      </trkpt>
      <trkpt lat="42.84996" lon="0.14413">
        <ele>2299</ele>
        <time>2020-07-28T09:43:57.123Z</time>
      </trkpt>
      <trkpt lat="42.84996" lon="0.14413">
        <ele>2299</ele>
        <time>2020-07-28T09:43:58.123Z</time>
      </trkpt>
      <trkpt lat="42.84993" lon="0.14412">
        <ele>2298</ele>
        <time>2020-07-28T09:43:59.123Z</time>
      </trkpt>
      <trkpt lat="42.84993" lon="0.14412">
        <ele>2298</ele>
        <time>2020-07-28T09:44:00.123Z</time>
      </trkpt>
      <trkpt lat="42.84993" lon="0.14412">
        <ele>2298</ele>
        <time>2020-07-28T09:44:01.123Z</time>
      </trkpt>
      <trkpt lat="42.84991" lon="0.1441">
        <ele>2298</ele>
        <time>2020-07-28T09:44:02.123Z</time>
      </trkpt>
      <trkpt lat="42.84991" lon="0.1441">
        <ele>2298</ele>
        <time>2020-07-28T09:44:03.123Z</time>
      </trkpt>
      <trkpt lat="42.84991" lon="0.1441">
        <ele>2298</ele>
        <time>2020-07-28T09:44:04.123Z</time>
      </trkpt>
      <trkpt lat="42.84989" lon="0.14408">
        <ele>2296</ele>
        <time>2020-07-28T09:44:05.123Z</time>
      </trkpt>
      <trkpt lat="42.84989" lon="0.14408">
        <ele>2296</ele>
        <time>2020-07-28T09:44:06.123Z</time>
      </trkpt>
      <trkpt lat="42.84989" lon="0.14408">
        <ele>2296</ele>
        <time>2020-07-28T09:44:07.123Z</time>
      </trkpt>
      <trkpt lat="42.84986" lon="0.14405">
        <ele>2295</ele>
        <time>2020-07-28T09:44:08.123Z</time>
      </trkpt>
      <trkpt lat="42.84986" lon="0.14405">
        <ele>2295</ele>
        <time>2020-07-28T09:44:09.123Z</time>
      </trkpt>
      <trkpt lat="42.84986" lon="0.14405">
        <ele>2295</ele>
        <time>2020-07-28T09:44:10.123Z</time>
      </trkpt>
      <trkpt lat="42.84984" lon="0.14403">
        <ele>2292</ele>
        <time>2020-07-28T09:44:11.123Z</time>
      </trkpt>
      <trkpt lat="42.84984" lon="0.14403">
        <ele>2292</ele>
        <time>2020-07-28T09:44:12.123Z</time>
      </trkpt>
      <trkpt lat="42.84984" lon="0.14403">
        <ele>2292</ele>
        <time>2020-07-28T09:44:13.123Z</time>
      </trkpt>
      <trkpt lat="42.84981" lon="0.144">
        <ele>2290</ele>
        <time>2020-07-28T09:44:14.123Z</time>
      </trkpt>
      <trkpt lat="42.84981" lon="0.144">
        <ele>2290</ele>
        <time>2020-07-28T09:44:15.123Z</time>
      </trkpt>
      <trkpt lat="42.8498" lon="0.144">
        <ele>2290</ele>
        <time>2020-07-28T09:44:16.123Z</time>
      </trkpt>
      <trkpt lat="42.8498" lon="0.14399">
        <ele>2289</ele>
        <time>2020-07-28T09:44:17.123Z</time>
      </trkpt>
      <trkpt lat="42.8498" lon="0.14399">
        <ele>2289</ele>
        <time>2020-07-28T09:44:18.123Z</time>
      </trkpt>
      <trkpt lat="42.8498" lon="0.14399">
        <ele>2289</ele>
        <time>2020-07-28T09:44:19.123Z</time>
      </trkpt>
      <trkpt lat="42.84978" lon="0.144">
        <ele>2289</ele>
        <time>2020-07-28T09:44:20.123Z</time>
      </trkpt>
      <trkpt lat="42.84978" lon="0.144">
        <ele>2289</ele>
        <time>2020-07-28T09:44:21.123Z</time>
      </trkpt>
      <trkpt lat="42.84978" lon="0.144">
        <ele>2289</ele>
        <time>2020-07-28T09:44:22.123Z</time>
      </trkpt>
      <trkpt lat="42.84975" lon="0.144">
        <ele>2288</ele>
        <time>2020-07-28T09:44:23.123Z</time>
      </trkpt>
      <trkpt lat="42.84975" lon="0.144">
        <ele>2288</ele>
        <time>2020-07-28T09:44:24.123Z</time>
      </trkpt>
      <trkpt lat="42.84975" lon="0.144">
        <ele>2288</ele>
        <time>2020-07-28T09:44:25.123Z</time>
      </trkpt>
      <trkpt lat="42.84973" lon="0.14401">
        <ele>2286</ele>
        <time>2020-07-28T09:44:26.123Z</time>
      </trkpt>
      <trkpt lat="42.84973" lon="0.14401">
        <ele>2286</ele>
        <time>2020-07-28T09:44:27.123Z</time>
      </trkpt>
      <trkpt lat="42.84973" lon="0.14401">
        <ele>2286</ele>
        <time>2020-07-28T09:44:28.123Z</time>
      </trkpt>
      <trkpt lat="42.84971" lon="0.14402">
        <ele>2286</ele>
        <time>2020-07-28T09:44:29.123Z</time>
      </trkpt>
      <trkpt lat="42.84971" lon="0.14402">
        <ele>2286</ele>
        <time>2020-07-28T09:44:30.123Z</time>
      </trkpt>
      <trkpt lat="42.84971" lon="0.14402">
        <ele>2286</ele>
        <time>2020-07-28T09:44:31.123Z</time>
      </trkpt>
      <trkpt lat="42.8497" lon="0.14399">
        <ele>2287</ele>
        <time>2020-07-28T09:44:32.123Z</time>
      </trkpt>
      <trkpt lat="42.8497" lon="0.14399">
        <ele>2287</ele>
        <time>2020-07-28T09:44:33.123Z</time>
      </trkpt>
      <trkpt lat="42.8497" lon="0.14399">
        <ele>2287</ele>
        <time>2020-07-28T09:44:34.123Z</time>
      </trkpt>
      <trkpt lat="42.84968" lon="0.14397">
        <ele>2286</ele>
        <time>2020-07-28T09:44:35.123Z</time>
      </trkpt>
      <trkpt lat="42.84968" lon="0.14397">
        <ele>2286</ele>
        <time>2020-07-28T09:44:36.123Z</time>
      </trkpt>
      <trkpt lat="42.84968" lon="0.14397">
        <ele>2286</ele>
        <time>2020-07-28T09:44:37.123Z</time>
      </trkpt>
      <trkpt lat="42.84965" lon="0.14394">
        <ele>2286</ele>
        <time>2020-07-28T09:44:38.123Z</time>
      </trkpt>
      <trkpt lat="42.84965" lon="0.14394">
        <ele>2286</ele>
        <time>2020-07-28T09:44:39.123Z</time>
      </trkpt>
      <trkpt lat="42.84965" lon="0.14394">
        <ele>2286</ele>
        <time>2020-07-28T09:44:40.123Z</time>
      </trkpt>
      <trkpt lat="42.84963" lon="0.1439">
        <ele>2286</ele>
        <time>2020-07-28T09:44:41.123Z</time>
      </trkpt>
      <trkpt lat="42.84963" lon="0.1439">
        <ele>2286</ele>
        <time>2020-07-28T09:44:42.123Z</time>
      </trkpt>
      <trkpt lat="42.84963" lon="0.1439">
        <ele>2286</ele>
        <time>2020-07-28T09:44:43.123Z</time>
      </trkpt>
      <trkpt lat="42.84961" lon="0.14387">
        <ele>2284</ele>
        <time>2020-07-28T09:44:44.123Z</time>
      </trkpt>
      <trkpt lat="42.84961" lon="0.14387">
        <ele>2284</ele>
        <time>2020-07-28T09:44:45.123Z</time>
      </trkpt>
      <trkpt lat="42.84961" lon="0.14387">
        <ele>2284</ele>
        <time>2020-07-28T09:44:46.123Z</time>
      </trkpt>
      <trkpt lat="42.84958" lon="0.14385">
        <ele>2282</ele>
        <time>2020-07-28T09:44:47.123Z</time>
      </trkpt>
      <trkpt lat="42.84958" lon="0.14385">
        <ele>2282</ele>
        <time>2020-07-28T09:44:48.123Z</time>
      </trkpt>
      <trkpt lat="42.84958" lon="0.14385">
        <ele>2282</ele>
        <time>2020-07-28T09:44:49.123Z</time>
      </trkpt>
      <trkpt lat="42.84956" lon="0.14384">
        <ele>2281</ele>
        <time>2020-07-28T09:44:50.123Z</time>
      </trkpt>
      <trkpt lat="42.84956" lon="0.14384">
        <ele>2281</ele>
        <time>2020-07-28T09:44:51.123Z</time>
      </trkpt>
      <trkpt lat="42.84956" lon="0.14384">
        <ele>2281</ele>
        <time>2020-07-28T09:44:52.123Z</time>
      </trkpt>
      <trkpt lat="42.84952" lon="0.1438">
        <ele>2281</ele>
        <time>2020-07-28T09:44:53.123Z</time>
      </trkpt>
      <trkpt lat="42.84952" lon="0.1438">
        <ele>2281</ele>
        <time>2020-07-28T09:44:54.123Z</time>
      </trkpt>
      <trkpt lat="42.84952" lon="0.1438">
        <ele>2281</ele>
        <time>2020-07-28T09:44:55.123Z</time>
      </trkpt>
      <trkpt lat="42.84948" lon="0.14379">
        <ele>2281</ele>
        <time>2020-07-28T09:44:56.123Z</time>
      </trkpt>
      <trkpt lat="42.84948" lon="0.14379">
        <ele>2281</ele>
        <time>2020-07-28T09:44:57.123Z</time>
      </trkpt>
      <trkpt lat="42.84945" lon="0.14377">
        <ele>2280</ele>
        <time>2020-07-28T09:44:58.123Z</time>
      </trkpt>
      <trkpt lat="42.84942" lon="0.14376">
        <ele>2280</ele>
        <time>2020-07-28T09:44:59.123Z</time>
      </trkpt>
      <trkpt lat="42.84942" lon="0.14376">
        <ele>2280</ele>
        <time>2020-07-28T09:45:00.123Z</time>
      </trkpt>
      <trkpt lat="42.84941" lon="0.14376">
        <ele>2279</ele>
        <time>2020-07-28T09:45:01.123Z</time>
      </trkpt>
      <trkpt lat="42.8494" lon="0.14376">
        <ele>2279</ele>
        <time>2020-07-28T09:45:02.123Z</time>
      </trkpt>
      <trkpt lat="42.8494" lon="0.14376">
        <ele>2279</ele>
        <time>2020-07-28T09:45:03.123Z</time>
      </trkpt>
      <trkpt lat="42.8494" lon="0.14376">
        <ele>2279</ele>
        <time>2020-07-28T09:45:04.123Z</time>
      </trkpt>
      <trkpt lat="42.84935" lon="0.14369">
        <ele>2278</ele>
        <time>2020-07-28T09:45:05.123Z</time>
      </trkpt>
      <trkpt lat="42.84935" lon="0.14369">
        <ele>2278</ele>
        <time>2020-07-28T09:45:06.123Z</time>
      </trkpt>
      <trkpt lat="42.84935" lon="0.14369">
        <ele>2278</ele>
        <time>2020-07-28T09:45:07.123Z</time>
      </trkpt>
      <trkpt lat="42.84935" lon="0.14363">
        <ele>2277</ele>
        <time>2020-07-28T09:45:08.123Z</time>
      </trkpt>
      <trkpt lat="42.84935" lon="0.14363">
        <ele>2277</ele>
        <time>2020-07-28T09:45:09.123Z</time>
      </trkpt>
      <trkpt lat="42.84935" lon="0.14363">
        <ele>2277</ele>
        <time>2020-07-28T09:45:10.123Z</time>
      </trkpt>
      <trkpt lat="42.84933" lon="0.14362">
        <ele>2275</ele>
        <time>2020-07-28T09:45:11.123Z</time>
      </trkpt>
      <trkpt lat="42.84932" lon="0.14362">
        <ele>2274</ele>
        <time>2020-07-28T09:45:12.123Z</time>
      </trkpt>
      <trkpt lat="42.84932" lon="0.14362">
        <ele>2274</ele>
        <time>2020-07-28T09:45:13.123Z</time>
      </trkpt>
      <trkpt lat="42.84931" lon="0.1436">
        <ele>2274</ele>
        <time>2020-07-28T09:45:14.123Z</time>
      </trkpt>
      <trkpt lat="42.84931" lon="0.1436">
        <ele>2274</ele>
        <time>2020-07-28T09:45:15.123Z</time>
      </trkpt>
      <trkpt lat="42.8493" lon="0.14359">
        <ele>2273</ele>
        <time>2020-07-28T09:45:16.123Z</time>
      </trkpt>
      <trkpt lat="42.84929" lon="0.14359">
        <ele>2273</ele>
        <time>2020-07-28T09:45:17.123Z</time>
      </trkpt>
      <trkpt lat="42.84929" lon="0.14359">
        <ele>2273</ele>
        <time>2020-07-28T09:45:18.123Z</time>
      </trkpt>
      <trkpt lat="42.84929" lon="0.14359">
        <ele>2273</ele>
        <time>2020-07-28T09:45:19.123Z</time>
      </trkpt>
      <trkpt lat="42.84927" lon="0.14356">
        <ele>2273</ele>
        <time>2020-07-28T09:45:20.123Z</time>
      </trkpt>
      <trkpt lat="42.84927" lon="0.14356">
        <ele>2273</ele>
        <time>2020-07-28T09:45:21.123Z</time>
      </trkpt>
      <trkpt lat="42.84927" lon="0.14356">
        <ele>2273</ele>
        <time>2020-07-28T09:45:22.123Z</time>
      </trkpt>
      <trkpt lat="42.84924" lon="0.14354">
        <ele>2272</ele>
        <time>2020-07-28T09:45:23.123Z</time>
      </trkpt>
      <trkpt lat="42.84924" lon="0.14354">
        <ele>2272</ele>
        <time>2020-07-28T09:45:24.123Z</time>
      </trkpt>
      <trkpt lat="42.84924" lon="0.14354">
        <ele>2272</ele>
        <time>2020-07-28T09:45:25.123Z</time>
      </trkpt>
      <trkpt lat="42.84924" lon="0.14354">
        <ele>2272</ele>
        <time>2020-07-28T09:45:26.123Z</time>
      </trkpt>
      <trkpt lat="42.84924" lon="0.14354">
        <ele>2272</ele>
        <time>2020-07-28T09:45:27.123Z</time>
      </trkpt>
      <trkpt lat="42.84924" lon="0.14354">
        <ele>2272</ele>
        <time>2020-07-28T09:45:28.123Z</time>
      </trkpt>
      <trkpt lat="42.84921" lon="0.14353">
        <ele>2273</ele>
        <time>2020-07-28T09:45:29.123Z</time>
      </trkpt>
      <trkpt lat="42.84921" lon="0.14353">
        <ele>2273</ele>
        <time>2020-07-28T09:45:30.123Z</time>
      </trkpt>
      <trkpt lat="42.84919" lon="0.14351">
        <ele>2273</ele>
        <time>2020-07-28T09:45:31.123Z</time>
      </trkpt>
      <trkpt lat="42.84918" lon="0.1435">
        <ele>2273</ele>
        <time>2020-07-28T09:45:32.123Z</time>
      </trkpt>
      <trkpt lat="42.84917" lon="0.14349">
        <ele>2272</ele>
        <time>2020-07-28T09:45:33.123Z</time>
      </trkpt>
      <trkpt lat="42.84917" lon="0.14349">
        <ele>2272</ele>
        <time>2020-07-28T09:45:34.123Z</time>
      </trkpt>
      <trkpt lat="42.84915" lon="0.14346">
        <ele>2273</ele>
        <time>2020-07-28T09:45:35.123Z</time>
      </trkpt>
      <trkpt lat="42.84915" lon="0.14346">
        <ele>2273</ele>
        <time>2020-07-28T09:45:36.123Z</time>
      </trkpt>
      <trkpt lat="42.84914" lon="0.14345">
        <ele>2271</ele>
        <time>2020-07-28T09:45:37.123Z</time>
      </trkpt>
      <trkpt lat="42.84913" lon="0.14344">
        <ele>2271</ele>
        <time>2020-07-28T09:45:38.123Z</time>
      </trkpt>
      <trkpt lat="42.84913" lon="0.14344">
        <ele>2271</ele>
        <time>2020-07-28T09:45:39.123Z</time>
      </trkpt>
      <trkpt lat="42.84913" lon="0.14344">
        <ele>2271</ele>
        <time>2020-07-28T09:45:40.123Z</time>
      </trkpt>
      <trkpt lat="42.84908" lon="0.14343">
        <ele>2269</ele>
        <time>2020-07-28T09:45:41.123Z</time>
      </trkpt>
      <trkpt lat="42.84908" lon="0.14343">
        <ele>2269</ele>
        <time>2020-07-28T09:45:42.123Z</time>
      </trkpt>
      <trkpt lat="42.84908" lon="0.14343">
        <ele>2269</ele>
        <time>2020-07-28T09:45:43.123Z</time>
      </trkpt>
      <trkpt lat="42.84905" lon="0.14341">
        <ele>2268</ele>
        <time>2020-07-28T09:45:44.123Z</time>
      </trkpt>
      <trkpt lat="42.84905" lon="0.14341">
        <ele>2268</ele>
        <time>2020-07-28T09:45:45.123Z</time>
      </trkpt>
      <trkpt lat="42.84904" lon="0.1434">
        <ele>2269</ele>
        <time>2020-07-28T09:45:46.123Z</time>
      </trkpt>
      <trkpt lat="42.84902" lon="0.14337">
        <ele>2269</ele>
        <time>2020-07-28T09:45:47.123Z</time>
      </trkpt>
      <trkpt lat="42.84902" lon="0.14337">
        <ele>2269</ele>
        <time>2020-07-28T09:45:48.123Z</time>
      </trkpt>
      <trkpt lat="42.84901" lon="0.14336">
        <ele>2268</ele>
        <time>2020-07-28T09:45:49.123Z</time>
      </trkpt>
      <trkpt lat="42.84899" lon="0.14334">
        <ele>2268</ele>
        <time>2020-07-28T09:45:50.123Z</time>
      </trkpt>
      <trkpt lat="42.84899" lon="0.14334">
        <ele>2268</ele>
        <time>2020-07-28T09:45:51.123Z</time>
      </trkpt>
      <trkpt lat="42.84899" lon="0.14334">
        <ele>2268</ele>
        <time>2020-07-28T09:45:52.123Z</time>
      </trkpt>
      <trkpt lat="42.84897" lon="0.14331">
        <ele>2267</ele>
        <time>2020-07-28T09:45:53.123Z</time>
      </trkpt>
      <trkpt lat="42.84897" lon="0.14331">
        <ele>2267</ele>
        <time>2020-07-28T09:45:54.123Z</time>
      </trkpt>
      <trkpt lat="42.84897" lon="0.14331">
        <ele>2267</ele>
        <time>2020-07-28T09:45:55.123Z</time>
      </trkpt>
      <trkpt lat="42.84894" lon="0.14327">
        <ele>2265</ele>
        <time>2020-07-28T09:45:56.123Z</time>
      </trkpt>
      <trkpt lat="42.84894" lon="0.14327">
        <ele>2265</ele>
        <time>2020-07-28T09:45:57.123Z</time>
      </trkpt>
      <trkpt lat="42.84893" lon="0.14325">
        <ele>2264</ele>
        <time>2020-07-28T09:45:58.123Z</time>
      </trkpt>
      <trkpt lat="42.84891" lon="0.14324">
        <ele>2263</ele>
        <time>2020-07-28T09:45:59.123Z</time>
      </trkpt>
      <trkpt lat="42.84891" lon="0.14324">
        <ele>2263</ele>
        <time>2020-07-28T09:46:00.123Z</time>
      </trkpt>
      <trkpt lat="42.84891" lon="0.14324">
        <ele>2263</ele>
        <time>2020-07-28T09:46:01.123Z</time>
      </trkpt>
      <trkpt lat="42.84889" lon="0.14322">
        <ele>2263</ele>
        <time>2020-07-28T09:46:02.123Z</time>
      </trkpt>
      <trkpt lat="42.84889" lon="0.14322">
        <ele>2263</ele>
        <time>2020-07-28T09:46:03.123Z</time>
      </trkpt>
      <trkpt lat="42.84889" lon="0.14322">
        <ele>2263</ele>
        <time>2020-07-28T09:46:04.123Z</time>
      </trkpt>
      <trkpt lat="42.84886" lon="0.1432">
        <ele>2262</ele>
        <time>2020-07-28T09:46:05.123Z</time>
      </trkpt>
      <trkpt lat="42.84886" lon="0.1432">
        <ele>2262</ele>
        <time>2020-07-28T09:46:06.123Z</time>
      </trkpt>
      <trkpt lat="42.84883" lon="0.14318">
        <ele>2264</ele>
        <time>2020-07-28T09:46:07.123Z</time>
      </trkpt>
      <trkpt lat="42.84881" lon="0.14317">
        <ele>2264</ele>
        <time>2020-07-28T09:46:08.123Z</time>
      </trkpt>
      <trkpt lat="42.84881" lon="0.14317">
        <ele>2264</ele>
        <time>2020-07-28T09:46:09.123Z</time>
      </trkpt>
      <trkpt lat="42.84881" lon="0.14317">
        <ele>2264</ele>
        <time>2020-07-28T09:46:10.123Z</time>
      </trkpt>
      <trkpt lat="42.84874" lon="0.14313">
        <ele>2264</ele>
        <time>2020-07-28T09:46:11.123Z</time>
      </trkpt>
      <trkpt lat="42.84874" lon="0.14313">
        <ele>2264</ele>
        <time>2020-07-28T09:46:12.123Z</time>
      </trkpt>
      <trkpt lat="42.84874" lon="0.14313">
        <ele>2264</ele>
        <time>2020-07-28T09:46:13.123Z</time>
      </trkpt>
      <trkpt lat="42.84869" lon="0.14307">
        <ele>2263</ele>
        <time>2020-07-28T09:46:14.123Z</time>
      </trkpt>
      <trkpt lat="42.84869" lon="0.14307">
        <ele>2263</ele>
        <time>2020-07-28T09:46:15.123Z</time>
      </trkpt>
      <trkpt lat="42.84869" lon="0.14307">
        <ele>2263</ele>
        <time>2020-07-28T09:46:16.123Z</time>
      </trkpt>
      <trkpt lat="42.84868" lon="0.14302">
        <ele>2264</ele>
        <time>2020-07-28T09:46:17.123Z</time>
      </trkpt>
      <trkpt lat="42.84868" lon="0.14302">
        <ele>2264</ele>
        <time>2020-07-28T09:46:18.123Z</time>
      </trkpt>
      <trkpt lat="42.84868" lon="0.14302">
        <ele>2264</ele>
        <time>2020-07-28T09:46:19.123Z</time>
      </trkpt>
      <trkpt lat="42.84867" lon="0.14297">
        <ele>2263</ele>
        <time>2020-07-28T09:46:20.123Z</time>
      </trkpt>
      <trkpt lat="42.84867" lon="0.14297">
        <ele>2263</ele>
        <time>2020-07-28T09:46:21.123Z</time>
      </trkpt>
      <trkpt lat="42.84866" lon="0.14295">
        <ele>2264</ele>
        <time>2020-07-28T09:46:22.123Z</time>
      </trkpt>
      <trkpt lat="42.84866" lon="0.14295">
        <ele>2264</ele>
        <time>2020-07-28T09:46:23.123Z</time>
      </trkpt>
      <trkpt lat="42.84866" lon="0.14295">
        <ele>2264</ele>
        <time>2020-07-28T09:46:24.123Z</time>
      </trkpt>
      <trkpt lat="42.84866" lon="0.14295">
        <ele>2264</ele>
        <time>2020-07-28T09:46:25.123Z</time>
      </trkpt>
      <trkpt lat="42.84866" lon="0.14294">
        <ele>2265</ele>
        <time>2020-07-28T09:46:26.123Z</time>
      </trkpt>
      <trkpt lat="42.84866" lon="0.14294">
        <ele>2265</ele>
        <time>2020-07-28T09:46:27.123Z</time>
      </trkpt>
      <trkpt lat="42.84866" lon="0.14294">
        <ele>2265</ele>
        <time>2020-07-28T09:46:28.123Z</time>
      </trkpt>
      <trkpt lat="42.84866" lon="0.14294">
        <ele>2264</ele>
        <time>2020-07-28T09:46:29.123Z</time>
      </trkpt>
      <trkpt lat="42.84866" lon="0.14294">
        <ele>2264</ele>
        <time>2020-07-28T09:46:30.123Z</time>
      </trkpt>
      <trkpt lat="42.84866" lon="0.14294">
        <ele>2264</ele>
        <time>2020-07-28T09:46:31.123Z</time>
      </trkpt>
      <trkpt lat="42.84865" lon="0.14293">
        <ele>2265</ele>
        <time>2020-07-28T09:46:32.123Z</time>
      </trkpt>
      <trkpt lat="42.84865" lon="0.14293">
        <ele>2265</ele>
        <time>2020-07-28T09:46:33.123Z</time>
      </trkpt>
      <trkpt lat="42.84864" lon="0.14292">
        <ele>2264</ele>
        <time>2020-07-28T09:46:34.123Z</time>
      </trkpt>
      <trkpt lat="42.84864" lon="0.1429">
        <ele>2264</ele>
        <time>2020-07-28T09:46:35.123Z</time>
      </trkpt>
      <trkpt lat="42.84864" lon="0.1429">
        <ele>2264</ele>
        <time>2020-07-28T09:46:36.123Z</time>
      </trkpt>
      <trkpt lat="42.84864" lon="0.1429">
        <ele>2264</ele>
        <time>2020-07-28T09:46:37.123Z</time>
      </trkpt>
      <trkpt lat="42.84863" lon="0.1429">
        <ele>2262</ele>
        <time>2020-07-28T09:46:38.123Z</time>
      </trkpt>
      <trkpt lat="42.84863" lon="0.1429">
        <ele>2262</ele>
        <time>2020-07-28T09:46:39.123Z</time>
      </trkpt>
      <trkpt lat="42.84863" lon="0.1429">
        <ele>2262</ele>
        <time>2020-07-28T09:46:40.123Z</time>
      </trkpt>
      <trkpt lat="42.84862" lon="0.1429">
        <ele>2261</ele>
        <time>2020-07-28T09:46:41.123Z</time>
      </trkpt>
      <trkpt lat="42.84862" lon="0.1429">
        <ele>2261</ele>
        <time>2020-07-28T09:46:42.123Z</time>
      </trkpt>
      <trkpt lat="42.84862" lon="0.1429">
        <ele>2261</ele>
        <time>2020-07-28T09:46:43.123Z</time>
      </trkpt>
      <trkpt lat="42.8486" lon="0.1429">
        <ele>2260</ele>
        <time>2020-07-28T09:46:44.123Z</time>
      </trkpt>
      <trkpt lat="42.8486" lon="0.1429">
        <ele>2260</ele>
        <time>2020-07-28T09:46:45.123Z</time>
      </trkpt>
      <trkpt lat="42.8486" lon="0.1429">
        <ele>2260</ele>
        <time>2020-07-28T09:46:46.123Z</time>
      </trkpt>
      <trkpt lat="42.84859" lon="0.1429">
        <ele>2259</ele>
        <time>2020-07-28T09:46:47.123Z</time>
      </trkpt>
      <trkpt lat="42.84859" lon="0.1429">
        <ele>2259</ele>
        <time>2020-07-28T09:46:48.123Z</time>
      </trkpt>
      <trkpt lat="42.84859" lon="0.1429">
        <ele>2259</ele>
        <time>2020-07-28T09:46:49.123Z</time>
      </trkpt>
      <trkpt lat="42.84858" lon="0.14289">
        <ele>2259</ele>
        <time>2020-07-28T09:46:50.123Z</time>
      </trkpt>
      <trkpt lat="42.84858" lon="0.14289">
        <ele>2259</ele>
        <time>2020-07-28T09:46:51.123Z</time>
      </trkpt>
      <trkpt lat="42.84858" lon="0.14289">
        <ele>2259</ele>
        <time>2020-07-28T09:46:52.123Z</time>
      </trkpt>
      <trkpt lat="42.84857" lon="0.14288">
        <ele>2259</ele>
        <time>2020-07-28T09:46:53.123Z</time>
      </trkpt>
      <trkpt lat="42.84857" lon="0.14288">
        <ele>2259</ele>
        <time>2020-07-28T09:46:54.123Z</time>
      </trkpt>
      <trkpt lat="42.84857" lon="0.14288">
        <ele>2259</ele>
        <time>2020-07-28T09:46:55.123Z</time>
      </trkpt>
      <trkpt lat="42.84856" lon="0.14287">
        <ele>2258</ele>
        <time>2020-07-28T09:46:56.123Z</time>
      </trkpt>
      <trkpt lat="42.84856" lon="0.14287">
        <ele>2258</ele>
        <time>2020-07-28T09:46:57.123Z</time>
      </trkpt>
      <trkpt lat="42.84856" lon="0.14287">
        <ele>2258</ele>
        <time>2020-07-28T09:46:58.123Z</time>
      </trkpt>
      <trkpt lat="42.84854" lon="0.14288">
        <ele>2259</ele>
        <time>2020-07-28T09:46:59.123Z</time>
      </trkpt>
      <trkpt lat="42.84854" lon="0.14288">
        <ele>2259</ele>
        <time>2020-07-28T09:47:00.123Z</time>
      </trkpt>
      <trkpt lat="42.84854" lon="0.14288">
        <ele>2259</ele>
        <time>2020-07-28T09:47:01.123Z</time>
      </trkpt>
      <trkpt lat="42.8485" lon="0.1429">
        <ele>2258</ele>
        <time>2020-07-28T09:47:02.123Z</time>
      </trkpt>
      <trkpt lat="42.8485" lon="0.1429">
        <ele>2258</ele>
        <time>2020-07-28T09:47:03.123Z</time>
      </trkpt>
      <trkpt lat="42.8485" lon="0.1429">
        <ele>2258</ele>
        <time>2020-07-28T09:47:04.123Z</time>
      </trkpt>
      <trkpt lat="42.84848" lon="0.14288">
        <ele>2258</ele>
        <time>2020-07-28T09:47:05.123Z</time>
      </trkpt>
      <trkpt lat="42.84848" lon="0.14288">
        <ele>2258</ele>
        <time>2020-07-28T09:47:06.123Z</time>
      </trkpt>
      <trkpt lat="42.84848" lon="0.14288">
        <ele>2258</ele>
        <time>2020-07-28T09:47:07.123Z</time>
      </trkpt>
      <trkpt lat="42.84848" lon="0.14284">
        <ele>2256</ele>
        <time>2020-07-28T09:47:08.123Z</time>
      </trkpt>
      <trkpt lat="42.84848" lon="0.14284">
        <ele>2256</ele>
        <time>2020-07-28T09:47:09.123Z</time>
      </trkpt>
      <trkpt lat="42.84848" lon="0.14284">
        <ele>2256</ele>
        <time>2020-07-28T09:47:10.123Z</time>
      </trkpt>
      <trkpt lat="42.84849" lon="0.14283">
        <ele>2253</ele>
        <time>2020-07-28T09:47:11.123Z</time>
      </trkpt>
      <trkpt lat="42.84849" lon="0.14283">
        <ele>2253</ele>
        <time>2020-07-28T09:47:12.123Z</time>
      </trkpt>
      <trkpt lat="42.84849" lon="0.14283">
        <ele>2253</ele>
        <time>2020-07-28T09:47:13.123Z</time>
      </trkpt>
      <trkpt lat="42.84848" lon="0.14281">
        <ele>2254</ele>
        <time>2020-07-28T09:47:14.123Z</time>
      </trkpt>
      <trkpt lat="42.84848" lon="0.14281">
        <ele>2254</ele>
        <time>2020-07-28T09:47:15.123Z</time>
      </trkpt>
      <trkpt lat="42.84848" lon="0.14281">
        <ele>2254</ele>
        <time>2020-07-28T09:47:16.123Z</time>
      </trkpt>
      <trkpt lat="42.84848" lon="0.14281">
        <ele>2254</ele>
        <time>2020-07-28T09:47:17.123Z</time>
      </trkpt>
      <trkpt lat="42.84848" lon="0.14281">
        <ele>2254</ele>
        <time>2020-07-28T09:47:18.123Z</time>
      </trkpt>
      <trkpt lat="42.84848" lon="0.14281">
        <ele>2254</ele>
        <time>2020-07-28T09:47:19.123Z</time>
      </trkpt>
      <trkpt lat="42.84846" lon="0.14279">
        <ele>2254</ele>
        <time>2020-07-28T09:47:20.123Z</time>
      </trkpt>
      <trkpt lat="42.84846" lon="0.14279">
        <ele>2254</ele>
        <time>2020-07-28T09:47:21.123Z</time>
      </trkpt>
      <trkpt lat="42.84846" lon="0.14279">
        <ele>2254</ele>
        <time>2020-07-28T09:47:22.123Z</time>
      </trkpt>
      <trkpt lat="42.84844" lon="0.14277">
        <ele>2254</ele>
        <time>2020-07-28T09:47:23.123Z</time>
      </trkpt>
      <trkpt lat="42.84844" lon="0.14277">
        <ele>2254</ele>
        <time>2020-07-28T09:47:24.123Z</time>
      </trkpt>
      <trkpt lat="42.84844" lon="0.14277">
        <ele>2254</ele>
        <time>2020-07-28T09:47:25.123Z</time>
      </trkpt>
      <trkpt lat="42.84842" lon="0.14276">
        <ele>2254</ele>
        <time>2020-07-28T09:47:26.123Z</time>
      </trkpt>
      <trkpt lat="42.84842" lon="0.14276">
        <ele>2254</ele>
        <time>2020-07-28T09:47:27.123Z</time>
      </trkpt>
      <trkpt lat="42.84842" lon="0.14276">
        <ele>2254</ele>
        <time>2020-07-28T09:47:28.123Z</time>
      </trkpt>
      <trkpt lat="42.84841" lon="0.14275">
        <ele>2252</ele>
        <time>2020-07-28T09:47:29.123Z</time>
      </trkpt>
      <trkpt lat="42.84841" lon="0.14275">
        <ele>2252</ele>
        <time>2020-07-28T09:47:30.123Z</time>
      </trkpt>
      <trkpt lat="42.84841" lon="0.14275">
        <ele>2252</ele>
        <time>2020-07-28T09:47:31.123Z</time>
      </trkpt>
      <trkpt lat="42.84839" lon="0.14275">
        <ele>2252</ele>
        <time>2020-07-28T09:47:32.123Z</time>
      </trkpt>
      <trkpt lat="42.84839" lon="0.14275">
        <ele>2252</ele>
        <time>2020-07-28T09:47:33.123Z</time>
      </trkpt>
      <trkpt lat="42.84839" lon="0.14275">
        <ele>2252</ele>
        <time>2020-07-28T09:47:34.123Z</time>
      </trkpt>
      <trkpt lat="42.84837" lon="0.14275">
        <ele>2250</ele>
        <time>2020-07-28T09:47:35.123Z</time>
      </trkpt>
      <trkpt lat="42.84837" lon="0.14275">
        <ele>2250</ele>
        <time>2020-07-28T09:47:36.123Z</time>
      </trkpt>
      <trkpt lat="42.84837" lon="0.14275">
        <ele>2250</ele>
        <time>2020-07-28T09:47:37.123Z</time>
      </trkpt>
      <trkpt lat="42.84835" lon="0.14275">
        <ele>2248</ele>
        <time>2020-07-28T09:47:38.123Z</time>
      </trkpt>
      <trkpt lat="42.84835" lon="0.14275">
        <ele>2248</ele>
        <time>2020-07-28T09:47:39.123Z</time>
      </trkpt>
      <trkpt lat="42.84835" lon="0.14275">
        <ele>2248</ele>
        <time>2020-07-28T09:47:40.123Z</time>
      </trkpt>
      <trkpt lat="42.84833" lon="0.14273">
        <ele>2247</ele>
        <time>2020-07-28T09:47:41.123Z</time>
      </trkpt>
      <trkpt lat="42.84833" lon="0.14273">
        <ele>2247</ele>
        <time>2020-07-28T09:47:42.123Z</time>
      </trkpt>
      <trkpt lat="42.84833" lon="0.14273">
        <ele>2247</ele>
        <time>2020-07-28T09:47:43.123Z</time>
      </trkpt>
      <trkpt lat="42.8483" lon="0.14272">
        <ele>2246</ele>
        <time>2020-07-28T09:47:44.123Z</time>
      </trkpt>
      <trkpt lat="42.8483" lon="0.14272">
        <ele>2246</ele>
        <time>2020-07-28T09:47:45.123Z</time>
      </trkpt>
      <trkpt lat="42.8483" lon="0.14272">
        <ele>2246</ele>
        <time>2020-07-28T09:47:46.123Z</time>
      </trkpt>
      <trkpt lat="42.84828" lon="0.1427">
        <ele>2245</ele>
        <time>2020-07-28T09:47:47.123Z</time>
      </trkpt>
      <trkpt lat="42.84828" lon="0.1427">
        <ele>2245</ele>
        <time>2020-07-28T09:47:48.123Z</time>
      </trkpt>
      <trkpt lat="42.84828" lon="0.1427">
        <ele>2245</ele>
        <time>2020-07-28T09:47:49.123Z</time>
      </trkpt>
      <trkpt lat="42.84825" lon="0.14265">
        <ele>2244</ele>
        <time>2020-07-28T09:47:50.123Z</time>
      </trkpt>
      <trkpt lat="42.84825" lon="0.14265">
        <ele>2244</ele>
        <time>2020-07-28T09:47:51.123Z</time>
      </trkpt>
      <trkpt lat="42.84825" lon="0.14265">
        <ele>2244</ele>
        <time>2020-07-28T09:47:52.123Z</time>
      </trkpt>
      <trkpt lat="42.84823" lon="0.14263">
        <ele>2244</ele>
        <time>2020-07-28T09:47:53.123Z</time>
      </trkpt>
      <trkpt lat="42.84823" lon="0.14263">
        <ele>2244</ele>
        <time>2020-07-28T09:47:54.123Z</time>
      </trkpt>
      <trkpt lat="42.84821" lon="0.14262">
        <ele>2243</ele>
        <time>2020-07-28T09:47:55.123Z</time>
      </trkpt>
      <trkpt lat="42.8482" lon="0.14262">
        <ele>2243</ele>
        <time>2020-07-28T09:47:56.123Z</time>
      </trkpt>
      <trkpt lat="42.8482" lon="0.14262">
        <ele>2243</ele>
        <time>2020-07-28T09:47:57.123Z</time>
      </trkpt>
      <trkpt lat="42.8482" lon="0.14262">
        <ele>2243</ele>
        <time>2020-07-28T09:47:58.123Z</time>
      </trkpt>
      <trkpt lat="42.84817" lon="0.14261">
        <ele>2241</ele>
        <time>2020-07-28T09:47:59.123Z</time>
      </trkpt>
      <trkpt lat="42.84817" lon="0.14261">
        <ele>2241</ele>
        <time>2020-07-28T09:48:00.123Z</time>
      </trkpt>
      <trkpt lat="42.84817" lon="0.14261">
        <ele>2241</ele>
        <time>2020-07-28T09:48:01.123Z</time>
      </trkpt>
      <trkpt lat="42.84814" lon="0.14258">
        <ele>2239</ele>
        <time>2020-07-28T09:48:02.123Z</time>
      </trkpt>
      <trkpt lat="42.84814" lon="0.14258">
        <ele>2239</ele>
        <time>2020-07-28T09:48:03.123Z</time>
      </trkpt>
      <trkpt lat="42.84811" lon="0.14253">
        <ele>2240</ele>
        <time>2020-07-28T09:48:04.123Z</time>
      </trkpt>
      <trkpt lat="42.84809" lon="0.14252">
        <ele>2240</ele>
        <time>2020-07-28T09:48:05.123Z</time>
      </trkpt>
      <trkpt lat="42.84809" lon="0.14252">
        <ele>2240</ele>
        <time>2020-07-28T09:48:06.123Z</time>
      </trkpt>
      <trkpt lat="42.84809" lon="0.14252">
        <ele>2240</ele>
        <time>2020-07-28T09:48:07.123Z</time>
      </trkpt>
      <trkpt lat="42.84805" lon="0.14251">
        <ele>2236</ele>
        <time>2020-07-28T09:48:08.123Z</time>
      </trkpt>
      <trkpt lat="42.84805" lon="0.14251">
        <ele>2236</ele>
        <time>2020-07-28T09:48:09.123Z</time>
      </trkpt>
      <trkpt lat="42.84805" lon="0.14251">
        <ele>2236</ele>
        <time>2020-07-28T09:48:10.123Z</time>
      </trkpt>
      <trkpt lat="42.84804" lon="0.14251">
        <ele>2236</ele>
        <time>2020-07-28T09:48:11.123Z</time>
      </trkpt>
      <trkpt lat="42.84804" lon="0.14251">
        <ele>2236</ele>
        <time>2020-07-28T09:48:12.123Z</time>
      </trkpt>
      <trkpt lat="42.84804" lon="0.14251">
        <ele>2236</ele>
        <time>2020-07-28T09:48:13.123Z</time>
      </trkpt>
      <trkpt lat="42.84799" lon="0.14246">
        <ele>2234</ele>
        <time>2020-07-28T09:48:14.123Z</time>
      </trkpt>
      <trkpt lat="42.84799" lon="0.14246">
        <ele>2234</ele>
        <time>2020-07-28T09:48:15.123Z</time>
      </trkpt>
      <trkpt lat="42.84797" lon="0.14244">
        <ele>2231</ele>
        <time>2020-07-28T09:48:16.123Z</time>
      </trkpt>
      <trkpt lat="42.84796" lon="0.14244">
        <ele>2231</ele>
        <time>2020-07-28T09:48:17.123Z</time>
      </trkpt>
      <trkpt lat="42.84796" lon="0.14244">
        <ele>2231</ele>
        <time>2020-07-28T09:48:18.123Z</time>
      </trkpt>
      <trkpt lat="42.84796" lon="0.14244">
        <ele>2231</ele>
        <time>2020-07-28T09:48:19.123Z</time>
      </trkpt>
      <trkpt lat="42.84794" lon="0.14241">
        <ele>2230</ele>
        <time>2020-07-28T09:48:20.123Z</time>
      </trkpt>
      <trkpt lat="42.84794" lon="0.14241">
        <ele>2230</ele>
        <time>2020-07-28T09:48:21.123Z</time>
      </trkpt>
      <trkpt lat="42.84794" lon="0.14241">
        <ele>2230</ele>
        <time>2020-07-28T09:48:22.123Z</time>
      </trkpt>
      <trkpt lat="42.84794" lon="0.14237">
        <ele>2230</ele>
        <time>2020-07-28T09:48:23.123Z</time>
      </trkpt>
      <trkpt lat="42.84794" lon="0.14237">
        <ele>2230</ele>
        <time>2020-07-28T09:48:24.123Z</time>
      </trkpt>
      <trkpt lat="42.84794" lon="0.14234">
        <ele>2230</ele>
        <time>2020-07-28T09:48:25.123Z</time>
      </trkpt>
      <trkpt lat="42.84793" lon="0.14232">
        <ele>2230</ele>
        <time>2020-07-28T09:48:26.123Z</time>
      </trkpt>
      <trkpt lat="42.84793" lon="0.14232">
        <ele>2230</ele>
        <time>2020-07-28T09:48:27.123Z</time>
      </trkpt>
      <trkpt lat="42.84793" lon="0.14232">
        <ele>2230</ele>
        <time>2020-07-28T09:48:28.123Z</time>
      </trkpt>
      <trkpt lat="42.84792" lon="0.14231">
        <ele>2229</ele>
        <time>2020-07-28T09:48:29.123Z</time>
      </trkpt>
      <trkpt lat="42.84792" lon="0.14231">
        <ele>2229</ele>
        <time>2020-07-28T09:48:30.123Z</time>
      </trkpt>
      <trkpt lat="42.84788" lon="0.14228">
        <ele>2227</ele>
        <time>2020-07-28T09:48:31.123Z</time>
      </trkpt>
      <trkpt lat="42.84787" lon="0.14227">
        <ele>2228</ele>
        <time>2020-07-28T09:48:32.123Z</time>
      </trkpt>
      <trkpt lat="42.84787" lon="0.14227">
        <ele>2228</ele>
        <time>2020-07-28T09:48:33.123Z</time>
      </trkpt>
      <trkpt lat="42.84787" lon="0.14227">
        <ele>2228</ele>
        <time>2020-07-28T09:48:34.123Z</time>
      </trkpt>
      <trkpt lat="42.84785" lon="0.14225">
        <ele>2227</ele>
        <time>2020-07-28T09:48:35.123Z</time>
      </trkpt>
      <trkpt lat="42.84785" lon="0.14225">
        <ele>2227</ele>
        <time>2020-07-28T09:48:36.123Z</time>
      </trkpt>
      <trkpt lat="42.84785" lon="0.14225">
        <ele>2227</ele>
        <time>2020-07-28T09:48:37.123Z</time>
      </trkpt>
      <trkpt lat="42.84785" lon="0.14224">
        <ele>2227</ele>
        <time>2020-07-28T09:48:38.123Z</time>
      </trkpt>
      <trkpt lat="42.84785" lon="0.14224">
        <ele>2227</ele>
        <time>2020-07-28T09:48:39.123Z</time>
      </trkpt>
      <trkpt lat="42.84776" lon="0.14226">
        <ele>2226</ele>
        <time>2020-07-28T09:48:40.092Z</time>
      </trkpt>
      <trkpt lat="42.84776" lon="0.14226">
        <ele>2226</ele>
        <time>2020-07-28T09:48:41.092Z</time>
      </trkpt>
      <trkpt lat="42.84776" lon="0.14225">
        <ele>2225</ele>
        <time>2020-07-28T09:48:42.092Z</time>
      </trkpt>
      <trkpt lat="42.84775" lon="0.14225">
        <ele>2225</ele>
        <time>2020-07-28T09:48:43.092Z</time>
      </trkpt>
      <trkpt lat="42.84775" lon="0.14225">
        <ele>2225</ele>
        <time>2020-07-28T09:48:44.092Z</time>
      </trkpt>
      <trkpt lat="42.84774" lon="0.14223">
        <ele>2224</ele>
        <time>2020-07-28T09:48:45.092Z</time>
      </trkpt>
      <trkpt lat="42.84773" lon="0.14223">
        <ele>2224</ele>
        <time>2020-07-28T09:48:46.092Z</time>
      </trkpt>
      <trkpt lat="42.84772" lon="0.14223">
        <ele>2223</ele>
        <time>2020-07-28T09:48:47.092Z</time>
      </trkpt>
      <trkpt lat="42.84772" lon="0.14223">
        <ele>2223</ele>
        <time>2020-07-28T09:48:48.092Z</time>
      </trkpt>
      <trkpt lat="42.8477" lon="0.14224">
        <ele>2223</ele>
        <time>2020-07-28T09:48:49.092Z</time>
      </trkpt>
      <trkpt lat="42.8477" lon="0.14224">
        <ele>2223</ele>
        <time>2020-07-28T09:48:50.092Z</time>
      </trkpt>
      <trkpt lat="42.84768" lon="0.14225">
        <ele>2222</ele>
        <time>2020-07-28T09:48:51.092Z</time>
      </trkpt>
      <trkpt lat="42.84765" lon="0.14226">
        <ele>2221</ele>
        <time>2020-07-28T09:48:52.092Z</time>
      </trkpt>
      <trkpt lat="42.84765" lon="0.14226">
        <ele>2221</ele>
        <time>2020-07-28T09:48:53.092Z</time>
      </trkpt>
      <trkpt lat="42.84765" lon="0.14226">
        <ele>2221</ele>
        <time>2020-07-28T09:48:54.092Z</time>
      </trkpt>
      <trkpt lat="42.84759" lon="0.14228">
        <ele>2220</ele>
        <time>2020-07-28T09:48:55.092Z</time>
      </trkpt>
      <trkpt lat="42.84759" lon="0.14228">
        <ele>2220</ele>
        <time>2020-07-28T09:48:56.092Z</time>
      </trkpt>
      <trkpt lat="42.84756" lon="0.14228">
        <ele>2220</ele>
        <time>2020-07-28T09:48:57.092Z</time>
      </trkpt>
      <trkpt lat="42.84751" lon="0.14227">
        <ele>2219</ele>
        <time>2020-07-28T09:48:58.092Z</time>
      </trkpt>
      <trkpt lat="42.84751" lon="0.14227">
        <ele>2219</ele>
        <time>2020-07-28T09:48:59.092Z</time>
      </trkpt>
      <trkpt lat="42.8475" lon="0.14226">
        <ele>2219</ele>
        <time>2020-07-28T09:49:00.092Z</time>
      </trkpt>
      <trkpt lat="42.84748" lon="0.14226">
        <ele>2220</ele>
        <time>2020-07-28T09:49:01.092Z</time>
      </trkpt>
      <trkpt lat="42.84748" lon="0.14226">
        <ele>2220</ele>
        <time>2020-07-28T09:49:02.092Z</time>
      </trkpt>
      <trkpt lat="42.84748" lon="0.14226">
        <ele>2220</ele>
        <time>2020-07-28T09:49:03.092Z</time>
      </trkpt>
      <trkpt lat="42.84745" lon="0.14226">
        <ele>2218</ele>
        <time>2020-07-28T09:49:04.092Z</time>
      </trkpt>
      <trkpt lat="42.84745" lon="0.14226">
        <ele>2218</ele>
        <time>2020-07-28T09:49:05.092Z</time>
      </trkpt>
      <trkpt lat="42.84745" lon="0.14226">
        <ele>2218</ele>
        <time>2020-07-28T09:49:06.092Z</time>
      </trkpt>
      <trkpt lat="42.84744" lon="0.14226">
        <ele>2219</ele>
        <time>2020-07-28T09:49:07.092Z</time>
      </trkpt>
      <trkpt lat="42.84743" lon="0.14226">
        <ele>2218</ele>
        <time>2020-07-28T09:49:08.092Z</time>
      </trkpt>
      <trkpt lat="42.84743" lon="0.14226">
        <ele>2218</ele>
        <time>2020-07-28T09:49:09.092Z</time>
      </trkpt>
      <trkpt lat="42.84738" lon="0.14222">
        <ele>2216</ele>
        <time>2020-07-28T09:49:10.092Z</time>
      </trkpt>
      <trkpt lat="42.84738" lon="0.14222">
        <ele>2216</ele>
        <time>2020-07-28T09:49:11.092Z</time>
      </trkpt>
      <trkpt lat="42.84738" lon="0.14222">
        <ele>2216</ele>
        <time>2020-07-28T09:49:12.092Z</time>
      </trkpt>
      <trkpt lat="42.84733" lon="0.14218">
        <ele>2218</ele>
        <time>2020-07-28T09:49:13.092Z</time>
      </trkpt>
      <trkpt lat="42.84733" lon="0.14218">
        <ele>2218</ele>
        <time>2020-07-28T09:49:14.092Z</time>
      </trkpt>
      <trkpt lat="42.84733" lon="0.14218">
        <ele>2218</ele>
        <time>2020-07-28T09:49:15.092Z</time>
      </trkpt>
      <trkpt lat="42.84731" lon="0.14218">
        <ele>2219</ele>
        <time>2020-07-28T09:49:16.092Z</time>
      </trkpt>
      <trkpt lat="42.84731" lon="0.14218">
        <ele>2219</ele>
        <time>2020-07-28T09:49:17.092Z</time>
      </trkpt>
      <trkpt lat="42.84731" lon="0.14218">
        <ele>2220</ele>
        <time>2020-07-28T09:49:18.092Z</time>
      </trkpt>
      <trkpt lat="42.84731" lon="0.14219">
        <ele>2219</ele>
        <time>2020-07-28T09:49:19.092Z</time>
      </trkpt>
      <trkpt lat="42.84731" lon="0.14219">
        <ele>2219</ele>
        <time>2020-07-28T09:49:20.092Z</time>
      </trkpt>
      <trkpt lat="42.84731" lon="0.1422">
        <ele>2220</ele>
        <time>2020-07-28T09:49:21.092Z</time>
      </trkpt>
      <trkpt lat="42.8473" lon="0.14221">
        <ele>2220</ele>
        <time>2020-07-28T09:49:22.092Z</time>
      </trkpt>
      <trkpt lat="42.8473" lon="0.14221">
        <ele>2220</ele>
        <time>2020-07-28T09:49:23.092Z</time>
      </trkpt>
      <trkpt lat="42.84729" lon="0.14225">
        <ele>2219</ele>
        <time>2020-07-28T09:49:24.092Z</time>
      </trkpt>
      <trkpt lat="42.84727" lon="0.14231">
        <ele>2218</ele>
        <time>2020-07-28T09:49:25.092Z</time>
      </trkpt>
      <trkpt lat="42.84727" lon="0.14231">
        <ele>2218</ele>
        <time>2020-07-28T09:49:26.092Z</time>
      </trkpt>
      <trkpt lat="42.84726" lon="0.14234">
        <ele>2218</ele>
        <time>2020-07-28T09:49:27.092Z</time>
      </trkpt>
      <trkpt lat="42.84726" lon="0.14238">
        <ele>2217</ele>
        <time>2020-07-28T09:49:28.092Z</time>
      </trkpt>
      <trkpt lat="42.84725" lon="0.1424">
        <ele>2216</ele>
        <time>2020-07-28T09:49:29.092Z</time>
      </trkpt>
      <trkpt lat="42.84723" lon="0.14243">
        <ele>2216</ele>
        <time>2020-07-28T09:49:30.092Z</time>
      </trkpt>
      <trkpt lat="42.8472" lon="0.14249">
        <ele>2216</ele>
        <time>2020-07-28T09:49:31.092Z</time>
      </trkpt>
      <trkpt lat="42.8472" lon="0.14249">
        <ele>2216</ele>
        <time>2020-07-28T09:49:32.092Z</time>
      </trkpt>
      <trkpt lat="42.84718" lon="0.14251">
        <ele>2215</ele>
        <time>2020-07-28T09:49:33.092Z</time>
      </trkpt>
      <trkpt lat="42.84715" lon="0.14258">
        <ele>2213</ele>
        <time>2020-07-28T09:49:34.092Z</time>
      </trkpt>
      <trkpt lat="42.84715" lon="0.14258">
        <ele>2213</ele>
        <time>2020-07-28T09:49:35.092Z</time>
      </trkpt>
      <trkpt lat="42.84713" lon="0.14261">
        <ele>2212</ele>
        <time>2020-07-28T09:49:36.092Z</time>
      </trkpt>
      <trkpt lat="42.8471" lon="0.14266">
        <ele>2211</ele>
        <time>2020-07-28T09:49:37.092Z</time>
      </trkpt>
      <trkpt lat="42.8471" lon="0.14266">
        <ele>2211</ele>
        <time>2020-07-28T09:49:38.092Z</time>
      </trkpt>
      <trkpt lat="42.84709" lon="0.14269">
        <ele>2210</ele>
        <time>2020-07-28T09:49:39.092Z</time>
      </trkpt>
      <trkpt lat="42.84707" lon="0.14271">
        <ele>2209</ele>
        <time>2020-07-28T09:49:40.092Z</time>
      </trkpt>
      <trkpt lat="42.84707" lon="0.14271">
        <ele>2209</ele>
        <time>2020-07-28T09:49:41.092Z</time>
      </trkpt>
      <trkpt lat="42.84704" lon="0.14276">
        <ele>2207</ele>
        <time>2020-07-28T09:49:42.092Z</time>
      </trkpt>
      <trkpt lat="42.84702" lon="0.14283">
        <ele>2208</ele>
        <time>2020-07-28T09:49:43.092Z</time>
      </trkpt>
      <trkpt lat="42.84702" lon="0.14283">
        <ele>2208</ele>
        <time>2020-07-28T09:49:44.092Z</time>
      </trkpt>
      <trkpt lat="42.84702" lon="0.14286">
        <ele>2208</ele>
        <time>2020-07-28T09:49:45.092Z</time>
      </trkpt>
      <trkpt lat="42.84701" lon="0.1429">
        <ele>2208</ele>
        <time>2020-07-28T09:49:46.092Z</time>
      </trkpt>
      <trkpt lat="42.84701" lon="0.1429">
        <ele>2208</ele>
        <time>2020-07-28T09:49:47.092Z</time>
      </trkpt>
      <trkpt lat="42.847" lon="0.14299">
        <ele>2207</ele>
        <time>2020-07-28T09:49:48.092Z</time>
      </trkpt>
      <trkpt lat="42.84696" lon="0.14307">
        <ele>2206</ele>
        <time>2020-07-28T09:49:49.092Z</time>
      </trkpt>
      <trkpt lat="42.84696" lon="0.14307">
        <ele>2206</ele>
        <time>2020-07-28T09:49:50.092Z</time>
      </trkpt>
      <trkpt lat="42.84696" lon="0.14307">
        <ele>2206</ele>
        <time>2020-07-28T09:49:51.092Z</time>
      </trkpt>
      <trkpt lat="42.84691" lon="0.14313">
        <ele>2207</ele>
        <time>2020-07-28T09:49:52.092Z</time>
      </trkpt>
      <trkpt lat="42.84691" lon="0.14313">
        <ele>2207</ele>
        <time>2020-07-28T09:49:53.092Z</time>
      </trkpt>
      <trkpt lat="42.84691" lon="0.14313">
        <ele>2207</ele>
        <time>2020-07-28T09:49:54.092Z</time>
      </trkpt>
      <trkpt lat="42.84688" lon="0.14317">
        <ele>2206</ele>
        <time>2020-07-28T09:49:55.092Z</time>
      </trkpt>
      <trkpt lat="42.84688" lon="0.14317">
        <ele>2206</ele>
        <time>2020-07-28T09:49:56.092Z</time>
      </trkpt>
      <trkpt lat="42.84688" lon="0.14317">
        <ele>2206</ele>
        <time>2020-07-28T09:49:57.092Z</time>
      </trkpt>
      <trkpt lat="42.84681" lon="0.14328">
        <ele>2203</ele>
        <time>2020-07-28T09:49:58.092Z</time>
      </trkpt>
      <trkpt lat="42.84681" lon="0.14328">
        <ele>2203</ele>
        <time>2020-07-28T09:49:59.092Z</time>
      </trkpt>
      <trkpt lat="42.84678" lon="0.14329">
        <ele>2202</ele>
        <time>2020-07-28T09:50:00.092Z</time>
      </trkpt>
      <trkpt lat="42.84673" lon="0.14332">
        <ele>2200</ele>
        <time>2020-07-28T09:50:01.092Z</time>
      </trkpt>
      <trkpt lat="42.84673" lon="0.14332">
        <ele>2200</ele>
        <time>2020-07-28T09:50:02.092Z</time>
      </trkpt>
      <trkpt lat="42.84673" lon="0.14332">
        <ele>2200</ele>
        <time>2020-07-28T09:50:03.092Z</time>
      </trkpt>
      <trkpt lat="42.84666" lon="0.1434">
        <ele>2199</ele>
        <time>2020-07-28T09:50:04.092Z</time>
      </trkpt>
      <trkpt lat="42.84666" lon="0.1434">
        <ele>2199</ele>
        <time>2020-07-28T09:50:05.092Z</time>
      </trkpt>
      <trkpt lat="42.84664" lon="0.14342">
        <ele>2198</ele>
        <time>2020-07-28T09:50:06.092Z</time>
      </trkpt>
      <trkpt lat="42.84663" lon="0.14343">
        <ele>2200</ele>
        <time>2020-07-28T09:50:07.092Z</time>
      </trkpt>
      <trkpt lat="42.84663" lon="0.14343">
        <ele>2200</ele>
        <time>2020-07-28T09:50:08.092Z</time>
      </trkpt>
      <trkpt lat="42.84661" lon="0.14344">
        <ele>2200</ele>
        <time>2020-07-28T09:50:09.092Z</time>
      </trkpt>
      <trkpt lat="42.8466" lon="0.14346">
        <ele>2199</ele>
        <time>2020-07-28T09:50:10.092Z</time>
      </trkpt>
      <trkpt lat="42.84659" lon="0.14347">
        <ele>2199</ele>
        <time>2020-07-28T09:50:11.092Z</time>
      </trkpt>
      <trkpt lat="42.84658" lon="0.14347">
        <ele>2198</ele>
        <time>2020-07-28T09:50:12.092Z</time>
      </trkpt>
      <trkpt lat="42.84658" lon="0.14347">
        <ele>2200</ele>
        <time>2020-07-28T09:50:13.092Z</time>
      </trkpt>
      <trkpt lat="42.84658" lon="0.14347">
        <ele>2200</ele>
        <time>2020-07-28T09:50:14.092Z</time>
      </trkpt>
      <trkpt lat="42.84658" lon="0.14347">
        <ele>2201</ele>
        <time>2020-07-28T09:50:15.092Z</time>
      </trkpt>
      <trkpt lat="42.84658" lon="0.14347">
        <ele>2200</ele>
        <time>2020-07-28T09:50:16.092Z</time>
      </trkpt>
      <trkpt lat="42.84658" lon="0.14347">
        <ele>2200</ele>
        <time>2020-07-28T09:50:17.092Z</time>
      </trkpt>
      <trkpt lat="42.84658" lon="0.14348">
        <ele>2200</ele>
        <time>2020-07-28T09:50:18.092Z</time>
      </trkpt>
      <trkpt lat="42.84658" lon="0.14349">
        <ele>2200</ele>
        <time>2020-07-28T09:50:19.092Z</time>
      </trkpt>
      <trkpt lat="42.84658" lon="0.14349">
        <ele>2200</ele>
        <time>2020-07-28T09:50:20.092Z</time>
      </trkpt>
      <trkpt lat="42.84658" lon="0.14349">
        <ele>2200</ele>
        <time>2020-07-28T09:50:21.092Z</time>
      </trkpt>
      <trkpt lat="42.84654" lon="0.14356">
        <ele>2198</ele>
        <time>2020-07-28T09:50:22.092Z</time>
      </trkpt>
      <trkpt lat="42.84654" lon="0.14356">
        <ele>2198</ele>
        <time>2020-07-28T09:50:23.092Z</time>
      </trkpt>
      <trkpt lat="42.84652" lon="0.14358">
        <ele>2198</ele>
        <time>2020-07-28T09:50:24.092Z</time>
      </trkpt>
      <trkpt lat="42.84647" lon="0.14361">
        <ele>2198</ele>
        <time>2020-07-28T09:50:25.092Z</time>
      </trkpt>
      <trkpt lat="42.84647" lon="0.14361">
        <ele>2198</ele>
        <time>2020-07-28T09:50:26.092Z</time>
      </trkpt>
      <trkpt lat="42.84647" lon="0.14361">
        <ele>2198</ele>
        <time>2020-07-28T09:50:27.092Z</time>
      </trkpt>
      <trkpt lat="42.84636" lon="0.14365">
        <ele>2196</ele>
        <time>2020-07-28T09:50:28.092Z</time>
      </trkpt>
      <trkpt lat="42.84636" lon="0.14365">
        <ele>2196</ele>
        <time>2020-07-28T09:50:29.092Z</time>
      </trkpt>
      <trkpt lat="42.84632" lon="0.14366">
        <ele>2195</ele>
        <time>2020-07-28T09:50:30.092Z</time>
      </trkpt>
      <trkpt lat="42.84629" lon="0.14366">
        <ele>2194</ele>
        <time>2020-07-28T09:50:31.092Z</time>
      </trkpt>
      <trkpt lat="42.846" lon="0.14383">
        <ele>2200</ele>
        <time>2020-07-28T09:50:32.107Z</time>
      </trkpt>
      <trkpt lat="42.846" lon="0.1438">
        <ele>2199</ele>
        <time>2020-07-28T09:50:33.107Z</time>
      </trkpt>
      <trkpt lat="42.846" lon="0.1438">
        <ele>2199</ele>
        <time>2020-07-28T09:50:34.107Z</time>
      </trkpt>
      <trkpt lat="42.846" lon="0.1438">
        <ele>2199</ele>
        <time>2020-07-28T09:50:35.107Z</time>
      </trkpt>
      <trkpt lat="42.84599" lon="0.14377">
        <ele>2199</ele>
        <time>2020-07-28T09:50:36.107Z</time>
      </trkpt>
      <trkpt lat="42.84599" lon="0.14377">
        <ele>2199</ele>
        <time>2020-07-28T09:50:37.107Z</time>
      </trkpt>
      <trkpt lat="42.84598" lon="0.14373">
        <ele>2198</ele>
        <time>2020-07-28T09:50:38.107Z</time>
      </trkpt>
      <trkpt lat="42.84596" lon="0.14367">
        <ele>2198</ele>
        <time>2020-07-28T09:50:39.107Z</time>
      </trkpt>
      <trkpt lat="42.84596" lon="0.14367">
        <ele>2198</ele>
        <time>2020-07-28T09:50:40.107Z</time>
      </trkpt>
      <trkpt lat="42.84595" lon="0.14364">
        <ele>2198</ele>
        <time>2020-07-28T09:50:41.107Z</time>
      </trkpt>
      <trkpt lat="42.84591" lon="0.14359">
        <ele>2197</ele>
        <time>2020-07-28T09:50:42.107Z</time>
      </trkpt>
      <trkpt lat="42.84591" lon="0.14359">
        <ele>2197</ele>
        <time>2020-07-28T09:50:43.107Z</time>
      </trkpt>
      <trkpt lat="42.84591" lon="0.14359">
        <ele>2197</ele>
        <time>2020-07-28T09:50:44.107Z</time>
      </trkpt>
      <trkpt lat="42.84585" lon="0.14356">
        <ele>2196</ele>
        <time>2020-07-28T09:50:45.107Z</time>
      </trkpt>
      <trkpt lat="42.84585" lon="0.14356">
        <ele>2196</ele>
        <time>2020-07-28T09:50:46.107Z</time>
      </trkpt>
      <trkpt lat="42.84585" lon="0.14356">
        <ele>2196</ele>
        <time>2020-07-28T09:50:47.107Z</time>
      </trkpt>
      <trkpt lat="42.84576" lon="0.14352">
        <ele>2196</ele>
        <time>2020-07-28T09:50:48.107Z</time>
      </trkpt>
      <trkpt lat="42.84576" lon="0.14352">
        <ele>2196</ele>
        <time>2020-07-28T09:50:49.107Z</time>
      </trkpt>
      <trkpt lat="42.84576" lon="0.14352">
        <ele>2196</ele>
        <time>2020-07-28T09:50:50.107Z</time>
      </trkpt>
      <trkpt lat="42.84566" lon="0.14346">
        <ele>2195</ele>
        <time>2020-07-28T09:50:51.107Z</time>
      </trkpt>
      <trkpt lat="42.84566" lon="0.14346">
        <ele>2195</ele>
        <time>2020-07-28T09:50:52.107Z</time>
      </trkpt>
      <trkpt lat="42.84566" lon="0.14346">
        <ele>2195</ele>
        <time>2020-07-28T09:50:53.107Z</time>
      </trkpt>
      <trkpt lat="42.84557" lon="0.14346">
        <ele>2196</ele>
        <time>2020-07-28T09:50:54.107Z</time>
      </trkpt>
      <trkpt lat="42.84557" lon="0.14346">
        <ele>2196</ele>
        <time>2020-07-28T09:50:55.107Z</time>
      </trkpt>
      <trkpt lat="42.84557" lon="0.14346">
        <ele>2196</ele>
        <time>2020-07-28T09:50:56.107Z</time>
      </trkpt>
      <trkpt lat="42.84549" lon="0.14346">
        <ele>2195</ele>
        <time>2020-07-28T09:50:57.107Z</time>
      </trkpt>
      <trkpt lat="42.84549" lon="0.14346">
        <ele>2195</ele>
        <time>2020-07-28T09:50:58.107Z</time>
      </trkpt>
      <trkpt lat="42.84549" lon="0.14346">
        <ele>2195</ele>
        <time>2020-07-28T09:50:59.107Z</time>
      </trkpt>
      <trkpt lat="42.8454" lon="0.14349">
        <ele>2195</ele>
        <time>2020-07-28T09:51:00.107Z</time>
      </trkpt>
      <trkpt lat="42.8454" lon="0.14349">
        <ele>2195</ele>
        <time>2020-07-28T09:51:01.107Z</time>
      </trkpt>
      <trkpt lat="42.8454" lon="0.14349">
        <ele>2195</ele>
        <time>2020-07-28T09:51:02.107Z</time>
      </trkpt>
      <trkpt lat="42.84532" lon="0.14357">
        <ele>2194</ele>
        <time>2020-07-28T09:51:03.107Z</time>
      </trkpt>
      <trkpt lat="42.84532" lon="0.14357">
        <ele>2194</ele>
        <time>2020-07-28T09:51:04.107Z</time>
      </trkpt>
      <trkpt lat="42.84532" lon="0.14357">
        <ele>2194</ele>
        <time>2020-07-28T09:51:05.107Z</time>
      </trkpt>
      <trkpt lat="42.84524" lon="0.14362">
        <ele>2195</ele>
        <time>2020-07-28T09:51:06.107Z</time>
      </trkpt>
      <trkpt lat="42.84524" lon="0.14362">
        <ele>2195</ele>
        <time>2020-07-28T09:51:07.107Z</time>
      </trkpt>
      <trkpt lat="42.84524" lon="0.14362">
        <ele>2195</ele>
        <time>2020-07-28T09:51:08.107Z</time>
      </trkpt>
      <trkpt lat="42.84519" lon="0.14372">
        <ele>2196</ele>
        <time>2020-07-28T09:51:09.107Z</time>
      </trkpt>
      <trkpt lat="42.84519" lon="0.14372">
        <ele>2196</ele>
        <time>2020-07-28T09:51:10.107Z</time>
      </trkpt>
      <trkpt lat="42.84519" lon="0.14372">
        <ele>2196</ele>
        <time>2020-07-28T09:51:11.107Z</time>
      </trkpt>
      <trkpt lat="42.84513" lon="0.14382">
        <ele>2197</ele>
        <time>2020-07-28T09:51:12.107Z</time>
      </trkpt>
      <trkpt lat="42.84511" lon="0.14385">
        <ele>2197</ele>
        <time>2020-07-28T09:51:13.107Z</time>
      </trkpt>
      <trkpt lat="42.84511" lon="0.14385">
        <ele>2197</ele>
        <time>2020-07-28T09:51:14.107Z</time>
      </trkpt>
      <trkpt lat="42.84506" lon="0.14388">
        <ele>2197</ele>
        <time>2020-07-28T09:51:15.107Z</time>
      </trkpt>
      <trkpt lat="42.84506" lon="0.14388">
        <ele>2197</ele>
        <time>2020-07-28T09:51:16.107Z</time>
      </trkpt>
      <trkpt lat="42.84506" lon="0.14388">
        <ele>2197</ele>
        <time>2020-07-28T09:51:17.107Z</time>
      </trkpt>
      <trkpt lat="42.84504" lon="0.14388">
        <ele>2202</ele>
        <time>2020-07-28T09:51:18.107Z</time>
      </trkpt>
      <trkpt lat="42.84504" lon="0.14388">
        <ele>2202</ele>
        <time>2020-07-28T09:51:19.107Z</time>
      </trkpt>
      <trkpt lat="42.84504" lon="0.14388">
        <ele>2202</ele>
        <time>2020-07-28T09:51:20.107Z</time>
      </trkpt>
      <trkpt lat="42.84498" lon="0.14388">
        <ele>2202</ele>
        <time>2020-07-28T09:51:21.107Z</time>
      </trkpt>
      <trkpt lat="42.84498" lon="0.14388">
        <ele>2202</ele>
        <time>2020-07-28T09:51:22.107Z</time>
      </trkpt>
      <trkpt lat="42.84498" lon="0.14388">
        <ele>2202</ele>
        <time>2020-07-28T09:51:23.107Z</time>
      </trkpt>
      <trkpt lat="42.84493" lon="0.14387">
        <ele>2202</ele>
        <time>2020-07-28T09:51:24.107Z</time>
      </trkpt>
      <trkpt lat="42.84493" lon="0.14387">
        <ele>2202</ele>
        <time>2020-07-28T09:51:25.107Z</time>
      </trkpt>
      <trkpt lat="42.84493" lon="0.14387">
        <ele>2202</ele>
        <time>2020-07-28T09:51:26.107Z</time>
      </trkpt>
      <trkpt lat="42.8449" lon="0.14387">
        <ele>2201</ele>
        <time>2020-07-28T09:51:27.107Z</time>
      </trkpt>
      <trkpt lat="42.8449" lon="0.14387">
        <ele>2201</ele>
        <time>2020-07-28T09:51:28.107Z</time>
      </trkpt>
      <trkpt lat="42.8449" lon="0.14387">
        <ele>2201</ele>
        <time>2020-07-28T09:51:29.107Z</time>
      </trkpt>
      <trkpt lat="42.84486" lon="0.14387">
        <ele>2202</ele>
        <time>2020-07-28T09:51:30.107Z</time>
      </trkpt>
      <trkpt lat="42.84486" lon="0.14387">
        <ele>2202</ele>
        <time>2020-07-28T09:51:31.107Z</time>
      </trkpt>
      <trkpt lat="42.84486" lon="0.14387">
        <ele>2202</ele>
        <time>2020-07-28T09:51:32.107Z</time>
      </trkpt>
      <trkpt lat="42.84485" lon="0.14387">
        <ele>2202</ele>
        <time>2020-07-28T09:51:33.107Z</time>
      </trkpt>
      <trkpt lat="42.84485" lon="0.14387">
        <ele>2202</ele>
        <time>2020-07-28T09:51:34.107Z</time>
      </trkpt>
      <trkpt lat="42.84485" lon="0.14387">
        <ele>2202</ele>
        <time>2020-07-28T09:51:35.107Z</time>
      </trkpt>
      <trkpt lat="42.84483" lon="0.14389">
        <ele>2201</ele>
        <time>2020-07-28T09:51:36.107Z</time>
      </trkpt>
      <trkpt lat="42.84483" lon="0.14389">
        <ele>2201</ele>
        <time>2020-07-28T09:51:37.107Z</time>
      </trkpt>
      <trkpt lat="42.84483" lon="0.14389">
        <ele>2201</ele>
        <time>2020-07-28T09:51:38.107Z</time>
      </trkpt>
      <trkpt lat="42.84483" lon="0.14391">
        <ele>2202</ele>
        <time>2020-07-28T09:51:39.107Z</time>
      </trkpt>
      <trkpt lat="42.84483" lon="0.14391">
        <ele>2202</ele>
        <time>2020-07-28T09:51:40.107Z</time>
      </trkpt>
      <trkpt lat="42.84483" lon="0.14391">
        <ele>2202</ele>
        <time>2020-07-28T09:51:41.107Z</time>
      </trkpt>
      <trkpt lat="42.84483" lon="0.14391">
        <ele>2202</ele>
        <time>2020-07-28T09:51:42.107Z</time>
      </trkpt>
      <trkpt lat="42.84483" lon="0.14391">
        <ele>2202</ele>
        <time>2020-07-28T09:51:43.107Z</time>
      </trkpt>
      <trkpt lat="42.84483" lon="0.14391">
        <ele>2202</ele>
        <time>2020-07-28T09:51:44.107Z</time>
      </trkpt>
      <trkpt lat="42.84484" lon="0.14391">
        <ele>2202</ele>
        <time>2020-07-28T09:51:45.111Z</time>
      </trkpt>
      <trkpt lat="42.84484" lon="0.14391">
        <ele>2201</ele>
        <time>2020-07-28T09:51:46.111Z</time>
      </trkpt>
      <trkpt lat="42.84484" lon="0.14391">
        <ele>2201</ele>
        <time>2020-07-28T09:51:47.111Z</time>
      </trkpt>
      <trkpt lat="42.84484" lon="0.14391">
        <ele>2201</ele>
        <time>2020-07-28T09:51:48.111Z</time>
      </trkpt>
      <trkpt lat="42.84483" lon="0.14395">
        <ele>2202</ele>
        <time>2020-07-28T09:51:49.111Z</time>
      </trkpt>
      <trkpt lat="42.84482" lon="0.14398">
        <ele>2202</ele>
        <time>2020-07-28T09:51:50.111Z</time>
      </trkpt>
      <trkpt lat="42.84482" lon="0.14398">
        <ele>2202</ele>
        <time>2020-07-28T09:51:51.111Z</time>
      </trkpt>
      <trkpt lat="42.8448" lon="0.14403">
        <ele>2200</ele>
        <time>2020-07-28T09:51:52.111Z</time>
      </trkpt>
      <trkpt lat="42.8448" lon="0.14403">
        <ele>2200</ele>
        <time>2020-07-28T09:51:53.111Z</time>
      </trkpt>
      <trkpt lat="42.8448" lon="0.14403">
        <ele>2200</ele>
        <time>2020-07-28T09:51:54.111Z</time>
      </trkpt>
      <trkpt lat="42.84475" lon="0.14409">
        <ele>2200</ele>
        <time>2020-07-28T09:51:55.111Z</time>
      </trkpt>
      <trkpt lat="42.84475" lon="0.14409">
        <ele>2200</ele>
        <time>2020-07-28T09:51:56.111Z</time>
      </trkpt>
      <trkpt lat="42.84475" lon="0.14409">
        <ele>2200</ele>
        <time>2020-07-28T09:51:57.111Z</time>
      </trkpt>
      <trkpt lat="42.84472" lon="0.1441">
        <ele>2197</ele>
        <time>2020-07-28T09:51:58.111Z</time>
      </trkpt>
      <trkpt lat="42.84472" lon="0.1441">
        <ele>2197</ele>
        <time>2020-07-28T09:51:59.111Z</time>
      </trkpt>
      <trkpt lat="42.84472" lon="0.1441">
        <ele>2197</ele>
        <time>2020-07-28T09:52:00.111Z</time>
      </trkpt>
      <trkpt lat="42.84466" lon="0.14412">
        <ele>2198</ele>
        <time>2020-07-28T09:52:01.111Z</time>
      </trkpt>
      <trkpt lat="42.84463" lon="0.14412">
        <ele>2197</ele>
        <time>2020-07-28T09:52:02.111Z</time>
      </trkpt>
      <trkpt lat="42.84463" lon="0.14412">
        <ele>2197</ele>
        <time>2020-07-28T09:52:03.111Z</time>
      </trkpt>
      <trkpt lat="42.84457" lon="0.14409">
        <ele>2196</ele>
        <time>2020-07-28T09:52:04.111Z</time>
      </trkpt>
      <trkpt lat="42.84457" lon="0.14409">
        <ele>2196</ele>
        <time>2020-07-28T09:52:05.111Z</time>
      </trkpt>
      <trkpt lat="42.84457" lon="0.14409">
        <ele>2196</ele>
        <time>2020-07-28T09:52:06.111Z</time>
      </trkpt>
      <trkpt lat="42.8445" lon="0.14406">
        <ele>2194</ele>
        <time>2020-07-28T09:52:07.111Z</time>
      </trkpt>
      <trkpt lat="42.8445" lon="0.14406">
        <ele>2194</ele>
        <time>2020-07-28T09:52:08.111Z</time>
      </trkpt>
      <trkpt lat="42.84445" lon="0.14404">
        <ele>2195</ele>
        <time>2020-07-28T09:52:09.111Z</time>
      </trkpt>
      <trkpt lat="42.84443" lon="0.14403">
        <ele>2195</ele>
        <time>2020-07-28T09:52:10.111Z</time>
      </trkpt>
      <trkpt lat="42.84443" lon="0.14403">
        <ele>2195</ele>
        <time>2020-07-28T09:52:11.111Z</time>
      </trkpt>
      <trkpt lat="42.84437" lon="0.14404">
        <ele>2194</ele>
        <time>2020-07-28T09:52:12.111Z</time>
      </trkpt>
      <trkpt lat="42.84435" lon="0.14406">
        <ele>2194</ele>
        <time>2020-07-28T09:52:13.111Z</time>
      </trkpt>
      <trkpt lat="42.84435" lon="0.14406">
        <ele>2194</ele>
        <time>2020-07-28T09:52:14.111Z</time>
      </trkpt>
      <trkpt lat="42.84435" lon="0.14406">
        <ele>2194</ele>
        <time>2020-07-28T09:52:15.111Z</time>
      </trkpt>
      <trkpt lat="42.84428" lon="0.14411">
        <ele>2194</ele>
        <time>2020-07-28T09:52:16.111Z</time>
      </trkpt>
      <trkpt lat="42.84428" lon="0.14411">
        <ele>2194</ele>
        <time>2020-07-28T09:52:17.111Z</time>
      </trkpt>
      <trkpt lat="42.84424" lon="0.14416">
        <ele>2194</ele>
        <time>2020-07-28T09:52:18.111Z</time>
      </trkpt>
      <trkpt lat="42.84423" lon="0.14419">
        <ele>2195</ele>
        <time>2020-07-28T09:52:19.111Z</time>
      </trkpt>
      <trkpt lat="42.84423" lon="0.14419">
        <ele>2195</ele>
        <time>2020-07-28T09:52:20.111Z</time>
      </trkpt>
      <trkpt lat="42.84423" lon="0.14419">
        <ele>2195</ele>
        <time>2020-07-28T09:52:21.111Z</time>
      </trkpt>
      <trkpt lat="42.84415" lon="0.14423">
        <ele>2194</ele>
        <time>2020-07-28T09:52:22.111Z</time>
      </trkpt>
      <trkpt lat="42.84415" lon="0.14423">
        <ele>2194</ele>
        <time>2020-07-28T09:52:23.111Z</time>
      </trkpt>
      <trkpt lat="42.8441" lon="0.14425">
        <ele>2194</ele>
        <time>2020-07-28T09:52:24.111Z</time>
      </trkpt>
      <trkpt lat="42.84408" lon="0.14427">
        <ele>2194</ele>
        <time>2020-07-28T09:52:25.111Z</time>
      </trkpt>
      <trkpt lat="42.84408" lon="0.14427">
        <ele>2194</ele>
        <time>2020-07-28T09:52:26.111Z</time>
      </trkpt>
      <trkpt lat="42.84402" lon="0.1443">
        <ele>2196</ele>
        <time>2020-07-28T09:52:27.111Z</time>
      </trkpt>
      <trkpt lat="42.84399" lon="0.1443">
        <ele>2196</ele>
        <time>2020-07-28T09:52:28.111Z</time>
      </trkpt>
      <trkpt lat="42.84396" lon="0.14431">
        <ele>2197</ele>
        <time>2020-07-28T09:52:29.111Z</time>
      </trkpt>
      <trkpt lat="42.84393" lon="0.14431">
        <ele>2196</ele>
        <time>2020-07-28T09:52:30.111Z</time>
      </trkpt>
      <trkpt lat="42.8439" lon="0.14431">
        <ele>2196</ele>
        <time>2020-07-28T09:52:31.111Z</time>
      </trkpt>
      <trkpt lat="42.84388" lon="0.14432">
        <ele>2196</ele>
        <time>2020-07-28T09:52:32.111Z</time>
      </trkpt>
      <trkpt lat="42.84386" lon="0.14433">
        <ele>2197</ele>
        <time>2020-07-28T09:52:33.111Z</time>
      </trkpt>
      <trkpt lat="42.84383" lon="0.14434">
        <ele>2197</ele>
        <time>2020-07-28T09:52:34.111Z</time>
      </trkpt>
      <trkpt lat="42.84381" lon="0.14435">
        <ele>2198</ele>
        <time>2020-07-28T09:52:35.111Z</time>
      </trkpt>
      <trkpt lat="42.84379" lon="0.14436">
        <ele>2198</ele>
        <time>2020-07-28T09:52:36.111Z</time>
      </trkpt>
      <trkpt lat="42.84378" lon="0.14438">
        <ele>2199</ele>
        <time>2020-07-28T09:52:37.111Z</time>
      </trkpt>
      <trkpt lat="42.84377" lon="0.1444">
        <ele>2198</ele>
        <time>2020-07-28T09:52:38.111Z</time>
      </trkpt>
      <trkpt lat="42.84377" lon="0.1444">
        <ele>2198</ele>
        <time>2020-07-28T09:52:39.111Z</time>
      </trkpt>
      <trkpt lat="42.84376" lon="0.14444">
        <ele>2199</ele>
        <time>2020-07-28T09:52:40.111Z</time>
      </trkpt>
      <trkpt lat="42.84375" lon="0.14446">
        <ele>2199</ele>
        <time>2020-07-28T09:52:41.111Z</time>
      </trkpt>
      <trkpt lat="42.84374" lon="0.14447">
        <ele>2198</ele>
        <time>2020-07-28T09:52:42.111Z</time>
      </trkpt>
      <trkpt lat="42.84374" lon="0.14449">
        <ele>2199</ele>
        <time>2020-07-28T09:52:43.111Z</time>
      </trkpt>
      <trkpt lat="42.84373" lon="0.1445">
        <ele>2199</ele>
        <time>2020-07-28T09:52:44.111Z</time>
      </trkpt>
      <trkpt lat="42.84372" lon="0.14452">
        <ele>2199</ele>
        <time>2020-07-28T09:52:45.111Z</time>
      </trkpt>
      <trkpt lat="42.84371" lon="0.14454">
        <ele>2199</ele>
        <time>2020-07-28T09:52:46.111Z</time>
      </trkpt>
      <trkpt lat="42.8437" lon="0.14458">
        <ele>2199</ele>
        <time>2020-07-28T09:52:47.111Z</time>
      </trkpt>
      <trkpt lat="42.8437" lon="0.14462">
        <ele>2199</ele>
        <time>2020-07-28T09:52:48.111Z</time>
      </trkpt>
      <trkpt lat="42.84369" lon="0.14466">
        <ele>2200</ele>
        <time>2020-07-28T09:52:49.111Z</time>
      </trkpt>
      <trkpt lat="42.84369" lon="0.14466">
        <ele>2200</ele>
        <time>2020-07-28T09:52:50.111Z</time>
      </trkpt>
      <trkpt lat="42.84365" lon="0.14473">
        <ele>2200</ele>
        <time>2020-07-28T09:52:51.111Z</time>
      </trkpt>
      <trkpt lat="42.84363" lon="0.14475">
        <ele>2199</ele>
        <time>2020-07-28T09:52:52.111Z</time>
      </trkpt>
      <trkpt lat="42.84362" lon="0.14477">
        <ele>2200</ele>
        <time>2020-07-28T09:52:53.111Z</time>
      </trkpt>
      <trkpt lat="42.8436" lon="0.14479">
        <ele>2200</ele>
        <time>2020-07-28T09:52:54.111Z</time>
      </trkpt>
      <trkpt lat="42.84358" lon="0.14482">
        <ele>2199</ele>
        <time>2020-07-28T09:52:55.111Z</time>
      </trkpt>
      <trkpt lat="42.84356" lon="0.14484">
        <ele>2199</ele>
        <time>2020-07-28T09:52:56.111Z</time>
      </trkpt>
      <trkpt lat="42.84356" lon="0.14484">
        <ele>2199</ele>
        <time>2020-07-28T09:52:57.111Z</time>
      </trkpt>
      <trkpt lat="42.84352" lon="0.1449">
        <ele>2200</ele>
        <time>2020-07-28T09:52:58.111Z</time>
      </trkpt>
      <trkpt lat="42.84351" lon="0.14493">
        <ele>2202</ele>
        <time>2020-07-28T09:52:59.111Z</time>
      </trkpt>
      <trkpt lat="42.84349" lon="0.14496">
        <ele>2202</ele>
        <time>2020-07-28T09:53:00.111Z</time>
      </trkpt>
      <trkpt lat="42.84346" lon="0.14499">
        <ele>2202</ele>
        <time>2020-07-28T09:53:01.111Z</time>
      </trkpt>
      <trkpt lat="42.84344" lon="0.14501">
        <ele>2201</ele>
        <time>2020-07-28T09:53:02.111Z</time>
      </trkpt>
      <trkpt lat="42.84344" lon="0.14501">
        <ele>2201</ele>
        <time>2020-07-28T09:53:03.111Z</time>
      </trkpt>
      <trkpt lat="42.84339" lon="0.14506">
        <ele>2200</ele>
        <time>2020-07-28T09:53:04.111Z</time>
      </trkpt>
      <trkpt lat="42.84337" lon="0.14508">
        <ele>2200</ele>
        <time>2020-07-28T09:53:05.111Z</time>
      </trkpt>
      <trkpt lat="42.84335" lon="0.1451">
        <ele>2199</ele>
        <time>2020-07-28T09:53:06.111Z</time>
      </trkpt>
      <trkpt lat="42.84333" lon="0.14512">
        <ele>2199</ele>
        <time>2020-07-28T09:53:07.111Z</time>
      </trkpt>
      <trkpt lat="42.84333" lon="0.14512">
        <ele>2199</ele>
        <time>2020-07-28T09:53:08.111Z</time>
      </trkpt>
      <trkpt lat="42.84329" lon="0.14516">
        <ele>2199</ele>
        <time>2020-07-28T09:53:09.111Z</time>
      </trkpt>
      <trkpt lat="42.84326" lon="0.14518">
        <ele>2199</ele>
        <time>2020-07-28T09:53:10.111Z</time>
      </trkpt>
      <trkpt lat="42.84324" lon="0.1452">
        <ele>2199</ele>
        <time>2020-07-28T09:53:11.111Z</time>
      </trkpt>
      <trkpt lat="42.84322" lon="0.14522">
        <ele>2199</ele>
        <time>2020-07-28T09:53:12.111Z</time>
      </trkpt>
      <trkpt lat="42.84319" lon="0.14522">
        <ele>2198</ele>
        <time>2020-07-28T09:53:13.111Z</time>
      </trkpt>
      <trkpt lat="42.84317" lon="0.14523">
        <ele>2197</ele>
        <time>2020-07-28T09:53:14.111Z</time>
      </trkpt>
      <trkpt lat="42.84315" lon="0.14523">
        <ele>2197</ele>
        <time>2020-07-28T09:53:15.111Z</time>
      </trkpt>
      <trkpt lat="42.84313" lon="0.14524">
        <ele>2197</ele>
        <time>2020-07-28T09:53:16.111Z</time>
      </trkpt>
      <trkpt lat="42.8431" lon="0.14526">
        <ele>2197</ele>
        <time>2020-07-28T09:53:17.111Z</time>
      </trkpt>
      <trkpt lat="42.84308" lon="0.14528">
        <ele>2197</ele>
        <time>2020-07-28T09:53:18.111Z</time>
      </trkpt>
      <trkpt lat="42.84306" lon="0.1453">
        <ele>2198</ele>
        <time>2020-07-28T09:53:19.111Z</time>
      </trkpt>
      <trkpt lat="42.84306" lon="0.1453">
        <ele>2198</ele>
        <time>2020-07-28T09:53:20.111Z</time>
      </trkpt>
      <trkpt lat="42.84301" lon="0.14534">
        <ele>2197</ele>
        <time>2020-07-28T09:53:21.111Z</time>
      </trkpt>
      <trkpt lat="42.84299" lon="0.14536">
        <ele>2197</ele>
        <time>2020-07-28T09:53:22.111Z</time>
      </trkpt>
      <trkpt lat="42.84297" lon="0.14539">
        <ele>2197</ele>
        <time>2020-07-28T09:53:23.111Z</time>
      </trkpt>
      <trkpt lat="42.84295" lon="0.14541">
        <ele>2197</ele>
        <time>2020-07-28T09:53:24.111Z</time>
      </trkpt>
      <trkpt lat="42.84293" lon="0.14543">
        <ele>2197</ele>
        <time>2020-07-28T09:53:25.111Z</time>
      </trkpt>
      <trkpt lat="42.8429" lon="0.14545">
        <ele>2196</ele>
        <time>2020-07-28T09:53:26.111Z</time>
      </trkpt>
      <trkpt lat="42.84288" lon="0.14546">
        <ele>2197</ele>
        <time>2020-07-28T09:53:27.111Z</time>
      </trkpt>
      <trkpt lat="42.84286" lon="0.14547">
        <ele>2197</ele>
        <time>2020-07-28T09:53:28.111Z</time>
      </trkpt>
      <trkpt lat="42.84285" lon="0.14548">
        <ele>2199</ele>
        <time>2020-07-28T09:53:29.111Z</time>
      </trkpt>
      <trkpt lat="42.84285" lon="0.14548">
        <ele>2199</ele>
        <time>2020-07-28T09:53:30.111Z</time>
      </trkpt>
      <trkpt lat="42.84283" lon="0.14548">
        <ele>2198</ele>
        <time>2020-07-28T09:53:31.111Z</time>
      </trkpt>
      <trkpt lat="42.84282" lon="0.14548">
        <ele>2199</ele>
        <time>2020-07-28T09:53:32.111Z</time>
      </trkpt>
      <trkpt lat="42.84282" lon="0.14548">
        <ele>2198</ele>
        <time>2020-07-28T09:53:33.111Z</time>
      </trkpt>
      <trkpt lat="42.84281" lon="0.14548">
        <ele>2198</ele>
        <time>2020-07-28T09:53:34.111Z</time>
      </trkpt>
      <trkpt lat="42.8428" lon="0.14548">
        <ele>2198</ele>
        <time>2020-07-28T09:53:35.111Z</time>
      </trkpt>
      <trkpt lat="42.84279" lon="0.14548">
        <ele>2198</ele>
        <time>2020-07-28T09:53:36.111Z</time>
      </trkpt>
      <trkpt lat="42.84278" lon="0.14548">
        <ele>2198</ele>
        <time>2020-07-28T09:53:37.111Z</time>
      </trkpt>
      <trkpt lat="42.84277" lon="0.14548">
        <ele>2198</ele>
        <time>2020-07-28T09:53:38.111Z</time>
      </trkpt>
      <trkpt lat="42.84277" lon="0.14549">
        <ele>2198</ele>
        <time>2020-07-28T09:53:39.111Z</time>
      </trkpt>
      <trkpt lat="42.84276" lon="0.1455">
        <ele>2197</ele>
        <time>2020-07-28T09:53:40.111Z</time>
      </trkpt>
      <trkpt lat="42.84275" lon="0.14551">
        <ele>2197</ele>
        <time>2020-07-28T09:53:41.111Z</time>
      </trkpt>
      <trkpt lat="42.84275" lon="0.14552">
        <ele>2197</ele>
        <time>2020-07-28T09:53:42.111Z</time>
      </trkpt>
      <trkpt lat="42.84274" lon="0.14553">
        <ele>2197</ele>
        <time>2020-07-28T09:53:43.111Z</time>
      </trkpt>
      <trkpt lat="42.84274" lon="0.14554">
        <ele>2196</ele>
        <time>2020-07-28T09:53:44.111Z</time>
      </trkpt>
      <trkpt lat="42.84273" lon="0.14555">
        <ele>2196</ele>
        <time>2020-07-28T09:53:45.111Z</time>
      </trkpt>
      <trkpt lat="42.84273" lon="0.14556">
        <ele>2196</ele>
        <time>2020-07-28T09:53:46.111Z</time>
      </trkpt>
      <trkpt lat="42.84273" lon="0.14557">
        <ele>2196</ele>
        <time>2020-07-28T09:53:47.111Z</time>
      </trkpt>
      <trkpt lat="42.84273" lon="0.14557">
        <ele>2196</ele>
        <time>2020-07-28T09:53:48.111Z</time>
      </trkpt>
      <trkpt lat="42.84272" lon="0.14561">
        <ele>2197</ele>
        <time>2020-07-28T09:53:49.111Z</time>
      </trkpt>
      <trkpt lat="42.84272" lon="0.14562">
        <ele>2197</ele>
        <time>2020-07-28T09:53:50.111Z</time>
      </trkpt>
      <trkpt lat="42.84272" lon="0.14563">
        <ele>2196</ele>
        <time>2020-07-28T09:53:51.111Z</time>
      </trkpt>
      <trkpt lat="42.84272" lon="0.14564">
        <ele>2196</ele>
        <time>2020-07-28T09:53:52.111Z</time>
      </trkpt>
      <trkpt lat="42.84271" lon="0.14565">
        <ele>2196</ele>
        <time>2020-07-28T09:53:53.111Z</time>
      </trkpt>
      <trkpt lat="42.8427" lon="0.14566">
        <ele>2196</ele>
        <time>2020-07-28T09:53:54.111Z</time>
      </trkpt>
      <trkpt lat="42.8427" lon="0.14567">
        <ele>2196</ele>
        <time>2020-07-28T09:53:55.111Z</time>
      </trkpt>
      <trkpt lat="42.84269" lon="0.14567">
        <ele>2196</ele>
        <time>2020-07-28T09:53:56.111Z</time>
      </trkpt>
      <trkpt lat="42.84269" lon="0.14568">
        <ele>2196</ele>
        <time>2020-07-28T09:53:57.111Z</time>
      </trkpt>
      <trkpt lat="42.84268" lon="0.14569">
        <ele>2195</ele>
        <time>2020-07-28T09:53:58.111Z</time>
      </trkpt>
      <trkpt lat="42.84267" lon="0.14569">
        <ele>2195</ele>
        <time>2020-07-28T09:53:59.111Z</time>
      </trkpt>
      <trkpt lat="42.84266" lon="0.1457">
        <ele>2195</ele>
        <time>2020-07-28T09:54:00.111Z</time>
      </trkpt>
      <trkpt lat="42.84265" lon="0.1457">
        <ele>2195</ele>
        <time>2020-07-28T09:54:01.111Z</time>
      </trkpt>
      <trkpt lat="42.84265" lon="0.1457">
        <ele>2195</ele>
        <time>2020-07-28T09:54:02.111Z</time>
      </trkpt>
      <trkpt lat="42.84264" lon="0.14569">
        <ele>2195</ele>
        <time>2020-07-28T09:54:03.111Z</time>
      </trkpt>
      <trkpt lat="42.84263" lon="0.14569">
        <ele>2196</ele>
        <time>2020-07-28T09:54:04.111Z</time>
      </trkpt>
      <trkpt lat="42.84262" lon="0.14568">
        <ele>2196</ele>
        <time>2020-07-28T09:54:05.111Z</time>
      </trkpt>
      <trkpt lat="42.84262" lon="0.14568">
        <ele>2196</ele>
        <time>2020-07-28T09:54:06.111Z</time>
      </trkpt>
      <trkpt lat="42.84261" lon="0.14567">
        <ele>2195</ele>
        <time>2020-07-28T09:54:07.111Z</time>
      </trkpt>
      <trkpt lat="42.8426" lon="0.14566">
        <ele>2195</ele>
        <time>2020-07-28T09:54:08.111Z</time>
      </trkpt>
      <trkpt lat="42.84259" lon="0.14565">
        <ele>2195</ele>
        <time>2020-07-28T09:54:09.111Z</time>
      </trkpt>
      <trkpt lat="42.84259" lon="0.14564">
        <ele>2195</ele>
        <time>2020-07-28T09:54:10.111Z</time>
      </trkpt>
      <trkpt lat="42.84258" lon="0.14563">
        <ele>2194</ele>
        <time>2020-07-28T09:54:11.111Z</time>
      </trkpt>
      <trkpt lat="42.84259" lon="0.14562">
        <ele>2194</ele>
        <time>2020-07-28T09:54:12.111Z</time>
      </trkpt>
      <trkpt lat="42.84259" lon="0.14561">
        <ele>2194</ele>
        <time>2020-07-28T09:54:13.111Z</time>
      </trkpt>
      <trkpt lat="42.8426" lon="0.14561">
        <ele>2194</ele>
        <time>2020-07-28T09:54:14.111Z</time>
      </trkpt>
      <trkpt lat="42.8426" lon="0.1456">
        <ele>2194</ele>
        <time>2020-07-28T09:54:15.111Z</time>
      </trkpt>
      <trkpt lat="42.84261" lon="0.1456">
        <ele>2194</ele>
        <time>2020-07-28T09:54:16.111Z</time>
      </trkpt>
      <trkpt lat="42.8426" lon="0.1456">
        <ele>2195</ele>
        <time>2020-07-28T09:54:17.111Z</time>
      </trkpt>
      <trkpt lat="42.8426" lon="0.1456">
        <ele>2194</ele>
        <time>2020-07-28T09:54:18.111Z</time>
      </trkpt>
      <trkpt lat="42.8426" lon="0.1456">
        <ele>2195</ele>
        <time>2020-07-28T09:54:19.111Z</time>
      </trkpt>
      <trkpt lat="42.84259" lon="0.1456">
        <ele>2195</ele>
        <time>2020-07-28T09:54:20.111Z</time>
      </trkpt>
      <trkpt lat="42.84259" lon="0.14561">
        <ele>2194</ele>
        <time>2020-07-28T09:54:21.111Z</time>
      </trkpt>
      <trkpt lat="42.84259" lon="0.14561">
        <ele>2194</ele>
        <time>2020-07-28T09:54:22.111Z</time>
      </trkpt>
      <trkpt lat="42.84258" lon="0.14563">
        <ele>2194</ele>
        <time>2020-07-28T09:54:23.111Z</time>
      </trkpt>
      <trkpt lat="42.84258" lon="0.14565">
        <ele>2195</ele>
        <time>2020-07-28T09:54:24.111Z</time>
      </trkpt>
      <trkpt lat="42.84258" lon="0.14568">
        <ele>2196</ele>
        <time>2020-07-28T09:54:25.111Z</time>
      </trkpt>
      <trkpt lat="42.84258" lon="0.14572">
        <ele>2196</ele>
        <time>2020-07-28T09:54:26.111Z</time>
      </trkpt>
      <trkpt lat="42.84259" lon="0.14576">
        <ele>2196</ele>
        <time>2020-07-28T09:54:27.111Z</time>
      </trkpt>
      <trkpt lat="42.84259" lon="0.1458">
        <ele>2196</ele>
        <time>2020-07-28T09:54:28.111Z</time>
      </trkpt>
      <trkpt lat="42.84259" lon="0.14585">
        <ele>2196</ele>
        <time>2020-07-28T09:54:29.111Z</time>
      </trkpt>
      <trkpt lat="42.84259" lon="0.14589">
        <ele>2196</ele>
        <time>2020-07-28T09:54:30.111Z</time>
      </trkpt>
      <trkpt lat="42.8426" lon="0.14594">
        <ele>2195</ele>
        <time>2020-07-28T09:54:31.111Z</time>
      </trkpt>
      <trkpt lat="42.8426" lon="0.14598">
        <ele>2195</ele>
        <time>2020-07-28T09:54:32.111Z</time>
      </trkpt>
      <trkpt lat="42.8426" lon="0.14602">
        <ele>2195</ele>
        <time>2020-07-28T09:54:33.111Z</time>
      </trkpt>
      <trkpt lat="42.84261" lon="0.14606">
        <ele>2195</ele>
        <time>2020-07-28T09:54:34.111Z</time>
      </trkpt>
      <trkpt lat="42.84262" lon="0.14611">
        <ele>2195</ele>
        <time>2020-07-28T09:54:35.111Z</time>
      </trkpt>
      <trkpt lat="42.84262" lon="0.14615">
        <ele>2195</ele>
        <time>2020-07-28T09:54:36.111Z</time>
      </trkpt>
      <trkpt lat="42.84263" lon="0.14619">
        <ele>2195</ele>
        <time>2020-07-28T09:54:37.111Z</time>
      </trkpt>
      <trkpt lat="42.84263" lon="0.14623">
        <ele>2195</ele>
        <time>2020-07-28T09:54:38.111Z</time>
      </trkpt>
      <trkpt lat="42.84263" lon="0.14623">
        <ele>2195</ele>
        <time>2020-07-28T09:54:39.111Z</time>
      </trkpt>
      <trkpt lat="42.84263" lon="0.14631">
        <ele>2195</ele>
        <time>2020-07-28T09:54:40.111Z</time>
      </trkpt>
      <trkpt lat="42.84263" lon="0.14635">
        <ele>2195</ele>
        <time>2020-07-28T09:54:41.111Z</time>
      </trkpt>
      <trkpt lat="42.84264" lon="0.14639">
        <ele>2195</ele>
        <time>2020-07-28T09:54:42.111Z</time>
      </trkpt>
      <trkpt lat="42.84264" lon="0.14642">
        <ele>2195</ele>
        <time>2020-07-28T09:54:43.111Z</time>
      </trkpt>
      <trkpt lat="42.84264" lon="0.14646">
        <ele>2195</ele>
        <time>2020-07-28T09:54:44.111Z</time>
      </trkpt>
      <trkpt lat="42.84263" lon="0.1465">
        <ele>2195</ele>
        <time>2020-07-28T09:54:45.111Z</time>
      </trkpt>
      <trkpt lat="42.84262" lon="0.14654">
        <ele>2195</ele>
        <time>2020-07-28T09:54:46.111Z</time>
      </trkpt>
      <trkpt lat="42.84262" lon="0.14658">
        <ele>2195</ele>
        <time>2020-07-28T09:54:47.111Z</time>
      </trkpt>
      <trkpt lat="42.84261" lon="0.14662">
        <ele>2195</ele>
        <time>2020-07-28T09:54:48.111Z</time>
      </trkpt>
      <trkpt lat="42.84261" lon="0.14666">
        <ele>2195</ele>
        <time>2020-07-28T09:54:49.111Z</time>
      </trkpt>
      <trkpt lat="42.84261" lon="0.14666">
        <ele>2195</ele>
        <time>2020-07-28T09:54:50.111Z</time>
      </trkpt>
      <trkpt lat="42.84259" lon="0.14674">
        <ele>2196</ele>
        <time>2020-07-28T09:54:51.111Z</time>
      </trkpt>
      <trkpt lat="42.84258" lon="0.14678">
        <ele>2196</ele>
        <time>2020-07-28T09:54:52.111Z</time>
      </trkpt>
      <trkpt lat="42.84257" lon="0.14681">
        <ele>2197</ele>
        <time>2020-07-28T09:54:53.111Z</time>
      </trkpt>
      <trkpt lat="42.84256" lon="0.14685">
        <ele>2198</ele>
        <time>2020-07-28T09:54:54.111Z</time>
      </trkpt>
      <trkpt lat="42.84255" lon="0.14689">
        <ele>2198</ele>
        <time>2020-07-28T09:54:55.111Z</time>
      </trkpt>
      <trkpt lat="42.84254" lon="0.14692">
        <ele>2198</ele>
        <time>2020-07-28T09:54:56.111Z</time>
      </trkpt>
      <trkpt lat="42.84254" lon="0.14692">
        <ele>2198</ele>
        <time>2020-07-28T09:54:57.111Z</time>
      </trkpt>
      <trkpt lat="42.84252" lon="0.147">
        <ele>2198</ele>
        <time>2020-07-28T09:54:58.111Z</time>
      </trkpt>
      <trkpt lat="42.84251" lon="0.14703">
        <ele>2198</ele>
        <time>2020-07-28T09:54:59.111Z</time>
      </trkpt>
      <trkpt lat="42.84249" lon="0.14706">
        <ele>2198</ele>
        <time>2020-07-28T09:55:00.111Z</time>
      </trkpt>
      <trkpt lat="42.84247" lon="0.14709">
        <ele>2198</ele>
        <time>2020-07-28T09:55:01.111Z</time>
      </trkpt>
      <trkpt lat="42.84245" lon="0.14711">
        <ele>2198</ele>
        <time>2020-07-28T09:55:02.111Z</time>
      </trkpt>
      <trkpt lat="42.84243" lon="0.14714">
        <ele>2199</ele>
        <time>2020-07-28T09:55:03.111Z</time>
      </trkpt>
      <trkpt lat="42.84241" lon="0.14715">
        <ele>2199</ele>
        <time>2020-07-28T09:55:04.111Z</time>
      </trkpt>
      <trkpt lat="42.84238" lon="0.14716">
        <ele>2199</ele>
        <time>2020-07-28T09:55:05.111Z</time>
      </trkpt>
      <trkpt lat="42.84237" lon="0.14716">
        <ele>2200</ele>
        <time>2020-07-28T09:55:06.111Z</time>
      </trkpt>
      <trkpt lat="42.84236" lon="0.14718">
        <ele>2199</ele>
        <time>2020-07-28T09:55:07.111Z</time>
      </trkpt>
      <trkpt lat="42.84235" lon="0.1472">
        <ele>2199</ele>
        <time>2020-07-28T09:55:08.111Z</time>
      </trkpt>
      <trkpt lat="42.84236" lon="0.14721">
        <ele>2201</ele>
        <time>2020-07-28T09:55:09.111Z</time>
      </trkpt>
      <trkpt lat="42.84236" lon="0.14723">
        <ele>2202</ele>
        <time>2020-07-28T09:55:10.111Z</time>
      </trkpt>
      <trkpt lat="42.84236" lon="0.14724">
        <ele>2202</ele>
        <time>2020-07-28T09:55:11.111Z</time>
      </trkpt>
      <trkpt lat="42.84235" lon="0.14725">
        <ele>2201</ele>
        <time>2020-07-28T09:55:12.111Z</time>
      </trkpt>
      <trkpt lat="42.84235" lon="0.14727">
        <ele>2201</ele>
        <time>2020-07-28T09:55:13.111Z</time>
      </trkpt>
      <trkpt lat="42.84235" lon="0.14728">
        <ele>2201</ele>
        <time>2020-07-28T09:55:14.111Z</time>
      </trkpt>
      <trkpt lat="42.84235" lon="0.1473">
        <ele>2201</ele>
        <time>2020-07-28T09:55:15.111Z</time>
      </trkpt>
      <trkpt lat="42.84234" lon="0.14731">
        <ele>2200</ele>
        <time>2020-07-28T09:55:16.111Z</time>
      </trkpt>
      <trkpt lat="42.84234" lon="0.14732">
        <ele>2200</ele>
        <time>2020-07-28T09:55:17.111Z</time>
      </trkpt>
      <trkpt lat="42.84233" lon="0.14733">
        <ele>2201</ele>
        <time>2020-07-28T09:55:18.111Z</time>
      </trkpt>
      <trkpt lat="42.84232" lon="0.14735">
        <ele>2201</ele>
        <time>2020-07-28T09:55:19.111Z</time>
      </trkpt>
      <trkpt lat="42.84232" lon="0.14736">
        <ele>2200</ele>
        <time>2020-07-28T09:55:20.111Z</time>
      </trkpt>
      <trkpt lat="42.84231" lon="0.14738">
        <ele>2200</ele>
        <time>2020-07-28T09:55:21.111Z</time>
      </trkpt>
      <trkpt lat="42.84231" lon="0.1474">
        <ele>2200</ele>
        <time>2020-07-28T09:55:22.111Z</time>
      </trkpt>
      <trkpt lat="42.84231" lon="0.14741">
        <ele>2200</ele>
        <time>2020-07-28T09:55:23.111Z</time>
      </trkpt>
      <trkpt lat="42.8423" lon="0.14742">
        <ele>2200</ele>
        <time>2020-07-28T09:55:24.111Z</time>
      </trkpt>
      <trkpt lat="42.8423" lon="0.14742">
        <ele>2200</ele>
        <time>2020-07-28T09:55:25.111Z</time>
      </trkpt>
      <trkpt lat="42.8423" lon="0.14744">
        <ele>2199</ele>
        <time>2020-07-28T09:55:26.111Z</time>
      </trkpt>
      <trkpt lat="42.84229" lon="0.14745">
        <ele>2200</ele>
        <time>2020-07-28T09:55:27.111Z</time>
      </trkpt>
      <trkpt lat="42.84229" lon="0.14747">
        <ele>2200</ele>
        <time>2020-07-28T09:55:28.111Z</time>
      </trkpt>
      <trkpt lat="42.84229" lon="0.1475">
        <ele>2201</ele>
        <time>2020-07-28T09:55:29.111Z</time>
      </trkpt>
      <trkpt lat="42.84228" lon="0.14752">
        <ele>2201</ele>
        <time>2020-07-28T09:55:30.111Z</time>
      </trkpt>
      <trkpt lat="42.84227" lon="0.14754">
        <ele>2201</ele>
        <time>2020-07-28T09:55:31.111Z</time>
      </trkpt>
      <trkpt lat="42.84227" lon="0.14756">
        <ele>2201</ele>
        <time>2020-07-28T09:55:32.111Z</time>
      </trkpt>
      <trkpt lat="42.84227" lon="0.14758">
        <ele>2201</ele>
        <time>2020-07-28T09:55:33.111Z</time>
      </trkpt>
      <trkpt lat="42.84226" lon="0.14759">
        <ele>2201</ele>
        <time>2020-07-28T09:55:34.111Z</time>
      </trkpt>
      <trkpt lat="42.84225" lon="0.14761">
        <ele>2202</ele>
        <time>2020-07-28T09:55:35.111Z</time>
      </trkpt>
      <trkpt lat="42.84224" lon="0.14763">
        <ele>2202</ele>
        <time>2020-07-28T09:55:36.111Z</time>
      </trkpt>
      <trkpt lat="42.84224" lon="0.14764">
        <ele>2202</ele>
        <time>2020-07-28T09:55:37.111Z</time>
      </trkpt>
      <trkpt lat="42.84223" lon="0.14765">
        <ele>2201</ele>
        <time>2020-07-28T09:55:38.111Z</time>
      </trkpt>
      <trkpt lat="42.84222" lon="0.14766">
        <ele>2201</ele>
        <time>2020-07-28T09:55:39.111Z</time>
      </trkpt>
      <trkpt lat="42.84222" lon="0.14768">
        <ele>2201</ele>
        <time>2020-07-28T09:55:40.111Z</time>
      </trkpt>
      <trkpt lat="42.84221" lon="0.1477">
        <ele>2201</ele>
        <time>2020-07-28T09:55:41.111Z</time>
      </trkpt>
      <trkpt lat="42.84221" lon="0.14771">
        <ele>2201</ele>
        <time>2020-07-28T09:55:42.111Z</time>
      </trkpt>
      <trkpt lat="42.84221" lon="0.14773">
        <ele>2201</ele>
        <time>2020-07-28T09:55:43.111Z</time>
      </trkpt>
      <trkpt lat="42.84221" lon="0.14774">
        <ele>2201</ele>
        <time>2020-07-28T09:55:44.111Z</time>
      </trkpt>
      <trkpt lat="42.84221" lon="0.14776">
        <ele>2201</ele>
        <time>2020-07-28T09:55:45.111Z</time>
      </trkpt>
      <trkpt lat="42.84221" lon="0.14777">
        <ele>2201</ele>
        <time>2020-07-28T09:55:46.111Z</time>
      </trkpt>
      <trkpt lat="42.84221" lon="0.14778">
        <ele>2201</ele>
        <time>2020-07-28T09:55:47.111Z</time>
      </trkpt>
      <trkpt lat="42.84221" lon="0.14779">
        <ele>2200</ele>
        <time>2020-07-28T09:55:48.111Z</time>
      </trkpt>
      <trkpt lat="42.84221" lon="0.1478">
        <ele>2200</ele>
        <time>2020-07-28T09:55:49.111Z</time>
      </trkpt>
      <trkpt lat="42.84222" lon="0.1478">
        <ele>2201</ele>
        <time>2020-07-28T09:55:50.111Z</time>
      </trkpt>
      <trkpt lat="42.84222" lon="0.1478">
        <ele>2200</ele>
        <time>2020-07-28T09:55:51.111Z</time>
      </trkpt>
      <trkpt lat="42.84222" lon="0.1478">
        <ele>2200</ele>
        <time>2020-07-28T09:55:52.111Z</time>
      </trkpt>
      <trkpt lat="42.84222" lon="0.14781">
        <ele>2200</ele>
        <time>2020-07-28T09:55:53.111Z</time>
      </trkpt>
      <trkpt lat="42.84221" lon="0.14782">
        <ele>2200</ele>
        <time>2020-07-28T09:55:54.111Z</time>
      </trkpt>
      <trkpt lat="42.84221" lon="0.14783">
        <ele>2200</ele>
        <time>2020-07-28T09:55:55.111Z</time>
      </trkpt>
      <trkpt lat="42.84221" lon="0.14784">
        <ele>2199</ele>
        <time>2020-07-28T09:55:56.111Z</time>
      </trkpt>
      <trkpt lat="42.84221" lon="0.14786">
        <ele>2200</ele>
        <time>2020-07-28T09:55:57.111Z</time>
      </trkpt>
      <trkpt lat="42.84221" lon="0.14788">
        <ele>2200</ele>
        <time>2020-07-28T09:55:58.111Z</time>
      </trkpt>
      <trkpt lat="42.84221" lon="0.14788">
        <ele>2200</ele>
        <time>2020-07-28T09:55:59.111Z</time>
      </trkpt>
      <trkpt lat="42.84222" lon="0.14796">
        <ele>2200</ele>
        <time>2020-07-28T09:56:00.111Z</time>
      </trkpt>
      <trkpt lat="42.84222" lon="0.148">
        <ele>2200</ele>
        <time>2020-07-28T09:56:01.111Z</time>
      </trkpt>
      <trkpt lat="42.84221" lon="0.14804">
        <ele>2200</ele>
        <time>2020-07-28T09:56:02.111Z</time>
      </trkpt>
      <trkpt lat="42.8422" lon="0.14807">
        <ele>2199</ele>
        <time>2020-07-28T09:56:03.111Z</time>
      </trkpt>
      <trkpt lat="42.8422" lon="0.14809">
        <ele>2199</ele>
        <time>2020-07-28T09:56:04.111Z</time>
      </trkpt>
      <trkpt lat="42.8422" lon="0.14809">
        <ele>2199</ele>
        <time>2020-07-28T09:56:05.111Z</time>
      </trkpt>
      <trkpt lat="42.8422" lon="0.14809">
        <ele>2199</ele>
        <time>2020-07-28T09:56:06.111Z</time>
      </trkpt>
      <trkpt lat="42.84221" lon="0.14818">
        <ele>2199</ele>
        <time>2020-07-28T09:56:07.111Z</time>
      </trkpt>
      <trkpt lat="42.84221" lon="0.1482">
        <ele>2199</ele>
        <time>2020-07-28T09:56:08.111Z</time>
      </trkpt>
      <trkpt lat="42.84221" lon="0.14822">
        <ele>2198</ele>
        <time>2020-07-28T09:56:09.111Z</time>
      </trkpt>
      <trkpt lat="42.8422" lon="0.14824">
        <ele>2199</ele>
        <time>2020-07-28T09:56:10.111Z</time>
      </trkpt>
      <trkpt lat="42.84219" lon="0.14827">
        <ele>2199</ele>
        <time>2020-07-28T09:56:11.111Z</time>
      </trkpt>
      <trkpt lat="42.84219" lon="0.14829">
        <ele>2199</ele>
        <time>2020-07-28T09:56:12.111Z</time>
      </trkpt>
      <trkpt lat="42.8422" lon="0.14832">
        <ele>2198</ele>
        <time>2020-07-28T09:56:13.111Z</time>
      </trkpt>
      <trkpt lat="42.8422" lon="0.14835">
        <ele>2199</ele>
        <time>2020-07-28T09:56:14.111Z</time>
      </trkpt>
      <trkpt lat="42.8422" lon="0.14838">
        <ele>2199</ele>
        <time>2020-07-28T09:56:15.111Z</time>
      </trkpt>
      <trkpt lat="42.84219" lon="0.14841">
        <ele>2199</ele>
        <time>2020-07-28T09:56:16.111Z</time>
      </trkpt>
      <trkpt lat="42.84219" lon="0.14841">
        <ele>2199</ele>
        <time>2020-07-28T09:56:17.111Z</time>
      </trkpt>
      <trkpt lat="42.84216" lon="0.14847">
        <ele>2199</ele>
        <time>2020-07-28T09:56:18.111Z</time>
      </trkpt>
      <trkpt lat="42.84215" lon="0.14849">
        <ele>2200</ele>
        <time>2020-07-28T09:56:19.111Z</time>
      </trkpt>
      <trkpt lat="42.84213" lon="0.14851">
        <ele>2200</ele>
        <time>2020-07-28T09:56:20.111Z</time>
      </trkpt>
      <trkpt lat="42.84212" lon="0.14854">
        <ele>2201</ele>
        <time>2020-07-28T09:56:21.111Z</time>
      </trkpt>
      <trkpt lat="42.84212" lon="0.14857">
        <ele>2199</ele>
        <time>2020-07-28T09:56:22.111Z</time>
      </trkpt>
      <trkpt lat="42.8421" lon="0.14861">
        <ele>2200</ele>
        <time>2020-07-28T09:56:23.111Z</time>
      </trkpt>
      <trkpt lat="42.84209" lon="0.14863">
        <ele>2200</ele>
        <time>2020-07-28T09:56:24.111Z</time>
      </trkpt>
      <trkpt lat="42.84207" lon="0.14865">
        <ele>2200</ele>
        <time>2020-07-28T09:56:25.111Z</time>
      </trkpt>
      <trkpt lat="42.84206" lon="0.14867">
        <ele>2200</ele>
        <time>2020-07-28T09:56:26.111Z</time>
      </trkpt>
      <trkpt lat="42.84206" lon="0.14867">
        <ele>2201</ele>
        <time>2020-07-28T09:56:27.111Z</time>
      </trkpt>
      <trkpt lat="42.84205" lon="0.14868">
        <ele>2202</ele>
        <time>2020-07-28T09:56:28.111Z</time>
      </trkpt>
      <trkpt lat="42.84204" lon="0.14868">
        <ele>2200</ele>
        <time>2020-07-28T09:56:29.111Z</time>
      </trkpt>
      <trkpt lat="42.84204" lon="0.1487">
        <ele>2200</ele>
        <time>2020-07-28T09:56:30.111Z</time>
      </trkpt>
      <trkpt lat="42.84203" lon="0.14871">
        <ele>2199</ele>
        <time>2020-07-28T09:56:31.111Z</time>
      </trkpt>
      <trkpt lat="42.84203" lon="0.14872">
        <ele>2199</ele>
        <time>2020-07-28T09:56:32.111Z</time>
      </trkpt>
      <trkpt lat="42.84202" lon="0.14874">
        <ele>2200</ele>
        <time>2020-07-28T09:56:33.111Z</time>
      </trkpt>
      <trkpt lat="42.84201" lon="0.14875">
        <ele>2201</ele>
        <time>2020-07-28T09:56:34.111Z</time>
      </trkpt>
      <trkpt lat="42.84201" lon="0.14875">
        <ele>2201</ele>
        <time>2020-07-28T09:56:35.111Z</time>
      </trkpt>
      <trkpt lat="42.84198" lon="0.14879">
        <ele>2201</ele>
        <time>2020-07-28T09:56:36.111Z</time>
      </trkpt>
      <trkpt lat="42.84197" lon="0.14881">
        <ele>2202</ele>
        <time>2020-07-28T09:56:37.111Z</time>
      </trkpt>
      <trkpt lat="42.84196" lon="0.14882">
        <ele>2202</ele>
        <time>2020-07-28T09:56:38.111Z</time>
      </trkpt>
      <trkpt lat="42.84195" lon="0.14883">
        <ele>2203</ele>
        <time>2020-07-28T09:56:39.111Z</time>
      </trkpt>
      <trkpt lat="42.84194" lon="0.14883">
        <ele>2202</ele>
        <time>2020-07-28T09:56:40.111Z</time>
      </trkpt>
      <trkpt lat="42.84194" lon="0.14884">
        <ele>2202</ele>
        <time>2020-07-28T09:56:41.111Z</time>
      </trkpt>
      <trkpt lat="42.84193" lon="0.14884">
        <ele>2202</ele>
        <time>2020-07-28T09:56:42.111Z</time>
      </trkpt>
      <trkpt lat="42.84192" lon="0.14885">
        <ele>2203</ele>
        <time>2020-07-28T09:56:43.111Z</time>
      </trkpt>
      <trkpt lat="42.84191" lon="0.14886">
        <ele>2203</ele>
        <time>2020-07-28T09:56:44.111Z</time>
      </trkpt>
      <trkpt lat="42.8419" lon="0.14887">
        <ele>2203</ele>
        <time>2020-07-28T09:56:45.111Z</time>
      </trkpt>
      <trkpt lat="42.84189" lon="0.14887">
        <ele>2203</ele>
        <time>2020-07-28T09:56:46.111Z</time>
      </trkpt>
      <trkpt lat="42.84188" lon="0.14888">
        <ele>2203</ele>
        <time>2020-07-28T09:56:47.111Z</time>
      </trkpt>
      <trkpt lat="42.84187" lon="0.14888">
        <ele>2203</ele>
        <time>2020-07-28T09:56:48.111Z</time>
      </trkpt>
      <trkpt lat="42.84187" lon="0.14887">
        <ele>2203</ele>
        <time>2020-07-28T09:56:49.111Z</time>
      </trkpt>
      <trkpt lat="42.84186" lon="0.14887">
        <ele>2203</ele>
        <time>2020-07-28T09:56:50.111Z</time>
      </trkpt>
      <trkpt lat="42.84185" lon="0.14887">
        <ele>2202</ele>
        <time>2020-07-28T09:56:51.111Z</time>
      </trkpt>
      <trkpt lat="42.84184" lon="0.14888">
        <ele>2203</ele>
        <time>2020-07-28T09:56:52.111Z</time>
      </trkpt>
      <trkpt lat="42.84183" lon="0.14888">
        <ele>2203</ele>
        <time>2020-07-28T09:56:53.111Z</time>
      </trkpt>
      <trkpt lat="42.84181" lon="0.14889">
        <ele>2204</ele>
        <time>2020-07-28T09:56:54.111Z</time>
      </trkpt>
      <trkpt lat="42.8418" lon="0.14891">
        <ele>2205</ele>
        <time>2020-07-28T09:56:55.111Z</time>
      </trkpt>
      <trkpt lat="42.84178" lon="0.14893">
        <ele>2205</ele>
        <time>2020-07-28T09:56:56.111Z</time>
      </trkpt>
      <trkpt lat="42.84178" lon="0.14893">
        <ele>2205</ele>
        <time>2020-07-28T09:56:57.111Z</time>
      </trkpt>
      <trkpt lat="42.84175" lon="0.14897">
        <ele>2205</ele>
        <time>2020-07-28T09:56:58.111Z</time>
      </trkpt>
      <trkpt lat="42.84173" lon="0.149">
        <ele>2206</ele>
        <time>2020-07-28T09:56:59.111Z</time>
      </trkpt>
      <trkpt lat="42.84171" lon="0.14902">
        <ele>2205</ele>
        <time>2020-07-28T09:57:00.111Z</time>
      </trkpt>
      <trkpt lat="42.84169" lon="0.14904">
        <ele>2205</ele>
        <time>2020-07-28T09:57:01.111Z</time>
      </trkpt>
      <trkpt lat="42.84166" lon="0.14906">
        <ele>2205</ele>
        <time>2020-07-28T09:57:02.111Z</time>
      </trkpt>
      <trkpt lat="42.84163" lon="0.14909">
        <ele>2206</ele>
        <time>2020-07-28T09:57:03.111Z</time>
      </trkpt>
      <trkpt lat="42.84161" lon="0.14911">
        <ele>2205</ele>
        <time>2020-07-28T09:57:04.111Z</time>
      </trkpt>
      <trkpt lat="42.84158" lon="0.14912">
        <ele>2206</ele>
        <time>2020-07-28T09:57:05.111Z</time>
      </trkpt>
      <trkpt lat="42.84155" lon="0.14912">
        <ele>2205</ele>
        <time>2020-07-28T09:57:06.111Z</time>
      </trkpt>
      <trkpt lat="42.84152" lon="0.14912">
        <ele>2205</ele>
        <time>2020-07-28T09:57:07.111Z</time>
      </trkpt>
      <trkpt lat="42.84149" lon="0.14913">
        <ele>2205</ele>
        <time>2020-07-28T09:57:08.111Z</time>
      </trkpt>
      <trkpt lat="42.84147" lon="0.14913">
        <ele>2205</ele>
        <time>2020-07-28T09:57:09.111Z</time>
      </trkpt>
      <trkpt lat="42.84144" lon="0.14914">
        <ele>2204</ele>
        <time>2020-07-28T09:57:10.111Z</time>
      </trkpt>
      <trkpt lat="42.84142" lon="0.14915">
        <ele>2204</ele>
        <time>2020-07-28T09:57:11.111Z</time>
      </trkpt>
      <trkpt lat="42.84139" lon="0.14915">
        <ele>2205</ele>
        <time>2020-07-28T09:57:12.111Z</time>
      </trkpt>
      <trkpt lat="42.84137" lon="0.14916">
        <ele>2205</ele>
        <time>2020-07-28T09:57:13.111Z</time>
      </trkpt>
      <trkpt lat="42.84135" lon="0.14916">
        <ele>2204</ele>
        <time>2020-07-28T09:57:14.111Z</time>
      </trkpt>
      <trkpt lat="42.84135" lon="0.14916">
        <ele>2204</ele>
        <time>2020-07-28T09:57:15.111Z</time>
      </trkpt>
      <trkpt lat="42.8413" lon="0.14918">
        <ele>2204</ele>
        <time>2020-07-28T09:57:16.111Z</time>
      </trkpt>
      <trkpt lat="42.84128" lon="0.14918">
        <ele>2203</ele>
        <time>2020-07-28T09:57:17.111Z</time>
      </trkpt>
      <trkpt lat="42.84125" lon="0.14918">
        <ele>2203</ele>
        <time>2020-07-28T09:57:18.111Z</time>
      </trkpt>
      <trkpt lat="42.84123" lon="0.14918">
        <ele>2203</ele>
        <time>2020-07-28T09:57:19.111Z</time>
      </trkpt>
      <trkpt lat="42.84121" lon="0.14918">
        <ele>2204</ele>
        <time>2020-07-28T09:57:20.111Z</time>
      </trkpt>
      <trkpt lat="42.84119" lon="0.14918">
        <ele>2204</ele>
        <time>2020-07-28T09:57:21.111Z</time>
      </trkpt>
      <trkpt lat="42.84117" lon="0.14919">
        <ele>2203</ele>
        <time>2020-07-28T09:57:22.111Z</time>
      </trkpt>
      <trkpt lat="42.84115" lon="0.14919">
        <ele>2203</ele>
        <time>2020-07-28T09:57:23.111Z</time>
      </trkpt>
      <trkpt lat="42.84113" lon="0.14919">
        <ele>2203</ele>
        <time>2020-07-28T09:57:24.111Z</time>
      </trkpt>
      <trkpt lat="42.84111" lon="0.14919">
        <ele>2203</ele>
        <time>2020-07-28T09:57:25.111Z</time>
      </trkpt>
      <trkpt lat="42.8411" lon="0.14919">
        <ele>2203</ele>
        <time>2020-07-28T09:57:26.111Z</time>
      </trkpt>
      <trkpt lat="42.84108" lon="0.14919">
        <ele>2203</ele>
        <time>2020-07-28T09:57:27.111Z</time>
      </trkpt>
      <trkpt lat="42.84106" lon="0.1492">
        <ele>2202</ele>
        <time>2020-07-28T09:57:28.111Z</time>
      </trkpt>
      <trkpt lat="42.84104" lon="0.1492">
        <ele>2201</ele>
        <time>2020-07-28T09:57:29.111Z</time>
      </trkpt>
      <trkpt lat="42.841" lon="0.14921">
        <ele>2200</ele>
        <time>2020-07-28T09:57:30.111Z</time>
      </trkpt>
      <trkpt lat="42.84097" lon="0.14922">
        <ele>2200</ele>
        <time>2020-07-28T09:57:31.111Z</time>
      </trkpt>
      <trkpt lat="42.84095" lon="0.14923">
        <ele>2201</ele>
        <time>2020-07-28T09:57:32.111Z</time>
      </trkpt>
      <trkpt lat="42.84092" lon="0.14924">
        <ele>2201</ele>
        <time>2020-07-28T09:57:33.111Z</time>
      </trkpt>
      <trkpt lat="42.8409" lon="0.14925">
        <ele>2200</ele>
        <time>2020-07-28T09:57:34.111Z</time>
      </trkpt>
      <trkpt lat="42.84089" lon="0.14925">
        <ele>2200</ele>
        <time>2020-07-28T09:57:35.111Z</time>
      </trkpt>
      <trkpt lat="42.84087" lon="0.14926">
        <ele>2200</ele>
        <time>2020-07-28T09:57:36.111Z</time>
      </trkpt>
      <trkpt lat="42.84086" lon="0.14926">
        <ele>2200</ele>
        <time>2020-07-28T09:57:37.111Z</time>
      </trkpt>
      <trkpt lat="42.84085" lon="0.14927">
        <ele>2201</ele>
        <time>2020-07-28T09:57:38.111Z</time>
      </trkpt>
      <trkpt lat="42.84083" lon="0.14927">
        <ele>2200</ele>
        <time>2020-07-28T09:57:39.111Z</time>
      </trkpt>
      <trkpt lat="42.84082" lon="0.14928">
        <ele>2200</ele>
        <time>2020-07-28T09:57:40.111Z</time>
      </trkpt>
      <trkpt lat="42.84081" lon="0.14929">
        <ele>2199</ele>
        <time>2020-07-28T09:57:41.111Z</time>
      </trkpt>
      <trkpt lat="42.8408" lon="0.14929">
        <ele>2199</ele>
        <time>2020-07-28T09:57:42.111Z</time>
      </trkpt>
      <trkpt lat="42.84078" lon="0.1493">
        <ele>2198</ele>
        <time>2020-07-28T09:57:43.111Z</time>
      </trkpt>
      <trkpt lat="42.84077" lon="0.1493">
        <ele>2199</ele>
        <time>2020-07-28T09:57:44.111Z</time>
      </trkpt>
      <trkpt lat="42.84075" lon="0.14931">
        <ele>2198</ele>
        <time>2020-07-28T09:57:45.111Z</time>
      </trkpt>
      <trkpt lat="42.84074" lon="0.14932">
        <ele>2198</ele>
        <time>2020-07-28T09:57:46.111Z</time>
      </trkpt>
      <trkpt lat="42.84073" lon="0.14933">
        <ele>2198</ele>
        <time>2020-07-28T09:57:47.111Z</time>
      </trkpt>
      <trkpt lat="42.84072" lon="0.14934">
        <ele>2197</ele>
        <time>2020-07-28T09:57:48.111Z</time>
      </trkpt>
      <trkpt lat="42.8407" lon="0.14934">
        <ele>2198</ele>
        <time>2020-07-28T09:57:49.111Z</time>
      </trkpt>
      <trkpt lat="42.84069" lon="0.14934">
        <ele>2198</ele>
        <time>2020-07-28T09:57:50.111Z</time>
      </trkpt>
      <trkpt lat="42.84068" lon="0.14935">
        <ele>2198</ele>
        <time>2020-07-28T09:57:51.111Z</time>
      </trkpt>
      <trkpt lat="42.84067" lon="0.14935">
        <ele>2198</ele>
        <time>2020-07-28T09:57:52.111Z</time>
      </trkpt>
      <trkpt lat="42.84066" lon="0.14935">
        <ele>2199</ele>
        <time>2020-07-28T09:57:53.111Z</time>
      </trkpt>
      <trkpt lat="42.84065" lon="0.14935">
        <ele>2199</ele>
        <time>2020-07-28T09:57:54.111Z</time>
      </trkpt>
      <trkpt lat="42.84063" lon="0.14936">
        <ele>2199</ele>
        <time>2020-07-28T09:57:55.111Z</time>
      </trkpt>
      <trkpt lat="42.84062" lon="0.14936">
        <ele>2199</ele>
        <time>2020-07-28T09:57:56.111Z</time>
      </trkpt>
      <trkpt lat="42.84061" lon="0.14936">
        <ele>2199</ele>
        <time>2020-07-28T09:57:57.111Z</time>
      </trkpt>
      <trkpt lat="42.8406" lon="0.14937">
        <ele>2199</ele>
        <time>2020-07-28T09:57:58.111Z</time>
      </trkpt>
      <trkpt lat="42.84059" lon="0.14938">
        <ele>2198</ele>
        <time>2020-07-28T09:57:59.111Z</time>
      </trkpt>
      <trkpt lat="42.84057" lon="0.14938">
        <ele>2198</ele>
        <time>2020-07-28T09:58:00.111Z</time>
      </trkpt>
      <trkpt lat="42.84056" lon="0.14939">
        <ele>2198</ele>
        <time>2020-07-28T09:58:01.111Z</time>
      </trkpt>
      <trkpt lat="42.84055" lon="0.14939">
        <ele>2198</ele>
        <time>2020-07-28T09:58:02.111Z</time>
      </trkpt>
      <trkpt lat="42.84054" lon="0.14939">
        <ele>2198</ele>
        <time>2020-07-28T09:58:03.111Z</time>
      </trkpt>
      <trkpt lat="42.84052" lon="0.14938">
        <ele>2198</ele>
        <time>2020-07-28T09:58:04.111Z</time>
      </trkpt>
      <trkpt lat="42.84051" lon="0.14939">
        <ele>2198</ele>
        <time>2020-07-28T09:58:05.111Z</time>
      </trkpt>
      <trkpt lat="42.8405" lon="0.14939">
        <ele>2198</ele>
        <time>2020-07-28T09:58:06.111Z</time>
      </trkpt>
      <trkpt lat="42.84048" lon="0.14939">
        <ele>2198</ele>
        <time>2020-07-28T09:58:07.111Z</time>
      </trkpt>
      <trkpt lat="42.84046" lon="0.14939">
        <ele>2198</ele>
        <time>2020-07-28T09:58:08.111Z</time>
      </trkpt>
      <trkpt lat="42.84044" lon="0.14939">
        <ele>2198</ele>
        <time>2020-07-28T09:58:09.111Z</time>
      </trkpt>
      <trkpt lat="42.84042" lon="0.14939">
        <ele>2198</ele>
        <time>2020-07-28T09:58:10.111Z</time>
      </trkpt>
      <trkpt lat="42.84039" lon="0.14938">
        <ele>2199</ele>
        <time>2020-07-28T09:58:11.111Z</time>
      </trkpt>
      <trkpt lat="42.84037" lon="0.14937">
        <ele>2199</ele>
        <time>2020-07-28T09:58:12.111Z</time>
      </trkpt>
      <trkpt lat="42.84034" lon="0.14936">
        <ele>2199</ele>
        <time>2020-07-28T09:58:13.111Z</time>
      </trkpt>
      <trkpt lat="42.84031" lon="0.14934">
        <ele>2199</ele>
        <time>2020-07-28T09:58:14.111Z</time>
      </trkpt>
      <trkpt lat="42.84029" lon="0.14933">
        <ele>2198</ele>
        <time>2020-07-28T09:58:15.111Z</time>
      </trkpt>
      <trkpt lat="42.84026" lon="0.14933">
        <ele>2198</ele>
        <time>2020-07-28T09:58:16.111Z</time>
      </trkpt>
      <trkpt lat="42.84023" lon="0.14933">
        <ele>2199</ele>
        <time>2020-07-28T09:58:17.111Z</time>
      </trkpt>
      <trkpt lat="42.8402" lon="0.14934">
        <ele>2198</ele>
        <time>2020-07-28T09:58:18.111Z</time>
      </trkpt>
      <trkpt lat="42.84018" lon="0.14934">
        <ele>2199</ele>
        <time>2020-07-28T09:58:19.111Z</time>
      </trkpt>
      <trkpt lat="42.84015" lon="0.14934">
        <ele>2199</ele>
        <time>2020-07-28T09:58:20.111Z</time>
      </trkpt>
      <trkpt lat="42.84012" lon="0.14935">
        <ele>2199</ele>
        <time>2020-07-28T09:58:21.111Z</time>
      </trkpt>
      <trkpt lat="42.8401" lon="0.14935">
        <ele>2199</ele>
        <time>2020-07-28T09:58:22.111Z</time>
      </trkpt>
      <trkpt lat="42.84007" lon="0.14935">
        <ele>2199</ele>
        <time>2020-07-28T09:58:23.111Z</time>
      </trkpt>
      <trkpt lat="42.84004" lon="0.14936">
        <ele>2200</ele>
        <time>2020-07-28T09:58:24.111Z</time>
      </trkpt>
      <trkpt lat="42.84001" lon="0.14936">
        <ele>2199</ele>
        <time>2020-07-28T09:58:25.111Z</time>
      </trkpt>
      <trkpt lat="42.83998" lon="0.14936">
        <ele>2199</ele>
        <time>2020-07-28T09:58:26.111Z</time>
      </trkpt>
      <trkpt lat="42.83995" lon="0.14936">
        <ele>2198</ele>
        <time>2020-07-28T09:58:27.111Z</time>
      </trkpt>
      <trkpt lat="42.83992" lon="0.14937">
        <ele>2198</ele>
        <time>2020-07-28T09:58:28.111Z</time>
      </trkpt>
      <trkpt lat="42.83989" lon="0.14938">
        <ele>2197</ele>
        <time>2020-07-28T09:58:29.111Z</time>
      </trkpt>
      <trkpt lat="42.83986" lon="0.1494">
        <ele>2197</ele>
        <time>2020-07-28T09:58:30.111Z</time>
      </trkpt>
      <trkpt lat="42.83984" lon="0.14942">
        <ele>2197</ele>
        <time>2020-07-28T09:58:31.111Z</time>
      </trkpt>
      <trkpt lat="42.83981" lon="0.14945">
        <ele>2196</ele>
        <time>2020-07-28T09:58:32.111Z</time>
      </trkpt>
      <trkpt lat="42.83979" lon="0.14948">
        <ele>2196</ele>
        <time>2020-07-28T09:58:33.111Z</time>
      </trkpt>
      <trkpt lat="42.83977" lon="0.14951">
        <ele>2197</ele>
        <time>2020-07-28T09:58:34.111Z</time>
      </trkpt>
      <trkpt lat="42.83975" lon="0.14955">
        <ele>2197</ele>
        <time>2020-07-28T09:58:35.111Z</time>
      </trkpt>
      <trkpt lat="42.83973" lon="0.14959">
        <ele>2197</ele>
        <time>2020-07-28T09:58:36.111Z</time>
      </trkpt>
      <trkpt lat="42.83971" lon="0.14962">
        <ele>2197</ele>
        <time>2020-07-28T09:58:37.111Z</time>
      </trkpt>
      <trkpt lat="42.8397" lon="0.14965">
        <ele>2196</ele>
        <time>2020-07-28T09:58:38.111Z</time>
      </trkpt>
      <trkpt lat="42.83968" lon="0.14969">
        <ele>2196</ele>
        <time>2020-07-28T09:58:39.111Z</time>
      </trkpt>
      <trkpt lat="42.83967" lon="0.14972">
        <ele>2197</ele>
        <time>2020-07-28T09:58:40.111Z</time>
      </trkpt>
      <trkpt lat="42.83965" lon="0.14975">
        <ele>2197</ele>
        <time>2020-07-28T09:58:41.111Z</time>
      </trkpt>
      <trkpt lat="42.83963" lon="0.14978">
        <ele>2197</ele>
        <time>2020-07-28T09:58:42.111Z</time>
      </trkpt>
      <trkpt lat="42.83962" lon="0.14981">
        <ele>2197</ele>
        <time>2020-07-28T09:58:43.111Z</time>
      </trkpt>
      <trkpt lat="42.8396" lon="0.14984">
        <ele>2197</ele>
        <time>2020-07-28T09:58:44.111Z</time>
      </trkpt>
      <trkpt lat="42.83958" lon="0.14987">
        <ele>2197</ele>
        <time>2020-07-28T09:58:45.111Z</time>
      </trkpt>
      <trkpt lat="42.83956" lon="0.1499">
        <ele>2196</ele>
        <time>2020-07-28T09:58:46.111Z</time>
      </trkpt>
      <trkpt lat="42.83953" lon="0.14992">
        <ele>2197</ele>
        <time>2020-07-28T09:58:47.111Z</time>
      </trkpt>
      <trkpt lat="42.83951" lon="0.14994">
        <ele>2197</ele>
        <time>2020-07-28T09:58:48.111Z</time>
      </trkpt>
      <trkpt lat="42.8395" lon="0.14995">
        <ele>2197</ele>
        <time>2020-07-28T09:58:49.111Z</time>
      </trkpt>
      <trkpt lat="42.83949" lon="0.14995">
        <ele>2197</ele>
        <time>2020-07-28T09:58:50.111Z</time>
      </trkpt>
      <trkpt lat="42.83948" lon="0.14996">
        <ele>2197</ele>
        <time>2020-07-28T09:58:51.111Z</time>
      </trkpt>
      <trkpt lat="42.83947" lon="0.14997">
        <ele>2197</ele>
        <time>2020-07-28T09:58:52.111Z</time>
      </trkpt>
      <trkpt lat="42.83945" lon="0.14998">
        <ele>2197</ele>
        <time>2020-07-28T09:58:53.111Z</time>
      </trkpt>
      <trkpt lat="42.83938" lon="0.15006">
        <ele>2199</ele>
        <time>2020-07-28T09:58:54.002Z</time>
      </trkpt>
      <trkpt lat="42.83938" lon="0.15006">
        <ele>2200</ele>
        <time>2020-07-28T09:58:55.002Z</time>
      </trkpt>
      <trkpt lat="42.83938" lon="0.15007">
        <ele>2200</ele>
        <time>2020-07-28T09:58:56.002Z</time>
      </trkpt>
      <trkpt lat="42.83938" lon="0.1501">
        <ele>2200</ele>
        <time>2020-07-28T09:58:57.002Z</time>
      </trkpt>
      <trkpt lat="42.83938" lon="0.15013">
        <ele>2200</ele>
        <time>2020-07-28T09:58:58.002Z</time>
      </trkpt>
      <trkpt lat="42.83937" lon="0.15017">
        <ele>2201</ele>
        <time>2020-07-28T09:58:59.002Z</time>
      </trkpt>
      <trkpt lat="42.83937" lon="0.15021">
        <ele>2201</ele>
        <time>2020-07-28T09:59:00.002Z</time>
      </trkpt>
      <trkpt lat="42.83936" lon="0.15025">
        <ele>2201</ele>
        <time>2020-07-28T09:59:01.002Z</time>
      </trkpt>
      <trkpt lat="42.83936" lon="0.15029">
        <ele>2200</ele>
        <time>2020-07-28T09:59:02.002Z</time>
      </trkpt>
      <trkpt lat="42.83936" lon="0.15033">
        <ele>2200</ele>
        <time>2020-07-28T09:59:03.002Z</time>
      </trkpt>
      <trkpt lat="42.83936" lon="0.15037">
        <ele>2200</ele>
        <time>2020-07-28T09:59:04.002Z</time>
      </trkpt>
      <trkpt lat="42.83936" lon="0.15041">
        <ele>2199</ele>
        <time>2020-07-28T09:59:05.002Z</time>
      </trkpt>
      <trkpt lat="42.83935" lon="0.15046">
        <ele>2199</ele>
        <time>2020-07-28T09:59:06.002Z</time>
      </trkpt>
      <trkpt lat="42.83936" lon="0.1505">
        <ele>2199</ele>
        <time>2020-07-28T09:59:07.002Z</time>
      </trkpt>
      <trkpt lat="42.83936" lon="0.15055">
        <ele>2198</ele>
        <time>2020-07-28T09:59:08.002Z</time>
      </trkpt>
      <trkpt lat="42.83936" lon="0.15059">
        <ele>2198</ele>
        <time>2020-07-28T09:59:09.002Z</time>
      </trkpt>
      <trkpt lat="42.83935" lon="0.15064">
        <ele>2198</ele>
        <time>2020-07-28T09:59:10.002Z</time>
      </trkpt>
      <trkpt lat="42.83935" lon="0.15068">
        <ele>2198</ele>
        <time>2020-07-28T09:59:11.002Z</time>
      </trkpt>
      <trkpt lat="42.83935" lon="0.15072">
        <ele>2198</ele>
        <time>2020-07-28T09:59:12.002Z</time>
      </trkpt>
      <trkpt lat="42.83935" lon="0.15077">
        <ele>2197</ele>
        <time>2020-07-28T09:59:13.002Z</time>
      </trkpt>
      <trkpt lat="42.83934" lon="0.15081">
        <ele>2197</ele>
        <time>2020-07-28T09:59:14.002Z</time>
      </trkpt>
      <trkpt lat="42.83934" lon="0.15084">
        <ele>2197</ele>
        <time>2020-07-28T09:59:15.002Z</time>
      </trkpt>
      <trkpt lat="42.83933" lon="0.15086">
        <ele>2195</ele>
        <time>2020-07-28T09:59:16.002Z</time>
      </trkpt>
      <trkpt lat="42.83933" lon="0.15086">
        <ele>2195</ele>
        <time>2020-07-28T09:59:17.002Z</time>
      </trkpt>
      <trkpt lat="42.83933" lon="0.15086">
        <ele>2196</ele>
        <time>2020-07-28T09:59:18.002Z</time>
      </trkpt>
      <trkpt lat="42.83933" lon="0.15085">
        <ele>2196</ele>
        <time>2020-07-28T09:59:19.002Z</time>
      </trkpt>
      <trkpt lat="42.83933" lon="0.15085">
        <ele>2196</ele>
        <time>2020-07-28T09:59:20.002Z</time>
      </trkpt>
      <trkpt lat="42.83934" lon="0.15084">
        <ele>2194</ele>
        <time>2020-07-28T09:59:21.002Z</time>
      </trkpt>
      <trkpt lat="42.83934" lon="0.15083">
        <ele>2194</ele>
        <time>2020-07-28T09:59:22.002Z</time>
      </trkpt>
      <trkpt lat="42.83934" lon="0.15081">
        <ele>2193</ele>
        <time>2020-07-28T09:59:23.002Z</time>
      </trkpt>
      <trkpt lat="42.83934" lon="0.15079">
        <ele>2193</ele>
        <time>2020-07-28T09:59:24.002Z</time>
      </trkpt>
      <trkpt lat="42.83935" lon="0.15076">
        <ele>2193</ele>
        <time>2020-07-28T09:59:25.002Z</time>
      </trkpt>
      <trkpt lat="42.83935" lon="0.15072">
        <ele>2192</ele>
        <time>2020-07-28T09:59:26.002Z</time>
      </trkpt>
      <trkpt lat="42.83935" lon="0.15068">
        <ele>2191</ele>
        <time>2020-07-28T09:59:27.002Z</time>
      </trkpt>
      <trkpt lat="42.83936" lon="0.15064">
        <ele>2191</ele>
        <time>2020-07-28T09:59:28.002Z</time>
      </trkpt>
      <trkpt lat="42.83936" lon="0.15059">
        <ele>2190</ele>
        <time>2020-07-28T09:59:29.002Z</time>
      </trkpt>
      <trkpt lat="42.83936" lon="0.15055">
        <ele>2190</ele>
        <time>2020-07-28T09:59:30.002Z</time>
      </trkpt>
      <trkpt lat="42.83936" lon="0.15051">
        <ele>2190</ele>
        <time>2020-07-28T09:59:31.002Z</time>
      </trkpt>
      <trkpt lat="42.83935" lon="0.15047">
        <ele>2190</ele>
        <time>2020-07-28T09:59:32.002Z</time>
      </trkpt>
      <trkpt lat="42.83934" lon="0.15044">
        <ele>2190</ele>
        <time>2020-07-28T09:59:33.002Z</time>
      </trkpt>
      <trkpt lat="42.83934" lon="0.15041">
        <ele>2190</ele>
        <time>2020-07-28T09:59:34.002Z</time>
      </trkpt>
      <trkpt lat="42.83933" lon="0.15038">
        <ele>2192</ele>
        <time>2020-07-28T09:59:35.002Z</time>
      </trkpt>
      <trkpt lat="42.83931" lon="0.15035">
        <ele>2192</ele>
        <time>2020-07-28T09:59:36.002Z</time>
      </trkpt>
      <trkpt lat="42.8393" lon="0.15033">
        <ele>2192</ele>
        <time>2020-07-28T09:59:37.002Z</time>
      </trkpt>
      <trkpt lat="42.83928" lon="0.15033">
        <ele>2192</ele>
        <time>2020-07-28T09:59:38.002Z</time>
      </trkpt>
      <trkpt lat="42.83927" lon="0.15034">
        <ele>2191</ele>
        <time>2020-07-28T09:59:39.002Z</time>
      </trkpt>
      <trkpt lat="42.83925" lon="0.15037">
        <ele>2191</ele>
        <time>2020-07-28T09:59:40.002Z</time>
      </trkpt>
      <trkpt lat="42.83924" lon="0.15039">
        <ele>2191</ele>
        <time>2020-07-28T09:59:41.002Z</time>
      </trkpt>
      <trkpt lat="42.83922" lon="0.15041">
        <ele>2192</ele>
        <time>2020-07-28T09:59:42.002Z</time>
      </trkpt>
      <trkpt lat="42.83919" lon="0.15041">
        <ele>2191</ele>
        <time>2020-07-28T09:59:43.002Z</time>
      </trkpt>
      <trkpt lat="42.83917" lon="0.1504">
        <ele>2191</ele>
        <time>2020-07-28T09:59:44.002Z</time>
      </trkpt>
      <trkpt lat="42.83915" lon="0.15039">
        <ele>2190</ele>
        <time>2020-07-28T09:59:45.002Z</time>
      </trkpt>
      <trkpt lat="42.83913" lon="0.15036">
        <ele>2190</ele>
        <time>2020-07-28T09:59:46.002Z</time>
      </trkpt>
      <trkpt lat="42.83911" lon="0.15034">
        <ele>2190</ele>
        <time>2020-07-28T09:59:47.002Z</time>
      </trkpt>
      <trkpt lat="42.83909" lon="0.15032">
        <ele>2190</ele>
        <time>2020-07-28T09:59:48.002Z</time>
      </trkpt>
      <trkpt lat="42.83907" lon="0.15029">
        <ele>2189</ele>
        <time>2020-07-28T09:59:49.002Z</time>
      </trkpt>
      <trkpt lat="42.83905" lon="0.15026">
        <ele>2190</ele>
        <time>2020-07-28T09:59:50.002Z</time>
      </trkpt>
      <trkpt lat="42.83904" lon="0.15023">
        <ele>2190</ele>
        <time>2020-07-28T09:59:51.002Z</time>
      </trkpt>
      <trkpt lat="42.83902" lon="0.1502">
        <ele>2191</ele>
        <time>2020-07-28T09:59:52.002Z</time>
      </trkpt>
      <trkpt lat="42.839" lon="0.15018">
        <ele>2192</ele>
        <time>2020-07-28T09:59:53.002Z</time>
      </trkpt>
      <trkpt lat="42.83899" lon="0.15015">
        <ele>2192</ele>
        <time>2020-07-28T09:59:54.002Z</time>
      </trkpt>
      <trkpt lat="42.83897" lon="0.15011">
        <ele>2193</ele>
        <time>2020-07-28T09:59:55.002Z</time>
      </trkpt>
      <trkpt lat="42.83895" lon="0.15008">
        <ele>2193</ele>
        <time>2020-07-28T09:59:56.002Z</time>
      </trkpt>
      <trkpt lat="42.83894" lon="0.15004">
        <ele>2193</ele>
        <time>2020-07-28T09:59:57.002Z</time>
      </trkpt>
      <trkpt lat="42.83892" lon="0.15001">
        <ele>2195</ele>
        <time>2020-07-28T09:59:58.002Z</time>
      </trkpt>
      <trkpt lat="42.83891" lon="0.14997">
        <ele>2195</ele>
        <time>2020-07-28T09:59:59.002Z</time>
      </trkpt>
      <trkpt lat="42.83889" lon="0.14993">
        <ele>2196</ele>
        <time>2020-07-28T10:00:00.002Z</time>
      </trkpt>
      <trkpt lat="42.83888" lon="0.1499">
        <ele>2196</ele>
        <time>2020-07-28T10:00:01.002Z</time>
      </trkpt>
      <trkpt lat="42.83886" lon="0.14986">
        <ele>2196</ele>
        <time>2020-07-28T10:00:02.002Z</time>
      </trkpt>
      <trkpt lat="42.83884" lon="0.14983">
        <ele>2197</ele>
        <time>2020-07-28T10:00:03.002Z</time>
      </trkpt>
      <trkpt lat="42.83882" lon="0.14979">
        <ele>2197</ele>
        <time>2020-07-28T10:00:04.002Z</time>
      </trkpt>
      <trkpt lat="42.83881" lon="0.14976">
        <ele>2197</ele>
        <time>2020-07-28T10:00:05.002Z</time>
      </trkpt>
      <trkpt lat="42.83879" lon="0.14973">
        <ele>2198</ele>
        <time>2020-07-28T10:00:06.002Z</time>
      </trkpt>
      <trkpt lat="42.83877" lon="0.1497">
        <ele>2198</ele>
        <time>2020-07-28T10:00:07.002Z</time>
      </trkpt>
      <trkpt lat="42.83875" lon="0.14966">
        <ele>2199</ele>
        <time>2020-07-28T10:00:08.002Z</time>
      </trkpt>
      <trkpt lat="42.83873" lon="0.14963">
        <ele>2199</ele>
        <time>2020-07-28T10:00:09.002Z</time>
      </trkpt>
      <trkpt lat="42.83871" lon="0.14959">
        <ele>2199</ele>
        <time>2020-07-28T10:00:10.002Z</time>
      </trkpt>
      <trkpt lat="42.83869" lon="0.14956">
        <ele>2199</ele>
        <time>2020-07-28T10:00:11.002Z</time>
      </trkpt>
      <trkpt lat="42.83868" lon="0.14952">
        <ele>2199</ele>
        <time>2020-07-28T10:00:12.002Z</time>
      </trkpt>
      <trkpt lat="42.83866" lon="0.14948">
        <ele>2199</ele>
        <time>2020-07-28T10:00:13.002Z</time>
      </trkpt>
      <trkpt lat="42.83864" lon="0.14945">
        <ele>2200</ele>
        <time>2020-07-28T10:00:14.002Z</time>
      </trkpt>
      <trkpt lat="42.83863" lon="0.14942">
        <ele>2200</ele>
        <time>2020-07-28T10:00:15.002Z</time>
      </trkpt>
      <trkpt lat="42.83861" lon="0.14938">
        <ele>2201</ele>
        <time>2020-07-28T10:00:16.002Z</time>
      </trkpt>
      <trkpt lat="42.8386" lon="0.14935">
        <ele>2200</ele>
        <time>2020-07-28T10:00:17.002Z</time>
      </trkpt>
      <trkpt lat="42.83858" lon="0.14931">
        <ele>2200</ele>
        <time>2020-07-28T10:00:18.002Z</time>
      </trkpt>
      <trkpt lat="42.83857" lon="0.14928">
        <ele>2201</ele>
        <time>2020-07-28T10:00:19.002Z</time>
      </trkpt>
      <trkpt lat="42.83855" lon="0.14924">
        <ele>2201</ele>
        <time>2020-07-28T10:00:20.002Z</time>
      </trkpt>
      <trkpt lat="42.83853" lon="0.1492">
        <ele>2200</ele>
        <time>2020-07-28T10:00:21.002Z</time>
      </trkpt>
      <trkpt lat="42.83851" lon="0.14916">
        <ele>2199</ele>
        <time>2020-07-28T10:00:22.002Z</time>
      </trkpt>
      <trkpt lat="42.8385" lon="0.14912">
        <ele>2199</ele>
        <time>2020-07-28T10:00:23.002Z</time>
      </trkpt>
      <trkpt lat="42.8385" lon="0.14912">
        <ele>2199</ele>
        <time>2020-07-28T10:00:24.002Z</time>
      </trkpt>
      <trkpt lat="42.83848" lon="0.14904">
        <ele>2198</ele>
        <time>2020-07-28T10:00:25.002Z</time>
      </trkpt>
      <trkpt lat="42.83847" lon="0.149">
        <ele>2198</ele>
        <time>2020-07-28T10:00:26.002Z</time>
      </trkpt>
      <trkpt lat="42.83847" lon="0.14896">
        <ele>2198</ele>
        <time>2020-07-28T10:00:27.002Z</time>
      </trkpt>
      <trkpt lat="42.83846" lon="0.14891">
        <ele>2198</ele>
        <time>2020-07-28T10:00:28.002Z</time>
      </trkpt>
      <trkpt lat="42.83846" lon="0.14887">
        <ele>2198</ele>
        <time>2020-07-28T10:00:29.002Z</time>
      </trkpt>
      <trkpt lat="42.83846" lon="0.14883">
        <ele>2197</ele>
        <time>2020-07-28T10:00:30.002Z</time>
      </trkpt>
      <trkpt lat="42.83845" lon="0.14879">
        <ele>2197</ele>
        <time>2020-07-28T10:00:31.002Z</time>
      </trkpt>
      <trkpt lat="42.83845" lon="0.14875">
        <ele>2196</ele>
        <time>2020-07-28T10:00:32.002Z</time>
      </trkpt>
      <trkpt lat="42.83845" lon="0.14871">
        <ele>2196</ele>
        <time>2020-07-28T10:00:33.002Z</time>
      </trkpt>
      <trkpt lat="42.83845" lon="0.14866">
        <ele>2196</ele>
        <time>2020-07-28T10:00:34.002Z</time>
      </trkpt>
      <trkpt lat="42.83845" lon="0.14862">
        <ele>2195</ele>
        <time>2020-07-28T10:00:35.002Z</time>
      </trkpt>
      <trkpt lat="42.83845" lon="0.14858">
        <ele>2196</ele>
        <time>2020-07-28T10:00:36.002Z</time>
      </trkpt>
      <trkpt lat="42.83845" lon="0.14854">
        <ele>2195</ele>
        <time>2020-07-28T10:00:37.002Z</time>
      </trkpt>
      <trkpt lat="42.83845" lon="0.14849">
        <ele>2195</ele>
        <time>2020-07-28T10:00:38.002Z</time>
      </trkpt>
      <trkpt lat="42.83845" lon="0.14845">
        <ele>2195</ele>
        <time>2020-07-28T10:00:39.002Z</time>
      </trkpt>
      <trkpt lat="42.83845" lon="0.1484">
        <ele>2195</ele>
        <time>2020-07-28T10:00:40.002Z</time>
      </trkpt>
      <trkpt lat="42.83845" lon="0.14836">
        <ele>2194</ele>
        <time>2020-07-28T10:00:41.002Z</time>
      </trkpt>
      <trkpt lat="42.83846" lon="0.14831">
        <ele>2193</ele>
        <time>2020-07-28T10:00:42.002Z</time>
      </trkpt>
      <trkpt lat="42.83846" lon="0.14827">
        <ele>2193</ele>
        <time>2020-07-28T10:00:43.002Z</time>
      </trkpt>
      <trkpt lat="42.83847" lon="0.14822">
        <ele>2193</ele>
        <time>2020-07-28T10:00:44.002Z</time>
      </trkpt>
      <trkpt lat="42.83847" lon="0.14818">
        <ele>2192</ele>
        <time>2020-07-28T10:00:45.002Z</time>
      </trkpt>
      <trkpt lat="42.83847" lon="0.14818">
        <ele>2192</ele>
        <time>2020-07-28T10:00:46.002Z</time>
      </trkpt>
      <trkpt lat="42.83847" lon="0.1481">
        <ele>2191</ele>
        <time>2020-07-28T10:00:47.002Z</time>
      </trkpt>
      <trkpt lat="42.83847" lon="0.14805">
        <ele>2191</ele>
        <time>2020-07-28T10:00:48.002Z</time>
      </trkpt>
      <trkpt lat="42.83847" lon="0.14801">
        <ele>2190</ele>
        <time>2020-07-28T10:00:49.002Z</time>
      </trkpt>
      <trkpt lat="42.83848" lon="0.14797">
        <ele>2190</ele>
        <time>2020-07-28T10:00:50.002Z</time>
      </trkpt>
      <trkpt lat="42.83848" lon="0.14792">
        <ele>2190</ele>
        <time>2020-07-28T10:00:51.002Z</time>
      </trkpt>
      <trkpt lat="42.83849" lon="0.14788">
        <ele>2189</ele>
        <time>2020-07-28T10:00:52.002Z</time>
      </trkpt>
      <trkpt lat="42.83849" lon="0.14784">
        <ele>2189</ele>
        <time>2020-07-28T10:00:53.002Z</time>
      </trkpt>
      <trkpt lat="42.8385" lon="0.1478">
        <ele>2187</ele>
        <time>2020-07-28T10:00:54.002Z</time>
      </trkpt>
      <trkpt lat="42.83851" lon="0.14776">
        <ele>2187</ele>
        <time>2020-07-28T10:00:55.002Z</time>
      </trkpt>
      <trkpt lat="42.83851" lon="0.14772">
        <ele>2187</ele>
        <time>2020-07-28T10:00:56.002Z</time>
      </trkpt>
      <trkpt lat="42.83852" lon="0.14768">
        <ele>2186</ele>
        <time>2020-07-28T10:00:57.002Z</time>
      </trkpt>
      <trkpt lat="42.83852" lon="0.14764">
        <ele>2186</ele>
        <time>2020-07-28T10:00:58.002Z</time>
      </trkpt>
      <trkpt lat="42.83853" lon="0.14759">
        <ele>2187</ele>
        <time>2020-07-28T10:00:59.002Z</time>
      </trkpt>
      <trkpt lat="42.83853" lon="0.14755">
        <ele>2186</ele>
        <time>2020-07-28T10:01:00.002Z</time>
      </trkpt>
      <trkpt lat="42.83854" lon="0.1475">
        <ele>2186</ele>
        <time>2020-07-28T10:01:01.002Z</time>
      </trkpt>
      <trkpt lat="42.83854" lon="0.14746">
        <ele>2185</ele>
        <time>2020-07-28T10:01:02.002Z</time>
      </trkpt>
      <trkpt lat="42.83854" lon="0.14742">
        <ele>2184</ele>
        <time>2020-07-28T10:01:03.002Z</time>
      </trkpt>
      <trkpt lat="42.83854" lon="0.14742">
        <ele>2184</ele>
        <time>2020-07-28T10:01:04.002Z</time>
      </trkpt>
      <trkpt lat="42.83855" lon="0.14733">
        <ele>2185</ele>
        <time>2020-07-28T10:01:05.002Z</time>
      </trkpt>
      <trkpt lat="42.83856" lon="0.14729">
        <ele>2184</ele>
        <time>2020-07-28T10:01:06.002Z</time>
      </trkpt>
      <trkpt lat="42.83856" lon="0.14725">
        <ele>2184</ele>
        <time>2020-07-28T10:01:07.002Z</time>
      </trkpt>
      <trkpt lat="42.83857" lon="0.14721">
        <ele>2184</ele>
        <time>2020-07-28T10:01:08.002Z</time>
      </trkpt>
      <trkpt lat="42.83858" lon="0.14717">
        <ele>2183</ele>
        <time>2020-07-28T10:01:09.002Z</time>
      </trkpt>
      <trkpt lat="42.83859" lon="0.14713">
        <ele>2182</ele>
        <time>2020-07-28T10:01:10.002Z</time>
      </trkpt>
      <trkpt lat="42.8386" lon="0.14709">
        <ele>2182</ele>
        <time>2020-07-28T10:01:11.002Z</time>
      </trkpt>
      <trkpt lat="42.83862" lon="0.14705">
        <ele>2182</ele>
        <time>2020-07-28T10:01:12.002Z</time>
      </trkpt>
      <trkpt lat="42.83863" lon="0.14701">
        <ele>2181</ele>
        <time>2020-07-28T10:01:13.002Z</time>
      </trkpt>
      <trkpt lat="42.83864" lon="0.14697">
        <ele>2181</ele>
        <time>2020-07-28T10:01:14.002Z</time>
      </trkpt>
      <trkpt lat="42.83866" lon="0.14693">
        <ele>2181</ele>
        <time>2020-07-28T10:01:15.002Z</time>
      </trkpt>
      <trkpt lat="42.83867" lon="0.14689">
        <ele>2182</ele>
        <time>2020-07-28T10:01:16.002Z</time>
      </trkpt>
      <trkpt lat="42.83869" lon="0.14684">
        <ele>2181</ele>
        <time>2020-07-28T10:01:17.002Z</time>
      </trkpt>
      <trkpt lat="42.83871" lon="0.14681">
        <ele>2182</ele>
        <time>2020-07-28T10:01:18.002Z</time>
      </trkpt>
      <trkpt lat="42.83872" lon="0.14677">
        <ele>2181</ele>
        <time>2020-07-28T10:01:19.002Z</time>
      </trkpt>
      <trkpt lat="42.83873" lon="0.14673">
        <ele>2182</ele>
        <time>2020-07-28T10:01:20.002Z</time>
      </trkpt>
      <trkpt lat="42.83875" lon="0.14669">
        <ele>2182</ele>
        <time>2020-07-28T10:01:21.002Z</time>
      </trkpt>
      <trkpt lat="42.83877" lon="0.14665">
        <ele>2181</ele>
        <time>2020-07-28T10:01:22.002Z</time>
      </trkpt>
      <trkpt lat="42.83878" lon="0.14661">
        <ele>2181</ele>
        <time>2020-07-28T10:01:23.002Z</time>
      </trkpt>
      <trkpt lat="42.83879" lon="0.14657">
        <ele>2180</ele>
        <time>2020-07-28T10:01:24.002Z</time>
      </trkpt>
      <trkpt lat="42.83881" lon="0.14654">
        <ele>2180</ele>
        <time>2020-07-28T10:01:25.002Z</time>
      </trkpt>
      <trkpt lat="42.83882" lon="0.1465">
        <ele>2180</ele>
        <time>2020-07-28T10:01:26.002Z</time>
      </trkpt>
      <trkpt lat="42.83884" lon="0.14646">
        <ele>2180</ele>
        <time>2020-07-28T10:01:27.002Z</time>
      </trkpt>
      <trkpt lat="42.83885" lon="0.14642">
        <ele>2180</ele>
        <time>2020-07-28T10:01:28.002Z</time>
      </trkpt>
      <trkpt lat="42.83887" lon="0.14638">
        <ele>2180</ele>
        <time>2020-07-28T10:01:29.002Z</time>
      </trkpt>
      <trkpt lat="42.83889" lon="0.14635">
        <ele>2180</ele>
        <time>2020-07-28T10:01:30.002Z</time>
      </trkpt>
      <trkpt lat="42.83892" lon="0.14631">
        <ele>2180</ele>
        <time>2020-07-28T10:01:31.002Z</time>
      </trkpt>
      <trkpt lat="42.83894" lon="0.14627">
        <ele>2180</ele>
        <time>2020-07-28T10:01:32.002Z</time>
      </trkpt>
      <trkpt lat="42.83896" lon="0.14624">
        <ele>2181</ele>
        <time>2020-07-28T10:01:33.002Z</time>
      </trkpt>
      <trkpt lat="42.83899" lon="0.1462">
        <ele>2181</ele>
        <time>2020-07-28T10:01:34.002Z</time>
      </trkpt>
      <trkpt lat="42.83901" lon="0.14617">
        <ele>2181</ele>
        <time>2020-07-28T10:01:35.002Z</time>
      </trkpt>
      <trkpt lat="42.83903" lon="0.14614">
        <ele>2181</ele>
        <time>2020-07-28T10:01:36.002Z</time>
      </trkpt>
      <trkpt lat="42.83905" lon="0.1461">
        <ele>2181</ele>
        <time>2020-07-28T10:01:37.002Z</time>
      </trkpt>
      <trkpt lat="42.83908" lon="0.14607">
        <ele>2181</ele>
        <time>2020-07-28T10:01:38.002Z</time>
      </trkpt>
      <trkpt lat="42.8391" lon="0.14604">
        <ele>2182</ele>
        <time>2020-07-28T10:01:39.002Z</time>
      </trkpt>
      <trkpt lat="42.83913" lon="0.14602">
        <ele>2181</ele>
        <time>2020-07-28T10:01:40.002Z</time>
      </trkpt>
      <trkpt lat="42.83915" lon="0.14599">
        <ele>2182</ele>
        <time>2020-07-28T10:01:41.002Z</time>
      </trkpt>
      <trkpt lat="42.83918" lon="0.14596">
        <ele>2182</ele>
        <time>2020-07-28T10:01:42.002Z</time>
      </trkpt>
      <trkpt lat="42.8392" lon="0.14594">
        <ele>2182</ele>
        <time>2020-07-28T10:01:43.002Z</time>
      </trkpt>
      <trkpt lat="42.83923" lon="0.14591">
        <ele>2182</ele>
        <time>2020-07-28T10:01:44.002Z</time>
      </trkpt>
      <trkpt lat="42.83925" lon="0.14588">
        <ele>2182</ele>
        <time>2020-07-28T10:01:45.002Z</time>
      </trkpt>
      <trkpt lat="42.83928" lon="0.14585">
        <ele>2182</ele>
        <time>2020-07-28T10:01:46.002Z</time>
      </trkpt>
      <trkpt lat="42.8393" lon="0.14582">
        <ele>2182</ele>
        <time>2020-07-28T10:01:47.002Z</time>
      </trkpt>
      <trkpt lat="42.83933" lon="0.14579">
        <ele>2182</ele>
        <time>2020-07-28T10:01:48.002Z</time>
      </trkpt>
      <trkpt lat="42.83935" lon="0.14576">
        <ele>2181</ele>
        <time>2020-07-28T10:01:49.002Z</time>
      </trkpt>
      <trkpt lat="42.83937" lon="0.14574">
        <ele>2181</ele>
        <time>2020-07-28T10:01:50.002Z</time>
      </trkpt>
      <trkpt lat="42.8394" lon="0.14571">
        <ele>2181</ele>
        <time>2020-07-28T10:01:51.002Z</time>
      </trkpt>
      <trkpt lat="42.83942" lon="0.14568">
        <ele>2181</ele>
        <time>2020-07-28T10:01:52.002Z</time>
      </trkpt>
      <trkpt lat="42.83944" lon="0.14565">
        <ele>2180</ele>
        <time>2020-07-28T10:01:53.002Z</time>
      </trkpt>
      <trkpt lat="42.83946" lon="0.14562">
        <ele>2181</ele>
        <time>2020-07-28T10:01:54.002Z</time>
      </trkpt>
      <trkpt lat="42.83948" lon="0.14558">
        <ele>2181</ele>
        <time>2020-07-28T10:01:55.002Z</time>
      </trkpt>
      <trkpt lat="42.8395" lon="0.14555">
        <ele>2181</ele>
        <time>2020-07-28T10:01:56.002Z</time>
      </trkpt>
      <trkpt lat="42.83952" lon="0.14552">
        <ele>2180</ele>
        <time>2020-07-28T10:01:57.002Z</time>
      </trkpt>
      <trkpt lat="42.83954" lon="0.14548">
        <ele>2180</ele>
        <time>2020-07-28T10:01:58.002Z</time>
      </trkpt>
      <trkpt lat="42.83956" lon="0.14544">
        <ele>2180</ele>
        <time>2020-07-28T10:01:59.002Z</time>
      </trkpt>
      <trkpt lat="42.83957" lon="0.14541">
        <ele>2179</ele>
        <time>2020-07-28T10:02:00.002Z</time>
      </trkpt>
      <trkpt lat="42.83959" lon="0.14538">
        <ele>2179</ele>
        <time>2020-07-28T10:02:01.002Z</time>
      </trkpt>
      <trkpt lat="42.83961" lon="0.14535">
        <ele>2178</ele>
        <time>2020-07-28T10:02:02.002Z</time>
      </trkpt>
      <trkpt lat="42.83963" lon="0.14531">
        <ele>2178</ele>
        <time>2020-07-28T10:02:03.002Z</time>
      </trkpt>
      <trkpt lat="42.83965" lon="0.14528">
        <ele>2177</ele>
        <time>2020-07-28T10:02:04.002Z</time>
      </trkpt>
      <trkpt lat="42.83967" lon="0.14525">
        <ele>2177</ele>
        <time>2020-07-28T10:02:05.002Z</time>
      </trkpt>
      <trkpt lat="42.83968" lon="0.14522">
        <ele>2176</ele>
        <time>2020-07-28T10:02:06.002Z</time>
      </trkpt>
      <trkpt lat="42.8397" lon="0.14518">
        <ele>2175</ele>
        <time>2020-07-28T10:02:07.002Z</time>
      </trkpt>
      <trkpt lat="42.83971" lon="0.14515">
        <ele>2174</ele>
        <time>2020-07-28T10:02:08.002Z</time>
      </trkpt>
      <trkpt lat="42.83973" lon="0.14512">
        <ele>2173</ele>
        <time>2020-07-28T10:02:09.002Z</time>
      </trkpt>
      <trkpt lat="42.83975" lon="0.14508">
        <ele>2173</ele>
        <time>2020-07-28T10:02:10.002Z</time>
      </trkpt>
      <trkpt lat="42.83977" lon="0.14505">
        <ele>2173</ele>
        <time>2020-07-28T10:02:11.002Z</time>
      </trkpt>
      <trkpt lat="42.83978" lon="0.14501">
        <ele>2172</ele>
        <time>2020-07-28T10:02:12.002Z</time>
      </trkpt>
      <trkpt lat="42.8398" lon="0.14497">
        <ele>2172</ele>
        <time>2020-07-28T10:02:13.002Z</time>
      </trkpt>
      <trkpt lat="42.83982" lon="0.14493">
        <ele>2172</ele>
        <time>2020-07-28T10:02:14.002Z</time>
      </trkpt>
      <trkpt lat="42.83983" lon="0.14489">
        <ele>2171</ele>
        <time>2020-07-28T10:02:15.002Z</time>
      </trkpt>
      <trkpt lat="42.83985" lon="0.14486">
        <ele>2170</ele>
        <time>2020-07-28T10:02:16.002Z</time>
      </trkpt>
      <trkpt lat="42.83986" lon="0.14483">
        <ele>2170</ele>
        <time>2020-07-28T10:02:17.002Z</time>
      </trkpt>
      <trkpt lat="42.83987" lon="0.14479">
        <ele>2170</ele>
        <time>2020-07-28T10:02:18.002Z</time>
      </trkpt>
      <trkpt lat="42.83989" lon="0.14475">
        <ele>2169</ele>
        <time>2020-07-28T10:02:19.002Z</time>
      </trkpt>
      <trkpt lat="42.8399" lon="0.14471">
        <ele>2169</ele>
        <time>2020-07-28T10:02:20.002Z</time>
      </trkpt>
      <trkpt lat="42.83991" lon="0.14467">
        <ele>2168</ele>
        <time>2020-07-28T10:02:21.002Z</time>
      </trkpt>
      <trkpt lat="42.83992" lon="0.14463">
        <ele>2168</ele>
        <time>2020-07-28T10:02:22.002Z</time>
      </trkpt>
      <trkpt lat="42.83993" lon="0.14458">
        <ele>2168</ele>
        <time>2020-07-28T10:02:23.002Z</time>
      </trkpt>
      <trkpt lat="42.83995" lon="0.14454">
        <ele>2167</ele>
        <time>2020-07-28T10:02:24.002Z</time>
      </trkpt>
      <trkpt lat="42.83996" lon="0.1445">
        <ele>2167</ele>
        <time>2020-07-28T10:02:25.002Z</time>
      </trkpt>
      <trkpt lat="42.83997" lon="0.14446">
        <ele>2167</ele>
        <time>2020-07-28T10:02:26.002Z</time>
      </trkpt>
      <trkpt lat="42.83999" lon="0.14442">
        <ele>2166</ele>
        <time>2020-07-28T10:02:27.002Z</time>
      </trkpt>
      <trkpt lat="42.84" lon="0.14438">
        <ele>2166</ele>
        <time>2020-07-28T10:02:28.002Z</time>
      </trkpt>
      <trkpt lat="42.84002" lon="0.14435">
        <ele>2167</ele>
        <time>2020-07-28T10:02:29.002Z</time>
      </trkpt>
      <trkpt lat="42.84004" lon="0.1443">
        <ele>2167</ele>
        <time>2020-07-28T10:02:30.002Z</time>
      </trkpt>
      <trkpt lat="42.84006" lon="0.14427">
        <ele>2166</ele>
        <time>2020-07-28T10:02:31.002Z</time>
      </trkpt>
      <trkpt lat="42.84008" lon="0.14423">
        <ele>2167</ele>
        <time>2020-07-28T10:02:32.002Z</time>
      </trkpt>
      <trkpt lat="42.8401" lon="0.14419">
        <ele>2167</ele>
        <time>2020-07-28T10:02:33.002Z</time>
      </trkpt>
      <trkpt lat="42.84012" lon="0.14415">
        <ele>2166</ele>
        <time>2020-07-28T10:02:34.002Z</time>
      </trkpt>
      <trkpt lat="42.84013" lon="0.14411">
        <ele>2167</ele>
        <time>2020-07-28T10:02:35.002Z</time>
      </trkpt>
      <trkpt lat="42.84015" lon="0.14407">
        <ele>2167</ele>
        <time>2020-07-28T10:02:36.002Z</time>
      </trkpt>
      <trkpt lat="42.84017" lon="0.14403">
        <ele>2166</ele>
        <time>2020-07-28T10:02:37.002Z</time>
      </trkpt>
      <trkpt lat="42.84019" lon="0.144">
        <ele>2166</ele>
        <time>2020-07-28T10:02:38.002Z</time>
      </trkpt>
      <trkpt lat="42.84021" lon="0.14396">
        <ele>2165</ele>
        <time>2020-07-28T10:02:39.002Z</time>
      </trkpt>
      <trkpt lat="42.84023" lon="0.14392">
        <ele>2165</ele>
        <time>2020-07-28T10:02:40.002Z</time>
      </trkpt>
      <trkpt lat="42.84025" lon="0.14389">
        <ele>2164</ele>
        <time>2020-07-28T10:02:41.002Z</time>
      </trkpt>
      <trkpt lat="42.84026" lon="0.14385">
        <ele>2163</ele>
        <time>2020-07-28T10:02:42.002Z</time>
      </trkpt>
      <trkpt lat="42.84028" lon="0.14382">
        <ele>2162</ele>
        <time>2020-07-28T10:02:43.002Z</time>
      </trkpt>
      <trkpt lat="42.8403" lon="0.14378">
        <ele>2162</ele>
        <time>2020-07-28T10:02:44.002Z</time>
      </trkpt>
      <trkpt lat="42.84032" lon="0.14375">
        <ele>2162</ele>
        <time>2020-07-28T10:02:45.002Z</time>
      </trkpt>
      <trkpt lat="42.84033" lon="0.14372">
        <ele>2162</ele>
        <time>2020-07-28T10:02:46.002Z</time>
      </trkpt>
      <trkpt lat="42.84035" lon="0.14368">
        <ele>2161</ele>
        <time>2020-07-28T10:02:47.002Z</time>
      </trkpt>
      <trkpt lat="42.84037" lon="0.14365">
        <ele>2161</ele>
        <time>2020-07-28T10:02:48.002Z</time>
      </trkpt>
      <trkpt lat="42.84039" lon="0.14363">
        <ele>2161</ele>
        <time>2020-07-28T10:02:49.002Z</time>
      </trkpt>
      <trkpt lat="42.84041" lon="0.1436">
        <ele>2161</ele>
        <time>2020-07-28T10:02:50.002Z</time>
      </trkpt>
      <trkpt lat="42.84043" lon="0.14356">
        <ele>2160</ele>
        <time>2020-07-28T10:02:51.002Z</time>
      </trkpt>
      <trkpt lat="42.84046" lon="0.14353">
        <ele>2159</ele>
        <time>2020-07-28T10:02:52.002Z</time>
      </trkpt>
      <trkpt lat="42.84048" lon="0.14349">
        <ele>2159</ele>
        <time>2020-07-28T10:02:53.002Z</time>
      </trkpt>
      <trkpt lat="42.8405" lon="0.14346">
        <ele>2158</ele>
        <time>2020-07-28T10:02:54.002Z</time>
      </trkpt>
      <trkpt lat="42.84052" lon="0.14342">
        <ele>2158</ele>
        <time>2020-07-28T10:02:55.002Z</time>
      </trkpt>
      <trkpt lat="42.84054" lon="0.14339">
        <ele>2158</ele>
        <time>2020-07-28T10:02:56.002Z</time>
      </trkpt>
      <trkpt lat="42.84056" lon="0.14336">
        <ele>2158</ele>
        <time>2020-07-28T10:02:57.002Z</time>
      </trkpt>
      <trkpt lat="42.84059" lon="0.14332">
        <ele>2158</ele>
        <time>2020-07-28T10:02:58.002Z</time>
      </trkpt>
      <trkpt lat="42.8406" lon="0.14329">
        <ele>2157</ele>
        <time>2020-07-28T10:02:59.002Z</time>
      </trkpt>
      <trkpt lat="42.84062" lon="0.14326">
        <ele>2157</ele>
        <time>2020-07-28T10:03:00.002Z</time>
      </trkpt>
      <trkpt lat="42.84064" lon="0.14323">
        <ele>2157</ele>
        <time>2020-07-28T10:03:01.002Z</time>
      </trkpt>
      <trkpt lat="42.84065" lon="0.1432">
        <ele>2158</ele>
        <time>2020-07-28T10:03:02.002Z</time>
      </trkpt>
      <trkpt lat="42.84065" lon="0.14318">
        <ele>2159</ele>
        <time>2020-07-28T10:03:03.002Z</time>
      </trkpt>
      <trkpt lat="42.84065" lon="0.14318">
        <ele>2159</ele>
        <time>2020-07-28T10:03:04.002Z</time>
      </trkpt>
      <trkpt lat="42.84066" lon="0.14314">
        <ele>2159</ele>
        <time>2020-07-28T10:03:05.002Z</time>
      </trkpt>
      <trkpt lat="42.84066" lon="0.14313">
        <ele>2158</ele>
        <time>2020-07-28T10:03:06.002Z</time>
      </trkpt>
      <trkpt lat="42.84065" lon="0.14311">
        <ele>2158</ele>
        <time>2020-07-28T10:03:07.002Z</time>
      </trkpt>
      <trkpt lat="42.84064" lon="0.1431">
        <ele>2157</ele>
        <time>2020-07-28T10:03:08.080Z</time>
      </trkpt>
      <trkpt lat="42.84063" lon="0.1431">
        <ele>2157</ele>
        <time>2020-07-28T10:03:09.080Z</time>
      </trkpt>
      <trkpt lat="42.84062" lon="0.14309">
        <ele>2157</ele>
        <time>2020-07-28T10:03:10.080Z</time>
      </trkpt>
      <trkpt lat="42.8406" lon="0.14308">
        <ele>2157</ele>
        <time>2020-07-28T10:03:11.080Z</time>
      </trkpt>
      <trkpt lat="42.84057" lon="0.14307">
        <ele>2157</ele>
        <time>2020-07-28T10:03:12.080Z</time>
      </trkpt>
      <trkpt lat="42.84055" lon="0.14307">
        <ele>2156</ele>
        <time>2020-07-28T10:03:13.080Z</time>
      </trkpt>
      <trkpt lat="42.84052" lon="0.14306">
        <ele>2156</ele>
        <time>2020-07-28T10:03:14.080Z</time>
      </trkpt>
      <trkpt lat="42.84049" lon="0.14306">
        <ele>2156</ele>
        <time>2020-07-28T10:03:15.080Z</time>
      </trkpt>
      <trkpt lat="42.84046" lon="0.14306">
        <ele>2156</ele>
        <time>2020-07-28T10:03:16.080Z</time>
      </trkpt>
      <trkpt lat="42.84042" lon="0.14307">
        <ele>2156</ele>
        <time>2020-07-28T10:03:17.080Z</time>
      </trkpt>
      <trkpt lat="42.84039" lon="0.14307">
        <ele>2155</ele>
        <time>2020-07-28T10:03:18.080Z</time>
      </trkpt>
      <trkpt lat="42.84037" lon="0.14307">
        <ele>2155</ele>
        <time>2020-07-28T10:03:19.080Z</time>
      </trkpt>
      <trkpt lat="42.84034" lon="0.14307">
        <ele>2155</ele>
        <time>2020-07-28T10:03:20.080Z</time>
      </trkpt>
      <trkpt lat="42.8403" lon="0.14307">
        <ele>2154</ele>
        <time>2020-07-28T10:03:21.080Z</time>
      </trkpt>
      <trkpt lat="42.84027" lon="0.14307">
        <ele>2154</ele>
        <time>2020-07-28T10:03:22.080Z</time>
      </trkpt>
      <trkpt lat="42.84024" lon="0.14307">
        <ele>2154</ele>
        <time>2020-07-28T10:03:23.080Z</time>
      </trkpt>
      <trkpt lat="42.84021" lon="0.14307">
        <ele>2154</ele>
        <time>2020-07-28T10:03:24.080Z</time>
      </trkpt>
      <trkpt lat="42.84018" lon="0.14308">
        <ele>2154</ele>
        <time>2020-07-28T10:03:25.080Z</time>
      </trkpt>
      <trkpt lat="42.84014" lon="0.14308">
        <ele>2153</ele>
        <time>2020-07-28T10:03:26.080Z</time>
      </trkpt>
      <trkpt lat="42.84011" lon="0.14309">
        <ele>2153</ele>
        <time>2020-07-28T10:03:27.080Z</time>
      </trkpt>
      <trkpt lat="42.84008" lon="0.1431">
        <ele>2153</ele>
        <time>2020-07-28T10:03:28.080Z</time>
      </trkpt>
      <trkpt lat="42.84005" lon="0.14311">
        <ele>2152</ele>
        <time>2020-07-28T10:03:29.080Z</time>
      </trkpt>
      <trkpt lat="42.84002" lon="0.14312">
        <ele>2151</ele>
        <time>2020-07-28T10:03:30.080Z</time>
      </trkpt>
      <trkpt lat="42.83999" lon="0.14313">
        <ele>2150</ele>
        <time>2020-07-28T10:03:31.080Z</time>
      </trkpt>
      <trkpt lat="42.83999" lon="0.14313">
        <ele>2150</ele>
        <time>2020-07-28T10:03:32.080Z</time>
      </trkpt>
      <trkpt lat="42.83992" lon="0.14314">
        <ele>2149</ele>
        <time>2020-07-28T10:03:33.080Z</time>
      </trkpt>
      <trkpt lat="42.83989" lon="0.14315">
        <ele>2149</ele>
        <time>2020-07-28T10:03:34.080Z</time>
      </trkpt>
      <trkpt lat="42.83986" lon="0.14315">
        <ele>2148</ele>
        <time>2020-07-28T10:03:35.080Z</time>
      </trkpt>
      <trkpt lat="42.83982" lon="0.14315">
        <ele>2148</ele>
        <time>2020-07-28T10:03:36.080Z</time>
      </trkpt>
      <trkpt lat="42.83979" lon="0.14316">
        <ele>2148</ele>
        <time>2020-07-28T10:03:37.080Z</time>
      </trkpt>
      <trkpt lat="42.83976" lon="0.14317">
        <ele>2148</ele>
        <time>2020-07-28T10:03:38.080Z</time>
      </trkpt>
      <trkpt lat="42.83973" lon="0.14319">
        <ele>2148</ele>
        <time>2020-07-28T10:03:39.080Z</time>
      </trkpt>
      <trkpt lat="42.8397" lon="0.1432">
        <ele>2148</ele>
        <time>2020-07-28T10:03:40.080Z</time>
      </trkpt>
      <trkpt lat="42.83967" lon="0.14321">
        <ele>2149</ele>
        <time>2020-07-28T10:03:41.080Z</time>
      </trkpt>
      <trkpt lat="42.83964" lon="0.14323">
        <ele>2149</ele>
        <time>2020-07-28T10:03:42.080Z</time>
      </trkpt>
      <trkpt lat="42.8396" lon="0.14324">
        <ele>2150</ele>
        <time>2020-07-28T10:03:43.080Z</time>
      </trkpt>
      <trkpt lat="42.83957" lon="0.14326">
        <ele>2149</ele>
        <time>2020-07-28T10:03:44.080Z</time>
      </trkpt>
      <trkpt lat="42.83954" lon="0.14329">
        <ele>2150</ele>
        <time>2020-07-28T10:03:45.080Z</time>
      </trkpt>
      <trkpt lat="42.83951" lon="0.14331">
        <ele>2150</ele>
        <time>2020-07-28T10:03:46.080Z</time>
      </trkpt>
      <trkpt lat="42.83949" lon="0.14334">
        <ele>2151</ele>
        <time>2020-07-28T10:03:47.080Z</time>
      </trkpt>
      <trkpt lat="42.83946" lon="0.14336">
        <ele>2152</ele>
        <time>2020-07-28T10:03:48.080Z</time>
      </trkpt>
      <trkpt lat="42.83944" lon="0.14339">
        <ele>2152</ele>
        <time>2020-07-28T10:03:49.080Z</time>
      </trkpt>
      <trkpt lat="42.83942" lon="0.14342">
        <ele>2151</ele>
        <time>2020-07-28T10:03:50.080Z</time>
      </trkpt>
      <trkpt lat="42.83939" lon="0.14344">
        <ele>2150</ele>
        <time>2020-07-28T10:03:51.080Z</time>
      </trkpt>
      <trkpt lat="42.83937" lon="0.14347">
        <ele>2150</ele>
        <time>2020-07-28T10:03:52.080Z</time>
      </trkpt>
      <trkpt lat="42.83935" lon="0.14349">
        <ele>2150</ele>
        <time>2020-07-28T10:03:53.080Z</time>
      </trkpt>
      <trkpt lat="42.83935" lon="0.14349">
        <ele>2150</ele>
        <time>2020-07-28T10:03:54.080Z</time>
      </trkpt>
      <trkpt lat="42.83931" lon="0.14355">
        <ele>2149</ele>
        <time>2020-07-28T10:03:55.080Z</time>
      </trkpt>
      <trkpt lat="42.83929" lon="0.14357">
        <ele>2149</ele>
        <time>2020-07-28T10:03:56.080Z</time>
      </trkpt>
      <trkpt lat="42.83927" lon="0.14359">
        <ele>2149</ele>
        <time>2020-07-28T10:03:57.080Z</time>
      </trkpt>
      <trkpt lat="42.83926" lon="0.14361">
        <ele>2149</ele>
        <time>2020-07-28T10:03:58.080Z</time>
      </trkpt>
      <trkpt lat="42.83925" lon="0.14362">
        <ele>2149</ele>
        <time>2020-07-28T10:03:59.080Z</time>
      </trkpt>
      <trkpt lat="42.83923" lon="0.14362">
        <ele>2149</ele>
        <time>2020-07-28T10:04:00.080Z</time>
      </trkpt>
      <trkpt lat="42.83921" lon="0.14362">
        <ele>2149</ele>
        <time>2020-07-28T10:04:01.080Z</time>
      </trkpt>
      <trkpt lat="42.83919" lon="0.14362">
        <ele>2148</ele>
        <time>2020-07-28T10:04:02.080Z</time>
      </trkpt>
      <trkpt lat="42.83917" lon="0.14362">
        <ele>2148</ele>
        <time>2020-07-28T10:04:03.080Z</time>
      </trkpt>
      <trkpt lat="42.83914" lon="0.14361">
        <ele>2149</ele>
        <time>2020-07-28T10:04:04.080Z</time>
      </trkpt>
      <trkpt lat="42.83911" lon="0.1436">
        <ele>2150</ele>
        <time>2020-07-28T10:04:05.080Z</time>
      </trkpt>
      <trkpt lat="42.83908" lon="0.14357">
        <ele>2150</ele>
        <time>2020-07-28T10:04:06.080Z</time>
      </trkpt>
      <trkpt lat="42.83905" lon="0.14353">
        <ele>2150</ele>
        <time>2020-07-28T10:04:07.080Z</time>
      </trkpt>
      <trkpt lat="42.83902" lon="0.1435">
        <ele>2151</ele>
        <time>2020-07-28T10:04:08.080Z</time>
      </trkpt>
      <trkpt lat="42.839" lon="0.14347">
        <ele>2151</ele>
        <time>2020-07-28T10:04:09.080Z</time>
      </trkpt>
      <trkpt lat="42.83898" lon="0.14344">
        <ele>2151</ele>
        <time>2020-07-28T10:04:10.080Z</time>
      </trkpt>
      <trkpt lat="42.83896" lon="0.14341">
        <ele>2150</ele>
        <time>2020-07-28T10:04:11.080Z</time>
      </trkpt>
      <trkpt lat="42.83896" lon="0.14341">
        <ele>2150</ele>
        <time>2020-07-28T10:04:12.080Z</time>
      </trkpt>
      <trkpt lat="42.83891" lon="0.14336">
        <ele>2151</ele>
        <time>2020-07-28T10:04:13.080Z</time>
      </trkpt>
      <trkpt lat="42.83888" lon="0.14333">
        <ele>2152</ele>
        <time>2020-07-28T10:04:14.080Z</time>
      </trkpt>
      <trkpt lat="42.83886" lon="0.14331">
        <ele>2153</ele>
        <time>2020-07-28T10:04:15.080Z</time>
      </trkpt>
      <trkpt lat="42.83883" lon="0.14328">
        <ele>2152</ele>
        <time>2020-07-28T10:04:16.080Z</time>
      </trkpt>
      <trkpt lat="42.8388" lon="0.14326">
        <ele>2153</ele>
        <time>2020-07-28T10:04:17.080Z</time>
      </trkpt>
      <trkpt lat="42.83878" lon="0.14324">
        <ele>2152</ele>
        <time>2020-07-28T10:04:18.080Z</time>
      </trkpt>
      <trkpt lat="42.83875" lon="0.14322">
        <ele>2152</ele>
        <time>2020-07-28T10:04:19.080Z</time>
      </trkpt>
      <trkpt lat="42.83873" lon="0.1432">
        <ele>2150</ele>
        <time>2020-07-28T10:04:20.080Z</time>
      </trkpt>
      <trkpt lat="42.8387" lon="0.14318">
        <ele>2150</ele>
        <time>2020-07-28T10:04:21.080Z</time>
      </trkpt>
      <trkpt lat="42.83867" lon="0.14316">
        <ele>2150</ele>
        <time>2020-07-28T10:04:22.080Z</time>
      </trkpt>
      <trkpt lat="42.83864" lon="0.14315">
        <ele>2149</ele>
        <time>2020-07-28T10:04:23.080Z</time>
      </trkpt>
      <trkpt lat="42.83861" lon="0.14314">
        <ele>2149</ele>
        <time>2020-07-28T10:04:24.080Z</time>
      </trkpt>
      <trkpt lat="42.83858" lon="0.14312">
        <ele>2149</ele>
        <time>2020-07-28T10:04:25.080Z</time>
      </trkpt>
      <trkpt lat="42.83855" lon="0.1431">
        <ele>2148</ele>
        <time>2020-07-28T10:04:26.080Z</time>
      </trkpt>
      <trkpt lat="42.83852" lon="0.14308">
        <ele>2148</ele>
        <time>2020-07-28T10:04:27.080Z</time>
      </trkpt>
      <trkpt lat="42.8385" lon="0.14307">
        <ele>2148</ele>
        <time>2020-07-28T10:04:28.080Z</time>
      </trkpt>
      <trkpt lat="42.83847" lon="0.14305">
        <ele>2148</ele>
        <time>2020-07-28T10:04:29.080Z</time>
      </trkpt>
      <trkpt lat="42.83845" lon="0.14304">
        <ele>2148</ele>
        <time>2020-07-28T10:04:30.080Z</time>
      </trkpt>
      <trkpt lat="42.83843" lon="0.14302">
        <ele>2148</ele>
        <time>2020-07-28T10:04:31.080Z</time>
      </trkpt>
      <trkpt lat="42.83841" lon="0.143">
        <ele>2148</ele>
        <time>2020-07-28T10:04:32.080Z</time>
      </trkpt>
      <trkpt lat="42.8384" lon="0.14298">
        <ele>2148</ele>
        <time>2020-07-28T10:04:33.080Z</time>
      </trkpt>
      <trkpt lat="42.83839" lon="0.14297">
        <ele>2148</ele>
        <time>2020-07-28T10:04:34.080Z</time>
      </trkpt>
      <trkpt lat="42.83837" lon="0.14295">
        <ele>2148</ele>
        <time>2020-07-28T10:04:35.080Z</time>
      </trkpt>
      <trkpt lat="42.83836" lon="0.14294">
        <ele>2148</ele>
        <time>2020-07-28T10:04:36.080Z</time>
      </trkpt>
      <trkpt lat="42.83835" lon="0.14293">
        <ele>2148</ele>
        <time>2020-07-28T10:04:37.080Z</time>
      </trkpt>
      <trkpt lat="42.83834" lon="0.14291">
        <ele>2148</ele>
        <time>2020-07-28T10:04:38.080Z</time>
      </trkpt>
      <trkpt lat="42.83833" lon="0.1429">
        <ele>2148</ele>
        <time>2020-07-28T10:04:39.080Z</time>
      </trkpt>
      <trkpt lat="42.83831" lon="0.14288">
        <ele>2148</ele>
        <time>2020-07-28T10:04:40.080Z</time>
      </trkpt>
      <trkpt lat="42.8383" lon="0.14287">
        <ele>2148</ele>
        <time>2020-07-28T10:04:41.080Z</time>
      </trkpt>
      <trkpt lat="42.83829" lon="0.14286">
        <ele>2149</ele>
        <time>2020-07-28T10:04:42.080Z</time>
      </trkpt>
      <trkpt lat="42.83828" lon="0.14285">
        <ele>2148</ele>
        <time>2020-07-28T10:04:43.080Z</time>
      </trkpt>
      <trkpt lat="42.83828" lon="0.14285">
        <ele>2148</ele>
        <time>2020-07-28T10:04:44.080Z</time>
      </trkpt>
      <trkpt lat="42.83824" lon="0.14283">
        <ele>2147</ele>
        <time>2020-07-28T10:04:45.080Z</time>
      </trkpt>
      <trkpt lat="42.83822" lon="0.14282">
        <ele>2147</ele>
        <time>2020-07-28T10:04:46.080Z</time>
      </trkpt>
      <trkpt lat="42.8382" lon="0.14281">
        <ele>2147</ele>
        <time>2020-07-28T10:04:47.080Z</time>
      </trkpt>
      <trkpt lat="42.83819" lon="0.1428">
        <ele>2146</ele>
        <time>2020-07-28T10:04:48.080Z</time>
      </trkpt>
      <trkpt lat="42.83818" lon="0.14278">
        <ele>2145</ele>
        <time>2020-07-28T10:04:49.080Z</time>
      </trkpt>
      <trkpt lat="42.83817" lon="0.14276">
        <ele>2145</ele>
        <time>2020-07-28T10:04:50.080Z</time>
      </trkpt>
      <trkpt lat="42.83816" lon="0.14275">
        <ele>2144</ele>
        <time>2020-07-28T10:04:51.080Z</time>
      </trkpt>
      <trkpt lat="42.83814" lon="0.14274">
        <ele>2144</ele>
        <time>2020-07-28T10:04:52.080Z</time>
      </trkpt>
      <trkpt lat="42.83814" lon="0.14274">
        <ele>2144</ele>
        <time>2020-07-28T10:04:53.080Z</time>
      </trkpt>
      <trkpt lat="42.83814" lon="0.14274">
        <ele>2144</ele>
        <time>2020-07-28T10:04:54.080Z</time>
      </trkpt>
      <trkpt lat="42.83811" lon="0.14272">
        <ele>2141</ele>
        <time>2020-07-28T10:04:55.080Z</time>
      </trkpt>
      <trkpt lat="42.83811" lon="0.14272">
        <ele>2141</ele>
        <time>2020-07-28T10:04:56.080Z</time>
      </trkpt>
      <trkpt lat="42.83807" lon="0.14271">
        <ele>2140</ele>
        <time>2020-07-28T10:04:57.080Z</time>
      </trkpt>
      <trkpt lat="42.83806" lon="0.14271">
        <ele>2140</ele>
        <time>2020-07-28T10:04:58.080Z</time>
      </trkpt>
      <trkpt lat="42.83806" lon="0.1427">
        <ele>2140</ele>
        <time>2020-07-28T10:04:59.080Z</time>
      </trkpt>
      <trkpt lat="42.83806" lon="0.1427">
        <ele>2140</ele>
        <time>2020-07-28T10:05:00.080Z</time>
      </trkpt>
      <trkpt lat="42.83805" lon="0.14268">
        <ele>2139</ele>
        <time>2020-07-28T10:05:01.080Z</time>
      </trkpt>
      <trkpt lat="42.83805" lon="0.14268">
        <ele>2139</ele>
        <time>2020-07-28T10:05:02.080Z</time>
      </trkpt>
      <trkpt lat="42.83805" lon="0.14268">
        <ele>2139</ele>
        <time>2020-07-28T10:05:03.080Z</time>
      </trkpt>
      <trkpt lat="42.83802" lon="0.14272">
        <ele>2137</ele>
        <time>2020-07-28T10:05:04.080Z</time>
      </trkpt>
      <trkpt lat="42.83802" lon="0.14272">
        <ele>2137</ele>
        <time>2020-07-28T10:05:05.080Z</time>
      </trkpt>
      <trkpt lat="42.83802" lon="0.14272">
        <ele>2137</ele>
        <time>2020-07-28T10:05:06.080Z</time>
      </trkpt>
      <trkpt lat="42.83797" lon="0.14277">
        <ele>2136</ele>
        <time>2020-07-28T10:05:07.080Z</time>
      </trkpt>
      <trkpt lat="42.83797" lon="0.14277">
        <ele>2136</ele>
        <time>2020-07-28T10:05:08.080Z</time>
      </trkpt>
      <trkpt lat="42.83797" lon="0.14277">
        <ele>2136</ele>
        <time>2020-07-28T10:05:09.080Z</time>
      </trkpt>
      <trkpt lat="42.83792" lon="0.14282">
        <ele>2136</ele>
        <time>2020-07-28T10:05:10.080Z</time>
      </trkpt>
      <trkpt lat="42.83792" lon="0.14282">
        <ele>2136</ele>
        <time>2020-07-28T10:05:11.080Z</time>
      </trkpt>
      <trkpt lat="42.83792" lon="0.14282">
        <ele>2136</ele>
        <time>2020-07-28T10:05:12.080Z</time>
      </trkpt>
      <trkpt lat="42.83786" lon="0.14286">
        <ele>2135</ele>
        <time>2020-07-28T10:05:13.080Z</time>
      </trkpt>
      <trkpt lat="42.83786" lon="0.14286">
        <ele>2135</ele>
        <time>2020-07-28T10:05:14.080Z</time>
      </trkpt>
      <trkpt lat="42.83786" lon="0.14286">
        <ele>2135</ele>
        <time>2020-07-28T10:05:15.080Z</time>
      </trkpt>
      <trkpt lat="42.83783" lon="0.1429">
        <ele>2133</ele>
        <time>2020-07-28T10:05:16.080Z</time>
      </trkpt>
      <trkpt lat="42.83783" lon="0.1429">
        <ele>2133</ele>
        <time>2020-07-28T10:05:17.080Z</time>
      </trkpt>
      <trkpt lat="42.83783" lon="0.1429">
        <ele>2133</ele>
        <time>2020-07-28T10:05:18.080Z</time>
      </trkpt>
      <trkpt lat="42.8378" lon="0.14297">
        <ele>2131</ele>
        <time>2020-07-28T10:05:19.080Z</time>
      </trkpt>
      <trkpt lat="42.8378" lon="0.14297">
        <ele>2131</ele>
        <time>2020-07-28T10:05:20.080Z</time>
      </trkpt>
      <trkpt lat="42.8378" lon="0.14297">
        <ele>2131</ele>
        <time>2020-07-28T10:05:21.080Z</time>
      </trkpt>
      <trkpt lat="42.83777" lon="0.14304">
        <ele>2128</ele>
        <time>2020-07-28T10:05:22.080Z</time>
      </trkpt>
      <trkpt lat="42.83776" lon="0.14306">
        <ele>2128</ele>
        <time>2020-07-28T10:05:23.080Z</time>
      </trkpt>
      <trkpt lat="42.83776" lon="0.14306">
        <ele>2128</ele>
        <time>2020-07-28T10:05:24.080Z</time>
      </trkpt>
      <trkpt lat="42.83776" lon="0.1431">
        <ele>2127</ele>
        <time>2020-07-28T10:05:25.080Z</time>
      </trkpt>
      <trkpt lat="42.83776" lon="0.1431">
        <ele>2127</ele>
        <time>2020-07-28T10:05:26.080Z</time>
      </trkpt>
      <trkpt lat="42.83776" lon="0.1431">
        <ele>2127</ele>
        <time>2020-07-28T10:05:27.080Z</time>
      </trkpt>
      <trkpt lat="42.83775" lon="0.1432">
        <ele>2127</ele>
        <time>2020-07-28T10:05:28.080Z</time>
      </trkpt>
      <trkpt lat="42.83775" lon="0.1432">
        <ele>2127</ele>
        <time>2020-07-28T10:05:29.080Z</time>
      </trkpt>
      <trkpt lat="42.83775" lon="0.1432">
        <ele>2127</ele>
        <time>2020-07-28T10:05:30.080Z</time>
      </trkpt>
      <trkpt lat="42.83775" lon="0.14331">
        <ele>2127</ele>
        <time>2020-07-28T10:05:31.080Z</time>
      </trkpt>
      <trkpt lat="42.83775" lon="0.14331">
        <ele>2127</ele>
        <time>2020-07-28T10:05:32.080Z</time>
      </trkpt>
      <trkpt lat="42.83775" lon="0.14331">
        <ele>2127</ele>
        <time>2020-07-28T10:05:33.080Z</time>
      </trkpt>
      <trkpt lat="42.83767" lon="0.14337">
        <ele>2124</ele>
        <time>2020-07-28T10:05:34.080Z</time>
      </trkpt>
      <trkpt lat="42.83767" lon="0.14337">
        <ele>2124</ele>
        <time>2020-07-28T10:05:35.080Z</time>
      </trkpt>
      <trkpt lat="42.83767" lon="0.14337">
        <ele>2124</ele>
        <time>2020-07-28T10:05:36.080Z</time>
      </trkpt>
      <trkpt lat="42.83763" lon="0.14343">
        <ele>2125</ele>
        <time>2020-07-28T10:05:37.080Z</time>
      </trkpt>
      <trkpt lat="42.83763" lon="0.14343">
        <ele>2125</ele>
        <time>2020-07-28T10:05:38.080Z</time>
      </trkpt>
      <trkpt lat="42.83763" lon="0.14343">
        <ele>2125</ele>
        <time>2020-07-28T10:05:39.080Z</time>
      </trkpt>
      <trkpt lat="42.83759" lon="0.1435">
        <ele>2124</ele>
        <time>2020-07-28T10:05:40.080Z</time>
      </trkpt>
      <trkpt lat="42.83758" lon="0.14354">
        <ele>2122</ele>
        <time>2020-07-28T10:05:41.080Z</time>
      </trkpt>
      <trkpt lat="42.83758" lon="0.14358">
        <ele>2122</ele>
        <time>2020-07-28T10:05:42.080Z</time>
      </trkpt>
      <trkpt lat="42.83757" lon="0.14363">
        <ele>2122</ele>
        <time>2020-07-28T10:05:43.080Z</time>
      </trkpt>
      <trkpt lat="42.83757" lon="0.14363">
        <ele>2122</ele>
        <time>2020-07-28T10:05:44.080Z</time>
      </trkpt>
      <trkpt lat="42.83756" lon="0.14369">
        <ele>2122</ele>
        <time>2020-07-28T10:05:45.080Z</time>
      </trkpt>
      <trkpt lat="42.83756" lon="0.14371">
        <ele>2122</ele>
        <time>2020-07-28T10:05:46.080Z</time>
      </trkpt>
      <trkpt lat="42.83755" lon="0.14374">
        <ele>2121</ele>
        <time>2020-07-28T10:05:47.080Z</time>
      </trkpt>
      <trkpt lat="42.83755" lon="0.14376">
        <ele>2121</ele>
        <time>2020-07-28T10:05:48.080Z</time>
      </trkpt>
      <trkpt lat="42.83755" lon="0.14378">
        <ele>2122</ele>
        <time>2020-07-28T10:05:49.080Z</time>
      </trkpt>
      <trkpt lat="42.83755" lon="0.14378">
        <ele>2122</ele>
        <time>2020-07-28T10:05:50.080Z</time>
      </trkpt>
      <trkpt lat="42.83755" lon="0.14381">
        <ele>2120</ele>
        <time>2020-07-28T10:05:51.080Z</time>
      </trkpt>
      <trkpt lat="42.83755" lon="0.14383">
        <ele>2120</ele>
        <time>2020-07-28T10:05:52.080Z</time>
      </trkpt>
      <trkpt lat="42.83754" lon="0.14385">
        <ele>2119</ele>
        <time>2020-07-28T10:05:53.080Z</time>
      </trkpt>
      <trkpt lat="42.83754" lon="0.14385">
        <ele>2119</ele>
        <time>2020-07-28T10:05:54.080Z</time>
      </trkpt>
      <trkpt lat="42.83752" lon="0.14388">
        <ele>2117</ele>
        <time>2020-07-28T10:05:55.080Z</time>
      </trkpt>
      <trkpt lat="42.83751" lon="0.1439">
        <ele>2117</ele>
        <time>2020-07-28T10:05:56.080Z</time>
      </trkpt>
      <trkpt lat="42.8375" lon="0.14392">
        <ele>2115</ele>
        <time>2020-07-28T10:05:57.080Z</time>
      </trkpt>
      <trkpt lat="42.83749" lon="0.14394">
        <ele>2115</ele>
        <time>2020-07-28T10:05:58.080Z</time>
      </trkpt>
      <trkpt lat="42.83748" lon="0.14396">
        <ele>2113</ele>
        <time>2020-07-28T10:05:59.080Z</time>
      </trkpt>
      <trkpt lat="42.83746" lon="0.14398">
        <ele>2111</ele>
        <time>2020-07-28T10:06:00.080Z</time>
      </trkpt>
      <trkpt lat="42.83744" lon="0.144">
        <ele>2111</ele>
        <time>2020-07-28T10:06:01.080Z</time>
      </trkpt>
      <trkpt lat="42.83743" lon="0.14402">
        <ele>2111</ele>
        <time>2020-07-28T10:06:02.080Z</time>
      </trkpt>
      <trkpt lat="42.83741" lon="0.14405">
        <ele>2110</ele>
        <time>2020-07-28T10:06:03.080Z</time>
      </trkpt>
      <trkpt lat="42.8374" lon="0.14407">
        <ele>2111</ele>
        <time>2020-07-28T10:06:04.080Z</time>
      </trkpt>
      <trkpt lat="42.83739" lon="0.14409">
        <ele>2111</ele>
        <time>2020-07-28T10:06:05.080Z</time>
      </trkpt>
      <trkpt lat="42.83738" lon="0.14412">
        <ele>2112</ele>
        <time>2020-07-28T10:06:06.080Z</time>
      </trkpt>
      <trkpt lat="42.83737" lon="0.14414">
        <ele>2111</ele>
        <time>2020-07-28T10:06:07.080Z</time>
      </trkpt>
      <trkpt lat="42.83736" lon="0.14417">
        <ele>2111</ele>
        <time>2020-07-28T10:06:08.080Z</time>
      </trkpt>
      <trkpt lat="42.83736" lon="0.14419">
        <ele>2111</ele>
        <time>2020-07-28T10:06:09.080Z</time>
      </trkpt>
      <trkpt lat="42.83734" lon="0.1442">
        <ele>2111</ele>
        <time>2020-07-28T10:06:10.080Z</time>
      </trkpt>
      <trkpt lat="42.83733" lon="0.14422">
        <ele>2111</ele>
        <time>2020-07-28T10:06:11.080Z</time>
      </trkpt>
      <trkpt lat="42.83733" lon="0.14422">
        <ele>2111</ele>
        <time>2020-07-28T10:06:12.080Z</time>
      </trkpt>
      <trkpt lat="42.83732" lon="0.14426">
        <ele>2112</ele>
        <time>2020-07-28T10:06:13.080Z</time>
      </trkpt>
      <trkpt lat="42.83732" lon="0.14429">
        <ele>2113</ele>
        <time>2020-07-28T10:06:14.080Z</time>
      </trkpt>
      <trkpt lat="42.83732" lon="0.14432">
        <ele>2112</ele>
        <time>2020-07-28T10:06:15.080Z</time>
      </trkpt>
      <trkpt lat="42.83732" lon="0.14435">
        <ele>2113</ele>
        <time>2020-07-28T10:06:16.080Z</time>
      </trkpt>
      <trkpt lat="42.83732" lon="0.14438">
        <ele>2113</ele>
        <time>2020-07-28T10:06:17.080Z</time>
      </trkpt>
      <trkpt lat="42.83733" lon="0.1444">
        <ele>2113</ele>
        <time>2020-07-28T10:06:18.080Z</time>
      </trkpt>
      <trkpt lat="42.83733" lon="0.14443">
        <ele>2113</ele>
        <time>2020-07-28T10:06:19.080Z</time>
      </trkpt>
      <trkpt lat="42.83732" lon="0.14446">
        <ele>2113</ele>
        <time>2020-07-28T10:06:20.080Z</time>
      </trkpt>
      <trkpt lat="42.83732" lon="0.14448">
        <ele>2112</ele>
        <time>2020-07-28T10:06:21.080Z</time>
      </trkpt>
      <trkpt lat="42.83731" lon="0.1445">
        <ele>2110</ele>
        <time>2020-07-28T10:06:22.080Z</time>
      </trkpt>
      <trkpt lat="42.83731" lon="0.1445">
        <ele>2110</ele>
        <time>2020-07-28T10:06:23.080Z</time>
      </trkpt>
      <trkpt lat="42.83728" lon="0.14453">
        <ele>2109</ele>
        <time>2020-07-28T10:06:24.080Z</time>
      </trkpt>
      <trkpt lat="42.83727" lon="0.14454">
        <ele>2108</ele>
        <time>2020-07-28T10:06:25.080Z</time>
      </trkpt>
      <trkpt lat="42.83726" lon="0.14456">
        <ele>2107</ele>
        <time>2020-07-28T10:06:26.080Z</time>
      </trkpt>
      <trkpt lat="42.83725" lon="0.14458">
        <ele>2107</ele>
        <time>2020-07-28T10:06:27.080Z</time>
      </trkpt>
      <trkpt lat="42.83724" lon="0.14461">
        <ele>2107</ele>
        <time>2020-07-28T10:06:28.080Z</time>
      </trkpt>
      <trkpt lat="42.83722" lon="0.14463">
        <ele>2106</ele>
        <time>2020-07-28T10:06:29.080Z</time>
      </trkpt>
      <trkpt lat="42.83722" lon="0.14463">
        <ele>2106</ele>
        <time>2020-07-28T10:06:30.080Z</time>
      </trkpt>
      <trkpt lat="42.8372" lon="0.14467">
        <ele>2105</ele>
        <time>2020-07-28T10:06:31.080Z</time>
      </trkpt>
      <trkpt lat="42.83718" lon="0.14469">
        <ele>2104</ele>
        <time>2020-07-28T10:06:32.080Z</time>
      </trkpt>
      <trkpt lat="42.83717" lon="0.14471">
        <ele>2102</ele>
        <time>2020-07-28T10:06:33.080Z</time>
      </trkpt>
      <trkpt lat="42.83716" lon="0.14473">
        <ele>2102</ele>
        <time>2020-07-28T10:06:34.080Z</time>
      </trkpt>
      <trkpt lat="42.83715" lon="0.14474">
        <ele>2101</ele>
        <time>2020-07-28T10:06:35.080Z</time>
      </trkpt>
      <trkpt lat="42.83714" lon="0.14475">
        <ele>2101</ele>
        <time>2020-07-28T10:06:36.080Z</time>
      </trkpt>
      <trkpt lat="42.83713" lon="0.14476">
        <ele>2101</ele>
        <time>2020-07-28T10:06:37.080Z</time>
      </trkpt>
      <trkpt lat="42.83713" lon="0.14477">
        <ele>2101</ele>
        <time>2020-07-28T10:06:38.080Z</time>
      </trkpt>
      <trkpt lat="42.83712" lon="0.14479">
        <ele>2100</ele>
        <time>2020-07-28T10:06:39.080Z</time>
      </trkpt>
      <trkpt lat="42.83711" lon="0.1448">
        <ele>2100</ele>
        <time>2020-07-28T10:06:40.080Z</time>
      </trkpt>
      <trkpt lat="42.83711" lon="0.1448">
        <ele>2100</ele>
        <time>2020-07-28T10:06:41.080Z</time>
      </trkpt>
      <trkpt lat="42.83707" lon="0.14481">
        <ele>2101</ele>
        <time>2020-07-28T10:06:42.080Z</time>
      </trkpt>
      <trkpt lat="42.83704" lon="0.14482">
        <ele>2101</ele>
        <time>2020-07-28T10:06:43.080Z</time>
      </trkpt>
      <trkpt lat="42.83702" lon="0.14483">
        <ele>2100</ele>
        <time>2020-07-28T10:06:44.080Z</time>
      </trkpt>
      <trkpt lat="42.837" lon="0.14485">
        <ele>2100</ele>
        <time>2020-07-28T10:06:45.080Z</time>
      </trkpt>
      <trkpt lat="42.83699" lon="0.14486">
        <ele>2099</ele>
        <time>2020-07-28T10:06:46.080Z</time>
      </trkpt>
      <trkpt lat="42.83697" lon="0.14488">
        <ele>2098</ele>
        <time>2020-07-28T10:06:47.080Z</time>
      </trkpt>
      <trkpt lat="42.83696" lon="0.1449">
        <ele>2097</ele>
        <time>2020-07-28T10:06:48.080Z</time>
      </trkpt>
      <trkpt lat="42.83694" lon="0.14492">
        <ele>2097</ele>
        <time>2020-07-28T10:06:49.080Z</time>
      </trkpt>
      <trkpt lat="42.83693" lon="0.14494">
        <ele>2097</ele>
        <time>2020-07-28T10:06:50.080Z</time>
      </trkpt>
      <trkpt lat="42.83692" lon="0.14496">
        <ele>2098</ele>
        <time>2020-07-28T10:06:51.080Z</time>
      </trkpt>
      <trkpt lat="42.8369" lon="0.14499">
        <ele>2095</ele>
        <time>2020-07-28T10:06:52.080Z</time>
      </trkpt>
      <trkpt lat="42.83689" lon="0.14501">
        <ele>2094</ele>
        <time>2020-07-28T10:06:53.080Z</time>
      </trkpt>
      <trkpt lat="42.83686" lon="0.14503">
        <ele>2094</ele>
        <time>2020-07-28T10:06:54.080Z</time>
      </trkpt>
      <trkpt lat="42.83685" lon="0.14506">
        <ele>2094</ele>
        <time>2020-07-28T10:06:55.080Z</time>
      </trkpt>
      <trkpt lat="42.83683" lon="0.14508">
        <ele>2094</ele>
        <time>2020-07-28T10:06:56.080Z</time>
      </trkpt>
      <trkpt lat="42.83682" lon="0.14511">
        <ele>2093</ele>
        <time>2020-07-28T10:06:57.080Z</time>
      </trkpt>
      <trkpt lat="42.8368" lon="0.14515">
        <ele>2093</ele>
        <time>2020-07-28T10:06:58.080Z</time>
      </trkpt>
      <trkpt lat="42.83679" lon="0.14518">
        <ele>2093</ele>
        <time>2020-07-28T10:06:59.080Z</time>
      </trkpt>
      <trkpt lat="42.83678" lon="0.14521">
        <ele>2092</ele>
        <time>2020-07-28T10:07:00.080Z</time>
      </trkpt>
      <trkpt lat="42.83677" lon="0.14525">
        <ele>2091</ele>
        <time>2020-07-28T10:07:01.080Z</time>
      </trkpt>
      <trkpt lat="42.83676" lon="0.14527">
        <ele>2090</ele>
        <time>2020-07-28T10:07:02.080Z</time>
      </trkpt>
      <trkpt lat="42.83675" lon="0.1453">
        <ele>2089</ele>
        <time>2020-07-28T10:07:03.080Z</time>
      </trkpt>
      <trkpt lat="42.83673" lon="0.14531">
        <ele>2090</ele>
        <time>2020-07-28T10:07:04.080Z</time>
      </trkpt>
      <trkpt lat="42.8367" lon="0.14531">
        <ele>2089</ele>
        <time>2020-07-28T10:07:05.080Z</time>
      </trkpt>
      <trkpt lat="42.83668" lon="0.14532">
        <ele>2089</ele>
        <time>2020-07-28T10:07:06.080Z</time>
      </trkpt>
      <trkpt lat="42.83666" lon="0.14532">
        <ele>2090</ele>
        <time>2020-07-28T10:07:07.080Z</time>
      </trkpt>
      <trkpt lat="42.83664" lon="0.14533">
        <ele>2090</ele>
        <time>2020-07-28T10:07:08.080Z</time>
      </trkpt>
      <trkpt lat="42.83663" lon="0.14533">
        <ele>2090</ele>
        <time>2020-07-28T10:07:09.080Z</time>
      </trkpt>
      <trkpt lat="42.83661" lon="0.14534">
        <ele>2089</ele>
        <time>2020-07-28T10:07:10.080Z</time>
      </trkpt>
      <trkpt lat="42.8366" lon="0.14535">
        <ele>2089</ele>
        <time>2020-07-28T10:07:11.080Z</time>
      </trkpt>
      <trkpt lat="42.83659" lon="0.14536">
        <ele>2089</ele>
        <time>2020-07-28T10:07:12.080Z</time>
      </trkpt>
      <trkpt lat="42.83657" lon="0.14536">
        <ele>2089</ele>
        <time>2020-07-28T10:07:13.080Z</time>
      </trkpt>
      <trkpt lat="42.83656" lon="0.14536">
        <ele>2088</ele>
        <time>2020-07-28T10:07:14.080Z</time>
      </trkpt>
      <trkpt lat="42.83656" lon="0.14536">
        <ele>2088</ele>
        <time>2020-07-28T10:07:15.080Z</time>
      </trkpt>
      <trkpt lat="42.83654" lon="0.14536">
        <ele>2088</ele>
        <time>2020-07-28T10:07:16.080Z</time>
      </trkpt>
      <trkpt lat="42.83653" lon="0.14537">
        <ele>2087</ele>
        <time>2020-07-28T10:07:17.080Z</time>
      </trkpt>
      <trkpt lat="42.83652" lon="0.14537">
        <ele>2087</ele>
        <time>2020-07-28T10:07:18.080Z</time>
      </trkpt>
      <trkpt lat="42.8365" lon="0.14537">
        <ele>2088</ele>
        <time>2020-07-28T10:07:19.080Z</time>
      </trkpt>
      <trkpt lat="42.83649" lon="0.14537">
        <ele>2087</ele>
        <time>2020-07-28T10:07:20.080Z</time>
      </trkpt>
      <trkpt lat="42.83649" lon="0.14537">
        <ele>2087</ele>
        <time>2020-07-28T10:07:21.080Z</time>
      </trkpt>
      <trkpt lat="42.83646" lon="0.14537">
        <ele>2086</ele>
        <time>2020-07-28T10:07:22.080Z</time>
      </trkpt>
      <trkpt lat="42.83645" lon="0.14538">
        <ele>2086</ele>
        <time>2020-07-28T10:07:23.080Z</time>
      </trkpt>
      <trkpt lat="42.83643" lon="0.1454">
        <ele>2086</ele>
        <time>2020-07-28T10:07:24.080Z</time>
      </trkpt>
      <trkpt lat="42.83642" lon="0.1454">
        <ele>2085</ele>
        <time>2020-07-28T10:07:25.080Z</time>
      </trkpt>
      <trkpt lat="42.8364" lon="0.1454">
        <ele>2085</ele>
        <time>2020-07-28T10:07:26.080Z</time>
      </trkpt>
      <trkpt lat="42.83639" lon="0.14541">
        <ele>2085</ele>
        <time>2020-07-28T10:07:27.080Z</time>
      </trkpt>
      <trkpt lat="42.83637" lon="0.14543">
        <ele>2084</ele>
        <time>2020-07-28T10:07:28.080Z</time>
      </trkpt>
      <trkpt lat="42.83637" lon="0.14545">
        <ele>2083</ele>
        <time>2020-07-28T10:07:29.080Z</time>
      </trkpt>
      <trkpt lat="42.83636" lon="0.14549">
        <ele>2083</ele>
        <time>2020-07-28T10:07:30.080Z</time>
      </trkpt>
      <trkpt lat="42.83636" lon="0.14552">
        <ele>2084</ele>
        <time>2020-07-28T10:07:31.080Z</time>
      </trkpt>
      <trkpt lat="42.83636" lon="0.14556">
        <ele>2084</ele>
        <time>2020-07-28T10:07:32.080Z</time>
      </trkpt>
      <trkpt lat="42.83636" lon="0.14556">
        <ele>2084</ele>
        <time>2020-07-28T10:07:33.080Z</time>
      </trkpt>
      <trkpt lat="42.83635" lon="0.14564">
        <ele>2084</ele>
        <time>2020-07-28T10:07:34.080Z</time>
      </trkpt>
      <trkpt lat="42.83634" lon="0.14568">
        <ele>2084</ele>
        <time>2020-07-28T10:07:35.080Z</time>
      </trkpt>
      <trkpt lat="42.83634" lon="0.14571">
        <ele>2083</ele>
        <time>2020-07-28T10:07:36.080Z</time>
      </trkpt>
      <trkpt lat="42.83633" lon="0.14574">
        <ele>2084</ele>
        <time>2020-07-28T10:07:37.080Z</time>
      </trkpt>
      <trkpt lat="42.83633" lon="0.14574">
        <ele>2084</ele>
        <time>2020-07-28T10:07:38.080Z</time>
      </trkpt>
      <trkpt lat="42.83633" lon="0.14574">
        <ele>2084</ele>
        <time>2020-07-28T10:07:39.080Z</time>
      </trkpt>
      <trkpt lat="42.83631" lon="0.14578">
        <ele>2085</ele>
        <time>2020-07-28T10:07:40.080Z</time>
      </trkpt>
      <trkpt lat="42.83631" lon="0.1458">
        <ele>2086</ele>
        <time>2020-07-28T10:07:41.080Z</time>
      </trkpt>
      <trkpt lat="42.8363" lon="0.14581">
        <ele>2086</ele>
        <time>2020-07-28T10:07:42.080Z</time>
      </trkpt>
      <trkpt lat="42.8363" lon="0.14583">
        <ele>2086</ele>
        <time>2020-07-28T10:07:43.080Z</time>
      </trkpt>
      <trkpt lat="42.83629" lon="0.14586">
        <ele>2086</ele>
        <time>2020-07-28T10:07:44.080Z</time>
      </trkpt>
      <trkpt lat="42.83629" lon="0.14588">
        <ele>2086</ele>
        <time>2020-07-28T10:07:45.080Z</time>
      </trkpt>
      <trkpt lat="42.83628" lon="0.14589">
        <ele>2085</ele>
        <time>2020-07-28T10:07:46.080Z</time>
      </trkpt>
      <trkpt lat="42.83628" lon="0.1459">
        <ele>2085</ele>
        <time>2020-07-28T10:07:47.080Z</time>
      </trkpt>
      <trkpt lat="42.83627" lon="0.14591">
        <ele>2086</ele>
        <time>2020-07-28T10:07:48.080Z</time>
      </trkpt>
      <trkpt lat="42.83625" lon="0.14592">
        <ele>2086</ele>
        <time>2020-07-28T10:07:49.080Z</time>
      </trkpt>
      <trkpt lat="42.83625" lon="0.14592">
        <ele>2086</ele>
        <time>2020-07-28T10:07:50.080Z</time>
      </trkpt>
      <trkpt lat="42.83621" lon="0.14594">
        <ele>2087</ele>
        <time>2020-07-28T10:07:51.080Z</time>
      </trkpt>
      <trkpt lat="42.8362" lon="0.14596">
        <ele>2087</ele>
        <time>2020-07-28T10:07:52.080Z</time>
      </trkpt>
      <trkpt lat="42.83619" lon="0.146">
        <ele>2087</ele>
        <time>2020-07-28T10:07:53.080Z</time>
      </trkpt>
      <trkpt lat="42.83618" lon="0.14603">
        <ele>2088</ele>
        <time>2020-07-28T10:07:54.080Z</time>
      </trkpt>
      <trkpt lat="42.83617" lon="0.14607">
        <ele>2088</ele>
        <time>2020-07-28T10:07:55.080Z</time>
      </trkpt>
      <trkpt lat="42.83617" lon="0.14607">
        <ele>2088</ele>
        <time>2020-07-28T10:07:56.080Z</time>
      </trkpt>
      <trkpt lat="42.83617" lon="0.14607">
        <ele>2088</ele>
        <time>2020-07-28T10:07:57.080Z</time>
      </trkpt>
      <trkpt lat="42.83612" lon="0.14615">
        <ele>2089</ele>
        <time>2020-07-28T10:07:58.080Z</time>
      </trkpt>
      <trkpt lat="42.83612" lon="0.14615">
        <ele>2089</ele>
        <time>2020-07-28T10:07:59.080Z</time>
      </trkpt>
      <trkpt lat="42.83612" lon="0.14615">
        <ele>2089</ele>
        <time>2020-07-28T10:08:00.080Z</time>
      </trkpt>
      <trkpt lat="42.83608" lon="0.14622">
        <ele>2090</ele>
        <time>2020-07-28T10:08:01.080Z</time>
      </trkpt>
      <trkpt lat="42.83608" lon="0.14622">
        <ele>2090</ele>
        <time>2020-07-28T10:08:02.080Z</time>
      </trkpt>
      <trkpt lat="42.83606" lon="0.14628">
        <ele>2090</ele>
        <time>2020-07-28T10:08:03.080Z</time>
      </trkpt>
      <trkpt lat="42.83605" lon="0.14631">
        <ele>2089</ele>
        <time>2020-07-28T10:08:04.080Z</time>
      </trkpt>
      <trkpt lat="42.83603" lon="0.14635">
        <ele>2088</ele>
        <time>2020-07-28T10:08:05.080Z</time>
      </trkpt>
      <trkpt lat="42.83601" lon="0.14637">
        <ele>2088</ele>
        <time>2020-07-28T10:08:06.080Z</time>
      </trkpt>
      <trkpt lat="42.83599" lon="0.14639">
        <ele>2088</ele>
        <time>2020-07-28T10:08:07.080Z</time>
      </trkpt>
      <trkpt lat="42.83598" lon="0.1464">
        <ele>2088</ele>
        <time>2020-07-28T10:08:08.080Z</time>
      </trkpt>
      <trkpt lat="42.83597" lon="0.14641">
        <ele>2088</ele>
        <time>2020-07-28T10:08:09.080Z</time>
      </trkpt>
      <trkpt lat="42.83595" lon="0.14643">
        <ele>2087</ele>
        <time>2020-07-28T10:08:10.080Z</time>
      </trkpt>
      <trkpt lat="42.83594" lon="0.14644">
        <ele>2087</ele>
        <time>2020-07-28T10:08:11.080Z</time>
      </trkpt>
      <trkpt lat="42.83593" lon="0.14646">
        <ele>2087</ele>
        <time>2020-07-28T10:08:12.080Z</time>
      </trkpt>
      <trkpt lat="42.83592" lon="0.14647">
        <ele>2087</ele>
        <time>2020-07-28T10:08:13.080Z</time>
      </trkpt>
      <trkpt lat="42.83591" lon="0.14648">
        <ele>2087</ele>
        <time>2020-07-28T10:08:14.080Z</time>
      </trkpt>
      <trkpt lat="42.8359" lon="0.14649">
        <ele>2086</ele>
        <time>2020-07-28T10:08:15.080Z</time>
      </trkpt>
      <trkpt lat="42.8359" lon="0.14651">
        <ele>2087</ele>
        <time>2020-07-28T10:08:16.080Z</time>
      </trkpt>
      <trkpt lat="42.83589" lon="0.14652">
        <ele>2087</ele>
        <time>2020-07-28T10:08:17.080Z</time>
      </trkpt>
      <trkpt lat="42.83588" lon="0.14654">
        <ele>2087</ele>
        <time>2020-07-28T10:08:18.080Z</time>
      </trkpt>
      <trkpt lat="42.83587" lon="0.14655">
        <ele>2086</ele>
        <time>2020-07-28T10:08:19.080Z</time>
      </trkpt>
      <trkpt lat="42.83586" lon="0.14656">
        <ele>2086</ele>
        <time>2020-07-28T10:08:20.080Z</time>
      </trkpt>
      <trkpt lat="42.83586" lon="0.14656">
        <ele>2086</ele>
        <time>2020-07-28T10:08:21.080Z</time>
      </trkpt>
      <trkpt lat="42.83583" lon="0.1466">
        <ele>2086</ele>
        <time>2020-07-28T10:08:22.080Z</time>
      </trkpt>
      <trkpt lat="42.83581" lon="0.14662">
        <ele>2086</ele>
        <time>2020-07-28T10:08:23.080Z</time>
      </trkpt>
      <trkpt lat="42.8358" lon="0.14664">
        <ele>2084</ele>
        <time>2020-07-28T10:08:24.080Z</time>
      </trkpt>
      <trkpt lat="42.83578" lon="0.14666">
        <ele>2085</ele>
        <time>2020-07-28T10:08:25.080Z</time>
      </trkpt>
      <trkpt lat="42.83578" lon="0.14666">
        <ele>2085</ele>
        <time>2020-07-28T10:08:26.080Z</time>
      </trkpt>
      <trkpt lat="42.83576" lon="0.1467">
        <ele>2085</ele>
        <time>2020-07-28T10:08:27.080Z</time>
      </trkpt>
      <trkpt lat="42.83574" lon="0.14673">
        <ele>2085</ele>
        <time>2020-07-28T10:08:28.080Z</time>
      </trkpt>
      <trkpt lat="42.83572" lon="0.14674">
        <ele>2084</ele>
        <time>2020-07-28T10:08:29.080Z</time>
      </trkpt>
      <trkpt lat="42.83572" lon="0.14674">
        <ele>2084</ele>
        <time>2020-07-28T10:08:30.080Z</time>
      </trkpt>
      <trkpt lat="42.83571" lon="0.14677">
        <ele>2083</ele>
        <time>2020-07-28T10:08:31.080Z</time>
      </trkpt>
      <trkpt lat="42.83571" lon="0.14677">
        <ele>2083</ele>
        <time>2020-07-28T10:08:32.080Z</time>
      </trkpt>
      <trkpt lat="42.83571" lon="0.14677">
        <ele>2083</ele>
        <time>2020-07-28T10:08:33.080Z</time>
      </trkpt>
      <trkpt lat="42.83569" lon="0.14683">
        <ele>2084</ele>
        <time>2020-07-28T10:08:34.080Z</time>
      </trkpt>
      <trkpt lat="42.83569" lon="0.14683">
        <ele>2084</ele>
        <time>2020-07-28T10:08:35.080Z</time>
      </trkpt>
      <trkpt lat="42.83568" lon="0.14686">
        <ele>2083</ele>
        <time>2020-07-28T10:08:36.080Z</time>
      </trkpt>
      <trkpt lat="42.83567" lon="0.14687">
        <ele>2083</ele>
        <time>2020-07-28T10:08:37.080Z</time>
      </trkpt>
      <trkpt lat="42.83566" lon="0.14688">
        <ele>2082</ele>
        <time>2020-07-28T10:08:38.080Z</time>
      </trkpt>
      <trkpt lat="42.83565" lon="0.1469">
        <ele>2082</ele>
        <time>2020-07-28T10:08:39.080Z</time>
      </trkpt>
      <trkpt lat="42.83564" lon="0.14691">
        <ele>2083</ele>
        <time>2020-07-28T10:08:40.080Z</time>
      </trkpt>
      <trkpt lat="42.83562" lon="0.14693">
        <ele>2083</ele>
        <time>2020-07-28T10:08:41.080Z</time>
      </trkpt>
      <trkpt lat="42.83561" lon="0.14695">
        <ele>2084</ele>
        <time>2020-07-28T10:08:42.080Z</time>
      </trkpt>
      <trkpt lat="42.83559" lon="0.14697">
        <ele>2084</ele>
        <time>2020-07-28T10:08:43.080Z</time>
      </trkpt>
      <trkpt lat="42.83558" lon="0.14699">
        <ele>2085</ele>
        <time>2020-07-28T10:08:44.080Z</time>
      </trkpt>
      <trkpt lat="42.83556" lon="0.147">
        <ele>2084</ele>
        <time>2020-07-28T10:08:45.080Z</time>
      </trkpt>
      <trkpt lat="42.83555" lon="0.14702">
        <ele>2084</ele>
        <time>2020-07-28T10:08:46.080Z</time>
      </trkpt>
      <trkpt lat="42.83553" lon="0.14703">
        <ele>2084</ele>
        <time>2020-07-28T10:08:47.080Z</time>
      </trkpt>
      <trkpt lat="42.83552" lon="0.14705">
        <ele>2085</ele>
        <time>2020-07-28T10:08:48.080Z</time>
      </trkpt>
      <trkpt lat="42.8355" lon="0.14708">
        <ele>2086</ele>
        <time>2020-07-28T10:08:49.080Z</time>
      </trkpt>
      <trkpt lat="42.8355" lon="0.14708">
        <ele>2086</ele>
        <time>2020-07-28T10:08:50.080Z</time>
      </trkpt>
      <trkpt lat="42.83547" lon="0.14712">
        <ele>2087</ele>
        <time>2020-07-28T10:08:51.080Z</time>
      </trkpt>
      <trkpt lat="42.83546" lon="0.14714">
        <ele>2086</ele>
        <time>2020-07-28T10:08:52.080Z</time>
      </trkpt>
      <trkpt lat="42.83544" lon="0.14716">
        <ele>2086</ele>
        <time>2020-07-28T10:08:53.080Z</time>
      </trkpt>
      <trkpt lat="42.83543" lon="0.14718">
        <ele>2086</ele>
        <time>2020-07-28T10:08:54.080Z</time>
      </trkpt>
      <trkpt lat="42.83542" lon="0.14719">
        <ele>2086</ele>
        <time>2020-07-28T10:08:55.080Z</time>
      </trkpt>
      <trkpt lat="42.83542" lon="0.14719">
        <ele>2086</ele>
        <time>2020-07-28T10:08:56.080Z</time>
      </trkpt>
      <trkpt lat="42.83542" lon="0.14719">
        <ele>2086</ele>
        <time>2020-07-28T10:08:57.080Z</time>
      </trkpt>
      <trkpt lat="42.83538" lon="0.14724">
        <ele>2089</ele>
        <time>2020-07-28T10:08:58.080Z</time>
      </trkpt>
      <trkpt lat="42.83538" lon="0.14724">
        <ele>2089</ele>
        <time>2020-07-28T10:08:59.080Z</time>
      </trkpt>
      <trkpt lat="42.83538" lon="0.14726">
        <ele>2090</ele>
        <time>2020-07-28T10:09:00.080Z</time>
      </trkpt>
      <trkpt lat="42.83537" lon="0.14727">
        <ele>2091</ele>
        <time>2020-07-28T10:09:01.080Z</time>
      </trkpt>
      <trkpt lat="42.83537" lon="0.14729">
        <ele>2091</ele>
        <time>2020-07-28T10:09:02.080Z</time>
      </trkpt>
      <trkpt lat="42.83537" lon="0.14729">
        <ele>2091</ele>
        <time>2020-07-28T10:09:03.080Z</time>
      </trkpt>
      <trkpt lat="42.83536" lon="0.14731">
        <ele>2092</ele>
        <time>2020-07-28T10:09:04.080Z</time>
      </trkpt>
      <trkpt lat="42.83536" lon="0.14732">
        <ele>2091</ele>
        <time>2020-07-28T10:09:05.080Z</time>
      </trkpt>
      <trkpt lat="42.83536" lon="0.14732">
        <ele>2091</ele>
        <time>2020-07-28T10:09:06.080Z</time>
      </trkpt>
      <trkpt lat="42.83536" lon="0.14734">
        <ele>2091</ele>
        <time>2020-07-28T10:09:07.080Z</time>
      </trkpt>
      <trkpt lat="42.83535" lon="0.14735">
        <ele>2092</ele>
        <time>2020-07-28T10:09:08.080Z</time>
      </trkpt>
      <trkpt lat="42.83535" lon="0.14736">
        <ele>2093</ele>
        <time>2020-07-28T10:09:09.080Z</time>
      </trkpt>
      <trkpt lat="42.83533" lon="0.14737">
        <ele>2091</ele>
        <time>2020-07-28T10:09:10.080Z</time>
      </trkpt>
      <trkpt lat="42.83532" lon="0.14739">
        <ele>2092</ele>
        <time>2020-07-28T10:09:11.080Z</time>
      </trkpt>
      <trkpt lat="42.8353" lon="0.14741">
        <ele>2091</ele>
        <time>2020-07-28T10:09:12.080Z</time>
      </trkpt>
      <trkpt lat="42.83529" lon="0.14743">
        <ele>2092</ele>
        <time>2020-07-28T10:09:13.080Z</time>
      </trkpt>
      <trkpt lat="42.83528" lon="0.14744">
        <ele>2091</ele>
        <time>2020-07-28T10:09:14.080Z</time>
      </trkpt>
      <trkpt lat="42.83527" lon="0.14746">
        <ele>2091</ele>
        <time>2020-07-28T10:09:15.080Z</time>
      </trkpt>
      <trkpt lat="42.83526" lon="0.14747">
        <ele>2090</ele>
        <time>2020-07-28T10:09:16.080Z</time>
      </trkpt>
      <trkpt lat="42.83525" lon="0.14748">
        <ele>2089</ele>
        <time>2020-07-28T10:09:17.080Z</time>
      </trkpt>
      <trkpt lat="42.83524" lon="0.14749">
        <ele>2089</ele>
        <time>2020-07-28T10:09:18.080Z</time>
      </trkpt>
      <trkpt lat="42.83523" lon="0.1475">
        <ele>2090</ele>
        <time>2020-07-28T10:09:19.080Z</time>
      </trkpt>
      <trkpt lat="42.83522" lon="0.14751">
        <ele>2090</ele>
        <time>2020-07-28T10:09:20.080Z</time>
      </trkpt>
      <trkpt lat="42.83521" lon="0.14752">
        <ele>2090</ele>
        <time>2020-07-28T10:09:21.080Z</time>
      </trkpt>
      <trkpt lat="42.8352" lon="0.14753">
        <ele>2090</ele>
        <time>2020-07-28T10:09:22.080Z</time>
      </trkpt>
      <trkpt lat="42.83519" lon="0.14754">
        <ele>2090</ele>
        <time>2020-07-28T10:09:23.080Z</time>
      </trkpt>
      <trkpt lat="42.83519" lon="0.14754">
        <ele>2090</ele>
        <time>2020-07-28T10:09:24.080Z</time>
      </trkpt>
      <trkpt lat="42.83517" lon="0.14755">
        <ele>2090</ele>
        <time>2020-07-28T10:09:25.080Z</time>
      </trkpt>
      <trkpt lat="42.83516" lon="0.14756">
        <ele>2090</ele>
        <time>2020-07-28T10:09:26.080Z</time>
      </trkpt>
      <trkpt lat="42.83515" lon="0.14756">
        <ele>2090</ele>
        <time>2020-07-28T10:09:27.080Z</time>
      </trkpt>
      <trkpt lat="42.83515" lon="0.14757">
        <ele>2089</ele>
        <time>2020-07-28T10:09:28.080Z</time>
      </trkpt>
      <trkpt lat="42.83514" lon="0.14757">
        <ele>2089</ele>
        <time>2020-07-28T10:09:29.080Z</time>
      </trkpt>
      <trkpt lat="42.83513" lon="0.14758">
        <ele>2090</ele>
        <time>2020-07-28T10:09:30.080Z</time>
      </trkpt>
      <trkpt lat="42.83512" lon="0.14759">
        <ele>2089</ele>
        <time>2020-07-28T10:09:31.080Z</time>
      </trkpt>
      <trkpt lat="42.83511" lon="0.1476">
        <ele>2088</ele>
        <time>2020-07-28T10:09:32.080Z</time>
      </trkpt>
      <trkpt lat="42.8351" lon="0.14761">
        <ele>2088</ele>
        <time>2020-07-28T10:09:33.080Z</time>
      </trkpt>
      <trkpt lat="42.83509" lon="0.14762">
        <ele>2088</ele>
        <time>2020-07-28T10:09:34.080Z</time>
      </trkpt>
      <trkpt lat="42.83507" lon="0.14764">
        <ele>2088</ele>
        <time>2020-07-28T10:09:35.080Z</time>
      </trkpt>
      <trkpt lat="42.83506" lon="0.14765">
        <ele>2088</ele>
        <time>2020-07-28T10:09:36.080Z</time>
      </trkpt>
      <trkpt lat="42.83505" lon="0.14766">
        <ele>2088</ele>
        <time>2020-07-28T10:09:37.080Z</time>
      </trkpt>
      <trkpt lat="42.83504" lon="0.14767">
        <ele>2088</ele>
        <time>2020-07-28T10:09:38.080Z</time>
      </trkpt>
      <trkpt lat="42.83504" lon="0.14769">
        <ele>2088</ele>
        <time>2020-07-28T10:09:39.080Z</time>
      </trkpt>
      <trkpt lat="42.83503" lon="0.1477">
        <ele>2087</ele>
        <time>2020-07-28T10:09:40.080Z</time>
      </trkpt>
      <trkpt lat="42.83502" lon="0.14771">
        <ele>2088</ele>
        <time>2020-07-28T10:09:41.080Z</time>
      </trkpt>
      <trkpt lat="42.835" lon="0.14771">
        <ele>2088</ele>
        <time>2020-07-28T10:09:42.080Z</time>
      </trkpt>
      <trkpt lat="42.83497" lon="0.14771">
        <ele>2088</ele>
        <time>2020-07-28T10:09:43.080Z</time>
      </trkpt>
      <trkpt lat="42.83495" lon="0.14772">
        <ele>2088</ele>
        <time>2020-07-28T10:09:44.080Z</time>
      </trkpt>
      <trkpt lat="42.83494" lon="0.14772">
        <ele>2087</ele>
        <time>2020-07-28T10:09:45.080Z</time>
      </trkpt>
      <trkpt lat="42.83492" lon="0.14773">
        <ele>2088</ele>
        <time>2020-07-28T10:09:46.080Z</time>
      </trkpt>
      <trkpt lat="42.83491" lon="0.14773">
        <ele>2088</ele>
        <time>2020-07-28T10:09:47.080Z</time>
      </trkpt>
      <trkpt lat="42.83489" lon="0.14775">
        <ele>2090</ele>
        <time>2020-07-28T10:09:48.080Z</time>
      </trkpt>
      <trkpt lat="42.83488" lon="0.14777">
        <ele>2090</ele>
        <time>2020-07-28T10:09:49.080Z</time>
      </trkpt>
      <trkpt lat="42.83488" lon="0.14777">
        <ele>2090</ele>
        <time>2020-07-28T10:09:50.080Z</time>
      </trkpt>
      <trkpt lat="42.83485" lon="0.14782">
        <ele>2088</ele>
        <time>2020-07-28T10:09:51.080Z</time>
      </trkpt>
      <trkpt lat="42.83483" lon="0.14785">
        <ele>2086</ele>
        <time>2020-07-28T10:09:52.080Z</time>
      </trkpt>
      <trkpt lat="42.83481" lon="0.14787">
        <ele>2085</ele>
        <time>2020-07-28T10:09:53.080Z</time>
      </trkpt>
      <trkpt lat="42.83481" lon="0.14787">
        <ele>2085</ele>
        <time>2020-07-28T10:09:54.080Z</time>
      </trkpt>
      <trkpt lat="42.83477" lon="0.1479">
        <ele>2086</ele>
        <time>2020-07-28T10:09:55.080Z</time>
      </trkpt>
      <trkpt lat="42.83475" lon="0.14791">
        <ele>2086</ele>
        <time>2020-07-28T10:09:56.080Z</time>
      </trkpt>
      <trkpt lat="42.83474" lon="0.14793">
        <ele>2085</ele>
        <time>2020-07-28T10:09:57.080Z</time>
      </trkpt>
      <trkpt lat="42.83473" lon="0.14795">
        <ele>2085</ele>
        <time>2020-07-28T10:09:58.080Z</time>
      </trkpt>
      <trkpt lat="42.83472" lon="0.14796">
        <ele>2085</ele>
        <time>2020-07-28T10:09:59.080Z</time>
      </trkpt>
      <trkpt lat="42.83471" lon="0.14797">
        <ele>2086</ele>
        <time>2020-07-28T10:10:00.080Z</time>
      </trkpt>
      <trkpt lat="42.8347" lon="0.14799">
        <ele>2086</ele>
        <time>2020-07-28T10:10:01.080Z</time>
      </trkpt>
      <trkpt lat="42.8347" lon="0.14801">
        <ele>2087</ele>
        <time>2020-07-28T10:10:02.080Z</time>
      </trkpt>
      <trkpt lat="42.83469" lon="0.14803">
        <ele>2087</ele>
        <time>2020-07-28T10:10:03.080Z</time>
      </trkpt>
      <trkpt lat="42.83468" lon="0.14805">
        <ele>2086</ele>
        <time>2020-07-28T10:10:04.080Z</time>
      </trkpt>
      <trkpt lat="42.83467" lon="0.14806">
        <ele>2086</ele>
        <time>2020-07-28T10:10:05.080Z</time>
      </trkpt>
      <trkpt lat="42.83466" lon="0.14808">
        <ele>2085</ele>
        <time>2020-07-28T10:10:06.080Z</time>
      </trkpt>
      <trkpt lat="42.83465" lon="0.14809">
        <ele>2085</ele>
        <time>2020-07-28T10:10:07.080Z</time>
      </trkpt>
      <trkpt lat="42.83465" lon="0.1481">
        <ele>2085</ele>
        <time>2020-07-28T10:10:08.080Z</time>
      </trkpt>
      <trkpt lat="42.83464" lon="0.14812">
        <ele>2085</ele>
        <time>2020-07-28T10:10:09.080Z</time>
      </trkpt>
      <trkpt lat="42.83463" lon="0.14814">
        <ele>2085</ele>
        <time>2020-07-28T10:10:10.080Z</time>
      </trkpt>
      <trkpt lat="42.83462" lon="0.14815">
        <ele>2085</ele>
        <time>2020-07-28T10:10:11.080Z</time>
      </trkpt>
      <trkpt lat="42.83461" lon="0.14816">
        <ele>2085</ele>
        <time>2020-07-28T10:10:12.080Z</time>
      </trkpt>
      <trkpt lat="42.8346" lon="0.14816">
        <ele>2085</ele>
        <time>2020-07-28T10:10:13.080Z</time>
      </trkpt>
      <trkpt lat="42.8346" lon="0.14817">
        <ele>2085</ele>
        <time>2020-07-28T10:10:14.080Z</time>
      </trkpt>
      <trkpt lat="42.8346" lon="0.14817">
        <ele>2085</ele>
        <time>2020-07-28T10:10:15.080Z</time>
      </trkpt>
      <trkpt lat="42.83458" lon="0.14818">
        <ele>2084</ele>
        <time>2020-07-28T10:10:16.080Z</time>
      </trkpt>
      <trkpt lat="42.83456" lon="0.14818">
        <ele>2083</ele>
        <time>2020-07-28T10:10:17.080Z</time>
      </trkpt>
      <trkpt lat="42.83454" lon="0.14819">
        <ele>2082</ele>
        <time>2020-07-28T10:10:18.080Z</time>
      </trkpt>
      <trkpt lat="42.83453" lon="0.14821">
        <ele>2083</ele>
        <time>2020-07-28T10:10:19.080Z</time>
      </trkpt>
      <trkpt lat="42.83452" lon="0.14822">
        <ele>2082</ele>
        <time>2020-07-28T10:10:20.080Z</time>
      </trkpt>
      <trkpt lat="42.83451" lon="0.14823">
        <ele>2081</ele>
        <time>2020-07-28T10:10:21.080Z</time>
      </trkpt>
      <trkpt lat="42.8345" lon="0.14824">
        <ele>2081</ele>
        <time>2020-07-28T10:10:22.080Z</time>
      </trkpt>
      <trkpt lat="42.83449" lon="0.14825">
        <ele>2081</ele>
        <time>2020-07-28T10:10:23.080Z</time>
      </trkpt>
      <trkpt lat="42.83448" lon="0.14825">
        <ele>2082</ele>
        <time>2020-07-28T10:10:24.080Z</time>
      </trkpt>
      <trkpt lat="42.83447" lon="0.14826">
        <ele>2081</ele>
        <time>2020-07-28T10:10:25.080Z</time>
      </trkpt>
      <trkpt lat="42.83445" lon="0.14827">
        <ele>2081</ele>
        <time>2020-07-28T10:10:26.080Z</time>
      </trkpt>
      <trkpt lat="42.83444" lon="0.14829">
        <ele>2081</ele>
        <time>2020-07-28T10:10:27.080Z</time>
      </trkpt>
      <trkpt lat="42.83442" lon="0.14831">
        <ele>2080</ele>
        <time>2020-07-28T10:10:28.080Z</time>
      </trkpt>
      <trkpt lat="42.8344" lon="0.14832">
        <ele>2079</ele>
        <time>2020-07-28T10:10:29.080Z</time>
      </trkpt>
      <trkpt lat="42.83439" lon="0.14834">
        <ele>2078</ele>
        <time>2020-07-28T10:10:30.080Z</time>
      </trkpt>
      <trkpt lat="42.83437" lon="0.14836">
        <ele>2079</ele>
        <time>2020-07-28T10:10:31.080Z</time>
      </trkpt>
      <trkpt lat="42.83435" lon="0.14838">
        <ele>2079</ele>
        <time>2020-07-28T10:10:32.080Z</time>
      </trkpt>
      <trkpt lat="42.83434" lon="0.14841">
        <ele>2079</ele>
        <time>2020-07-28T10:10:33.080Z</time>
      </trkpt>
      <trkpt lat="42.83432" lon="0.14845">
        <ele>2080</ele>
        <time>2020-07-28T10:10:34.080Z</time>
      </trkpt>
      <trkpt lat="42.8343" lon="0.14849">
        <ele>2079</ele>
        <time>2020-07-28T10:10:35.080Z</time>
      </trkpt>
      <trkpt lat="42.83428" lon="0.14852">
        <ele>2078</ele>
        <time>2020-07-28T10:10:36.080Z</time>
      </trkpt>
      <trkpt lat="42.83425" lon="0.14854">
        <ele>2078</ele>
        <time>2020-07-28T10:10:37.080Z</time>
      </trkpt>
      <trkpt lat="42.83421" lon="0.14855">
        <ele>2078</ele>
        <time>2020-07-28T10:10:38.080Z</time>
      </trkpt>
      <trkpt lat="42.83418" lon="0.14855">
        <ele>2078</ele>
        <time>2020-07-28T10:10:39.080Z</time>
      </trkpt>
      <trkpt lat="42.83415" lon="0.14856">
        <ele>2078</ele>
        <time>2020-07-28T10:10:40.080Z</time>
      </trkpt>
      <trkpt lat="42.83413" lon="0.14856">
        <ele>2079</ele>
        <time>2020-07-28T10:10:41.080Z</time>
      </trkpt>
      <trkpt lat="42.83411" lon="0.14857">
        <ele>2081</ele>
        <time>2020-07-28T10:10:42.080Z</time>
      </trkpt>
      <trkpt lat="42.83409" lon="0.14858">
        <ele>2081</ele>
        <time>2020-07-28T10:10:43.080Z</time>
      </trkpt>
      <trkpt lat="42.83408" lon="0.14859">
        <ele>2081</ele>
        <time>2020-07-28T10:10:44.080Z</time>
      </trkpt>
      <trkpt lat="42.83406" lon="0.14861">
        <ele>2082</ele>
        <time>2020-07-28T10:10:45.080Z</time>
      </trkpt>
      <trkpt lat="42.83405" lon="0.14863">
        <ele>2082</ele>
        <time>2020-07-28T10:10:46.080Z</time>
      </trkpt>
      <trkpt lat="42.83403" lon="0.14865">
        <ele>2082</ele>
        <time>2020-07-28T10:10:47.080Z</time>
      </trkpt>
      <trkpt lat="42.83403" lon="0.14865">
        <ele>2082</ele>
        <time>2020-07-28T10:10:48.080Z</time>
      </trkpt>
      <trkpt lat="42.83402" lon="0.14868">
        <ele>2082</ele>
        <time>2020-07-28T10:10:49.080Z</time>
      </trkpt>
      <trkpt lat="42.83401" lon="0.14869">
        <ele>2082</ele>
        <time>2020-07-28T10:10:50.080Z</time>
      </trkpt>
      <trkpt lat="42.834" lon="0.14871">
        <ele>2083</ele>
        <time>2020-07-28T10:10:51.080Z</time>
      </trkpt>
      <trkpt lat="42.83398" lon="0.14872">
        <ele>2083</ele>
        <time>2020-07-28T10:10:52.080Z</time>
      </trkpt>
      <trkpt lat="42.83397" lon="0.14873">
        <ele>2083</ele>
        <time>2020-07-28T10:10:53.080Z</time>
      </trkpt>
      <trkpt lat="42.83396" lon="0.14875">
        <ele>2083</ele>
        <time>2020-07-28T10:10:54.080Z</time>
      </trkpt>
      <trkpt lat="42.83395" lon="0.14876">
        <ele>2085</ele>
        <time>2020-07-28T10:10:55.080Z</time>
      </trkpt>
      <trkpt lat="42.83395" lon="0.14877">
        <ele>2086</ele>
        <time>2020-07-28T10:10:56.080Z</time>
      </trkpt>
      <trkpt lat="42.83395" lon="0.14879">
        <ele>2086</ele>
        <time>2020-07-28T10:10:57.080Z</time>
      </trkpt>
      <trkpt lat="42.83394" lon="0.1488">
        <ele>2087</ele>
        <time>2020-07-28T10:10:58.080Z</time>
      </trkpt>
      <trkpt lat="42.83393" lon="0.14881">
        <ele>2087</ele>
        <time>2020-07-28T10:10:59.080Z</time>
      </trkpt>
      <trkpt lat="42.83392" lon="0.14882">
        <ele>2086</ele>
        <time>2020-07-28T10:11:00.080Z</time>
      </trkpt>
      <trkpt lat="42.83391" lon="0.14883">
        <ele>2085</ele>
        <time>2020-07-28T10:11:01.080Z</time>
      </trkpt>
      <trkpt lat="42.8339" lon="0.14884">
        <ele>2086</ele>
        <time>2020-07-28T10:11:02.080Z</time>
      </trkpt>
      <trkpt lat="42.83389" lon="0.14884">
        <ele>2085</ele>
        <time>2020-07-28T10:11:03.080Z</time>
      </trkpt>
      <trkpt lat="42.83387" lon="0.14885">
        <ele>2084</ele>
        <time>2020-07-28T10:11:04.080Z</time>
      </trkpt>
      <trkpt lat="42.83386" lon="0.14885">
        <ele>2084</ele>
        <time>2020-07-28T10:11:05.080Z</time>
      </trkpt>
      <trkpt lat="42.83385" lon="0.14886">
        <ele>2085</ele>
        <time>2020-07-28T10:11:06.080Z</time>
      </trkpt>
      <trkpt lat="42.83383" lon="0.14888">
        <ele>2086</ele>
        <time>2020-07-28T10:11:07.080Z</time>
      </trkpt>
      <trkpt lat="42.83381" lon="0.1489">
        <ele>2086</ele>
        <time>2020-07-28T10:11:08.080Z</time>
      </trkpt>
      <trkpt lat="42.8338" lon="0.14891">
        <ele>2086</ele>
        <time>2020-07-28T10:11:09.080Z</time>
      </trkpt>
      <trkpt lat="42.83378" lon="0.14893">
        <ele>2086</ele>
        <time>2020-07-28T10:11:10.080Z</time>
      </trkpt>
      <trkpt lat="42.83377" lon="0.14895">
        <ele>2086</ele>
        <time>2020-07-28T10:11:11.080Z</time>
      </trkpt>
      <trkpt lat="42.83375" lon="0.14897">
        <ele>2087</ele>
        <time>2020-07-28T10:11:12.080Z</time>
      </trkpt>
      <trkpt lat="42.83374" lon="0.14898">
        <ele>2087</ele>
        <time>2020-07-28T10:11:13.080Z</time>
      </trkpt>
      <trkpt lat="42.83374" lon="0.14899">
        <ele>2087</ele>
        <time>2020-07-28T10:11:14.080Z</time>
      </trkpt>
      <trkpt lat="42.83374" lon="0.14899">
        <ele>2087</ele>
        <time>2020-07-28T10:11:15.080Z</time>
      </trkpt>
      <trkpt lat="42.83374" lon="0.149">
        <ele>2087</ele>
        <time>2020-07-28T10:11:16.080Z</time>
      </trkpt>
      <trkpt lat="42.83374" lon="0.14901">
        <ele>2088</ele>
        <time>2020-07-28T10:11:17.080Z</time>
      </trkpt>
      <trkpt lat="42.83373" lon="0.14903">
        <ele>2088</ele>
        <time>2020-07-28T10:11:18.080Z</time>
      </trkpt>
      <trkpt lat="42.83373" lon="0.14904">
        <ele>2089</ele>
        <time>2020-07-28T10:11:19.080Z</time>
      </trkpt>
      <trkpt lat="42.83372" lon="0.14905">
        <ele>2089</ele>
        <time>2020-07-28T10:11:20.080Z</time>
      </trkpt>
      <trkpt lat="42.83372" lon="0.14906">
        <ele>2089</ele>
        <time>2020-07-28T10:11:21.080Z</time>
      </trkpt>
      <trkpt lat="42.83371" lon="0.14907">
        <ele>2089</ele>
        <time>2020-07-28T10:11:22.080Z</time>
      </trkpt>
      <trkpt lat="42.83371" lon="0.14909">
        <ele>2089</ele>
        <time>2020-07-28T10:11:23.080Z</time>
      </trkpt>
      <trkpt lat="42.8337" lon="0.14911">
        <ele>2089</ele>
        <time>2020-07-28T10:11:24.080Z</time>
      </trkpt>
      <trkpt lat="42.8337" lon="0.14912">
        <ele>2089</ele>
        <time>2020-07-28T10:11:25.080Z</time>
      </trkpt>
      <trkpt lat="42.83369" lon="0.14913">
        <ele>2089</ele>
        <time>2020-07-28T10:11:26.080Z</time>
      </trkpt>
      <trkpt lat="42.83368" lon="0.14915">
        <ele>2087</ele>
        <time>2020-07-28T10:11:27.080Z</time>
      </trkpt>
      <trkpt lat="42.83368" lon="0.14916">
        <ele>2086</ele>
        <time>2020-07-28T10:11:28.080Z</time>
      </trkpt>
      <trkpt lat="42.83367" lon="0.14917">
        <ele>2086</ele>
        <time>2020-07-28T10:11:29.080Z</time>
      </trkpt>
      <trkpt lat="42.83367" lon="0.14918">
        <ele>2086</ele>
        <time>2020-07-28T10:11:30.080Z</time>
      </trkpt>
      <trkpt lat="42.83367" lon="0.1492">
        <ele>2086</ele>
        <time>2020-07-28T10:11:31.080Z</time>
      </trkpt>
      <trkpt lat="42.83367" lon="0.14921">
        <ele>2086</ele>
        <time>2020-07-28T10:11:32.080Z</time>
      </trkpt>
      <trkpt lat="42.83367" lon="0.14922">
        <ele>2086</ele>
        <time>2020-07-28T10:11:33.080Z</time>
      </trkpt>
      <trkpt lat="42.83365" lon="0.14923">
        <ele>2085</ele>
        <time>2020-07-28T10:11:34.080Z</time>
      </trkpt>
      <trkpt lat="42.83365" lon="0.14923">
        <ele>2085</ele>
        <time>2020-07-28T10:11:35.080Z</time>
      </trkpt>
      <trkpt lat="42.83362" lon="0.14924">
        <ele>2086</ele>
        <time>2020-07-28T10:11:36.080Z</time>
      </trkpt>
      <trkpt lat="42.83361" lon="0.14925">
        <ele>2085</ele>
        <time>2020-07-28T10:11:37.080Z</time>
      </trkpt>
      <trkpt lat="42.8336" lon="0.14927">
        <ele>2086</ele>
        <time>2020-07-28T10:11:38.080Z</time>
      </trkpt>
      <trkpt lat="42.83359" lon="0.14929">
        <ele>2086</ele>
        <time>2020-07-28T10:11:39.080Z</time>
      </trkpt>
      <trkpt lat="42.83358" lon="0.1493">
        <ele>2085</ele>
        <time>2020-07-28T10:11:40.080Z</time>
      </trkpt>
      <trkpt lat="42.83356" lon="0.14932">
        <ele>2085</ele>
        <time>2020-07-28T10:11:41.080Z</time>
      </trkpt>
      <trkpt lat="42.83355" lon="0.14935">
        <ele>2086</ele>
        <time>2020-07-28T10:11:42.080Z</time>
      </trkpt>
      <trkpt lat="42.83353" lon="0.14937">
        <ele>2086</ele>
        <time>2020-07-28T10:11:43.080Z</time>
      </trkpt>
      <trkpt lat="42.83352" lon="0.1494">
        <ele>2085</ele>
        <time>2020-07-28T10:11:44.080Z</time>
      </trkpt>
      <trkpt lat="42.83351" lon="0.14941">
        <ele>2084</ele>
        <time>2020-07-28T10:11:45.080Z</time>
      </trkpt>
      <trkpt lat="42.8335" lon="0.14942">
        <ele>2083</ele>
        <time>2020-07-28T10:11:46.080Z</time>
      </trkpt>
      <trkpt lat="42.83349" lon="0.14944">
        <ele>2082</ele>
        <time>2020-07-28T10:11:47.080Z</time>
      </trkpt>
      <trkpt lat="42.83347" lon="0.14945">
        <ele>2082</ele>
        <time>2020-07-28T10:11:48.080Z</time>
      </trkpt>
      <trkpt lat="42.83346" lon="0.14947">
        <ele>2083</ele>
        <time>2020-07-28T10:11:49.080Z</time>
      </trkpt>
      <trkpt lat="42.83344" lon="0.14949">
        <ele>2083</ele>
        <time>2020-07-28T10:11:50.080Z</time>
      </trkpt>
      <trkpt lat="42.83343" lon="0.14952">
        <ele>2083</ele>
        <time>2020-07-28T10:11:51.080Z</time>
      </trkpt>
      <trkpt lat="42.83341" lon="0.14954">
        <ele>2083</ele>
        <time>2020-07-28T10:11:52.080Z</time>
      </trkpt>
      <trkpt lat="42.8334" lon="0.14955">
        <ele>2083</ele>
        <time>2020-07-28T10:11:53.080Z</time>
      </trkpt>
      <trkpt lat="42.83338" lon="0.14956">
        <ele>2083</ele>
        <time>2020-07-28T10:11:54.080Z</time>
      </trkpt>
      <trkpt lat="42.83337" lon="0.14958">
        <ele>2084</ele>
        <time>2020-07-28T10:11:55.080Z</time>
      </trkpt>
      <trkpt lat="42.83336" lon="0.14961">
        <ele>2085</ele>
        <time>2020-07-28T10:11:56.080Z</time>
      </trkpt>
      <trkpt lat="42.83336" lon="0.14961">
        <ele>2085</ele>
        <time>2020-07-28T10:11:57.080Z</time>
      </trkpt>
      <trkpt lat="42.83335" lon="0.14967">
        <ele>2085</ele>
        <time>2020-07-28T10:11:58.080Z</time>
      </trkpt>
      <trkpt lat="42.83333" lon="0.14969">
        <ele>2085</ele>
        <time>2020-07-28T10:11:59.080Z</time>
      </trkpt>
      <trkpt lat="42.83332" lon="0.14971">
        <ele>2085</ele>
        <time>2020-07-28T10:12:00.080Z</time>
      </trkpt>
      <trkpt lat="42.83332" lon="0.14974">
        <ele>2085</ele>
        <time>2020-07-28T10:12:01.080Z</time>
      </trkpt>
      <trkpt lat="42.83331" lon="0.14976">
        <ele>2085</ele>
        <time>2020-07-28T10:12:02.080Z</time>
      </trkpt>
      <trkpt lat="42.8333" lon="0.14978">
        <ele>2085</ele>
        <time>2020-07-28T10:12:03.080Z</time>
      </trkpt>
      <trkpt lat="42.8333" lon="0.1498">
        <ele>2083</ele>
        <time>2020-07-28T10:12:04.080Z</time>
      </trkpt>
      <trkpt lat="42.8333" lon="0.14982">
        <ele>2083</ele>
        <time>2020-07-28T10:12:05.080Z</time>
      </trkpt>
      <trkpt lat="42.8333" lon="0.14984">
        <ele>2083</ele>
        <time>2020-07-28T10:12:06.080Z</time>
      </trkpt>
      <trkpt lat="42.8333" lon="0.14986">
        <ele>2084</ele>
        <time>2020-07-28T10:12:07.080Z</time>
      </trkpt>
      <trkpt lat="42.83329" lon="0.14987">
        <ele>2084</ele>
        <time>2020-07-28T10:12:08.080Z</time>
      </trkpt>
      <trkpt lat="42.83328" lon="0.14988">
        <ele>2085</ele>
        <time>2020-07-28T10:12:09.080Z</time>
      </trkpt>
      <trkpt lat="42.83328" lon="0.1499">
        <ele>2084</ele>
        <time>2020-07-28T10:12:10.080Z</time>
      </trkpt>
      <trkpt lat="42.83327" lon="0.14992">
        <ele>2084</ele>
        <time>2020-07-28T10:12:11.080Z</time>
      </trkpt>
      <trkpt lat="42.83327" lon="0.14995">
        <ele>2084</ele>
        <time>2020-07-28T10:12:12.080Z</time>
      </trkpt>
      <trkpt lat="42.83326" lon="0.14997">
        <ele>2084</ele>
        <time>2020-07-28T10:12:13.080Z</time>
      </trkpt>
      <trkpt lat="42.83325" lon="0.14998">
        <ele>2085</ele>
        <time>2020-07-28T10:12:14.080Z</time>
      </trkpt>
      <trkpt lat="42.83325" lon="0.14998">
        <ele>2085</ele>
        <time>2020-07-28T10:12:15.080Z</time>
      </trkpt>
      <trkpt lat="42.83323" lon="0.15002">
        <ele>2087</ele>
        <time>2020-07-28T10:12:16.080Z</time>
      </trkpt>
      <trkpt lat="42.83323" lon="0.15004">
        <ele>2086</ele>
        <time>2020-07-28T10:12:17.080Z</time>
      </trkpt>
      <trkpt lat="42.83323" lon="0.15004">
        <ele>2087</ele>
        <time>2020-07-28T10:12:18.080Z</time>
      </trkpt>
      <trkpt lat="42.83322" lon="0.15003">
        <ele>2086</ele>
        <time>2020-07-28T10:12:19.080Z</time>
      </trkpt>
      <trkpt lat="42.83321" lon="0.15003">
        <ele>2087</ele>
        <time>2020-07-28T10:12:20.080Z</time>
      </trkpt>
      <trkpt lat="42.8332" lon="0.15004">
        <ele>2087</ele>
        <time>2020-07-28T10:12:21.080Z</time>
      </trkpt>
      <trkpt lat="42.83319" lon="0.15005">
        <ele>2087</ele>
        <time>2020-07-28T10:12:22.080Z</time>
      </trkpt>
      <trkpt lat="42.83318" lon="0.15007">
        <ele>2087</ele>
        <time>2020-07-28T10:12:23.080Z</time>
      </trkpt>
      <trkpt lat="42.83317" lon="0.15009">
        <ele>2085</ele>
        <time>2020-07-28T10:12:24.080Z</time>
      </trkpt>
      <trkpt lat="42.83317" lon="0.15012">
        <ele>2084</ele>
        <time>2020-07-28T10:12:25.080Z</time>
      </trkpt>
      <trkpt lat="42.83316" lon="0.15016">
        <ele>2085</ele>
        <time>2020-07-28T10:12:26.080Z</time>
      </trkpt>
      <trkpt lat="42.83315" lon="0.15019">
        <ele>2084</ele>
        <time>2020-07-28T10:12:27.080Z</time>
      </trkpt>
      <trkpt lat="42.83314" lon="0.15022">
        <ele>2085</ele>
        <time>2020-07-28T10:12:28.080Z</time>
      </trkpt>
      <trkpt lat="42.83314" lon="0.15024">
        <ele>2086</ele>
        <time>2020-07-28T10:12:29.080Z</time>
      </trkpt>
      <trkpt lat="42.83313" lon="0.15026">
        <ele>2087</ele>
        <time>2020-07-28T10:12:30.080Z</time>
      </trkpt>
      <trkpt lat="42.83313" lon="0.15028">
        <ele>2086</ele>
        <time>2020-07-28T10:12:31.080Z</time>
      </trkpt>
      <trkpt lat="42.83313" lon="0.1503">
        <ele>2087</ele>
        <time>2020-07-28T10:12:32.080Z</time>
      </trkpt>
      <trkpt lat="42.83313" lon="0.15031">
        <ele>2087</ele>
        <time>2020-07-28T10:12:33.080Z</time>
      </trkpt>
      <trkpt lat="42.83313" lon="0.15033">
        <ele>2086</ele>
        <time>2020-07-28T10:12:34.080Z</time>
      </trkpt>
      <trkpt lat="42.83312" lon="0.15036">
        <ele>2087</ele>
        <time>2020-07-28T10:12:35.080Z</time>
      </trkpt>
      <trkpt lat="42.83312" lon="0.15038">
        <ele>2087</ele>
        <time>2020-07-28T10:12:36.080Z</time>
      </trkpt>
      <trkpt lat="42.83312" lon="0.15041">
        <ele>2088</ele>
        <time>2020-07-28T10:12:37.080Z</time>
      </trkpt>
      <trkpt lat="42.83311" lon="0.15044">
        <ele>2088</ele>
        <time>2020-07-28T10:12:38.080Z</time>
      </trkpt>
      <trkpt lat="42.83311" lon="0.15047">
        <ele>2088</ele>
        <time>2020-07-28T10:12:39.080Z</time>
      </trkpt>
      <trkpt lat="42.8331" lon="0.15049">
        <ele>2089</ele>
        <time>2020-07-28T10:12:40.080Z</time>
      </trkpt>
      <trkpt lat="42.83309" lon="0.15053">
        <ele>2088</ele>
        <time>2020-07-28T10:12:41.080Z</time>
      </trkpt>
      <trkpt lat="42.83308" lon="0.15055">
        <ele>2088</ele>
        <time>2020-07-28T10:12:42.080Z</time>
      </trkpt>
      <trkpt lat="42.83308" lon="0.15057">
        <ele>2088</ele>
        <time>2020-07-28T10:12:43.080Z</time>
      </trkpt>
      <trkpt lat="42.83308" lon="0.15059">
        <ele>2088</ele>
        <time>2020-07-28T10:12:44.080Z</time>
      </trkpt>
      <trkpt lat="42.83308" lon="0.1506">
        <ele>2088</ele>
        <time>2020-07-28T10:12:45.080Z</time>
      </trkpt>
      <trkpt lat="42.83308" lon="0.15062">
        <ele>2087</ele>
        <time>2020-07-28T10:12:46.080Z</time>
      </trkpt>
      <trkpt lat="42.83307" lon="0.15063">
        <ele>2087</ele>
        <time>2020-07-28T10:12:47.080Z</time>
      </trkpt>
      <trkpt lat="42.83307" lon="0.15065">
        <ele>2087</ele>
        <time>2020-07-28T10:12:48.080Z</time>
      </trkpt>
      <trkpt lat="42.83307" lon="0.15067">
        <ele>2087</ele>
        <time>2020-07-28T10:12:49.080Z</time>
      </trkpt>
      <trkpt lat="42.83307" lon="0.15067">
        <ele>2087</ele>
        <time>2020-07-28T10:12:50.080Z</time>
      </trkpt>
      <trkpt lat="42.83307" lon="0.1507">
        <ele>2086</ele>
        <time>2020-07-28T10:12:51.080Z</time>
      </trkpt>
      <trkpt lat="42.83307" lon="0.15072">
        <ele>2086</ele>
        <time>2020-07-28T10:12:52.080Z</time>
      </trkpt>
      <trkpt lat="42.83307" lon="0.15072">
        <ele>2086</ele>
        <time>2020-07-28T10:12:53.080Z</time>
      </trkpt>
      <trkpt lat="42.83307" lon="0.15072">
        <ele>2086</ele>
        <time>2020-07-28T10:12:54.080Z</time>
      </trkpt>
      <trkpt lat="42.83306" lon="0.15077">
        <ele>2084</ele>
        <time>2020-07-28T10:12:55.080Z</time>
      </trkpt>
      <trkpt lat="42.83306" lon="0.15079">
        <ele>2084</ele>
        <time>2020-07-28T10:12:56.080Z</time>
      </trkpt>
      <trkpt lat="42.83306" lon="0.15079">
        <ele>2084</ele>
        <time>2020-07-28T10:12:57.080Z</time>
      </trkpt>
      <trkpt lat="42.83305" lon="0.15085">
        <ele>2083</ele>
        <time>2020-07-28T10:12:58.080Z</time>
      </trkpt>
      <trkpt lat="42.83305" lon="0.15087">
        <ele>2083</ele>
        <time>2020-07-28T10:12:59.080Z</time>
      </trkpt>
      <trkpt lat="42.83304" lon="0.15089">
        <ele>2083</ele>
        <time>2020-07-28T10:13:00.080Z</time>
      </trkpt>
      <trkpt lat="42.83304" lon="0.15092">
        <ele>2082</ele>
        <time>2020-07-28T10:13:01.080Z</time>
      </trkpt>
      <trkpt lat="42.83303" lon="0.15094">
        <ele>2081</ele>
        <time>2020-07-28T10:13:02.080Z</time>
      </trkpt>
      <trkpt lat="42.83302" lon="0.15095">
        <ele>2081</ele>
        <time>2020-07-28T10:13:03.080Z</time>
      </trkpt>
      <trkpt lat="42.83301" lon="0.15097">
        <ele>2082</ele>
        <time>2020-07-28T10:13:04.080Z</time>
      </trkpt>
      <trkpt lat="42.833" lon="0.15098">
        <ele>2081</ele>
        <time>2020-07-28T10:13:05.080Z</time>
      </trkpt>
      <trkpt lat="42.833" lon="0.15098">
        <ele>2081</ele>
        <time>2020-07-28T10:13:06.080Z</time>
      </trkpt>
      <trkpt lat="42.83299" lon="0.15099">
        <ele>2081</ele>
        <time>2020-07-28T10:13:07.080Z</time>
      </trkpt>
      <trkpt lat="42.83299" lon="0.15099">
        <ele>2082</ele>
        <time>2020-07-28T10:13:08.080Z</time>
      </trkpt>
      <trkpt lat="42.83299" lon="0.151">
        <ele>2082</ele>
        <time>2020-07-28T10:13:09.080Z</time>
      </trkpt>
      <trkpt lat="42.83298" lon="0.151">
        <ele>2082</ele>
        <time>2020-07-28T10:13:10.080Z</time>
      </trkpt>
      <trkpt lat="42.83298" lon="0.15101">
        <ele>2082</ele>
        <time>2020-07-28T10:13:11.080Z</time>
      </trkpt>
      <trkpt lat="42.83297" lon="0.15103">
        <ele>2081</ele>
        <time>2020-07-28T10:13:12.080Z</time>
      </trkpt>
      <trkpt lat="42.83296" lon="0.15104">
        <ele>2081</ele>
        <time>2020-07-28T10:13:13.080Z</time>
      </trkpt>
      <trkpt lat="42.83295" lon="0.15106">
        <ele>2081</ele>
        <time>2020-07-28T10:13:14.080Z</time>
      </trkpt>
      <trkpt lat="42.83295" lon="0.15107">
        <ele>2080</ele>
        <time>2020-07-28T10:13:15.080Z</time>
      </trkpt>
      <trkpt lat="42.83294" lon="0.15108">
        <ele>2080</ele>
        <time>2020-07-28T10:13:16.080Z</time>
      </trkpt>
      <trkpt lat="42.83294" lon="0.15108">
        <ele>2080</ele>
        <time>2020-07-28T10:13:17.080Z</time>
      </trkpt>
      <trkpt lat="42.83294" lon="0.15111">
        <ele>2080</ele>
        <time>2020-07-28T10:13:18.080Z</time>
      </trkpt>
      <trkpt lat="42.83293" lon="0.15113">
        <ele>2080</ele>
        <time>2020-07-28T10:13:19.080Z</time>
      </trkpt>
      <trkpt lat="42.83292" lon="0.15115">
        <ele>2081</ele>
        <time>2020-07-28T10:13:20.080Z</time>
      </trkpt>
      <trkpt lat="42.83292" lon="0.15116">
        <ele>2081</ele>
        <time>2020-07-28T10:13:21.080Z</time>
      </trkpt>
      <trkpt lat="42.83292" lon="0.15117">
        <ele>2082</ele>
        <time>2020-07-28T10:13:22.080Z</time>
      </trkpt>
      <trkpt lat="42.83293" lon="0.15119">
        <ele>2081</ele>
        <time>2020-07-28T10:13:23.080Z</time>
      </trkpt>
      <trkpt lat="42.83293" lon="0.15119">
        <ele>2081</ele>
        <time>2020-07-28T10:13:24.080Z</time>
      </trkpt>
      <trkpt lat="42.83293" lon="0.15121">
        <ele>2082</ele>
        <time>2020-07-28T10:13:25.080Z</time>
      </trkpt>
      <trkpt lat="42.83293" lon="0.15123">
        <ele>2082</ele>
        <time>2020-07-28T10:13:26.080Z</time>
      </trkpt>
      <trkpt lat="42.83293" lon="0.15125">
        <ele>2081</ele>
        <time>2020-07-28T10:13:27.080Z</time>
      </trkpt>
      <trkpt lat="42.83293" lon="0.15129">
        <ele>2080</ele>
        <time>2020-07-28T10:13:28.080Z</time>
      </trkpt>
      <trkpt lat="42.83293" lon="0.15129">
        <ele>2080</ele>
        <time>2020-07-28T10:13:29.080Z</time>
      </trkpt>
      <trkpt lat="42.83293" lon="0.15129">
        <ele>2080</ele>
        <time>2020-07-28T10:13:30.080Z</time>
      </trkpt>
      <trkpt lat="42.83293" lon="0.15139">
        <ele>2082</ele>
        <time>2020-07-28T10:13:31.080Z</time>
      </trkpt>
      <trkpt lat="42.83293" lon="0.15139">
        <ele>2082</ele>
        <time>2020-07-28T10:13:32.080Z</time>
      </trkpt>
      <trkpt lat="42.83294" lon="0.15143">
        <ele>2083</ele>
        <time>2020-07-28T10:13:33.080Z</time>
      </trkpt>
      <trkpt lat="42.83295" lon="0.15145">
        <ele>2084</ele>
        <time>2020-07-28T10:13:34.080Z</time>
      </trkpt>
      <trkpt lat="42.83295" lon="0.15145">
        <ele>2084</ele>
        <time>2020-07-28T10:13:35.080Z</time>
      </trkpt>
      <trkpt lat="42.83295" lon="0.15145">
        <ele>2084</ele>
        <time>2020-07-28T10:13:36.080Z</time>
      </trkpt>
      <trkpt lat="42.83295" lon="0.15153">
        <ele>2084</ele>
        <time>2020-07-28T10:13:37.080Z</time>
      </trkpt>
      <trkpt lat="42.83295" lon="0.15153">
        <ele>2084</ele>
        <time>2020-07-28T10:13:38.080Z</time>
      </trkpt>
      <trkpt lat="42.83295" lon="0.15153">
        <ele>2084</ele>
        <time>2020-07-28T10:13:39.080Z</time>
      </trkpt>
      <trkpt lat="42.83295" lon="0.15164">
        <ele>2084</ele>
        <time>2020-07-28T10:13:40.080Z</time>
      </trkpt>
      <trkpt lat="42.83295" lon="0.15168">
        <ele>2084</ele>
        <time>2020-07-28T10:13:41.080Z</time>
      </trkpt>
      <trkpt lat="42.83295" lon="0.15168">
        <ele>2084</ele>
        <time>2020-07-28T10:13:42.080Z</time>
      </trkpt>
      <trkpt lat="42.83295" lon="0.15177">
        <ele>2084</ele>
        <time>2020-07-28T10:13:43.080Z</time>
      </trkpt>
      <trkpt lat="42.83295" lon="0.15177">
        <ele>2084</ele>
        <time>2020-07-28T10:13:44.080Z</time>
      </trkpt>
      <trkpt lat="42.83295" lon="0.15185">
        <ele>2083</ele>
        <time>2020-07-28T10:13:45.080Z</time>
      </trkpt>
      <trkpt lat="42.83295" lon="0.15188">
        <ele>2084</ele>
        <time>2020-07-28T10:13:46.080Z</time>
      </trkpt>
      <trkpt lat="42.83295" lon="0.15192">
        <ele>2083</ele>
        <time>2020-07-28T10:13:47.080Z</time>
      </trkpt>
      <trkpt lat="42.83295" lon="0.15196">
        <ele>2083</ele>
        <time>2020-07-28T10:13:48.080Z</time>
      </trkpt>
      <trkpt lat="42.83294" lon="0.152">
        <ele>2081</ele>
        <time>2020-07-28T10:13:49.080Z</time>
      </trkpt>
      <trkpt lat="42.83293" lon="0.15203">
        <ele>2080</ele>
        <time>2020-07-28T10:13:50.080Z</time>
      </trkpt>
      <trkpt lat="42.83292" lon="0.15206">
        <ele>2081</ele>
        <time>2020-07-28T10:13:51.080Z</time>
      </trkpt>
      <trkpt lat="42.83291" lon="0.15209">
        <ele>2080</ele>
        <time>2020-07-28T10:13:52.080Z</time>
      </trkpt>
      <trkpt lat="42.83291" lon="0.15209">
        <ele>2080</ele>
        <time>2020-07-28T10:13:53.080Z</time>
      </trkpt>
      <trkpt lat="42.83291" lon="0.15215">
        <ele>2080</ele>
        <time>2020-07-28T10:13:54.080Z</time>
      </trkpt>
      <trkpt lat="42.83292" lon="0.15218">
        <ele>2081</ele>
        <time>2020-07-28T10:13:55.080Z</time>
      </trkpt>
      <trkpt lat="42.83293" lon="0.1522">
        <ele>2081</ele>
        <time>2020-07-28T10:13:56.080Z</time>
      </trkpt>
      <trkpt lat="42.83293" lon="0.1522">
        <ele>2081</ele>
        <time>2020-07-28T10:13:57.080Z</time>
      </trkpt>
      <trkpt lat="42.83295" lon="0.15225">
        <ele>2081</ele>
        <time>2020-07-28T10:13:58.080Z</time>
      </trkpt>
      <trkpt lat="42.83297" lon="0.15228">
        <ele>2081</ele>
        <time>2020-07-28T10:13:59.080Z</time>
      </trkpt>
      <trkpt lat="42.83298" lon="0.15231">
        <ele>2081</ele>
        <time>2020-07-28T10:14:00.080Z</time>
      </trkpt>
      <trkpt lat="42.83299" lon="0.15234">
        <ele>2082</ele>
        <time>2020-07-28T10:14:01.080Z</time>
      </trkpt>
      <trkpt lat="42.83299" lon="0.15234">
        <ele>2082</ele>
        <time>2020-07-28T10:14:02.080Z</time>
      </trkpt>
      <trkpt lat="42.83302" lon="0.15238">
        <ele>2082</ele>
        <time>2020-07-28T10:14:03.080Z</time>
      </trkpt>
      <trkpt lat="42.83303" lon="0.15239">
        <ele>2082</ele>
        <time>2020-07-28T10:14:04.080Z</time>
      </trkpt>
      <trkpt lat="42.83305" lon="0.15241">
        <ele>2083</ele>
        <time>2020-07-28T10:14:05.080Z</time>
      </trkpt>
      <trkpt lat="42.83306" lon="0.15242">
        <ele>2083</ele>
        <time>2020-07-28T10:14:06.080Z</time>
      </trkpt>
      <trkpt lat="42.83308" lon="0.15244">
        <ele>2083</ele>
        <time>2020-07-28T10:14:07.080Z</time>
      </trkpt>
      <trkpt lat="42.83309" lon="0.15245">
        <ele>2084</ele>
        <time>2020-07-28T10:14:08.080Z</time>
      </trkpt>
      <trkpt lat="42.83309" lon="0.15245">
        <ele>2084</ele>
        <time>2020-07-28T10:14:09.080Z</time>
      </trkpt>
      <trkpt lat="42.83311" lon="0.15247">
        <ele>2085</ele>
        <time>2020-07-28T10:14:10.080Z</time>
      </trkpt>
      <trkpt lat="42.83311" lon="0.15247">
        <ele>2085</ele>
        <time>2020-07-28T10:14:11.080Z</time>
      </trkpt>
      <trkpt lat="42.83311" lon="0.15247">
        <ele>2085</ele>
        <time>2020-07-28T10:14:12.080Z</time>
      </trkpt>
      <trkpt lat="42.83325" lon="0.15258">
        <ele>2088</ele>
        <time>2020-07-28T10:14:13.096Z</time>
      </trkpt>
      <trkpt lat="42.83326" lon="0.15259">
        <ele>2088</ele>
        <time>2020-07-28T10:14:14.096Z</time>
      </trkpt>
      <trkpt lat="42.83326" lon="0.1526">
        <ele>2089</ele>
        <time>2020-07-28T10:14:15.096Z</time>
      </trkpt>
      <trkpt lat="42.83326" lon="0.1526">
        <ele>2089</ele>
        <time>2020-07-28T10:14:16.096Z</time>
      </trkpt>
      <trkpt lat="42.83328" lon="0.15266">
        <ele>2088</ele>
        <time>2020-07-28T10:14:17.096Z</time>
      </trkpt>
      <trkpt lat="42.83329" lon="0.15269">
        <ele>2087</ele>
        <time>2020-07-28T10:14:18.096Z</time>
      </trkpt>
      <trkpt lat="42.83329" lon="0.15269">
        <ele>2087</ele>
        <time>2020-07-28T10:14:19.096Z</time>
      </trkpt>
      <trkpt lat="42.83329" lon="0.15269">
        <ele>2087</ele>
        <time>2020-07-28T10:14:20.096Z</time>
      </trkpt>
      <trkpt lat="42.83331" lon="0.15277">
        <ele>2085</ele>
        <time>2020-07-28T10:14:21.096Z</time>
      </trkpt>
      <trkpt lat="42.83331" lon="0.15277">
        <ele>2085</ele>
        <time>2020-07-28T10:14:22.096Z</time>
      </trkpt>
      <trkpt lat="42.83331" lon="0.15277">
        <ele>2085</ele>
        <time>2020-07-28T10:14:23.096Z</time>
      </trkpt>
      <trkpt lat="42.83337" lon="0.15282">
        <ele>2085</ele>
        <time>2020-07-28T10:14:24.096Z</time>
      </trkpt>
      <trkpt lat="42.83337" lon="0.15282">
        <ele>2085</ele>
        <time>2020-07-28T10:14:25.096Z</time>
      </trkpt>
      <trkpt lat="42.83337" lon="0.15282">
        <ele>2085</ele>
        <time>2020-07-28T10:14:26.096Z</time>
      </trkpt>
      <trkpt lat="42.83343" lon="0.15288">
        <ele>2083</ele>
        <time>2020-07-28T10:14:27.096Z</time>
      </trkpt>
      <trkpt lat="42.83343" lon="0.15288">
        <ele>2083</ele>
        <time>2020-07-28T10:14:28.096Z</time>
      </trkpt>
      <trkpt lat="42.83343" lon="0.15288">
        <ele>2083</ele>
        <time>2020-07-28T10:14:29.096Z</time>
      </trkpt>
      <trkpt lat="42.83348" lon="0.15294">
        <ele>2084</ele>
        <time>2020-07-28T10:14:30.096Z</time>
      </trkpt>
      <trkpt lat="42.83348" lon="0.15294">
        <ele>2084</ele>
        <time>2020-07-28T10:14:31.096Z</time>
      </trkpt>
      <trkpt lat="42.83348" lon="0.15294">
        <ele>2084</ele>
        <time>2020-07-28T10:14:32.096Z</time>
      </trkpt>
      <trkpt lat="42.83351" lon="0.15301">
        <ele>2083</ele>
        <time>2020-07-28T10:14:33.096Z</time>
      </trkpt>
      <trkpt lat="42.83351" lon="0.15301">
        <ele>2083</ele>
        <time>2020-07-28T10:14:34.096Z</time>
      </trkpt>
      <trkpt lat="42.83351" lon="0.15301">
        <ele>2083</ele>
        <time>2020-07-28T10:14:35.096Z</time>
      </trkpt>
      <trkpt lat="42.8335" lon="0.15309">
        <ele>2082</ele>
        <time>2020-07-28T10:14:36.096Z</time>
      </trkpt>
      <trkpt lat="42.8335" lon="0.15309">
        <ele>2082</ele>
        <time>2020-07-28T10:14:37.096Z</time>
      </trkpt>
      <trkpt lat="42.8335" lon="0.15309">
        <ele>2082</ele>
        <time>2020-07-28T10:14:38.096Z</time>
      </trkpt>
      <trkpt lat="42.83351" lon="0.15316">
        <ele>2081</ele>
        <time>2020-07-28T10:14:39.096Z</time>
      </trkpt>
      <trkpt lat="42.83351" lon="0.15316">
        <ele>2081</ele>
        <time>2020-07-28T10:14:40.096Z</time>
      </trkpt>
      <trkpt lat="42.83351" lon="0.1532">
        <ele>2081</ele>
        <time>2020-07-28T10:14:41.096Z</time>
      </trkpt>
      <trkpt lat="42.83352" lon="0.15322">
        <ele>2080</ele>
        <time>2020-07-28T10:14:42.096Z</time>
      </trkpt>
      <trkpt lat="42.83352" lon="0.15322">
        <ele>2080</ele>
        <time>2020-07-28T10:14:43.096Z</time>
      </trkpt>
      <trkpt lat="42.83352" lon="0.15322">
        <ele>2080</ele>
        <time>2020-07-28T10:14:44.096Z</time>
      </trkpt>
      <trkpt lat="42.83353" lon="0.15327">
        <ele>2080</ele>
        <time>2020-07-28T10:14:45.096Z</time>
      </trkpt>
      <trkpt lat="42.83353" lon="0.15327">
        <ele>2080</ele>
        <time>2020-07-28T10:14:46.096Z</time>
      </trkpt>
      <trkpt lat="42.83353" lon="0.1533">
        <ele>2080</ele>
        <time>2020-07-28T10:14:47.096Z</time>
      </trkpt>
      <trkpt lat="42.83354" lon="0.15332">
        <ele>2082</ele>
        <time>2020-07-28T10:14:48.096Z</time>
      </trkpt>
      <trkpt lat="42.83356" lon="0.15334">
        <ele>2080</ele>
        <time>2020-07-28T10:14:49.096Z</time>
      </trkpt>
      <trkpt lat="42.83356" lon="0.15334">
        <ele>2080</ele>
        <time>2020-07-28T10:14:50.096Z</time>
      </trkpt>
      <trkpt lat="42.83359" lon="0.15337">
        <ele>2078</ele>
        <time>2020-07-28T10:14:51.096Z</time>
      </trkpt>
      <trkpt lat="42.83359" lon="0.15337">
        <ele>2078</ele>
        <time>2020-07-28T10:14:52.096Z</time>
      </trkpt>
      <trkpt lat="42.83359" lon="0.15337">
        <ele>2078</ele>
        <time>2020-07-28T10:14:53.096Z</time>
      </trkpt>
      <trkpt lat="42.83361" lon="0.1534">
        <ele>2077</ele>
        <time>2020-07-28T10:14:54.096Z</time>
      </trkpt>
      <trkpt lat="42.83361" lon="0.1534">
        <ele>2077</ele>
        <time>2020-07-28T10:14:55.096Z</time>
      </trkpt>
      <trkpt lat="42.83361" lon="0.1534">
        <ele>2077</ele>
        <time>2020-07-28T10:14:56.096Z</time>
      </trkpt>
      <trkpt lat="42.83363" lon="0.15345">
        <ele>2080</ele>
        <time>2020-07-28T10:14:57.096Z</time>
      </trkpt>
      <trkpt lat="42.83363" lon="0.15345">
        <ele>2080</ele>
        <time>2020-07-28T10:14:58.096Z</time>
      </trkpt>
      <trkpt lat="42.83363" lon="0.15345">
        <ele>2080</ele>
        <time>2020-07-28T10:14:59.096Z</time>
      </trkpt>
      <trkpt lat="42.83367" lon="0.15354">
        <ele>2087</ele>
        <time>2020-07-28T10:15:00.096Z</time>
      </trkpt>
      <trkpt lat="42.83369" lon="0.15357">
        <ele>2087</ele>
        <time>2020-07-28T10:15:01.096Z</time>
      </trkpt>
      <trkpt lat="42.8337" lon="0.15359">
        <ele>2088</ele>
        <time>2020-07-28T10:15:02.096Z</time>
      </trkpt>
      <trkpt lat="42.83371" lon="0.15361">
        <ele>2088</ele>
        <time>2020-07-28T10:15:03.096Z</time>
      </trkpt>
      <trkpt lat="42.83371" lon="0.15361">
        <ele>2088</ele>
        <time>2020-07-28T10:15:04.096Z</time>
      </trkpt>
      <trkpt lat="42.83372" lon="0.15364">
        <ele>2089</ele>
        <time>2020-07-28T10:15:05.096Z</time>
      </trkpt>
      <trkpt lat="42.83372" lon="0.15366">
        <ele>2089</ele>
        <time>2020-07-28T10:15:06.096Z</time>
      </trkpt>
      <trkpt lat="42.83372" lon="0.15367">
        <ele>2088</ele>
        <time>2020-07-28T10:15:07.096Z</time>
      </trkpt>
      <trkpt lat="42.83373" lon="0.15368">
        <ele>2087</ele>
        <time>2020-07-28T10:15:08.096Z</time>
      </trkpt>
      <trkpt lat="42.83373" lon="0.1537">
        <ele>2088</ele>
        <time>2020-07-28T10:15:09.096Z</time>
      </trkpt>
      <trkpt lat="42.83374" lon="0.15372">
        <ele>2088</ele>
        <time>2020-07-28T10:15:10.096Z</time>
      </trkpt>
      <trkpt lat="42.83374" lon="0.15372">
        <ele>2088</ele>
        <time>2020-07-28T10:15:11.096Z</time>
      </trkpt>
      <trkpt lat="42.83374" lon="0.15375">
        <ele>2088</ele>
        <time>2020-07-28T10:15:12.096Z</time>
      </trkpt>
      <trkpt lat="42.83374" lon="0.15375">
        <ele>2088</ele>
        <time>2020-07-28T10:15:13.096Z</time>
      </trkpt>
      <trkpt lat="42.83375" lon="0.1538">
        <ele>2086</ele>
        <time>2020-07-28T10:15:14.096Z</time>
      </trkpt>
      <trkpt lat="42.83375" lon="0.15383">
        <ele>2087</ele>
        <time>2020-07-28T10:15:15.096Z</time>
      </trkpt>
      <trkpt lat="42.83376" lon="0.15386">
        <ele>2086</ele>
        <time>2020-07-28T10:15:16.096Z</time>
      </trkpt>
      <trkpt lat="42.83377" lon="0.15388">
        <ele>2086</ele>
        <time>2020-07-28T10:15:17.096Z</time>
      </trkpt>
      <trkpt lat="42.83379" lon="0.1539">
        <ele>2086</ele>
        <time>2020-07-28T10:15:18.096Z</time>
      </trkpt>
      <trkpt lat="42.83381" lon="0.15393">
        <ele>2086</ele>
        <time>2020-07-28T10:15:19.096Z</time>
      </trkpt>
      <trkpt lat="42.83383" lon="0.15395">
        <ele>2086</ele>
        <time>2020-07-28T10:15:20.096Z</time>
      </trkpt>
      <trkpt lat="42.83385" lon="0.15397">
        <ele>2087</ele>
        <time>2020-07-28T10:15:21.096Z</time>
      </trkpt>
      <trkpt lat="42.83385" lon="0.15397">
        <ele>2087</ele>
        <time>2020-07-28T10:15:22.096Z</time>
      </trkpt>
      <trkpt lat="42.83388" lon="0.15403">
        <ele>2086</ele>
        <time>2020-07-28T10:15:23.096Z</time>
      </trkpt>
      <trkpt lat="42.8339" lon="0.15406">
        <ele>2085</ele>
        <time>2020-07-28T10:15:24.096Z</time>
      </trkpt>
      <trkpt lat="42.83391" lon="0.15409">
        <ele>2086</ele>
        <time>2020-07-28T10:15:25.096Z</time>
      </trkpt>
      <trkpt lat="42.83391" lon="0.15409">
        <ele>2086</ele>
        <time>2020-07-28T10:15:26.096Z</time>
      </trkpt>
      <trkpt lat="42.83392" lon="0.15411">
        <ele>2087</ele>
        <time>2020-07-28T10:15:27.096Z</time>
      </trkpt>
      <trkpt lat="42.83393" lon="0.15412">
        <ele>2087</ele>
        <time>2020-07-28T10:15:28.096Z</time>
      </trkpt>
      <trkpt lat="42.83393" lon="0.15412">
        <ele>2087</ele>
        <time>2020-07-28T10:15:29.096Z</time>
      </trkpt>
      <trkpt lat="42.83393" lon="0.15415">
        <ele>2086</ele>
        <time>2020-07-28T10:15:30.096Z</time>
      </trkpt>
      <trkpt lat="42.83393" lon="0.15415">
        <ele>2086</ele>
        <time>2020-07-28T10:15:31.096Z</time>
      </trkpt>
      <trkpt lat="42.83393" lon="0.15419">
        <ele>2086</ele>
        <time>2020-07-28T10:15:32.096Z</time>
      </trkpt>
      <trkpt lat="42.83393" lon="0.1542">
        <ele>2085</ele>
        <time>2020-07-28T10:15:33.096Z</time>
      </trkpt>
      <trkpt lat="42.83393" lon="0.1542">
        <ele>2085</ele>
        <time>2020-07-28T10:15:34.096Z</time>
      </trkpt>
      <trkpt lat="42.83393" lon="0.1542">
        <ele>2085</ele>
        <time>2020-07-28T10:15:35.096Z</time>
      </trkpt>
      <trkpt lat="42.83393" lon="0.15425">
        <ele>2085</ele>
        <time>2020-07-28T10:15:36.096Z</time>
      </trkpt>
      <trkpt lat="42.83393" lon="0.15426">
        <ele>2085</ele>
        <time>2020-07-28T10:15:37.096Z</time>
      </trkpt>
      <trkpt lat="42.83393" lon="0.15426">
        <ele>2085</ele>
        <time>2020-07-28T10:15:38.096Z</time>
      </trkpt>
      <trkpt lat="42.83394" lon="0.15429">
        <ele>2085</ele>
        <time>2020-07-28T10:15:39.096Z</time>
      </trkpt>
      <trkpt lat="42.83395" lon="0.1543">
        <ele>2084</ele>
        <time>2020-07-28T10:15:40.096Z</time>
      </trkpt>
      <trkpt lat="42.83395" lon="0.15432">
        <ele>2084</ele>
        <time>2020-07-28T10:15:41.096Z</time>
      </trkpt>
      <trkpt lat="42.83395" lon="0.15433">
        <ele>2085</ele>
        <time>2020-07-28T10:15:42.096Z</time>
      </trkpt>
      <trkpt lat="42.83395" lon="0.15435">
        <ele>2085</ele>
        <time>2020-07-28T10:15:43.096Z</time>
      </trkpt>
      <trkpt lat="42.83395" lon="0.15435">
        <ele>2085</ele>
        <time>2020-07-28T10:15:44.096Z</time>
      </trkpt>
      <trkpt lat="42.83396" lon="0.15438">
        <ele>2085</ele>
        <time>2020-07-28T10:15:45.096Z</time>
      </trkpt>
      <trkpt lat="42.83397" lon="0.1544">
        <ele>2086</ele>
        <time>2020-07-28T10:15:46.096Z</time>
      </trkpt>
      <trkpt lat="42.83397" lon="0.15441">
        <ele>2086</ele>
        <time>2020-07-28T10:15:47.096Z</time>
      </trkpt>
      <trkpt lat="42.83397" lon="0.15444">
        <ele>2087</ele>
        <time>2020-07-28T10:15:48.096Z</time>
      </trkpt>
      <trkpt lat="42.83397" lon="0.15444">
        <ele>2087</ele>
        <time>2020-07-28T10:15:49.096Z</time>
      </trkpt>
      <trkpt lat="42.83396" lon="0.15448">
        <ele>2088</ele>
        <time>2020-07-28T10:15:50.096Z</time>
      </trkpt>
      <trkpt lat="42.83396" lon="0.15451">
        <ele>2087</ele>
        <time>2020-07-28T10:15:51.096Z</time>
      </trkpt>
      <trkpt lat="42.83395" lon="0.15453">
        <ele>2087</ele>
        <time>2020-07-28T10:15:52.096Z</time>
      </trkpt>
      <trkpt lat="42.83395" lon="0.15455">
        <ele>2087</ele>
        <time>2020-07-28T10:15:53.096Z</time>
      </trkpt>
      <trkpt lat="42.83394" lon="0.15456">
        <ele>2087</ele>
        <time>2020-07-28T10:15:54.096Z</time>
      </trkpt>
      <trkpt lat="42.83394" lon="0.15456">
        <ele>2087</ele>
        <time>2020-07-28T10:15:55.096Z</time>
      </trkpt>
      <trkpt lat="42.83394" lon="0.15459">
        <ele>2087</ele>
        <time>2020-07-28T10:15:56.096Z</time>
      </trkpt>
      <trkpt lat="42.83394" lon="0.15461">
        <ele>2087</ele>
        <time>2020-07-28T10:15:57.096Z</time>
      </trkpt>
      <trkpt lat="42.83394" lon="0.15461">
        <ele>2087</ele>
        <time>2020-07-28T10:15:58.096Z</time>
      </trkpt>
      <trkpt lat="42.83394" lon="0.15465">
        <ele>2085</ele>
        <time>2020-07-28T10:15:59.096Z</time>
      </trkpt>
      <trkpt lat="42.83395" lon="0.15468">
        <ele>2086</ele>
        <time>2020-07-28T10:16:00.096Z</time>
      </trkpt>
      <trkpt lat="42.83395" lon="0.1547">
        <ele>2086</ele>
        <time>2020-07-28T10:16:01.096Z</time>
      </trkpt>
      <trkpt lat="42.83395" lon="0.1547">
        <ele>2086</ele>
        <time>2020-07-28T10:16:02.096Z</time>
      </trkpt>
      <trkpt lat="42.83395" lon="0.15476">
        <ele>2086</ele>
        <time>2020-07-28T10:16:03.096Z</time>
      </trkpt>
      <trkpt lat="42.83395" lon="0.1548">
        <ele>2087</ele>
        <time>2020-07-28T10:16:04.096Z</time>
      </trkpt>
      <trkpt lat="42.83394" lon="0.15482">
        <ele>2086</ele>
        <time>2020-07-28T10:16:05.096Z</time>
      </trkpt>
      <trkpt lat="42.83394" lon="0.15484">
        <ele>2086</ele>
        <time>2020-07-28T10:16:06.096Z</time>
      </trkpt>
      <trkpt lat="42.83394" lon="0.15485">
        <ele>2086</ele>
        <time>2020-07-28T10:16:07.096Z</time>
      </trkpt>
      <trkpt lat="42.83394" lon="0.15487">
        <ele>2087</ele>
        <time>2020-07-28T10:16:08.096Z</time>
      </trkpt>
      <trkpt lat="42.83394" lon="0.1549">
        <ele>2086</ele>
        <time>2020-07-28T10:16:09.096Z</time>
      </trkpt>
      <trkpt lat="42.83394" lon="0.15493">
        <ele>2087</ele>
        <time>2020-07-28T10:16:10.096Z</time>
      </trkpt>
      <trkpt lat="42.83394" lon="0.15495">
        <ele>2086</ele>
        <time>2020-07-28T10:16:11.096Z</time>
      </trkpt>
      <trkpt lat="42.83394" lon="0.15498">
        <ele>2087</ele>
        <time>2020-07-28T10:16:12.096Z</time>
      </trkpt>
      <trkpt lat="42.83394" lon="0.15498">
        <ele>2087</ele>
        <time>2020-07-28T10:16:13.096Z</time>
      </trkpt>
      <trkpt lat="42.83394" lon="0.15498">
        <ele>2087</ele>
        <time>2020-07-28T10:16:14.096Z</time>
      </trkpt>
      <trkpt lat="42.83394" lon="0.15504">
        <ele>2086</ele>
        <time>2020-07-28T10:16:15.096Z</time>
      </trkpt>
      <trkpt lat="42.83394" lon="0.15506">
        <ele>2087</ele>
        <time>2020-07-28T10:16:16.096Z</time>
      </trkpt>
      <trkpt lat="42.83395" lon="0.15507">
        <ele>2087</ele>
        <time>2020-07-28T10:16:17.096Z</time>
      </trkpt>
      <trkpt lat="42.83395" lon="0.15508">
        <ele>2087</ele>
        <time>2020-07-28T10:16:18.096Z</time>
      </trkpt>
      <trkpt lat="42.83395" lon="0.15508">
        <ele>2087</ele>
        <time>2020-07-28T10:16:19.096Z</time>
      </trkpt>
      <trkpt lat="42.83395" lon="0.15508">
        <ele>2087</ele>
        <time>2020-07-28T10:16:20.096Z</time>
      </trkpt>
      <trkpt lat="42.83395" lon="0.15512">
        <ele>2087</ele>
        <time>2020-07-28T10:16:21.096Z</time>
      </trkpt>
      <trkpt lat="42.83395" lon="0.15514">
        <ele>2087</ele>
        <time>2020-07-28T10:16:22.096Z</time>
      </trkpt>
      <trkpt lat="42.83395" lon="0.15515">
        <ele>2088</ele>
        <time>2020-07-28T10:16:23.096Z</time>
      </trkpt>
      <trkpt lat="42.83395" lon="0.15517">
        <ele>2088</ele>
        <time>2020-07-28T10:16:24.096Z</time>
      </trkpt>
      <trkpt lat="42.83395" lon="0.15517">
        <ele>2088</ele>
        <time>2020-07-28T10:16:25.096Z</time>
      </trkpt>
      <trkpt lat="42.83395" lon="0.15517">
        <ele>2088</ele>
        <time>2020-07-28T10:16:26.096Z</time>
      </trkpt>
      <trkpt lat="42.83395" lon="0.15521">
        <ele>2088</ele>
        <time>2020-07-28T10:16:27.096Z</time>
      </trkpt>
      <trkpt lat="42.83395" lon="0.15522">
        <ele>2088</ele>
        <time>2020-07-28T10:16:28.096Z</time>
      </trkpt>
      <trkpt lat="42.83395" lon="0.15523">
        <ele>2088</ele>
        <time>2020-07-28T10:16:29.096Z</time>
      </trkpt>
      <trkpt lat="42.83395" lon="0.15525">
        <ele>2087</ele>
        <time>2020-07-28T10:16:30.096Z</time>
      </trkpt>
      <trkpt lat="42.83395" lon="0.15525">
        <ele>2087</ele>
        <time>2020-07-28T10:16:31.096Z</time>
      </trkpt>
      <trkpt lat="42.83395" lon="0.15525">
        <ele>2087</ele>
        <time>2020-07-28T10:16:32.096Z</time>
      </trkpt>
      <trkpt lat="42.83394" lon="0.15529">
        <ele>2087</ele>
        <time>2020-07-28T10:16:33.096Z</time>
      </trkpt>
      <trkpt lat="42.83394" lon="0.15529">
        <ele>2087</ele>
        <time>2020-07-28T10:16:34.096Z</time>
      </trkpt>
      <trkpt lat="42.83394" lon="0.15531">
        <ele>2088</ele>
        <time>2020-07-28T10:16:35.096Z</time>
      </trkpt>
      <trkpt lat="42.83394" lon="0.15533">
        <ele>2089</ele>
        <time>2020-07-28T10:16:36.096Z</time>
      </trkpt>
      <trkpt lat="42.83393" lon="0.15535">
        <ele>2090</ele>
        <time>2020-07-28T10:16:37.096Z</time>
      </trkpt>
      <trkpt lat="42.83393" lon="0.15535">
        <ele>2090</ele>
        <time>2020-07-28T10:16:38.096Z</time>
      </trkpt>
      <trkpt lat="42.83392" lon="0.1554">
        <ele>2091</ele>
        <time>2020-07-28T10:16:39.096Z</time>
      </trkpt>
      <trkpt lat="42.83392" lon="0.15542">
        <ele>2091</ele>
        <time>2020-07-28T10:16:40.096Z</time>
      </trkpt>
      <trkpt lat="42.83393" lon="0.15544">
        <ele>2091</ele>
        <time>2020-07-28T10:16:41.096Z</time>
      </trkpt>
      <trkpt lat="42.83393" lon="0.15546">
        <ele>2092</ele>
        <time>2020-07-28T10:16:42.096Z</time>
      </trkpt>
      <trkpt lat="42.83393" lon="0.15547">
        <ele>2092</ele>
        <time>2020-07-28T10:16:43.096Z</time>
      </trkpt>
      <trkpt lat="42.83393" lon="0.15548">
        <ele>2093</ele>
        <time>2020-07-28T10:16:44.096Z</time>
      </trkpt>
      <trkpt lat="42.83393" lon="0.15549">
        <ele>2093</ele>
        <time>2020-07-28T10:16:45.096Z</time>
      </trkpt>
      <trkpt lat="42.83393" lon="0.15549">
        <ele>2093</ele>
        <time>2020-07-28T10:16:46.096Z</time>
      </trkpt>
      <trkpt lat="42.83393" lon="0.15551">
        <ele>2093</ele>
        <time>2020-07-28T10:16:47.096Z</time>
      </trkpt>
      <trkpt lat="42.83393" lon="0.15552">
        <ele>2095</ele>
        <time>2020-07-28T10:16:48.096Z</time>
      </trkpt>
      <trkpt lat="42.83393" lon="0.15552">
        <ele>2095</ele>
        <time>2020-07-28T10:16:49.096Z</time>
      </trkpt>
      <trkpt lat="42.83393" lon="0.15552">
        <ele>2095</ele>
        <time>2020-07-28T10:16:50.096Z</time>
      </trkpt>
      <trkpt lat="42.83394" lon="0.15558">
        <ele>2095</ele>
        <time>2020-07-28T10:16:51.096Z</time>
      </trkpt>
      <trkpt lat="42.83394" lon="0.15559">
        <ele>2096</ele>
        <time>2020-07-28T10:16:52.096Z</time>
      </trkpt>
      <trkpt lat="42.83394" lon="0.15561">
        <ele>2096</ele>
        <time>2020-07-28T10:16:53.096Z</time>
      </trkpt>
      <trkpt lat="42.83394" lon="0.15563">
        <ele>2096</ele>
        <time>2020-07-28T10:16:54.096Z</time>
      </trkpt>
      <trkpt lat="42.83394" lon="0.15564">
        <ele>2097</ele>
        <time>2020-07-28T10:16:55.096Z</time>
      </trkpt>
      <trkpt lat="42.83394" lon="0.15564">
        <ele>2097</ele>
        <time>2020-07-28T10:16:56.096Z</time>
      </trkpt>
      <trkpt lat="42.83394" lon="0.15567">
        <ele>2097</ele>
        <time>2020-07-28T10:16:57.096Z</time>
      </trkpt>
      <trkpt lat="42.83395" lon="0.15568">
        <ele>2097</ele>
        <time>2020-07-28T10:16:58.096Z</time>
      </trkpt>
      <trkpt lat="42.83395" lon="0.1557">
        <ele>2097</ele>
        <time>2020-07-28T10:16:59.096Z</time>
      </trkpt>
      <trkpt lat="42.83395" lon="0.15571">
        <ele>2098</ele>
        <time>2020-07-28T10:17:00.096Z</time>
      </trkpt>
      <trkpt lat="42.83394" lon="0.15572">
        <ele>2098</ele>
        <time>2020-07-28T10:17:01.096Z</time>
      </trkpt>
      <trkpt lat="42.83394" lon="0.15574">
        <ele>2098</ele>
        <time>2020-07-28T10:17:02.096Z</time>
      </trkpt>
      <trkpt lat="42.83393" lon="0.15575">
        <ele>2098</ele>
        <time>2020-07-28T10:17:03.096Z</time>
      </trkpt>
      <trkpt lat="42.83393" lon="0.15575">
        <ele>2098</ele>
        <time>2020-07-28T10:17:04.096Z</time>
      </trkpt>
      <trkpt lat="42.83393" lon="0.15575">
        <ele>2098</ele>
        <time>2020-07-28T10:17:05.096Z</time>
      </trkpt>
      <trkpt lat="42.83391" lon="0.15579">
        <ele>2098</ele>
        <time>2020-07-28T10:17:06.096Z</time>
      </trkpt>
      <trkpt lat="42.83391" lon="0.15579">
        <ele>2098</ele>
        <time>2020-07-28T10:17:07.096Z</time>
      </trkpt>
      <trkpt lat="42.83391" lon="0.15579">
        <ele>2098</ele>
        <time>2020-07-28T10:17:08.096Z</time>
      </trkpt>
      <trkpt lat="42.83388" lon="0.15582">
        <ele>2096</ele>
        <time>2020-07-28T10:17:09.096Z</time>
      </trkpt>
      <trkpt lat="42.83387" lon="0.15583">
        <ele>2096</ele>
        <time>2020-07-28T10:17:10.096Z</time>
      </trkpt>
      <trkpt lat="42.83387" lon="0.15583">
        <ele>2096</ele>
        <time>2020-07-28T10:17:11.096Z</time>
      </trkpt>
      <trkpt lat="42.83385" lon="0.15587">
        <ele>2095</ele>
        <time>2020-07-28T10:17:12.096Z</time>
      </trkpt>
      <trkpt lat="42.83384" lon="0.15589">
        <ele>2095</ele>
        <time>2020-07-28T10:17:13.096Z</time>
      </trkpt>
      <trkpt lat="42.83384" lon="0.15589">
        <ele>2095</ele>
        <time>2020-07-28T10:17:14.096Z</time>
      </trkpt>
      <trkpt lat="42.83382" lon="0.15592">
        <ele>2094</ele>
        <time>2020-07-28T10:17:15.096Z</time>
      </trkpt>
      <trkpt lat="42.83381" lon="0.15595">
        <ele>2095</ele>
        <time>2020-07-28T10:17:16.096Z</time>
      </trkpt>
      <trkpt lat="42.83381" lon="0.15597">
        <ele>2095</ele>
        <time>2020-07-28T10:17:17.096Z</time>
      </trkpt>
      <trkpt lat="42.8338" lon="0.15599">
        <ele>2094</ele>
        <time>2020-07-28T10:17:18.096Z</time>
      </trkpt>
      <trkpt lat="42.8338" lon="0.15601">
        <ele>2093</ele>
        <time>2020-07-28T10:17:19.096Z</time>
      </trkpt>
      <trkpt lat="42.83379" lon="0.15603">
        <ele>2093</ele>
        <time>2020-07-28T10:17:20.096Z</time>
      </trkpt>
      <trkpt lat="42.83378" lon="0.15605">
        <ele>2093</ele>
        <time>2020-07-28T10:17:21.096Z</time>
      </trkpt>
      <trkpt lat="42.83378" lon="0.15605">
        <ele>2093</ele>
        <time>2020-07-28T10:17:22.096Z</time>
      </trkpt>
      <trkpt lat="42.83375" lon="0.15609">
        <ele>2094</ele>
        <time>2020-07-28T10:17:23.096Z</time>
      </trkpt>
      <trkpt lat="42.83374" lon="0.1561">
        <ele>2094</ele>
        <time>2020-07-28T10:17:24.096Z</time>
      </trkpt>
      <trkpt lat="42.83372" lon="0.15612">
        <ele>2094</ele>
        <time>2020-07-28T10:17:25.096Z</time>
      </trkpt>
      <trkpt lat="42.83371" lon="0.15614">
        <ele>2094</ele>
        <time>2020-07-28T10:17:26.096Z</time>
      </trkpt>
      <trkpt lat="42.83371" lon="0.15615">
        <ele>2093</ele>
        <time>2020-07-28T10:17:27.096Z</time>
      </trkpt>
      <trkpt lat="42.8337" lon="0.15617">
        <ele>2092</ele>
        <time>2020-07-28T10:17:28.096Z</time>
      </trkpt>
      <trkpt lat="42.8337" lon="0.15617">
        <ele>2092</ele>
        <time>2020-07-28T10:17:29.096Z</time>
      </trkpt>
      <trkpt lat="42.8337" lon="0.15621">
        <ele>2091</ele>
        <time>2020-07-28T10:17:30.096Z</time>
      </trkpt>
      <trkpt lat="42.8337" lon="0.15621">
        <ele>2091</ele>
        <time>2020-07-28T10:17:31.096Z</time>
      </trkpt>
      <trkpt lat="42.8337" lon="0.15627">
        <ele>2092</ele>
        <time>2020-07-28T10:17:32.096Z</time>
      </trkpt>
      <trkpt lat="42.83369" lon="0.1563">
        <ele>2093</ele>
        <time>2020-07-28T10:17:33.096Z</time>
      </trkpt>
      <trkpt lat="42.83369" lon="0.1563">
        <ele>2093</ele>
        <time>2020-07-28T10:17:34.096Z</time>
      </trkpt>
      <trkpt lat="42.83368" lon="0.15636">
        <ele>2095</ele>
        <time>2020-07-28T10:17:35.096Z</time>
      </trkpt>
      <trkpt lat="42.83368" lon="0.1564">
        <ele>2096</ele>
        <time>2020-07-28T10:17:36.096Z</time>
      </trkpt>
      <trkpt lat="42.83368" lon="0.15643">
        <ele>2096</ele>
        <time>2020-07-28T10:17:37.096Z</time>
      </trkpt>
      <trkpt lat="42.83368" lon="0.15646">
        <ele>2096</ele>
        <time>2020-07-28T10:17:38.096Z</time>
      </trkpt>
      <trkpt lat="42.83368" lon="0.15649">
        <ele>2096</ele>
        <time>2020-07-28T10:17:39.096Z</time>
      </trkpt>
      <trkpt lat="42.83368" lon="0.15649">
        <ele>2096</ele>
        <time>2020-07-28T10:17:40.096Z</time>
      </trkpt>
      <trkpt lat="42.83368" lon="0.15655">
        <ele>2095</ele>
        <time>2020-07-28T10:17:41.096Z</time>
      </trkpt>
      <trkpt lat="42.83368" lon="0.15658">
        <ele>2094</ele>
        <time>2020-07-28T10:17:42.096Z</time>
      </trkpt>
      <trkpt lat="42.83368" lon="0.15661">
        <ele>2094</ele>
        <time>2020-07-28T10:17:43.096Z</time>
      </trkpt>
      <trkpt lat="42.83368" lon="0.15664">
        <ele>2094</ele>
        <time>2020-07-28T10:17:44.096Z</time>
      </trkpt>
      <trkpt lat="42.83369" lon="0.15666">
        <ele>2093</ele>
        <time>2020-07-28T10:17:45.096Z</time>
      </trkpt>
      <trkpt lat="42.83369" lon="0.15669">
        <ele>2093</ele>
        <time>2020-07-28T10:17:46.096Z</time>
      </trkpt>
      <trkpt lat="42.83369" lon="0.15669">
        <ele>2093</ele>
        <time>2020-07-28T10:17:47.096Z</time>
      </trkpt>
      <trkpt lat="42.8337" lon="0.15674">
        <ele>2092</ele>
        <time>2020-07-28T10:17:48.096Z</time>
      </trkpt>
      <trkpt lat="42.83371" lon="0.15676">
        <ele>2092</ele>
        <time>2020-07-28T10:17:49.096Z</time>
      </trkpt>
      <trkpt lat="42.83371" lon="0.15677">
        <ele>2092</ele>
        <time>2020-07-28T10:17:50.096Z</time>
      </trkpt>
      <trkpt lat="42.83372" lon="0.15678">
        <ele>2092</ele>
        <time>2020-07-28T10:17:51.096Z</time>
      </trkpt>
      <trkpt lat="42.83372" lon="0.1568">
        <ele>2092</ele>
        <time>2020-07-28T10:17:52.096Z</time>
      </trkpt>
      <trkpt lat="42.83373" lon="0.15681">
        <ele>2091</ele>
        <time>2020-07-28T10:17:53.096Z</time>
      </trkpt>
      <trkpt lat="42.83373" lon="0.15682">
        <ele>2091</ele>
        <time>2020-07-28T10:17:54.096Z</time>
      </trkpt>
      <trkpt lat="42.83374" lon="0.15684">
        <ele>2091</ele>
        <time>2020-07-28T10:17:55.096Z</time>
      </trkpt>
      <trkpt lat="42.83374" lon="0.15685">
        <ele>2091</ele>
        <time>2020-07-28T10:17:56.096Z</time>
      </trkpt>
      <trkpt lat="42.83375" lon="0.15687">
        <ele>2091</ele>
        <time>2020-07-28T10:17:57.096Z</time>
      </trkpt>
      <trkpt lat="42.83375" lon="0.15687">
        <ele>2091</ele>
        <time>2020-07-28T10:17:58.096Z</time>
      </trkpt>
      <trkpt lat="42.83376" lon="0.15689">
        <ele>2090</ele>
        <time>2020-07-28T10:17:59.096Z</time>
      </trkpt>
      <trkpt lat="42.83377" lon="0.15691">
        <ele>2090</ele>
        <time>2020-07-28T10:18:00.096Z</time>
      </trkpt>
      <trkpt lat="42.83377" lon="0.15692">
        <ele>2089</ele>
        <time>2020-07-28T10:18:01.096Z</time>
      </trkpt>
      <trkpt lat="42.83378" lon="0.15694">
        <ele>2088</ele>
        <time>2020-07-28T10:18:02.096Z</time>
      </trkpt>
      <trkpt lat="42.83378" lon="0.15696">
        <ele>2088</ele>
        <time>2020-07-28T10:18:03.096Z</time>
      </trkpt>
      <trkpt lat="42.83379" lon="0.15698">
        <ele>2088</ele>
        <time>2020-07-28T10:18:04.096Z</time>
      </trkpt>
      <trkpt lat="42.83379" lon="0.15701">
        <ele>2087</ele>
        <time>2020-07-28T10:18:05.096Z</time>
      </trkpt>
      <trkpt lat="42.83379" lon="0.15703">
        <ele>2086</ele>
        <time>2020-07-28T10:18:06.096Z</time>
      </trkpt>
      <trkpt lat="42.83379" lon="0.15704">
        <ele>2087</ele>
        <time>2020-07-28T10:18:07.096Z</time>
      </trkpt>
      <trkpt lat="42.83379" lon="0.15705">
        <ele>2087</ele>
        <time>2020-07-28T10:18:08.096Z</time>
      </trkpt>
      <trkpt lat="42.83378" lon="0.15705">
        <ele>2089</ele>
        <time>2020-07-28T10:18:09.096Z</time>
      </trkpt>
      <trkpt lat="42.83378" lon="0.15705">
        <ele>2089</ele>
        <time>2020-07-28T10:18:10.096Z</time>
      </trkpt>
      <trkpt lat="42.83374" lon="0.15704">
        <ele>2089</ele>
        <time>2020-07-28T10:18:11.096Z</time>
      </trkpt>
      <trkpt lat="42.83372" lon="0.15704">
        <ele>2089</ele>
        <time>2020-07-28T10:18:12.096Z</time>
      </trkpt>
      <trkpt lat="42.8337" lon="0.15705">
        <ele>2088</ele>
        <time>2020-07-28T10:18:13.096Z</time>
      </trkpt>
      <trkpt lat="42.83369" lon="0.15705">
        <ele>2087</ele>
        <time>2020-07-28T10:18:14.096Z</time>
      </trkpt>
      <trkpt lat="42.83367" lon="0.15705">
        <ele>2087</ele>
        <time>2020-07-28T10:18:15.096Z</time>
      </trkpt>
      <trkpt lat="42.83367" lon="0.15705">
        <ele>2087</ele>
        <time>2020-07-28T10:18:16.096Z</time>
      </trkpt>
      <trkpt lat="42.83364" lon="0.15706">
        <ele>2084</ele>
        <time>2020-07-28T10:18:17.096Z</time>
      </trkpt>
      <trkpt lat="42.83362" lon="0.15706">
        <ele>2083</ele>
        <time>2020-07-28T10:18:18.096Z</time>
      </trkpt>
      <trkpt lat="42.8336" lon="0.15707">
        <ele>2082</ele>
        <time>2020-07-28T10:18:19.096Z</time>
      </trkpt>
      <trkpt lat="42.8336" lon="0.15707">
        <ele>2082</ele>
        <time>2020-07-28T10:18:20.096Z</time>
      </trkpt>
      <trkpt lat="42.83357" lon="0.15709">
        <ele>2081</ele>
        <time>2020-07-28T10:18:21.096Z</time>
      </trkpt>
      <trkpt lat="42.83355" lon="0.1571">
        <ele>2079</ele>
        <time>2020-07-28T10:18:22.096Z</time>
      </trkpt>
      <trkpt lat="42.83354" lon="0.15711">
        <ele>2079</ele>
        <time>2020-07-28T10:18:23.096Z</time>
      </trkpt>
      <trkpt lat="42.83353" lon="0.15712">
        <ele>2079</ele>
        <time>2020-07-28T10:18:24.096Z</time>
      </trkpt>
      <trkpt lat="42.83353" lon="0.15712">
        <ele>2079</ele>
        <time>2020-07-28T10:18:25.096Z</time>
      </trkpt>
      <trkpt lat="42.83351" lon="0.15713">
        <ele>2080</ele>
        <time>2020-07-28T10:18:26.096Z</time>
      </trkpt>
      <trkpt lat="42.8335" lon="0.15714">
        <ele>2079</ele>
        <time>2020-07-28T10:18:27.096Z</time>
      </trkpt>
      <trkpt lat="42.8335" lon="0.15714">
        <ele>2079</ele>
        <time>2020-07-28T10:18:28.096Z</time>
      </trkpt>
      <trkpt lat="42.83349" lon="0.15716">
        <ele>2079</ele>
        <time>2020-07-28T10:18:29.096Z</time>
      </trkpt>
      <trkpt lat="42.83348" lon="0.15717">
        <ele>2078</ele>
        <time>2020-07-28T10:18:30.096Z</time>
      </trkpt>
      <trkpt lat="42.83348" lon="0.15717">
        <ele>2078</ele>
        <time>2020-07-28T10:18:31.096Z</time>
      </trkpt>
      <trkpt lat="42.83346" lon="0.15719">
        <ele>2078</ele>
        <time>2020-07-28T10:18:32.096Z</time>
      </trkpt>
      <trkpt lat="42.83346" lon="0.1572">
        <ele>2078</ele>
        <time>2020-07-28T10:18:33.096Z</time>
      </trkpt>
      <trkpt lat="42.83346" lon="0.15722">
        <ele>2077</ele>
        <time>2020-07-28T10:18:34.096Z</time>
      </trkpt>
      <trkpt lat="42.83346" lon="0.15723">
        <ele>2077</ele>
        <time>2020-07-28T10:18:35.096Z</time>
      </trkpt>
      <trkpt lat="42.83346" lon="0.15725">
        <ele>2077</ele>
        <time>2020-07-28T10:18:36.096Z</time>
      </trkpt>
      <trkpt lat="42.83346" lon="0.15728">
        <ele>2080</ele>
        <time>2020-07-28T10:18:37.096Z</time>
      </trkpt>
      <trkpt lat="42.83346" lon="0.15728">
        <ele>2080</ele>
        <time>2020-07-28T10:18:38.096Z</time>
      </trkpt>
      <trkpt lat="42.83347" lon="0.15735">
        <ele>2078</ele>
        <time>2020-07-28T10:18:39.096Z</time>
      </trkpt>
      <trkpt lat="42.83348" lon="0.15738">
        <ele>2078</ele>
        <time>2020-07-28T10:18:40.096Z</time>
      </trkpt>
      <trkpt lat="42.83348" lon="0.15738">
        <ele>2078</ele>
        <time>2020-07-28T10:18:41.096Z</time>
      </trkpt>
      <trkpt lat="42.83348" lon="0.15745">
        <ele>2078</ele>
        <time>2020-07-28T10:18:42.096Z</time>
      </trkpt>
      <trkpt lat="42.83348" lon="0.15749">
        <ele>2079</ele>
        <time>2020-07-28T10:18:43.096Z</time>
      </trkpt>
      <trkpt lat="42.83348" lon="0.15749">
        <ele>2079</ele>
        <time>2020-07-28T10:18:44.096Z</time>
      </trkpt>
      <trkpt lat="42.83348" lon="0.15754">
        <ele>2078</ele>
        <time>2020-07-28T10:18:45.096Z</time>
      </trkpt>
      <trkpt lat="42.83348" lon="0.15754">
        <ele>2078</ele>
        <time>2020-07-28T10:18:46.096Z</time>
      </trkpt>
      <trkpt lat="42.83348" lon="0.1576">
        <ele>2079</ele>
        <time>2020-07-28T10:18:47.096Z</time>
      </trkpt>
      <trkpt lat="42.83347" lon="0.15763">
        <ele>2079</ele>
        <time>2020-07-28T10:18:48.096Z</time>
      </trkpt>
      <trkpt lat="42.83347" lon="0.15763">
        <ele>2079</ele>
        <time>2020-07-28T10:18:49.096Z</time>
      </trkpt>
      <trkpt lat="42.83346" lon="0.15768">
        <ele>2080</ele>
        <time>2020-07-28T10:18:50.096Z</time>
      </trkpt>
      <trkpt lat="42.83346" lon="0.1577">
        <ele>2079</ele>
        <time>2020-07-28T10:18:51.096Z</time>
      </trkpt>
      <trkpt lat="42.83346" lon="0.1577">
        <ele>2079</ele>
        <time>2020-07-28T10:18:52.096Z</time>
      </trkpt>
      <trkpt lat="42.83345" lon="0.15776">
        <ele>2080</ele>
        <time>2020-07-28T10:18:53.096Z</time>
      </trkpt>
      <trkpt lat="42.83343" lon="0.15777">
        <ele>2079</ele>
        <time>2020-07-28T10:18:54.096Z</time>
      </trkpt>
      <trkpt lat="42.83341" lon="0.15779">
        <ele>2079</ele>
        <time>2020-07-28T10:18:55.096Z</time>
      </trkpt>
      <trkpt lat="42.83339" lon="0.15779">
        <ele>2077</ele>
        <time>2020-07-28T10:18:56.096Z</time>
      </trkpt>
      <trkpt lat="42.83338" lon="0.1578">
        <ele>2076</ele>
        <time>2020-07-28T10:18:57.096Z</time>
      </trkpt>
      <trkpt lat="42.83338" lon="0.1578">
        <ele>2076</ele>
        <time>2020-07-28T10:18:58.096Z</time>
      </trkpt>
      <trkpt lat="42.83337" lon="0.1578">
        <ele>2076</ele>
        <time>2020-07-28T10:18:59.096Z</time>
      </trkpt>
      <trkpt lat="42.83337" lon="0.1578">
        <ele>2075</ele>
        <time>2020-07-28T10:19:00.096Z</time>
      </trkpt>
      <trkpt lat="42.83338" lon="0.15779">
        <ele>2076</ele>
        <time>2020-07-28T10:19:01.096Z</time>
      </trkpt>
      <trkpt lat="42.83338" lon="0.15779">
        <ele>2076</ele>
        <time>2020-07-28T10:19:02.096Z</time>
      </trkpt>
      <trkpt lat="42.83337" lon="0.1578">
        <ele>2076</ele>
        <time>2020-07-28T10:19:03.096Z</time>
      </trkpt>
      <trkpt lat="42.83337" lon="0.1578">
        <ele>2076</ele>
        <time>2020-07-28T10:19:04.096Z</time>
      </trkpt>
      <trkpt lat="42.83337" lon="0.1578">
        <ele>2076</ele>
        <time>2020-07-28T10:19:05.096Z</time>
      </trkpt>
      <trkpt lat="42.83336" lon="0.1578">
        <ele>2076</ele>
        <time>2020-07-28T10:19:06.096Z</time>
      </trkpt>
      <trkpt lat="42.83336" lon="0.1578">
        <ele>2076</ele>
        <time>2020-07-28T10:19:07.096Z</time>
      </trkpt>
      <trkpt lat="42.83335" lon="0.15781">
        <ele>2074</ele>
        <time>2020-07-28T10:19:08.096Z</time>
      </trkpt>
      <trkpt lat="42.83334" lon="0.15783">
        <ele>2073</ele>
        <time>2020-07-28T10:19:09.096Z</time>
      </trkpt>
      <trkpt lat="42.83333" lon="0.15784">
        <ele>2073</ele>
        <time>2020-07-28T10:19:10.096Z</time>
      </trkpt>
      <trkpt lat="42.83333" lon="0.15784">
        <ele>2073</ele>
        <time>2020-07-28T10:19:11.096Z</time>
      </trkpt>
      <trkpt lat="42.8333" lon="0.15787">
        <ele>2072</ele>
        <time>2020-07-28T10:19:12.096Z</time>
      </trkpt>
      <trkpt lat="42.83328" lon="0.15788">
        <ele>2071</ele>
        <time>2020-07-28T10:19:13.096Z</time>
      </trkpt>
      <trkpt lat="42.83326" lon="0.1579">
        <ele>2071</ele>
        <time>2020-07-28T10:19:14.096Z</time>
      </trkpt>
      <trkpt lat="42.83324" lon="0.15791">
        <ele>2070</ele>
        <time>2020-07-28T10:19:15.096Z</time>
      </trkpt>
      <trkpt lat="42.83323" lon="0.15792">
        <ele>2069</ele>
        <time>2020-07-28T10:19:16.096Z</time>
      </trkpt>
      <trkpt lat="42.83321" lon="0.15793">
        <ele>2069</ele>
        <time>2020-07-28T10:19:17.096Z</time>
      </trkpt>
      <trkpt lat="42.8332" lon="0.15796">
        <ele>2069</ele>
        <time>2020-07-28T10:19:18.096Z</time>
      </trkpt>
      <trkpt lat="42.83318" lon="0.15799">
        <ele>2068</ele>
        <time>2020-07-28T10:19:19.096Z</time>
      </trkpt>
      <trkpt lat="42.83318" lon="0.15799">
        <ele>2068</ele>
        <time>2020-07-28T10:19:20.096Z</time>
      </trkpt>
      <trkpt lat="42.83315" lon="0.15806">
        <ele>2069</ele>
        <time>2020-07-28T10:19:21.096Z</time>
      </trkpt>
      <trkpt lat="42.83314" lon="0.15809">
        <ele>2069</ele>
        <time>2020-07-28T10:19:22.096Z</time>
      </trkpt>
      <trkpt lat="42.83313" lon="0.15812">
        <ele>2069</ele>
        <time>2020-07-28T10:19:23.096Z</time>
      </trkpt>
      <trkpt lat="42.83313" lon="0.15816">
        <ele>2068</ele>
        <time>2020-07-28T10:19:24.096Z</time>
      </trkpt>
      <trkpt lat="42.83312" lon="0.15819">
        <ele>2069</ele>
        <time>2020-07-28T10:19:25.096Z</time>
      </trkpt>
      <trkpt lat="42.83311" lon="0.15822">
        <ele>2069</ele>
        <time>2020-07-28T10:19:26.096Z</time>
      </trkpt>
      <trkpt lat="42.83309" lon="0.15825">
        <ele>2069</ele>
        <time>2020-07-28T10:19:27.096Z</time>
      </trkpt>
      <trkpt lat="42.83308" lon="0.15827">
        <ele>2068</ele>
        <time>2020-07-28T10:19:28.096Z</time>
      </trkpt>
      <trkpt lat="42.83308" lon="0.15827">
        <ele>2068</ele>
        <time>2020-07-28T10:19:29.096Z</time>
      </trkpt>
      <trkpt lat="42.83305" lon="0.15833">
        <ele>2068</ele>
        <time>2020-07-28T10:19:30.096Z</time>
      </trkpt>
      <trkpt lat="42.83303" lon="0.15836">
        <ele>2068</ele>
        <time>2020-07-28T10:19:31.096Z</time>
      </trkpt>
      <trkpt lat="42.83302" lon="0.15839">
        <ele>2068</ele>
        <time>2020-07-28T10:19:32.096Z</time>
      </trkpt>
      <trkpt lat="42.83301" lon="0.15842">
        <ele>2069</ele>
        <time>2020-07-28T10:19:33.096Z</time>
      </trkpt>
      <trkpt lat="42.833" lon="0.15846">
        <ele>2070</ele>
        <time>2020-07-28T10:19:34.096Z</time>
      </trkpt>
      <trkpt lat="42.833" lon="0.15846">
        <ele>2070</ele>
        <time>2020-07-28T10:19:35.096Z</time>
      </trkpt>
      <trkpt lat="42.83298" lon="0.15852">
        <ele>2070</ele>
        <time>2020-07-28T10:19:36.096Z</time>
      </trkpt>
      <trkpt lat="42.83296" lon="0.15855">
        <ele>2070</ele>
        <time>2020-07-28T10:19:37.096Z</time>
      </trkpt>
      <trkpt lat="42.83296" lon="0.15855">
        <ele>2070</ele>
        <time>2020-07-28T10:19:38.096Z</time>
      </trkpt>
      <trkpt lat="42.83295" lon="0.1586">
        <ele>2071</ele>
        <time>2020-07-28T10:19:39.096Z</time>
      </trkpt>
      <trkpt lat="42.83295" lon="0.1586">
        <ele>2071</ele>
        <time>2020-07-28T10:19:40.096Z</time>
      </trkpt>
      <trkpt lat="42.83294" lon="0.15864">
        <ele>2070</ele>
        <time>2020-07-28T10:19:41.096Z</time>
      </trkpt>
      <trkpt lat="42.83295" lon="0.15866">
        <ele>2069</ele>
        <time>2020-07-28T10:19:42.096Z</time>
      </trkpt>
      <trkpt lat="42.83294" lon="0.15868">
        <ele>2070</ele>
        <time>2020-07-28T10:19:43.096Z</time>
      </trkpt>
      <trkpt lat="42.83294" lon="0.1587">
        <ele>2072</ele>
        <time>2020-07-28T10:19:44.096Z</time>
      </trkpt>
      <trkpt lat="42.83293" lon="0.15871">
        <ele>2072</ele>
        <time>2020-07-28T10:19:45.096Z</time>
      </trkpt>
      <trkpt lat="42.83293" lon="0.15872">
        <ele>2072</ele>
        <time>2020-07-28T10:19:46.096Z</time>
      </trkpt>
      <trkpt lat="42.83293" lon="0.15872">
        <ele>2072</ele>
        <time>2020-07-28T10:19:47.096Z</time>
      </trkpt>
      <trkpt lat="42.83291" lon="0.15876">
        <ele>2072</ele>
        <time>2020-07-28T10:19:48.096Z</time>
      </trkpt>
      <trkpt lat="42.8329" lon="0.15878">
        <ele>2072</ele>
        <time>2020-07-28T10:19:49.096Z</time>
      </trkpt>
      <trkpt lat="42.83289" lon="0.1588">
        <ele>2071</ele>
        <time>2020-07-28T10:19:50.096Z</time>
      </trkpt>
      <trkpt lat="42.83288" lon="0.15881">
        <ele>2070</ele>
        <time>2020-07-28T10:19:51.096Z</time>
      </trkpt>
      <trkpt lat="42.83287" lon="0.15882">
        <ele>2069</ele>
        <time>2020-07-28T10:19:52.096Z</time>
      </trkpt>
      <trkpt lat="42.83287" lon="0.15882">
        <ele>2069</ele>
        <time>2020-07-28T10:19:53.096Z</time>
      </trkpt>
      <trkpt lat="42.83285" lon="0.15885">
        <ele>2068</ele>
        <time>2020-07-28T10:19:54.096Z</time>
      </trkpt>
      <trkpt lat="42.83284" lon="0.15887">
        <ele>2066</ele>
        <time>2020-07-28T10:19:55.096Z</time>
      </trkpt>
      <trkpt lat="42.83283" lon="0.15888">
        <ele>2066</ele>
        <time>2020-07-28T10:19:56.096Z</time>
      </trkpt>
      <trkpt lat="42.83282" lon="0.1589">
        <ele>2064</ele>
        <time>2020-07-28T10:19:57.096Z</time>
      </trkpt>
      <trkpt lat="42.83282" lon="0.1589">
        <ele>2064</ele>
        <time>2020-07-28T10:19:58.096Z</time>
      </trkpt>
      <trkpt lat="42.8328" lon="0.15891">
        <ele>2062</ele>
        <time>2020-07-28T10:19:59.096Z</time>
      </trkpt>
      <trkpt lat="42.83278" lon="0.15892">
        <ele>2062</ele>
        <time>2020-07-28T10:20:00.096Z</time>
      </trkpt>
      <trkpt lat="42.83277" lon="0.15892">
        <ele>2063</ele>
        <time>2020-07-28T10:20:01.096Z</time>
      </trkpt>
      <trkpt lat="42.83277" lon="0.15892">
        <ele>2062</ele>
        <time>2020-07-28T10:20:02.096Z</time>
      </trkpt>
      <trkpt lat="42.83276" lon="0.15893">
        <ele>2062</ele>
        <time>2020-07-28T10:20:03.096Z</time>
      </trkpt>
      <trkpt lat="42.83275" lon="0.15895">
        <ele>2062</ele>
        <time>2020-07-28T10:20:04.096Z</time>
      </trkpt>
      <trkpt lat="42.83275" lon="0.15895">
        <ele>2062</ele>
        <time>2020-07-28T10:20:05.096Z</time>
      </trkpt>
      <trkpt lat="42.83275" lon="0.15899">
        <ele>2059</ele>
        <time>2020-07-28T10:20:06.096Z</time>
      </trkpt>
      <trkpt lat="42.83275" lon="0.15899">
        <ele>2059</ele>
        <time>2020-07-28T10:20:07.096Z</time>
      </trkpt>
      <trkpt lat="42.83274" lon="0.15904">
        <ele>2059</ele>
        <time>2020-07-28T10:20:08.096Z</time>
      </trkpt>
      <trkpt lat="42.83273" lon="0.15905">
        <ele>2058</ele>
        <time>2020-07-28T10:20:09.096Z</time>
      </trkpt>
      <trkpt lat="42.83271" lon="0.15906">
        <ele>2059</ele>
        <time>2020-07-28T10:20:10.096Z</time>
      </trkpt>
      <trkpt lat="42.8327" lon="0.15906">
        <ele>2060</ele>
        <time>2020-07-28T10:20:11.096Z</time>
      </trkpt>
      <trkpt lat="42.83269" lon="0.15905">
        <ele>2059</ele>
        <time>2020-07-28T10:20:12.096Z</time>
      </trkpt>
      <trkpt lat="42.83269" lon="0.15905">
        <ele>2059</ele>
        <time>2020-07-28T10:20:13.096Z</time>
      </trkpt>
      <trkpt lat="42.83269" lon="0.15905">
        <ele>2059</ele>
        <time>2020-07-28T10:20:14.096Z</time>
      </trkpt>
      <trkpt lat="42.83266" lon="0.15904">
        <ele>2060</ele>
        <time>2020-07-28T10:20:15.096Z</time>
      </trkpt>
      <trkpt lat="42.83266" lon="0.15904">
        <ele>2060</ele>
        <time>2020-07-28T10:20:16.096Z</time>
      </trkpt>
      <trkpt lat="42.83264" lon="0.15903">
        <ele>2060</ele>
        <time>2020-07-28T10:20:17.096Z</time>
      </trkpt>
      <trkpt lat="42.83263" lon="0.15903">
        <ele>2059</ele>
        <time>2020-07-28T10:20:18.096Z</time>
      </trkpt>
      <trkpt lat="42.83262" lon="0.15902">
        <ele>2059</ele>
        <time>2020-07-28T10:20:19.096Z</time>
      </trkpt>
      <trkpt lat="42.83261" lon="0.15901">
        <ele>2059</ele>
        <time>2020-07-28T10:20:20.096Z</time>
      </trkpt>
      <trkpt lat="42.8326" lon="0.15901">
        <ele>2059</ele>
        <time>2020-07-28T10:20:21.096Z</time>
      </trkpt>
      <trkpt lat="42.83259" lon="0.15901">
        <ele>2058</ele>
        <time>2020-07-28T10:20:22.096Z</time>
      </trkpt>
      <trkpt lat="42.83257" lon="0.15901">
        <ele>2058</ele>
        <time>2020-07-28T10:20:23.096Z</time>
      </trkpt>
      <trkpt lat="42.83256" lon="0.15901">
        <ele>2057</ele>
        <time>2020-07-28T10:20:24.096Z</time>
      </trkpt>
      <trkpt lat="42.83255" lon="0.15901">
        <ele>2057</ele>
        <time>2020-07-28T10:20:25.096Z</time>
      </trkpt>
      <trkpt lat="42.83255" lon="0.15901">
        <ele>2057</ele>
        <time>2020-07-28T10:20:26.096Z</time>
      </trkpt>
      <trkpt lat="42.83253" lon="0.15903">
        <ele>2055</ele>
        <time>2020-07-28T10:20:27.096Z</time>
      </trkpt>
      <trkpt lat="42.83252" lon="0.15903">
        <ele>2054</ele>
        <time>2020-07-28T10:20:28.096Z</time>
      </trkpt>
      <trkpt lat="42.83251" lon="0.15903">
        <ele>2053</ele>
        <time>2020-07-28T10:20:29.096Z</time>
      </trkpt>
      <trkpt lat="42.8325" lon="0.15904">
        <ele>2053</ele>
        <time>2020-07-28T10:20:30.096Z</time>
      </trkpt>
      <trkpt lat="42.8325" lon="0.15904">
        <ele>2052</ele>
        <time>2020-07-28T10:20:31.096Z</time>
      </trkpt>
      <trkpt lat="42.83249" lon="0.15903">
        <ele>2052</ele>
        <time>2020-07-28T10:20:32.096Z</time>
      </trkpt>
      <trkpt lat="42.83249" lon="0.15903">
        <ele>2051</ele>
        <time>2020-07-28T10:20:33.096Z</time>
      </trkpt>
      <trkpt lat="42.83249" lon="0.15901">
        <ele>2050</ele>
        <time>2020-07-28T10:20:34.096Z</time>
      </trkpt>
      <trkpt lat="42.83249" lon="0.15901">
        <ele>2050</ele>
        <time>2020-07-28T10:20:35.096Z</time>
      </trkpt>
      <trkpt lat="42.83249" lon="0.159">
        <ele>2049</ele>
        <time>2020-07-28T10:20:36.096Z</time>
      </trkpt>
      <trkpt lat="42.83249" lon="0.159">
        <ele>2049</ele>
        <time>2020-07-28T10:20:37.096Z</time>
      </trkpt>
      <trkpt lat="42.83249" lon="0.159">
        <ele>2049</ele>
        <time>2020-07-28T10:20:38.096Z</time>
      </trkpt>
      <trkpt lat="42.83249" lon="0.15899">
        <ele>2049</ele>
        <time>2020-07-28T10:20:39.096Z</time>
      </trkpt>
      <trkpt lat="42.83248" lon="0.15898">
        <ele>2049</ele>
        <time>2020-07-28T10:20:40.096Z</time>
      </trkpt>
      <trkpt lat="42.83248" lon="0.15897">
        <ele>2048</ele>
        <time>2020-07-28T10:20:41.096Z</time>
      </trkpt>
      <trkpt lat="42.83247" lon="0.15897">
        <ele>2048</ele>
        <time>2020-07-28T10:20:42.096Z</time>
      </trkpt>
      <trkpt lat="42.83247" lon="0.15897">
        <ele>2048</ele>
        <time>2020-07-28T10:20:43.096Z</time>
      </trkpt>
      <trkpt lat="42.83247" lon="0.15897">
        <ele>2048</ele>
        <time>2020-07-28T10:20:44.096Z</time>
      </trkpt>
      <trkpt lat="42.83246" lon="0.15895">
        <ele>2048</ele>
        <time>2020-07-28T10:20:45.096Z</time>
      </trkpt>
      <trkpt lat="42.83246" lon="0.15895">
        <ele>2048</ele>
        <time>2020-07-28T10:20:46.096Z</time>
      </trkpt>
      <trkpt lat="42.83246" lon="0.15894">
        <ele>2047</ele>
        <time>2020-07-28T10:20:47.096Z</time>
      </trkpt>
      <trkpt lat="42.83246" lon="0.15894">
        <ele>2047</ele>
        <time>2020-07-28T10:20:48.096Z</time>
      </trkpt>
      <trkpt lat="42.83246" lon="0.15894">
        <ele>2047</ele>
        <time>2020-07-28T10:20:49.096Z</time>
      </trkpt>
      <trkpt lat="42.83246" lon="0.15894">
        <ele>2047</ele>
        <time>2020-07-28T10:20:50.096Z</time>
      </trkpt>
      <trkpt lat="42.83246" lon="0.15894">
        <ele>2047</ele>
        <time>2020-07-28T10:20:51.096Z</time>
      </trkpt>
      <trkpt lat="42.83246" lon="0.15894">
        <ele>2047</ele>
        <time>2020-07-28T10:20:52.096Z</time>
      </trkpt>
      <trkpt lat="42.83246" lon="0.15894">
        <ele>2047</ele>
        <time>2020-07-28T10:20:53.096Z</time>
      </trkpt>
      <trkpt lat="42.83245" lon="0.15893">
        <ele>2048</ele>
        <time>2020-07-28T10:20:54.096Z</time>
      </trkpt>
      <trkpt lat="42.83245" lon="0.15893">
        <ele>2048</ele>
        <time>2020-07-28T10:20:55.096Z</time>
      </trkpt>
      <trkpt lat="42.83245" lon="0.15893">
        <ele>2048</ele>
        <time>2020-07-28T10:20:56.096Z</time>
      </trkpt>
      <trkpt lat="42.83245" lon="0.15893">
        <ele>2048</ele>
        <time>2020-07-28T10:20:57.096Z</time>
      </trkpt>
      <trkpt lat="42.83245" lon="0.15893">
        <ele>2048</ele>
        <time>2020-07-28T10:20:58.096Z</time>
      </trkpt>
      <trkpt lat="42.83245" lon="0.15893">
        <ele>2048</ele>
        <time>2020-07-28T10:20:59.096Z</time>
      </trkpt>
      <trkpt lat="42.83244" lon="0.15893">
        <ele>2048</ele>
        <time>2020-07-28T10:21:00.096Z</time>
      </trkpt>
      <trkpt lat="42.83244" lon="0.15893">
        <ele>2048</ele>
        <time>2020-07-28T10:21:01.096Z</time>
      </trkpt>
      <trkpt lat="42.83244" lon="0.15893">
        <ele>2048</ele>
        <time>2020-07-28T10:21:02.096Z</time>
      </trkpt>
      <trkpt lat="42.83242" lon="0.15893">
        <ele>2047</ele>
        <time>2020-07-28T10:21:03.096Z</time>
      </trkpt>
      <trkpt lat="42.83242" lon="0.15893">
        <ele>2047</ele>
        <time>2020-07-28T10:21:04.096Z</time>
      </trkpt>
      <trkpt lat="42.83237" lon="0.15892">
        <ele>2048</ele>
        <time>2020-07-28T10:21:05.096Z</time>
      </trkpt>
      <trkpt lat="42.83235" lon="0.15891">
        <ele>2048</ele>
        <time>2020-07-28T10:21:06.096Z</time>
      </trkpt>
      <trkpt lat="42.83235" lon="0.15891">
        <ele>2048</ele>
        <time>2020-07-28T10:21:07.096Z</time>
      </trkpt>
      <trkpt lat="42.83231" lon="0.1589">
        <ele>2047</ele>
        <time>2020-07-28T10:21:08.096Z</time>
      </trkpt>
      <trkpt lat="42.83231" lon="0.15891">
        <ele>2047</ele>
        <time>2020-07-28T10:21:09.096Z</time>
      </trkpt>
      <trkpt lat="42.83231" lon="0.15891">
        <ele>2047</ele>
        <time>2020-07-28T10:21:10.096Z</time>
      </trkpt>
      <trkpt lat="42.83228" lon="0.15893">
        <ele>2046</ele>
        <time>2020-07-28T10:21:11.096Z</time>
      </trkpt>
      <trkpt lat="42.83227" lon="0.15894">
        <ele>2046</ele>
        <time>2020-07-28T10:21:12.096Z</time>
      </trkpt>
      <trkpt lat="42.83226" lon="0.15895">
        <ele>2046</ele>
        <time>2020-07-28T10:21:13.096Z</time>
      </trkpt>
      <trkpt lat="42.83226" lon="0.15895">
        <ele>2046</ele>
        <time>2020-07-28T10:21:14.096Z</time>
      </trkpt>
      <trkpt lat="42.83224" lon="0.15895">
        <ele>2045</ele>
        <time>2020-07-28T10:21:15.096Z</time>
      </trkpt>
      <trkpt lat="42.83223" lon="0.15895">
        <ele>2045</ele>
        <time>2020-07-28T10:21:16.096Z</time>
      </trkpt>
      <trkpt lat="42.83222" lon="0.15895">
        <ele>2044</ele>
        <time>2020-07-28T10:21:17.096Z</time>
      </trkpt>
      <trkpt lat="42.8322" lon="0.15894">
        <ele>2043</ele>
        <time>2020-07-28T10:21:18.096Z</time>
      </trkpt>
      <trkpt lat="42.83218" lon="0.15894">
        <ele>2043</ele>
        <time>2020-07-28T10:21:19.096Z</time>
      </trkpt>
      <trkpt lat="42.83216" lon="0.15894">
        <ele>2043</ele>
        <time>2020-07-28T10:21:20.096Z</time>
      </trkpt>
      <trkpt lat="42.83214" lon="0.15893">
        <ele>2043</ele>
        <time>2020-07-28T10:21:21.096Z</time>
      </trkpt>
      <trkpt lat="42.83214" lon="0.15893">
        <ele>2043</ele>
        <time>2020-07-28T10:21:22.096Z</time>
      </trkpt>
      <trkpt lat="42.8321" lon="0.15894">
        <ele>2043</ele>
        <time>2020-07-28T10:21:23.096Z</time>
      </trkpt>
      <trkpt lat="42.83209" lon="0.15895">
        <ele>2042</ele>
        <time>2020-07-28T10:21:24.096Z</time>
      </trkpt>
      <trkpt lat="42.83209" lon="0.15895">
        <ele>2042</ele>
        <time>2020-07-28T10:21:25.096Z</time>
      </trkpt>
      <trkpt lat="42.83209" lon="0.15895">
        <ele>2042</ele>
        <time>2020-07-28T10:21:26.096Z</time>
      </trkpt>
      <trkpt lat="42.83206" lon="0.159">
        <ele>2041</ele>
        <time>2020-07-28T10:21:27.096Z</time>
      </trkpt>
      <trkpt lat="42.83206" lon="0.159">
        <ele>2041</ele>
        <time>2020-07-28T10:21:28.096Z</time>
      </trkpt>
      <trkpt lat="42.83206" lon="0.159">
        <ele>2041</ele>
        <time>2020-07-28T10:21:29.096Z</time>
      </trkpt>
      <trkpt lat="42.83205" lon="0.15908">
        <ele>2040</ele>
        <time>2020-07-28T10:21:30.096Z</time>
      </trkpt>
      <trkpt lat="42.83204" lon="0.15911">
        <ele>2041</ele>
        <time>2020-07-28T10:21:31.096Z</time>
      </trkpt>
      <trkpt lat="42.83203" lon="0.15914">
        <ele>2041</ele>
        <time>2020-07-28T10:21:32.096Z</time>
      </trkpt>
      <trkpt lat="42.83203" lon="0.15917">
        <ele>2041</ele>
        <time>2020-07-28T10:21:33.096Z</time>
      </trkpt>
      <trkpt lat="42.83203" lon="0.15917">
        <ele>2041</ele>
        <time>2020-07-28T10:21:34.096Z</time>
      </trkpt>
      <trkpt lat="42.83203" lon="0.15917">
        <ele>2041</ele>
        <time>2020-07-28T10:21:35.096Z</time>
      </trkpt>
      <trkpt lat="42.832" lon="0.15926">
        <ele>2041</ele>
        <time>2020-07-28T10:21:36.096Z</time>
      </trkpt>
      <trkpt lat="42.83199" lon="0.15928">
        <ele>2041</ele>
        <time>2020-07-28T10:21:37.096Z</time>
      </trkpt>
      <trkpt lat="42.83199" lon="0.1593">
        <ele>2041</ele>
        <time>2020-07-28T10:21:38.096Z</time>
      </trkpt>
      <trkpt lat="42.83198" lon="0.15931">
        <ele>2041</ele>
        <time>2020-07-28T10:21:39.096Z</time>
      </trkpt>
      <trkpt lat="42.83197" lon="0.15932">
        <ele>2040</ele>
        <time>2020-07-28T10:21:40.096Z</time>
      </trkpt>
      <trkpt lat="42.83196" lon="0.15934">
        <ele>2039</ele>
        <time>2020-07-28T10:21:41.096Z</time>
      </trkpt>
      <trkpt lat="42.83196" lon="0.15936">
        <ele>2039</ele>
        <time>2020-07-28T10:21:42.096Z</time>
      </trkpt>
      <trkpt lat="42.83196" lon="0.15939">
        <ele>2040</ele>
        <time>2020-07-28T10:21:43.096Z</time>
      </trkpt>
      <trkpt lat="42.83195" lon="0.15941">
        <ele>2039</ele>
        <time>2020-07-28T10:21:44.096Z</time>
      </trkpt>
      <trkpt lat="42.83194" lon="0.15942">
        <ele>2038</ele>
        <time>2020-07-28T10:21:45.096Z</time>
      </trkpt>
      <trkpt lat="42.83193" lon="0.15944">
        <ele>2037</ele>
        <time>2020-07-28T10:21:46.096Z</time>
      </trkpt>
      <trkpt lat="42.83193" lon="0.15944">
        <ele>2037</ele>
        <time>2020-07-28T10:21:47.096Z</time>
      </trkpt>
      <trkpt lat="42.83192" lon="0.15946">
        <ele>2036</ele>
        <time>2020-07-28T10:21:48.096Z</time>
      </trkpt>
      <trkpt lat="42.83192" lon="0.15947">
        <ele>2035</ele>
        <time>2020-07-28T10:21:49.096Z</time>
      </trkpt>
      <trkpt lat="42.83191" lon="0.15949">
        <ele>2035</ele>
        <time>2020-07-28T10:21:50.096Z</time>
      </trkpt>
      <trkpt lat="42.83191" lon="0.15951">
        <ele>2034</ele>
        <time>2020-07-28T10:21:51.096Z</time>
      </trkpt>
      <trkpt lat="42.8319" lon="0.15953">
        <ele>2034</ele>
        <time>2020-07-28T10:21:52.096Z</time>
      </trkpt>
      <trkpt lat="42.8319" lon="0.15956">
        <ele>2034</ele>
        <time>2020-07-28T10:21:53.096Z</time>
      </trkpt>
      <trkpt lat="42.83189" lon="0.15958">
        <ele>2034</ele>
        <time>2020-07-28T10:21:54.096Z</time>
      </trkpt>
      <trkpt lat="42.83188" lon="0.15961">
        <ele>2033</ele>
        <time>2020-07-28T10:21:55.096Z</time>
      </trkpt>
      <trkpt lat="42.83187" lon="0.15964">
        <ele>2033</ele>
        <time>2020-07-28T10:21:56.096Z</time>
      </trkpt>
      <trkpt lat="42.83186" lon="0.15968">
        <ele>2032</ele>
        <time>2020-07-28T10:21:57.096Z</time>
      </trkpt>
      <trkpt lat="42.83186" lon="0.15968">
        <ele>2032</ele>
        <time>2020-07-28T10:21:58.096Z</time>
      </trkpt>
      <trkpt lat="42.83186" lon="0.15968">
        <ele>2032</ele>
        <time>2020-07-28T10:21:59.096Z</time>
      </trkpt>
      <trkpt lat="42.83185" lon="0.15975">
        <ele>2030</ele>
        <time>2020-07-28T10:22:00.096Z</time>
      </trkpt>
      <trkpt lat="42.83185" lon="0.15977">
        <ele>2031</ele>
        <time>2020-07-28T10:22:01.096Z</time>
      </trkpt>
      <trkpt lat="42.83184" lon="0.15979">
        <ele>2030</ele>
        <time>2020-07-28T10:22:02.096Z</time>
      </trkpt>
      <trkpt lat="42.83183" lon="0.15981">
        <ele>2030</ele>
        <time>2020-07-28T10:22:03.096Z</time>
      </trkpt>
      <trkpt lat="42.83183" lon="0.15983">
        <ele>2031</ele>
        <time>2020-07-28T10:22:04.096Z</time>
      </trkpt>
      <trkpt lat="42.83183" lon="0.15983">
        <ele>2031</ele>
        <time>2020-07-28T10:22:05.096Z</time>
      </trkpt>
      <trkpt lat="42.83182" lon="0.15986">
        <ele>2031</ele>
        <time>2020-07-28T10:22:06.096Z</time>
      </trkpt>
      <trkpt lat="42.83182" lon="0.15988">
        <ele>2031</ele>
        <time>2020-07-28T10:22:07.096Z</time>
      </trkpt>
      <trkpt lat="42.83181" lon="0.1599">
        <ele>2031</ele>
        <time>2020-07-28T10:22:08.096Z</time>
      </trkpt>
      <trkpt lat="42.8318" lon="0.15992">
        <ele>2030</ele>
        <time>2020-07-28T10:22:09.096Z</time>
      </trkpt>
      <trkpt lat="42.8318" lon="0.15992">
        <ele>2030</ele>
        <time>2020-07-28T10:22:10.096Z</time>
      </trkpt>
      <trkpt lat="42.83179" lon="0.15994">
        <ele>2030</ele>
        <time>2020-07-28T10:22:11.096Z</time>
      </trkpt>
      <trkpt lat="42.83178" lon="0.15995">
        <ele>2030</ele>
        <time>2020-07-28T10:22:12.096Z</time>
      </trkpt>
      <trkpt lat="42.83178" lon="0.15996">
        <ele>2028</ele>
        <time>2020-07-28T10:22:13.096Z</time>
      </trkpt>
      <trkpt lat="42.83177" lon="0.15997">
        <ele>2028</ele>
        <time>2020-07-28T10:22:14.096Z</time>
      </trkpt>
      <trkpt lat="42.83176" lon="0.15998">
        <ele>2027</ele>
        <time>2020-07-28T10:22:15.096Z</time>
      </trkpt>
      <trkpt lat="42.83176" lon="0.15998">
        <ele>2027</ele>
        <time>2020-07-28T10:22:16.096Z</time>
      </trkpt>
      <trkpt lat="42.83176" lon="0.15998">
        <ele>2027</ele>
        <time>2020-07-28T10:22:17.096Z</time>
      </trkpt>
      <trkpt lat="42.83172" lon="0.15997">
        <ele>2027</ele>
        <time>2020-07-28T10:22:18.096Z</time>
      </trkpt>
      <trkpt lat="42.8317" lon="0.15997">
        <ele>2027</ele>
        <time>2020-07-28T10:22:19.096Z</time>
      </trkpt>
      <trkpt lat="42.8317" lon="0.15997">
        <ele>2027</ele>
        <time>2020-07-28T10:22:20.096Z</time>
      </trkpt>
      <trkpt lat="42.83169" lon="0.15998">
        <ele>2027</ele>
        <time>2020-07-28T10:22:21.096Z</time>
      </trkpt>
      <trkpt lat="42.83169" lon="0.16">
        <ele>2027</ele>
        <time>2020-07-28T10:22:22.096Z</time>
      </trkpt>
      <trkpt lat="42.83169" lon="0.16">
        <ele>2027</ele>
        <time>2020-07-28T10:22:23.096Z</time>
      </trkpt>
      <trkpt lat="42.83169" lon="0.16002">
        <ele>2028</ele>
        <time>2020-07-28T10:22:24.096Z</time>
      </trkpt>
      <trkpt lat="42.83169" lon="0.16004">
        <ele>2028</ele>
        <time>2020-07-28T10:22:25.096Z</time>
      </trkpt>
      <trkpt lat="42.83169" lon="0.16005">
        <ele>2026</ele>
        <time>2020-07-28T10:22:26.096Z</time>
      </trkpt>
      <trkpt lat="42.83169" lon="0.16006">
        <ele>2026</ele>
        <time>2020-07-28T10:22:27.096Z</time>
      </trkpt>
      <trkpt lat="42.83169" lon="0.16008">
        <ele>2025</ele>
        <time>2020-07-28T10:22:28.096Z</time>
      </trkpt>
      <trkpt lat="42.83169" lon="0.16008">
        <ele>2025</ele>
        <time>2020-07-28T10:22:29.096Z</time>
      </trkpt>
      <trkpt lat="42.83169" lon="0.16009">
        <ele>2025</ele>
        <time>2020-07-28T10:22:30.096Z</time>
      </trkpt>
      <trkpt lat="42.83168" lon="0.1601">
        <ele>2024</ele>
        <time>2020-07-28T10:22:31.096Z</time>
      </trkpt>
      <trkpt lat="42.83168" lon="0.16011">
        <ele>2024</ele>
        <time>2020-07-28T10:22:32.096Z</time>
      </trkpt>
      <trkpt lat="42.83168" lon="0.16011">
        <ele>2023</ele>
        <time>2020-07-28T10:22:33.096Z</time>
      </trkpt>
      <trkpt lat="42.83168" lon="0.16011">
        <ele>2023</ele>
        <time>2020-07-28T10:22:34.096Z</time>
      </trkpt>
      <trkpt lat="42.83167" lon="0.1601">
        <ele>2022</ele>
        <time>2020-07-28T10:22:35.096Z</time>
      </trkpt>
      <trkpt lat="42.83167" lon="0.1601">
        <ele>2021</ele>
        <time>2020-07-28T10:22:36.096Z</time>
      </trkpt>
      <trkpt lat="42.83166" lon="0.1601">
        <ele>2021</ele>
        <time>2020-07-28T10:22:37.096Z</time>
      </trkpt>
      <trkpt lat="42.83166" lon="0.1601">
        <ele>2021</ele>
        <time>2020-07-28T10:22:38.096Z</time>
      </trkpt>
      <trkpt lat="42.83166" lon="0.16009">
        <ele>2020</ele>
        <time>2020-07-28T10:22:39.096Z</time>
      </trkpt>
      <trkpt lat="42.83165" lon="0.16009">
        <ele>2019</ele>
        <time>2020-07-28T10:22:40.096Z</time>
      </trkpt>
      <trkpt lat="42.83165" lon="0.16008">
        <ele>2018</ele>
        <time>2020-07-28T10:22:41.096Z</time>
      </trkpt>
      <trkpt lat="42.83164" lon="0.16008">
        <ele>2018</ele>
        <time>2020-07-28T10:22:42.096Z</time>
      </trkpt>
      <trkpt lat="42.83164" lon="0.16007">
        <ele>2017</ele>
        <time>2020-07-28T10:22:43.096Z</time>
      </trkpt>
      <trkpt lat="42.83163" lon="0.16007">
        <ele>2015</ele>
        <time>2020-07-28T10:22:44.096Z</time>
      </trkpt>
      <trkpt lat="42.83162" lon="0.16007">
        <ele>2014</ele>
        <time>2020-07-28T10:22:45.096Z</time>
      </trkpt>
      <trkpt lat="42.83162" lon="0.16007">
        <ele>2014</ele>
        <time>2020-07-28T10:22:46.096Z</time>
      </trkpt>
      <trkpt lat="42.83161" lon="0.16006">
        <ele>2012</ele>
        <time>2020-07-28T10:22:47.096Z</time>
      </trkpt>
      <trkpt lat="42.8316" lon="0.16006">
        <ele>2011</ele>
        <time>2020-07-28T10:22:48.096Z</time>
      </trkpt>
      <trkpt lat="42.83158" lon="0.16006">
        <ele>2014</ele>
        <time>2020-07-28T10:22:49.096Z</time>
      </trkpt>
      <trkpt lat="42.83156" lon="0.16006">
        <ele>2014</ele>
        <time>2020-07-28T10:22:50.096Z</time>
      </trkpt>
      <trkpt lat="42.83154" lon="0.16006">
        <ele>2012</ele>
        <time>2020-07-28T10:22:51.096Z</time>
      </trkpt>
      <trkpt lat="42.83153" lon="0.16007">
        <ele>2013</ele>
        <time>2020-07-28T10:22:52.096Z</time>
      </trkpt>
      <trkpt lat="42.83152" lon="0.16009">
        <ele>2012</ele>
        <time>2020-07-28T10:22:53.096Z</time>
      </trkpt>
      <trkpt lat="42.83151" lon="0.1601">
        <ele>2011</ele>
        <time>2020-07-28T10:22:54.096Z</time>
      </trkpt>
      <trkpt lat="42.83149" lon="0.16011">
        <ele>2010</ele>
        <time>2020-07-28T10:22:55.096Z</time>
      </trkpt>
      <trkpt lat="42.83149" lon="0.16011">
        <ele>2010</ele>
        <time>2020-07-28T10:22:56.096Z</time>
      </trkpt>
      <trkpt lat="42.83145" lon="0.16013">
        <ele>2009</ele>
        <time>2020-07-28T10:22:57.096Z</time>
      </trkpt>
      <trkpt lat="42.83145" lon="0.16013">
        <ele>2009</ele>
        <time>2020-07-28T10:22:58.096Z</time>
      </trkpt>
      <trkpt lat="42.83145" lon="0.16013">
        <ele>2009</ele>
        <time>2020-07-28T10:22:59.096Z</time>
      </trkpt>
      <trkpt lat="42.83141" lon="0.16015">
        <ele>2009</ele>
        <time>2020-07-28T10:23:00.096Z</time>
      </trkpt>
      <trkpt lat="42.83141" lon="0.16015">
        <ele>2009</ele>
        <time>2020-07-28T10:23:01.096Z</time>
      </trkpt>
      <trkpt lat="42.83139" lon="0.16018">
        <ele>2010</ele>
        <time>2020-07-28T10:23:02.096Z</time>
      </trkpt>
      <trkpt lat="42.83139" lon="0.16022">
        <ele>2009</ele>
        <time>2020-07-28T10:23:03.096Z</time>
      </trkpt>
      <trkpt lat="42.83139" lon="0.16022">
        <ele>2009</ele>
        <time>2020-07-28T10:23:04.096Z</time>
      </trkpt>
      <trkpt lat="42.83139" lon="0.16022">
        <ele>2009</ele>
        <time>2020-07-28T10:23:05.096Z</time>
      </trkpt>
      <trkpt lat="42.83138" lon="0.16031">
        <ele>2009</ele>
        <time>2020-07-28T10:23:06.096Z</time>
      </trkpt>
      <trkpt lat="42.83138" lon="0.16031">
        <ele>2009</ele>
        <time>2020-07-28T10:23:07.096Z</time>
      </trkpt>
      <trkpt lat="42.83138" lon="0.16031">
        <ele>2009</ele>
        <time>2020-07-28T10:23:08.096Z</time>
      </trkpt>
      <trkpt lat="42.83136" lon="0.16043">
        <ele>2010</ele>
        <time>2020-07-28T10:23:09.096Z</time>
      </trkpt>
      <trkpt lat="42.83136" lon="0.16043">
        <ele>2010</ele>
        <time>2020-07-28T10:23:10.096Z</time>
      </trkpt>
      <trkpt lat="42.83134" lon="0.16051">
        <ele>2010</ele>
        <time>2020-07-28T10:23:11.096Z</time>
      </trkpt>
      <trkpt lat="42.83134" lon="0.16055">
        <ele>2011</ele>
        <time>2020-07-28T10:23:12.096Z</time>
      </trkpt>
      <trkpt lat="42.83134" lon="0.16055">
        <ele>2011</ele>
        <time>2020-07-28T10:23:13.096Z</time>
      </trkpt>
      <trkpt lat="42.83134" lon="0.16055">
        <ele>2011</ele>
        <time>2020-07-28T10:23:14.096Z</time>
      </trkpt>
      <trkpt lat="42.83133" lon="0.16065">
        <ele>2011</ele>
        <time>2020-07-28T10:23:15.096Z</time>
      </trkpt>
      <trkpt lat="42.83133" lon="0.16065">
        <ele>2011</ele>
        <time>2020-07-28T10:23:16.096Z</time>
      </trkpt>
      <trkpt lat="42.83133" lon="0.16065">
        <ele>2011</ele>
        <time>2020-07-28T10:23:17.096Z</time>
      </trkpt>
      <trkpt lat="42.83133" lon="0.16075">
        <ele>2010</ele>
        <time>2020-07-28T10:23:18.096Z</time>
      </trkpt>
      <trkpt lat="42.83133" lon="0.16075">
        <ele>2010</ele>
        <time>2020-07-28T10:23:19.096Z</time>
      </trkpt>
      <trkpt lat="42.83133" lon="0.16075">
        <ele>2010</ele>
        <time>2020-07-28T10:23:20.096Z</time>
      </trkpt>
      <trkpt lat="42.83135" lon="0.16083">
        <ele>2008</ele>
        <time>2020-07-28T10:23:21.096Z</time>
      </trkpt>
      <trkpt lat="42.83136" lon="0.16085">
        <ele>2008</ele>
        <time>2020-07-28T10:23:22.096Z</time>
      </trkpt>
      <trkpt lat="42.83136" lon="0.16087">
        <ele>2008</ele>
        <time>2020-07-28T10:23:23.096Z</time>
      </trkpt>
      <trkpt lat="42.83137" lon="0.16089">
        <ele>2009</ele>
        <time>2020-07-28T10:23:24.096Z</time>
      </trkpt>
      <trkpt lat="42.83137" lon="0.16089">
        <ele>2009</ele>
        <time>2020-07-28T10:23:25.096Z</time>
      </trkpt>
      <trkpt lat="42.83137" lon="0.16089">
        <ele>2009</ele>
        <time>2020-07-28T10:23:26.096Z</time>
      </trkpt>
      <trkpt lat="42.83137" lon="0.16092">
        <ele>2008</ele>
        <time>2020-07-28T10:23:27.096Z</time>
      </trkpt>
      <trkpt lat="42.83136" lon="0.16093">
        <ele>2009</ele>
        <time>2020-07-28T10:23:28.096Z</time>
      </trkpt>
      <trkpt lat="42.83136" lon="0.16093">
        <ele>2009</ele>
        <time>2020-07-28T10:23:29.096Z</time>
      </trkpt>
      <trkpt lat="42.83137" lon="0.16096">
        <ele>2006</ele>
        <time>2020-07-28T10:23:30.096Z</time>
      </trkpt>
      <trkpt lat="42.83137" lon="0.16096">
        <ele>2006</ele>
        <time>2020-07-28T10:23:31.096Z</time>
      </trkpt>
      <trkpt lat="42.83137" lon="0.16096">
        <ele>2006</ele>
        <time>2020-07-28T10:23:32.096Z</time>
      </trkpt>
      <trkpt lat="42.83136" lon="0.16103">
        <ele>2005</ele>
        <time>2020-07-28T10:23:33.096Z</time>
      </trkpt>
      <trkpt lat="42.83136" lon="0.16103">
        <ele>2005</ele>
        <time>2020-07-28T10:23:34.096Z</time>
      </trkpt>
      <trkpt lat="42.83136" lon="0.16103">
        <ele>2005</ele>
        <time>2020-07-28T10:23:35.096Z</time>
      </trkpt>
      <trkpt lat="42.83138" lon="0.16111">
        <ele>2005</ele>
        <time>2020-07-28T10:23:36.096Z</time>
      </trkpt>
      <trkpt lat="42.83138" lon="0.16111">
        <ele>2005</ele>
        <time>2020-07-28T10:23:37.096Z</time>
      </trkpt>
      <trkpt lat="42.83138" lon="0.16111">
        <ele>2005</ele>
        <time>2020-07-28T10:23:38.096Z</time>
      </trkpt>
      <trkpt lat="42.83137" lon="0.16119">
        <ele>2003</ele>
        <time>2020-07-28T10:23:39.096Z</time>
      </trkpt>
      <trkpt lat="42.83137" lon="0.16119">
        <ele>2003</ele>
        <time>2020-07-28T10:23:40.096Z</time>
      </trkpt>
      <trkpt lat="42.83137" lon="0.16119">
        <ele>2003</ele>
        <time>2020-07-28T10:23:41.096Z</time>
      </trkpt>
      <trkpt lat="42.83135" lon="0.16124">
        <ele>2002</ele>
        <time>2020-07-28T10:23:42.096Z</time>
      </trkpt>
      <trkpt lat="42.83135" lon="0.16124">
        <ele>2002</ele>
        <time>2020-07-28T10:23:43.096Z</time>
      </trkpt>
      <trkpt lat="42.83135" lon="0.16124">
        <ele>2002</ele>
        <time>2020-07-28T10:23:44.096Z</time>
      </trkpt>
      <trkpt lat="42.83133" lon="0.16128">
        <ele>2001</ele>
        <time>2020-07-28T10:23:45.096Z</time>
      </trkpt>
      <trkpt lat="42.83133" lon="0.16128">
        <ele>2001</ele>
        <time>2020-07-28T10:23:46.096Z</time>
      </trkpt>
      <trkpt lat="42.83133" lon="0.16128">
        <ele>2001</ele>
        <time>2020-07-28T10:23:47.096Z</time>
      </trkpt>
      <trkpt lat="42.83132" lon="0.1613">
        <ele>2001</ele>
        <time>2020-07-28T10:23:48.096Z</time>
      </trkpt>
      <trkpt lat="42.83132" lon="0.1613">
        <ele>2001</ele>
        <time>2020-07-28T10:23:49.096Z</time>
      </trkpt>
      <trkpt lat="42.83132" lon="0.1613">
        <ele>2001</ele>
        <time>2020-07-28T10:23:50.096Z</time>
      </trkpt>
      <trkpt lat="42.8313" lon="0.16133">
        <ele>2000</ele>
        <time>2020-07-28T10:23:51.096Z</time>
      </trkpt>
      <trkpt lat="42.83129" lon="0.16134">
        <ele>2000</ele>
        <time>2020-07-28T10:23:52.096Z</time>
      </trkpt>
      <trkpt lat="42.83128" lon="0.16136">
        <ele>2000</ele>
        <time>2020-07-28T10:23:53.096Z</time>
      </trkpt>
      <trkpt lat="42.83126" lon="0.16138">
        <ele>2000</ele>
        <time>2020-07-28T10:23:54.096Z</time>
      </trkpt>
      <trkpt lat="42.83125" lon="0.16139">
        <ele>2000</ele>
        <time>2020-07-28T10:23:55.096Z</time>
      </trkpt>
      <trkpt lat="42.83125" lon="0.16139">
        <ele>2000</ele>
        <time>2020-07-28T10:23:56.096Z</time>
      </trkpt>
      <trkpt lat="42.83124" lon="0.1614">
        <ele>2000</ele>
        <time>2020-07-28T10:23:57.096Z</time>
      </trkpt>
      <trkpt lat="42.83124" lon="0.1614">
        <ele>2000</ele>
        <time>2020-07-28T10:23:58.096Z</time>
      </trkpt>
      <trkpt lat="42.83124" lon="0.1614">
        <ele>2000</ele>
        <time>2020-07-28T10:23:59.096Z</time>
      </trkpt>
      <trkpt lat="42.83122" lon="0.16142">
        <ele>2001</ele>
        <time>2020-07-28T10:24:00.096Z</time>
      </trkpt>
      <trkpt lat="42.83122" lon="0.16142">
        <ele>2001</ele>
        <time>2020-07-28T10:24:01.096Z</time>
      </trkpt>
      <trkpt lat="42.83121" lon="0.16144">
        <ele>2001</ele>
        <time>2020-07-28T10:24:02.096Z</time>
      </trkpt>
      <trkpt lat="42.83121" lon="0.16145">
        <ele>2001</ele>
        <time>2020-07-28T10:24:03.096Z</time>
      </trkpt>
      <trkpt lat="42.8312" lon="0.16145">
        <ele>2001</ele>
        <time>2020-07-28T10:24:04.096Z</time>
      </trkpt>
      <trkpt lat="42.8312" lon="0.16145">
        <ele>2001</ele>
        <time>2020-07-28T10:24:05.096Z</time>
      </trkpt>
      <trkpt lat="42.83119" lon="0.16146">
        <ele>1999</ele>
        <time>2020-07-28T10:24:06.096Z</time>
      </trkpt>
      <trkpt lat="42.83119" lon="0.16146">
        <ele>1999</ele>
        <time>2020-07-28T10:24:07.096Z</time>
      </trkpt>
      <trkpt lat="42.83119" lon="0.16146">
        <ele>1999</ele>
        <time>2020-07-28T10:24:08.096Z</time>
      </trkpt>
      <trkpt lat="42.83117" lon="0.16149">
        <ele>1998</ele>
        <time>2020-07-28T10:24:09.096Z</time>
      </trkpt>
      <trkpt lat="42.83117" lon="0.16149">
        <ele>1998</ele>
        <time>2020-07-28T10:24:10.096Z</time>
      </trkpt>
      <trkpt lat="42.83117" lon="0.16152">
        <ele>1997</ele>
        <time>2020-07-28T10:24:11.096Z</time>
      </trkpt>
      <trkpt lat="42.83116" lon="0.16154">
        <ele>1998</ele>
        <time>2020-07-28T10:24:12.096Z</time>
      </trkpt>
      <trkpt lat="42.83116" lon="0.16155">
        <ele>1997</ele>
        <time>2020-07-28T10:24:13.096Z</time>
      </trkpt>
      <trkpt lat="42.83116" lon="0.16155">
        <ele>1997</ele>
        <time>2020-07-28T10:24:14.096Z</time>
      </trkpt>
      <trkpt lat="42.83115" lon="0.16157">
        <ele>1997</ele>
        <time>2020-07-28T10:24:15.096Z</time>
      </trkpt>
      <trkpt lat="42.83115" lon="0.16157">
        <ele>1997</ele>
        <time>2020-07-28T10:24:16.096Z</time>
      </trkpt>
      <trkpt lat="42.83115" lon="0.16157">
        <ele>1997</ele>
        <time>2020-07-28T10:24:17.096Z</time>
      </trkpt>
      <trkpt lat="42.83114" lon="0.16162">
        <ele>1996</ele>
        <time>2020-07-28T10:24:18.096Z</time>
      </trkpt>
      <trkpt lat="42.83114" lon="0.16162">
        <ele>1996</ele>
        <time>2020-07-28T10:24:19.096Z</time>
      </trkpt>
      <trkpt lat="42.83113" lon="0.16164">
        <ele>1996</ele>
        <time>2020-07-28T10:24:20.096Z</time>
      </trkpt>
      <trkpt lat="42.83112" lon="0.16165">
        <ele>1996</ele>
        <time>2020-07-28T10:24:21.096Z</time>
      </trkpt>
      <trkpt lat="42.83112" lon="0.16166">
        <ele>1997</ele>
        <time>2020-07-28T10:24:22.096Z</time>
      </trkpt>
      <trkpt lat="42.83112" lon="0.16166">
        <ele>1997</ele>
        <time>2020-07-28T10:24:23.096Z</time>
      </trkpt>
      <trkpt lat="42.83112" lon="0.16167">
        <ele>1996</ele>
        <time>2020-07-28T10:24:24.096Z</time>
      </trkpt>
      <trkpt lat="42.83112" lon="0.16167">
        <ele>1995</ele>
        <time>2020-07-28T10:24:25.096Z</time>
      </trkpt>
      <trkpt lat="42.83112" lon="0.16167">
        <ele>1995</ele>
        <time>2020-07-28T10:24:26.096Z</time>
      </trkpt>
      <trkpt lat="42.83111" lon="0.16169">
        <ele>1995</ele>
        <time>2020-07-28T10:24:27.096Z</time>
      </trkpt>
      <trkpt lat="42.83111" lon="0.16169">
        <ele>1995</ele>
        <time>2020-07-28T10:24:28.096Z</time>
      </trkpt>
      <trkpt lat="42.83111" lon="0.16169">
        <ele>1995</ele>
        <time>2020-07-28T10:24:29.096Z</time>
      </trkpt>
      <trkpt lat="42.83109" lon="0.16173">
        <ele>1996</ele>
        <time>2020-07-28T10:24:30.096Z</time>
      </trkpt>
      <trkpt lat="42.83109" lon="0.16173">
        <ele>1996</ele>
        <time>2020-07-28T10:24:31.096Z</time>
      </trkpt>
      <trkpt lat="42.83109" lon="0.16173">
        <ele>1996</ele>
        <time>2020-07-28T10:24:32.096Z</time>
      </trkpt>
      <trkpt lat="42.83106" lon="0.16178">
        <ele>1998</ele>
        <time>2020-07-28T10:24:33.096Z</time>
      </trkpt>
      <trkpt lat="42.83106" lon="0.16178">
        <ele>1998</ele>
        <time>2020-07-28T10:24:34.096Z</time>
      </trkpt>
      <trkpt lat="42.83105" lon="0.16181">
        <ele>1996</ele>
        <time>2020-07-28T10:24:35.096Z</time>
      </trkpt>
      <trkpt lat="42.83105" lon="0.16181">
        <ele>1995</ele>
        <time>2020-07-28T10:24:36.096Z</time>
      </trkpt>
      <trkpt lat="42.83105" lon="0.16181">
        <ele>1995</ele>
        <time>2020-07-28T10:24:37.096Z</time>
      </trkpt>
      <trkpt lat="42.83105" lon="0.16181">
        <ele>1995</ele>
        <time>2020-07-28T10:24:38.096Z</time>
      </trkpt>
      <trkpt lat="42.83103" lon="0.16184">
        <ele>1994</ele>
        <time>2020-07-28T10:24:39.096Z</time>
      </trkpt>
      <trkpt lat="42.83102" lon="0.16185">
        <ele>1995</ele>
        <time>2020-07-28T10:24:40.096Z</time>
      </trkpt>
      <trkpt lat="42.83102" lon="0.16185">
        <ele>1995</ele>
        <time>2020-07-28T10:24:41.096Z</time>
      </trkpt>
      <trkpt lat="42.83101" lon="0.16187">
        <ele>1995</ele>
        <time>2020-07-28T10:24:42.096Z</time>
      </trkpt>
      <trkpt lat="42.83101" lon="0.16187">
        <ele>1995</ele>
        <time>2020-07-28T10:24:43.096Z</time>
      </trkpt>
      <trkpt lat="42.831" lon="0.1619">
        <ele>1993</ele>
        <time>2020-07-28T10:24:44.096Z</time>
      </trkpt>
      <trkpt lat="42.83099" lon="0.16191">
        <ele>1993</ele>
        <time>2020-07-28T10:24:45.096Z</time>
      </trkpt>
      <trkpt lat="42.83099" lon="0.16193">
        <ele>1993</ele>
        <time>2020-07-28T10:24:46.096Z</time>
      </trkpt>
      <trkpt lat="42.83099" lon="0.16193">
        <ele>1993</ele>
        <time>2020-07-28T10:24:47.096Z</time>
      </trkpt>
      <trkpt lat="42.83096" lon="0.16197">
        <ele>1992</ele>
        <time>2020-07-28T10:24:48.096Z</time>
      </trkpt>
      <trkpt lat="42.83096" lon="0.16197">
        <ele>1992</ele>
        <time>2020-07-28T10:24:49.096Z</time>
      </trkpt>
      <trkpt lat="42.83096" lon="0.16197">
        <ele>1992</ele>
        <time>2020-07-28T10:24:50.096Z</time>
      </trkpt>
      <trkpt lat="42.83094" lon="0.16202">
        <ele>1991</ele>
        <time>2020-07-28T10:24:51.096Z</time>
      </trkpt>
      <trkpt lat="42.83094" lon="0.16202">
        <ele>1991</ele>
        <time>2020-07-28T10:24:52.096Z</time>
      </trkpt>
      <trkpt lat="42.83094" lon="0.16202">
        <ele>1991</ele>
        <time>2020-07-28T10:24:53.096Z</time>
      </trkpt>
      <trkpt lat="42.83092" lon="0.16208">
        <ele>1990</ele>
        <time>2020-07-28T10:24:54.096Z</time>
      </trkpt>
      <trkpt lat="42.83091" lon="0.1621">
        <ele>1990</ele>
        <time>2020-07-28T10:24:55.096Z</time>
      </trkpt>
      <trkpt lat="42.83091" lon="0.1621">
        <ele>1990</ele>
        <time>2020-07-28T10:24:56.096Z</time>
      </trkpt>
      <trkpt lat="42.83089" lon="0.16214">
        <ele>1990</ele>
        <time>2020-07-28T10:24:57.096Z</time>
      </trkpt>
      <trkpt lat="42.83089" lon="0.16216">
        <ele>1990</ele>
        <time>2020-07-28T10:24:58.096Z</time>
      </trkpt>
      <trkpt lat="42.83089" lon="0.16216">
        <ele>1990</ele>
        <time>2020-07-28T10:24:59.096Z</time>
      </trkpt>
      <trkpt lat="42.83087" lon="0.16222">
        <ele>1992</ele>
        <time>2020-07-28T10:25:00.096Z</time>
      </trkpt>
      <trkpt lat="42.83086" lon="0.16224">
        <ele>1992</ele>
        <time>2020-07-28T10:25:01.096Z</time>
      </trkpt>
      <trkpt lat="42.83086" lon="0.16227">
        <ele>1991</ele>
        <time>2020-07-28T10:25:02.096Z</time>
      </trkpt>
      <trkpt lat="42.83086" lon="0.16229">
        <ele>1990</ele>
        <time>2020-07-28T10:25:03.096Z</time>
      </trkpt>
      <trkpt lat="42.83086" lon="0.16229">
        <ele>1990</ele>
        <time>2020-07-28T10:25:04.096Z</time>
      </trkpt>
      <trkpt lat="42.83086" lon="0.16229">
        <ele>1990</ele>
        <time>2020-07-28T10:25:05.096Z</time>
      </trkpt>
      <trkpt lat="42.83085" lon="0.16236">
        <ele>1988</ele>
        <time>2020-07-28T10:25:06.096Z</time>
      </trkpt>
      <trkpt lat="42.83085" lon="0.16238">
        <ele>1988</ele>
        <time>2020-07-28T10:25:07.096Z</time>
      </trkpt>
      <trkpt lat="42.83085" lon="0.16238">
        <ele>1988</ele>
        <time>2020-07-28T10:25:08.096Z</time>
      </trkpt>
      <trkpt lat="42.83084" lon="0.16242">
        <ele>1986</ele>
        <time>2020-07-28T10:25:09.096Z</time>
      </trkpt>
      <trkpt lat="42.83084" lon="0.16242">
        <ele>1986</ele>
        <time>2020-07-28T10:25:10.096Z</time>
      </trkpt>
      <trkpt lat="42.83084" lon="0.16242">
        <ele>1986</ele>
        <time>2020-07-28T10:25:11.096Z</time>
      </trkpt>
      <trkpt lat="42.83081" lon="0.16247">
        <ele>1985</ele>
        <time>2020-07-28T10:25:12.096Z</time>
      </trkpt>
      <trkpt lat="42.83081" lon="0.16247">
        <ele>1985</ele>
        <time>2020-07-28T10:25:13.096Z</time>
      </trkpt>
      <trkpt lat="42.83081" lon="0.16247">
        <ele>1985</ele>
        <time>2020-07-28T10:25:14.096Z</time>
      </trkpt>
      <trkpt lat="42.83079" lon="0.16252">
        <ele>1986</ele>
        <time>2020-07-28T10:25:15.096Z</time>
      </trkpt>
      <trkpt lat="42.83079" lon="0.16252">
        <ele>1986</ele>
        <time>2020-07-28T10:25:16.096Z</time>
      </trkpt>
      <trkpt lat="42.83077" lon="0.16256">
        <ele>1984</ele>
        <time>2020-07-28T10:25:17.096Z</time>
      </trkpt>
      <trkpt lat="42.83077" lon="0.16257">
        <ele>1983</ele>
        <time>2020-07-28T10:25:18.096Z</time>
      </trkpt>
      <trkpt lat="42.83077" lon="0.16257">
        <ele>1983</ele>
        <time>2020-07-28T10:25:19.096Z</time>
      </trkpt>
      <trkpt lat="42.83077" lon="0.16257">
        <ele>1983</ele>
        <time>2020-07-28T10:25:20.096Z</time>
      </trkpt>
      <trkpt lat="42.83076" lon="0.16263">
        <ele>1981</ele>
        <time>2020-07-28T10:25:21.096Z</time>
      </trkpt>
      <trkpt lat="42.83076" lon="0.16263">
        <ele>1981</ele>
        <time>2020-07-28T10:25:22.096Z</time>
      </trkpt>
      <trkpt lat="42.83076" lon="0.16263">
        <ele>1981</ele>
        <time>2020-07-28T10:25:23.096Z</time>
      </trkpt>
      <trkpt lat="42.83075" lon="0.16269">
        <ele>1981</ele>
        <time>2020-07-28T10:25:24.096Z</time>
      </trkpt>
      <trkpt lat="42.83075" lon="0.16269">
        <ele>1981</ele>
        <time>2020-07-28T10:25:25.096Z</time>
      </trkpt>
      <trkpt lat="42.83075" lon="0.16269">
        <ele>1981</ele>
        <time>2020-07-28T10:25:26.096Z</time>
      </trkpt>
      <trkpt lat="42.83076" lon="0.16276">
        <ele>1979</ele>
        <time>2020-07-28T10:25:27.096Z</time>
      </trkpt>
      <trkpt lat="42.83076" lon="0.16276">
        <ele>1979</ele>
        <time>2020-07-28T10:25:28.096Z</time>
      </trkpt>
      <trkpt lat="42.83076" lon="0.16276">
        <ele>1979</ele>
        <time>2020-07-28T10:25:29.096Z</time>
      </trkpt>
      <trkpt lat="42.83078" lon="0.16283">
        <ele>1976</ele>
        <time>2020-07-28T10:25:30.096Z</time>
      </trkpt>
      <trkpt lat="42.83078" lon="0.16283">
        <ele>1976</ele>
        <time>2020-07-28T10:25:31.096Z</time>
      </trkpt>
      <trkpt lat="42.83078" lon="0.16283">
        <ele>1976</ele>
        <time>2020-07-28T10:25:32.096Z</time>
      </trkpt>
      <trkpt lat="42.83078" lon="0.16289">
        <ele>1975</ele>
        <time>2020-07-28T10:25:33.096Z</time>
      </trkpt>
      <trkpt lat="42.83078" lon="0.16289">
        <ele>1975</ele>
        <time>2020-07-28T10:25:34.096Z</time>
      </trkpt>
      <trkpt lat="42.83078" lon="0.16289">
        <ele>1975</ele>
        <time>2020-07-28T10:25:35.096Z</time>
      </trkpt>
      <trkpt lat="42.83078" lon="0.16294">
        <ele>1974</ele>
        <time>2020-07-28T10:25:36.096Z</time>
      </trkpt>
      <trkpt lat="42.83078" lon="0.16294">
        <ele>1974</ele>
        <time>2020-07-28T10:25:37.096Z</time>
      </trkpt>
      <trkpt lat="42.83078" lon="0.16294">
        <ele>1974</ele>
        <time>2020-07-28T10:25:38.096Z</time>
      </trkpt>
      <trkpt lat="42.83077" lon="0.163">
        <ele>1975</ele>
        <time>2020-07-28T10:25:39.096Z</time>
      </trkpt>
      <trkpt lat="42.83077" lon="0.163">
        <ele>1975</ele>
        <time>2020-07-28T10:25:40.096Z</time>
      </trkpt>
      <trkpt lat="42.83077" lon="0.163">
        <ele>1975</ele>
        <time>2020-07-28T10:25:41.096Z</time>
      </trkpt>
      <trkpt lat="42.83077" lon="0.16305">
        <ele>1974</ele>
        <time>2020-07-28T10:25:42.096Z</time>
      </trkpt>
      <trkpt lat="42.83077" lon="0.16305">
        <ele>1974</ele>
        <time>2020-07-28T10:25:43.096Z</time>
      </trkpt>
      <trkpt lat="42.83077" lon="0.16305">
        <ele>1974</ele>
        <time>2020-07-28T10:25:44.096Z</time>
      </trkpt>
      <trkpt lat="42.83077" lon="0.16309">
        <ele>1974</ele>
        <time>2020-07-28T10:25:45.096Z</time>
      </trkpt>
      <trkpt lat="42.83077" lon="0.16309">
        <ele>1974</ele>
        <time>2020-07-28T10:25:46.096Z</time>
      </trkpt>
      <trkpt lat="42.83077" lon="0.16309">
        <ele>1974</ele>
        <time>2020-07-28T10:25:47.096Z</time>
      </trkpt>
      <trkpt lat="42.83076" lon="0.16311">
        <ele>1975</ele>
        <time>2020-07-28T10:25:48.096Z</time>
      </trkpt>
      <trkpt lat="42.83076" lon="0.16311">
        <ele>1975</ele>
        <time>2020-07-28T10:25:49.096Z</time>
      </trkpt>
      <trkpt lat="42.83076" lon="0.16311">
        <ele>1975</ele>
        <time>2020-07-28T10:25:50.096Z</time>
      </trkpt>
      <trkpt lat="42.83075" lon="0.16315">
        <ele>1973</ele>
        <time>2020-07-28T10:25:51.096Z</time>
      </trkpt>
      <trkpt lat="42.83075" lon="0.16315">
        <ele>1973</ele>
        <time>2020-07-28T10:25:52.096Z</time>
      </trkpt>
      <trkpt lat="42.83075" lon="0.16315">
        <ele>1973</ele>
        <time>2020-07-28T10:25:53.096Z</time>
      </trkpt>
      <trkpt lat="42.83074" lon="0.16318">
        <ele>1972</ele>
        <time>2020-07-28T10:25:54.096Z</time>
      </trkpt>
      <trkpt lat="42.83074" lon="0.16318">
        <ele>1972</ele>
        <time>2020-07-28T10:25:55.096Z</time>
      </trkpt>
      <trkpt lat="42.83074" lon="0.16318">
        <ele>1972</ele>
        <time>2020-07-28T10:25:56.096Z</time>
      </trkpt>
      <trkpt lat="42.83072" lon="0.16319">
        <ele>1974</ele>
        <time>2020-07-28T10:25:57.096Z</time>
      </trkpt>
      <trkpt lat="42.83072" lon="0.16319">
        <ele>1974</ele>
        <time>2020-07-28T10:25:58.096Z</time>
      </trkpt>
      <trkpt lat="42.83072" lon="0.16319">
        <ele>1974</ele>
        <time>2020-07-28T10:25:59.096Z</time>
      </trkpt>
      <trkpt lat="42.83069" lon="0.16317">
        <ele>1975</ele>
        <time>2020-07-28T10:26:00.096Z</time>
      </trkpt>
      <trkpt lat="42.83069" lon="0.16317">
        <ele>1975</ele>
        <time>2020-07-28T10:26:01.096Z</time>
      </trkpt>
      <trkpt lat="42.83069" lon="0.16317">
        <ele>1975</ele>
        <time>2020-07-28T10:26:02.096Z</time>
      </trkpt>
      <trkpt lat="42.83067" lon="0.16316">
        <ele>1975</ele>
        <time>2020-07-28T10:26:03.096Z</time>
      </trkpt>
      <trkpt lat="42.83067" lon="0.16316">
        <ele>1975</ele>
        <time>2020-07-28T10:26:04.096Z</time>
      </trkpt>
      <trkpt lat="42.83067" lon="0.16316">
        <ele>1975</ele>
        <time>2020-07-28T10:26:05.096Z</time>
      </trkpt>
      <trkpt lat="42.83065" lon="0.16315">
        <ele>1976</ele>
        <time>2020-07-28T10:26:06.096Z</time>
      </trkpt>
      <trkpt lat="42.83065" lon="0.16315">
        <ele>1976</ele>
        <time>2020-07-28T10:26:07.096Z</time>
      </trkpt>
      <trkpt lat="42.83065" lon="0.16315">
        <ele>1976</ele>
        <time>2020-07-28T10:26:08.096Z</time>
      </trkpt>
      <trkpt lat="42.83063" lon="0.16313">
        <ele>1975</ele>
        <time>2020-07-28T10:26:09.096Z</time>
      </trkpt>
      <trkpt lat="42.83063" lon="0.16313">
        <ele>1975</ele>
        <time>2020-07-28T10:26:10.096Z</time>
      </trkpt>
      <trkpt lat="42.83063" lon="0.16313">
        <ele>1975</ele>
        <time>2020-07-28T10:26:11.096Z</time>
      </trkpt>
      <trkpt lat="42.83061" lon="0.16308">
        <ele>1971</ele>
        <time>2020-07-28T10:26:12.096Z</time>
      </trkpt>
      <trkpt lat="42.8306" lon="0.16305">
        <ele>1970</ele>
        <time>2020-07-28T10:26:13.096Z</time>
      </trkpt>
      <trkpt lat="42.8306" lon="0.16305">
        <ele>1970</ele>
        <time>2020-07-28T10:26:14.096Z</time>
      </trkpt>
      <trkpt lat="42.8306" lon="0.16299">
        <ele>1967</ele>
        <time>2020-07-28T10:26:15.096Z</time>
      </trkpt>
      <trkpt lat="42.8306" lon="0.16299">
        <ele>1967</ele>
        <time>2020-07-28T10:26:16.096Z</time>
      </trkpt>
      <trkpt lat="42.8306" lon="0.16299">
        <ele>1967</ele>
        <time>2020-07-28T10:26:17.096Z</time>
      </trkpt>
      <trkpt lat="42.83058" lon="0.16291">
        <ele>1963</ele>
        <time>2020-07-28T10:26:18.096Z</time>
      </trkpt>
      <trkpt lat="42.83058" lon="0.16291">
        <ele>1963</ele>
        <time>2020-07-28T10:26:19.096Z</time>
      </trkpt>
      <trkpt lat="42.83058" lon="0.16291">
        <ele>1963</ele>
        <time>2020-07-28T10:26:20.096Z</time>
      </trkpt>
      <trkpt lat="42.83055" lon="0.16287">
        <ele>1958</ele>
        <time>2020-07-28T10:26:21.096Z</time>
      </trkpt>
      <trkpt lat="42.83054" lon="0.16285">
        <ele>1957</ele>
        <time>2020-07-28T10:26:22.096Z</time>
      </trkpt>
      <trkpt lat="42.83054" lon="0.16285">
        <ele>1957</ele>
        <time>2020-07-28T10:26:23.096Z</time>
      </trkpt>
      <trkpt lat="42.83052" lon="0.16282">
        <ele>1956</ele>
        <time>2020-07-28T10:26:24.096Z</time>
      </trkpt>
      <trkpt lat="42.83052" lon="0.16282">
        <ele>1956</ele>
        <time>2020-07-28T10:26:25.096Z</time>
      </trkpt>
      <trkpt lat="42.83052" lon="0.16282">
        <ele>1956</ele>
        <time>2020-07-28T10:26:26.096Z</time>
      </trkpt>
      <trkpt lat="42.83049" lon="0.16277">
        <ele>1956</ele>
        <time>2020-07-28T10:26:27.096Z</time>
      </trkpt>
      <trkpt lat="42.83049" lon="0.16277">
        <ele>1956</ele>
        <time>2020-07-28T10:26:28.096Z</time>
      </trkpt>
      <trkpt lat="42.83049" lon="0.16277">
        <ele>1956</ele>
        <time>2020-07-28T10:26:29.096Z</time>
      </trkpt>
      <trkpt lat="42.83043" lon="0.16271">
        <ele>1956</ele>
        <time>2020-07-28T10:26:30.096Z</time>
      </trkpt>
      <trkpt lat="42.83041" lon="0.16269">
        <ele>1957</ele>
        <time>2020-07-28T10:26:31.096Z</time>
      </trkpt>
      <trkpt lat="42.83041" lon="0.16269">
        <ele>1957</ele>
        <time>2020-07-28T10:26:32.096Z</time>
      </trkpt>
      <trkpt lat="42.83038" lon="0.16265">
        <ele>1956</ele>
        <time>2020-07-28T10:26:33.096Z</time>
      </trkpt>
      <trkpt lat="42.83038" lon="0.16265">
        <ele>1956</ele>
        <time>2020-07-28T10:26:34.096Z</time>
      </trkpt>
      <trkpt lat="42.83038" lon="0.16265">
        <ele>1956</ele>
        <time>2020-07-28T10:26:35.096Z</time>
      </trkpt>
      <trkpt lat="42.83034" lon="0.16261">
        <ele>1955</ele>
        <time>2020-07-28T10:26:36.096Z</time>
      </trkpt>
      <trkpt lat="42.83034" lon="0.16261">
        <ele>1955</ele>
        <time>2020-07-28T10:26:37.096Z</time>
      </trkpt>
      <trkpt lat="42.83034" lon="0.16261">
        <ele>1955</ele>
        <time>2020-07-28T10:26:38.096Z</time>
      </trkpt>
      <trkpt lat="42.83032" lon="0.1626">
        <ele>1956</ele>
        <time>2020-07-28T10:26:39.096Z</time>
      </trkpt>
      <trkpt lat="42.83032" lon="0.1626">
        <ele>1956</ele>
        <time>2020-07-28T10:26:40.096Z</time>
      </trkpt>
      <trkpt lat="42.83032" lon="0.1626">
        <ele>1956</ele>
        <time>2020-07-28T10:26:41.096Z</time>
      </trkpt>
      <trkpt lat="42.8303" lon="0.16261">
        <ele>1956</ele>
        <time>2020-07-28T10:26:42.096Z</time>
      </trkpt>
      <trkpt lat="42.8303" lon="0.16261">
        <ele>1956</ele>
        <time>2020-07-28T10:26:43.096Z</time>
      </trkpt>
      <trkpt lat="42.8303" lon="0.16261">
        <ele>1956</ele>
        <time>2020-07-28T10:26:44.096Z</time>
      </trkpt>
      <trkpt lat="42.83029" lon="0.16263">
        <ele>1957</ele>
        <time>2020-07-28T10:26:45.096Z</time>
      </trkpt>
      <trkpt lat="42.83029" lon="0.16263">
        <ele>1957</ele>
        <time>2020-07-28T10:26:46.096Z</time>
      </trkpt>
      <trkpt lat="42.83029" lon="0.16263">
        <ele>1957</ele>
        <time>2020-07-28T10:26:47.096Z</time>
      </trkpt>
      <trkpt lat="42.83027" lon="0.16266">
        <ele>1955</ele>
        <time>2020-07-28T10:26:48.096Z</time>
      </trkpt>
      <trkpt lat="42.83027" lon="0.16266">
        <ele>1955</ele>
        <time>2020-07-28T10:26:49.096Z</time>
      </trkpt>
      <trkpt lat="42.83027" lon="0.16266">
        <ele>1955</ele>
        <time>2020-07-28T10:26:50.096Z</time>
      </trkpt>
      <trkpt lat="42.83027" lon="0.16271">
        <ele>1955</ele>
        <time>2020-07-28T10:26:51.096Z</time>
      </trkpt>
      <trkpt lat="42.83027" lon="0.16271">
        <ele>1955</ele>
        <time>2020-07-28T10:26:52.096Z</time>
      </trkpt>
      <trkpt lat="42.83027" lon="0.16271">
        <ele>1955</ele>
        <time>2020-07-28T10:26:53.096Z</time>
      </trkpt>
      <trkpt lat="42.83027" lon="0.16275">
        <ele>1955</ele>
        <time>2020-07-28T10:26:54.096Z</time>
      </trkpt>
      <trkpt lat="42.83027" lon="0.16275">
        <ele>1955</ele>
        <time>2020-07-28T10:26:55.096Z</time>
      </trkpt>
      <trkpt lat="42.83027" lon="0.16275">
        <ele>1955</ele>
        <time>2020-07-28T10:26:56.096Z</time>
      </trkpt>
      <trkpt lat="42.83024" lon="0.16277">
        <ele>1953</ele>
        <time>2020-07-28T10:26:57.096Z</time>
      </trkpt>
      <trkpt lat="42.83024" lon="0.16277">
        <ele>1953</ele>
        <time>2020-07-28T10:26:58.096Z</time>
      </trkpt>
      <trkpt lat="42.83024" lon="0.16277">
        <ele>1953</ele>
        <time>2020-07-28T10:26:59.096Z</time>
      </trkpt>
      <trkpt lat="42.83023" lon="0.16281">
        <ele>1950</ele>
        <time>2020-07-28T10:27:00.096Z</time>
      </trkpt>
      <trkpt lat="42.83023" lon="0.16281">
        <ele>1950</ele>
        <time>2020-07-28T10:27:01.096Z</time>
      </trkpt>
      <trkpt lat="42.83023" lon="0.16281">
        <ele>1950</ele>
        <time>2020-07-28T10:27:02.096Z</time>
      </trkpt>
      <trkpt lat="42.83023" lon="0.16286">
        <ele>1948</ele>
        <time>2020-07-28T10:27:03.096Z</time>
      </trkpt>
      <trkpt lat="42.83023" lon="0.16286">
        <ele>1948</ele>
        <time>2020-07-28T10:27:04.096Z</time>
      </trkpt>
      <trkpt lat="42.83023" lon="0.16286">
        <ele>1948</ele>
        <time>2020-07-28T10:27:05.096Z</time>
      </trkpt>
      <trkpt lat="42.83022" lon="0.1629">
        <ele>1948</ele>
        <time>2020-07-28T10:27:06.096Z</time>
      </trkpt>
      <trkpt lat="42.83022" lon="0.1629">
        <ele>1948</ele>
        <time>2020-07-28T10:27:07.096Z</time>
      </trkpt>
      <trkpt lat="42.83022" lon="0.1629">
        <ele>1948</ele>
        <time>2020-07-28T10:27:08.096Z</time>
      </trkpt>
      <trkpt lat="42.8302" lon="0.16295">
        <ele>1946</ele>
        <time>2020-07-28T10:27:09.096Z</time>
      </trkpt>
      <trkpt lat="42.8302" lon="0.16295">
        <ele>1946</ele>
        <time>2020-07-28T10:27:10.096Z</time>
      </trkpt>
      <trkpt lat="42.8302" lon="0.16295">
        <ele>1946</ele>
        <time>2020-07-28T10:27:11.096Z</time>
      </trkpt>
      <trkpt lat="42.83018" lon="0.163">
        <ele>1945</ele>
        <time>2020-07-28T10:27:12.096Z</time>
      </trkpt>
      <trkpt lat="42.83018" lon="0.163">
        <ele>1945</ele>
        <time>2020-07-28T10:27:13.096Z</time>
      </trkpt>
      <trkpt lat="42.83018" lon="0.163">
        <ele>1945</ele>
        <time>2020-07-28T10:27:14.096Z</time>
      </trkpt>
      <trkpt lat="42.83018" lon="0.16302">
        <ele>1943</ele>
        <time>2020-07-28T10:27:15.096Z</time>
      </trkpt>
      <trkpt lat="42.83018" lon="0.16302">
        <ele>1943</ele>
        <time>2020-07-28T10:27:16.096Z</time>
      </trkpt>
      <trkpt lat="42.83018" lon="0.16302">
        <ele>1943</ele>
        <time>2020-07-28T10:27:17.096Z</time>
      </trkpt>
      <trkpt lat="42.83017" lon="0.16303">
        <ele>1940</ele>
        <time>2020-07-28T10:27:18.096Z</time>
      </trkpt>
      <trkpt lat="42.83017" lon="0.16303">
        <ele>1940</ele>
        <time>2020-07-28T10:27:19.096Z</time>
      </trkpt>
      <trkpt lat="42.83017" lon="0.16303">
        <ele>1940</ele>
        <time>2020-07-28T10:27:20.096Z</time>
      </trkpt>
      <trkpt lat="42.83017" lon="0.16308">
        <ele>1936</ele>
        <time>2020-07-28T10:27:21.096Z</time>
      </trkpt>
      <trkpt lat="42.83017" lon="0.16308">
        <ele>1936</ele>
        <time>2020-07-28T10:27:22.096Z</time>
      </trkpt>
      <trkpt lat="42.83017" lon="0.16308">
        <ele>1936</ele>
        <time>2020-07-28T10:27:23.096Z</time>
      </trkpt>
      <trkpt lat="42.83017" lon="0.16312">
        <ele>1934</ele>
        <time>2020-07-28T10:27:24.096Z</time>
      </trkpt>
      <trkpt lat="42.83017" lon="0.16312">
        <ele>1934</ele>
        <time>2020-07-28T10:27:25.096Z</time>
      </trkpt>
      <trkpt lat="42.83017" lon="0.16312">
        <ele>1934</ele>
        <time>2020-07-28T10:27:26.096Z</time>
      </trkpt>
      <trkpt lat="42.83015" lon="0.16317">
        <ele>1934</ele>
        <time>2020-07-28T10:27:27.096Z</time>
      </trkpt>
      <trkpt lat="42.83015" lon="0.16317">
        <ele>1934</ele>
        <time>2020-07-28T10:27:28.096Z</time>
      </trkpt>
      <trkpt lat="42.83015" lon="0.16317">
        <ele>1934</ele>
        <time>2020-07-28T10:27:29.096Z</time>
      </trkpt>
      <trkpt lat="42.83014" lon="0.16326">
        <ele>1934</ele>
        <time>2020-07-28T10:27:30.096Z</time>
      </trkpt>
      <trkpt lat="42.83014" lon="0.16326">
        <ele>1934</ele>
        <time>2020-07-28T10:27:31.096Z</time>
      </trkpt>
      <trkpt lat="42.83014" lon="0.16326">
        <ele>1934</ele>
        <time>2020-07-28T10:27:32.096Z</time>
      </trkpt>
      <trkpt lat="42.83013" lon="0.16335">
        <ele>1934</ele>
        <time>2020-07-28T10:27:33.096Z</time>
      </trkpt>
      <trkpt lat="42.83013" lon="0.16335">
        <ele>1934</ele>
        <time>2020-07-28T10:27:34.096Z</time>
      </trkpt>
      <trkpt lat="42.83013" lon="0.16335">
        <ele>1934</ele>
        <time>2020-07-28T10:27:35.096Z</time>
      </trkpt>
      <trkpt lat="42.83012" lon="0.16343">
        <ele>1930</ele>
        <time>2020-07-28T10:27:36.096Z</time>
      </trkpt>
      <trkpt lat="42.83012" lon="0.16343">
        <ele>1930</ele>
        <time>2020-07-28T10:27:37.096Z</time>
      </trkpt>
      <trkpt lat="42.83012" lon="0.16343">
        <ele>1930</ele>
        <time>2020-07-28T10:27:38.096Z</time>
      </trkpt>
      <trkpt lat="42.83012" lon="0.16351">
        <ele>1929</ele>
        <time>2020-07-28T10:27:39.096Z</time>
      </trkpt>
      <trkpt lat="42.83012" lon="0.16351">
        <ele>1929</ele>
        <time>2020-07-28T10:27:40.096Z</time>
      </trkpt>
      <trkpt lat="42.83012" lon="0.16351">
        <ele>1929</ele>
        <time>2020-07-28T10:27:41.096Z</time>
      </trkpt>
      <trkpt lat="42.83012" lon="0.16358">
        <ele>1927</ele>
        <time>2020-07-28T10:27:42.096Z</time>
      </trkpt>
      <trkpt lat="42.83012" lon="0.16358">
        <ele>1927</ele>
        <time>2020-07-28T10:27:43.096Z</time>
      </trkpt>
      <trkpt lat="42.83012" lon="0.16358">
        <ele>1927</ele>
        <time>2020-07-28T10:27:44.096Z</time>
      </trkpt>
      <trkpt lat="42.8301" lon="0.16356">
        <ele>1932</ele>
        <time>2020-07-28T10:27:45.096Z</time>
      </trkpt>
      <trkpt lat="42.8301" lon="0.16356">
        <ele>1932</ele>
        <time>2020-07-28T10:27:46.096Z</time>
      </trkpt>
      <trkpt lat="42.8301" lon="0.16356">
        <ele>1932</ele>
        <time>2020-07-28T10:27:47.096Z</time>
      </trkpt>
      <trkpt lat="42.83009" lon="0.16356">
        <ele>1934</ele>
        <time>2020-07-28T10:27:48.096Z</time>
      </trkpt>
      <trkpt lat="42.83009" lon="0.16356">
        <ele>1934</ele>
        <time>2020-07-28T10:27:49.096Z</time>
      </trkpt>
      <trkpt lat="42.83009" lon="0.16356">
        <ele>1934</ele>
        <time>2020-07-28T10:27:50.096Z</time>
      </trkpt>
      <trkpt lat="42.83007" lon="0.16355">
        <ele>1933</ele>
        <time>2020-07-28T10:27:51.096Z</time>
      </trkpt>
      <trkpt lat="42.83007" lon="0.16355">
        <ele>1933</ele>
        <time>2020-07-28T10:27:52.096Z</time>
      </trkpt>
      <trkpt lat="42.83007" lon="0.16355">
        <ele>1933</ele>
        <time>2020-07-28T10:27:53.096Z</time>
      </trkpt>
      <trkpt lat="42.83004" lon="0.16353">
        <ele>1932</ele>
        <time>2020-07-28T10:27:54.096Z</time>
      </trkpt>
      <trkpt lat="42.83004" lon="0.16353">
        <ele>1932</ele>
        <time>2020-07-28T10:27:55.096Z</time>
      </trkpt>
      <trkpt lat="42.83004" lon="0.16353">
        <ele>1932</ele>
        <time>2020-07-28T10:27:56.096Z</time>
      </trkpt>
      <trkpt lat="42.83002" lon="0.16349">
        <ele>1929</ele>
        <time>2020-07-28T10:27:57.096Z</time>
      </trkpt>
      <trkpt lat="42.83002" lon="0.16349">
        <ele>1929</ele>
        <time>2020-07-28T10:27:58.096Z</time>
      </trkpt>
      <trkpt lat="42.83002" lon="0.16349">
        <ele>1929</ele>
        <time>2020-07-28T10:27:59.096Z</time>
      </trkpt>
      <trkpt lat="42.82997" lon="0.16346">
        <ele>1926</ele>
        <time>2020-07-28T10:28:00.096Z</time>
      </trkpt>
      <trkpt lat="42.82997" lon="0.16346">
        <ele>1926</ele>
        <time>2020-07-28T10:28:01.096Z</time>
      </trkpt>
      <trkpt lat="42.82997" lon="0.16346">
        <ele>1926</ele>
        <time>2020-07-28T10:28:02.096Z</time>
      </trkpt>
      <trkpt lat="42.82992" lon="0.16343">
        <ele>1924</ele>
        <time>2020-07-28T10:28:03.096Z</time>
      </trkpt>
      <trkpt lat="42.82992" lon="0.16343">
        <ele>1924</ele>
        <time>2020-07-28T10:28:04.096Z</time>
      </trkpt>
      <trkpt lat="42.82992" lon="0.16343">
        <ele>1924</ele>
        <time>2020-07-28T10:28:05.096Z</time>
      </trkpt>
      <trkpt lat="42.8299" lon="0.16343">
        <ele>1921</ele>
        <time>2020-07-28T10:28:06.096Z</time>
      </trkpt>
      <trkpt lat="42.8299" lon="0.16343">
        <ele>1921</ele>
        <time>2020-07-28T10:28:07.096Z</time>
      </trkpt>
      <trkpt lat="42.8299" lon="0.16343">
        <ele>1921</ele>
        <time>2020-07-28T10:28:08.096Z</time>
      </trkpt>
      <trkpt lat="42.82987" lon="0.16341">
        <ele>1919</ele>
        <time>2020-07-28T10:28:09.096Z</time>
      </trkpt>
      <trkpt lat="42.82987" lon="0.16341">
        <ele>1919</ele>
        <time>2020-07-28T10:28:10.096Z</time>
      </trkpt>
      <trkpt lat="42.82987" lon="0.16341">
        <ele>1919</ele>
        <time>2020-07-28T10:28:11.096Z</time>
      </trkpt>
      <trkpt lat="42.82985" lon="0.1634">
        <ele>1918</ele>
        <time>2020-07-28T10:28:12.096Z</time>
      </trkpt>
      <trkpt lat="42.82985" lon="0.1634">
        <ele>1918</ele>
        <time>2020-07-28T10:28:13.096Z</time>
      </trkpt>
      <trkpt lat="42.82985" lon="0.1634">
        <ele>1918</ele>
        <time>2020-07-28T10:28:14.096Z</time>
      </trkpt>
      <trkpt lat="42.82984" lon="0.16343">
        <ele>1916</ele>
        <time>2020-07-28T10:28:15.096Z</time>
      </trkpt>
      <trkpt lat="42.82984" lon="0.16343">
        <ele>1916</ele>
        <time>2020-07-28T10:28:16.096Z</time>
      </trkpt>
      <trkpt lat="42.82984" lon="0.16343">
        <ele>1916</ele>
        <time>2020-07-28T10:28:17.096Z</time>
      </trkpt>
      <trkpt lat="42.82984" lon="0.16344">
        <ele>1919</ele>
        <time>2020-07-28T10:28:18.096Z</time>
      </trkpt>
      <trkpt lat="42.82984" lon="0.16344">
        <ele>1919</ele>
        <time>2020-07-28T10:28:19.096Z</time>
      </trkpt>
      <trkpt lat="42.82984" lon="0.16344">
        <ele>1919</ele>
        <time>2020-07-28T10:28:20.096Z</time>
      </trkpt>
      <trkpt lat="42.82982" lon="0.16349">
        <ele>1920</ele>
        <time>2020-07-28T10:28:21.096Z</time>
      </trkpt>
      <trkpt lat="42.82982" lon="0.16349">
        <ele>1920</ele>
        <time>2020-07-28T10:28:22.096Z</time>
      </trkpt>
      <trkpt lat="42.82982" lon="0.16349">
        <ele>1920</ele>
        <time>2020-07-28T10:28:23.096Z</time>
      </trkpt>
      <trkpt lat="42.82981" lon="0.16355">
        <ele>1923</ele>
        <time>2020-07-28T10:28:24.096Z</time>
      </trkpt>
      <trkpt lat="42.82981" lon="0.16355">
        <ele>1923</ele>
        <time>2020-07-28T10:28:25.096Z</time>
      </trkpt>
      <trkpt lat="42.82981" lon="0.16355">
        <ele>1923</ele>
        <time>2020-07-28T10:28:26.096Z</time>
      </trkpt>
      <trkpt lat="42.82983" lon="0.16365">
        <ele>1922</ele>
        <time>2020-07-28T10:28:27.096Z</time>
      </trkpt>
      <trkpt lat="42.82983" lon="0.16365">
        <ele>1922</ele>
        <time>2020-07-28T10:28:28.096Z</time>
      </trkpt>
      <trkpt lat="42.82983" lon="0.16365">
        <ele>1922</ele>
        <time>2020-07-28T10:28:29.096Z</time>
      </trkpt>
      <trkpt lat="42.82982" lon="0.16375">
        <ele>1924</ele>
        <time>2020-07-28T10:28:30.096Z</time>
      </trkpt>
      <trkpt lat="42.82982" lon="0.16375">
        <ele>1924</ele>
        <time>2020-07-28T10:28:31.096Z</time>
      </trkpt>
      <trkpt lat="42.82982" lon="0.16375">
        <ele>1924</ele>
        <time>2020-07-28T10:28:32.096Z</time>
      </trkpt>
      <trkpt lat="42.82982" lon="0.16383">
        <ele>1924</ele>
        <time>2020-07-28T10:28:33.096Z</time>
      </trkpt>
      <trkpt lat="42.82982" lon="0.16383">
        <ele>1924</ele>
        <time>2020-07-28T10:28:34.096Z</time>
      </trkpt>
      <trkpt lat="42.82982" lon="0.16383">
        <ele>1924</ele>
        <time>2020-07-28T10:28:35.096Z</time>
      </trkpt>
      <trkpt lat="42.8298" lon="0.16391">
        <ele>1923</ele>
        <time>2020-07-28T10:28:36.096Z</time>
      </trkpt>
      <trkpt lat="42.8298" lon="0.16391">
        <ele>1923</ele>
        <time>2020-07-28T10:28:37.096Z</time>
      </trkpt>
      <trkpt lat="42.8298" lon="0.16391">
        <ele>1923</ele>
        <time>2020-07-28T10:28:38.096Z</time>
      </trkpt>
      <trkpt lat="42.82982" lon="0.16397">
        <ele>1923</ele>
        <time>2020-07-28T10:28:39.096Z</time>
      </trkpt>
      <trkpt lat="42.82982" lon="0.16397">
        <ele>1923</ele>
        <time>2020-07-28T10:28:40.096Z</time>
      </trkpt>
      <trkpt lat="42.82982" lon="0.16397">
        <ele>1923</ele>
        <time>2020-07-28T10:28:41.096Z</time>
      </trkpt>
      <trkpt lat="42.82982" lon="0.16401">
        <ele>1925</ele>
        <time>2020-07-28T10:28:42.096Z</time>
      </trkpt>
      <trkpt lat="42.82982" lon="0.16401">
        <ele>1925</ele>
        <time>2020-07-28T10:28:43.096Z</time>
      </trkpt>
      <trkpt lat="42.82982" lon="0.16401">
        <ele>1925</ele>
        <time>2020-07-28T10:28:44.096Z</time>
      </trkpt>
      <trkpt lat="42.82982" lon="0.16404">
        <ele>1925</ele>
        <time>2020-07-28T10:28:45.096Z</time>
      </trkpt>
      <trkpt lat="42.82982" lon="0.16404">
        <ele>1925</ele>
        <time>2020-07-28T10:28:46.096Z</time>
      </trkpt>
      <trkpt lat="42.82982" lon="0.16404">
        <ele>1925</ele>
        <time>2020-07-28T10:28:47.096Z</time>
      </trkpt>
      <trkpt lat="42.82982" lon="0.16408">
        <ele>1924</ele>
        <time>2020-07-28T10:28:48.096Z</time>
      </trkpt>
      <trkpt lat="42.82982" lon="0.16408">
        <ele>1924</ele>
        <time>2020-07-28T10:28:49.096Z</time>
      </trkpt>
      <trkpt lat="42.82982" lon="0.16408">
        <ele>1924</ele>
        <time>2020-07-28T10:28:50.096Z</time>
      </trkpt>
      <trkpt lat="42.82982" lon="0.16412">
        <ele>1925</ele>
        <time>2020-07-28T10:28:51.096Z</time>
      </trkpt>
      <trkpt lat="42.82982" lon="0.16412">
        <ele>1925</ele>
        <time>2020-07-28T10:28:52.096Z</time>
      </trkpt>
      <trkpt lat="42.82982" lon="0.16412">
        <ele>1925</ele>
        <time>2020-07-28T10:28:53.096Z</time>
      </trkpt>
      <trkpt lat="42.82983" lon="0.16418">
        <ele>1927</ele>
        <time>2020-07-28T10:28:54.096Z</time>
      </trkpt>
      <trkpt lat="42.82983" lon="0.16418">
        <ele>1927</ele>
        <time>2020-07-28T10:28:55.096Z</time>
      </trkpt>
      <trkpt lat="42.82983" lon="0.16418">
        <ele>1927</ele>
        <time>2020-07-28T10:28:56.096Z</time>
      </trkpt>
      <trkpt lat="42.82983" lon="0.16421">
        <ele>1929</ele>
        <time>2020-07-28T10:28:57.096Z</time>
      </trkpt>
      <trkpt lat="42.82983" lon="0.16421">
        <ele>1929</ele>
        <time>2020-07-28T10:28:58.096Z</time>
      </trkpt>
      <trkpt lat="42.82983" lon="0.16421">
        <ele>1929</ele>
        <time>2020-07-28T10:28:59.096Z</time>
      </trkpt>
      <trkpt lat="42.82984" lon="0.16426">
        <ele>1928</ele>
        <time>2020-07-28T10:29:00.096Z</time>
      </trkpt>
      <trkpt lat="42.82984" lon="0.16426">
        <ele>1928</ele>
        <time>2020-07-28T10:29:01.096Z</time>
      </trkpt>
      <trkpt lat="42.82984" lon="0.16426">
        <ele>1928</ele>
        <time>2020-07-28T10:29:02.096Z</time>
      </trkpt>
      <trkpt lat="42.82983" lon="0.16431">
        <ele>1929</ele>
        <time>2020-07-28T10:29:03.096Z</time>
      </trkpt>
      <trkpt lat="42.82983" lon="0.16431">
        <ele>1929</ele>
        <time>2020-07-28T10:29:04.096Z</time>
      </trkpt>
      <trkpt lat="42.82983" lon="0.16431">
        <ele>1929</ele>
        <time>2020-07-28T10:29:05.096Z</time>
      </trkpt>
      <trkpt lat="42.82981" lon="0.16435">
        <ele>1931</ele>
        <time>2020-07-28T10:29:06.096Z</time>
      </trkpt>
      <trkpt lat="42.82981" lon="0.16435">
        <ele>1931</ele>
        <time>2020-07-28T10:29:07.096Z</time>
      </trkpt>
      <trkpt lat="42.82981" lon="0.16435">
        <ele>1931</ele>
        <time>2020-07-28T10:29:08.096Z</time>
      </trkpt>
      <trkpt lat="42.8298" lon="0.1644">
        <ele>1932</ele>
        <time>2020-07-28T10:29:09.096Z</time>
      </trkpt>
      <trkpt lat="42.8298" lon="0.1644">
        <ele>1932</ele>
        <time>2020-07-28T10:29:10.096Z</time>
      </trkpt>
      <trkpt lat="42.8298" lon="0.1644">
        <ele>1932</ele>
        <time>2020-07-28T10:29:11.096Z</time>
      </trkpt>
      <trkpt lat="42.82979" lon="0.16442">
        <ele>1932</ele>
        <time>2020-07-28T10:29:12.096Z</time>
      </trkpt>
      <trkpt lat="42.82979" lon="0.16442">
        <ele>1932</ele>
        <time>2020-07-28T10:29:13.096Z</time>
      </trkpt>
      <trkpt lat="42.82979" lon="0.16442">
        <ele>1932</ele>
        <time>2020-07-28T10:29:14.096Z</time>
      </trkpt>
      <trkpt lat="42.82978" lon="0.16441">
        <ele>1928</ele>
        <time>2020-07-28T10:29:15.096Z</time>
      </trkpt>
      <trkpt lat="42.82978" lon="0.16441">
        <ele>1928</ele>
        <time>2020-07-28T10:29:16.096Z</time>
      </trkpt>
      <trkpt lat="42.82978" lon="0.16441">
        <ele>1928</ele>
        <time>2020-07-28T10:29:17.096Z</time>
      </trkpt>
      <trkpt lat="42.82976" lon="0.1644">
        <ele>1928</ele>
        <time>2020-07-28T10:29:18.096Z</time>
      </trkpt>
      <trkpt lat="42.82976" lon="0.1644">
        <ele>1928</ele>
        <time>2020-07-28T10:29:19.096Z</time>
      </trkpt>
      <trkpt lat="42.82976" lon="0.1644">
        <ele>1928</ele>
        <time>2020-07-28T10:29:20.096Z</time>
      </trkpt>
      <trkpt lat="42.82975" lon="0.1644">
        <ele>1923</ele>
        <time>2020-07-28T10:29:21.096Z</time>
      </trkpt>
      <trkpt lat="42.82975" lon="0.1644">
        <ele>1923</ele>
        <time>2020-07-28T10:29:22.096Z</time>
      </trkpt>
      <trkpt lat="42.82975" lon="0.1644">
        <ele>1923</ele>
        <time>2020-07-28T10:29:23.096Z</time>
      </trkpt>
      <trkpt lat="42.82974" lon="0.16439">
        <ele>1922</ele>
        <time>2020-07-28T10:29:24.096Z</time>
      </trkpt>
      <trkpt lat="42.82974" lon="0.16439">
        <ele>1922</ele>
        <time>2020-07-28T10:29:25.096Z</time>
      </trkpt>
      <trkpt lat="42.82974" lon="0.16439">
        <ele>1922</ele>
        <time>2020-07-28T10:29:26.096Z</time>
      </trkpt>
      <trkpt lat="42.82972" lon="0.16439">
        <ele>1921</ele>
        <time>2020-07-28T10:29:27.096Z</time>
      </trkpt>
      <trkpt lat="42.82972" lon="0.16439">
        <ele>1921</ele>
        <time>2020-07-28T10:29:28.096Z</time>
      </trkpt>
      <trkpt lat="42.82972" lon="0.16439">
        <ele>1921</ele>
        <time>2020-07-28T10:29:29.096Z</time>
      </trkpt>
      <trkpt lat="42.8297" lon="0.16438">
        <ele>1919</ele>
        <time>2020-07-28T10:29:30.096Z</time>
      </trkpt>
      <trkpt lat="42.8297" lon="0.16438">
        <ele>1919</ele>
        <time>2020-07-28T10:29:31.096Z</time>
      </trkpt>
      <trkpt lat="42.8297" lon="0.16438">
        <ele>1919</ele>
        <time>2020-07-28T10:29:32.096Z</time>
      </trkpt>
      <trkpt lat="42.82968" lon="0.16437">
        <ele>1917</ele>
        <time>2020-07-28T10:29:33.096Z</time>
      </trkpt>
      <trkpt lat="42.82968" lon="0.16437">
        <ele>1917</ele>
        <time>2020-07-28T10:29:34.096Z</time>
      </trkpt>
      <trkpt lat="42.82968" lon="0.16437">
        <ele>1917</ele>
        <time>2020-07-28T10:29:35.096Z</time>
      </trkpt>
      <trkpt lat="42.82966" lon="0.16435">
        <ele>1914</ele>
        <time>2020-07-28T10:29:36.096Z</time>
      </trkpt>
      <trkpt lat="42.82966" lon="0.16435">
        <ele>1914</ele>
        <time>2020-07-28T10:29:37.096Z</time>
      </trkpt>
      <trkpt lat="42.82966" lon="0.16435">
        <ele>1914</ele>
        <time>2020-07-28T10:29:38.096Z</time>
      </trkpt>
      <trkpt lat="42.82965" lon="0.16433">
        <ele>1913</ele>
        <time>2020-07-28T10:29:39.096Z</time>
      </trkpt>
      <trkpt lat="42.82965" lon="0.16433">
        <ele>1913</ele>
        <time>2020-07-28T10:29:40.096Z</time>
      </trkpt>
      <trkpt lat="42.82965" lon="0.16433">
        <ele>1913</ele>
        <time>2020-07-28T10:29:41.096Z</time>
      </trkpt>
      <trkpt lat="42.82963" lon="0.1643">
        <ele>1912</ele>
        <time>2020-07-28T10:29:42.096Z</time>
      </trkpt>
      <trkpt lat="42.82963" lon="0.1643">
        <ele>1912</ele>
        <time>2020-07-28T10:29:43.096Z</time>
      </trkpt>
      <trkpt lat="42.82963" lon="0.1643">
        <ele>1912</ele>
        <time>2020-07-28T10:29:44.096Z</time>
      </trkpt>
      <trkpt lat="42.82961" lon="0.16425">
        <ele>1912</ele>
        <time>2020-07-28T10:29:45.096Z</time>
      </trkpt>
      <trkpt lat="42.82961" lon="0.16425">
        <ele>1912</ele>
        <time>2020-07-28T10:29:46.096Z</time>
      </trkpt>
      <trkpt lat="42.82961" lon="0.16425">
        <ele>1912</ele>
        <time>2020-07-28T10:29:47.096Z</time>
      </trkpt>
      <trkpt lat="42.82959" lon="0.16423">
        <ele>1911</ele>
        <time>2020-07-28T10:29:48.096Z</time>
      </trkpt>
      <trkpt lat="42.82959" lon="0.16423">
        <ele>1911</ele>
        <time>2020-07-28T10:29:49.096Z</time>
      </trkpt>
      <trkpt lat="42.82959" lon="0.16423">
        <ele>1911</ele>
        <time>2020-07-28T10:29:50.096Z</time>
      </trkpt>
      <trkpt lat="42.82957" lon="0.16424">
        <ele>1909</ele>
        <time>2020-07-28T10:29:51.096Z</time>
      </trkpt>
      <trkpt lat="42.82957" lon="0.16424">
        <ele>1909</ele>
        <time>2020-07-28T10:29:52.096Z</time>
      </trkpt>
      <trkpt lat="42.82957" lon="0.16424">
        <ele>1909</ele>
        <time>2020-07-28T10:29:53.096Z</time>
      </trkpt>
      <trkpt lat="42.82955" lon="0.16427">
        <ele>1905</ele>
        <time>2020-07-28T10:29:54.096Z</time>
      </trkpt>
      <trkpt lat="42.82955" lon="0.16427">
        <ele>1905</ele>
        <time>2020-07-28T10:29:55.096Z</time>
      </trkpt>
      <trkpt lat="42.82955" lon="0.16427">
        <ele>1905</ele>
        <time>2020-07-28T10:29:56.096Z</time>
      </trkpt>
      <trkpt lat="42.82953" lon="0.16431">
        <ele>1902</ele>
        <time>2020-07-28T10:29:57.096Z</time>
      </trkpt>
      <trkpt lat="42.82953" lon="0.16431">
        <ele>1902</ele>
        <time>2020-07-28T10:29:58.096Z</time>
      </trkpt>
      <trkpt lat="42.82953" lon="0.16431">
        <ele>1902</ele>
        <time>2020-07-28T10:29:59.096Z</time>
      </trkpt>
      <trkpt lat="42.82952" lon="0.16434">
        <ele>1903</ele>
        <time>2020-07-28T10:30:00.096Z</time>
      </trkpt>
      <trkpt lat="42.82952" lon="0.16434">
        <ele>1903</ele>
        <time>2020-07-28T10:30:01.096Z</time>
      </trkpt>
      <trkpt lat="42.82952" lon="0.16434">
        <ele>1903</ele>
        <time>2020-07-28T10:30:02.096Z</time>
      </trkpt>
      <trkpt lat="42.82951" lon="0.16437">
        <ele>1902</ele>
        <time>2020-07-28T10:30:03.096Z</time>
      </trkpt>
      <trkpt lat="42.82951" lon="0.16437">
        <ele>1902</ele>
        <time>2020-07-28T10:30:04.096Z</time>
      </trkpt>
      <trkpt lat="42.82951" lon="0.16437">
        <ele>1902</ele>
        <time>2020-07-28T10:30:05.096Z</time>
      </trkpt>
      <trkpt lat="42.8295" lon="0.16439">
        <ele>1902</ele>
        <time>2020-07-28T10:30:06.096Z</time>
      </trkpt>
      <trkpt lat="42.8295" lon="0.16439">
        <ele>1902</ele>
        <time>2020-07-28T10:30:07.096Z</time>
      </trkpt>
      <trkpt lat="42.8295" lon="0.16439">
        <ele>1902</ele>
        <time>2020-07-28T10:30:08.096Z</time>
      </trkpt>
      <trkpt lat="42.82948" lon="0.16442">
        <ele>1900</ele>
        <time>2020-07-28T10:30:09.096Z</time>
      </trkpt>
      <trkpt lat="42.82948" lon="0.16442">
        <ele>1900</ele>
        <time>2020-07-28T10:30:10.096Z</time>
      </trkpt>
      <trkpt lat="42.82948" lon="0.16442">
        <ele>1900</ele>
        <time>2020-07-28T10:30:11.096Z</time>
      </trkpt>
      <trkpt lat="42.82945" lon="0.16443">
        <ele>1899</ele>
        <time>2020-07-28T10:30:12.096Z</time>
      </trkpt>
      <trkpt lat="42.82945" lon="0.16443">
        <ele>1899</ele>
        <time>2020-07-28T10:30:13.096Z</time>
      </trkpt>
      <trkpt lat="42.82945" lon="0.16443">
        <ele>1899</ele>
        <time>2020-07-28T10:30:14.096Z</time>
      </trkpt>
      <trkpt lat="42.82943" lon="0.16443">
        <ele>1897</ele>
        <time>2020-07-28T10:30:15.096Z</time>
      </trkpt>
      <trkpt lat="42.82943" lon="0.16443">
        <ele>1897</ele>
        <time>2020-07-28T10:30:16.096Z</time>
      </trkpt>
      <trkpt lat="42.82943" lon="0.16443">
        <ele>1897</ele>
        <time>2020-07-28T10:30:17.096Z</time>
      </trkpt>
      <trkpt lat="42.82941" lon="0.16442">
        <ele>1897</ele>
        <time>2020-07-28T10:30:18.096Z</time>
      </trkpt>
      <trkpt lat="42.82941" lon="0.16442">
        <ele>1897</ele>
        <time>2020-07-28T10:30:19.096Z</time>
      </trkpt>
      <trkpt lat="42.82941" lon="0.16442">
        <ele>1897</ele>
        <time>2020-07-28T10:30:20.096Z</time>
      </trkpt>
      <trkpt lat="42.82938" lon="0.16437">
        <ele>1896</ele>
        <time>2020-07-28T10:30:21.096Z</time>
      </trkpt>
      <trkpt lat="42.82938" lon="0.16437">
        <ele>1896</ele>
        <time>2020-07-28T10:30:22.096Z</time>
      </trkpt>
      <trkpt lat="42.82938" lon="0.16437">
        <ele>1896</ele>
        <time>2020-07-28T10:30:23.096Z</time>
      </trkpt>
      <trkpt lat="42.82936" lon="0.16435">
        <ele>1893</ele>
        <time>2020-07-28T10:30:24.096Z</time>
      </trkpt>
      <trkpt lat="42.82936" lon="0.16435">
        <ele>1893</ele>
        <time>2020-07-28T10:30:25.096Z</time>
      </trkpt>
      <trkpt lat="42.82936" lon="0.16435">
        <ele>1893</ele>
        <time>2020-07-28T10:30:26.096Z</time>
      </trkpt>
      <trkpt lat="42.82932" lon="0.16432">
        <ele>1893</ele>
        <time>2020-07-28T10:30:27.096Z</time>
      </trkpt>
      <trkpt lat="42.82932" lon="0.16432">
        <ele>1893</ele>
        <time>2020-07-28T10:30:28.096Z</time>
      </trkpt>
      <trkpt lat="42.82932" lon="0.16432">
        <ele>1893</ele>
        <time>2020-07-28T10:30:29.096Z</time>
      </trkpt>
      <trkpt lat="42.8293" lon="0.16431">
        <ele>1891</ele>
        <time>2020-07-28T10:30:30.096Z</time>
      </trkpt>
      <trkpt lat="42.8293" lon="0.16431">
        <ele>1891</ele>
        <time>2020-07-28T10:30:31.096Z</time>
      </trkpt>
      <trkpt lat="42.8293" lon="0.16431">
        <ele>1891</ele>
        <time>2020-07-28T10:30:32.096Z</time>
      </trkpt>
      <trkpt lat="42.82929" lon="0.16431">
        <ele>1892</ele>
        <time>2020-07-28T10:30:33.096Z</time>
      </trkpt>
      <trkpt lat="42.82929" lon="0.16431">
        <ele>1892</ele>
        <time>2020-07-28T10:30:34.096Z</time>
      </trkpt>
      <trkpt lat="42.82929" lon="0.16431">
        <ele>1892</ele>
        <time>2020-07-28T10:30:35.096Z</time>
      </trkpt>
      <trkpt lat="42.82928" lon="0.16433">
        <ele>1892</ele>
        <time>2020-07-28T10:30:36.096Z</time>
      </trkpt>
      <trkpt lat="42.82928" lon="0.16433">
        <ele>1892</ele>
        <time>2020-07-28T10:30:37.096Z</time>
      </trkpt>
      <trkpt lat="42.82928" lon="0.16433">
        <ele>1892</ele>
        <time>2020-07-28T10:30:38.096Z</time>
      </trkpt>
      <trkpt lat="42.82928" lon="0.16436">
        <ele>1891</ele>
        <time>2020-07-28T10:30:39.096Z</time>
      </trkpt>
      <trkpt lat="42.82927" lon="0.16438">
        <ele>1891</ele>
        <time>2020-07-28T10:30:40.096Z</time>
      </trkpt>
      <trkpt lat="42.82927" lon="0.16438">
        <ele>1891</ele>
        <time>2020-07-28T10:30:41.096Z</time>
      </trkpt>
      <trkpt lat="42.82928" lon="0.16443">
        <ele>1890</ele>
        <time>2020-07-28T10:30:42.096Z</time>
      </trkpt>
      <trkpt lat="42.82928" lon="0.16443">
        <ele>1890</ele>
        <time>2020-07-28T10:30:43.096Z</time>
      </trkpt>
      <trkpt lat="42.82928" lon="0.16443">
        <ele>1890</ele>
        <time>2020-07-28T10:30:44.096Z</time>
      </trkpt>
      <trkpt lat="42.8293" lon="0.16452">
        <ele>1889</ele>
        <time>2020-07-28T10:30:45.096Z</time>
      </trkpt>
      <trkpt lat="42.8293" lon="0.16452">
        <ele>1889</ele>
        <time>2020-07-28T10:30:46.096Z</time>
      </trkpt>
      <trkpt lat="42.8293" lon="0.16452">
        <ele>1889</ele>
        <time>2020-07-28T10:30:47.096Z</time>
      </trkpt>
      <trkpt lat="42.8293" lon="0.16458">
        <ele>1887</ele>
        <time>2020-07-28T10:30:48.096Z</time>
      </trkpt>
      <trkpt lat="42.8293" lon="0.16458">
        <ele>1887</ele>
        <time>2020-07-28T10:30:49.096Z</time>
      </trkpt>
      <trkpt lat="42.8293" lon="0.16458">
        <ele>1887</ele>
        <time>2020-07-28T10:30:50.096Z</time>
      </trkpt>
      <trkpt lat="42.82932" lon="0.16468">
        <ele>1884</ele>
        <time>2020-07-28T10:30:51.096Z</time>
      </trkpt>
      <trkpt lat="42.82932" lon="0.16468">
        <ele>1884</ele>
        <time>2020-07-28T10:30:52.096Z</time>
      </trkpt>
      <trkpt lat="42.82932" lon="0.16468">
        <ele>1884</ele>
        <time>2020-07-28T10:30:53.096Z</time>
      </trkpt>
      <trkpt lat="42.82932" lon="0.16477">
        <ele>1883</ele>
        <time>2020-07-28T10:30:54.096Z</time>
      </trkpt>
      <trkpt lat="42.82932" lon="0.16477">
        <ele>1883</ele>
        <time>2020-07-28T10:30:55.096Z</time>
      </trkpt>
      <trkpt lat="42.82932" lon="0.16477">
        <ele>1883</ele>
        <time>2020-07-28T10:30:56.096Z</time>
      </trkpt>
      <trkpt lat="42.82933" lon="0.16481">
        <ele>1879</ele>
        <time>2020-07-28T10:30:57.096Z</time>
      </trkpt>
      <trkpt lat="42.82933" lon="0.16481">
        <ele>1879</ele>
        <time>2020-07-28T10:30:58.096Z</time>
      </trkpt>
      <trkpt lat="42.82933" lon="0.16481">
        <ele>1879</ele>
        <time>2020-07-28T10:30:59.096Z</time>
      </trkpt>
      <trkpt lat="42.82934" lon="0.16485">
        <ele>1878</ele>
        <time>2020-07-28T10:31:00.096Z</time>
      </trkpt>
      <trkpt lat="42.82934" lon="0.16485">
        <ele>1878</ele>
        <time>2020-07-28T10:31:01.096Z</time>
      </trkpt>
      <trkpt lat="42.82934" lon="0.16485">
        <ele>1878</ele>
        <time>2020-07-28T10:31:02.096Z</time>
      </trkpt>
      <trkpt lat="42.82934" lon="0.16489">
        <ele>1879</ele>
        <time>2020-07-28T10:31:03.096Z</time>
      </trkpt>
      <trkpt lat="42.82934" lon="0.16489">
        <ele>1879</ele>
        <time>2020-07-28T10:31:04.096Z</time>
      </trkpt>
      <trkpt lat="42.82934" lon="0.16489">
        <ele>1879</ele>
        <time>2020-07-28T10:31:05.096Z</time>
      </trkpt>
      <trkpt lat="42.82934" lon="0.16491">
        <ele>1878</ele>
        <time>2020-07-28T10:31:06.096Z</time>
      </trkpt>
      <trkpt lat="42.82934" lon="0.16491">
        <ele>1878</ele>
        <time>2020-07-28T10:31:07.096Z</time>
      </trkpt>
      <trkpt lat="42.82934" lon="0.16491">
        <ele>1878</ele>
        <time>2020-07-28T10:31:08.096Z</time>
      </trkpt>
      <trkpt lat="42.82934" lon="0.16494">
        <ele>1876</ele>
        <time>2020-07-28T10:31:09.096Z</time>
      </trkpt>
      <trkpt lat="42.82934" lon="0.16494">
        <ele>1876</ele>
        <time>2020-07-28T10:31:10.096Z</time>
      </trkpt>
      <trkpt lat="42.82934" lon="0.16494">
        <ele>1876</ele>
        <time>2020-07-28T10:31:11.096Z</time>
      </trkpt>
      <trkpt lat="42.82933" lon="0.16504">
        <ele>1889</ele>
        <time>2020-07-28T10:31:12.049Z</time>
      </trkpt>
      <trkpt lat="42.82933" lon="0.16504">
        <ele>1889</ele>
        <time>2020-07-28T10:31:13.049Z</time>
      </trkpt>
      <trkpt lat="42.82932" lon="0.16507">
        <ele>1891</ele>
        <time>2020-07-28T10:31:14.049Z</time>
      </trkpt>
      <trkpt lat="42.82932" lon="0.16507">
        <ele>1891</ele>
        <time>2020-07-28T10:31:15.049Z</time>
      </trkpt>
      <trkpt lat="42.82932" lon="0.16507">
        <ele>1891</ele>
        <time>2020-07-28T10:31:16.049Z</time>
      </trkpt>
      <trkpt lat="42.82932" lon="0.16512">
        <ele>1891</ele>
        <time>2020-07-28T10:31:17.049Z</time>
      </trkpt>
      <trkpt lat="42.82932" lon="0.16512">
        <ele>1891</ele>
        <time>2020-07-28T10:31:18.049Z</time>
      </trkpt>
      <trkpt lat="42.82932" lon="0.16512">
        <ele>1891</ele>
        <time>2020-07-28T10:31:19.049Z</time>
      </trkpt>
      <trkpt lat="42.82932" lon="0.1652">
        <ele>1890</ele>
        <time>2020-07-28T10:31:20.049Z</time>
      </trkpt>
      <trkpt lat="42.82932" lon="0.1652">
        <ele>1890</ele>
        <time>2020-07-28T10:31:21.049Z</time>
      </trkpt>
      <trkpt lat="42.82932" lon="0.1652">
        <ele>1890</ele>
        <time>2020-07-28T10:31:22.049Z</time>
      </trkpt>
      <trkpt lat="42.82931" lon="0.16529">
        <ele>1889</ele>
        <time>2020-07-28T10:31:23.049Z</time>
      </trkpt>
      <trkpt lat="42.82931" lon="0.16529">
        <ele>1889</ele>
        <time>2020-07-28T10:31:24.049Z</time>
      </trkpt>
      <trkpt lat="42.82931" lon="0.16529">
        <ele>1889</ele>
        <time>2020-07-28T10:31:25.049Z</time>
      </trkpt>
      <trkpt lat="42.82931" lon="0.16537">
        <ele>1890</ele>
        <time>2020-07-28T10:31:26.049Z</time>
      </trkpt>
      <trkpt lat="42.82931" lon="0.16537">
        <ele>1890</ele>
        <time>2020-07-28T10:31:27.049Z</time>
      </trkpt>
      <trkpt lat="42.82931" lon="0.16537">
        <ele>1890</ele>
        <time>2020-07-28T10:31:28.049Z</time>
      </trkpt>
      <trkpt lat="42.82932" lon="0.16547">
        <ele>1892</ele>
        <time>2020-07-28T10:31:29.049Z</time>
      </trkpt>
      <trkpt lat="42.82932" lon="0.16547">
        <ele>1892</ele>
        <time>2020-07-28T10:31:30.049Z</time>
      </trkpt>
      <trkpt lat="42.82932" lon="0.16547">
        <ele>1892</ele>
        <time>2020-07-28T10:31:31.049Z</time>
      </trkpt>
      <trkpt lat="42.82935" lon="0.16558">
        <ele>1892</ele>
        <time>2020-07-28T10:31:32.049Z</time>
      </trkpt>
      <trkpt lat="42.82935" lon="0.16558">
        <ele>1892</ele>
        <time>2020-07-28T10:31:33.049Z</time>
      </trkpt>
      <trkpt lat="42.82935" lon="0.16558">
        <ele>1892</ele>
        <time>2020-07-28T10:31:34.049Z</time>
      </trkpt>
      <trkpt lat="42.82936" lon="0.16568">
        <ele>1890</ele>
        <time>2020-07-28T10:31:35.049Z</time>
      </trkpt>
      <trkpt lat="42.82936" lon="0.16568">
        <ele>1890</ele>
        <time>2020-07-28T10:31:36.049Z</time>
      </trkpt>
      <trkpt lat="42.82936" lon="0.16568">
        <ele>1890</ele>
        <time>2020-07-28T10:31:37.049Z</time>
      </trkpt>
      <trkpt lat="42.82939" lon="0.16576">
        <ele>1888</ele>
        <time>2020-07-28T10:31:38.049Z</time>
      </trkpt>
      <trkpt lat="42.82939" lon="0.16576">
        <ele>1888</ele>
        <time>2020-07-28T10:31:39.049Z</time>
      </trkpt>
      <trkpt lat="42.82939" lon="0.16576">
        <ele>1888</ele>
        <time>2020-07-28T10:31:40.049Z</time>
      </trkpt>
      <trkpt lat="42.82939" lon="0.16585">
        <ele>1885</ele>
        <time>2020-07-28T10:31:41.049Z</time>
      </trkpt>
      <trkpt lat="42.82939" lon="0.16585">
        <ele>1885</ele>
        <time>2020-07-28T10:31:42.049Z</time>
      </trkpt>
      <trkpt lat="42.82939" lon="0.16585">
        <ele>1885</ele>
        <time>2020-07-28T10:31:43.049Z</time>
      </trkpt>
      <trkpt lat="42.82938" lon="0.16599">
        <ele>1882</ele>
        <time>2020-07-28T10:31:44.049Z</time>
      </trkpt>
      <trkpt lat="42.82938" lon="0.16599">
        <ele>1882</ele>
        <time>2020-07-28T10:31:45.049Z</time>
      </trkpt>
      <trkpt lat="42.82938" lon="0.16599">
        <ele>1882</ele>
        <time>2020-07-28T10:31:46.049Z</time>
      </trkpt>
      <trkpt lat="42.82937" lon="0.16616">
        <ele>1881</ele>
        <time>2020-07-28T10:31:47.049Z</time>
      </trkpt>
      <trkpt lat="42.82937" lon="0.16616">
        <ele>1881</ele>
        <time>2020-07-28T10:31:48.049Z</time>
      </trkpt>
      <trkpt lat="42.82937" lon="0.16616">
        <ele>1881</ele>
        <time>2020-07-28T10:31:49.049Z</time>
      </trkpt>
      <trkpt lat="42.82939" lon="0.1663">
        <ele>1879</ele>
        <time>2020-07-28T10:31:50.049Z</time>
      </trkpt>
      <trkpt lat="42.82939" lon="0.1663">
        <ele>1879</ele>
        <time>2020-07-28T10:31:51.049Z</time>
      </trkpt>
      <trkpt lat="42.82939" lon="0.1663">
        <ele>1879</ele>
        <time>2020-07-28T10:31:52.049Z</time>
      </trkpt>
      <trkpt lat="42.8294" lon="0.16646">
        <ele>1879</ele>
        <time>2020-07-28T10:31:53.049Z</time>
      </trkpt>
      <trkpt lat="42.8294" lon="0.16646">
        <ele>1879</ele>
        <time>2020-07-28T10:31:54.049Z</time>
      </trkpt>
      <trkpt lat="42.8294" lon="0.16646">
        <ele>1879</ele>
        <time>2020-07-28T10:31:55.049Z</time>
      </trkpt>
      <trkpt lat="42.82939" lon="0.16663">
        <ele>1881</ele>
        <time>2020-07-28T10:31:56.049Z</time>
      </trkpt>
      <trkpt lat="42.82939" lon="0.16663">
        <ele>1881</ele>
        <time>2020-07-28T10:31:57.049Z</time>
      </trkpt>
      <trkpt lat="42.82939" lon="0.16663">
        <ele>1881</ele>
        <time>2020-07-28T10:31:58.049Z</time>
      </trkpt>
      <trkpt lat="42.82941" lon="0.16675">
        <ele>1881</ele>
        <time>2020-07-28T10:31:59.049Z</time>
      </trkpt>
      <trkpt lat="42.82941" lon="0.16675">
        <ele>1881</ele>
        <time>2020-07-28T10:32:00.049Z</time>
      </trkpt>
      <trkpt lat="42.82941" lon="0.16675">
        <ele>1881</ele>
        <time>2020-07-28T10:32:01.049Z</time>
      </trkpt>
      <trkpt lat="42.82944" lon="0.1669">
        <ele>1874</ele>
        <time>2020-07-28T10:32:02.049Z</time>
      </trkpt>
      <trkpt lat="42.82944" lon="0.1669">
        <ele>1874</ele>
        <time>2020-07-28T10:32:03.049Z</time>
      </trkpt>
      <trkpt lat="42.82944" lon="0.1669">
        <ele>1874</ele>
        <time>2020-07-28T10:32:04.049Z</time>
      </trkpt>
      <trkpt lat="42.82948" lon="0.16706">
        <ele>1868</ele>
        <time>2020-07-28T10:32:05.049Z</time>
      </trkpt>
      <trkpt lat="42.82948" lon="0.16706">
        <ele>1868</ele>
        <time>2020-07-28T10:32:06.049Z</time>
      </trkpt>
      <trkpt lat="42.82948" lon="0.16706">
        <ele>1868</ele>
        <time>2020-07-28T10:32:07.049Z</time>
      </trkpt>
      <trkpt lat="42.82949" lon="0.16717">
        <ele>1868</ele>
        <time>2020-07-28T10:32:08.049Z</time>
      </trkpt>
      <trkpt lat="42.82949" lon="0.16717">
        <ele>1868</ele>
        <time>2020-07-28T10:32:09.049Z</time>
      </trkpt>
      <trkpt lat="42.82949" lon="0.16717">
        <ele>1868</ele>
        <time>2020-07-28T10:32:10.049Z</time>
      </trkpt>
      <trkpt lat="42.8295" lon="0.16729">
        <ele>1873</ele>
        <time>2020-07-28T10:32:11.049Z</time>
      </trkpt>
      <trkpt lat="42.8295" lon="0.16729">
        <ele>1873</ele>
        <time>2020-07-28T10:32:12.049Z</time>
      </trkpt>
      <trkpt lat="42.8295" lon="0.16729">
        <ele>1873</ele>
        <time>2020-07-28T10:32:13.049Z</time>
      </trkpt>
      <trkpt lat="42.8295" lon="0.16741">
        <ele>1873</ele>
        <time>2020-07-28T10:32:14.049Z</time>
      </trkpt>
      <trkpt lat="42.8295" lon="0.16741">
        <ele>1873</ele>
        <time>2020-07-28T10:32:15.049Z</time>
      </trkpt>
      <trkpt lat="42.8295" lon="0.16741">
        <ele>1873</ele>
        <time>2020-07-28T10:32:16.049Z</time>
      </trkpt>
      <trkpt lat="42.82949" lon="0.16752">
        <ele>1871</ele>
        <time>2020-07-28T10:32:17.049Z</time>
      </trkpt>
      <trkpt lat="42.82949" lon="0.16752">
        <ele>1871</ele>
        <time>2020-07-28T10:32:18.049Z</time>
      </trkpt>
      <trkpt lat="42.82949" lon="0.16752">
        <ele>1871</ele>
        <time>2020-07-28T10:32:19.049Z</time>
      </trkpt>
      <trkpt lat="42.82947" lon="0.16763">
        <ele>1869</ele>
        <time>2020-07-28T10:32:20.049Z</time>
      </trkpt>
      <trkpt lat="42.82947" lon="0.16763">
        <ele>1869</ele>
        <time>2020-07-28T10:32:21.049Z</time>
      </trkpt>
      <trkpt lat="42.82947" lon="0.16763">
        <ele>1869</ele>
        <time>2020-07-28T10:32:22.049Z</time>
      </trkpt>
      <trkpt lat="42.82945" lon="0.16771">
        <ele>1869</ele>
        <time>2020-07-28T10:32:23.049Z</time>
      </trkpt>
      <trkpt lat="42.82945" lon="0.16771">
        <ele>1869</ele>
        <time>2020-07-28T10:32:24.049Z</time>
      </trkpt>
      <trkpt lat="42.82945" lon="0.16771">
        <ele>1869</ele>
        <time>2020-07-28T10:32:25.049Z</time>
      </trkpt>
      <trkpt lat="42.82943" lon="0.16782">
        <ele>1866</ele>
        <time>2020-07-28T10:32:26.049Z</time>
      </trkpt>
      <trkpt lat="42.82943" lon="0.16782">
        <ele>1866</ele>
        <time>2020-07-28T10:32:27.049Z</time>
      </trkpt>
      <trkpt lat="42.82943" lon="0.16782">
        <ele>1866</ele>
        <time>2020-07-28T10:32:28.049Z</time>
      </trkpt>
      <trkpt lat="42.82943" lon="0.16799">
        <ele>1862</ele>
        <time>2020-07-28T10:32:29.049Z</time>
      </trkpt>
      <trkpt lat="42.82943" lon="0.16799">
        <ele>1862</ele>
        <time>2020-07-28T10:32:30.049Z</time>
      </trkpt>
      <trkpt lat="42.82943" lon="0.16799">
        <ele>1862</ele>
        <time>2020-07-28T10:32:31.049Z</time>
      </trkpt>
      <trkpt lat="42.82944" lon="0.16806">
        <ele>1863</ele>
        <time>2020-07-28T10:32:32.049Z</time>
      </trkpt>
      <trkpt lat="42.82944" lon="0.16806">
        <ele>1863</ele>
        <time>2020-07-28T10:32:33.049Z</time>
      </trkpt>
      <trkpt lat="42.82944" lon="0.16806">
        <ele>1863</ele>
        <time>2020-07-28T10:32:34.049Z</time>
      </trkpt>
      <trkpt lat="42.82942" lon="0.16818">
        <ele>1863</ele>
        <time>2020-07-28T10:32:35.049Z</time>
      </trkpt>
      <trkpt lat="42.82942" lon="0.16818">
        <ele>1863</ele>
        <time>2020-07-28T10:32:36.049Z</time>
      </trkpt>
      <trkpt lat="42.82942" lon="0.16818">
        <ele>1863</ele>
        <time>2020-07-28T10:32:37.049Z</time>
      </trkpt>
      <trkpt lat="42.8294" lon="0.16831">
        <ele>1862</ele>
        <time>2020-07-28T10:32:38.049Z</time>
      </trkpt>
      <trkpt lat="42.8294" lon="0.16831">
        <ele>1862</ele>
        <time>2020-07-28T10:32:39.049Z</time>
      </trkpt>
      <trkpt lat="42.8294" lon="0.16831">
        <ele>1862</ele>
        <time>2020-07-28T10:32:40.049Z</time>
      </trkpt>
      <trkpt lat="42.8294" lon="0.16844">
        <ele>1862</ele>
        <time>2020-07-28T10:32:41.049Z</time>
      </trkpt>
      <trkpt lat="42.8294" lon="0.16844">
        <ele>1862</ele>
        <time>2020-07-28T10:32:42.049Z</time>
      </trkpt>
      <trkpt lat="42.8294" lon="0.16844">
        <ele>1862</ele>
        <time>2020-07-28T10:32:43.049Z</time>
      </trkpt>
      <trkpt lat="42.82941" lon="0.16856">
        <ele>1862</ele>
        <time>2020-07-28T10:32:44.049Z</time>
      </trkpt>
      <trkpt lat="42.82941" lon="0.16856">
        <ele>1862</ele>
        <time>2020-07-28T10:32:45.049Z</time>
      </trkpt>
      <trkpt lat="42.82941" lon="0.16856">
        <ele>1862</ele>
        <time>2020-07-28T10:32:46.049Z</time>
      </trkpt>
      <trkpt lat="42.82942" lon="0.16868">
        <ele>1865</ele>
        <time>2020-07-28T10:32:47.049Z</time>
      </trkpt>
      <trkpt lat="42.82942" lon="0.16868">
        <ele>1865</ele>
        <time>2020-07-28T10:32:48.049Z</time>
      </trkpt>
      <trkpt lat="42.82942" lon="0.16868">
        <ele>1865</ele>
        <time>2020-07-28T10:32:49.049Z</time>
      </trkpt>
      <trkpt lat="42.82942" lon="0.1688">
        <ele>1867</ele>
        <time>2020-07-28T10:32:50.049Z</time>
      </trkpt>
      <trkpt lat="42.82942" lon="0.1688">
        <ele>1867</ele>
        <time>2020-07-28T10:32:51.049Z</time>
      </trkpt>
      <trkpt lat="42.82942" lon="0.1688">
        <ele>1867</ele>
        <time>2020-07-28T10:32:52.049Z</time>
      </trkpt>
      <trkpt lat="42.82941" lon="0.1689">
        <ele>1866</ele>
        <time>2020-07-28T10:32:53.049Z</time>
      </trkpt>
      <trkpt lat="42.82941" lon="0.1689">
        <ele>1866</ele>
        <time>2020-07-28T10:32:54.049Z</time>
      </trkpt>
      <trkpt lat="42.82941" lon="0.1689">
        <ele>1866</ele>
        <time>2020-07-28T10:32:55.049Z</time>
      </trkpt>
      <trkpt lat="42.82939" lon="0.169">
        <ele>1867</ele>
        <time>2020-07-28T10:32:56.049Z</time>
      </trkpt>
      <trkpt lat="42.82939" lon="0.169">
        <ele>1867</ele>
        <time>2020-07-28T10:32:57.049Z</time>
      </trkpt>
      <trkpt lat="42.82939" lon="0.169">
        <ele>1867</ele>
        <time>2020-07-28T10:32:58.049Z</time>
      </trkpt>
      <trkpt lat="42.82936" lon="0.16911">
        <ele>1865</ele>
        <time>2020-07-28T10:32:59.049Z</time>
      </trkpt>
      <trkpt lat="42.82936" lon="0.16911">
        <ele>1865</ele>
        <time>2020-07-28T10:33:00.049Z</time>
      </trkpt>
      <trkpt lat="42.82936" lon="0.16911">
        <ele>1865</ele>
        <time>2020-07-28T10:33:01.049Z</time>
      </trkpt>
      <trkpt lat="42.82928" lon="0.16917">
        <ele>1861</ele>
        <time>2020-07-28T10:33:02.049Z</time>
      </trkpt>
      <trkpt lat="42.82928" lon="0.16917">
        <ele>1861</ele>
        <time>2020-07-28T10:33:03.049Z</time>
      </trkpt>
      <trkpt lat="42.82928" lon="0.16917">
        <ele>1861</ele>
        <time>2020-07-28T10:33:04.049Z</time>
      </trkpt>
      <trkpt lat="42.8292" lon="0.16922">
        <ele>1858</ele>
        <time>2020-07-28T10:33:05.049Z</time>
      </trkpt>
      <trkpt lat="42.82901" lon="0.1694">
        <ele>1867</ele>
        <time>2020-07-28T10:33:06.065Z</time>
      </trkpt>
      <trkpt lat="42.82899" lon="0.16941">
        <ele>1866</ele>
        <time>2020-07-28T10:33:07.065Z</time>
      </trkpt>
      <trkpt lat="42.82899" lon="0.16941">
        <ele>1866</ele>
        <time>2020-07-28T10:33:08.065Z</time>
      </trkpt>
      <trkpt lat="42.82899" lon="0.16941">
        <ele>1866</ele>
        <time>2020-07-28T10:33:09.065Z</time>
      </trkpt>
      <trkpt lat="42.82895" lon="0.16942">
        <ele>1866</ele>
        <time>2020-07-28T10:33:10.065Z</time>
      </trkpt>
      <trkpt lat="42.82895" lon="0.16942">
        <ele>1866</ele>
        <time>2020-07-28T10:33:11.065Z</time>
      </trkpt>
      <trkpt lat="42.82895" lon="0.16942">
        <ele>1866</ele>
        <time>2020-07-28T10:33:12.065Z</time>
      </trkpt>
      <trkpt lat="42.82889" lon="0.16943">
        <ele>1866</ele>
        <time>2020-07-28T10:33:13.065Z</time>
      </trkpt>
      <trkpt lat="42.82889" lon="0.16943">
        <ele>1866</ele>
        <time>2020-07-28T10:33:14.065Z</time>
      </trkpt>
      <trkpt lat="42.82889" lon="0.16943">
        <ele>1866</ele>
        <time>2020-07-28T10:33:15.065Z</time>
      </trkpt>
      <trkpt lat="42.82881" lon="0.16946">
        <ele>1865</ele>
        <time>2020-07-28T10:33:16.065Z</time>
      </trkpt>
      <trkpt lat="42.82881" lon="0.16946">
        <ele>1865</ele>
        <time>2020-07-28T10:33:17.065Z</time>
      </trkpt>
      <trkpt lat="42.82881" lon="0.16946">
        <ele>1865</ele>
        <time>2020-07-28T10:33:18.065Z</time>
      </trkpt>
      <trkpt lat="42.82873" lon="0.16951">
        <ele>1863</ele>
        <time>2020-07-28T10:33:19.065Z</time>
      </trkpt>
      <trkpt lat="42.82873" lon="0.16951">
        <ele>1863</ele>
        <time>2020-07-28T10:33:20.065Z</time>
      </trkpt>
      <trkpt lat="42.82873" lon="0.16951">
        <ele>1863</ele>
        <time>2020-07-28T10:33:21.065Z</time>
      </trkpt>
      <trkpt lat="42.82864" lon="0.16954">
        <ele>1862</ele>
        <time>2020-07-28T10:33:22.065Z</time>
      </trkpt>
      <trkpt lat="42.82864" lon="0.16954">
        <ele>1862</ele>
        <time>2020-07-28T10:33:23.065Z</time>
      </trkpt>
      <trkpt lat="42.82864" lon="0.16954">
        <ele>1862</ele>
        <time>2020-07-28T10:33:24.065Z</time>
      </trkpt>
      <trkpt lat="42.82853" lon="0.16954">
        <ele>1863</ele>
        <time>2020-07-28T10:33:25.065Z</time>
      </trkpt>
      <trkpt lat="42.82853" lon="0.16954">
        <ele>1863</ele>
        <time>2020-07-28T10:33:26.065Z</time>
      </trkpt>
      <trkpt lat="42.82853" lon="0.16954">
        <ele>1863</ele>
        <time>2020-07-28T10:33:27.065Z</time>
      </trkpt>
      <trkpt lat="42.82843" lon="0.16952">
        <ele>1863</ele>
        <time>2020-07-28T10:33:28.065Z</time>
      </trkpt>
      <trkpt lat="42.82843" lon="0.16952">
        <ele>1863</ele>
        <time>2020-07-28T10:33:29.065Z</time>
      </trkpt>
      <trkpt lat="42.82843" lon="0.16952">
        <ele>1863</ele>
        <time>2020-07-28T10:33:30.065Z</time>
      </trkpt>
      <trkpt lat="42.82834" lon="0.16951">
        <ele>1864</ele>
        <time>2020-07-28T10:33:31.065Z</time>
      </trkpt>
      <trkpt lat="42.82834" lon="0.16951">
        <ele>1864</ele>
        <time>2020-07-28T10:33:32.065Z</time>
      </trkpt>
      <trkpt lat="42.82834" lon="0.16951">
        <ele>1864</ele>
        <time>2020-07-28T10:33:33.065Z</time>
      </trkpt>
    </trkseg>
  </trk>
</gpx>